﻿<?xml version="1.0" encoding="utf-8"?><gpx creator="Garmin Desktop App" version="1.1" xsi:schemaLocation="http://www.topografix.com/GPX/1/1 http://www.topografix.com/GPX/1/1/gpx.xsd http://www.garmin.com/xmlschemas/WaypointExtension/v1 http://www8.garmin.com/xmlschemas/WaypointExtensionv1.xsd http://www.garmin.com/xmlschemas/TrackPointExtension/v1 http://www.garmin.com/xmlschemas/TrackPointExtensionv1.xsd http://www.garmin.com/xmlschemas/GpxExtensions/v3 http://www8.garmin.com/xmlschemas/GpxExtensionsv3.xsd http://www.garmin.com/xmlschemas/ActivityExtension/v1 http://www8.garmin.com/xmlschemas/ActivityExtensionv1.xsd http://www.garmin.com/xmlschemas/AdventuresExtensions/v1 http://www8.garmin.com/xmlschemas/AdventuresExtensionv1.xsd http://www.garmin.com/xmlschemas/PressureExtension/v1 http://www.garmin.com/xmlschemas/PressureExtensionv1.xsd http://www.garmin.com/xmlschemas/TripExtensions/v1 http://www.garmin.com/xmlschemas/TripExtensionsv1.xsd http://www.garmin.com/xmlschemas/TripMetaDataExtensions/v1 http://www.garmin.com/xmlschemas/TripMetaDataExtensionsv1.xsd http://www.garmin.com/xmlschemas/ViaPointTransportationModeExtensions/v1 http://www.garmin.com/xmlschemas/ViaPointTransportationModeExtensionsv1.xsd http://www.garmin.com/xmlschemas/CreationTimeExtension/v1 http://www.garmin.com/xmlschemas/CreationTimeExtensionsv1.xsd http://www.garmin.com/xmlschemas/AccelerationExtension/v1 http://www.garmin.com/xmlschemas/AccelerationExtensionv1.xsd http://www.garmin.com/xmlschemas/PowerExtension/v1 http://www.garmin.com/xmlschemas/PowerExtensionv1.xsd http://www.garmin.com/xmlschemas/VideoExtension/v1 http://www.garmin.com/xmlschemas/VideoExtensionv1.xsd" xmlns="http://www.topografix.com/GPX/1/1" xmlns:xsi="http://www.w3.org/2001/XMLSchema-instance" xmlns:wptx1="http://www.garmin.com/xmlschemas/WaypointExtension/v1" xmlns:gpxtrx="http://www.garmin.com/xmlschemas/GpxExtensions/v3" xmlns:gpxtpx="http://www.garmin.com/xmlschemas/TrackPointExtension/v1" xmlns:gpxx="http://www.garmin.com/xmlschemas/GpxExtensions/v3" xmlns:trp="http://www.garmin.com/xmlschemas/TripExtensions/v1" xmlns:adv="http://www.garmin.com/xmlschemas/AdventuresExtensions/v1" xmlns:prs="http://www.garmin.com/xmlschemas/PressureExtension/v1" xmlns:tmd="http://www.garmin.com/xmlschemas/TripMetaDataExtensions/v1" xmlns:vptm="http://www.garmin.com/xmlschemas/ViaPointTransportationModeExtensions/v1" xmlns:ctx="http://www.garmin.com/xmlschemas/CreationTimeExtension/v1" xmlns:gpxacc="http://www.garmin.com/xmlschemas/AccelerationExtension/v1" xmlns:gpxpx="http://www.garmin.com/xmlschemas/PowerExtension/v1" xmlns:vidx1="http://www.garmin.com/xmlschemas/VideoExtension/v1">

  <metadata>
    <link href="http://www.garmin.com">
      <text>Garmin International</text>
    </link>
    <time>2021-01-27T10:54:47Z</time>
    <bounds maxlat="46.666768686845899" maxlon="12.374010533094406" minlat="46.337741939350963" minlon="12.142161978408694" />
  </metadata>

  <trk>
    <name>1tappa2015-07-11</name>
    <extensions>
      <gpxx:TrackExtension>
        <gpxx:DisplayColor>Yellow</gpxx:DisplayColor>
      </gpxx:TrackExtension>
    </extensions>
    <trkseg>
      <trkpt lat="46.666768686845899" lon="12.354186912998557">
        <ele>1466.1500000000001</ele>
        <time>2015-07-11T11:39:05Z</time>
      </trkpt>
      <trkpt lat="46.666762651875615" lon="12.354178028181195">
        <ele>1466.1500000000001</ele>
        <time>2015-07-11T11:39:06Z</time>
      </trkpt>
      <trkpt lat="46.666673049330711" lon="12.354065040126443">
        <ele>1466.6300000000001</ele>
        <time>2015-07-11T11:39:18Z</time>
      </trkpt>
      <trkpt lat="46.666660225018859" lon="12.354002678766847">
        <ele>1465.6700000000001</ele>
        <time>2015-07-11T11:39:24Z</time>
      </trkpt>
      <trkpt lat="46.666609765961766" lon="12.35394517891109">
        <ele>1465.6700000000001</ele>
        <time>2015-07-11T11:39:32Z</time>
      </trkpt>
      <trkpt lat="46.666579255834222" lon="12.353931264951825">
        <ele>1465.6700000000001</ele>
        <time>2015-07-11T11:39:35Z</time>
      </trkpt>
      <trkpt lat="46.666452018544078" lon="12.353795142844319">
        <ele>1465.6700000000001</ele>
        <time>2015-07-11T11:39:48Z</time>
      </trkpt>
      <trkpt lat="46.666349926963449" lon="12.353740660473704">
        <ele>1465.1900000000001</ele>
        <time>2015-07-11T11:39:58Z</time>
      </trkpt>
      <trkpt lat="46.666215481236577" lon="12.35362758859992">
        <ele>1464.71</ele>
        <time>2015-07-11T11:40:12Z</time>
      </trkpt>
      <trkpt lat="46.666161417961121" lon="12.353601772338152">
        <ele>1464.71</ele>
        <time>2015-07-11T11:40:17Z</time>
      </trkpt>
      <trkpt lat="46.666116574779153" lon="12.353586936369538">
        <ele>1464.71</ele>
        <time>2015-07-11T11:40:21Z</time>
      </trkpt>
      <trkpt lat="46.666051112115383" lon="12.353525748476386">
        <ele>1465.1900000000001</ele>
        <time>2015-07-11T11:40:30Z</time>
      </trkpt>
      <trkpt lat="46.66590585373342" lon="12.353399936109781">
        <ele>1465.1900000000001</ele>
        <time>2015-07-11T11:40:44Z</time>
      </trkpt>
      <trkpt lat="46.665860004723072" lon="12.353391889482737">
        <ele>1466.1500000000001</ele>
        <time>2015-07-11T11:40:48Z</time>
      </trkpt>
      <trkpt lat="46.665714662522078" lon="12.353301113471389">
        <ele>1466.1500000000001</ele>
        <time>2015-07-11T11:41:00Z</time>
      </trkpt>
      <trkpt lat="46.665637046098709" lon="12.353237243369222">
        <ele>1466.6300000000001</ele>
        <time>2015-07-11T11:41:08Z</time>
      </trkpt>
      <trkpt lat="46.665492793545127" lon="12.353156441822648">
        <ele>1467.1099999999999</ele>
        <time>2015-07-11T11:41:21Z</time>
      </trkpt>
      <trkpt lat="46.665450800210238" lon="12.353149903938174">
        <ele>1466.6300000000001</ele>
        <time>2015-07-11T11:41:32Z</time>
      </trkpt>
      <trkpt lat="46.665402268990874" lon="12.353121573105454">
        <ele>1466.1500000000001</ele>
        <time>2015-07-11T11:41:36Z</time>
      </trkpt>
      <trkpt lat="46.665262961760163" lon="12.353067090734839">
        <ele>1466.1500000000001</ele>
        <time>2015-07-11T11:41:47Z</time>
      </trkpt>
      <trkpt lat="46.665244270116091" lon="12.353064743801951">
        <ele>1466.6300000000001</ele>
        <time>2015-07-11T11:41:49Z</time>
      </trkpt>
      <trkpt lat="46.665222560986876" lon="12.353046303614974">
        <ele>1466.1500000000001</ele>
        <time>2015-07-11T11:41:59Z</time>
      </trkpt>
      <trkpt lat="46.665126923471689" lon="12.352996598929167">
        <ele>1466.6300000000001</ele>
        <time>2015-07-11T11:42:08Z</time>
      </trkpt>
      <trkpt lat="46.664980994537473" lon="12.352896938100457">
        <ele>1466.6300000000001</ele>
        <time>2015-07-11T11:42:21Z</time>
      </trkpt>
      <trkpt lat="46.664834478870034" lon="12.35277540050447">
        <ele>1466.6300000000001</ele>
        <time>2015-07-11T11:42:37Z</time>
      </trkpt>
      <trkpt lat="46.664689388126135" lon="12.35270750708878">
        <ele>1466.6300000000001</ele>
        <time>2015-07-11T11:42:50Z</time>
      </trkpt>
      <trkpt lat="46.6646774020046" lon="12.352701723575592">
        <ele>1466.6300000000001</ele>
        <time>2015-07-11T11:42:51Z</time>
      </trkpt>
      <trkpt lat="46.664481936022639" lon="12.352674230933189">
        <ele>1467.1099999999999</ele>
        <time>2015-07-11T11:43:05Z</time>
      </trkpt>
      <trkpt lat="46.664424436166883" lon="12.35264346934855">
        <ele>1467.5899999999999</ele>
        <time>2015-07-11T11:43:10Z</time>
      </trkpt>
      <trkpt lat="46.664271634072065" lon="12.352527547627687">
        <ele>1467.5899999999999</ele>
        <time>2015-07-11T11:43:24Z</time>
      </trkpt>
      <trkpt lat="46.664105169475079" lon="12.352422773838043">
        <ele>1467.1099999999999</ele>
        <time>2015-07-11T11:43:38Z</time>
      </trkpt>
      <trkpt lat="46.663966281339526" lon="12.352316910400987">
        <ele>1467.1099999999999</ele>
        <time>2015-07-11T11:43:50Z</time>
      </trkpt>
      <trkpt lat="46.663794703781605" lon="12.352181207388639">
        <ele>1467.5899999999999</ele>
        <time>2015-07-11T11:44:05Z</time>
      </trkpt>
      <trkpt lat="46.663711555302143" lon="12.352096466347575">
        <ele>1468.55</ele>
        <time>2015-07-11T11:44:16Z</time>
      </trkpt>
      <trkpt lat="46.663650199770927" lon="12.352066207677126">
        <ele>1468.55</ele>
        <time>2015-07-11T11:44:25Z</time>
      </trkpt>
      <trkpt lat="46.66364106349647" lon="12.352057155221701">
        <ele>1468.55</ele>
        <time>2015-07-11T11:44:26Z</time>
      </trkpt>
      <trkpt lat="46.663566799834371" lon="12.351992782205343">
        <ele>1469.03</ele>
        <time>2015-07-11T11:44:34Z</time>
      </trkpt>
      <trkpt lat="46.663491949439049" lon="12.351923547685146">
        <ele>1469.03</ele>
        <time>2015-07-11T11:44:42Z</time>
      </trkpt>
      <trkpt lat="46.66339622810483" lon="12.351806536316872">
        <ele>1469.03</ele>
        <time>2015-07-11T11:44:54Z</time>
      </trkpt>
      <trkpt lat="46.66339136660099" lon="12.351793963462114">
        <ele>1469.03</ele>
        <time>2015-07-11T11:44:55Z</time>
      </trkpt>
      <trkpt lat="46.663357503712177" lon="12.351743169128895">
        <ele>1469.03</ele>
        <time>2015-07-11T11:44:59Z</time>
      </trkpt>
      <trkpt lat="46.663219872862101" lon="12.351594809442759">
        <ele>1469.99</ele>
        <time>2015-07-11T11:45:13Z</time>
      </trkpt>
      <trkpt lat="46.66315826587379" lon="12.351422561332583">
        <ele>1469.99</ele>
        <time>2015-07-11T11:45:24Z</time>
      </trkpt>
      <trkpt lat="46.663141837343574" lon="12.351358607411385">
        <ele>1469.99</ele>
        <time>2015-07-11T11:45:35Z</time>
      </trkpt>
      <trkpt lat="46.663113087415695" lon="12.351310746744275">
        <ele>1469.99</ele>
        <time>2015-07-11T11:45:40Z</time>
      </trkpt>
      <trkpt lat="46.663058688864112" lon="12.351262969896197">
        <ele>1469.99</ele>
        <time>2015-07-11T11:45:46Z</time>
      </trkpt>
      <trkpt lat="46.662891721352935" lon="12.351171020418406">
        <ele>1469.99</ele>
        <time>2015-07-11T11:46:00Z</time>
      </trkpt>
      <trkpt lat="46.662693489342928" lon="12.351153753697872">
        <ele>1470.47</ele>
        <time>2015-07-11T11:46:16Z</time>
      </trkpt>
      <trkpt lat="46.662602461874485" lon="12.351163560524583">
        <ele>1470.47</ele>
        <time>2015-07-11T11:46:23Z</time>
      </trkpt>
      <trkpt lat="46.662480505183339" lon="12.3511125985533">
        <ele>1471.4400000000001</ele>
        <time>2015-07-11T11:46:35Z</time>
      </trkpt>
      <trkpt lat="46.662309095263481" lon="12.351017380133271">
        <ele>1472.4000000000001</ele>
        <time>2015-07-11T11:46:49Z</time>
      </trkpt>
      <trkpt lat="46.662188312038779" lon="12.350973458960652">
        <ele>1472.8800000000001</ele>
        <time>2015-07-11T11:47:01Z</time>
      </trkpt>
      <trkpt lat="46.662056129425764" lon="12.350961975753307">
        <ele>1473.8399999999999</ele>
        <time>2015-07-11T11:47:14Z</time>
      </trkpt>
      <trkpt lat="46.661992762237787" lon="12.350992988795042">
        <ele>1474.3199999999999</ele>
        <time>2015-07-11T11:47:19Z</time>
      </trkpt>
      <trkpt lat="46.661888659000397" lon="12.351020397618413">
        <ele>1474.3199999999999</ele>
        <time>2015-07-11T11:47:26Z</time>
      </trkpt>
      <trkpt lat="46.661806767806411" lon="12.351031126454473">
        <ele>1474.8</ele>
        <time>2015-07-11T11:47:33Z</time>
      </trkpt>
      <trkpt lat="46.661744406446815" lon="12.351054763421416">
        <ele>1475.76</ele>
        <time>2015-07-11T11:47:38Z</time>
      </trkpt>
      <trkpt lat="46.661577019840479" lon="12.351071443408728">
        <ele>1475.76</ele>
        <time>2015-07-11T11:47:52Z</time>
      </trkpt>
      <trkpt lat="46.661432515829802" lon="12.35105250030756">
        <ele>1476.72</ele>
        <time>2015-07-11T11:48:05Z</time>
      </trkpt>
      <trkpt lat="46.661306619644165" lon="12.351062726229429">
        <ele>1477.2</ele>
        <time>2015-07-11T11:48:17Z</time>
      </trkpt>
      <trkpt lat="46.66129463352263" lon="12.351065743714571">
        <ele>1477.2</ele>
        <time>2015-07-11T11:48:18Z</time>
      </trkpt>
      <trkpt lat="46.661143843084574" lon="12.35114436596632">
        <ele>1478.1600000000001</ele>
        <time>2015-07-11T11:48:30Z</time>
      </trkpt>
      <trkpt lat="46.661027083173394" lon="12.351152412593365">
        <ele>1479.1300000000001</ele>
        <time>2015-07-11T11:48:40Z</time>
      </trkpt>
      <trkpt lat="46.660886770114303" lon="12.351156435906887">
        <ele>1479.6099999999999</ele>
        <time>2015-07-11T11:48:52Z</time>
      </trkpt>
      <trkpt lat="46.660786354914308" lon="12.351168673485518">
        <ele>1479.6099999999999</ele>
        <time>2015-07-11T11:49:02Z</time>
      </trkpt>
      <trkpt lat="46.660652495920658" lon="12.351192813366652">
        <ele>1480.5699999999999</ele>
        <time>2015-07-11T11:49:14Z</time>
      </trkpt>
      <trkpt lat="46.660505728796124" lon="12.35120739787817">
        <ele>1480.5699999999999</ele>
        <time>2015-07-11T11:49:26Z</time>
      </trkpt>
      <trkpt lat="46.660430794581771" lon="12.351213097572327">
        <ele>1481.53</ele>
        <time>2015-07-11T11:49:32Z</time>
      </trkpt>
      <trkpt lat="46.66041268967092" lon="12.351213935762644">
        <ele>1481.53</ele>
        <time>2015-07-11T11:49:34Z</time>
      </trkpt>
      <trkpt lat="46.66026852093637" lon="12.351317536085844">
        <ele>1481.53</ele>
        <time>2015-07-11T11:49:47Z</time>
      </trkpt>
      <trkpt lat="46.660174811258912" lon="12.351363049820065">
        <ele>1483.45</ele>
        <time>2015-07-11T11:49:56Z</time>
      </trkpt>
      <trkpt lat="46.660118233412504" lon="12.351374952122569">
        <ele>1483.45</ele>
        <time>2015-07-11T11:50:00Z</time>
      </trkpt>
      <trkpt lat="46.660077832639217" lon="12.351380987092853">
        <ele>1483.9300000000001</ele>
        <time>2015-07-11T11:50:03Z</time>
      </trkpt>
      <trkpt lat="46.659946152940392" lon="12.351445946842432">
        <ele>1483.9300000000001</ele>
        <time>2015-07-11T11:50:14Z</time>
      </trkpt>
      <trkpt lat="46.659820843487978" lon="12.35154309310019">
        <ele>1484.8900000000001</ele>
        <time>2015-07-11T11:50:27Z</time>
      </trkpt>
      <trkpt lat="46.659728055819869" lon="12.351672509685159">
        <ele>1485.3699999999999</ele>
        <time>2015-07-11T11:50:39Z</time>
      </trkpt>
      <trkpt lat="46.659622108563781" lon="12.351808296516538">
        <ele>1486.3399999999999</ele>
        <time>2015-07-11T11:50:51Z</time>
      </trkpt>
      <trkpt lat="46.659516580402851" lon="12.351884571835399">
        <ele>1487.3</ele>
        <time>2015-07-11T11:51:01Z</time>
      </trkpt>
      <trkpt lat="46.659427564591169" lon="12.351987836882472">
        <ele>1487.78</ele>
        <time>2015-07-11T11:51:11Z</time>
      </trkpt>
      <trkpt lat="46.659293370321393" lon="12.352030500769615">
        <ele>1488.26</ele>
        <time>2015-07-11T11:51:22Z</time>
      </trkpt>
      <trkpt lat="46.659167977049947" lon="12.352077355608344">
        <ele>1488.74</ele>
        <time>2015-07-11T11:51:33Z</time>
      </trkpt>
      <trkpt lat="46.659059850499034" lon="12.35214508138597">
        <ele>1489.22</ele>
        <time>2015-07-11T11:51:44Z</time>
      </trkpt>
      <trkpt lat="46.658960524946451" lon="12.352269720286131">
        <ele>1490.6600000000001</ele>
        <time>2015-07-11T11:51:56Z</time>
      </trkpt>
      <trkpt lat="46.658835131675005" lon="12.352386647835374">
        <ele>1490.6600000000001</ele>
        <time>2015-07-11T11:52:08Z</time>
      </trkpt>
      <trkpt lat="46.658687526360154" lon="12.352457139641047">
        <ele>1490.6600000000001</ele>
        <time>2015-07-11T11:52:21Z</time>
      </trkpt>
      <trkpt lat="46.65858375839889" lon="12.352521009743214">
        <ele>1492.0999999999999</ele>
        <time>2015-07-11T11:52:31Z</time>
      </trkpt>
      <trkpt lat="46.658566743135452" lon="12.352556800469756">
        <ele>1492.0999999999999</ele>
        <time>2015-07-11T11:52:34Z</time>
      </trkpt>
      <trkpt lat="46.658527515828609" lon="12.352623855695128">
        <ele>1492.5799999999999</ele>
        <time>2015-07-11T11:52:40Z</time>
      </trkpt>
      <trkpt lat="46.658417377620935" lon="12.35276710242033">
        <ele>1493.0599999999999</ele>
        <time>2015-07-11T11:52:53Z</time>
      </trkpt>
      <trkpt lat="46.658299108967185" lon="12.352878414094448">
        <ele>1494.03</ele>
        <time>2015-07-11T11:53:06Z</time>
      </trkpt>
      <trkpt lat="46.658114204183221" lon="12.353006573393941">
        <ele>1495.47</ele>
        <time>2015-07-11T11:53:24Z</time>
      </trkpt>
      <trkpt lat="46.657934077084064" lon="12.353107323870063">
        <ele>1496.4300000000001</ele>
        <time>2015-07-11T11:53:39Z</time>
      </trkpt>
      <trkpt lat="46.657868111506104" lon="12.353145210072398">
        <ele>1496.9100000000001</ele>
        <time>2015-07-11T11:53:45Z</time>
      </trkpt>
      <trkpt lat="46.657695025205612" lon="12.353206649422646">
        <ele>1497.3900000000001</ele>
        <time>2015-07-11T11:54:00Z</time>
      </trkpt>
      <trkpt lat="46.65758010931313" lon="12.353382501751184">
        <ele>1498.3499999999999</ele>
        <time>2015-07-11T11:54:15Z</time>
      </trkpt>
      <trkpt lat="46.657528895884752" lon="12.353577129542828">
        <ele>1498.8299999999999</ele>
        <time>2015-07-11T11:54:29Z</time>
      </trkpt>
      <trkpt lat="46.657492853701115" lon="12.353832693770528">
        <ele>1500.27</ele>
        <time>2015-07-11T11:54:45Z</time>
      </trkpt>
      <trkpt lat="46.657384475693107" lon="12.354047689586878">
        <ele>1501.72</ele>
        <time>2015-07-11T11:55:01Z</time>
      </trkpt>
      <trkpt lat="46.657361844554543" lon="12.354082223027945">
        <ele>1502.2</ele>
        <time>2015-07-11T11:55:04Z</time>
      </trkpt>
      <trkpt lat="46.657227817922831" lon="12.354168891906738">
        <ele>1502.2</ele>
        <time>2015-07-11T11:55:15Z</time>
      </trkpt>
      <trkpt lat="46.657140227034688" lon="12.354212729260325">
        <ele>1503.6400000000001</ele>
        <time>2015-07-11T11:55:26Z</time>
      </trkpt>
      <trkpt lat="46.657087840139866" lon="12.354292441159487">
        <ele>1503.6400000000001</ele>
        <time>2015-07-11T11:55:33Z</time>
      </trkpt>
      <trkpt lat="46.65697367861867" lon="12.354372572153807">
        <ele>1505.0799999999999</ele>
        <time>2015-07-11T11:55:45Z</time>
      </trkpt>
      <trkpt lat="46.656860103830695" lon="12.354462090879679">
        <ele>1505.5599999999999</ele>
        <time>2015-07-11T11:55:57Z</time>
      </trkpt>
      <trkpt lat="46.656712749972939" lon="12.354543898254633">
        <ele>1506.52</ele>
        <time>2015-07-11T11:56:11Z</time>
      </trkpt>
      <trkpt lat="46.656546788290143" lon="12.354608690366149">
        <ele>1507.48</ele>
        <time>2015-07-11T11:56:24Z</time>
      </trkpt>
      <trkpt lat="46.656420892104506" lon="12.354613468050957">
        <ele>1508.45</ele>
        <time>2015-07-11T11:56:35Z</time>
      </trkpt>
      <trkpt lat="46.656276220455766" lon="12.354627549648285">
        <ele>1508.9300000000001</ele>
        <time>2015-07-11T11:56:48Z</time>
      </trkpt>
      <trkpt lat="46.656120233237743" lon="12.354632830247283">
        <ele>1509.8900000000001</ele>
        <time>2015-07-11T11:57:02Z</time>
      </trkpt>
      <trkpt lat="46.656049573794007" lon="12.354657053947449">
        <ele>1509.8900000000001</ele>
        <time>2015-07-11T11:57:09Z</time>
      </trkpt>
      <trkpt lat="46.655996264889836" lon="12.354674404487014">
        <ele>1510.3699999999999</ele>
        <time>2015-07-11T11:57:14Z</time>
      </trkpt>
      <trkpt lat="46.655856873840094" lon="12.354706423357129">
        <ele>1511.3299999999999</ele>
        <time>2015-07-11T11:57:27Z</time>
      </trkpt>
      <trkpt lat="46.655731145292521" lon="12.354743303731084">
        <ele>1512.29</ele>
        <time>2015-07-11T11:57:40Z</time>
      </trkpt>
      <trkpt lat="46.655560741201043" lon="12.354731736704707">
        <ele>1513.25</ele>
        <time>2015-07-11T11:57:56Z</time>
      </trkpt>
      <trkpt lat="46.655479436740279" lon="12.354756630957127">
        <ele>1513.73</ele>
        <time>2015-07-11T11:58:05Z</time>
      </trkpt>
      <trkpt lat="46.655343063175678" lon="12.354771299287677">
        <ele>1514.21</ele>
        <time>2015-07-11T11:58:17Z</time>
      </trkpt>
      <trkpt lat="46.655189087614417" lon="12.354772472754121">
        <ele>1515.6600000000001</ele>
        <time>2015-07-11T11:58:31Z</time>
      </trkpt>
      <trkpt lat="46.655054306611419" lon="12.354759396985173">
        <ele>1516.6199999999999</ele>
        <time>2015-07-11T11:58:43Z</time>
      </trkpt>
      <trkpt lat="46.654922543093562" lon="12.354756463319063">
        <ele>1517.0999999999999</ele>
        <time>2015-07-11T11:58:55Z</time>
      </trkpt>
      <trkpt lat="46.65477192029357" lon="12.354697370901704">
        <ele>1517.0999999999999</ele>
        <time>2015-07-11T11:59:09Z</time>
      </trkpt>
      <trkpt lat="46.654653232544661" lon="12.354597542434931">
        <ele>1518.0599999999999</ele>
        <time>2015-07-11T11:59:22Z</time>
      </trkpt>
      <trkpt lat="46.654576621949673" lon="12.354575581848621">
        <ele>1518.0599999999999</ele>
        <time>2015-07-11T11:59:33Z</time>
      </trkpt>
      <trkpt lat="46.654607132077217" lon="12.35457306727767">
        <ele>1518.54</ele>
        <time>2015-07-11T11:59:38Z</time>
      </trkpt>
      <trkpt lat="46.654563378542662" lon="12.35457063652575">
        <ele>1518.54</ele>
        <time>2015-07-11T11:59:42Z</time>
      </trkpt>
      <trkpt lat="46.654389118775725" lon="12.354541551321745">
        <ele>1519.02</ele>
        <time>2015-07-11T11:59:56Z</time>
      </trkpt>
      <trkpt lat="46.654227180406451" lon="12.354511795565486">
        <ele>1519.98</ele>
        <time>2015-07-11T12:00:10Z</time>
      </trkpt>
      <trkpt lat="46.654077814891934" lon="12.354419426992536">
        <ele>1520.9400000000001</ele>
        <time>2015-07-11T12:00:24Z</time>
      </trkpt>
      <trkpt lat="46.653947979211807" lon="12.354364357888699">
        <ele>1521.9000000000001</ele>
        <time>2015-07-11T12:00:36Z</time>
      </trkpt>
      <trkpt lat="46.653815880417824" lon="12.354310546070337">
        <ele>1522.8699999999999</ele>
        <time>2015-07-11T12:00:48Z</time>
      </trkpt>
      <trkpt lat="46.653699539601803" lon="12.354306941851974">
        <ele>1523.3499999999999</ele>
        <time>2015-07-11T12:00:58Z</time>
      </trkpt>
      <trkpt lat="46.653547156602144" lon="12.354292189702392">
        <ele>1524.3099999999999</ele>
        <time>2015-07-11T12:01:11Z</time>
      </trkpt>
      <trkpt lat="46.653416818007827" lon="12.354285567998886">
        <ele>1524.79</ele>
        <time>2015-07-11T12:01:22Z</time>
      </trkpt>
      <trkpt lat="46.653288574889302" lon="12.354283221065998">
        <ele>1525.75</ele>
        <time>2015-07-11T12:01:33Z</time>
      </trkpt>
      <trkpt lat="46.653134766966105" lon="12.354245586320758">
        <ele>1526.23</ele>
        <time>2015-07-11T12:01:46Z</time>
      </trkpt>
      <trkpt lat="46.653074165806174" lon="12.35428037121892">
        <ele>1526.71</ele>
        <time>2015-07-11T12:01:57Z</time>
      </trkpt>
      <trkpt lat="46.653069471940398" lon="12.354278862476349">
        <ele>1526.71</ele>
        <time>2015-07-11T12:01:58Z</time>
      </trkpt>
      <trkpt lat="46.653025299310684" lon="12.354269307106733">
        <ele>1527.1900000000001</ele>
        <time>2015-07-11T12:02:02Z</time>
      </trkpt>
      <trkpt lat="46.652988251298666" lon="12.354258745908737">
        <ele>1527.1900000000001</ele>
        <time>2015-07-11T12:02:05Z</time>
      </trkpt>
      <trkpt lat="46.652822121977806" lon="12.35422563739121">
        <ele>1527.6700000000001</ele>
        <time>2015-07-11T12:02:19Z</time>
      </trkpt>
      <trkpt lat="46.65270016528666" lon="12.35424717888236">
        <ele>1528.6300000000001</ele>
        <time>2015-07-11T12:02:30Z</time>
      </trkpt>
      <trkpt lat="46.652586506679654" lon="12.354219686239958">
        <ele>1529.5899999999999</ele>
        <time>2015-07-11T12:02:40Z</time>
      </trkpt>
      <trkpt lat="46.652457006275654" lon="12.354190349578857">
        <ele>1530.5599999999999</ele>
        <time>2015-07-11T12:02:52Z</time>
      </trkpt>
      <trkpt lat="46.652334630489349" lon="12.354115666821599">
        <ele>1530.5599999999999</ele>
        <time>2015-07-11T12:03:03Z</time>
      </trkpt>
      <trkpt lat="46.652212841436267" lon="12.354009635746479">
        <ele>1532</ele>
        <time>2015-07-11T12:03:16Z</time>
      </trkpt>
      <trkpt lat="46.652087699621916" lon="12.35395448282361">
        <ele>1532.48</ele>
        <time>2015-07-11T12:03:27Z</time>
      </trkpt>
      <trkpt lat="46.651951996609569" lon="12.353962110355496">
        <ele>1532.96</ele>
        <time>2015-07-11T12:03:39Z</time>
      </trkpt>
      <trkpt lat="46.651826603338122" lon="12.353914920240641">
        <ele>1533.9200000000001</ele>
        <time>2015-07-11T12:03:50Z</time>
      </trkpt>
      <trkpt lat="46.65169358253479" lon="12.35384208150208">
        <ele>1534.4000000000001</ele>
        <time>2015-07-11T12:04:03Z</time>
      </trkpt>
      <trkpt lat="46.651661144569516" lon="12.353812577202916">
        <ele>1534.8800000000001</ele>
        <time>2015-07-11T12:04:07Z</time>
      </trkpt>
      <trkpt lat="46.651592748239636" lon="12.353705624118447">
        <ele>1535.3599999999999</ele>
        <time>2015-07-11T12:04:17Z</time>
      </trkpt>
      <trkpt lat="46.651492500677705" lon="12.353626750409603">
        <ele>1535.8399999999999</ele>
        <time>2015-07-11T12:04:28Z</time>
      </trkpt>
      <trkpt lat="46.651472551748157" lon="12.35363245010376">
        <ele>1536.3199999999999</ele>
        <time>2015-07-11T12:04:37Z</time>
      </trkpt>
      <trkpt lat="46.651443466544151" lon="12.353611662983894">
        <ele>1535.3599999999999</ele>
        <time>2015-07-11T12:04:47Z</time>
      </trkpt>
      <trkpt lat="46.651457631960511" lon="12.353606130927801">
        <ele>1535.8399999999999</ele>
        <time>2015-07-11T12:05:01Z</time>
      </trkpt>
      <trkpt lat="46.651425193995237" lon="12.353620463982224">
        <ele>1535.8399999999999</ele>
        <time>2015-07-11T12:05:17Z</time>
      </trkpt>
      <trkpt lat="46.651428798213601" lon="12.353633204475045">
        <ele>1535.8399999999999</ele>
        <time>2015-07-11T12:05:35Z</time>
      </trkpt>
      <trkpt lat="46.651456877589226" lon="12.353618033230305">
        <ele>1533.9200000000001</ele>
        <time>2015-07-11T12:05:51Z</time>
      </trkpt>
      <trkpt lat="46.651454363018274" lon="12.353616440668702">
        <ele>1537.29</ele>
        <time>2015-07-11T12:05:52Z</time>
      </trkpt>
      <trkpt lat="46.651447489857674" lon="12.353612584993243">
        <ele>1533.4400000000001</ele>
        <time>2015-07-11T12:05:55Z</time>
      </trkpt>
      <trkpt lat="46.651443801820278" lon="12.353609735146165">
        <ele>1536.8</ele>
        <time>2015-07-11T12:05:56Z</time>
      </trkpt>
      <trkpt lat="46.651417566463351" lon="12.353570172563195">
        <ele>1535.8399999999999</ele>
        <time>2015-07-11T12:06:15Z</time>
      </trkpt>
      <trkpt lat="46.651423014700413" lon="12.353606717661023">
        <ele>1535.8399999999999</ele>
        <time>2015-07-11T12:06:35Z</time>
      </trkpt>
      <trkpt lat="46.651456458494067" lon="12.353625409305096">
        <ele>1535.8399999999999</ele>
        <time>2015-07-11T12:06:54Z</time>
      </trkpt>
      <trkpt lat="46.651477580890059" lon="12.353599593043327">
        <ele>1535.8399999999999</ele>
        <time>2015-07-11T12:07:12Z</time>
      </trkpt>
      <trkpt lat="46.651483783498406" lon="12.353596910834312">
        <ele>1535.8399999999999</ele>
        <time>2015-07-11T12:07:31Z</time>
      </trkpt>
      <trkpt lat="46.65142435580492" lon="12.353616692125797">
        <ele>1535.8399999999999</ele>
        <time>2015-07-11T12:07:47Z</time>
      </trkpt>
      <trkpt lat="46.651428295299411" lon="12.353625241667032">
        <ele>1535.8399999999999</ele>
        <time>2015-07-11T12:08:09Z</time>
      </trkpt>
      <trkpt lat="46.651411699131131" lon="12.353635467588902">
        <ele>1536.3199999999999</ele>
        <time>2015-07-11T12:08:35Z</time>
      </trkpt>
      <trkpt lat="46.651399545371532" lon="12.353630606085062">
        <ele>1536.3199999999999</ele>
        <time>2015-07-11T12:09:03Z</time>
      </trkpt>
      <trkpt lat="46.651387810707092" lon="12.353616273030639">
        <ele>1536.3199999999999</ele>
        <time>2015-07-11T12:09:35Z</time>
      </trkpt>
      <trkpt lat="46.651403987780213" lon="12.353622475638986">
        <ele>1536.3199999999999</ele>
        <time>2015-07-11T12:09:59Z</time>
      </trkpt>
      <trkpt lat="46.651417650282383" lon="12.353607220575213">
        <ele>1536.3199999999999</ele>
        <time>2015-07-11T12:10:27Z</time>
      </trkpt>
      <trkpt lat="46.651420081034303" lon="12.353636473417282">
        <ele>1536.3199999999999</ele>
        <time>2015-07-11T12:10:47Z</time>
      </trkpt>
      <trkpt lat="46.651429049670696" lon="12.353599844500422">
        <ele>1536.3199999999999</ele>
        <time>2015-07-11T12:11:16Z</time>
      </trkpt>
      <trkpt lat="46.651413794606924" lon="12.353618536144495">
        <ele>1536.8</ele>
        <time>2015-07-11T12:11:34Z</time>
      </trkpt>
      <trkpt lat="46.651417315006256" lon="12.353628762066364">
        <ele>1536.8</ele>
        <time>2015-07-11T12:12:00Z</time>
      </trkpt>
      <trkpt lat="46.65139845572412" lon="12.353642759844661">
        <ele>1536.8</ele>
        <time>2015-07-11T12:12:27Z</time>
      </trkpt>
      <trkpt lat="46.651386972516775" lon="12.353637479245663">
        <ele>1536.8</ele>
        <time>2015-07-11T12:12:51Z</time>
      </trkpt>
      <trkpt lat="46.65139845572412" lon="12.353615434840322">
        <ele>1537.29</ele>
        <time>2015-07-11T12:13:19Z</time>
      </trkpt>
      <trkpt lat="46.65141899138689" lon="12.353639574721456">
        <ele>1537.29</ele>
        <time>2015-07-11T12:13:43Z</time>
      </trkpt>
      <trkpt lat="46.65143315680325" lon="12.353605879470706">
        <ele>1537.29</ele>
        <time>2015-07-11T12:14:12Z</time>
      </trkpt>
      <trkpt lat="46.651459224522114" lon="12.353598922491074">
        <ele>1537.29</ele>
        <time>2015-07-11T12:14:36Z</time>
      </trkpt>
      <trkpt lat="46.651437263935804" lon="12.35361585393548">
        <ele>1537.29</ele>
        <time>2015-07-11T12:15:02Z</time>
      </trkpt>
      <trkpt lat="46.651450758799911" lon="12.353632031008601">
        <ele>1537.29</ele>
        <time>2015-07-11T12:15:21Z</time>
      </trkpt>
      <trkpt lat="46.651454195380211" lon="12.353635551407933">
        <ele>1537.29</ele>
        <time>2015-07-11T12:15:41Z</time>
      </trkpt>
      <trkpt lat="46.651469031348825" lon="12.35362708568573">
        <ele>1537.29</ele>
        <time>2015-07-11T12:16:03Z</time>
      </trkpt>
      <trkpt lat="46.651471881195903" lon="12.353612668812275">
        <ele>1537.29</ele>
        <time>2015-07-11T12:16:25Z</time>
      </trkpt>
      <trkpt lat="46.651474814862013" lon="12.353617446497083">
        <ele>1537.29</ele>
        <time>2015-07-11T12:16:46Z</time>
      </trkpt>
      <trkpt lat="46.651473389938474" lon="12.35364125110209">
        <ele>1537.29</ele>
        <time>2015-07-11T12:17:05Z</time>
      </trkpt>
      <trkpt lat="46.651496691629291" lon="12.353630857542157">
        <ele>1537.29</ele>
        <time>2015-07-11T12:17:31Z</time>
      </trkpt>
      <trkpt lat="46.651489650830626" lon="12.353628929704428">
        <ele>1537.77</ele>
        <time>2015-07-11T12:17:56Z</time>
      </trkpt>
      <trkpt lat="46.651493757963181" lon="12.353633539751172">
        <ele>1537.77</ele>
        <time>2015-07-11T12:18:18Z</time>
      </trkpt>
      <trkpt lat="46.65151571854949" lon="12.353636221960187">
        <ele>1537.77</ele>
        <time>2015-07-11T12:18:45Z</time>
      </trkpt>
      <trkpt lat="46.651537679135799" lon="12.353618117049336">
        <ele>1537.77</ele>
        <time>2015-07-11T12:19:06Z</time>
      </trkpt>
      <trkpt lat="46.651561819016933" lon="12.353629684075713">
        <ele>1537.77</ele>
        <time>2015-07-11T12:19:30Z</time>
      </trkpt>
      <trkpt lat="46.651556203141809" lon="12.353644017130136">
        <ele>1537.77</ele>
        <time>2015-07-11T12:19:55Z</time>
      </trkpt>
      <trkpt lat="46.651558969169855" lon="12.353615015745163">
        <ele>1537.77</ele>
        <time>2015-07-11T12:20:21Z</time>
      </trkpt>
      <trkpt lat="46.651483532041311" lon="12.353600598871708">
        <ele>1537.77</ele>
        <time>2015-07-11T12:20:51Z</time>
      </trkpt>
      <trkpt lat="46.651517394930124" lon="12.353601017966866">
        <ele>1538.25</ele>
        <time>2015-07-11T12:21:17Z</time>
      </trkpt>
      <trkpt lat="46.651531644165516" lon="12.353608561679721">
        <ele>1538.25</ele>
        <time>2015-07-11T12:21:42Z</time>
      </trkpt>
      <trkpt lat="46.651518484577537" lon="12.353638233616948">
        <ele>1538.25</ele>
        <time>2015-07-11T12:22:01Z</time>
      </trkpt>
      <trkpt lat="46.651547737419605" lon="12.353630941361189">
        <ele>1538.73</ele>
        <time>2015-07-11T12:22:20Z</time>
      </trkpt>
      <trkpt lat="46.651525860652328" lon="12.353651979938149">
        <ele>1538.73</ele>
        <time>2015-07-11T12:22:42Z</time>
      </trkpt>
      <trkpt lat="46.651500295847654" lon="12.353636221960187">
        <ele>1538.73</ele>
        <time>2015-07-11T12:23:06Z</time>
      </trkpt>
      <trkpt lat="46.651475820690393" lon="12.353641418740153">
        <ele>1539.21</ele>
        <time>2015-07-11T12:23:22Z</time>
      </trkpt>
      <trkpt lat="46.651460146531463" lon="12.353645944967866">
        <ele>1538.73</ele>
        <time>2015-07-11T12:23:46Z</time>
      </trkpt>
      <trkpt lat="46.651476994156837" lon="12.353636641055346">
        <ele>1539.21</ele>
        <time>2015-07-11T12:24:07Z</time>
      </trkpt>
      <trkpt lat="46.651485376060009" lon="12.353640412911773">
        <ele>1539.6900000000001</ele>
        <time>2015-07-11T12:24:31Z</time>
      </trkpt>
      <trkpt lat="46.651509935036302" lon="12.353640161454678">
        <ele>1539.6900000000001</ele>
        <time>2015-07-11T12:24:49Z</time>
      </trkpt>
      <trkpt lat="46.651492668315768" lon="12.353640077635646">
        <ele>1541.1300000000001</ele>
        <time>2015-07-11T12:25:08Z</time>
      </trkpt>
      <trkpt lat="46.651467941701412" lon="12.353622391819954">
        <ele>1540.1700000000001</ele>
        <time>2015-07-11T12:25:29Z</time>
      </trkpt>
      <trkpt lat="46.651448579505086" lon="12.353624571114779">
        <ele>1540.1700000000001</ele>
        <time>2015-07-11T12:25:57Z</time>
      </trkpt>
      <trkpt lat="46.651427540928125" lon="12.353627169504762">
        <ele>1540.1700000000001</ele>
        <time>2015-07-11T12:26:22Z</time>
      </trkpt>
      <trkpt lat="46.651448160409927" lon="12.353631779551506">
        <ele>1540.1700000000001</ele>
        <time>2015-07-11T12:26:52Z</time>
      </trkpt>
      <trkpt lat="46.651473641395569" lon="12.353605208918452">
        <ele>1540.6500000000001</ele>
        <time>2015-07-11T12:27:10Z</time>
      </trkpt>
      <trkpt lat="46.65146735496819" lon="12.353612584993243">
        <ele>1540.1700000000001</ele>
        <time>2015-07-11T12:27:38Z</time>
      </trkpt>
      <trkpt lat="46.651484621688724" lon="12.35362364910543">
        <ele>1540.1700000000001</ele>
        <time>2015-07-11T12:27:59Z</time>
      </trkpt>
      <trkpt lat="46.651448747143149" lon="12.353626498952508">
        <ele>1539.6900000000001</ele>
        <time>2015-07-11T12:28:22Z</time>
      </trkpt>
      <trkpt lat="46.651447489857674" lon="12.353637479245663">
        <ele>1539.6900000000001</ele>
        <time>2015-07-11T12:28:45Z</time>
      </trkpt>
      <trkpt lat="46.651451094076037" lon="12.353627840057015">
        <ele>1541.6099999999999</ele>
        <time>2015-07-11T12:29:13Z</time>
      </trkpt>
      <trkpt lat="46.651475066319108" lon="12.353582913056016">
        <ele>1540.6500000000001</ele>
        <time>2015-07-11T12:29:27Z</time>
      </trkpt>
      <trkpt lat="46.651474060490727" lon="12.353593809530139">
        <ele>1540.6500000000001</ele>
        <time>2015-07-11T12:29:42Z</time>
      </trkpt>
      <trkpt lat="46.651477916166186" lon="12.353621385991573">
        <ele>1540.6500000000001</ele>
        <time>2015-07-11T12:29:55Z</time>
      </trkpt>
      <trkpt lat="46.651474814862013" lon="12.35362951643765">
        <ele>1541.1300000000001</ele>
        <time>2015-07-11T12:30:00Z</time>
      </trkpt>
      <trkpt lat="46.651459643617272" lon="12.353694560006261">
        <ele>1541.1300000000001</ele>
        <time>2015-07-11T12:30:10Z</time>
      </trkpt>
      <trkpt lat="46.651426116004586" lon="12.353699756786227">
        <ele>1541.1300000000001</ele>
        <time>2015-07-11T12:30:23Z</time>
      </trkpt>
      <trkpt lat="46.651283958926797" lon="12.353605208918452">
        <ele>1541.1300000000001</ele>
        <time>2015-07-11T12:31:36Z</time>
      </trkpt>
      <trkpt lat="46.65144631639123" lon="12.353627840057015">
        <ele>1541.1300000000001</ele>
        <time>2015-07-11T12:31:48Z</time>
      </trkpt>
      <trkpt lat="46.651454279199243" lon="12.353612668812275">
        <ele>1541.1300000000001</ele>
        <time>2015-07-11T12:32:05Z</time>
      </trkpt>
      <trkpt lat="46.651444807648659" lon="12.353649130091071">
        <ele>1541.1300000000001</ele>
        <time>2015-07-11T12:32:19Z</time>
      </trkpt>
      <trkpt lat="46.65143902413547" lon="12.353625828400254">
        <ele>1541.1300000000001</ele>
        <time>2015-07-11T12:32:30Z</time>
      </trkpt>
      <trkpt lat="46.651458218693733" lon="12.353620044887066">
        <ele>1540.6500000000001</ele>
        <time>2015-07-11T12:32:39Z</time>
      </trkpt>
      <trkpt lat="46.651471210643649" lon="12.353591378778219">
        <ele>1541.1300000000001</ele>
        <time>2015-07-11T12:32:53Z</time>
      </trkpt>
      <trkpt lat="46.651473557576537" lon="12.35357578843832">
        <ele>1541.1300000000001</ele>
        <time>2015-07-11T12:33:07Z</time>
      </trkpt>
      <trkpt lat="46.651470037177205" lon="12.353562796488404">
        <ele>1541.1300000000001</ele>
        <time>2015-07-11T12:33:25Z</time>
      </trkpt>
      <trkpt lat="46.651443047448993" lon="12.353536980226636">
        <ele>1541.6099999999999</ele>
        <time>2015-07-11T12:33:44Z</time>
      </trkpt>
      <trkpt lat="46.651454949751496" lon="12.353558773174882">
        <ele>1541.6099999999999</ele>
        <time>2015-07-11T12:34:05Z</time>
      </trkpt>
      <trkpt lat="46.651469450443983" lon="12.353565394878387">
        <ele>1541.6099999999999</ele>
        <time>2015-07-11T12:34:24Z</time>
      </trkpt>
      <trkpt lat="46.651507839560509" lon="12.353558270260692">
        <ele>1542.0899999999999</ele>
        <time>2015-07-11T12:34:42Z</time>
      </trkpt>
      <trkpt lat="46.651540864259005" lon="12.353541254997253">
        <ele>1541.6099999999999</ele>
        <time>2015-07-11T12:35:02Z</time>
      </trkpt>
      <trkpt lat="46.65146634913981" lon="12.353593306615949">
        <ele>1542.0899999999999</ele>
        <time>2015-07-11T12:35:25Z</time>
      </trkpt>
      <trkpt lat="46.6514634154737" lon="12.353500686585903">
        <ele>1542.0899999999999</ele>
        <time>2015-07-11T12:35:48Z</time>
      </trkpt>
      <trkpt lat="46.651523094624281" lon="12.353497501462698">
        <ele>1542.0899999999999</ele>
        <time>2015-07-11T12:36:13Z</time>
      </trkpt>
      <trkpt lat="46.651514377444983" lon="12.353552738204598">
        <ele>1542.0899999999999</ele>
        <time>2015-07-11T12:36:33Z</time>
      </trkpt>
      <trkpt lat="46.651450088247657" lon="12.353512924164534">
        <ele>1542.0899999999999</ele>
        <time>2015-07-11T12:36:56Z</time>
      </trkpt>
      <trkpt lat="46.651465259492397" lon="12.353533962741494">
        <ele>1542.0899999999999</ele>
        <time>2015-07-11T12:37:13Z</time>
      </trkpt>
      <trkpt lat="46.651434246450663" lon="12.35353178344667">
        <ele>1542.0899999999999</ele>
        <time>2015-07-11T12:37:31Z</time>
      </trkpt>
      <trkpt lat="46.651421254500747" lon="12.353544607758522">
        <ele>1542.0899999999999</ele>
        <time>2015-07-11T12:37:58Z</time>
      </trkpt>
      <trkpt lat="46.651470875367522" lon="12.353542931377888">
        <ele>1542.0899999999999</ele>
        <time>2015-07-11T12:38:10Z</time>
      </trkpt>
      <trkpt lat="46.651387643069029" lon="12.353551564738154">
        <ele>1542.0899999999999</ele>
        <time>2015-07-11T12:38:23Z</time>
      </trkpt>
      <trkpt lat="46.651407172903419" lon="12.353544440120459">
        <ele>1542.0899999999999</ele>
        <time>2015-07-11T12:38:36Z</time>
      </trkpt>
      <trkpt lat="46.651408765465021" lon="12.353547541424632">
        <ele>1542.0899999999999</ele>
        <time>2015-07-11T12:38:38Z</time>
      </trkpt>
      <trkpt lat="46.651414129883051" lon="12.353573944419622">
        <ele>1542.0899999999999</ele>
        <time>2015-07-11T12:38:49Z</time>
      </trkpt>
      <trkpt lat="46.651411196216941" lon="12.353589199483395">
        <ele>1542.0899999999999</ele>
        <time>2015-07-11T12:39:06Z</time>
      </trkpt>
      <trkpt lat="46.651423014700413" lon="12.353586601093411">
        <ele>1542.0899999999999</ele>
        <time>2015-07-11T12:39:20Z</time>
      </trkpt>
      <trkpt lat="46.651439359411597" lon="12.353585008531809">
        <ele>1542.0899999999999</ele>
        <time>2015-07-11T12:39:32Z</time>
      </trkpt>
      <trkpt lat="46.651444640010595" lon="12.353576878085732">
        <ele>1541.6099999999999</ele>
        <time>2015-07-11T12:39:47Z</time>
      </trkpt>
      <trkpt lat="46.651427624747157" lon="12.353619206696749">
        <ele>1541.6099999999999</ele>
        <time>2015-07-11T12:40:06Z</time>
      </trkpt>
      <trkpt lat="46.651438437402248" lon="12.353617027401924">
        <ele>1541.6099999999999</ele>
        <time>2015-07-11T12:40:20Z</time>
      </trkpt>
      <trkpt lat="46.651440197601914" lon="12.353620883077383">
        <ele>1541.1300000000001</ele>
        <time>2015-07-11T12:40:22Z</time>
      </trkpt>
      <trkpt lat="46.65146492421627" lon="12.353630941361189">
        <ele>1541.1300000000001</ele>
        <time>2015-07-11T12:40:25Z</time>
      </trkpt>
      <trkpt lat="46.651499290019274" lon="12.353714760392904">
        <ele>1541.1300000000001</ele>
        <time>2015-07-11T12:40:33Z</time>
      </trkpt>
      <trkpt lat="46.651503564789891" lon="12.353720627725124">
        <ele>1540.6500000000001</ele>
        <time>2015-07-11T12:40:43Z</time>
      </trkpt>
      <trkpt lat="46.651524687185884" lon="12.353722471743822">
        <ele>1541.1300000000001</ele>
        <time>2015-07-11T12:40:55Z</time>
      </trkpt>
      <trkpt lat="46.65152502246201" lon="12.353744767606258">
        <ele>1541.1300000000001</ele>
        <time>2015-07-11T12:41:14Z</time>
      </trkpt>
      <trkpt lat="46.651564249768853" lon="12.353743007406592">
        <ele>1541.1300000000001</ele>
        <time>2015-07-11T12:41:24Z</time>
      </trkpt>
      <trkpt lat="46.651579001918435" lon="12.353743929415941">
        <ele>1541.1300000000001</ele>
        <time>2015-07-11T12:41:35Z</time>
      </trkpt>
      <trkpt lat="46.65151622146368" lon="12.353744097054005">
        <ele>1541.1300000000001</ele>
        <time>2015-07-11T12:41:49Z</time>
      </trkpt>
      <trkpt lat="46.651548072695732" lon="12.353753568604589">
        <ele>1540.6500000000001</ele>
        <time>2015-07-11T12:41:59Z</time>
      </trkpt>
      <trkpt lat="46.651526279747486" lon="12.35372381284833">
        <ele>1541.1300000000001</ele>
        <time>2015-07-11T12:42:17Z</time>
      </trkpt>
      <trkpt lat="46.651483280584216" lon="12.353680981323123">
        <ele>1541.1300000000001</ele>
        <time>2015-07-11T12:42:37Z</time>
      </trkpt>
      <trkpt lat="46.651460565626621" lon="12.35372238792479">
        <ele>1541.1300000000001</ele>
        <time>2015-07-11T12:42:55Z</time>
      </trkpt>
      <trkpt lat="46.651475904509425" lon="12.353699924424291">
        <ele>1541.6099999999999</ele>
        <time>2015-07-11T12:43:08Z</time>
      </trkpt>
      <trkpt lat="46.651513371616602" lon="12.353659775108099">
        <ele>1541.1300000000001</ele>
        <time>2015-07-11T12:43:22Z</time>
      </trkpt>
      <trkpt lat="46.651456207036972" lon="12.353608310222626">
        <ele>1541.1300000000001</ele>
        <time>2015-07-11T12:43:33Z</time>
      </trkpt>
      <trkpt lat="46.651411950588226" lon="12.353659775108099">
        <ele>1541.1300000000001</ele>
        <time>2015-07-11T12:43:45Z</time>
      </trkpt>
      <trkpt lat="46.651416225358844" lon="12.353654913604259">
        <ele>1541.1300000000001</ele>
        <time>2015-07-11T12:43:56Z</time>
      </trkpt>
      <trkpt lat="46.65140725672245" lon="12.353610992431641">
        <ele>1541.1300000000001</ele>
        <time>2015-07-11T12:44:11Z</time>
      </trkpt>
      <trkpt lat="46.651404406875372" lon="12.353615015745163">
        <ele>1541.6099999999999</ele>
        <time>2015-07-11T12:44:27Z</time>
      </trkpt>
      <trkpt lat="46.651417901739478" lon="12.353665139526129">
        <ele>1541.1300000000001</ele>
        <time>2015-07-11T12:44:39Z</time>
      </trkpt>
      <trkpt lat="46.651407089084387" lon="12.353658517822623">
        <ele>1541.1300000000001</ele>
        <time>2015-07-11T12:44:55Z</time>
      </trkpt>
      <trkpt lat="46.651401976123452" lon="12.353642592206597">
        <ele>1541.1300000000001</ele>
        <time>2015-07-11T12:45:16Z</time>
      </trkpt>
      <trkpt lat="46.651407843455672" lon="12.353583332151175">
        <ele>1541.1300000000001</ele>
        <time>2015-07-11T12:45:42Z</time>
      </trkpt>
      <trkpt lat="46.65139744989574" lon="12.353600431233644">
        <ele>1541.1300000000001</ele>
        <time>2015-07-11T12:46:05Z</time>
      </trkpt>
      <trkpt lat="46.651413794606924" lon="12.353605628013611">
        <ele>1540.6500000000001</ele>
        <time>2015-07-11T12:46:15Z</time>
      </trkpt>
      <trkpt lat="46.651409519836307" lon="12.353615770116448">
        <ele>1541.1300000000001</ele>
        <time>2015-07-11T12:46:18Z</time>
      </trkpt>
      <trkpt lat="46.651406586170197" lon="12.353634713217616">
        <ele>1540.1700000000001</ele>
        <time>2015-07-11T12:46:36Z</time>
      </trkpt>
      <trkpt lat="46.651405664160848" lon="12.353593977168202">
        <ele>1540.6500000000001</ele>
        <time>2015-07-11T12:46:56Z</time>
      </trkpt>
      <trkpt lat="46.651413375511765" lon="12.353600766509771">
        <ele>1540.6500000000001</ele>
        <time>2015-07-11T12:47:09Z</time>
      </trkpt>
      <trkpt lat="46.651419661939144" lon="12.353591462597251">
        <ele>1540.6500000000001</ele>
        <time>2015-07-11T12:47:22Z</time>
      </trkpt>
      <trkpt lat="46.65142728947103" lon="12.353590205311775">
        <ele>1540.6500000000001</ele>
        <time>2015-07-11T12:47:36Z</time>
      </trkpt>
      <trkpt lat="46.65143852122128" lon="12.353601353242993">
        <ele>1540.1700000000001</ele>
        <time>2015-07-11T12:47:54Z</time>
      </trkpt>
      <trkpt lat="46.651417063549161" lon="12.353596407920122">
        <ele>1540.1700000000001</ele>
        <time>2015-07-11T12:48:04Z</time>
      </trkpt>
      <trkpt lat="46.651401137933135" lon="12.353605628013611">
        <ele>1540.1700000000001</ele>
        <time>2015-07-11T12:48:20Z</time>
      </trkpt>
      <trkpt lat="46.651414381340146" lon="12.35360068269074">
        <ele>1541.1300000000001</ele>
        <time>2015-07-11T12:48:34Z</time>
      </trkpt>
      <trkpt lat="46.651454111561179" lon="12.35361241735518">
        <ele>1540.6500000000001</ele>
        <time>2015-07-11T12:48:44Z</time>
      </trkpt>
      <trkpt lat="46.651445394381881" lon="12.353608980774879">
        <ele>1540.1700000000001</ele>
        <time>2015-07-11T12:48:55Z</time>
      </trkpt>
      <trkpt lat="46.651443215087056" lon="12.353601017966866">
        <ele>1540.6500000000001</ele>
        <time>2015-07-11T12:49:06Z</time>
      </trkpt>
      <trkpt lat="46.651442712172866" lon="12.353597581386566">
        <ele>1540.1700000000001</ele>
        <time>2015-07-11T12:49:18Z</time>
      </trkpt>
      <trkpt lat="46.651443801820278" lon="12.353571932762861">
        <ele>1540.1700000000001</ele>
        <time>2015-07-11T12:49:33Z</time>
      </trkpt>
      <trkpt lat="46.651436258107424" lon="12.353573609143496">
        <ele>1540.1700000000001</ele>
        <time>2015-07-11T12:49:48Z</time>
      </trkpt>
      <trkpt lat="46.651437180116773" lon="12.353558605536819">
        <ele>1539.6900000000001</ele>
        <time>2015-07-11T12:50:01Z</time>
      </trkpt>
      <trkpt lat="46.651454027742147" lon="12.353538237512112">
        <ele>1539.6900000000001</ele>
        <time>2015-07-11T12:50:20Z</time>
      </trkpt>
      <trkpt lat="46.651477916166186" lon="12.353571178391576">
        <ele>1539.6900000000001</ele>
        <time>2015-07-11T12:50:32Z</time>
      </trkpt>
      <trkpt lat="46.651478251442313" lon="12.353486102074385">
        <ele>1539.6900000000001</ele>
        <time>2015-07-11T12:50:44Z</time>
      </trkpt>
      <trkpt lat="46.651495518162847" lon="12.353487946093082">
        <ele>1539.6900000000001</ele>
        <time>2015-07-11T12:50:57Z</time>
      </trkpt>
      <trkpt lat="46.651494260877371" lon="12.353462129831314">
        <ele>1540.1700000000001</ele>
        <time>2015-07-11T12:51:24Z</time>
      </trkpt>
      <trkpt lat="46.651472048833966" lon="12.353533627465367">
        <ele>1539.6900000000001</ele>
        <time>2015-07-11T12:51:36Z</time>
      </trkpt>
      <trkpt lat="46.651417566463351" lon="12.353527257218957">
        <ele>1539.6900000000001</ele>
        <time>2015-07-11T12:51:50Z</time>
      </trkpt>
      <trkpt lat="46.651423266157508" lon="12.353577883914113">
        <ele>1539.6900000000001</ele>
        <time>2015-07-11T12:52:07Z</time>
      </trkpt>
      <trkpt lat="46.651394180953503" lon="12.353522898629308">
        <ele>1539.6900000000001</ele>
        <time>2015-07-11T12:52:23Z</time>
      </trkpt>
      <trkpt lat="46.651392420753837" lon="12.353508230298758">
        <ele>1540.1700000000001</ele>
        <time>2015-07-11T12:52:34Z</time>
      </trkpt>
      <trkpt lat="46.651344979181886" lon="12.35344142653048">
        <ele>1540.1700000000001</ele>
        <time>2015-07-11T12:52:45Z</time>
      </trkpt>
      <trkpt lat="46.651246575638652" lon="12.353343777358532">
        <ele>1541.6099999999999</ele>
        <time>2015-07-11T12:52:57Z</time>
      </trkpt>
      <trkpt lat="46.651161415502429" lon="12.353248223662376">
        <ele>1542.5699999999999</ele>
        <time>2015-07-11T12:53:09Z</time>
      </trkpt>
      <trkpt lat="46.651071226224303" lon="12.353135235607624">
        <ele>1544.01</ele>
        <time>2015-07-11T12:53:22Z</time>
      </trkpt>
      <trkpt lat="46.650966200977564" lon="12.353063151240349">
        <ele>1545.46</ele>
        <time>2015-07-11T12:53:34Z</time>
      </trkpt>
      <trkpt lat="46.650880957022309" lon="12.352969441562891">
        <ele>1546.4200000000001</ele>
        <time>2015-07-11T12:53:45Z</time>
      </trkpt>
      <trkpt lat="46.650793198496103" lon="12.35286969691515">
        <ele>1546.9000000000001</ele>
        <time>2015-07-11T12:53:56Z</time>
      </trkpt>
      <trkpt lat="46.650680461898446" lon="12.35278663225472">
        <ele>1548.3399999999999</ele>
        <time>2015-07-11T12:54:08Z</time>
      </trkpt>
      <trkpt lat="46.650604186579585" lon="12.352724019438028">
        <ele>1548.8199999999999</ele>
        <time>2015-07-11T12:54:17Z</time>
      </trkpt>
      <trkpt lat="46.650578286498785" lon="12.352698119357228">
        <ele>1549.3</ele>
        <time>2015-07-11T12:54:20Z</time>
      </trkpt>
      <trkpt lat="46.650480721145868" lon="12.352625364437699">
        <ele>1550.74</ele>
        <time>2015-07-11T12:54:31Z</time>
      </trkpt>
      <trkpt lat="46.650384245440364" lon="12.352576749399304">
        <ele>1551.22</ele>
        <time>2015-07-11T12:54:42Z</time>
      </trkpt>
      <trkpt lat="46.65026631206274" lon="12.352537354454398">
        <ele>1552.1900000000001</ele>
        <time>2015-07-11T12:54:54Z</time>
      </trkpt>
      <trkpt lat="46.650238735601306" lon="12.352523691952229">
        <ele>1553.1500000000001</ele>
        <time>2015-07-11T12:54:57Z</time>
      </trkpt>
      <trkpt lat="46.650157850235701" lon="12.352423528209329">
        <ele>1553.6300000000001</ele>
        <time>2015-07-11T12:55:08Z</time>
      </trkpt>
      <trkpt lat="46.650113593786955" lon="12.352276593446732">
        <ele>1555.0699999999999</ele>
        <time>2015-07-11T12:55:19Z</time>
      </trkpt>
      <trkpt lat="46.650110660120845" lon="12.35225890763104">
        <ele>1555.0699999999999</ele>
        <time>2015-07-11T12:55:20Z</time>
      </trkpt>
      <trkpt lat="46.650045784190297" lon="12.352112978696823">
        <ele>1556.51</ele>
        <time>2015-07-11T12:55:33Z</time>
      </trkpt>
      <trkpt lat="46.649979818612337" lon="12.35201507806778">
        <ele>1557.95</ele>
        <time>2015-07-11T12:55:44Z</time>
      </trkpt>
      <trkpt lat="46.649888036772609" lon="12.351942406967282">
        <ele>1558.9200000000001</ele>
        <time>2015-07-11T12:55:55Z</time>
      </trkpt>
      <trkpt lat="46.649788962677121" lon="12.351905191317201">
        <ele>1559.8800000000001</ele>
        <time>2015-07-11T12:56:06Z</time>
      </trkpt>
      <trkpt lat="46.649651499465108" lon="12.351824641227722">
        <ele>1560.8399999999999</ele>
        <time>2015-07-11T12:56:20Z</time>
      </trkpt>
      <trkpt lat="46.649595592170954" lon="12.351740235462785">
        <ele>1561.3199999999999</ele>
        <time>2015-07-11T12:56:33Z</time>
      </trkpt>
      <trkpt lat="46.649531973525882" lon="12.351650632917881">
        <ele>1561.8</ele>
        <time>2015-07-11T12:56:44Z</time>
      </trkpt>
      <trkpt lat="46.649490902200341" lon="12.351544518023729">
        <ele>1562.28</ele>
        <time>2015-07-11T12:56:52Z</time>
      </trkpt>
      <trkpt lat="46.6494654212147" lon="12.35148542560637">
        <ele>1562.76</ele>
        <time>2015-07-11T12:56:56Z</time>
      </trkpt>
      <trkpt lat="46.649385876953602" lon="12.351316949352622">
        <ele>1563.72</ele>
        <time>2015-07-11T12:57:09Z</time>
      </trkpt>
      <trkpt lat="46.649328712373972" lon="12.351151239126921">
        <ele>1564.2</ele>
        <time>2015-07-11T12:57:20Z</time>
      </trkpt>
      <trkpt lat="46.649296777322888" lon="12.351114694029093">
        <ele>1564.6800000000001</ele>
        <time>2015-07-11T12:57:23Z</time>
      </trkpt>
      <trkpt lat="46.649257885292172" lon="12.351065408438444">
        <ele>1566.1199999999999</ele>
        <time>2015-07-11T12:57:27Z</time>
      </trkpt>
      <trkpt lat="46.649135677143931" lon="12.350948564708233">
        <ele>1566.6099999999999</ele>
        <time>2015-07-11T12:57:42Z</time>
      </trkpt>
      <trkpt lat="46.649034423753619" lon="12.350904308259487">
        <ele>1568.05</ele>
        <time>2015-07-11T12:57:53Z</time>
      </trkpt>
      <trkpt lat="46.649007434025407" lon="12.350895004346967">
        <ele>1568.53</ele>
        <time>2015-07-11T12:57:57Z</time>
      </trkpt>
      <trkpt lat="46.648878687992692" lon="12.350861812010407">
        <ele>1570.45</ele>
        <time>2015-07-11T12:58:10Z</time>
      </trkpt>
      <trkpt lat="46.648763855919242" lon="12.350889723747969">
        <ele>1571.8900000000001</ele>
        <time>2015-07-11T12:58:22Z</time>
      </trkpt>
      <trkpt lat="46.648666877299547" lon="12.350855357944965">
        <ele>1573.3299999999999</ele>
        <time>2015-07-11T12:58:32Z</time>
      </trkpt>
      <trkpt lat="46.648590266704559" lon="12.350820489227772">
        <ele>1574.3</ele>
        <time>2015-07-11T12:58:43Z</time>
      </trkpt>
      <trkpt lat="46.648592865094543" lon="12.350827194750309">
        <ele>1574.3</ele>
        <time>2015-07-11T12:58:49Z</time>
      </trkpt>
      <trkpt lat="46.648522792384028" lon="12.350865751504898">
        <ele>1575.26</ele>
        <time>2015-07-11T12:59:00Z</time>
      </trkpt>
      <trkpt lat="46.64850284345448" lon="12.350884275510907">
        <ele>1575.26</ele>
        <time>2015-07-11T12:59:05Z</time>
      </trkpt>
      <trkpt lat="46.648461604490876" lon="12.350905733183026">
        <ele>1575.74</ele>
        <time>2015-07-11T12:59:17Z</time>
      </trkpt>
      <trkpt lat="46.648414246737957" lon="12.350857369601727">
        <ele>1576.22</ele>
        <time>2015-07-11T12:59:38Z</time>
      </trkpt>
      <trkpt lat="46.648392369970679" lon="12.350865080952644">
        <ele>1576.7</ele>
        <time>2015-07-11T12:59:41Z</time>
      </trkpt>
      <trkpt lat="46.648335875943303" lon="12.350908666849136">
        <ele>1577.1800000000001</ele>
        <time>2015-07-11T12:59:47Z</time>
      </trkpt>
      <trkpt lat="46.648319279775023" lon="12.350921407341957">
        <ele>1577.6600000000001</ele>
        <time>2015-07-11T12:59:49Z</time>
      </trkpt>
      <trkpt lat="46.648198580369353" lon="12.350998520851135">
        <ele>1578.6199999999999</ele>
        <time>2015-07-11T13:00:01Z</time>
      </trkpt>
      <trkpt lat="46.648110151290894" lon="12.351020397618413">
        <ele>1579.5799999999999</ele>
        <time>2015-07-11T13:00:10Z</time>
      </trkpt>
      <trkpt lat="46.648025242611766" lon="12.351092230528593">
        <ele>1580.54</ele>
        <time>2015-07-11T13:00:22Z</time>
      </trkpt>
      <trkpt lat="46.647952236235142" lon="12.351173283532262">
        <ele>1581.51</ele>
        <time>2015-07-11T13:00:32Z</time>
      </trkpt>
      <trkpt lat="46.64791451767087" lon="12.351194908842444">
        <ele>1581.99</ele>
        <time>2015-07-11T13:00:36Z</time>
      </trkpt>
      <trkpt lat="46.647768504917622" lon="12.351257186383009">
        <ele>1582.47</ele>
        <time>2015-07-11T13:00:52Z</time>
      </trkpt>
      <trkpt lat="46.647647470235825" lon="12.351323990151286">
        <ele>1581.51</ele>
        <time>2015-07-11T13:01:01Z</time>
      </trkpt>
      <trkpt lat="46.64755292236805" lon="12.351275710389018">
        <ele>1581.99</ele>
        <time>2015-07-11T13:01:11Z</time>
      </trkpt>
      <trkpt lat="46.647553844377398" lon="12.351280068978667">
        <ele>1581.99</ele>
        <time>2015-07-11T13:01:15Z</time>
      </trkpt>
      <trkpt lat="46.647442448884249" lon="12.351200273260474">
        <ele>1583.9100000000001</ele>
        <time>2015-07-11T13:01:29Z</time>
      </trkpt>
      <trkpt lat="46.647439766675234" lon="12.351196333765984">
        <ele>1582.95</ele>
        <time>2015-07-11T13:01:38Z</time>
      </trkpt>
      <trkpt lat="46.647458793595433" lon="12.351211421191692">
        <ele>1582.95</ele>
        <time>2015-07-11T13:01:46Z</time>
      </trkpt>
      <trkpt lat="46.647419482469559" lon="12.351244864985347">
        <ele>1582.95</ele>
        <time>2015-07-11T13:01:50Z</time>
      </trkpt>
      <trkpt lat="46.647274307906628" lon="12.351343687623739">
        <ele>1583.4300000000001</ele>
        <time>2015-07-11T13:02:02Z</time>
      </trkpt>
      <trkpt lat="46.647158889099956" lon="12.351444438099861">
        <ele>1583.4300000000001</ele>
        <time>2015-07-11T13:02:14Z</time>
      </trkpt>
      <trkpt lat="46.647047828882933" lon="12.351495316252112">
        <ele>1584.3900000000001</ele>
        <time>2015-07-11T13:02:23Z</time>
      </trkpt>
      <trkpt lat="46.647026287391782" lon="12.351536303758621">
        <ele>1584.3900000000001</ele>
        <time>2015-07-11T13:02:26Z</time>
      </trkpt>
      <trkpt lat="46.647034082561731" lon="12.351564802229404">
        <ele>1584.3900000000001</ele>
        <time>2015-07-11T13:02:28Z</time>
      </trkpt>
      <trkpt lat="46.647050762549043" lon="12.351656416431069">
        <ele>1586.3099999999999</ele>
        <time>2015-07-11T13:02:35Z</time>
      </trkpt>
      <trkpt lat="46.646994603797793" lon="12.351726992055774">
        <ele>1585.8299999999999</ele>
        <time>2015-07-11T13:02:41Z</time>
      </trkpt>
      <trkpt lat="46.646834425628185" lon="12.351811314001679">
        <ele>1585.3499999999999</ele>
        <time>2015-07-11T13:02:55Z</time>
      </trkpt>
      <trkpt lat="46.646709619089961" lon="12.351797400042415">
        <ele>1584.8699999999999</ele>
        <time>2015-07-11T13:03:06Z</time>
      </trkpt>
      <trkpt lat="46.646593194454908" lon="12.351801423355937">
        <ele>1584.3900000000001</ele>
        <time>2015-07-11T13:03:18Z</time>
      </trkpt>
      <trkpt lat="46.646517086774111" lon="12.351836543530226">
        <ele>1586.79</ele>
        <time>2015-07-11T13:03:31Z</time>
      </trkpt>
      <trkpt lat="46.646427232772112" lon="12.351852301508188">
        <ele>1588.72</ele>
        <time>2015-07-11T13:03:44Z</time>
      </trkpt>
      <trkpt lat="46.646401667967439" lon="12.351970989257097">
        <ele>1590.6400000000001</ele>
        <time>2015-07-11T13:03:56Z</time>
      </trkpt>
      <trkpt lat="46.646359674632549" lon="12.352059250697494">
        <ele>1592.5599999999999</ele>
        <time>2015-07-11T13:04:08Z</time>
      </trkpt>
      <trkpt lat="46.64628298021853" lon="12.352094873785973">
        <ele>1594.48</ele>
        <time>2015-07-11T13:04:19Z</time>
      </trkpt>
      <trkpt lat="46.646200334653258" lon="12.352111302316189">
        <ele>1596.4100000000001</ele>
        <time>2015-07-11T13:04:31Z</time>
      </trkpt>
      <trkpt lat="46.646136380732059" lon="12.352145919576287">
        <ele>1598.3299999999999</ele>
        <time>2015-07-11T13:04:43Z</time>
      </trkpt>
      <trkpt lat="46.646071253344417" lon="12.352214148268104">
        <ele>1600.73</ele>
        <time>2015-07-11T13:04:56Z</time>
      </trkpt>
      <trkpt lat="46.64603378623724" lon="12.352275252342224">
        <ele>1602.6600000000001</ele>
        <time>2015-07-11T13:05:07Z</time>
      </trkpt>
      <trkpt lat="46.64594535715878" lon="12.352344067767262">
        <ele>1605.0599999999999</ele>
        <time>2015-07-11T13:05:21Z</time>
      </trkpt>
      <trkpt lat="46.645872099325061" lon="12.35242067836225">
        <ele>1607.46</ele>
        <time>2015-07-11T13:05:36Z</time>
      </trkpt>
      <trkpt lat="46.645836643874645" lon="12.352498881518841">
        <ele>1608.9000000000001</ele>
        <time>2015-07-11T13:05:46Z</time>
      </trkpt>
      <trkpt lat="46.64576506242156" lon="12.352493517100811">
        <ele>1610.8299999999999</ele>
        <time>2015-07-11T13:05:58Z</time>
      </trkpt>
      <trkpt lat="46.645687445998192" lon="12.352544814348221">
        <ele>1612.75</ele>
        <time>2015-07-11T13:06:11Z</time>
      </trkpt>
      <trkpt lat="46.645652409642935" lon="12.352573312819004">
        <ele>1613.23</ele>
        <time>2015-07-11T13:06:16Z</time>
      </trkpt>
      <trkpt lat="46.645565154030919" lon="12.352585885673761">
        <ele>1615.1500000000001</ele>
        <time>2015-07-11T13:06:28Z</time>
      </trkpt>
      <trkpt lat="46.645505391061306" lon="12.352602984756231">
        <ele>1617.5599999999999</ele>
        <time>2015-07-11T13:06:40Z</time>
      </trkpt>
      <trkpt lat="46.645444119349122" lon="12.35262100584805">
        <ele>1619</ele>
        <time>2015-07-11T13:06:52Z</time>
      </trkpt>
      <trkpt lat="46.645390223711729" lon="12.352630393579602">
        <ele>1620.4400000000001</ele>
        <time>2015-07-11T13:07:04Z</time>
      </trkpt>
      <trkpt lat="46.645325431600213" lon="12.3526581376791">
        <ele>1622.3599999999999</ele>
        <time>2015-07-11T13:07:15Z</time>
      </trkpt>
      <trkpt lat="46.645255442708731" lon="12.352659143507481">
        <ele>1623.8</ele>
        <time>2015-07-11T13:07:26Z</time>
      </trkpt>
      <trkpt lat="46.64519333280623" lon="12.352703902870417">
        <ele>1625.73</ele>
        <time>2015-07-11T13:07:38Z</time>
      </trkpt>
      <trkpt lat="46.645144047215581" lon="12.352759558707476">
        <ele>1627.6500000000001</ele>
        <time>2015-07-11T13:07:50Z</time>
      </trkpt>
      <trkpt lat="46.645072801038623" lon="12.352812364697456">
        <ele>1629.5699999999999</ele>
        <time>2015-07-11T13:08:03Z</time>
      </trkpt>
      <trkpt lat="46.645011361688375" lon="12.352887131273746">
        <ele>1630.05</ele>
        <time>2015-07-11T13:08:15Z</time>
      </trkpt>
      <trkpt lat="46.644945647567511" lon="12.352835666388273">
        <ele>1632.46</ele>
        <time>2015-07-11T13:08:25Z</time>
      </trkpt>
      <trkpt lat="46.644915388897061" lon="12.352712117135525">
        <ele>1634.3800000000001</ele>
        <time>2015-07-11T13:08:37Z</time>
      </trkpt>
      <trkpt lat="46.644905833527446" lon="12.352601895108819">
        <ele>1636.3</ele>
        <time>2015-07-11T13:08:49Z</time>
      </trkpt>
      <trkpt lat="46.644929135218263" lon="12.352483877912164">
        <ele>1638.22</ele>
        <time>2015-07-11T13:09:02Z</time>
      </trkpt>
      <trkpt lat="46.644951095804572" lon="12.352397879585624">
        <ele>1639.6700000000001</ele>
        <time>2015-07-11T13:09:11Z</time>
      </trkpt>
      <trkpt lat="46.645003734156489" lon="12.352299559861422">
        <ele>1641.1099999999999</ele>
        <time>2015-07-11T13:09:22Z</time>
      </trkpt>
      <trkpt lat="46.64497540332377" lon="12.352306852117181">
        <ele>1642.55</ele>
        <time>2015-07-11T13:09:31Z</time>
      </trkpt>
      <trkpt lat="46.644923603162169" lon="12.352349096909165">
        <ele>1644.47</ele>
        <time>2015-07-11T13:09:41Z</time>
      </trkpt>
      <trkpt lat="46.644883789122105" lon="12.35236493870616">
        <ele>1646.4000000000001</ele>
        <time>2015-07-11T13:09:49Z</time>
      </trkpt>
      <trkpt lat="46.644812962040305" lon="12.352421851828694">
        <ele>1647.8399999999999</ele>
        <time>2015-07-11T13:10:01Z</time>
      </trkpt>
      <trkpt lat="46.644746912643313" lon="12.352449679747224">
        <ele>1649.76</ele>
        <time>2015-07-11T13:10:12Z</time>
      </trkpt>
      <trkpt lat="46.644679270684719" lon="12.352515561506152">
        <ele>1651.6800000000001</ele>
        <time>2015-07-11T13:10:25Z</time>
      </trkpt>
      <trkpt lat="46.644629146903753" lon="12.352549592033029">
        <ele>1654.0899999999999</ele>
        <time>2015-07-11T13:10:36Z</time>
      </trkpt>
      <trkpt lat="46.644631242379546" lon="12.352388827130198">
        <ele>1656.49</ele>
        <time>2015-07-11T13:10:50Z</time>
      </trkpt>
      <trkpt lat="46.644636522978544" lon="12.352300733327866">
        <ele>1658.4100000000001</ele>
        <time>2015-07-11T13:11:00Z</time>
      </trkpt>
      <trkpt lat="46.644645407795906" lon="12.352192522957921">
        <ele>1659.8499999999999</ele>
        <time>2015-07-11T13:11:12Z</time>
      </trkpt>
      <trkpt lat="46.64464708417654" lon="12.352046091109514">
        <ele>1661.78</ele>
        <time>2015-07-11T13:11:27Z</time>
      </trkpt>
      <trkpt lat="46.644642306491733" lon="12.351939724758267">
        <ele>1663.7</ele>
        <time>2015-07-11T13:11:38Z</time>
      </trkpt>
      <trkpt lat="46.644631577655673" lon="12.352000493556261">
        <ele>1665.1400000000001</ele>
        <time>2015-07-11T13:11:48Z</time>
      </trkpt>
      <trkpt lat="46.644570054486394" lon="12.352102249860764">
        <ele>1667.54</ele>
        <time>2015-07-11T13:12:02Z</time>
      </trkpt>
      <trkpt lat="46.64451657794416" lon="12.352145668119192">
        <ele>1669.47</ele>
        <time>2015-07-11T13:12:12Z</time>
      </trkpt>
      <trkpt lat="46.644459161907434" lon="12.352202916517854">
        <ele>1671.3900000000001</ele>
        <time>2015-07-11T13:12:24Z</time>
      </trkpt>
      <trkpt lat="46.644408199936152" lon="12.352260919287801">
        <ele>1673.3099999999999</ele>
        <time>2015-07-11T13:12:34Z</time>
      </trkpt>
      <trkpt lat="46.64433728903532" lon="12.352305008098483">
        <ele>1675.23</ele>
        <time>2015-07-11T13:12:47Z</time>
      </trkpt>
      <trkpt lat="46.64426838979125" lon="12.352326381951571">
        <ele>1676.6800000000001</ele>
        <time>2015-07-11T13:13:00Z</time>
      </trkpt>
      <trkpt lat="46.644232431426644" lon="12.352371476590633">
        <ele>1678.5999999999999</ele>
        <time>2015-07-11T13:13:10Z</time>
      </trkpt>
      <trkpt lat="46.644204184412956" lon="12.352421935647726">
        <ele>1680.04</ele>
        <time>2015-07-11T13:13:20Z</time>
      </trkpt>
      <trkpt lat="46.644151462242007" lon="12.352464431896806">
        <ele>1681.96</ele>
        <time>2015-07-11T13:13:32Z</time>
      </trkpt>
      <trkpt lat="46.64415406063199" lon="12.352366866543889">
        <ele>1682.9300000000001</ele>
        <time>2015-07-11T13:13:43Z</time>
      </trkpt>
      <trkpt lat="46.644167806953192" lon="12.352272989228368">
        <ele>1683.8900000000001</ele>
        <time>2015-07-11T13:13:54Z</time>
      </trkpt>
      <trkpt lat="46.644182056188583" lon="12.352170813828707">
        <ele>1685.8099999999999</ele>
        <time>2015-07-11T13:14:06Z</time>
      </trkpt>
      <trkpt lat="46.644203681498766" lon="12.352093951776624">
        <ele>1686.77</ele>
        <time>2015-07-11T13:14:14Z</time>
      </trkpt>
      <trkpt lat="46.644181972369552" lon="12.352031841874123">
        <ele>1688.6900000000001</ele>
        <time>2015-07-11T13:14:24Z</time>
      </trkpt>
      <trkpt lat="46.644200161099434" lon="12.351953387260437">
        <ele>1690.1400000000001</ele>
        <time>2015-07-11T13:14:34Z</time>
      </trkpt>
      <trkpt lat="46.644202759489417" lon="12.351945675909519">
        <ele>1690.1400000000001</ele>
        <time>2015-07-11T13:14:35Z</time>
      </trkpt>
      <trkpt lat="46.644192533567548" lon="12.351897899061441">
        <ele>1691.5799999999999</ele>
        <time>2015-07-11T13:14:43Z</time>
      </trkpt>
      <trkpt lat="46.644173339009285" lon="12.351853642612696">
        <ele>1693.02</ele>
        <time>2015-07-11T13:14:51Z</time>
      </trkpt>
      <trkpt lat="46.644130256026983" lon="12.35193008556962">
        <ele>1693.98</ele>
        <time>2015-07-11T13:15:00Z</time>
      </trkpt>
      <trkpt lat="46.644075438380241" lon="12.352011390030384">
        <ele>1695.4200000000001</ele>
        <time>2015-07-11T13:15:11Z</time>
      </trkpt>
      <trkpt lat="46.644050879403949" lon="12.352110715582967">
        <ele>1696.8599999999999</ele>
        <time>2015-07-11T13:15:21Z</time>
      </trkpt>
      <trkpt lat="46.644002599641681" lon="12.352185314521194">
        <ele>1697.8299999999999</ele>
        <time>2015-07-11T13:15:32Z</time>
      </trkpt>
      <trkpt lat="46.643972089514136" lon="12.352253627032042">
        <ele>1700.23</ele>
        <time>2015-07-11T13:15:43Z</time>
      </trkpt>
      <trkpt lat="46.643936634063721" lon="12.352345660328865">
        <ele>1700.71</ele>
        <time>2015-07-11T13:15:53Z</time>
      </trkpt>
      <trkpt lat="46.643873434513807" lon="12.352441297844052">
        <ele>1703.1099999999999</ele>
        <time>2015-07-11T13:16:07Z</time>
      </trkpt>
      <trkpt lat="46.6438202932477" lon="12.352530313655734">
        <ele>1704.0699999999999</ele>
        <time>2015-07-11T13:16:18Z</time>
      </trkpt>
      <trkpt lat="46.643800679594278" lon="12.352642128244042">
        <ele>1705.52</ele>
        <time>2015-07-11T13:16:29Z</time>
      </trkpt>
      <trkpt lat="46.643815934658051" lon="12.35271236859262">
        <ele>1706.96</ele>
        <time>2015-07-11T13:16:39Z</time>
      </trkpt>
      <trkpt lat="46.643820209428668" lon="12.352796858176589">
        <ele>1707.9200000000001</ele>
        <time>2015-07-11T13:16:49Z</time>
      </trkpt>
      <trkpt lat="46.643831189721823" lon="12.352873301133513">
        <ele>1710.3199999999999</ele>
        <time>2015-07-11T13:17:01Z</time>
      </trkpt>
      <trkpt lat="46.643862873315811" lon="12.35294446349144">
        <ele>1711.76</ele>
        <time>2015-07-11T13:17:11Z</time>
      </trkpt>
      <trkpt lat="46.643910147249699" lon="12.353035490959883">
        <ele>1713.6900000000001</ele>
        <time>2015-07-11T13:17:22Z</time>
      </trkpt>
      <trkpt lat="46.643919199705124" lon="12.353093829005957">
        <ele>1716.0899999999999</ele>
        <time>2015-07-11T13:17:31Z</time>
      </trkpt>
      <trkpt lat="46.643929341807961" lon="12.353172199800611">
        <ele>1718.01</ele>
        <time>2015-07-11T13:17:42Z</time>
      </trkpt>
      <trkpt lat="46.643938897177577" lon="12.35325132496655">
        <ele>1719.46</ele>
        <time>2015-07-11T13:17:52Z</time>
      </trkpt>
      <trkpt lat="46.643967479467392" lon="12.353330366313457">
        <ele>1721.3800000000001</ele>
        <time>2015-07-11T13:18:03Z</time>
      </trkpt>
      <trkpt lat="46.64403528906405" lon="12.353367330506444">
        <ele>1722.8199999999999</ele>
        <time>2015-07-11T13:18:14Z</time>
      </trkpt>
      <trkpt lat="46.6440758574754" lon="12.353375963866711">
        <ele>1724.26</ele>
        <time>2015-07-11T13:18:23Z</time>
      </trkpt>
      <trkpt lat="46.644078874960542" lon="12.353417370468378">
        <ele>1725.7</ele>
        <time>2015-07-11T13:18:32Z</time>
      </trkpt>
      <trkpt lat="46.644032774493098" lon="12.353434134274721">
        <ele>1727.6300000000001</ele>
        <time>2015-07-11T13:18:42Z</time>
      </trkpt>
      <trkpt lat="46.644065715372562" lon="12.353448299691081">
        <ele>1729.55</ele>
        <time>2015-07-11T13:18:51Z</time>
      </trkpt>
      <trkpt lat="46.644060686230659" lon="12.353421142324805">
        <ele>1729.55</ele>
        <time>2015-07-11T13:19:03Z</time>
      </trkpt>
      <trkpt lat="46.644107708707452" lon="12.353462046012282">
        <ele>1730.51</ele>
        <time>2015-07-11T13:19:19Z</time>
      </trkpt>
      <trkpt lat="46.644123466685414" lon="12.353528263047338">
        <ele>1732.9100000000001</ele>
        <time>2015-07-11T13:19:32Z</time>
      </trkpt>
      <trkpt lat="46.644118186086416" lon="12.353628426790237">
        <ele>1734.8399999999999</ele>
        <time>2015-07-11T13:19:43Z</time>
      </trkpt>
      <trkpt lat="46.644044676795602" lon="12.353681987151504">
        <ele>1736.76</ele>
        <time>2015-07-11T13:19:55Z</time>
      </trkpt>
      <trkpt lat="46.643997821956873" lon="12.353688441216946">
        <ele>1739.1600000000001</ele>
        <time>2015-07-11T13:20:08Z</time>
      </trkpt>
      <trkpt lat="46.644034702330828" lon="12.353763123974204">
        <ele>1741.0799999999999</ele>
        <time>2015-07-11T13:20:18Z</time>
      </trkpt>
      <trkpt lat="46.644033025950193" lon="12.353839483112097">
        <ele>1742.53</ele>
        <time>2015-07-11T13:20:30Z</time>
      </trkpt>
      <trkpt lat="46.643977202475071" lon="12.353870496153831">
        <ele>1743.97</ele>
        <time>2015-07-11T13:20:42Z</time>
      </trkpt>
      <trkpt lat="46.643887013196945" lon="12.353949118405581">
        <ele>1745.8900000000001</ele>
        <time>2015-07-11T13:20:57Z</time>
      </trkpt>
      <trkpt lat="46.643872344866395" lon="12.354043582454324">
        <ele>1746.3699999999999</ele>
        <time>2015-07-11T13:21:08Z</time>
      </trkpt>
      <trkpt lat="46.64384426549077" lon="12.354077529162169">
        <ele>1748.78</ele>
        <time>2015-07-11T13:21:18Z</time>
      </trkpt>
      <trkpt lat="46.643839906901121" lon="12.354013994336128">
        <ele>1750.22</ele>
        <time>2015-07-11T13:21:27Z</time>
      </trkpt>
      <trkpt lat="46.643838649615645" lon="12.353904526680708">
        <ele>1751.6600000000001</ele>
        <time>2015-07-11T13:21:38Z</time>
      </trkpt>
      <trkpt lat="46.643812749534845" lon="12.353947442024946">
        <ele>1753.0999999999999</ele>
        <time>2015-07-11T13:21:49Z</time>
      </trkpt>
      <trkpt lat="46.643742425367236" lon="12.353912992402911">
        <ele>1755.5</ele>
        <time>2015-07-11T13:22:03Z</time>
      </trkpt>
      <trkpt lat="46.643702695146203" lon="12.353833867236972">
        <ele>1757.4300000000001</ele>
        <time>2015-07-11T13:22:14Z</time>
      </trkpt>
      <trkpt lat="46.643693977966905" lon="12.353864293545485">
        <ele>1758.8699999999999</ele>
        <time>2015-07-11T13:22:24Z</time>
      </trkpt>
      <trkpt lat="46.643697917461395" lon="12.353907208889723">
        <ele>1760.3099999999999</ele>
        <time>2015-07-11T13:22:32Z</time>
      </trkpt>
      <trkpt lat="46.64370353333652" lon="12.353954734280705">
        <ele>1759.8299999999999</ele>
        <time>2015-07-11T13:22:44Z</time>
      </trkpt>
      <trkpt lat="46.643674029037356" lon="12.354049533605576">
        <ele>1761.75</ele>
        <time>2015-07-11T13:22:55Z</time>
      </trkpt>
      <trkpt lat="46.643633963540196" lon="12.354117929935455">
        <ele>1762.23</ele>
        <time>2015-07-11T13:23:04Z</time>
      </trkpt>
      <trkpt lat="46.643586689606309" lon="12.354181800037622">
        <ele>1764.6400000000001</ele>
        <time>2015-07-11T13:23:17Z</time>
      </trkpt>
      <trkpt lat="46.64355643093586" lon="12.354235108941793">
        <ele>1766.0799999999999</ele>
        <time>2015-07-11T13:23:27Z</time>
      </trkpt>
      <trkpt lat="46.643549557775259" lon="12.354140896350145">
        <ele>1768</ele>
        <time>2015-07-11T13:23:39Z</time>
      </trkpt>
      <trkpt lat="46.643533715978265" lon="12.354058586061001">
        <ele>1770.4100000000001</ele>
        <time>2015-07-11T13:23:52Z</time>
      </trkpt>
      <trkpt lat="46.643510162830353" lon="12.353984406217933">
        <ele>1772.3299999999999</ele>
        <time>2015-07-11T13:24:04Z</time>
      </trkpt>
      <trkpt lat="46.643473114818335" lon="12.353947190567851">
        <ele>1774.73</ele>
        <time>2015-07-11T13:24:16Z</time>
      </trkpt>
      <trkpt lat="46.643437324091792" lon="12.353895725682378">
        <ele>1776.1700000000001</ele>
        <time>2015-07-11T13:24:27Z</time>
      </trkpt>
      <trkpt lat="46.643438162282109" lon="12.353949369862676">
        <ele>1777.1300000000001</ele>
        <time>2015-07-11T13:24:38Z</time>
      </trkpt>
      <trkpt lat="46.643428523093462" lon="12.3540223762393">
        <ele>1779.0599999999999</ele>
        <time>2015-07-11T13:24:49Z</time>
      </trkpt>
      <trkpt lat="46.643404131755233" lon="12.354100411757827">
        <ele>1780.5</ele>
        <time>2015-07-11T13:25:01Z</time>
      </trkpt>
      <trkpt lat="46.64336146786809" lon="12.354165790602565">
        <ele>1782.9000000000001</ele>
        <time>2015-07-11T13:25:14Z</time>
      </trkpt>
      <trkpt lat="46.643313271924853" lon="12.35421977005899">
        <ele>1784.8199999999999</ele>
        <time>2015-07-11T13:25:26Z</time>
      </trkpt>
      <trkpt lat="46.64329550229013" lon="12.354311216622591">
        <ele>1786.75</ele>
        <time>2015-07-11T13:25:37Z</time>
      </trkpt>
      <trkpt lat="46.643277565017343" lon="12.35438346862793">
        <ele>1788.6700000000001</ele>
        <time>2015-07-11T13:25:50Z</time>
      </trkpt>
      <trkpt lat="46.643244791775942" lon="12.354436945170164">
        <ele>1790.1099999999999</ele>
        <time>2015-07-11T13:26:02Z</time>
      </trkpt>
      <trkpt lat="46.643264405429363" lon="12.354376679286361">
        <ele>1792.52</ele>
        <time>2015-07-11T13:26:15Z</time>
      </trkpt>
      <trkpt lat="46.64325593970716" lon="12.354290764778852">
        <ele>1794.4400000000001</ele>
        <time>2015-07-11T13:26:26Z</time>
      </trkpt>
      <trkpt lat="46.643251245841384" lon="12.354214573279023">
        <ele>1795.4000000000001</ele>
        <time>2015-07-11T13:26:36Z</time>
      </trkpt>
      <trkpt lat="46.643224842846394" lon="12.354137962684035">
        <ele>1796.3599999999999</ele>
        <time>2015-07-11T13:26:46Z</time>
      </trkpt>
      <trkpt lat="46.640214817598462" lon="12.356079965829849">
        <ele>1867.5</ele>
        <time>2015-07-11T13:40:19Z</time>
      </trkpt>
      <trkpt lat="46.640129154548049" lon="12.356097148731351">
        <ele>1867.5</ele>
        <time>2015-07-11T13:40:42Z</time>
      </trkpt>
      <trkpt lat="46.640084311366081" lon="12.356136459857225">
        <ele>1867.5</ele>
        <time>2015-07-11T13:41:08Z</time>
      </trkpt>
      <trkpt lat="46.640082718804479" lon="12.356101507321">
        <ele>1867.5</ele>
        <time>2015-07-11T13:41:32Z</time>
      </trkpt>
      <trkpt lat="46.640075426548719" lon="12.356042666360736">
        <ele>1867.02</ele>
        <time>2015-07-11T13:41:49Z</time>
      </trkpt>
      <trkpt lat="46.640139380469918" lon="12.356180381029844">
        <ele>1868.46</ele>
        <time>2015-07-11T13:42:04Z</time>
      </trkpt>
      <trkpt lat="46.640120353549719" lon="12.356198150664568">
        <ele>1867.98</ele>
        <time>2015-07-11T13:42:22Z</time>
      </trkpt>
      <trkpt lat="46.640102751553059" lon="12.35615037381649">
        <ele>1867.5</ele>
        <time>2015-07-11T13:42:36Z</time>
      </trkpt>
      <trkpt lat="46.640109205618501" lon="12.356139225885272">
        <ele>1867.5</ele>
        <time>2015-07-11T13:43:03Z</time>
      </trkpt>
      <trkpt lat="46.640120269730687" lon="12.356150792911649">
        <ele>1867.98</ele>
        <time>2015-07-11T13:43:35Z</time>
      </trkpt>
      <trkpt lat="46.640121107921004" lon="12.356169065460563">
        <ele>1867.98</ele>
        <time>2015-07-11T13:44:02Z</time>
      </trkpt>
      <trkpt lat="46.640107026323676" lon="12.356135370209813">
        <ele>1868.46</ele>
        <time>2015-07-11T13:44:23Z</time>
      </trkpt>
      <trkpt lat="46.640111552551389" lon="12.356185913085938">
        <ele>1868.9400000000001</ele>
        <time>2015-07-11T13:44:40Z</time>
      </trkpt>
      <trkpt lat="46.640104427933693" lon="12.356214998289943">
        <ele>1869.4200000000001</ele>
        <time>2015-07-11T13:44:50Z</time>
      </trkpt>
      <trkpt lat="46.640098812058568" lon="12.356246765702963">
        <ele>1869.4200000000001</ele>
        <time>2015-07-11T13:45:02Z</time>
      </trkpt>
      <trkpt lat="46.640089759603143" lon="12.356270318850875">
        <ele>1870.3800000000001</ele>
        <time>2015-07-11T13:45:11Z</time>
      </trkpt>
      <trkpt lat="46.64006570354104" lon="12.356316922232509">
        <ele>1871.8199999999999</ele>
        <time>2015-07-11T13:45:24Z</time>
      </trkpt>
      <trkpt lat="46.640034858137369" lon="12.356377188116312">
        <ele>1873.27</ele>
        <time>2015-07-11T13:45:33Z</time>
      </trkpt>
      <trkpt lat="46.63998800329864" lon="12.356394035741687">
        <ele>1874.71</ele>
        <time>2015-07-11T13:45:45Z</time>
      </trkpt>
      <trkpt lat="46.639945255592465" lon="12.356412224471569">
        <ele>1875.6700000000001</ele>
        <time>2015-07-11T13:45:54Z</time>
      </trkpt>
      <trkpt lat="46.639904854819179" lon="12.356438543647528">
        <ele>1877.1099999999999</ele>
        <time>2015-07-11T13:46:05Z</time>
      </trkpt>
      <trkpt lat="46.639865627512336" lon="12.356462180614471">
        <ele>1879.03</ele>
        <time>2015-07-11T13:46:16Z</time>
      </trkpt>
      <trkpt lat="46.63981894031167" lon="12.356496462598443">
        <ele>1880.96</ele>
        <time>2015-07-11T13:46:28Z</time>
      </trkpt>
      <trkpt lat="46.639785664156079" lon="12.356527140364051">
        <ele>1882.8800000000001</ele>
        <time>2015-07-11T13:46:38Z</time>
      </trkpt>
      <trkpt lat="46.639740569517016" lon="12.356548178941011">
        <ele>1884.8</ele>
        <time>2015-07-11T13:46:51Z</time>
      </trkpt>
      <trkpt lat="46.639715675264597" lon="12.356578856706619">
        <ele>1885.28</ele>
        <time>2015-07-11T13:46:59Z</time>
      </trkpt>
      <trkpt lat="46.639653733000159" lon="12.35661749728024">
        <ele>1885.76</ele>
        <time>2015-07-11T13:47:10Z</time>
      </trkpt>
      <trkpt lat="46.639579217880964" lon="12.356653455644846">
        <ele>1887.6900000000001</ele>
        <time>2015-07-11T13:47:22Z</time>
      </trkpt>
      <trkpt lat="46.639499505981803" lon="12.356659825891256">
        <ele>1889.1300000000001</ele>
        <time>2015-07-11T13:47:35Z</time>
      </trkpt>
      <trkpt lat="46.639429181814194" lon="12.356690252199769">
        <ele>1890.0899999999999</ele>
        <time>2015-07-11T13:47:47Z</time>
      </trkpt>
      <trkpt lat="46.639369167387486" lon="12.356719253584743">
        <ele>1891.05</ele>
        <time>2015-07-11T13:47:57Z</time>
      </trkpt>
      <trkpt lat="46.63931024260819" lon="12.356781531125307">
        <ele>1892.97</ele>
        <time>2015-07-11T13:48:11Z</time>
      </trkpt>
      <trkpt lat="46.639306889846921" lon="12.356792595237494">
        <ele>1892.97</ele>
        <time>2015-07-11T13:48:12Z</time>
      </trkpt>
      <trkpt lat="46.63925701752305" lon="12.356865014880896">
        <ele>1892.97</ele>
        <time>2015-07-11T13:48:24Z</time>
      </trkpt>
      <trkpt lat="46.639211922883987" lon="12.356914384290576">
        <ele>1894.9000000000001</ele>
        <time>2015-07-11T13:48:34Z</time>
      </trkpt>
      <trkpt lat="46.639164313673973" lon="12.356972973793745">
        <ele>1895.3800000000001</ele>
        <time>2015-07-11T13:48:44Z</time>
      </trkpt>
      <trkpt lat="46.639152998104692" lon="12.357051176950336">
        <ele>1897.3</ele>
        <time>2015-07-11T13:48:54Z</time>
      </trkpt>
      <trkpt lat="46.639093738049269" lon="12.35711831599474">
        <ele>1898.26</ele>
        <time>2015-07-11T13:49:06Z</time>
      </trkpt>
      <trkpt lat="46.639020144939423" lon="12.357218563556671">
        <ele>1898.74</ele>
        <time>2015-07-11T13:49:18Z</time>
      </trkpt>
      <trkpt lat="46.638932973146439" lon="12.357254857197404">
        <ele>1899.7</ele>
        <time>2015-07-11T13:49:30Z</time>
      </trkpt>
      <trkpt lat="46.638843454420567" lon="12.357281260192394">
        <ele>1900.6600000000001</ele>
        <time>2015-07-11T13:49:43Z</time>
      </trkpt>
      <trkpt lat="46.638787128031254" lon="12.357372120022774">
        <ele>1900.6600000000001</ele>
        <time>2015-07-11T13:49:54Z</time>
      </trkpt>
      <trkpt lat="46.638748403638601" lon="12.357449065893888">
        <ele>1901.6300000000001</ele>
        <time>2015-07-11T13:50:03Z</time>
      </trkpt>
      <trkpt lat="46.638722084462643" lon="12.357494244351983">
        <ele>1901.6300000000001</ele>
        <time>2015-07-11T13:50:08Z</time>
      </trkpt>
      <trkpt lat="46.638654191046953" lon="12.357622571289539">
        <ele>1902.1099999999999</ele>
        <time>2015-07-11T13:50:19Z</time>
      </trkpt>
      <trkpt lat="46.638583866879344" lon="12.357735307887197">
        <ele>1902.5899999999999</ele>
        <time>2015-07-11T13:50:31Z</time>
      </trkpt>
      <trkpt lat="46.63853332400322" lon="12.357799764722586">
        <ele>1902.5899999999999</ele>
        <time>2015-07-11T13:50:40Z</time>
      </trkpt>
      <trkpt lat="46.638487642630935" lon="12.357857683673501">
        <ele>1903.55</ele>
        <time>2015-07-11T13:50:49Z</time>
      </trkpt>
      <trkpt lat="46.638454031199217" lon="12.357884170487523">
        <ele>1904.03</ele>
        <time>2015-07-11T13:51:00Z</time>
      </trkpt>
      <trkpt lat="46.638415977358818" lon="12.35790797509253">
        <ele>1904.03</ele>
        <time>2015-07-11T13:51:04Z</time>
      </trkpt>
      <trkpt lat="46.638373648747802" lon="12.357910992577672">
        <ele>1904.03</ele>
        <time>2015-07-11T13:51:09Z</time>
      </trkpt>
      <trkpt lat="46.63826753385365" lon="12.357975281774998">
        <ele>1904.51</ele>
        <time>2015-07-11T13:51:21Z</time>
      </trkpt>
      <trkpt lat="46.638247920200229" lon="12.357984418049455">
        <ele>1904.51</ele>
        <time>2015-07-11T13:51:23Z</time>
      </trkpt>
      <trkpt lat="46.638212464749813" lon="12.358009563758969">
        <ele>1904.51</ele>
        <time>2015-07-11T13:51:27Z</time>
      </trkpt>
      <trkpt lat="46.638201819732785" lon="12.358009982854128">
        <ele>1904.51</ele>
        <time>2015-07-11T13:51:28Z</time>
      </trkpt>
      <trkpt lat="46.638072151690722" lon="12.358069829642773">
        <ele>1905.95</ele>
        <time>2015-07-11T13:51:40Z</time>
      </trkpt>
      <trkpt lat="46.637983806431293" lon="12.358108134940267">
        <ele>1906.4300000000001</ele>
        <time>2015-07-11T13:51:52Z</time>
      </trkpt>
      <trkpt lat="46.637910967692733" lon="12.358158593997359">
        <ele>1906.9100000000001</ele>
        <time>2015-07-11T13:52:03Z</time>
      </trkpt>
      <trkpt lat="46.637906357645988" lon="12.358247106894851">
        <ele>1908.3499999999999</ele>
        <time>2015-07-11T13:52:12Z</time>
      </trkpt>
      <trkpt lat="46.637875009328127" lon="12.358340481296182">
        <ele>1909.8</ele>
        <time>2015-07-11T13:52:23Z</time>
      </trkpt>
      <trkpt lat="46.637795297428966" lon="12.358423126861453">
        <ele>1911.24</ele>
        <time>2015-07-11T13:52:36Z</time>
      </trkpt>
      <trkpt lat="46.637680884450674" lon="12.358466042205691">
        <ele>1911.72</ele>
        <time>2015-07-11T13:52:49Z</time>
      </trkpt>
      <trkpt lat="46.637588432058692" lon="12.358553800731897">
        <ele>1913.1600000000001</ele>
        <time>2015-07-11T13:53:01Z</time>
      </trkpt>
      <trkpt lat="46.637571416795254" lon="12.358567379415035">
        <ele>1914.1199999999999</ele>
        <time>2015-07-11T13:53:08Z</time>
      </trkpt>
      <trkpt lat="46.637560101225972" lon="12.358617587015033">
        <ele>1915.0799999999999</ele>
        <time>2015-07-11T13:53:17Z</time>
      </trkpt>
      <trkpt lat="46.637544929981232" lon="12.358698640018702">
        <ele>1917.01</ele>
        <time>2015-07-11T13:53:28Z</time>
      </trkpt>
      <trkpt lat="46.637511821463704" lon="12.358711631968617">
        <ele>1918.9300000000001</ele>
        <time>2015-07-11T13:53:37Z</time>
      </trkpt>
      <trkpt lat="46.637500422075391" lon="12.358687575906515">
        <ele>1920.8499999999999</ele>
        <time>2015-07-11T13:53:41Z</time>
      </trkpt>
      <trkpt lat="46.637457842007279" lon="12.358658406883478">
        <ele>1921.3299999999999</ele>
        <time>2015-07-11T13:53:52Z</time>
      </trkpt>
      <trkpt lat="46.637452645227313" lon="12.358733676373959">
        <ele>1922.29</ele>
        <time>2015-07-11T13:54:01Z</time>
      </trkpt>
      <trkpt lat="46.63743244484067" lon="12.358803497627378">
        <ele>1923.74</ele>
        <time>2015-07-11T13:54:10Z</time>
      </trkpt>
      <trkpt lat="46.637396402657032" lon="12.358856722712517">
        <ele>1925.1800000000001</ele>
        <time>2015-07-11T13:54:21Z</time>
      </trkpt>
      <trkpt lat="46.637365808710456" lon="12.358918329700828">
        <ele>1927.0999999999999</ele>
        <time>2015-07-11T13:54:33Z</time>
      </trkpt>
      <trkpt lat="46.637323312461376" lon="12.358992761000991">
        <ele>1928.54</ele>
        <time>2015-07-11T13:54:45Z</time>
      </trkpt>
      <trkpt lat="46.63730344735086" lon="12.358932662755251">
        <ele>1929.98</ele>
        <time>2015-07-11T13:54:55Z</time>
      </trkpt>
      <trkpt lat="46.637280900031328" lon="12.358873570337892">
        <ele>1931.4300000000001</ele>
        <time>2015-07-11T13:55:06Z</time>
      </trkpt>
      <trkpt lat="46.63725508376956" lon="12.358937105163932">
        <ele>1932.8699999999999</ele>
        <time>2015-07-11T13:55:17Z</time>
      </trkpt>
      <trkpt lat="46.637209402397275" lon="12.359005585312843">
        <ele>1934.79</ele>
        <time>2015-07-11T13:55:29Z</time>
      </trkpt>
      <trkpt lat="46.63716908544302" lon="12.359041878953576">
        <ele>1936.23</ele>
        <time>2015-07-11T13:55:38Z</time>
      </trkpt>
      <trkpt lat="46.637150393798947" lon="12.359046908095479">
        <ele>1938.1600000000001</ele>
        <time>2015-07-11T13:55:42Z</time>
      </trkpt>
      <trkpt lat="46.637127343565226" lon="12.359097702428699">
        <ele>1938.6400000000001</ele>
        <time>2015-07-11T13:55:52Z</time>
      </trkpt>
      <trkpt lat="46.6370889544487" lon="12.359076999127865">
        <ele>1939.5999999999999</ele>
        <time>2015-07-11T13:56:00Z</time>
      </trkpt>
      <trkpt lat="46.637066742405295" lon="12.35910071991384">
        <ele>1941.52</ele>
        <time>2015-07-11T13:56:11Z</time>
      </trkpt>
      <trkpt lat="46.637016953900456" lon="12.359145311638713">
        <ele>1942.96</ele>
        <time>2015-07-11T13:56:24Z</time>
      </trkpt>
      <trkpt lat="46.636941600590944" lon="12.359229382127523">
        <ele>1944.8800000000001</ele>
        <time>2015-07-11T13:56:35Z</time>
      </trkpt>
      <trkpt lat="46.636923830956221" lon="12.359294844791293">
        <ele>1946.3299999999999</ele>
        <time>2015-07-11T13:56:45Z</time>
      </trkpt>
      <trkpt lat="46.636881837621331" lon="12.359364163130522">
        <ele>1947.77</ele>
        <time>2015-07-11T13:56:55Z</time>
      </trkpt>
      <trkpt lat="46.636841855943203" lon="12.359423842281103">
        <ele>1949.6900000000001</ele>
        <time>2015-07-11T13:57:07Z</time>
      </trkpt>
      <trkpt lat="46.636807825416327" lon="12.359468014910817">
        <ele>1951.1300000000001</ele>
        <time>2015-07-11T13:57:18Z</time>
      </trkpt>
      <trkpt lat="46.636746721342206" lon="12.359493663534522">
        <ele>1952.0899999999999</ele>
        <time>2015-07-11T13:57:28Z</time>
      </trkpt>
      <trkpt lat="46.636711433529854" lon="12.359488969668746">
        <ele>1953.54</ele>
        <time>2015-07-11T13:57:37Z</time>
      </trkpt>
      <trkpt lat="46.636670278385282" lon="12.359540350735188">
        <ele>1955.46</ele>
        <time>2015-07-11T13:57:48Z</time>
      </trkpt>
      <trkpt lat="46.636603055521846" lon="12.359574548900127">
        <ele>1956.9000000000001</ele>
        <time>2015-07-11T13:57:59Z</time>
      </trkpt>
      <trkpt lat="46.636558379977942" lon="12.359601119533181">
        <ele>1958.3399999999999</ele>
        <time>2015-07-11T13:58:09Z</time>
      </trkpt>
      <trkpt lat="46.636502305045724" lon="12.35962207429111">
        <ele>1958.8199999999999</ele>
        <time>2015-07-11T13:58:19Z</time>
      </trkpt>
      <trkpt lat="46.636457126587629" lon="12.359657697379589">
        <ele>1960.27</ele>
        <time>2015-07-11T13:58:29Z</time>
      </trkpt>
      <trkpt lat="46.636391915380955" lon="12.359691727906466">
        <ele>1960.75</ele>
        <time>2015-07-11T13:58:40Z</time>
      </trkpt>
      <trkpt lat="46.636317819356918" lon="12.359697259962559">
        <ele>1962.1900000000001</ele>
        <time>2015-07-11T13:58:51Z</time>
      </trkpt>
      <trkpt lat="46.636245734989643" lon="12.359656691551208">
        <ele>1963.1500000000001</ele>
        <time>2015-07-11T13:59:03Z</time>
      </trkpt>
      <trkpt lat="46.636173566803336" lon="12.359655434265733">
        <ele>1965.55</ele>
        <time>2015-07-11T13:59:16Z</time>
      </trkpt>
      <trkpt lat="46.636112043634057" lon="12.359644034877419">
        <ele>1967.48</ele>
        <time>2015-07-11T13:59:29Z</time>
      </trkpt>
      <trkpt lat="46.636063260957599" lon="12.359650069847703">
        <ele>1968.9200000000001</ele>
        <time>2015-07-11T13:59:40Z</time>
      </trkpt>
      <trkpt lat="46.635995954275131" lon="12.35967043787241">
        <ele>1969.4000000000001</ele>
        <time>2015-07-11T13:59:53Z</time>
      </trkpt>
      <trkpt lat="46.636001318693161" lon="12.359656523913145">
        <ele>1969.8800000000001</ele>
        <time>2015-07-11T14:00:02Z</time>
      </trkpt>
      <trkpt lat="46.636013640090823" lon="12.359656020998955">
        <ele>1969.8800000000001</ele>
        <time>2015-07-11T14:00:22Z</time>
      </trkpt>
      <trkpt lat="46.635945662856102" lon="12.359707402065396">
        <ele>1968.9200000000001</ele>
        <time>2015-07-11T14:00:31Z</time>
      </trkpt>
      <trkpt lat="46.635925294831395" lon="12.35971880145371">
        <ele>1968.4400000000001</ele>
        <time>2015-07-11T14:00:33Z</time>
      </trkpt>
      <trkpt lat="46.635883804410696" lon="12.359759956598282">
        <ele>1967.96</ele>
        <time>2015-07-11T14:00:38Z</time>
      </trkpt>
      <trkpt lat="46.635811552405357" lon="12.359849894419312">
        <ele>1966.03</ele>
        <time>2015-07-11T14:00:49Z</time>
      </trkpt>
      <trkpt lat="46.635743826627731" lon="12.359911249950528">
        <ele>1964.1099999999999</ele>
        <time>2015-07-11T14:00:58Z</time>
      </trkpt>
      <trkpt lat="46.635639723390341" lon="12.360015688464046">
        <ele>1963.1500000000001</ele>
        <time>2015-07-11T14:01:10Z</time>
      </trkpt>
      <trkpt lat="46.635547773912549" lon="12.360117444768548">
        <ele>1963.6300000000001</ele>
        <time>2015-07-11T14:01:24Z</time>
      </trkpt>
      <trkpt lat="46.635498320683837" lon="12.360157426446676">
        <ele>1965.55</ele>
        <time>2015-07-11T14:01:36Z</time>
      </trkpt>
      <trkpt lat="46.635458590462804" lon="12.36016932874918">
        <ele>1967.48</ele>
        <time>2015-07-11T14:01:47Z</time>
      </trkpt>
      <trkpt lat="46.635477282106876" lon="12.360127922147512">
        <ele>1968.9200000000001</ele>
        <time>2015-07-11T14:01:50Z</time>
      </trkpt>
      <trkpt lat="46.635468397289515" lon="12.36008676700294">
        <ele>1969.8800000000001</ele>
        <time>2015-07-11T14:01:59Z</time>
      </trkpt>
      <trkpt lat="46.635422883555293" lon="12.360157929360867">
        <ele>1971.8</ele>
        <time>2015-07-11T14:02:10Z</time>
      </trkpt>
      <trkpt lat="46.635394301265478" lon="12.360250046476722">
        <ele>1972.76</ele>
        <time>2015-07-11T14:02:21Z</time>
      </trkpt>
      <trkpt lat="46.635373933240771" lon="12.360316347330809">
        <ele>1974.6900000000001</ele>
        <time>2015-07-11T14:02:31Z</time>
      </trkpt>
      <trkpt lat="46.63536605425179" lon="12.360402178019285">
        <ele>1976.6099999999999</ele>
        <time>2015-07-11T14:02:44Z</time>
      </trkpt>
      <trkpt lat="46.635330514982343" lon="12.36045272089541">
        <ele>1979.01</ele>
        <time>2015-07-11T14:02:56Z</time>
      </trkpt>
      <trkpt lat="46.635289611294866" lon="12.360441321507096">
        <ele>1980.45</ele>
        <time>2015-07-11T14:03:07Z</time>
      </trkpt>
      <trkpt lat="46.635255413129926" lon="12.360373511910439">
        <ele>1981.9000000000001</ele>
        <time>2015-07-11T14:03:17Z</time>
      </trkpt>
      <trkpt lat="46.635215012356639" lon="12.360337721183896">
        <ele>1983.3399999999999</ele>
        <time>2015-07-11T14:03:27Z</time>
      </trkpt>
      <trkpt lat="46.635161116719246" lon="12.36031249165535">
        <ele>1984.78</ele>
        <time>2015-07-11T14:03:39Z</time>
      </trkpt>
      <trkpt lat="46.635137228295207" lon="12.360266726464033">
        <ele>1985.74</ele>
        <time>2015-07-11T14:03:49Z</time>
      </trkpt>
      <trkpt lat="46.635094648227096" lon="12.36030176281929">
        <ele>1988.6199999999999</ele>
        <time>2015-07-11T14:04:03Z</time>
      </trkpt>
      <trkpt lat="46.635036896914244" lon="12.360270917415619">
        <ele>1991.03</ele>
        <time>2015-07-11T14:04:17Z</time>
      </trkpt>
      <trkpt lat="46.634997166693211" lon="12.360267983749509">
        <ele>1992.47</ele>
        <time>2015-07-11T14:04:27Z</time>
      </trkpt>
      <trkpt lat="46.634934805333614" lon="12.360245520249009">
        <ele>1994.8699999999999</ele>
        <time>2015-07-11T14:04:39Z</time>
      </trkpt>
      <trkpt lat="46.634905552491546" lon="12.360263960435987">
        <ele>1995.3499999999999</ele>
        <time>2015-07-11T14:04:51Z</time>
      </trkpt>
      <trkpt lat="46.634839838370681" lon="12.360302936285734">
        <ele>1997.76</ele>
        <time>2015-07-11T14:05:04Z</time>
      </trkpt>
      <trkpt lat="46.634805472567677" lon="12.360321711748838">
        <ele>1999.6800000000001</ele>
        <time>2015-07-11T14:05:15Z</time>
      </trkpt>
      <trkpt lat="46.634736992418766" lon="12.360302014276385">
        <ele>2001.1199999999999</ele>
        <time>2015-07-11T14:05:25Z</time>
      </trkpt>
      <trkpt lat="46.634696172550321" lon="12.360382480546832">
        <ele>2002.0799999999999</ele>
        <time>2015-07-11T14:05:37Z</time>
      </trkpt>
      <trkpt lat="46.634634817019105" lon="12.360383905470371">
        <ele>2004.01</ele>
        <time>2015-07-11T14:05:47Z</time>
      </trkpt>
      <trkpt lat="46.634565917775035" lon="12.360329339280725">
        <ele>2005.45</ele>
        <time>2015-07-11T14:06:01Z</time>
      </trkpt>
      <trkpt lat="46.634486792609096" lon="12.360333194956183">
        <ele>2007.3699999999999</ele>
        <time>2015-07-11T14:06:13Z</time>
      </trkpt>
      <trkpt lat="46.634426526725292" lon="12.360385414212942">
        <ele>2009.77</ele>
        <time>2015-07-11T14:06:25Z</time>
      </trkpt>
      <trkpt lat="46.634349329397082" lon="12.36041952855885">
        <ele>2010.25</ele>
        <time>2015-07-11T14:06:35Z</time>
      </trkpt>
      <trkpt lat="46.634303815662861" lon="12.360487505793571">
        <ele>2012.1800000000001</ele>
        <time>2015-07-11T14:06:45Z</time>
      </trkpt>
      <trkpt lat="46.634219074621797" lon="12.3605050239712">
        <ele>2012.6600000000001</ele>
        <time>2015-07-11T14:06:57Z</time>
      </trkpt>
      <trkpt lat="46.634157551452518" lon="12.360535450279713">
        <ele>2014.0999999999999</ele>
        <time>2015-07-11T14:07:09Z</time>
      </trkpt>
      <trkpt lat="46.634155539795756" lon="12.360536875203252">
        <ele>2014.5799999999999</ele>
        <time>2015-07-11T14:07:24Z</time>
      </trkpt>
      <trkpt lat="46.634116228669882" lon="12.36052555963397">
        <ele>2015.0599999999999</ele>
        <time>2015-07-11T14:07:33Z</time>
      </trkpt>
      <trkpt lat="46.634084628894925" lon="12.360500246286392">
        <ele>2015.54</ele>
        <time>2015-07-11T14:07:40Z</time>
      </trkpt>
      <trkpt lat="46.634073732420802" lon="12.360499743372202">
        <ele>2016.5</ele>
        <time>2015-07-11T14:07:49Z</time>
      </trkpt>
      <trkpt lat="46.634066523984075" lon="12.360506532713771">
        <ele>2016.5</ele>
        <time>2015-07-11T14:08:03Z</time>
      </trkpt>
      <trkpt lat="46.634039198979735" lon="12.360503179952502">
        <ele>2016.5</ele>
        <time>2015-07-11T14:08:19Z</time>
      </trkpt>
      <trkpt lat="46.634018076583743" lon="12.360485410317779">
        <ele>2016.02</ele>
        <time>2015-07-11T14:08:22Z</time>
      </trkpt>
      <trkpt lat="46.63391288369894" lon="12.360456073656678">
        <ele>2016.98</ele>
        <time>2015-07-11T14:08:34Z</time>
      </trkpt>
      <trkpt lat="46.633836859837174" lon="12.360443249344826">
        <ele>2017.9400000000001</ele>
        <time>2015-07-11T14:08:45Z</time>
      </trkpt>
      <trkpt lat="46.63379805162549" lon="12.360448446124792">
        <ele>2018.4300000000001</ele>
        <time>2015-07-11T14:09:01Z</time>
      </trkpt>
      <trkpt lat="46.633753878995776" lon="12.360425144433975">
        <ele>2018.9100000000001</ele>
        <time>2015-07-11T14:09:11Z</time>
      </trkpt>
      <trkpt lat="46.633648937568069" lon="12.360376697033644">
        <ele>2018.4300000000001</ele>
        <time>2015-07-11T14:09:22Z</time>
      </trkpt>
      <trkpt lat="46.633612476289272" lon="12.36034526489675">
        <ele>2018.9100000000001</ele>
        <time>2015-07-11T14:09:27Z</time>
      </trkpt>
      <trkpt lat="46.633545337244868" lon="12.36027636565268">
        <ele>2019.3900000000001</ele>
        <time>2015-07-11T14:09:37Z</time>
      </trkpt>
      <trkpt lat="46.633414076641202" lon="12.360282735899091">
        <ele>2019.8699999999999</ele>
        <time>2015-07-11T14:09:52Z</time>
      </trkpt>
      <trkpt lat="46.633387673646212" lon="12.360262032598257">
        <ele>2019.8699999999999</ele>
        <time>2015-07-11T14:09:55Z</time>
      </trkpt>
      <trkpt lat="46.63329522125423" lon="12.360146278515458">
        <ele>2019.8699999999999</ele>
        <time>2015-07-11T14:10:06Z</time>
      </trkpt>
      <trkpt lat="46.633224477991462" lon="12.359990794211626">
        <ele>2018.4300000000001</ele>
        <time>2015-07-11T14:10:18Z</time>
      </trkpt>
      <trkpt lat="46.633215425536036" lon="12.359890881925821">
        <ele>2017.9400000000001</ele>
        <time>2015-07-11T14:10:24Z</time>
      </trkpt>
      <trkpt lat="46.633192710578442" lon="12.359791807830334">
        <ele>2018.4300000000001</ele>
        <time>2015-07-11T14:10:32Z</time>
      </trkpt>
      <trkpt lat="46.633113753050566" lon="12.359757022932172">
        <ele>2018.9100000000001</ele>
        <time>2015-07-11T14:10:45Z</time>
      </trkpt>
      <trkpt lat="46.633002525195479" lon="12.359668258577585">
        <ele>2019.8699999999999</ele>
        <time>2015-07-11T14:10:59Z</time>
      </trkpt>
      <trkpt lat="46.632887609302998" lon="12.359540853649378">
        <ele>2020.8299999999999</ele>
        <time>2015-07-11T14:11:15Z</time>
      </trkpt>
      <trkpt lat="46.632798258215189" lon="12.359466170892119">
        <ele>2021.3099999999999</ele>
        <time>2015-07-11T14:11:28Z</time>
      </trkpt>
      <trkpt lat="46.632716283202171" lon="12.359430380165577">
        <ele>2023.71</ele>
        <time>2015-07-11T14:11:41Z</time>
      </trkpt>
      <trkpt lat="46.632710080593824" lon="12.35942417755723">
        <ele>2024.1900000000001</ele>
        <time>2015-07-11T14:11:42Z</time>
      </trkpt>
      <trkpt lat="46.632648725062609" lon="12.359383525326848">
        <ele>2025.1500000000001</ele>
        <time>2015-07-11T14:11:52Z</time>
      </trkpt>
      <trkpt lat="46.632566833868623" lon="12.359391655772924">
        <ele>2026.5999999999999</ele>
        <time>2015-07-11T14:12:04Z</time>
      </trkpt>
      <trkpt lat="46.632493743672967" lon="12.359391991049051">
        <ele>2028.04</ele>
        <time>2015-07-11T14:12:17Z</time>
      </trkpt>
      <trkpt lat="46.632449151948094" lon="12.359334323555231">
        <ele>2029.96</ele>
        <time>2015-07-11T14:12:27Z</time>
      </trkpt>
      <trkpt lat="46.632394082844257" lon="12.359314039349556">
        <ele>2033.3299999999999</ele>
        <time>2015-07-11T14:12:38Z</time>
      </trkpt>
      <trkpt lat="46.632388215512037" lon="12.359307333827019">
        <ele>2031.8800000000001</ele>
        <time>2015-07-11T14:12:39Z</time>
      </trkpt>
      <trkpt lat="46.632387293502688" lon="12.359277326613665">
        <ele>2034.29</ele>
        <time>2015-07-11T14:12:51Z</time>
      </trkpt>
      <trkpt lat="46.632308168336749" lon="12.359317559748888">
        <ele>2035.25</ele>
        <time>2015-07-11T14:13:06Z</time>
      </trkpt>
      <trkpt lat="46.632213452830911" lon="12.359341699630022">
        <ele>2037.1700000000001</ele>
        <time>2015-07-11T14:13:22Z</time>
      </trkpt>
      <trkpt lat="46.632090657949448" lon="12.359283696860075">
        <ele>2038.6099999999999</ele>
        <time>2015-07-11T14:13:38Z</time>
      </trkpt>
      <trkpt lat="46.632054280489683" lon="12.359269866719842">
        <ele>2039.0899999999999</ele>
        <time>2015-07-11T14:13:42Z</time>
      </trkpt>
      <trkpt lat="46.631941627711058" lon="12.359215971082449">
        <ele>2039.5699999999999</ele>
        <time>2015-07-11T14:13:53Z</time>
      </trkpt>
      <trkpt lat="46.631830483675003" lon="12.359187388792634">
        <ele>2040.05</ele>
        <time>2015-07-11T14:14:04Z</time>
      </trkpt>
      <trkpt lat="46.631731996312737" lon="12.359207086265087">
        <ele>2040.05</ele>
        <time>2015-07-11T14:14:16Z</time>
      </trkpt>
      <trkpt lat="46.631634766235948" lon="12.359278751537204">
        <ele>2041.02</ele>
        <time>2015-07-11T14:14:27Z</time>
      </trkpt>
      <trkpt lat="46.631618840619922" lon="12.359290234744549">
        <ele>2041.5</ele>
        <time>2015-07-11T14:14:30Z</time>
      </trkpt>
      <trkpt lat="46.631556646898389" lon="12.359345555305481">
        <ele>2041.98</ele>
        <time>2015-07-11T14:14:41Z</time>
      </trkpt>
      <trkpt lat="46.631550109013915" lon="12.359357206150889">
        <ele>2041.98</ele>
        <time>2015-07-11T14:14:52Z</time>
      </trkpt>
      <trkpt lat="46.631529657170177" lon="12.359359553083777">
        <ele>2042.46</ele>
        <time>2015-07-11T14:14:55Z</time>
      </trkpt>
      <trkpt lat="46.631493950262666" lon="12.359400792047381">
        <ele>2042.46</ele>
        <time>2015-07-11T14:15:00Z</time>
      </trkpt>
      <trkpt lat="46.631380962207913" lon="12.359489304944873">
        <ele>2042.9400000000001</ele>
        <time>2015-07-11T14:15:12Z</time>
      </trkpt>
      <trkpt lat="46.631323965266347" lon="12.359470529481769">
        <ele>2043.9000000000001</ele>
        <time>2015-07-11T14:15:19Z</time>
      </trkpt>
      <trkpt lat="46.631259173154831" lon="12.359437169507146">
        <ele>2044.3800000000001</ele>
        <time>2015-07-11T14:15:27Z</time>
      </trkpt>
      <trkpt lat="46.631195219233632" lon="12.359517300501466">
        <ele>2045.8199999999999</ele>
        <time>2015-07-11T14:15:38Z</time>
      </trkpt>
      <trkpt lat="46.631146017462015" lon="12.359615284949541">
        <ele>2047.26</ele>
        <time>2015-07-11T14:15:49Z</time>
      </trkpt>
      <trkpt lat="46.631104610860348" lon="12.35973053611815">
        <ele>2049.1900000000001</ele>
        <time>2015-07-11T14:16:01Z</time>
      </trkpt>
      <trkpt lat="46.63106320425868" lon="12.359849056228995">
        <ele>2051.1100000000001</ele>
        <time>2015-07-11T14:16:13Z</time>
      </trkpt>
      <trkpt lat="46.631011823192239" lon="12.359917536377907">
        <ele>2053.0300000000002</ele>
        <time>2015-07-11T14:16:25Z</time>
      </trkpt>
      <trkpt lat="46.630958011373878" lon="12.35999783501029">
        <ele>2054.4699999999998</ele>
        <time>2015-07-11T14:16:37Z</time>
      </trkpt>
      <trkpt lat="46.630885004997253" lon="12.360012084245682">
        <ele>2055.9200000000001</ele>
        <time>2015-07-11T14:16:48Z</time>
      </trkpt>
      <trkpt lat="46.63080520927906" lon="12.360012922435999">
        <ele>2057.3600000000001</ele>
        <time>2015-07-11T14:17:00Z</time>
      </trkpt>
      <trkpt lat="46.630740752443671" lon="12.360042426735163">
        <ele>2058.8000000000002</ele>
        <time>2015-07-11T14:17:11Z</time>
      </trkpt>
      <trkpt lat="46.630663638934493" lon="12.360045025125146">
        <ele>2060.2399999999998</ele>
        <time>2015-07-11T14:17:21Z</time>
      </trkpt>
      <trkpt lat="46.630569593980908" lon="12.360014514997602">
        <ele>2061.1999999999998</ele>
        <time>2015-07-11T14:17:34Z</time>
      </trkpt>
      <trkpt lat="46.630560625344515" lon="12.360000433400273">
        <ele>2062.1700000000001</ele>
        <time>2015-07-11T14:17:36Z</time>
      </trkpt>
      <trkpt lat="46.630523409694433" lon="12.359944274649024">
        <ele>2063.6100000000001</ele>
        <time>2015-07-11T14:17:45Z</time>
      </trkpt>
      <trkpt lat="46.630475800484419" lon="12.359885266050696">
        <ele>2064.0900000000001</ele>
        <time>2015-07-11T14:17:56Z</time>
      </trkpt>
      <trkpt lat="46.63045484572649" lon="12.359873782843351">
        <ele>2065.5300000000002</ele>
        <time>2015-07-11T14:17:59Z</time>
      </trkpt>
      <trkpt lat="46.630385695025325" lon="12.359869675710797">
        <ele>2067.4499999999998</ele>
        <time>2015-07-11T14:18:10Z</time>
      </trkpt>
      <trkpt lat="46.63032341748476" lon="12.359851403161883">
        <ele>2068.4099999999999</ele>
        <time>2015-07-11T14:18:19Z</time>
      </trkpt>
      <trkpt lat="46.630241442471743" lon="12.359863389283419">
        <ele>2070.3400000000001</ele>
        <time>2015-07-11T14:18:30Z</time>
      </trkpt>
      <trkpt lat="46.630151169374585" lon="12.359828520566225">
        <ele>2072.7399999999998</ele>
        <time>2015-07-11T14:18:43Z</time>
      </trkpt>
      <trkpt lat="46.63008838891983" lon="12.359883086755872">
        <ele>2074.1799999999998</ele>
        <time>2015-07-11T14:18:53Z</time>
      </trkpt>
      <trkpt lat="46.630067015066743" lon="12.359869675710797">
        <ele>2075.6199999999999</ele>
        <time>2015-07-11T14:18:57Z</time>
      </trkpt>
      <trkpt lat="46.630040695890784" lon="12.35981703735888">
        <ele>2076.5900000000001</ele>
        <time>2015-07-11T14:19:06Z</time>
      </trkpt>
      <trkpt lat="46.629981016740203" lon="12.359823826700449">
        <ele>2078.5100000000002</ele>
        <time>2015-07-11T14:19:19Z</time>
      </trkpt>
      <trkpt lat="46.630020495504141" lon="12.359764399006963">
        <ele>2080.4299999999998</ele>
        <time>2015-07-11T14:19:28Z</time>
      </trkpt>
      <trkpt lat="46.630120240151882" lon="12.359693739563227">
        <ele>2082.3499999999999</ele>
        <time>2015-07-11T14:19:41Z</time>
      </trkpt>
      <trkpt lat="46.630131555721164" lon="12.359544625505805">
        <ele>2083.79</ele>
        <time>2015-07-11T14:19:57Z</time>
      </trkpt>
      <trkpt lat="46.630189893767238" lon="12.35949894413352">
        <ele>2084.7600000000002</ele>
        <time>2015-07-11T14:20:12Z</time>
      </trkpt>
      <trkpt lat="46.630243454128504" lon="12.359443875029683">
        <ele>2086.1999999999998</ele>
        <time>2015-07-11T14:20:23Z</time>
      </trkpt>
      <trkpt lat="46.630292236804962" lon="12.359448065981269">
        <ele>2087.6399999999999</ele>
        <time>2015-07-11T14:20:36Z</time>
      </trkpt>
      <trkpt lat="46.630327608436346" lon="12.359372712671757">
        <ele>2090.52</ele>
        <time>2015-07-11T14:20:49Z</time>
      </trkpt>
      <trkpt lat="46.630355436354876" lon="12.359346812590957">
        <ele>2092.9299999999998</ele>
        <time>2015-07-11T14:21:02Z</time>
      </trkpt>
      <trkpt lat="46.630402961745858" lon="12.359331725165248">
        <ele>2094.8499999999999</ele>
        <time>2015-07-11T14:21:14Z</time>
      </trkpt>
      <trkpt lat="46.630439590662718" lon="12.359299706295133">
        <ele>2097.73</ele>
        <time>2015-07-11T14:21:28Z</time>
      </trkpt>
      <trkpt lat="46.630482925102115" lon="12.359204823151231">
        <ele>2101.0999999999999</ele>
        <time>2015-07-11T14:21:44Z</time>
      </trkpt>
      <trkpt lat="46.630499353632331" lon="12.359142545610666">
        <ele>2103.98</ele>
        <time>2015-07-11T14:21:54Z</time>
      </trkpt>
      <trkpt lat="46.630482841283083" lon="12.359190071001649">
        <ele>2103.98</ele>
        <time>2015-07-11T14:22:02Z</time>
      </trkpt>
      <trkpt lat="46.63044948130846" lon="12.359184790402651">
        <ele>2105.4200000000001</ele>
        <time>2015-07-11T14:22:11Z</time>
      </trkpt>
      <trkpt lat="46.630453923717141" lon="12.35911974683404">
        <ele>2106.8699999999999</ele>
        <time>2015-07-11T14:22:22Z</time>
      </trkpt>
      <trkpt lat="46.630473453551531" lon="12.359028467908502">
        <ele>2109.27</ele>
        <time>2015-07-11T14:22:35Z</time>
      </trkpt>
      <trkpt lat="46.630464233458042" lon="12.358966944739223">
        <ele>2110.71</ele>
        <time>2015-07-11T14:22:46Z</time>
      </trkpt>
      <trkpt lat="46.630417546257377" lon="12.359063001349568">
        <ele>2112.1500000000001</ele>
        <time>2015-07-11T14:22:58Z</time>
      </trkpt>
      <trkpt lat="46.63039667531848" lon="12.359065096825361">
        <ele>2112.1500000000001</ele>
        <time>2015-07-11T14:23:08Z</time>
      </trkpt>
      <trkpt lat="46.630392568185925" lon="12.359041292220354">
        <ele>2112.6300000000001</ele>
        <time>2015-07-11T14:23:22Z</time>
      </trkpt>
      <trkpt lat="46.63035660982132" lon="12.359078256413341">
        <ele>2112.1500000000001</ele>
        <time>2015-07-11T14:23:34Z</time>
      </trkpt>
      <trkpt lat="46.630327776074409" lon="12.359097115695477">
        <ele>2112.1500000000001</ele>
        <time>2015-07-11T14:23:37Z</time>
      </trkpt>
      <trkpt lat="46.630315287038684" lon="12.359114550054073">
        <ele>2112.1500000000001</ele>
        <time>2015-07-11T14:23:39Z</time>
      </trkpt>
      <trkpt lat="46.630285866558552" lon="12.35912075266242">
        <ele>2112.1500000000001</ele>
        <time>2015-07-11T14:23:42Z</time>
      </trkpt>
      <trkpt lat="46.630185199901462" lon="12.359117567539215">
        <ele>2112.6300000000001</ele>
        <time>2015-07-11T14:23:55Z</time>
      </trkpt>
      <trkpt lat="46.630076738074422" lon="12.359129302203655">
        <ele>2113.5999999999999</ele>
        <time>2015-07-11T14:24:08Z</time>
      </trkpt>
      <trkpt lat="46.629961067810655" lon="12.359179928898811">
        <ele>2114.5599999999999</ele>
        <time>2015-07-11T14:24:21Z</time>
      </trkpt>
      <trkpt lat="46.629940951243043" lon="12.35918864607811">
        <ele>2115.04</ele>
        <time>2015-07-11T14:24:24Z</time>
      </trkpt>
      <trkpt lat="46.629913626238704" lon="12.359203230589628">
        <ele>2115.04</ele>
        <time>2015-07-11T14:24:27Z</time>
      </trkpt>
      <trkpt lat="46.629752609878778" lon="12.359264167025685">
        <ele>2114.5599999999999</ele>
        <time>2015-07-11T14:24:43Z</time>
      </trkpt>
      <trkpt lat="46.629631575196981" lon="12.359338598325849">
        <ele>2115.04</ele>
        <time>2015-07-11T14:24:56Z</time>
      </trkpt>
      <trkpt lat="46.629533171653748" lon="12.359378580003977">
        <ele>2116</ele>
        <time>2015-07-11T14:25:08Z</time>
      </trkpt>
      <trkpt lat="46.629468966275454" lon="12.35943197272718">
        <ele>2117.4400000000001</ele>
        <time>2015-07-11T14:25:17Z</time>
      </trkpt>
      <trkpt lat="46.629369808360934" lon="12.359468434005976">
        <ele>2116.96</ele>
        <time>2015-07-11T14:25:29Z</time>
      </trkpt>
      <trkpt lat="46.629261011257768" lon="12.359491484239697">
        <ele>2116.48</ele>
        <time>2015-07-11T14:25:39Z</time>
      </trkpt>
      <trkpt lat="46.629170905798674" lon="12.359524676576257">
        <ele>2117.9200000000001</ele>
        <time>2015-07-11T14:25:51Z</time>
      </trkpt>
      <trkpt lat="46.629152549430728" lon="12.359530795365572">
        <ele>2119.3600000000001</ele>
        <time>2015-07-11T14:25:55Z</time>
      </trkpt>
      <trkpt lat="46.629103850573301" lon="12.359558707103133">
        <ele>2121.29</ele>
        <time>2015-07-11T14:26:08Z</time>
      </trkpt>
      <trkpt lat="46.629069400951266" lon="12.359598018229008">
        <ele>2123.6900000000001</ele>
        <time>2015-07-11T14:26:20Z</time>
      </trkpt>
      <trkpt lat="46.629026737064123" lon="12.359656943008304">
        <ele>2125.6100000000001</ele>
        <time>2015-07-11T14:26:33Z</time>
      </trkpt>
      <trkpt lat="46.628990191966295" lon="12.359652332961559">
        <ele>2126.5700000000002</ele>
        <time>2015-07-11T14:26:44Z</time>
      </trkpt>
      <trkpt lat="46.628956580534577" lon="12.359669683501124">
        <ele>2127.0500000000002</ele>
        <time>2015-07-11T14:26:53Z</time>
      </trkpt>
      <trkpt lat="46.628916012123227" lon="12.359686195850372">
        <ele>2128.5</ele>
        <time>2015-07-11T14:27:01Z</time>
      </trkpt>
      <trkpt lat="46.62885750643909" lon="12.35969977453351">
        <ele>2130.9000000000001</ele>
        <time>2015-07-11T14:27:13Z</time>
      </trkpt>
      <trkpt lat="46.628801263868809" lon="12.359684687107801">
        <ele>2133.3000000000002</ele>
        <time>2015-07-11T14:27:23Z</time>
      </trkpt>
      <trkpt lat="46.628737645223737" lon="12.359695751219988">
        <ele>2135.23</ele>
        <time>2015-07-11T14:27:37Z</time>
      </trkpt>
      <trkpt lat="46.628683246672153" lon="12.359672030434012">
        <ele>2137.1500000000001</ele>
        <time>2015-07-11T14:27:48Z</time>
      </trkpt>
      <trkpt lat="46.628650892525911" lon="12.35961327329278">
        <ele>2139.0700000000002</ele>
        <time>2015-07-11T14:27:59Z</time>
      </trkpt>
      <trkpt lat="46.628603367134929" lon="12.359603047370911">
        <ele>2140.5100000000002</ele>
        <time>2015-07-11T14:28:08Z</time>
      </trkpt>
      <trkpt lat="46.628533126786351" lon="12.359587792307138">
        <ele>2141.9499999999998</ele>
        <time>2015-07-11T14:28:19Z</time>
      </trkpt>
      <trkpt lat="46.628487529233098" lon="12.359571866691113">
        <ele>2143.4000000000001</ele>
        <time>2015-07-11T14:28:28Z</time>
      </trkpt>
      <trkpt lat="46.628447212278843" lon="12.359538758173585">
        <ele>2144.8400000000001</ele>
        <time>2015-07-11T14:28:39Z</time>
      </trkpt>
      <trkpt lat="46.628376971930265" lon="12.359504140913486">
        <ele>2146.7600000000002</ele>
        <time>2015-07-11T14:28:53Z</time>
      </trkpt>
      <trkpt lat="46.62831075489521" lon="12.359482515603304">
        <ele>2148.6799999999998</ele>
        <time>2015-07-11T14:29:03Z</time>
      </trkpt>
      <trkpt lat="46.628240430727601" lon="12.359472960233688">
        <ele>2150.6100000000001</ele>
        <time>2015-07-11T14:29:16Z</time>
      </trkpt>
      <trkpt lat="46.628184774890542" lon="12.359433397650719">
        <ele>2152.5300000000002</ele>
        <time>2015-07-11T14:29:28Z</time>
      </trkpt>
      <trkpt lat="46.628104224801064" lon="12.35938411206007">
        <ele>2153.4899999999998</ele>
        <time>2015-07-11T14:29:42Z</time>
      </trkpt>
      <trkpt lat="46.628060135990381" lon="12.359327115118504">
        <ele>2155.8899999999999</ele>
        <time>2015-07-11T14:29:53Z</time>
      </trkpt>
      <trkpt lat="46.627983609214425" lon="12.359335580840707">
        <ele>2156.8600000000001</ele>
        <time>2015-07-11T14:30:05Z</time>
      </trkpt>
      <trkpt lat="46.6279555298388" lon="12.35926148481667">
        <ele>2158.7800000000002</ele>
        <time>2015-07-11T14:30:17Z</time>
      </trkpt>
      <trkpt lat="46.62803809158504" lon="12.359238183125854">
        <ele>2160.2199999999998</ele>
        <time>2015-07-11T14:30:30Z</time>
      </trkpt>
      <trkpt lat="46.627990733832121" lon="12.359230807051063">
        <ele>2163.5799999999999</ele>
        <time>2015-07-11T14:30:41Z</time>
      </trkpt>
      <trkpt lat="46.628033481538296" lon="12.35917741432786">
        <ele>2163.5799999999999</ele>
        <time>2015-07-11T14:30:52Z</time>
      </trkpt>
      <trkpt lat="46.628059465438128" lon="12.359158135950565">
        <ele>2164.5500000000002</ele>
        <time>2015-07-11T14:30:56Z</time>
      </trkpt>
      <trkpt lat="46.628139931708574" lon="12.359138019382954">
        <ele>2166.9499999999998</ele>
        <time>2015-07-11T14:31:10Z</time>
      </trkpt>
      <trkpt lat="46.628191815689206" lon="12.359119411557913">
        <ele>2169.3499999999999</ele>
        <time>2015-07-11T14:31:24Z</time>
      </trkpt>
      <trkpt lat="46.628247303888202" lon="12.359118489548564">
        <ele>2171.7600000000002</ele>
        <time>2015-07-11T14:31:40Z</time>
      </trkpt>
      <trkpt lat="46.628285693004727" lon="12.359135840088129">
        <ele>2173.6799999999998</ele>
        <time>2015-07-11T14:31:51Z</time>
      </trkpt>
      <trkpt lat="46.628336571156979" lon="12.359161823987961">
        <ele>2174.6399999999999</ele>
        <time>2015-07-11T14:32:02Z</time>
      </trkpt>
      <trkpt lat="46.628343025222421" lon="12.359157968312502">
        <ele>2174.6399999999999</ele>
        <time>2015-07-11T14:32:04Z</time>
      </trkpt>
      <trkpt lat="46.628414606675506" lon="12.359132152050734">
        <ele>2176.0799999999999</ele>
        <time>2015-07-11T14:32:15Z</time>
      </trkpt>
      <trkpt lat="46.628486607223749" lon="12.359107760712504">
        <ele>2177.52</ele>
        <time>2015-07-11T14:32:26Z</time>
      </trkpt>
      <trkpt lat="46.628487026318908" lon="12.359083369374275">
        <ele>2178.9699999999998</ele>
        <time>2015-07-11T14:32:37Z</time>
      </trkpt>
      <trkpt lat="46.628416450694203" lon="12.359049171209335">
        <ele>2180.8899999999999</ele>
        <time>2015-07-11T14:32:50Z</time>
      </trkpt>
      <trkpt lat="46.628367668017745" lon="12.358994437381625">
        <ele>2182.3299999999999</ele>
        <time>2015-07-11T14:33:01Z</time>
      </trkpt>
      <trkpt lat="46.628325507044792" lon="12.359001059085131">
        <ele>2184.25</ele>
        <time>2015-07-11T14:33:10Z</time>
      </trkpt>
      <trkpt lat="46.628292985260487" lon="12.358959149569273">
        <ele>2186.6599999999999</ele>
        <time>2015-07-11T14:33:21Z</time>
      </trkpt>
      <trkpt lat="46.628225259482861" lon="12.358926543965936">
        <ele>2188.5799999999999</ele>
        <time>2015-07-11T14:33:35Z</time>
      </trkpt>
      <trkpt lat="46.628174632787704" lon="12.358899218961596">
        <ele>2190.5</ele>
        <time>2015-07-11T14:33:46Z</time>
      </trkpt>
      <trkpt lat="46.628123251721263" lon="12.358857896178961">
        <ele>2191.9400000000001</ele>
        <time>2015-07-11T14:33:59Z</time>
      </trkpt>
      <trkpt lat="46.628071283921599" lon="12.358767120167613">
        <ele>2192.9000000000001</ele>
        <time>2015-07-11T14:34:12Z</time>
      </trkpt>
      <trkpt lat="46.628023087978363" lon="12.358673745766282">
        <ele>2194.8299999999999</ele>
        <time>2015-07-11T14:34:25Z</time>
      </trkpt>
      <trkpt lat="46.628005737438798" lon="12.358663016930223">
        <ele>2195.79</ele>
        <time>2015-07-11T14:34:34Z</time>
      </trkpt>
      <trkpt lat="46.628013616427779" lon="12.358657401055098">
        <ele>2196.27</ele>
        <time>2015-07-11T14:34:45Z</time>
      </trkpt>
      <trkpt lat="46.628024596720934" lon="12.35863066278398">
        <ele>2196.75</ele>
        <time>2015-07-11T14:34:58Z</time>
      </trkpt>
      <trkpt lat="46.628040689975023" lon="12.358585651963949">
        <ele>2198.6700000000001</ele>
        <time>2015-07-11T14:35:08Z</time>
      </trkpt>
      <trkpt lat="46.628053598105907" lon="12.358533265069127">
        <ele>2200.5900000000001</ele>
        <time>2015-07-11T14:35:18Z</time>
      </trkpt>
      <trkpt lat="46.628057034686208" lon="12.358513902872801">
        <ele>2201.0799999999999</ele>
        <time>2015-07-11T14:35:20Z</time>
      </trkpt>
      <trkpt lat="46.628037923946977" lon="12.358473250642419">
        <ele>2202.52</ele>
        <time>2015-07-11T14:35:27Z</time>
      </trkpt>
      <trkpt lat="46.628078240901232" lon="12.358455061912537">
        <ele>2204.4400000000001</ele>
        <time>2015-07-11T14:35:38Z</time>
      </trkpt>
      <trkpt lat="46.628090646117926" lon="12.358435951173306">
        <ele>2204.4400000000001</ele>
        <time>2015-07-11T14:35:49Z</time>
      </trkpt>
      <trkpt lat="46.628089221194386" lon="12.358423881232738">
        <ele>2204.4400000000001</ele>
        <time>2015-07-11T14:36:01Z</time>
      </trkpt>
      <trkpt lat="46.628113780170679" lon="12.358444919809699">
        <ele>2204.9200000000001</ele>
        <time>2015-07-11T14:36:11Z</time>
      </trkpt>
      <trkpt lat="46.62812408991158" lon="12.358421199023724">
        <ele>2206.3600000000001</ele>
        <time>2015-07-11T14:36:19Z</time>
      </trkpt>
      <trkpt lat="46.628114283084869" lon="12.358379624783993">
        <ele>2206.8400000000001</ele>
        <time>2015-07-11T14:36:23Z</time>
      </trkpt>
      <trkpt lat="46.628119479864836" lon="12.358327824622393">
        <ele>2208.29</ele>
        <time>2015-07-11T14:36:28Z</time>
      </trkpt>
      <trkpt lat="46.628132555633783" lon="12.35823386348784">
        <ele>2209.73</ele>
        <time>2015-07-11T14:36:39Z</time>
      </trkpt>
      <trkpt lat="46.628134399652481" lon="12.358158845454454">
        <ele>2212.6100000000001</ele>
        <time>2015-07-11T14:36:49Z</time>
      </trkpt>
      <trkpt lat="46.628146804869175" lon="12.35807997174561">
        <ele>2214.0500000000002</ele>
        <time>2015-07-11T14:36:59Z</time>
      </trkpt>
      <trkpt lat="46.628185529261827" lon="12.358030183240771">
        <ele>2215.0100000000002</ele>
        <time>2015-07-11T14:37:08Z</time>
      </trkpt>
      <trkpt lat="46.628238502889872" lon="12.357977209612727">
        <ele>2216.46</ele>
        <time>2015-07-11T14:37:18Z</time>
      </trkpt>
      <trkpt lat="46.628277730196714" lon="12.357924152165651">
        <ele>2217.9000000000001</ele>
        <time>2015-07-11T14:37:30Z</time>
      </trkpt>
      <trkpt lat="46.628321819007397" lon="12.357875118032098">
        <ele>2218.8600000000001</ele>
        <time>2015-07-11T14:37:40Z</time>
      </trkpt>
      <trkpt lat="46.628337493166327" lon="12.357885260134935">
        <ele>2219.3400000000001</ele>
        <time>2015-07-11T14:37:48Z</time>
      </trkpt>
      <trkpt lat="46.628288207575679" lon="12.357913507148623">
        <ele>2218.8600000000001</ele>
        <time>2015-07-11T14:37:59Z</time>
      </trkpt>
      <trkpt lat="46.628292230889201" lon="12.357905963435769">
        <ele>2218.8600000000001</ele>
        <time>2015-07-11T14:38:15Z</time>
      </trkpt>
      <trkpt lat="46.628293739631772" lon="12.357900179922581">
        <ele>2218.8600000000001</ele>
        <time>2015-07-11T14:38:16Z</time>
      </trkpt>
      <trkpt lat="46.628308743238449" lon="12.357872016727924">
        <ele>2218.8600000000001</ele>
        <time>2015-07-11T14:38:19Z</time>
      </trkpt>
      <trkpt lat="46.628318633884192" lon="12.357866065576673">
        <ele>2218.3800000000001</ele>
        <time>2015-07-11T14:38:20Z</time>
      </trkpt>
      <trkpt lat="46.628370601683855" lon="12.357841255143285">
        <ele>2220.3000000000002</ele>
        <time>2015-07-11T14:38:27Z</time>
      </trkpt>
      <trkpt lat="46.628365237265825" lon="12.357836980372667">
        <ele>2220.7800000000002</ele>
        <time>2015-07-11T14:38:34Z</time>
      </trkpt>
      <trkpt lat="46.628360878676176" lon="12.357798172160983">
        <ele>2221.2600000000002</ele>
        <time>2015-07-11T14:39:02Z</time>
      </trkpt>
      <trkpt lat="46.628350401297212" lon="12.357819881290197">
        <ele>2221.2600000000002</ele>
        <time>2015-07-11T14:39:32Z</time>
      </trkpt>
      <trkpt lat="46.628357945010066" lon="12.357820551842451">
        <ele>2221.2600000000002</ele>
        <time>2015-07-11T14:39:45Z</time>
      </trkpt>
      <trkpt lat="46.628361130133271" lon="12.357839830219746">
        <ele>2221.2600000000002</ele>
        <time>2015-07-11T14:39:53Z</time>
      </trkpt>
      <trkpt lat="46.628353670239449" lon="12.357834549620748">
        <ele>2222.2199999999998</ele>
        <time>2015-07-11T14:40:15Z</time>
      </trkpt>
      <trkpt lat="46.628352999687195" lon="12.357820132747293">
        <ele>2221.2600000000002</ele>
        <time>2015-07-11T14:40:31Z</time>
      </trkpt>
      <trkpt lat="46.628346210345626" lon="12.357772691175342">
        <ele>2221.7399999999998</ele>
        <time>2015-07-11T14:41:02Z</time>
      </trkpt>
      <trkpt lat="46.628332296386361" lon="12.357766656205058">
        <ele>2221.7399999999998</ele>
        <time>2015-07-11T14:41:34Z</time>
      </trkpt>
      <trkpt lat="46.628330368548632" lon="12.357746791094542">
        <ele>2222.2199999999998</ele>
        <time>2015-07-11T14:42:09Z</time>
      </trkpt>
      <trkpt lat="46.628323327749968" lon="12.357752742245793">
        <ele>2222.2199999999998</ele>
        <time>2015-07-11T14:42:35Z</time>
      </trkpt>
      <trkpt lat="46.628314862027764" lon="12.357743103057146">
        <ele>2222.2199999999998</ele>
        <time>2015-07-11T14:42:51Z</time>
      </trkpt>
      <trkpt lat="46.628336487337947" lon="12.357763219624758">
        <ele>2222.2199999999998</ele>
        <time>2015-07-11T14:43:15Z</time>
      </trkpt>
      <trkpt lat="46.628331542015076" lon="12.357749976217747">
        <ele>2222.71</ele>
        <time>2015-07-11T14:43:33Z</time>
      </trkpt>
      <trkpt lat="46.62831318564713" lon="12.35775844193995">
        <ele>2222.71</ele>
        <time>2015-07-11T14:43:59Z</time>
      </trkpt>
      <trkpt lat="46.628341684117913" lon="12.357773277908564">
        <ele>2223.1900000000001</ele>
        <time>2015-07-11T14:44:25Z</time>
      </trkpt>
      <trkpt lat="46.628354592248797" lon="12.35780093818903">
        <ele>2222.71</ele>
        <time>2015-07-11T14:44:50Z</time>
      </trkpt>
      <trkpt lat="46.628359286114573" lon="12.357809068635106">
        <ele>2222.71</ele>
        <time>2015-07-11T14:45:09Z</time>
      </trkpt>
      <trkpt lat="46.628354340791702" lon="12.357813930138946">
        <ele>2222.71</ele>
        <time>2015-07-11T14:45:24Z</time>
      </trkpt>
      <trkpt lat="46.628356771543622" lon="12.35781024210155">
        <ele>2223.1900000000001</ele>
        <time>2015-07-11T14:45:37Z</time>
      </trkpt>
      <trkpt lat="46.628352664411068" lon="12.357782414183021">
        <ele>2223.6700000000001</ele>
        <time>2015-07-11T14:45:49Z</time>
      </trkpt>
      <trkpt lat="46.628337493166327" lon="12.357763387262821">
        <ele>2223.6700000000001</ele>
        <time>2015-07-11T14:46:13Z</time>
      </trkpt>
      <trkpt lat="46.628310335800052" lon="12.357730781659484">
        <ele>2224.1500000000001</ele>
        <time>2015-07-11T14:46:41Z</time>
      </trkpt>
      <trkpt lat="46.628337576985359" lon="12.357751904055476">
        <ele>2224.1500000000001</ele>
        <time>2015-07-11T14:47:09Z</time>
      </trkpt>
      <trkpt lat="46.628338498994708" lon="12.357767578214407">
        <ele>2224.6300000000001</ele>
        <time>2015-07-11T14:47:42Z</time>
      </trkpt>
      <trkpt lat="46.62833321839571" lon="12.357768164947629">
        <ele>2224.6300000000001</ele>
        <time>2015-07-11T14:48:05Z</time>
      </trkpt>
      <trkpt lat="46.628335062414408" lon="12.357751987874508">
        <ele>2225.1100000000001</ele>
        <time>2015-07-11T14:48:26Z</time>
      </trkpt>
      <trkpt lat="46.628318885341287" lon="12.357730446383357">
        <ele>2225.1100000000001</ele>
        <time>2015-07-11T14:48:49Z</time>
      </trkpt>
      <trkpt lat="46.628316035494208" lon="12.357764896005392">
        <ele>2225.1100000000001</ele>
        <time>2015-07-11T14:49:15Z</time>
      </trkpt>
      <trkpt lat="46.62831318564713" lon="12.357768248766661">
        <ele>2225.5900000000001</ele>
        <time>2015-07-11T14:49:35Z</time>
      </trkpt>
      <trkpt lat="46.628329278901219" lon="12.357774283736944">
        <ele>2225.1100000000001</ele>
        <time>2015-07-11T14:49:55Z</time>
      </trkpt>
      <trkpt lat="46.628315700218081" lon="12.357761459425092">
        <ele>2225.1100000000001</ele>
        <time>2015-07-11T14:50:07Z</time>
      </trkpt>
      <trkpt lat="46.62831368856132" lon="12.357744947075844">
        <ele>2225.5900000000001</ele>
        <time>2015-07-11T14:50:25Z</time>
      </trkpt>
      <trkpt lat="46.628296505659819" lon="12.35775257460773">
        <ele>2225.5900000000001</ele>
        <time>2015-07-11T14:50:51Z</time>
      </trkpt>
      <trkpt lat="46.628276305273175" lon="12.357746623456478">
        <ele>2226.0700000000002</ele>
        <time>2015-07-11T14:51:13Z</time>
      </trkpt>
      <trkpt lat="46.628323411568999" lon="12.357745952904224">
        <ele>2226.0700000000002</ele>
        <time>2015-07-11T14:51:35Z</time>
      </trkpt>
      <trkpt lat="46.628338415175676" lon="12.357745952904224">
        <ele>2226.0700000000002</ele>
        <time>2015-07-11T14:51:58Z</time>
      </trkpt>
      <trkpt lat="46.628374038264155" lon="12.357801776379347">
        <ele>2226.0700000000002</ele>
        <time>2015-07-11T14:52:15Z</time>
      </trkpt>
      <trkpt lat="46.628369428217411" lon="12.357815271243453">
        <ele>2225.5900000000001</ele>
        <time>2015-07-11T14:52:44Z</time>
      </trkpt>
      <trkpt lat="46.628362974151969" lon="12.357798926532269">
        <ele>2226.0700000000002</ele>
        <time>2015-07-11T14:53:14Z</time>
      </trkpt>
      <trkpt lat="46.628385186195374" lon="12.357818288728595">
        <ele>2226.0700000000002</ele>
        <time>2015-07-11T14:53:46Z</time>
      </trkpt>
      <trkpt lat="46.628371272236109" lon="12.357799429446459">
        <ele>2226.0700000000002</ele>
        <time>2015-07-11T14:54:19Z</time>
      </trkpt>
      <trkpt lat="46.6283855214715" lon="12.357802949845791">
        <ele>2226.0700000000002</ele>
        <time>2015-07-11T14:54:45Z</time>
      </trkpt>
      <trkpt lat="46.628354927524924" lon="12.357825161889195">
        <ele>2226.5500000000002</ele>
        <time>2015-07-11T14:55:19Z</time>
      </trkpt>
      <trkpt lat="46.628354173153639" lon="12.357833962887526">
        <ele>2226.5500000000002</ele>
        <time>2015-07-11T14:55:45Z</time>
      </trkpt>
      <trkpt lat="46.628358028829098" lon="12.357830107212067">
        <ele>2227.0300000000002</ele>
        <time>2015-07-11T14:56:14Z</time>
      </trkpt>
      <trkpt lat="46.628357525914907" lon="12.357801860198379">
        <ele>2227.0300000000002</ele>
        <time>2015-07-11T14:56:38Z</time>
      </trkpt>
      <trkpt lat="46.628360794857144" lon="12.357806218788028">
        <ele>2227.0300000000002</ele>
        <time>2015-07-11T14:57:08Z</time>
      </trkpt>
      <trkpt lat="46.628371104598045" lon="12.357827425003052">
        <ele>2227.5100000000002</ele>
        <time>2015-07-11T14:57:40Z</time>
      </trkpt>
      <trkpt lat="46.628368757665157" lon="12.357822814956307">
        <ele>2227.5100000000002</ele>
        <time>2015-07-11T14:58:02Z</time>
      </trkpt>
      <trkpt lat="46.628354256972671" lon="12.357824575155973">
        <ele>2227.5100000000002</ele>
        <time>2015-07-11T14:58:39Z</time>
      </trkpt>
      <trkpt lat="46.6283596213907" lon="12.357800519093871">
        <ele>2227.5100000000002</ele>
        <time>2015-07-11T14:59:02Z</time>
      </trkpt>
      <trkpt lat="46.628376552835107" lon="12.357819210737944">
        <ele>2227.9899999999998</ele>
        <time>2015-07-11T14:59:28Z</time>
      </trkpt>
      <trkpt lat="46.628377726301551" lon="12.357799680903554">
        <ele>2227.9899999999998</ele>
        <time>2015-07-11T14:59:58Z</time>
      </trkpt>
      <trkpt lat="46.628368590027094" lon="12.357806721702218">
        <ele>2227.9899999999998</ele>
        <time>2015-07-11T15:00:31Z</time>
      </trkpt>
      <trkpt lat="46.628387030214071" lon="12.357804458588362">
        <ele>2228.4699999999998</ele>
        <time>2015-07-11T15:01:00Z</time>
      </trkpt>
      <trkpt lat="46.628379989415407" lon="12.357810409739614">
        <ele>2228.4699999999998</ele>
        <time>2015-07-11T15:01:31Z</time>
      </trkpt>
      <trkpt lat="46.628379737958312" lon="12.357819965109229">
        <ele>2228.4699999999998</ele>
        <time>2015-07-11T15:01:57Z</time>
      </trkpt>
      <trkpt lat="46.628369344398379" lon="12.35780437476933">
        <ele>2228.4699999999998</ele>
        <time>2015-07-11T15:02:28Z</time>
      </trkpt>
      <trkpt lat="46.628384850919247" lon="12.3577921371907">
        <ele>2228.4699999999998</ele>
        <time>2015-07-11T15:02:59Z</time>
      </trkpt>
      <trkpt lat="46.62838158197701" lon="12.357802949845791">
        <ele>2228.4699999999998</ele>
        <time>2015-07-11T15:03:25Z</time>
      </trkpt>
      <trkpt lat="46.628374960273504" lon="12.357806386426091">
        <ele>2228.4699999999998</ele>
        <time>2015-07-11T15:03:54Z</time>
      </trkpt>
      <trkpt lat="46.628374960273504" lon="12.357803368940949">
        <ele>2228.9499999999998</ele>
        <time>2015-07-11T15:04:28Z</time>
      </trkpt>
      <trkpt lat="46.628375463187695" lon="12.357796998694539">
        <ele>2228.9499999999998</ele>
        <time>2015-07-11T15:05:03Z</time>
      </trkpt>
      <trkpt lat="46.628362722694874" lon="12.357815774157643">
        <ele>2228.9499999999998</ele>
        <time>2015-07-11T15:05:37Z</time>
      </trkpt>
      <trkpt lat="46.628381917253137" lon="12.357805045321584">
        <ele>2228.9499999999998</ele>
        <time>2015-07-11T15:06:14Z</time>
      </trkpt>
      <trkpt lat="46.62837621755898" lon="12.357803033664823">
        <ele>2230.4000000000001</ele>
        <time>2015-07-11T15:06:45Z</time>
      </trkpt>
      <trkpt lat="46.628372445702553" lon="12.357802195474505">
        <ele>2229.4299999999998</ele>
        <time>2015-07-11T15:07:14Z</time>
      </trkpt>
      <trkpt lat="46.628374792635441" lon="12.357799345627427">
        <ele>2230.4000000000001</ele>
        <time>2015-07-11T15:07:34Z</time>
      </trkpt>
      <trkpt lat="46.628380911424756" lon="12.35779607668519">
        <ele>2230.4000000000001</ele>
        <time>2015-07-11T15:07:45Z</time>
      </trkpt>
      <trkpt lat="46.628370517864823" lon="12.357746288180351">
        <ele>2230.8800000000001</ele>
        <time>2015-07-11T15:07:57Z</time>
      </trkpt>
      <trkpt lat="46.628394406288862" lon="12.357822395861149">
        <ele>2230.8800000000001</ele>
        <time>2015-07-11T15:08:08Z</time>
      </trkpt>
      <trkpt lat="46.628387784585357" lon="12.357835974544287">
        <ele>2231.3600000000001</ele>
        <time>2015-07-11T15:08:20Z</time>
      </trkpt>
      <trkpt lat="46.628325171768665" lon="12.357847960665822">
        <ele>2230.4000000000001</ele>
        <time>2015-07-11T15:08:33Z</time>
      </trkpt>
      <trkpt lat="46.628308240324259" lon="12.35784980468452">
        <ele>2230.4000000000001</ele>
        <time>2015-07-11T15:08:41Z</time>
      </trkpt>
      <trkpt lat="46.628292985260487" lon="12.357912417501211">
        <ele>2229.4299999999998</ele>
        <time>2015-07-11T15:08:47Z</time>
      </trkpt>
      <trkpt lat="46.628261553123593" lon="12.357894480228424">
        <ele>2228.9499999999998</ele>
        <time>2015-07-11T15:08:54Z</time>
      </trkpt>
      <trkpt lat="46.628239508718252" lon="12.357879811897874">
        <ele>2228.9499999999998</ele>
        <time>2015-07-11T15:08:58Z</time>
      </trkpt>
      <trkpt lat="46.628130041062832" lon="12.357831532135606">
        <ele>2228.4699999999998</ele>
        <time>2015-07-11T15:09:09Z</time>
      </trkpt>
      <trkpt lat="46.628069775179029" lon="12.357817282900214">
        <ele>2228.9499999999998</ele>
        <time>2015-07-11T15:09:14Z</time>
      </trkpt>
      <trkpt lat="46.628058543428779" lon="12.357816528528929">
        <ele>2228.9499999999998</ele>
        <time>2015-07-11T15:09:15Z</time>
      </trkpt>
      <trkpt lat="46.628048485144973" lon="12.357817115262151">
        <ele>2228.4699999999998</ele>
        <time>2015-07-11T15:09:16Z</time>
      </trkpt>
      <trkpt lat="46.62795108743012" lon="12.357836896553636">
        <ele>2229.4299999999998</ele>
        <time>2015-07-11T15:09:25Z</time>
      </trkpt>
      <trkpt lat="46.627817060798407" lon="12.357803620398045">
        <ele>2228.9499999999998</ele>
        <time>2015-07-11T15:09:37Z</time>
      </trkpt>
      <trkpt lat="46.627699630334973" lon="12.357740756124258">
        <ele>2228.9499999999998</ele>
        <time>2015-07-11T15:09:48Z</time>
      </trkpt>
      <trkpt lat="46.6275739017874" lon="12.357654254883528">
        <ele>2228.9499999999998</ele>
        <time>2015-07-11T15:10:01Z</time>
      </trkpt>
      <trkpt lat="46.62740676663816" lon="12.357630115002394">
        <ele>2226.0700000000002</ele>
        <time>2015-07-11T15:10:15Z</time>
      </trkpt>
      <trkpt lat="46.627386314794421" lon="12.357611758634448">
        <ele>2225.5900000000001</ele>
        <time>2015-07-11T15:10:17Z</time>
      </trkpt>
      <trkpt lat="46.627322528511286" lon="12.357563395053148">
        <ele>2224.6300000000001</ele>
        <time>2015-07-11T15:10:26Z</time>
      </trkpt>
      <trkpt lat="46.627312134951353" lon="12.357575800269842">
        <ele>2224.6300000000001</ele>
        <time>2015-07-11T15:10:27Z</time>
      </trkpt>
      <trkpt lat="46.627303836867213" lon="12.357591977342963">
        <ele>2224.1500000000001</ele>
        <time>2015-07-11T15:10:28Z</time>
      </trkpt>
      <trkpt lat="46.627266956493258" lon="12.35766070894897">
        <ele>2224.6300000000001</ele>
        <time>2015-07-11T15:10:33Z</time>
      </trkpt>
      <trkpt lat="46.627195877954364" lon="12.357692727819085">
        <ele>2223.1900000000001</ele>
        <time>2015-07-11T15:10:40Z</time>
      </trkpt>
      <trkpt lat="46.627190848812461" lon="12.357706977054477">
        <ele>2223.1900000000001</ele>
        <time>2015-07-11T15:10:41Z</time>
      </trkpt>
      <trkpt lat="46.627184897661209" lon="12.357721393927932">
        <ele>2222.71</ele>
        <time>2015-07-11T15:10:42Z</time>
      </trkpt>
      <trkpt lat="46.627168301492929" lon="12.357740337029099">
        <ele>2221.7399999999998</ele>
        <time>2015-07-11T15:10:44Z</time>
      </trkpt>
      <trkpt lat="46.627158662304282" lon="12.357750730589032">
        <ele>2221.7399999999998</ele>
        <time>2015-07-11T15:10:45Z</time>
      </trkpt>
      <trkpt lat="46.62714583799243" lon="12.357757603749633">
        <ele>2221.7399999999998</ele>
        <time>2015-07-11T15:10:46Z</time>
      </trkpt>
      <trkpt lat="46.627132259309292" lon="12.357759196311235">
        <ele>2222.71</ele>
        <time>2015-07-11T15:10:47Z</time>
      </trkpt>
      <trkpt lat="46.62712094374001" lon="12.357759699225426">
        <ele>2221.7399999999998</ele>
        <time>2015-07-11T15:10:48Z</time>
      </trkpt>
      <trkpt lat="46.627106359228492" lon="12.357760202139616">
        <ele>2221.2600000000002</ele>
        <time>2015-07-11T15:10:49Z</time>
      </trkpt>
      <trkpt lat="46.627092445269227" lon="12.357759531587362">
        <ele>2220.7800000000002</ele>
        <time>2015-07-11T15:10:50Z</time>
      </trkpt>
      <trkpt lat="46.627037208527327" lon="12.357769254595041">
        <ele>2219.3400000000001</ele>
        <time>2015-07-11T15:10:55Z</time>
      </trkpt>
      <trkpt lat="46.626907372847199" lon="12.357752742245793">
        <ele>2217.9000000000001</ele>
        <time>2015-07-11T15:11:07Z</time>
      </trkpt>
      <trkpt lat="46.626907959580421" lon="12.357773277908564">
        <ele>2218.3800000000001</ele>
        <time>2015-07-11T15:11:09Z</time>
      </trkpt>
      <trkpt lat="46.626924891024828" lon="12.357801357284188">
        <ele>2217.9000000000001</ele>
        <time>2015-07-11T15:11:19Z</time>
      </trkpt>
      <trkpt lat="46.626915335655212" lon="12.357817282900214">
        <ele>2217.9000000000001</ele>
        <time>2015-07-11T15:11:32Z</time>
      </trkpt>
      <trkpt lat="46.626795055344701" lon="12.357850894331932">
        <ele>2215.5</ele>
        <time>2015-07-11T15:11:42Z</time>
      </trkpt>
      <trkpt lat="46.62675004452467" lon="12.35784687101841">
        <ele>2214.5300000000002</ele>
        <time>2015-07-11T15:11:46Z</time>
      </trkpt>
      <trkpt lat="46.626591710373759" lon="12.357908813282847">
        <ele>2211.6500000000001</ele>
        <time>2015-07-11T15:11:59Z</time>
      </trkpt>
      <trkpt lat="46.626449469476938" lon="12.357958015054464">
        <ele>2209.25</ele>
        <time>2015-07-11T15:12:11Z</time>
      </trkpt>
      <trkpt lat="46.626293733716011" lon="12.357957176864147">
        <ele>2207.3200000000002</ele>
        <time>2015-07-11T15:12:23Z</time>
      </trkpt>
      <trkpt lat="46.626263223588467" lon="12.357943262904882">
        <ele>2206.8400000000001</ele>
        <time>2015-07-11T15:12:26Z</time>
      </trkpt>
      <trkpt lat="46.626227600499988" lon="12.357984250411391">
        <ele>2205.4000000000001</ele>
        <time>2015-07-11T15:12:31Z</time>
      </trkpt>
      <trkpt lat="46.62610799074173" lon="12.35793923959136">
        <ele>2203.96</ele>
        <time>2015-07-11T15:12:40Z</time>
      </trkpt>
      <trkpt lat="46.626053843647242" lon="12.357939491048455">
        <ele>2203</ele>
        <time>2015-07-11T15:12:45Z</time>
      </trkpt>
      <trkpt lat="46.626028446480632" lon="12.357947705313563">
        <ele>2203</ele>
        <time>2015-07-11T15:12:47Z</time>
      </trkpt>
      <trkpt lat="46.625928282737732" lon="12.357999756932259">
        <ele>2200.5900000000001</ele>
        <time>2015-07-11T15:12:59Z</time>
      </trkpt>
      <trkpt lat="46.625864077359438" lon="12.358062705025077">
        <ele>2197.71</ele>
        <time>2015-07-11T15:13:09Z</time>
      </trkpt>
      <trkpt lat="46.625850331038237" lon="12.358069494366646">
        <ele>2197.71</ele>
        <time>2015-07-11T15:13:10Z</time>
      </trkpt>
      <trkpt lat="46.625724853947759" lon="12.358101513236761">
        <ele>2196.75</ele>
        <time>2015-07-11T15:13:22Z</time>
      </trkpt>
      <trkpt lat="46.625713873654604" lon="12.358122551813722">
        <ele>2196.27</ele>
        <time>2015-07-11T15:13:25Z</time>
      </trkpt>
      <trkpt lat="46.625613290816545" lon="12.358215171843767">
        <ele>2192.9000000000001</ele>
        <time>2015-07-11T15:13:38Z</time>
      </trkpt>
      <trkpt lat="46.625563837587833" lon="12.358243418857455">
        <ele>2191.46</ele>
        <time>2015-07-11T15:13:44Z</time>
      </trkpt>
      <trkpt lat="46.625498877838254" lon="12.358257081359625">
        <ele>2189.54</ele>
        <time>2015-07-11T15:13:50Z</time>
      </trkpt>
      <trkpt lat="46.625410784035921" lon="12.358255153521895">
        <ele>2187.6199999999999</ele>
        <time>2015-07-11T15:13:58Z</time>
      </trkpt>
      <trkpt lat="46.625387398526073" lon="12.358303936198354">
        <ele>2186.6599999999999</ele>
        <time>2015-07-11T15:14:08Z</time>
      </trkpt>
      <trkpt lat="46.625385638326406" lon="12.358316341415048">
        <ele>2186.6599999999999</ele>
        <time>2015-07-11T15:14:14Z</time>
      </trkpt>
      <trkpt lat="46.625320594757795" lon="12.358331764116883">
        <ele>2186.1799999999998</ele>
        <time>2015-07-11T15:14:19Z</time>
      </trkpt>
      <trkpt lat="46.625289581716061" lon="12.358364034444094">
        <ele>2186.6599999999999</ele>
        <time>2015-07-11T15:14:22Z</time>
      </trkpt>
      <trkpt lat="46.625288659706712" lon="12.358413739129901">
        <ele>2186.6599999999999</ele>
        <time>2015-07-11T15:14:30Z</time>
      </trkpt>
      <trkpt lat="46.625284720212221" lon="12.358521027490497">
        <ele>2186.1799999999998</ele>
        <time>2015-07-11T15:14:40Z</time>
      </trkpt>
      <trkpt lat="46.625349260866642" lon="12.358679110184312">
        <ele>2186.1799999999998</ele>
        <time>2015-07-11T15:14:52Z</time>
      </trkpt>
      <trkpt lat="46.625385135412216" lon="12.358791343867779">
        <ele>2188.0999999999999</ele>
        <time>2015-07-11T15:15:03Z</time>
      </trkpt>
      <trkpt lat="46.625431152060628" lon="12.358895698562264">
        <ele>2190.5</ele>
        <time>2015-07-11T15:15:15Z</time>
      </trkpt>
      <trkpt lat="46.62543710321188" lon="12.3590147215873">
        <ele>2192.4200000000001</ele>
        <time>2015-07-11T15:15:25Z</time>
      </trkpt>
      <trkpt lat="46.625419082120061" lon="12.359213875606656">
        <ele>2190.98</ele>
        <time>2015-07-11T15:15:37Z</time>
      </trkpt>
      <trkpt lat="46.625374490395188" lon="12.359388219192624">
        <ele>2191.46</ele>
        <time>2015-07-11T15:15:49Z</time>
      </trkpt>
      <trkpt lat="46.625299137085676" lon="12.359541105106473">
        <ele>2191.9400000000001</ele>
        <time>2015-07-11T15:16:01Z</time>
      </trkpt>
      <trkpt lat="46.625244151800871" lon="12.359671778976917">
        <ele>2193.3899999999999</ele>
        <time>2015-07-11T15:16:12Z</time>
      </trkpt>
      <trkpt lat="46.625187071040273" lon="12.359752999618649">
        <ele>2194.8299999999999</ele>
        <time>2015-07-11T15:16:25Z</time>
      </trkpt>
      <trkpt lat="46.625165613368154" lon="12.35978870652616">
        <ele>2195.79</ele>
        <time>2015-07-11T15:16:29Z</time>
      </trkpt>
      <trkpt lat="46.625102162361145" lon="12.359849559143186">
        <ele>2197.71</ele>
        <time>2015-07-11T15:16:43Z</time>
      </trkpt>
      <trkpt lat="46.625029323622584" lon="12.359912088140845">
        <ele>2199.6300000000001</ele>
        <time>2015-07-11T15:16:55Z</time>
      </trkpt>
      <trkpt lat="46.624979954212904" lon="12.359985513612628">
        <ele>2202.04</ele>
        <time>2015-07-11T15:17:08Z</time>
      </trkpt>
      <trkpt lat="46.624940391629934" lon="12.360075870528817">
        <ele>2203.48</ele>
        <time>2015-07-11T15:17:19Z</time>
      </trkpt>
      <trkpt lat="46.624882221221924" lon="12.360174022614956">
        <ele>2206.3600000000001</ele>
        <time>2015-07-11T15:17:32Z</time>
      </trkpt>
      <trkpt lat="46.624832432717085" lon="12.36025775782764">
        <ele>2208.29</ele>
        <time>2015-07-11T15:17:43Z</time>
      </trkpt>
      <trkpt lat="46.624752972275019" lon="12.360328584909439">
        <ele>2209.73</ele>
        <time>2015-07-11T15:17:56Z</time>
      </trkpt>
      <trkpt lat="46.624683570116758" lon="12.360366974025965">
        <ele>2211.6500000000001</ele>
        <time>2015-07-11T15:18:04Z</time>
      </trkpt>
      <trkpt lat="46.624657167121768" lon="12.360380720347166">
        <ele>2210.21</ele>
        <time>2015-07-11T15:18:07Z</time>
      </trkpt>
      <trkpt lat="46.624620957300067" lon="12.360424809157848">
        <ele>2211.6500000000001</ele>
        <time>2015-07-11T15:18:13Z</time>
      </trkpt>
      <trkpt lat="46.624536048620939" lon="12.360570235177875">
        <ele>2211.1700000000001</ele>
        <time>2015-07-11T15:18:26Z</time>
      </trkpt>
      <trkpt lat="46.624469915404916" lon="12.360621197149158">
        <ele>2212.6100000000001</ele>
        <time>2015-07-11T15:18:37Z</time>
      </trkpt>
      <trkpt lat="46.624416187405586" lon="12.360664112493396">
        <ele>2214.5300000000002</ele>
        <time>2015-07-11T15:18:49Z</time>
      </trkpt>
      <trkpt lat="46.624361956492066" lon="12.360734269022942">
        <ele>2215.98</ele>
        <time>2015-07-11T15:19:02Z</time>
      </trkpt>
      <trkpt lat="46.624302947893739" lon="12.360827978700399">
        <ele>2217.9000000000001</ele>
        <time>2015-07-11T15:19:15Z</time>
      </trkpt>
      <trkpt lat="46.624249052256346" lon="12.360898135229945">
        <ele>2218.8600000000001</ele>
        <time>2015-07-11T15:19:27Z</time>
      </trkpt>
      <trkpt lat="46.624243436381221" lon="12.360918587073684">
        <ele>2218.8600000000001</ele>
        <time>2015-07-11T15:19:37Z</time>
      </trkpt>
      <trkpt lat="46.624206891283393" lon="12.36094088293612">
        <ele>2220.3000000000002</ele>
        <time>2015-07-11T15:19:46Z</time>
      </trkpt>
      <trkpt lat="46.624165819957852" lon="12.361028054729104">
        <ele>2221.2600000000002</ele>
        <time>2015-07-11T15:19:57Z</time>
      </trkpt>
      <trkpt lat="46.624101949855685" lon="12.361126290634274">
        <ele>2222.71</ele>
        <time>2015-07-11T15:20:09Z</time>
      </trkpt>
      <trkpt lat="46.624056100845337" lon="12.361233327537775">
        <ele>2224.6300000000001</ele>
        <time>2015-07-11T15:20:20Z</time>
      </trkpt>
      <trkpt lat="46.62400689907372" lon="12.361342627555132">
        <ele>2226.0700000000002</ele>
        <time>2015-07-11T15:20:33Z</time>
      </trkpt>
      <trkpt lat="46.623956942930818" lon="12.361418986693025">
        <ele>2227.0300000000002</ele>
        <time>2015-07-11T15:20:43Z</time>
      </trkpt>
      <trkpt lat="46.623915787786245" lon="12.361523257568479">
        <ele>2228.9499999999998</ele>
        <time>2015-07-11T15:20:54Z</time>
      </trkpt>
      <trkpt lat="46.623892821371555" lon="12.361604310572147">
        <ele>2229.4299999999998</ele>
        <time>2015-07-11T15:21:08Z</time>
      </trkpt>
      <trkpt lat="46.623865244910121" lon="12.361726434901357">
        <ele>2230.4000000000001</ele>
        <time>2015-07-11T15:21:19Z</time>
      </trkpt>
      <trkpt lat="46.623825011774898" lon="12.361764656379819">
        <ele>2231.3600000000001</ele>
        <time>2015-07-11T15:21:32Z</time>
      </trkpt>
      <trkpt lat="46.623804895207286" lon="12.361806984990835">
        <ele>2230.8800000000001</ele>
        <time>2015-07-11T15:21:50Z</time>
      </trkpt>
      <trkpt lat="46.623799949884415" lon="12.361836908385158">
        <ele>2231.8400000000001</ele>
        <time>2015-07-11T15:22:02Z</time>
      </trkpt>
      <trkpt lat="46.62379777058959" lon="12.36181796528399">
        <ele>2232.3200000000002</ele>
        <time>2015-07-11T15:22:16Z</time>
      </trkpt>
      <trkpt lat="46.623764578253031" lon="12.361883679404855">
        <ele>2233.2800000000002</ele>
        <time>2015-07-11T15:22:28Z</time>
      </trkpt>
      <trkpt lat="46.623712945729494" lon="12.361936820670962">
        <ele>2235.6799999999998</ele>
        <time>2015-07-11T15:22:38Z</time>
      </trkpt>
      <trkpt lat="46.623670030385256" lon="12.362031787633896">
        <ele>2238.0900000000001</ele>
        <time>2015-07-11T15:22:48Z</time>
      </trkpt>
      <trkpt lat="46.6236228402704" lon="12.36212776042521">
        <ele>2239.5300000000002</ele>
        <time>2015-07-11T15:22:58Z</time>
      </trkpt>
      <trkpt lat="46.623585959896445" lon="12.362221218645573">
        <ele>2240.9699999999998</ele>
        <time>2015-07-11T15:23:09Z</time>
      </trkpt>
      <trkpt lat="46.623548492789268" lon="12.362311407923698">
        <ele>2242.8899999999999</ele>
        <time>2015-07-11T15:23:21Z</time>
      </trkpt>
      <trkpt lat="46.623500548303127" lon="12.362404530867934">
        <ele>2244.8200000000002</ele>
        <time>2015-07-11T15:23:33Z</time>
      </trkpt>
      <trkpt lat="46.623486550524831" lon="12.362491451203823">
        <ele>2246.7399999999998</ele>
        <time>2015-07-11T15:23:45Z</time>
      </trkpt>
      <trkpt lat="46.623463332653046" lon="12.362608294934034">
        <ele>2248.1799999999998</ele>
        <time>2015-07-11T15:23:56Z</time>
      </trkpt>
      <trkpt lat="46.623418992385268" lon="12.362692449241877">
        <ele>2249.6199999999999</ele>
        <time>2015-07-11T15:24:08Z</time>
      </trkpt>
      <trkpt lat="46.623404575511813" lon="12.36272388137877">
        <ele>2250.5799999999999</ele>
        <time>2015-07-11T15:24:12Z</time>
      </trkpt>
      <trkpt lat="46.623385548591614" lon="12.362790685147047">
        <ele>2250.5799999999999</ele>
        <time>2015-07-11T15:24:18Z</time>
      </trkpt>
      <trkpt lat="46.623357804492116" lon="12.362888837233186">
        <ele>2251.54</ele>
        <time>2015-07-11T15:24:29Z</time>
      </trkpt>
      <trkpt lat="46.623299801722169" lon="12.362971398979425">
        <ele>2253.4699999999998</ele>
        <time>2015-07-11T15:24:41Z</time>
      </trkpt>
      <trkpt lat="46.623249845579267" lon="12.363044656813145">
        <ele>2255.3899999999999</ele>
        <time>2015-07-11T15:24:54Z</time>
      </trkpt>
      <trkpt lat="46.623205924406648" lon="12.363121854141355">
        <ele>2256.3499999999999</ele>
        <time>2015-07-11T15:25:06Z</time>
      </trkpt>
      <trkpt lat="46.623156554996967" lon="12.363181114196777">
        <ele>2257.79</ele>
        <time>2015-07-11T15:25:18Z</time>
      </trkpt>
      <trkpt lat="46.623121351003647" lon="12.363240541890264">
        <ele>2258.75</ele>
        <time>2015-07-11T15:25:29Z</time>
      </trkpt>
      <trkpt lat="46.623071311041713" lon="12.363330395892262">
        <ele>2259.7199999999998</ele>
        <time>2015-07-11T15:25:41Z</time>
      </trkpt>
      <trkpt lat="46.623037699609995" lon="12.363443467766047">
        <ele>2259.7199999999998</ele>
        <time>2015-07-11T15:25:52Z</time>
      </trkpt>
      <trkpt lat="46.62302378565073" lon="12.363499375060201">
        <ele>2263.0799999999999</ele>
        <time>2015-07-11T15:25:59Z</time>
      </trkpt>
      <trkpt lat="46.622979110106826" lon="12.363559305667877">
        <ele>2265</ele>
        <time>2015-07-11T15:26:10Z</time>
      </trkpt>
      <trkpt lat="46.622926723212004" lon="12.363593420013785">
        <ele>2266.9299999999998</ele>
        <time>2015-07-11T15:26:21Z</time>
      </trkpt>
      <trkpt lat="46.62288255058229" lon="12.363636251538992">
        <ele>2269.3299999999999</ele>
        <time>2015-07-11T15:26:32Z</time>
      </trkpt>
      <trkpt lat="46.622865535318851" lon="12.363698948174715">
        <ele>2270.77</ele>
        <time>2015-07-11T15:26:43Z</time>
      </trkpt>
      <trkpt lat="46.622814908623695" lon="12.363796262070537">
        <ele>2272.21</ele>
        <time>2015-07-11T15:26:54Z</time>
      </trkpt>
      <trkpt lat="46.622801162302494" lon="12.363835405558348">
        <ele>2272.6900000000001</ele>
        <time>2015-07-11T15:26:58Z</time>
      </trkpt>
      <trkpt lat="46.622738465666771" lon="12.36396498978138">
        <ele>2273.6599999999999</ele>
        <time>2015-07-11T15:27:11Z</time>
      </trkpt>
      <trkpt lat="46.62270275875926" lon="12.364075798541307">
        <ele>2275.5799999999999</ele>
        <time>2015-07-11T15:27:25Z</time>
      </trkpt>
      <trkpt lat="46.622655149549246" lon="12.364176465198398">
        <ele>2277.98</ele>
        <time>2015-07-11T15:27:38Z</time>
      </trkpt>
      <trkpt lat="46.622603265568614" lon="12.36423715017736">
        <ele>2279.9000000000001</ele>
        <time>2015-07-11T15:27:51Z</time>
      </trkpt>
      <trkpt lat="46.622551130130887" lon="12.364293560385704">
        <ele>2281.8299999999999</ele>
        <time>2015-07-11T15:28:04Z</time>
      </trkpt>
      <trkpt lat="46.622527157887816" lon="12.36432608217001">
        <ele>2283.75</ele>
        <time>2015-07-11T15:28:16Z</time>
      </trkpt>
      <trkpt lat="46.622485835105181" lon="12.364361202344298">
        <ele>2285.1900000000001</ele>
        <time>2015-07-11T15:28:26Z</time>
      </trkpt>
      <trkpt lat="46.622449792921543" lon="12.364396154880524">
        <ele>2286.6300000000001</ele>
        <time>2015-07-11T15:28:39Z</time>
      </trkpt>
      <trkpt lat="46.622408051043749" lon="12.364464467391372">
        <ele>2289.04</ele>
        <time>2015-07-11T15:28:52Z</time>
      </trkpt>
      <trkpt lat="46.622354071587324" lon="12.364550214260817">
        <ele>2290.96</ele>
        <time>2015-07-11T15:29:04Z</time>
      </trkpt>
      <trkpt lat="46.622320292517543" lon="12.364611905068159">
        <ele>2292.8800000000001</ele>
        <time>2015-07-11T15:29:18Z</time>
      </trkpt>
      <trkpt lat="46.622296907007694" lon="12.364684576168656">
        <ele>2294.3200000000002</ele>
        <time>2015-07-11T15:29:32Z</time>
      </trkpt>
      <trkpt lat="46.622293973341584" lon="12.36475951038301">
        <ele>2295.77</ele>
        <time>2015-07-11T15:29:42Z</time>
      </trkpt>
      <trkpt lat="46.622308641672134" lon="12.364847604185343">
        <ele>2297.6900000000001</ele>
        <time>2015-07-11T15:29:54Z</time>
      </trkpt>
      <trkpt lat="46.622308138757944" lon="12.364912144839764">
        <ele>2299.1300000000001</ele>
        <time>2015-07-11T15:30:05Z</time>
      </trkpt>
      <trkpt lat="46.62230746820569" lon="12.364980205893517">
        <ele>2300.5700000000002</ele>
        <time>2015-07-11T15:30:17Z</time>
      </trkpt>
      <trkpt lat="46.622318029403687" lon="12.365070646628737">
        <ele>2303.46</ele>
        <time>2015-07-11T15:30:32Z</time>
      </trkpt>
      <trkpt lat="46.622296236455441" lon="12.365136528387666">
        <ele>2304.4200000000001</ele>
        <time>2015-07-11T15:30:43Z</time>
      </trkpt>
      <trkpt lat="46.622266732156277" lon="12.365171816200018">
        <ele>2305.3800000000001</ele>
        <time>2015-07-11T15:30:56Z</time>
      </trkpt>
      <trkpt lat="46.622280059382319" lon="12.365205595269799">
        <ele>2305.8600000000001</ele>
        <time>2015-07-11T15:31:10Z</time>
      </trkpt>
      <trkpt lat="46.622260026633739" lon="12.365241469815373">
        <ele>2306.8200000000002</ele>
        <time>2015-07-11T15:31:20Z</time>
      </trkpt>
      <trkpt lat="46.622293721884489" lon="12.365245744585991">
        <ele>2307.3000000000002</ele>
        <time>2015-07-11T15:31:33Z</time>
      </trkpt>
      <trkpt lat="46.622270001098514" lon="12.365313721820712">
        <ele>2309.2199999999998</ele>
        <time>2015-07-11T15:31:44Z</time>
      </trkpt>
      <trkpt lat="46.622231192886829" lon="12.365366360172629">
        <ele>2310.1900000000001</ele>
        <time>2015-07-11T15:31:54Z</time>
      </trkpt>
      <trkpt lat="46.622254829853773" lon="12.365450514480472">
        <ele>2311.1500000000001</ele>
        <time>2015-07-11T15:32:03Z</time>
      </trkpt>
      <trkpt lat="46.622267654165626" lon="12.365509774535894">
        <ele>2312.5900000000001</ele>
        <time>2015-07-11T15:32:11Z</time>
      </trkpt>
      <trkpt lat="46.622260110452771" lon="12.365600047633052">
        <ele>2314.0300000000002</ele>
        <time>2015-07-11T15:32:19Z</time>
      </trkpt>
      <trkpt lat="46.62225223146379" lon="12.365687722340226">
        <ele>2315.4699999999998</ele>
        <time>2015-07-11T15:32:28Z</time>
      </trkpt>
      <trkpt lat="46.622233204543591" lon="12.36579199321568">
        <ele>2316.9099999999999</ele>
        <time>2015-07-11T15:32:40Z</time>
      </trkpt>
      <trkpt lat="46.622216021642089" lon="12.365901963785291">
        <ele>2317.8800000000001</ele>
        <time>2015-07-11T15:32:52Z</time>
      </trkpt>
      <trkpt lat="46.62221803329885" lon="12.365914201363921">
        <ele>2319.3200000000002</ele>
        <time>2015-07-11T15:32:54Z</time>
      </trkpt>
      <trkpt lat="46.622203197330236" lon="12.366000032052398">
        <ele>2321.2399999999998</ele>
        <time>2015-07-11T15:33:04Z</time>
      </trkpt>
      <trkpt lat="46.622173273935914" lon="12.366083180531859">
        <ele>2322.6799999999998</ele>
        <time>2015-07-11T15:33:15Z</time>
      </trkpt>
      <trkpt lat="46.62213739939034" lon="12.366178063675761">
        <ele>2325.0900000000001</ele>
        <time>2015-07-11T15:33:27Z</time>
      </trkpt>
      <trkpt lat="46.622131112962961" lon="12.366200024262071">
        <ele>2324.6100000000001</ele>
        <time>2015-07-11T15:33:42Z</time>
      </trkpt>
      <trkpt lat="46.622107475996017" lon="12.366253919899464">
        <ele>2325.5700000000002</ele>
        <time>2015-07-11T15:33:51Z</time>
      </trkpt>
      <trkpt lat="46.622090628370643" lon="12.366286106407642">
        <ele>2326.0500000000002</ele>
        <time>2015-07-11T15:34:01Z</time>
      </trkpt>
      <trkpt lat="46.622090879827738" lon="12.366284765303135">
        <ele>2326.0500000000002</ele>
        <time>2015-07-11T15:34:17Z</time>
      </trkpt>
      <trkpt lat="46.622049724683166" lon="12.366337403655052">
        <ele>2327.4899999999998</ele>
        <time>2015-07-11T15:34:27Z</time>
      </trkpt>
      <trkpt lat="46.622023405507207" lon="12.366364309564233">
        <ele>2328.4499999999998</ele>
        <time>2015-07-11T15:34:36Z</time>
      </trkpt>
      <trkpt lat="46.621993398293853" lon="12.366423737257719">
        <ele>2329.8899999999999</ele>
        <time>2015-07-11T15:34:49Z</time>
      </trkpt>
      <trkpt lat="46.621959451586008" lon="12.366483500227332">
        <ele>2332.3000000000002</ele>
        <time>2015-07-11T15:34:59Z</time>
      </trkpt>
      <trkpt lat="46.621939335018396" lon="12.366554578766227">
        <ele>2334.2199999999998</ele>
        <time>2015-07-11T15:35:09Z</time>
      </trkpt>
      <trkpt lat="46.621886948123574" lon="12.366620628163218">
        <ele>2336.6199999999999</ele>
        <time>2015-07-11T15:35:22Z</time>
      </trkpt>
      <trkpt lat="46.621860964223742" lon="12.366694556549191">
        <ele>2338.54</ele>
        <time>2015-07-11T15:35:32Z</time>
      </trkpt>
      <trkpt lat="46.621809164062142" lon="12.366703441366553">
        <ele>2339.9899999999998</ele>
        <time>2015-07-11T15:35:42Z</time>
      </trkpt>
      <trkpt lat="46.621759040281177" lon="12.366728084161878">
        <ele>2341.9099999999999</ele>
        <time>2015-07-11T15:35:54Z</time>
      </trkpt>
      <trkpt lat="46.621719058603048" lon="12.366757337003946">
        <ele>2343.8299999999999</ele>
        <time>2015-07-11T15:36:06Z</time>
      </trkpt>
      <trkpt lat="46.621684525161982" lon="12.366814920678735">
        <ele>2345.27</ele>
        <time>2015-07-11T15:36:17Z</time>
      </trkpt>
      <trkpt lat="46.621632138267159" lon="12.366874348372221">
        <ele>2347.6799999999998</ele>
        <time>2015-07-11T15:36:28Z</time>
      </trkpt>
      <trkpt lat="46.621611015871167" lon="12.366939056664705">
        <ele>2348.6399999999999</ele>
        <time>2015-07-11T15:36:39Z</time>
      </trkpt>
      <trkpt lat="46.621563155204058" lon="12.367025725543499">
        <ele>2350.0799999999999</ele>
        <time>2015-07-11T15:36:50Z</time>
      </trkpt>
      <trkpt lat="46.621512696146965" lon="12.367124296724796">
        <ele>2351.52</ele>
        <time>2015-07-11T15:37:02Z</time>
      </trkpt>
      <trkpt lat="46.621470618993044" lon="12.367236949503422">
        <ele>2353.4400000000001</ele>
        <time>2015-07-11T15:37:15Z</time>
      </trkpt>
      <trkpt lat="46.621433068066835" lon="12.367358654737473">
        <ele>2354.4099999999999</ele>
        <time>2015-07-11T15:37:27Z</time>
      </trkpt>
      <trkpt lat="46.621395098045468" lon="12.367454627528787">
        <ele>2355.3699999999999</ele>
        <time>2015-07-11T15:37:38Z</time>
      </trkpt>
      <trkpt lat="46.621346566826105" lon="12.367547834292054">
        <ele>2356.3299999999999</ele>
        <time>2015-07-11T15:37:48Z</time>
      </trkpt>
      <trkpt lat="46.621289234608412" lon="12.367653110995889">
        <ele>2357.77</ele>
        <time>2015-07-11T15:38:00Z</time>
      </trkpt>
      <trkpt lat="46.621278589591384" lon="12.367671970278025">
        <ele>2357.77</ele>
        <time>2015-07-11T15:38:02Z</time>
      </trkpt>
      <trkpt lat="46.621224358677864" lon="12.367734163999557">
        <ele>2359.21</ele>
        <time>2015-07-11T15:38:12Z</time>
      </trkpt>
      <trkpt lat="46.621164092794061" lon="12.367770541459322">
        <ele>2361.1399999999999</ele>
        <time>2015-07-11T15:38:22Z</time>
      </trkpt>
      <trkpt lat="46.621130229905248" lon="12.367836590856314">
        <ele>2363.54</ele>
        <time>2015-07-11T15:38:33Z</time>
      </trkpt>
      <trkpt lat="46.621082033962011" lon="12.367865424603224">
        <ele>2364.98</ele>
        <time>2015-07-11T15:38:43Z</time>
      </trkpt>
      <trkpt lat="46.621052194386721" lon="12.367929797619581">
        <ele>2366.4200000000001</ele>
        <time>2015-07-11T15:38:53Z</time>
      </trkpt>
      <trkpt lat="46.621010452508926" lon="12.367996098473668">
        <ele>2367.8600000000001</ele>
        <time>2015-07-11T15:39:03Z</time>
      </trkpt>
      <trkpt lat="46.620958652347326" lon="12.368039097636938">
        <ele>2368.8299999999999</ele>
        <time>2015-07-11T15:39:13Z</time>
      </trkpt>
      <trkpt lat="46.620911126956344" lon="12.368123084306717">
        <ele>2369.79</ele>
        <time>2015-07-11T15:39:23Z</time>
      </trkpt>
      <trkpt lat="46.620900481939316" lon="12.368144206702709">
        <ele>2369.79</ele>
        <time>2015-07-11T15:39:25Z</time>
      </trkpt>
      <trkpt lat="46.620854716747999" lon="12.368217380717397">
        <ele>2371.23</ele>
        <time>2015-07-11T15:39:36Z</time>
      </trkpt>
      <trkpt lat="46.620815824717283" lon="12.368350652977824">
        <ele>2371.23</ele>
        <time>2015-07-11T15:39:47Z</time>
      </trkpt>
      <trkpt lat="46.620764443650842" lon="12.368431035429239">
        <ele>2372.6700000000001</ele>
        <time>2015-07-11T15:39:58Z</time>
      </trkpt>
      <trkpt lat="46.620711050927639" lon="12.368488786742091">
        <ele>2374.5900000000001</ele>
        <time>2015-07-11T15:40:08Z</time>
      </trkpt>
      <trkpt lat="46.620676266029477" lon="12.368554333224893">
        <ele>2376.04</ele>
        <time>2015-07-11T15:40:20Z</time>
      </trkpt>
      <trkpt lat="46.620668387040496" lon="12.368584340438247">
        <ele>2377</ele>
        <time>2015-07-11T15:40:23Z</time>
      </trkpt>
      <trkpt lat="46.620640140026808" lon="12.368680480867624">
        <ele>2377.48</ele>
        <time>2015-07-11T15:40:34Z</time>
      </trkpt>
      <trkpt lat="46.620600493624806" lon="12.368773268535733">
        <ele>2378.9200000000001</ele>
        <time>2015-07-11T15:40:46Z</time>
      </trkpt>
      <trkpt lat="46.62055179476738" lon="12.368875108659267">
        <ele>2380.3600000000001</ele>
        <time>2015-07-11T15:40:58Z</time>
      </trkpt>
      <trkpt lat="46.620500078424811" lon="12.368975188583136">
        <ele>2382.7600000000002</ele>
        <time>2015-07-11T15:41:08Z</time>
      </trkpt>
      <trkpt lat="46.620460348203778" lon="12.369116591289639">
        <ele>2383.25</ele>
        <time>2015-07-11T15:41:20Z</time>
      </trkpt>
      <trkpt lat="46.620427323505282" lon="12.369219269603491">
        <ele>2384.6900000000001</ele>
        <time>2015-07-11T15:41:30Z</time>
      </trkpt>
      <trkpt lat="46.62038859911263" lon="12.369313566014171">
        <ele>2386.6100000000001</ele>
        <time>2015-07-11T15:41:41Z</time>
      </trkpt>
      <trkpt lat="46.62034610286355" lon="12.369391685351729">
        <ele>2388.5300000000002</ele>
        <time>2015-07-11T15:41:52Z</time>
      </trkpt>
      <trkpt lat="46.620334032922983" lon="12.369512133300304">
        <ele>2389.9699999999998</ele>
        <time>2015-07-11T15:42:05Z</time>
      </trkpt>
      <trkpt lat="46.620304612442851" lon="12.369600478559732">
        <ele>2391.4200000000001</ele>
        <time>2015-07-11T15:42:17Z</time>
      </trkpt>
      <trkpt lat="46.620267732068896" lon="12.36967608332634">
        <ele>2392.8600000000001</ele>
        <time>2015-07-11T15:42:31Z</time>
      </trkpt>
      <trkpt lat="46.620244178920984" lon="12.369761327281594">
        <ele>2395.7399999999998</ele>
        <time>2015-07-11T15:42:45Z</time>
      </trkpt>
      <trkpt lat="46.620225152000785" lon="12.369802733883262">
        <ele>2396.6999999999998</ele>
        <time>2015-07-11T15:42:54Z</time>
      </trkpt>
      <trkpt lat="46.620210651308298" lon="12.369848834350705">
        <ele>2398.1500000000001</ele>
        <time>2015-07-11T15:43:04Z</time>
      </trkpt>
      <trkpt lat="46.62018726579845" lon="12.369902729988098">
        <ele>2400.0700000000002</ele>
        <time>2015-07-11T15:43:15Z</time>
      </trkpt>
      <trkpt lat="46.620176956057549" lon="12.369948830455542">
        <ele>2402.4699999999998</ele>
        <time>2015-07-11T15:43:29Z</time>
      </trkpt>
      <trkpt lat="46.620156252756715" lon="12.370030134916306">
        <ele>2403.9099999999999</ele>
        <time>2015-07-11T15:43:40Z</time>
      </trkpt>
      <trkpt lat="46.620145440101624" lon="12.370130298659205">
        <ele>2405.3600000000001</ele>
        <time>2015-07-11T15:43:53Z</time>
      </trkpt>
      <trkpt lat="46.620121216401458" lon="12.370214704424143">
        <ele>2406.8000000000002</ele>
        <time>2015-07-11T15:44:05Z</time>
      </trkpt>
      <trkpt lat="46.620103195309639" lon="12.37028930336237">
        <ele>2408.7199999999998</ele>
        <time>2015-07-11T15:44:18Z</time>
      </trkpt>
      <trkpt lat="46.620099088177085" lon="12.370311599224806">
        <ele>2409.6799999999998</ele>
        <time>2015-07-11T15:44:31Z</time>
      </trkpt>
      <trkpt lat="46.62008467130363" lon="12.370365494862199">
        <ele>2411.1199999999999</ele>
        <time>2015-07-11T15:44:41Z</time>
      </trkpt>
      <trkpt lat="46.620063884183764" lon="12.370420815423131">
        <ele>2412.5700000000002</ele>
        <time>2015-07-11T15:44:52Z</time>
      </trkpt>
      <trkpt lat="46.620050640776753" lon="12.370480075478554">
        <ele>2413.5300000000002</ele>
        <time>2015-07-11T15:45:02Z</time>
      </trkpt>
      <trkpt lat="46.620036559179425" lon="12.370547717437148">
        <ele>2415.4499999999998</ele>
        <time>2015-07-11T15:45:13Z</time>
      </trkpt>
      <trkpt lat="46.620034128427505" lon="12.370607648044825">
        <ele>2416.8899999999999</ele>
        <time>2015-07-11T15:45:22Z</time>
      </trkpt>
      <trkpt lat="46.620023148134351" lon="12.370663052424788">
        <ele>2418.3299999999999</ele>
        <time>2015-07-11T15:45:31Z</time>
      </trkpt>
      <trkpt lat="46.620048796758056" lon="12.370717786252499">
        <ele>2420.2600000000002</ele>
        <time>2015-07-11T15:45:40Z</time>
      </trkpt>
      <trkpt lat="46.620046701282263" lon="12.370771262794733">
        <ele>2421.2199999999998</ele>
        <time>2015-07-11T15:45:48Z</time>
      </trkpt>
      <trkpt lat="46.620052317157388" lon="12.370835887268186">
        <ele>2422.6599999999999</ele>
        <time>2015-07-11T15:45:57Z</time>
      </trkpt>
      <trkpt lat="46.620057430118322" lon="12.370858518406749">
        <ele>2423.1399999999999</ele>
        <time>2015-07-11T15:46:00Z</time>
      </trkpt>
      <trkpt lat="46.620053322985768" lon="12.370921550318599">
        <ele>2424.5799999999999</ele>
        <time>2015-07-11T15:46:09Z</time>
      </trkpt>
      <trkpt lat="46.620074445381761" lon="12.370980978012085">
        <ele>2426.02</ele>
        <time>2015-07-11T15:46:16Z</time>
      </trkpt>
      <trkpt lat="46.620028680190444" lon="12.370999418199062">
        <ele>2427.9499999999998</ele>
        <time>2015-07-11T15:46:24Z</time>
      </trkpt>
      <trkpt lat="46.619983250275254" lon="12.370964381843805">
        <ele>2428.9099999999999</ele>
        <time>2015-07-11T15:46:34Z</time>
      </trkpt>
      <trkpt lat="46.619934132322669" lon="12.370965303853154">
        <ele>2429.3899999999999</ele>
        <time>2015-07-11T15:46:44Z</time>
      </trkpt>
      <trkpt lat="46.619852157309651" lon="12.370970165356994">
        <ele>2431.3099999999999</ele>
        <time>2015-07-11T15:46:55Z</time>
      </trkpt>
      <trkpt lat="46.619839500635862" lon="12.370989779010415">
        <ele>2431.3099999999999</ele>
        <time>2015-07-11T15:47:03Z</time>
      </trkpt>
      <trkpt lat="46.619808990508318" lon="12.371021881699562">
        <ele>2432.27</ele>
        <time>2015-07-11T15:47:08Z</time>
      </trkpt>
      <trkpt lat="46.619826089590788" lon="12.371108215302229">
        <ele>2434.6799999999998</ele>
        <time>2015-07-11T15:47:17Z</time>
      </trkpt>
      <trkpt lat="46.619844194501638" lon="12.371102850884199">
        <ele>2434.6799999999998</ele>
        <time>2015-07-11T15:47:27Z</time>
      </trkpt>
      <trkpt lat="46.619854420423508" lon="12.371085751801729">
        <ele>2434.1999999999998</ele>
        <time>2015-07-11T15:47:36Z</time>
      </trkpt>
      <trkpt lat="46.619843440130353" lon="12.371070999652147">
        <ele>2433.71</ele>
        <time>2015-07-11T15:47:48Z</time>
      </trkpt>
      <trkpt lat="46.619723411276937" lon="12.371036717668176">
        <ele>2432.75</ele>
        <time>2015-07-11T15:48:00Z</time>
      </trkpt>
      <trkpt lat="46.619686279445887" lon="12.371062953025103">
        <ele>2431.79</ele>
        <time>2015-07-11T15:48:04Z</time>
      </trkpt>
      <trkpt lat="46.619653757661581" lon="12.371058091521263">
        <ele>2431.3099999999999</ele>
        <time>2015-07-11T15:48:15Z</time>
      </trkpt>
      <trkpt lat="46.619633305817842" lon="12.371019283309579">
        <ele>2430.3499999999999</ele>
        <time>2015-07-11T15:48:23Z</time>
      </trkpt>
      <trkpt lat="46.619614949449897" lon="12.371024647727609">
        <ele>2430.3499999999999</ele>
        <time>2015-07-11T15:48:37Z</time>
      </trkpt>
      <trkpt lat="46.619627689942718" lon="12.371024563908577">
        <ele>2430.3499999999999</ele>
        <time>2015-07-11T15:48:52Z</time>
      </trkpt>
      <trkpt lat="46.619629198685288" lon="12.371008135378361">
        <ele>2430.3499999999999</ele>
        <time>2015-07-11T15:49:05Z</time>
      </trkpt>
      <trkpt lat="46.619623582810163" lon="12.370958682149649">
        <ele>2428.9099999999999</ele>
        <time>2015-07-11T15:49:15Z</time>
      </trkpt>
      <trkpt lat="46.619601706042886" lon="12.370937559753656">
        <ele>2428.4299999999998</ele>
        <time>2015-07-11T15:49:24Z</time>
      </trkpt>
      <trkpt lat="46.619593827053905" lon="12.370903277769685">
        <ele>2427.4699999999998</ele>
        <time>2015-07-11T15:49:28Z</time>
      </trkpt>
      <trkpt lat="46.619578571990132" lon="12.370847035199404">
        <ele>2426.9899999999998</ele>
        <time>2015-07-11T15:49:33Z</time>
      </trkpt>
      <trkpt lat="46.619593910872936" lon="12.370642181485891">
        <ele>2426.5</ele>
        <time>2015-07-11T15:49:46Z</time>
      </trkpt>
      <trkpt lat="46.619588043540716" lon="12.370538664981723">
        <ele>2426.02</ele>
        <time>2015-07-11T15:49:57Z</time>
      </trkpt>
      <trkpt lat="46.619509337469935" lon="12.370460713282228">
        <ele>2423.1399999999999</ele>
        <time>2015-07-11T15:50:12Z</time>
      </trkpt>
      <trkpt lat="46.619456615298986" lon="12.370348647236824">
        <ele>2420.2600000000002</ele>
        <time>2015-07-11T15:50:25Z</time>
      </trkpt>
      <trkpt lat="46.619406575337052" lon="12.370223673060536">
        <ele>2417.3699999999999</ele>
        <time>2015-07-11T15:50:38Z</time>
      </trkpt>
      <trkpt lat="46.619367767125368" lon="12.370131136849523">
        <ele>2415.4499999999998</ele>
        <time>2015-07-11T15:50:48Z</time>
      </trkpt>
      <trkpt lat="46.619301298633218" lon="12.369970204308629">
        <ele>2412.0900000000001</ele>
        <time>2015-07-11T15:51:03Z</time>
      </trkpt>
      <trkpt lat="46.61926181986928" lon="12.3699199128896">
        <ele>2410.1599999999999</ele>
        <time>2015-07-11T15:51:12Z</time>
      </trkpt>
      <trkpt lat="46.619220329448581" lon="12.3697904124856">
        <ele>2407.7600000000002</ele>
        <time>2015-07-11T15:51:24Z</time>
      </trkpt>
      <trkpt lat="46.619179341942072" lon="12.369707515463233">
        <ele>2405.3600000000001</ele>
        <time>2015-07-11T15:51:36Z</time>
      </trkpt>
      <trkpt lat="46.619149753823876" lon="12.3697679489851">
        <ele>2403.4299999999998</ele>
        <time>2015-07-11T15:51:48Z</time>
      </trkpt>
      <trkpt lat="46.619147071614861" lon="12.36987741664052">
        <ele>2400.5500000000002</ele>
        <time>2015-07-11T15:52:01Z</time>
      </trkpt>
      <trkpt lat="46.619139527902007" lon="12.369906418025494">
        <ele>2400.0700000000002</ele>
        <time>2015-07-11T15:52:04Z</time>
      </trkpt>
      <trkpt lat="46.619124943390489" lon="12.370119150727987">
        <ele>2396.6999999999998</ele>
        <time>2015-07-11T15:52:18Z</time>
      </trkpt>
      <trkpt lat="46.619089655578136" lon="12.370254602283239">
        <ele>2393.8200000000002</ele>
        <time>2015-07-11T15:52:31Z</time>
      </trkpt>
      <trkpt lat="46.61907029338181" lon="12.370369099080563">
        <ele>2391.9000000000001</ele>
        <time>2015-07-11T15:52:42Z</time>
      </trkpt>
      <trkpt lat="46.619042968377471" lon="12.370569007471204">
        <ele>2389.0100000000002</ele>
        <time>2015-07-11T15:52:55Z</time>
      </trkpt>
      <trkpt lat="46.619033413007855" lon="12.370612509548664">
        <ele>2388.5300000000002</ele>
        <time>2015-07-11T15:52:59Z</time>
      </trkpt>
      <trkpt lat="46.618968620896339" lon="12.370743937790394">
        <ele>2385.6500000000001</ele>
        <time>2015-07-11T15:53:13Z</time>
      </trkpt>
      <trkpt lat="46.618893770501018" lon="12.37084879539907">
        <ele>2383.25</ele>
        <time>2015-07-11T15:53:26Z</time>
      </trkpt>
      <trkpt lat="46.618799809366465" lon="12.370958682149649">
        <ele>2379.8800000000001</ele>
        <time>2015-07-11T15:53:41Z</time>
      </trkpt>
      <trkpt lat="46.61871749907732" lon="12.371024899184704">
        <ele>2377.48</ele>
        <time>2015-07-11T15:53:55Z</time>
      </trkpt>
      <trkpt lat="46.618740800768137" lon="12.370919957756996">
        <ele>2376.04</ele>
        <time>2015-07-11T15:54:04Z</time>
      </trkpt>
      <trkpt lat="46.618760162964463" lon="12.370856674388051">
        <ele>2375.5500000000002</ele>
        <time>2015-07-11T15:54:08Z</time>
      </trkpt>
      <trkpt lat="46.61876535974443" lon="12.370776711031795">
        <ele>2374.5900000000001</ele>
        <time>2015-07-11T15:54:13Z</time>
      </trkpt>
      <trkpt lat="46.618739208206534" lon="12.370522655546665">
        <ele>2373.1500000000001</ele>
        <time>2015-07-11T15:54:29Z</time>
      </trkpt>
      <trkpt lat="46.618701070547104" lon="12.370334649458528">
        <ele>2371.71</ele>
        <time>2015-07-11T15:54:43Z</time>
      </trkpt>
      <trkpt lat="46.61867349408567" lon="12.370225349441171">
        <ele>2370.27</ele>
        <time>2015-07-11T15:54:55Z</time>
      </trkpt>
      <trkpt lat="46.618651198223233" lon="12.370274132117629">
        <ele>2368.8299999999999</ele>
        <time>2015-07-11T15:55:05Z</time>
      </trkpt>
      <trkpt lat="46.618618424981833" lon="12.370362477377057">
        <ele>2366.4200000000001</ele>
        <time>2015-07-11T15:55:17Z</time>
      </trkpt>
      <trkpt lat="46.618565786629915" lon="12.370475716888905">
        <ele>2363.54</ele>
        <time>2015-07-11T15:55:31Z</time>
      </trkpt>
      <trkpt lat="46.618535192683339" lon="12.370531959459186">
        <ele>2362.0999999999999</ele>
        <time>2015-07-11T15:55:38Z</time>
      </trkpt>
      <trkpt lat="46.618451708927751" lon="12.370642768219113">
        <ele>2359.21</ele>
        <time>2015-07-11T15:55:52Z</time>
      </trkpt>
      <trkpt lat="46.618411224335432" lon="12.370661292225122">
        <ele>2357.29</ele>
        <time>2015-07-11T15:55:58Z</time>
      </trkpt>
      <trkpt lat="46.618307875469327" lon="12.370738908648491">
        <ele>2354.4099999999999</ele>
        <time>2015-07-11T15:56:09Z</time>
      </trkpt>
      <trkpt lat="46.618263702839613" lon="12.370775118470192">
        <ele>2352.96</ele>
        <time>2015-07-11T15:56:14Z</time>
      </trkpt>
      <trkpt lat="46.618135627359152" lon="12.370841838419437">
        <ele>2349.5999999999999</ele>
        <time>2015-07-11T15:56:28Z</time>
      </trkpt>
      <trkpt lat="46.618101932108402" lon="12.370850471779704">
        <ele>2348.1599999999999</ele>
        <time>2015-07-11T15:56:33Z</time>
      </trkpt>
      <trkpt lat="46.617989027872682" lon="12.370891710743308">
        <ele>2345.27</ele>
        <time>2015-07-11T15:56:46Z</time>
      </trkpt>
      <trkpt lat="46.617932617664337" lon="12.37090696580708">
        <ele>2343.3499999999999</ele>
        <time>2015-07-11T15:56:53Z</time>
      </trkpt>
      <trkpt lat="46.617836058139801" lon="12.370906630530953">
        <ele>2340.9499999999998</ele>
        <time>2015-07-11T15:57:03Z</time>
      </trkpt>
      <trkpt lat="46.617714101448655" lon="12.370869582518935">
        <ele>2338.54</ele>
        <time>2015-07-11T15:57:14Z</time>
      </trkpt>
      <trkpt lat="46.61769725382328" lon="12.370836557820439">
        <ele>2337.5799999999999</ele>
        <time>2015-07-11T15:57:17Z</time>
      </trkpt>
      <trkpt lat="46.617566663771868" lon="12.370909396559">
        <ele>2336.1399999999999</ele>
        <time>2015-07-11T15:57:29Z</time>
      </trkpt>
      <trkpt lat="46.617550402879715" lon="12.370930016040802">
        <ele>2335.6599999999999</ele>
        <time>2015-07-11T15:57:31Z</time>
      </trkpt>
      <trkpt lat="46.617495585232973" lon="12.371010147035122">
        <ele>2336.1399999999999</ele>
        <time>2015-07-11T15:57:39Z</time>
      </trkpt>
      <trkpt lat="46.617477899417281" lon="12.371089272201061">
        <ele>2335.6599999999999</ele>
        <time>2015-07-11T15:57:44Z</time>
      </trkpt>
      <trkpt lat="46.617386704310775" lon="12.371172169223428">
        <ele>2333.7399999999998</ele>
        <time>2015-07-11T15:57:54Z</time>
      </trkpt>
      <trkpt lat="46.617373041808605" lon="12.371277110651135">
        <ele>2331.8099999999999</ele>
        <time>2015-07-11T15:58:06Z</time>
      </trkpt>
      <trkpt lat="46.617367258295417" lon="12.371302926912904">
        <ele>2332.3000000000002</ele>
        <time>2015-07-11T15:58:11Z</time>
      </trkpt>
      <trkpt lat="46.617302885279059" lon="12.371436702087522">
        <ele>2331.8099999999999</ele>
        <time>2015-07-11T15:58:24Z</time>
      </trkpt>
      <trkpt lat="46.617298778146505" lon="12.371460255235434">
        <ele>2331.3299999999999</ele>
        <time>2015-07-11T15:58:26Z</time>
      </trkpt>
      <trkpt lat="46.617266004905105" lon="12.371548097580671">
        <ele>2329.4099999999999</ele>
        <time>2015-07-11T15:58:34Z</time>
      </trkpt>
      <trkpt lat="46.617192579433322" lon="12.371727554127574">
        <ele>2326.5300000000002</ele>
        <time>2015-07-11T15:58:49Z</time>
      </trkpt>
      <trkpt lat="46.617099037393928" lon="12.371865855529904">
        <ele>2325.0900000000001</ele>
        <time>2015-07-11T15:59:01Z</time>
      </trkpt>
      <trkpt lat="46.616990910843015" lon="12.372033577412367">
        <ele>2323.6399999999999</ele>
        <time>2015-07-11T15:59:15Z</time>
      </trkpt>
      <trkpt lat="46.616889573633671" lon="12.372151929885149">
        <ele>2323.1599999999999</ele>
        <time>2015-07-11T15:59:27Z</time>
      </trkpt>
      <trkpt lat="46.616780105978251" lon="12.372296936810017">
        <ele>2323.1599999999999</ele>
        <time>2015-07-11T15:59:40Z</time>
      </trkpt>
      <trkpt lat="46.616682289168239" lon="12.372414702549577">
        <ele>2324.1199999999999</ele>
        <time>2015-07-11T15:59:52Z</time>
      </trkpt>
      <trkpt lat="46.616600565612316" lon="12.37255216576159">
        <ele>2324.1199999999999</ele>
        <time>2015-07-11T16:00:04Z</time>
      </trkpt>
      <trkpt lat="46.616495875641704" lon="12.372676637023687">
        <ele>2324.1199999999999</ele>
        <time>2015-07-11T16:00:17Z</time>
      </trkpt>
      <trkpt lat="46.616424545645714" lon="12.372792223468423">
        <ele>2323.1599999999999</ele>
        <time>2015-07-11T16:00:29Z</time>
      </trkpt>
      <trkpt lat="46.616321029141545" lon="12.372961537912488">
        <ele>2321.7199999999998</ele>
        <time>2015-07-11T16:00:45Z</time>
      </trkpt>
      <trkpt lat="46.616213992238045" lon="12.373080560937524">
        <ele>2320.2800000000002</ele>
        <time>2015-07-11T16:00:58Z</time>
      </trkpt>
      <trkpt lat="46.616116343066096" lon="12.373174522072077">
        <ele>2318.3600000000001</ele>
        <time>2015-07-11T16:01:12Z</time>
      </trkpt>
      <trkpt lat="46.616100082173944" lon="12.373181059956551">
        <ele>2318.3600000000001</ele>
        <time>2015-07-11T16:01:14Z</time>
      </trkpt>
      <trkpt lat="46.615948537364602" lon="12.373244343325496">
        <ele>2316.4299999999998</ele>
        <time>2015-07-11T16:01:29Z</time>
      </trkpt>
      <trkpt lat="46.615891708061099" lon="12.373248031362891">
        <ele>2315.4699999999998</ele>
        <time>2015-07-11T16:01:35Z</time>
      </trkpt>
      <trkpt lat="46.615783078595996" lon="12.373292706906796">
        <ele>2313.5500000000002</ele>
        <time>2015-07-11T16:01:47Z</time>
      </trkpt>
      <trkpt lat="46.615763129666448" lon="12.37330125644803">
        <ele>2313.0700000000002</ele>
        <time>2015-07-11T16:01:49Z</time>
      </trkpt>
      <trkpt lat="46.615742174908519" lon="12.373288180679083">
        <ele>2312.5900000000001</ele>
        <time>2015-07-11T16:01:52Z</time>
      </trkpt>
      <trkpt lat="46.615641424432397" lon="12.373362528160214">
        <ele>2309.2199999999998</ele>
        <time>2015-07-11T16:02:04Z</time>
      </trkpt>
      <trkpt lat="46.615575961768627" lon="12.373399743810296">
        <ele>2308.2600000000002</ele>
        <time>2015-07-11T16:02:10Z</time>
      </trkpt>
      <trkpt lat="46.615531789138913" lon="12.373397732153535">
        <ele>2308.2600000000002</ele>
        <time>2015-07-11T16:02:14Z</time>
      </trkpt>
      <trkpt lat="46.615470182150602" lon="12.373360013589263">
        <ele>2308.2600000000002</ele>
        <time>2015-07-11T16:02:24Z</time>
      </trkpt>
      <trkpt lat="46.615346549078822" lon="12.373499488458037">
        <ele>2307.7800000000002</ele>
        <time>2015-07-11T16:02:38Z</time>
      </trkpt>
      <trkpt lat="46.615297347307205" lon="12.373577188700438">
        <ele>2307.7800000000002</ele>
        <time>2015-07-11T16:02:49Z</time>
      </trkpt>
      <trkpt lat="46.615291144698858" lon="12.373621612787247">
        <ele>2307.3000000000002</ele>
        <time>2015-07-11T16:02:53Z</time>
      </trkpt>
      <trkpt lat="46.615260550752282" lon="12.373709874227643">
        <ele>2306.8200000000002</ele>
        <time>2015-07-11T16:03:06Z</time>
      </trkpt>
      <trkpt lat="46.615228950977325" lon="12.373724207282066">
        <ele>2306.8200000000002</ele>
        <time>2015-07-11T16:03:09Z</time>
      </trkpt>
      <trkpt lat="46.615209085866809" lon="12.373752286657691">
        <ele>2306.3400000000001</ele>
        <time>2015-07-11T16:03:12Z</time>
      </trkpt>
      <trkpt lat="46.615192154422402" lon="12.373805679380894">
        <ele>2305.8600000000001</ele>
        <time>2015-07-11T16:03:22Z</time>
      </trkpt>
      <trkpt lat="46.615177653729916" lon="12.373780617490411">
        <ele>2306.3400000000001</ele>
        <time>2015-07-11T16:03:39Z</time>
      </trkpt>
      <trkpt lat="46.615112693980336" lon="12.373773073777556">
        <ele>2306.3400000000001</ele>
        <time>2015-07-11T16:03:48Z</time>
      </trkpt>
      <trkpt lat="46.615142533555627" lon="12.37377567216754">
        <ele>2305.8600000000001</ele>
        <time>2015-07-11T16:04:07Z</time>
      </trkpt>
      <trkpt lat="46.615116465836763" lon="12.37375714816153">
        <ele>2305.8600000000001</ele>
        <time>2015-07-11T16:04:25Z</time>
      </trkpt>
      <trkpt lat="46.6150903981179" lon="12.373734852299094">
        <ele>2306.3400000000001</ele>
        <time>2015-07-11T16:04:35Z</time>
      </trkpt>
      <trkpt lat="46.615061983466148" lon="12.373691350221634">
        <ele>2306.8200000000002</ele>
        <time>2015-07-11T16:04:51Z</time>
      </trkpt>
      <trkpt lat="46.615052511915565" lon="12.373684728518128">
        <ele>2306.8200000000002</ele>
        <time>2015-07-11T16:04:52Z</time>
      </trkpt>
      <trkpt lat="46.615007082000375" lon="12.373595712706447">
        <ele>2307.3000000000002</ele>
        <time>2015-07-11T16:05:01Z</time>
      </trkpt>
      <trkpt lat="46.614916892722249" lon="12.373563107103109">
        <ele>2308.2600000000002</ele>
        <time>2015-07-11T16:05:13Z</time>
      </trkpt>
      <trkpt lat="46.614928375929594" lon="12.373546259477735">
        <ele>2308.2600000000002</ele>
        <time>2015-07-11T16:05:26Z</time>
      </trkpt>
      <trkpt lat="46.614932315424085" lon="12.373530752956867">
        <ele>2308.7399999999998</ele>
        <time>2015-07-11T16:05:32Z</time>
      </trkpt>
      <trkpt lat="46.614950336515903" lon="12.373493453487754">
        <ele>2308.7399999999998</ele>
        <time>2015-07-11T16:05:44Z</time>
      </trkpt>
      <trkpt lat="46.614963328465819" lon="12.37349571660161">
        <ele>2308.7399999999998</ele>
        <time>2015-07-11T16:05:46Z</time>
      </trkpt>
      <trkpt lat="46.615049745887518" lon="12.373512061312795">
        <ele>2308.7399999999998</ele>
        <time>2015-07-11T16:05:58Z</time>
      </trkpt>
      <trkpt lat="46.615044632926583" lon="12.373592108488083">
        <ele>2308.2600000000002</ele>
        <time>2015-07-11T16:06:08Z</time>
      </trkpt>
      <trkpt lat="46.615073215216398" lon="12.373676598072052">
        <ele>2307.3000000000002</ele>
        <time>2015-07-11T16:06:18Z</time>
      </trkpt>
      <trkpt lat="46.615147227421403" lon="12.37372680567205">
        <ele>2306.8200000000002</ele>
        <time>2015-07-11T16:06:28Z</time>
      </trkpt>
      <trkpt lat="46.615180503576994" lon="12.373749185353518">
        <ele>2307.3000000000002</ele>
        <time>2015-07-11T16:06:33Z</time>
      </trkpt>
      <trkpt lat="46.615210510790348" lon="12.373641394078732">
        <ele>2307.3000000000002</ele>
        <time>2015-07-11T16:06:44Z</time>
      </trkpt>
      <trkpt lat="46.615048572421074" lon="12.373601412400603">
        <ele>2308.7399999999998</ele>
        <time>2015-07-11T16:09:45Z</time>
      </trkpt>
      <trkpt lat="46.615122333168983" lon="12.373670563101768">
        <ele>2308.2600000000002</ele>
        <time>2015-07-11T16:10:07Z</time>
      </trkpt>
      <trkpt lat="46.615125518292189" lon="12.373624630272388">
        <ele>2307.7800000000002</ele>
        <time>2015-07-11T16:10:25Z</time>
      </trkpt>
      <trkpt lat="46.615143707022071" lon="12.373629156500101">
        <ele>2308.2600000000002</ele>
        <time>2015-07-11T16:10:52Z</time>
      </trkpt>
    </trkseg>
  </trk>

  <trk>
    <name>2tappa2015-07-12</name>
    <extensions>
      <gpxx:TrackExtension>
        <gpxx:DisplayColor>Yellow</gpxx:DisplayColor>
      </gpxx:TrackExtension>
    </extensions>
    <trkseg>
      <trkpt lat="46.61525409668684" lon="12.373885223641992">
        <ele>2389.4899999999998</ele>
        <time>2015-07-12T06:37:28Z</time>
      </trkpt>
      <trkpt lat="46.61525753326714" lon="12.373883463442326">
        <ele>2389.4899999999998</ele>
        <time>2015-07-12T06:37:29Z</time>
      </trkpt>
      <trkpt lat="46.615265747532248" lon="12.373880781233311">
        <ele>2328.4499999999998</ele>
        <time>2015-07-12T06:37:31Z</time>
      </trkpt>
      <trkpt lat="46.6152648255229" lon="12.373881870880723">
        <ele>2328.4499999999998</ele>
        <time>2015-07-12T06:37:32Z</time>
      </trkpt>
      <trkpt lat="46.615265412256122" lon="12.373886564746499">
        <ele>2327.9699999999998</ele>
        <time>2015-07-12T06:37:44Z</time>
      </trkpt>
      <trkpt lat="46.615194585174322" lon="12.373998127877712">
        <ele>2327.9699999999998</ele>
        <time>2015-07-12T06:38:10Z</time>
      </trkpt>
      <trkpt lat="46.615188717842102" lon="12.374010533094406">
        <ele>2328.4499999999998</ele>
        <time>2015-07-12T06:38:25Z</time>
      </trkpt>
      <trkpt lat="46.615194249898195" lon="12.373982286080718">
        <ele>2328.9299999999998</ele>
        <time>2015-07-12T06:38:28Z</time>
      </trkpt>
      <trkpt lat="46.61527119576931" lon="12.373958313837647">
        <ele>2328.9299999999998</ele>
        <time>2015-07-12T06:38:39Z</time>
      </trkpt>
      <trkpt lat="46.615341184660792" lon="12.373918918892741">
        <ele>2329.4099999999999</ele>
        <time>2015-07-12T06:38:49Z</time>
      </trkpt>
      <trkpt lat="46.615451071411371" lon="12.373965689912438">
        <ele>2329.4099999999999</ele>
        <time>2015-07-12T06:39:00Z</time>
      </trkpt>
      <trkpt lat="46.615451741963625" lon="12.37386267632246">
        <ele>2329.8899999999999</ele>
        <time>2015-07-12T06:39:09Z</time>
      </trkpt>
      <trkpt lat="46.615458447486162" lon="12.373839290812612">
        <ele>2330.3699999999999</ele>
        <time>2015-07-12T06:39:11Z</time>
      </trkpt>
      <trkpt lat="46.615482000634074" lon="12.373780198395252">
        <ele>2330.3699999999999</ele>
        <time>2015-07-12T06:39:18Z</time>
      </trkpt>
      <trkpt lat="46.615518964827061" lon="12.373722866177559">
        <ele>2330.8499999999999</ele>
        <time>2015-07-12T06:39:30Z</time>
      </trkpt>
      <trkpt lat="46.615494322031736" lon="12.373714735731483">
        <ele>2330.8499999999999</ele>
        <time>2015-07-12T06:39:43Z</time>
      </trkpt>
      <trkpt lat="46.615500692278147" lon="12.37371071241796">
        <ele>2330.8499999999999</ele>
        <time>2015-07-12T06:39:54Z</time>
      </trkpt>
      <trkpt lat="46.61548032425344" lon="12.373713394626975">
        <ele>2331.3299999999999</ele>
        <time>2015-07-12T06:40:07Z</time>
      </trkpt>
      <trkpt lat="46.615432128310204" lon="12.37366528250277">
        <ele>2330.8499999999999</ele>
        <time>2015-07-12T06:40:18Z</time>
      </trkpt>
      <trkpt lat="46.615443276241422" lon="12.373672742396593">
        <ele>2331.3299999999999</ele>
        <time>2015-07-12T06:40:28Z</time>
      </trkpt>
      <trkpt lat="46.615470182150602" lon="12.373671149834991">
        <ele>2331.3299999999999</ele>
        <time>2015-07-12T06:40:45Z</time>
      </trkpt>
      <trkpt lat="46.61547982133925" lon="12.373627061024308">
        <ele>2330.8499999999999</ele>
        <time>2015-07-12T06:40:53Z</time>
      </trkpt>
      <trkpt lat="46.615509828552604" lon="12.373605519533157">
        <ele>2330.8499999999999</ele>
        <time>2015-07-12T06:41:02Z</time>
      </trkpt>
      <trkpt lat="46.615525921806693" lon="12.37356654368341">
        <ele>2331.3299999999999</ele>
        <time>2015-07-12T06:41:12Z</time>
      </trkpt>
      <trkpt lat="46.615563472732902" lon="12.373508289456367">
        <ele>2331.3299999999999</ele>
        <time>2015-07-12T06:41:22Z</time>
      </trkpt>
      <trkpt lat="46.615572776645422" lon="12.373501416295767">
        <ele>2330.8499999999999</ele>
        <time>2015-07-12T06:41:23Z</time>
      </trkpt>
      <trkpt lat="46.615688530728221" lon="12.373420028015971">
        <ele>2332.3000000000002</ele>
        <time>2015-07-12T06:41:36Z</time>
      </trkpt>
      <trkpt lat="46.615632120519876" lon="12.373281056061387">
        <ele>2334.2199999999998</ele>
        <time>2015-07-12T06:41:48Z</time>
      </trkpt>
      <trkpt lat="46.617531878873706" lon="12.370412684977055">
        <ele>2364.02</ele>
        <time>2015-07-12T06:47:46Z</time>
      </trkpt>
      <trkpt lat="46.617594826966524" lon="12.370476806536317">
        <ele>2365.9400000000001</ele>
        <time>2015-07-12T06:47:57Z</time>
      </trkpt>
      <trkpt lat="46.617687782272696" lon="12.370475213974714">
        <ele>2367.3800000000001</ele>
        <time>2015-07-12T06:48:08Z</time>
      </trkpt>
      <trkpt lat="46.617704462260008" lon="12.370393825694919">
        <ele>2369.3099999999999</ele>
        <time>2015-07-12T06:48:21Z</time>
      </trkpt>
      <trkpt lat="46.617740588262677" lon="12.370363986119628">
        <ele>2371.23</ele>
        <time>2015-07-12T06:48:33Z</time>
      </trkpt>
      <trkpt lat="46.617814265191555" lon="12.370428862050176">
        <ele>2373.6300000000001</ele>
        <time>2015-07-12T06:48:45Z</time>
      </trkpt>
      <trkpt lat="46.617881990969181" lon="12.370393825694919">
        <ele>2375.0700000000002</ele>
        <time>2015-07-12T06:48:59Z</time>
      </trkpt>
      <trkpt lat="46.61794938147068" lon="12.370375553146005">
        <ele>2376.04</ele>
        <time>2015-07-12T06:49:10Z</time>
      </trkpt>
      <trkpt lat="46.618001852184534" lon="12.370335403829813">
        <ele>2377.96</ele>
        <time>2015-07-12T06:49:22Z</time>
      </trkpt>
      <trkpt lat="46.618092879652977" lon="12.370324088260531">
        <ele>2379.8800000000001</ele>
        <time>2015-07-12T06:49:35Z</time>
      </trkpt>
      <trkpt lat="46.618153564631939" lon="12.370313024148345">
        <ele>2381.3200000000002</ele>
        <time>2015-07-12T06:49:45Z</time>
      </trkpt>
      <trkpt lat="46.618297817185521" lon="12.370323082432151">
        <ele>2383.25</ele>
        <time>2015-07-12T06:49:58Z</time>
      </trkpt>
      <trkpt lat="46.618389850482345" lon="12.370300032198429">
        <ele>2384.6900000000001</ele>
        <time>2015-07-12T06:50:09Z</time>
      </trkpt>
      <trkpt lat="46.618491774424911" lon="12.370272623375058">
        <ele>2386.6100000000001</ele>
        <time>2015-07-12T06:50:21Z</time>
      </trkpt>
      <trkpt lat="46.618569809943438" lon="12.370229875668883">
        <ele>2389.0100000000002</ele>
        <time>2015-07-12T06:50:34Z</time>
      </trkpt>
      <trkpt lat="46.618641223758459" lon="12.370193162932992">
        <ele>2390.9400000000001</ele>
        <time>2015-07-12T06:50:49Z</time>
      </trkpt>
      <trkpt lat="46.618702746927738" lon="12.370294751599431">
        <ele>2392.3800000000001</ele>
        <time>2015-07-12T06:50:58Z</time>
      </trkpt>
      <trkpt lat="46.618733759969473" lon="12.37043003551662">
        <ele>2393.3400000000001</ele>
        <time>2015-07-12T06:51:12Z</time>
      </trkpt>
      <trkpt lat="46.618755804374814" lon="12.370602618902922">
        <ele>2394.3000000000002</ele>
        <time>2015-07-12T06:51:27Z</time>
      </trkpt>
      <trkpt lat="46.618760414421558" lon="12.370616113767028">
        <ele>2394.3000000000002</ele>
        <time>2015-07-12T06:51:28Z</time>
      </trkpt>
      <trkpt lat="46.618772819638252" lon="12.370785512030125">
        <ele>2395.2600000000002</ele>
        <time>2015-07-12T06:51:42Z</time>
      </trkpt>
      <trkpt lat="46.618768963962793" lon="12.370921801775694">
        <ele>2396.2199999999998</ele>
        <time>2015-07-12T06:51:53Z</time>
      </trkpt>
      <trkpt lat="46.618729401379824" lon="12.371049458160996">
        <ele>2398.1500000000001</ele>
        <time>2015-07-12T06:52:06Z</time>
      </trkpt>
      <trkpt lat="46.61878690123558" lon="12.370971590280533">
        <ele>2399.5900000000001</ele>
        <time>2015-07-12T06:52:17Z</time>
      </trkpt>
      <trkpt lat="46.618855549022555" lon="12.370922220870852">
        <ele>2401.0300000000002</ele>
        <time>2015-07-12T06:52:29Z</time>
      </trkpt>
      <trkpt lat="46.618968201801181" lon="12.370899422094226">
        <ele>2403.4299999999998</ele>
        <time>2015-07-12T06:52:42Z</time>
      </trkpt>
      <trkpt lat="46.61899016238749" lon="12.37081803381443">
        <ele>2403.4299999999998</ele>
        <time>2015-07-12T06:52:53Z</time>
      </trkpt>
      <trkpt lat="46.618985803797841" lon="12.370785092934966">
        <ele>2405.3600000000001</ele>
        <time>2015-07-12T06:52:57Z</time>
      </trkpt>
      <trkpt lat="46.61900625564158" lon="12.370718875899911">
        <ele>2406.8000000000002</ele>
        <time>2015-07-12T06:53:07Z</time>
      </trkpt>
      <trkpt lat="46.619034754112363" lon="12.370647545903921">
        <ele>2407.7600000000002</ele>
        <time>2015-07-12T06:53:16Z</time>
      </trkpt>
      <trkpt lat="46.619069622829556" lon="12.370560793206096">
        <ele>2410.1599999999999</ele>
        <time>2015-07-12T06:53:28Z</time>
      </trkpt>
      <trkpt lat="46.619085129350424" lon="12.370457109063864">
        <ele>2410.6399999999999</ele>
        <time>2015-07-12T06:53:39Z</time>
      </trkpt>
      <trkpt lat="46.619091080501676" lon="12.370396926999092">
        <ele>2412.0900000000001</ele>
        <time>2015-07-12T06:53:53Z</time>
      </trkpt>
      <trkpt lat="46.619113208726048" lon="12.370310761034489">
        <ele>2413.5300000000002</ele>
        <time>2015-07-12T06:54:04Z</time>
      </trkpt>
      <trkpt lat="46.619047662243247" lon="12.37029860727489">
        <ele>2413.5300000000002</ele>
        <time>2015-07-12T06:54:15Z</time>
      </trkpt>
      <trkpt lat="46.619079345837235" lon="12.370234318077564">
        <ele>2414.0100000000002</ele>
        <time>2015-07-12T06:54:27Z</time>
      </trkpt>
      <trkpt lat="46.61909376271069" lon="12.370247729122639">
        <ele>2414.9699999999998</ele>
        <time>2015-07-12T06:54:38Z</time>
      </trkpt>
      <trkpt lat="46.619114633649588" lon="12.370170196518302">
        <ele>2415.4499999999998</ele>
        <time>2015-07-12T06:54:47Z</time>
      </trkpt>
      <trkpt lat="46.619140952825546" lon="12.370054693892598">
        <ele>2418.3299999999999</ele>
        <time>2015-07-12T06:54:58Z</time>
      </trkpt>
      <trkpt lat="46.619142293930054" lon="12.369944304227829">
        <ele>2419.7800000000002</ele>
        <time>2015-07-12T06:55:08Z</time>
      </trkpt>
      <trkpt lat="46.619154782965779" lon="12.369863502681255">
        <ele>2423.1399999999999</ele>
        <time>2015-07-12T06:55:16Z</time>
      </trkpt>
      <trkpt lat="46.619174564257264" lon="12.369783623144031">
        <ele>2423.6199999999999</ele>
        <time>2015-07-12T06:55:27Z</time>
      </trkpt>
      <trkpt lat="46.619207756593823" lon="12.369734924286604">
        <ele>2425.54</ele>
        <time>2015-07-12T06:55:38Z</time>
      </trkpt>
      <trkpt lat="46.619241451844573" lon="12.369770212098956">
        <ele>2426.02</ele>
        <time>2015-07-12T06:55:48Z</time>
      </trkpt>
      <trkpt lat="46.619285373017192" lon="12.369838356971741">
        <ele>2427.9499999999998</ele>
        <time>2015-07-12T06:56:01Z</time>
      </trkpt>
      <trkpt lat="46.619300125166774" lon="12.369930977001786">
        <ele>2429.8699999999999</ele>
        <time>2015-07-12T06:56:11Z</time>
      </trkpt>
      <trkpt lat="46.619356535375118" lon="12.36996534280479">
        <ele>2431.79</ele>
        <time>2015-07-12T06:56:22Z</time>
      </trkpt>
      <trkpt lat="46.619398780167103" lon="12.370056705549359">
        <ele>2433.71</ele>
        <time>2015-07-12T06:56:34Z</time>
      </trkpt>
      <trkpt lat="46.619433565065265" lon="12.370168939232826">
        <ele>2435.1599999999999</ele>
        <time>2015-07-12T06:56:46Z</time>
      </trkpt>
      <trkpt lat="46.619472960010171" lon="12.370251668617129">
        <ele>2437.5599999999999</ele>
        <time>2015-07-12T06:56:58Z</time>
      </trkpt>
      <trkpt lat="46.619502883404493" lon="12.370320232585073">
        <ele>2439.48</ele>
        <time>2015-07-12T06:57:08Z</time>
      </trkpt>
      <trkpt lat="46.619530711323023" lon="12.370378319174051">
        <ele>2440.9200000000001</ele>
        <time>2015-07-12T06:57:19Z</time>
      </trkpt>
      <trkpt lat="46.619546636939049" lon="12.370454175397754">
        <ele>2442.3699999999999</ele>
        <time>2015-07-12T06:57:29Z</time>
      </trkpt>
      <trkpt lat="46.619584690779448" lon="12.37052726559341">
        <ele>2444.29</ele>
        <time>2015-07-12T06:57:40Z</time>
      </trkpt>
      <trkpt lat="46.61962048150599" lon="12.370547885075212">
        <ele>2446.21</ele>
        <time>2015-07-12T06:57:51Z</time>
      </trkpt>
      <trkpt lat="46.61965124309063" lon="12.370590129867196">
        <ele>2447.6500000000001</ele>
        <time>2015-07-12T06:58:01Z</time>
      </trkpt>
      <trkpt lat="46.619657361879945" lon="12.370649976655841">
        <ele>2449.0999999999999</ele>
        <time>2015-07-12T06:58:10Z</time>
      </trkpt>
      <trkpt lat="46.619656020775437" lon="12.370695825666189">
        <ele>2449.5799999999999</ele>
        <time>2015-07-12T06:58:14Z</time>
      </trkpt>
      <trkpt lat="46.619637832045555" lon="12.370854914188385">
        <ele>2449.0999999999999</ele>
        <time>2015-07-12T06:58:26Z</time>
      </trkpt>
      <trkpt lat="46.619650656357408" lon="12.370952060446143">
        <ele>2451.98</ele>
        <time>2015-07-12T06:58:38Z</time>
      </trkpt>
      <trkpt lat="46.619674544781446" lon="12.370986845344305">
        <ele>2451.5</ele>
        <time>2015-07-12T06:58:46Z</time>
      </trkpt>
      <trkpt lat="46.619731290265918" lon="12.370917275547981">
        <ele>2453.4200000000001</ele>
        <time>2015-07-12T06:58:56Z</time>
      </trkpt>
      <trkpt lat="46.619794489815831" lon="12.370865391567349">
        <ele>2454.8600000000001</ele>
        <time>2015-07-12T06:59:07Z</time>
      </trkpt>
      <trkpt lat="46.61982768215239" lon="12.370757684111595">
        <ele>2455.8200000000002</ele>
        <time>2015-07-12T06:59:18Z</time>
      </trkpt>
      <trkpt lat="46.619823323562741" lon="12.370690545067191">
        <ele>2455.3400000000001</ele>
        <time>2015-07-12T06:59:28Z</time>
      </trkpt>
      <trkpt lat="46.61982080899179" lon="12.370677636936307">
        <ele>2455.3400000000001</ele>
        <time>2015-07-12T06:59:29Z</time>
      </trkpt>
      <trkpt lat="46.619769176468253" lon="12.370572527870536">
        <ele>2457.27</ele>
        <time>2015-07-12T06:59:41Z</time>
      </trkpt>
      <trkpt lat="46.619778145104647" lon="12.370545035228133">
        <ele>2457.27</ele>
        <time>2015-07-12T06:59:51Z</time>
      </trkpt>
      <trkpt lat="46.619798261672258" lon="12.370477309450507">
        <ele>2458.71</ele>
        <time>2015-07-12T07:00:02Z</time>
      </trkpt>
      <trkpt lat="46.619824580848217" lon="12.370421402156353">
        <ele>2459.6700000000001</ele>
        <time>2015-07-12T07:00:17Z</time>
      </trkpt>
      <trkpt lat="46.619806224480271" lon="12.370428778231144">
        <ele>2459.6700000000001</ele>
        <time>2015-07-12T07:00:30Z</time>
      </trkpt>
      <trkpt lat="46.619780994951725" lon="12.370409080758691">
        <ele>2460.1500000000001</ele>
        <time>2015-07-12T07:00:43Z</time>
      </trkpt>
      <trkpt lat="46.619773702695966" lon="12.37039977684617">
        <ele>2460.1500000000001</ele>
        <time>2015-07-12T07:00:50Z</time>
      </trkpt>
      <trkpt lat="46.619790969416499" lon="12.370412433519959">
        <ele>2459.6700000000001</ele>
        <time>2015-07-12T07:01:00Z</time>
      </trkpt>
      <trkpt lat="46.619816701859236" lon="12.370406482368708">
        <ele>2459.1900000000001</ele>
        <time>2015-07-12T07:01:09Z</time>
      </trkpt>
      <trkpt lat="46.619815109297633" lon="12.370412684977055">
        <ele>2459.1900000000001</ele>
        <time>2015-07-12T07:01:23Z</time>
      </trkpt>
      <trkpt lat="46.619786275550723" lon="12.370439087972045">
        <ele>2458.71</ele>
        <time>2015-07-12T07:01:40Z</time>
      </trkpt>
      <trkpt lat="46.619770266115665" lon="12.370476135984063">
        <ele>2457.75</ele>
        <time>2015-07-12T07:01:54Z</time>
      </trkpt>
      <trkpt lat="46.619795328006148" lon="12.37044177018106">
        <ele>2458.23</ele>
        <time>2015-07-12T07:02:05Z</time>
      </trkpt>
      <trkpt lat="46.619794573634863" lon="12.370432633906603">
        <ele>2458.23</ele>
        <time>2015-07-12T07:02:16Z</time>
      </trkpt>
      <trkpt lat="46.619772110134363" lon="12.370434226468205">
        <ele>2458.23</ele>
        <time>2015-07-12T07:02:28Z</time>
      </trkpt>
      <trkpt lat="46.619783509522676" lon="12.370438249781728">
        <ele>2458.23</ele>
        <time>2015-07-12T07:02:32Z</time>
      </trkpt>
      <trkpt lat="46.619793064892292" lon="12.370433807373047">
        <ele>2457.27</ele>
        <time>2015-07-12T07:02:39Z</time>
      </trkpt>
      <trkpt lat="46.619798513129354" lon="12.370448810979724">
        <ele>2457.27</ele>
        <time>2015-07-12T07:03:00Z</time>
      </trkpt>
      <trkpt lat="46.619808403775096" lon="12.370445374399424">
        <ele>2456.79</ele>
        <time>2015-07-12T07:03:17Z</time>
      </trkpt>
      <trkpt lat="46.619792394340038" lon="12.370429029688239">
        <ele>2456.79</ele>
        <time>2015-07-12T07:03:38Z</time>
      </trkpt>
      <trkpt lat="46.619808906689286" lon="12.3704500682652">
        <ele>2456.79</ele>
        <time>2015-07-12T07:03:58Z</time>
      </trkpt>
      <trkpt lat="46.619784263893962" lon="12.370445961132646">
        <ele>2456.79</ele>
        <time>2015-07-12T07:04:15Z</time>
      </trkpt>
      <trkpt lat="46.619801195338368" lon="12.370428023859859">
        <ele>2456.3099999999999</ele>
        <time>2015-07-12T07:04:35Z</time>
      </trkpt>
      <trkpt lat="46.619798177853227" lon="12.370437160134315">
        <ele>2456.79</ele>
        <time>2015-07-12T07:04:58Z</time>
      </trkpt>
      <trkpt lat="46.619795663282275" lon="12.370430370792747">
        <ele>2456.3099999999999</ele>
        <time>2015-07-12T07:05:17Z</time>
      </trkpt>
      <trkpt lat="46.619805721566081" lon="12.370438668876886">
        <ele>2456.3099999999999</ele>
        <time>2015-07-12T07:05:38Z</time>
      </trkpt>
      <trkpt lat="46.61980714648962" lon="12.370435232296586">
        <ele>2456.3099999999999</ele>
        <time>2015-07-12T07:06:00Z</time>
      </trkpt>
      <trkpt lat="46.619813265278935" lon="12.370427269488573">
        <ele>2456.3099999999999</ele>
        <time>2015-07-12T07:06:26Z</time>
      </trkpt>
      <trkpt lat="46.619804464280605" lon="12.370431041345">
        <ele>2456.3099999999999</ele>
        <time>2015-07-12T07:06:47Z</time>
      </trkpt>
      <trkpt lat="46.619786275550723" lon="12.370436824858189">
        <ele>2456.79</ele>
        <time>2015-07-12T07:07:10Z</time>
      </trkpt>
      <trkpt lat="46.619794238358736" lon="12.370441183447838">
        <ele>2456.3099999999999</ele>
        <time>2015-07-12T07:07:30Z</time>
      </trkpt>
      <trkpt lat="46.619790885597467" lon="12.370450654998422">
        <ele>2456.3099999999999</ele>
        <time>2015-07-12T07:07:51Z</time>
      </trkpt>
      <trkpt lat="46.619804883375764" lon="12.370431208983064">
        <ele>2456.3099999999999</ele>
        <time>2015-07-12T07:08:10Z</time>
      </trkpt>
      <trkpt lat="46.619778983294964" lon="12.370408829301596">
        <ele>2455.8200000000002</ele>
        <time>2015-07-12T07:08:40Z</time>
      </trkpt>
      <trkpt lat="46.619774792343378" lon="12.370425006374717">
        <ele>2456.3099999999999</ele>
        <time>2015-07-12T07:09:06Z</time>
      </trkpt>
      <trkpt lat="46.61976900883019" lon="12.370431963354349">
        <ele>2456.3099999999999</ele>
        <time>2015-07-12T07:09:29Z</time>
      </trkpt>
      <trkpt lat="46.619772361591458" lon="12.370441854000092">
        <ele>2456.3099999999999</ele>
        <time>2015-07-12T07:09:51Z</time>
      </trkpt>
      <trkpt lat="46.619777390733361" lon="12.370431292802095">
        <ele>2456.79</ele>
        <time>2015-07-12T07:10:10Z</time>
      </trkpt>
      <trkpt lat="46.619790801778436" lon="12.370453923940659">
        <ele>2456.79</ele>
        <time>2015-07-12T07:10:30Z</time>
      </trkpt>
      <trkpt lat="46.619786778464913" lon="12.370432214811444">
        <ele>2456.3099999999999</ele>
        <time>2015-07-12T07:10:53Z</time>
      </trkpt>
      <trkpt lat="46.619782168418169" lon="12.370417295023799">
        <ele>2455.8200000000002</ele>
        <time>2015-07-12T07:11:15Z</time>
      </trkpt>
      <trkpt lat="46.619800021871924" lon="12.370444620028138">
        <ele>2458.23</ele>
        <time>2015-07-12T07:11:33Z</time>
      </trkpt>
      <trkpt lat="46.619783006608486" lon="12.370429448783398">
        <ele>2457.75</ele>
        <time>2015-07-12T07:11:44Z</time>
      </trkpt>
      <trkpt lat="46.619765069335699" lon="12.37049113959074">
        <ele>2456.79</ele>
        <time>2015-07-12T07:11:57Z</time>
      </trkpt>
      <trkpt lat="46.619743779301643" lon="12.370549645274878">
        <ele>2455.3400000000001</ele>
        <time>2015-07-12T07:12:07Z</time>
      </trkpt>
      <trkpt lat="46.619737911969423" lon="12.37053606659174">
        <ele>2455.8200000000002</ele>
        <time>2015-07-12T07:12:17Z</time>
      </trkpt>
      <trkpt lat="46.619758950546384" lon="12.370596751570702">
        <ele>2453.4200000000001</ele>
        <time>2015-07-12T07:12:26Z</time>
      </trkpt>
      <trkpt lat="46.619782922789454" lon="12.370616449043155">
        <ele>2452.46</ele>
        <time>2015-07-12T07:12:29Z</time>
      </trkpt>
      <trkpt lat="46.619841512292624" lon="12.370763635262847">
        <ele>2449.0999999999999</ele>
        <time>2015-07-12T07:12:42Z</time>
      </trkpt>
      <trkpt lat="46.619889372959733" lon="12.370853824540973">
        <ele>2446.21</ele>
        <time>2015-07-12T07:12:53Z</time>
      </trkpt>
      <trkpt lat="46.619980735704303" lon="12.370877712965012">
        <ele>2444.77</ele>
        <time>2015-07-12T07:13:04Z</time>
      </trkpt>
      <trkpt lat="46.619983753189445" lon="12.370879976078868">
        <ele>2444.29</ele>
        <time>2015-07-12T07:13:05Z</time>
      </trkpt>
      <trkpt lat="46.620037313550711" lon="12.3709352966398">
        <ele>2443.8099999999999</ele>
        <time>2015-07-12T07:13:13Z</time>
      </trkpt>
      <trkpt lat="46.620032954961061" lon="12.37092356197536">
        <ele>2444.29</ele>
        <time>2015-07-12T07:13:17Z</time>
      </trkpt>
      <trkpt lat="46.620017448440194" lon="12.370827086269855">
        <ele>2442.3699999999999</ele>
        <time>2015-07-12T07:13:22Z</time>
      </trkpt>
      <trkpt lat="46.620013006031513" lon="12.370758689939976">
        <ele>2440.4400000000001</ele>
        <time>2015-07-12T07:13:27Z</time>
      </trkpt>
      <trkpt lat="46.620012251660228" lon="12.370702950283885">
        <ele>2439</ele>
        <time>2015-07-12T07:13:32Z</time>
      </trkpt>
      <trkpt lat="46.620009317994118" lon="12.370695993304253">
        <ele>2438.52</ele>
        <time>2015-07-12T07:13:33Z</time>
      </trkpt>
      <trkpt lat="46.619994146749377" lon="12.37061083316803">
        <ele>2435.6399999999999</ele>
        <time>2015-07-12T07:13:42Z</time>
      </trkpt>
      <trkpt lat="46.620016358792782" lon="12.370519386604428">
        <ele>2433.71</ele>
        <time>2015-07-12T07:13:49Z</time>
      </trkpt>
      <trkpt lat="46.62003681063652" lon="12.370440848171711">
        <ele>2431.3099999999999</ele>
        <time>2015-07-12T07:13:55Z</time>
      </trkpt>
      <trkpt lat="46.620070757344365" lon="12.370336912572384">
        <ele>2427.9499999999998</ele>
        <time>2015-07-12T07:14:05Z</time>
      </trkpt>
      <trkpt lat="46.620088191702962" lon="12.370251920074224">
        <ele>2426.5</ele>
        <time>2015-07-12T07:14:11Z</time>
      </trkpt>
      <trkpt lat="46.620098585262895" lon="12.370213950052857">
        <ele>2424.5799999999999</ele>
        <time>2015-07-12T07:14:14Z</time>
      </trkpt>
      <trkpt lat="46.620109984651208" lon="12.370177656412125">
        <ele>2424.0999999999999</ele>
        <time>2015-07-12T07:14:17Z</time>
      </trkpt>
      <trkpt lat="46.620133286342025" lon="12.37005528062582">
        <ele>2421.2199999999998</ele>
        <time>2015-07-12T07:14:26Z</time>
      </trkpt>
      <trkpt lat="46.620150972157717" lon="12.369926031678915">
        <ele>2419.7800000000002</ele>
        <time>2015-07-12T07:14:37Z</time>
      </trkpt>
      <trkpt lat="46.620190283283591" lon="12.369836764410138">
        <ele>2416.4099999999999</ele>
        <time>2015-07-12T07:14:46Z</time>
      </trkpt>
      <trkpt lat="46.62019606679678" lon="12.369829723611474">
        <ele>2416.4099999999999</ele>
        <time>2015-07-12T07:14:47Z</time>
      </trkpt>
      <trkpt lat="46.620198832824826" lon="12.369809858500957">
        <ele>2415.9299999999998</ele>
        <time>2015-07-12T07:14:49Z</time>
      </trkpt>
      <trkpt lat="46.620226074010134" lon="12.369767529889941">
        <ele>2414.0100000000002</ele>
        <time>2015-07-12T07:14:53Z</time>
      </trkpt>
      <trkpt lat="46.620246777310967" lon="12.369708521291614">
        <ele>2412.5700000000002</ele>
        <time>2015-07-12T07:14:58Z</time>
      </trkpt>
      <trkpt lat="46.620297906920314" lon="12.369543649256229">
        <ele>2409.1999999999998</ele>
        <time>2015-07-12T07:15:11Z</time>
      </trkpt>
      <trkpt lat="46.620311317965388" lon="12.369481204077601">
        <ele>2407.7600000000002</ele>
        <time>2015-07-12T07:15:16Z</time>
      </trkpt>
      <trkpt lat="46.620320370420814" lon="12.36943275667727">
        <ele>2408.2399999999998</ele>
        <time>2015-07-12T07:15:25Z</time>
      </trkpt>
      <trkpt lat="46.620324812829494" lon="12.369419429451227">
        <ele>2406.8000000000002</ele>
        <time>2015-07-12T07:15:30Z</time>
      </trkpt>
      <trkpt lat="46.620391784235835" lon="12.369241565465927">
        <ele>2403.4299999999998</ele>
        <time>2015-07-12T07:15:42Z</time>
      </trkpt>
      <trkpt lat="46.620411146432161" lon="12.369135785847902">
        <ele>2401.9899999999998</ele>
        <time>2015-07-12T07:15:49Z</time>
      </trkpt>
      <trkpt lat="46.62047702819109" lon="12.368964711204171">
        <ele>2400.0700000000002</ele>
        <time>2015-07-12T07:16:01Z</time>
      </trkpt>
      <trkpt lat="46.620511645451188" lon="12.36889916472137">
        <ele>2399.1100000000001</ele>
        <time>2015-07-12T07:16:08Z</time>
      </trkpt>
      <trkpt lat="46.620529247447848" lon="12.368864379823208">
        <ele>2398.1500000000001</ele>
        <time>2015-07-12T07:16:11Z</time>
      </trkpt>
      <trkpt lat="46.620567971840501" lon="12.368781482800841">
        <ele>2396.6999999999998</ele>
        <time>2015-07-12T07:16:16Z</time>
      </trkpt>
      <trkpt lat="46.620610216632485" lon="12.368702692911029">
        <ele>2395.7399999999998</ele>
        <time>2015-07-12T07:16:23Z</time>
      </trkpt>
      <trkpt lat="46.620640307664871" lon="12.368636978790164">
        <ele>2394.3000000000002</ele>
        <time>2015-07-12T07:16:29Z</time>
      </trkpt>
      <trkpt lat="46.620651707053185" lon="12.368625579401851">
        <ele>2393.8200000000002</ele>
        <time>2015-07-12T07:16:31Z</time>
      </trkpt>
      <trkpt lat="46.620643492788076" lon="12.368571264669299">
        <ele>2393.8200000000002</ele>
        <time>2015-07-12T07:16:38Z</time>
      </trkpt>
      <trkpt lat="46.620644247159362" lon="12.368573192507029">
        <ele>2393.3400000000001</ele>
        <time>2015-07-12T07:16:59Z</time>
      </trkpt>
      <trkpt lat="46.62066075950861" lon="12.368574198335409">
        <ele>2393.3400000000001</ele>
        <time>2015-07-12T07:17:08Z</time>
      </trkpt>
      <trkpt lat="46.620707865804434" lon="12.368501108139753">
        <ele>2392.3800000000001</ele>
        <time>2015-07-12T07:17:15Z</time>
      </trkpt>
      <trkpt lat="46.620768047869205" lon="12.368378816172481">
        <ele>2389.9699999999998</ele>
        <time>2015-07-12T07:17:27Z</time>
      </trkpt>
      <trkpt lat="46.620795456692576" lon="12.368336822837591">
        <ele>2388.5300000000002</ele>
        <time>2015-07-12T07:17:32Z</time>
      </trkpt>
      <trkpt lat="46.62083962932229" lon="12.368218386545777">
        <ele>2387.5700000000002</ele>
        <time>2015-07-12T07:17:44Z</time>
      </trkpt>
      <trkpt lat="46.620861170813441" lon="12.368185026571155">
        <ele>2388.0500000000002</ele>
        <time>2015-07-12T07:17:47Z</time>
      </trkpt>
      <trkpt lat="46.620882963761687" lon="12.368171196430922">
        <ele>2387.5700000000002</ele>
        <time>2015-07-12T07:17:49Z</time>
      </trkpt>
      <trkpt lat="46.620914731174707" lon="12.368087461218238">
        <ele>2386.6100000000001</ele>
        <time>2015-07-12T07:17:55Z</time>
      </trkpt>
      <trkpt lat="46.620966028422117" lon="12.368019483983517">
        <ele>2385.6500000000001</ele>
        <time>2015-07-12T07:18:01Z</time>
      </trkpt>
      <trkpt lat="46.620992012321949" lon="12.368007581681013">
        <ele>2384.21</ele>
        <time>2015-07-12T07:18:04Z</time>
      </trkpt>
      <trkpt lat="46.621065521612763" lon="12.36787405796349">
        <ele>2382.2800000000002</ele>
        <time>2015-07-12T07:18:14Z</time>
      </trkpt>
      <trkpt lat="46.621139869093895" lon="12.367806164547801">
        <ele>2379.4000000000001</ele>
        <time>2015-07-12T07:18:22Z</time>
      </trkpt>
      <trkpt lat="46.621212791651487" lon="12.367693511769176">
        <ele>2375.5500000000002</ele>
        <time>2015-07-12T07:18:31Z</time>
      </trkpt>
      <trkpt lat="46.621322594583035" lon="12.367524532601237">
        <ele>2372.6700000000001</ele>
        <time>2015-07-12T07:18:44Z</time>
      </trkpt>
      <trkpt lat="46.62138344720006" lon="12.367412047460675">
        <ele>2371.71</ele>
        <time>2015-07-12T07:18:52Z</time>
      </trkpt>
      <trkpt lat="46.621441030874848" lon="12.367219850420952">
        <ele>2369.3099999999999</ele>
        <time>2015-07-12T07:19:05Z</time>
      </trkpt>
      <trkpt lat="46.621515797451138" lon="12.367072496563196">
        <ele>2367.3800000000001</ele>
        <time>2015-07-12T07:19:16Z</time>
      </trkpt>
      <trkpt lat="46.621521916240454" lon="12.367058582603931">
        <ele>2367.3800000000001</ele>
        <time>2015-07-12T07:19:17Z</time>
      </trkpt>
      <trkpt lat="46.621562903746963" lon="12.366974176838994">
        <ele>2365.9400000000001</ele>
        <time>2015-07-12T07:19:23Z</time>
      </trkpt>
      <trkpt lat="46.62164194509387" lon="12.366787176579237">
        <ele>2362.5799999999999</ele>
        <time>2015-07-12T07:19:37Z</time>
      </trkpt>
      <trkpt lat="46.62171327508986" lon="12.366708889603615">
        <ele>2359.21</ele>
        <time>2015-07-12T07:19:45Z</time>
      </trkpt>
      <trkpt lat="46.621794914826751" lon="12.366702267900109">
        <ele>2356.3299999999999</ele>
        <time>2015-07-12T07:19:54Z</time>
      </trkpt>
      <trkpt lat="46.621851157397032" lon="12.366619035601616">
        <ele>2352.96</ele>
        <time>2015-07-12T07:20:04Z</time>
      </trkpt>
      <trkpt lat="46.621902706101537" lon="12.366507221013308">
        <ele>2350.0799999999999</ele>
        <time>2015-07-12T07:20:15Z</time>
      </trkpt>
      <trkpt lat="46.62194193340838" lon="12.366441506892443">
        <ele>2347.6799999999998</ele>
        <time>2015-07-12T07:20:22Z</time>
      </trkpt>
      <trkpt lat="46.621952578425407" lon="12.366409655660391">
        <ele>2346.7199999999998</ele>
        <time>2015-07-12T07:20:24Z</time>
      </trkpt>
      <trkpt lat="46.62197470664978" lon="12.366366237401962">
        <ele>2344.79</ele>
        <time>2015-07-12T07:20:28Z</time>
      </trkpt>
      <trkpt lat="46.621995661407709" lon="12.366347461938858">
        <ele>2344.3099999999999</ele>
        <time>2015-07-12T07:20:31Z</time>
      </trkpt>
      <trkpt lat="46.622028853744268" lon="12.366315694525838">
        <ele>2342.8699999999999</ele>
        <time>2015-07-12T07:20:35Z</time>
      </trkpt>
      <trkpt lat="46.622078055515885" lon="12.366209328174591">
        <ele>2341.4299999999998</ele>
        <time>2015-07-12T07:20:46Z</time>
      </trkpt>
      <trkpt lat="46.622087191790342" lon="12.366210585460067">
        <ele>2340.9499999999998</ele>
        <time>2015-07-12T07:20:55Z</time>
      </trkpt>
      <trkpt lat="46.62210026755929" lon="12.366181081160903">
        <ele>2340.4699999999998</ele>
        <time>2015-07-12T07:20:57Z</time>
      </trkpt>
      <trkpt lat="46.622150056064129" lon="12.366032470017672">
        <ele>2338.0599999999999</ele>
        <time>2015-07-12T07:21:08Z</time>
      </trkpt>
      <trkpt lat="46.622182745486498" lon="12.365895006805658">
        <ele>2335.1799999999998</ele>
        <time>2015-07-12T07:21:20Z</time>
      </trkpt>
      <trkpt lat="46.622197329998016" lon="12.36573776230216">
        <ele>2332.3000000000002</ele>
        <time>2015-07-12T07:21:32Z</time>
      </trkpt>
      <trkpt lat="46.622209902852774" lon="12.36558479256928">
        <ele>2329.8899999999999</ele>
        <time>2015-07-12T07:21:43Z</time>
      </trkpt>
      <trkpt lat="46.622236389666796" lon="12.365422686561942">
        <ele>2327.0100000000002</ele>
        <time>2015-07-12T07:21:54Z</time>
      </trkpt>
      <trkpt lat="46.622232533991337" lon="12.365412376821041">
        <ele>2327.0100000000002</ele>
        <time>2015-07-12T07:21:55Z</time>
      </trkpt>
      <trkpt lat="46.622222475707531" lon="12.365298047661781">
        <ele>2326.0500000000002</ele>
        <time>2015-07-12T07:22:03Z</time>
      </trkpt>
      <trkpt lat="46.622257931157947" lon="12.365183718502522">
        <ele>2323.1599999999999</ele>
        <time>2015-07-12T07:22:12Z</time>
      </trkpt>
      <trkpt lat="46.622266648337245" lon="12.365112472325563">
        <ele>2321.7199999999998</ele>
        <time>2015-07-12T07:22:17Z</time>
      </trkpt>
      <trkpt lat="46.622279724106193" lon="12.365040387958288">
        <ele>2319.8000000000002</ele>
        <time>2015-07-12T07:22:22Z</time>
      </trkpt>
      <trkpt lat="46.622279472649097" lon="12.364949695765972">
        <ele>2316.9099999999999</ele>
        <time>2015-07-12T07:22:30Z</time>
      </trkpt>
      <trkpt lat="46.622275365516543" lon="12.364881467074156">
        <ele>2315.4699999999998</ele>
        <time>2015-07-12T07:22:35Z</time>
      </trkpt>
      <trkpt lat="46.622272599488497" lon="12.364771412685513">
        <ele>2312.1100000000001</ele>
        <time>2015-07-12T07:22:44Z</time>
      </trkpt>
      <trkpt lat="46.622301936149597" lon="12.364594386890531">
        <ele>2309.6999999999998</ele>
        <time>2015-07-12T07:22:56Z</time>
      </trkpt>
      <trkpt lat="46.622314676642418" lon="12.364560607820749">
        <ele>2308.7399999999998</ele>
        <time>2015-07-12T07:22:59Z</time>
      </trkpt>
      <trkpt lat="46.622371254488826" lon="12.364424066618085">
        <ele>2305.3800000000001</ele>
        <time>2015-07-12T07:23:10Z</time>
      </trkpt>
      <trkpt lat="46.622440489009023" lon="12.364314012229443">
        <ele>2302.0100000000002</ele>
        <time>2015-07-12T07:23:22Z</time>
      </trkpt>
      <trkpt lat="46.62251852452755" lon="12.364225666970015">
        <ele>2298.6500000000001</ele>
        <time>2015-07-12T07:23:33Z</time>
      </trkpt>
      <trkpt lat="46.622527493163943" lon="12.364217201247811">
        <ele>2298.6500000000001</ele>
        <time>2015-07-12T07:23:34Z</time>
      </trkpt>
      <trkpt lat="46.622611898928881" lon="12.364121647551656">
        <ele>2294.8000000000002</ele>
        <time>2015-07-12T07:23:45Z</time>
      </trkpt>
      <trkpt lat="46.622677193954587" lon="12.364004133269191">
        <ele>2291.4400000000001</ele>
        <time>2015-07-12T07:23:57Z</time>
      </trkpt>
      <trkpt lat="46.62271742708981" lon="12.363909082487226">
        <ele>2289.52</ele>
        <time>2015-07-12T07:24:05Z</time>
      </trkpt>
      <trkpt lat="46.622738800942898" lon="12.363846637308598">
        <ele>2289.04</ele>
        <time>2015-07-12T07:24:09Z</time>
      </trkpt>
      <trkpt lat="46.622811388224363" lon="12.363702468574047">
        <ele>2287.5900000000001</ele>
        <time>2015-07-12T07:24:21Z</time>
      </trkpt>
      <trkpt lat="46.622860506176949" lon="12.363580763339996">
        <ele>2285.6700000000001</ele>
        <time>2015-07-12T07:24:32Z</time>
      </trkpt>
      <trkpt lat="46.622925633564591" lon="12.363507421687245">
        <ele>2282.79</ele>
        <time>2015-07-12T07:24:38Z</time>
      </trkpt>
      <trkpt lat="46.622969303280115" lon="12.36348713748157">
        <ele>2280.8699999999999</ele>
        <time>2015-07-12T07:24:43Z</time>
      </trkpt>
      <trkpt lat="46.622992856428027" lon="12.363462243229151">
        <ele>2279.4200000000001</ele>
        <time>2015-07-12T07:24:46Z</time>
      </trkpt>
      <trkpt lat="46.623047590255737" lon="12.363333329558372">
        <ele>2276.54</ele>
        <time>2015-07-12T07:24:57Z</time>
      </trkpt>
      <trkpt lat="46.623063180595636" lon="12.36329753883183">
        <ele>2276.0599999999999</ele>
        <time>2015-07-12T07:25:00Z</time>
      </trkpt>
      <trkpt lat="46.623078854754567" lon="12.363278511911631">
        <ele>2276.0599999999999</ele>
        <time>2015-07-12T07:25:02Z</time>
      </trkpt>
      <trkpt lat="46.623150268569589" lon="12.363122524693608">
        <ele>2273.1700000000001</ele>
        <time>2015-07-12T07:25:16Z</time>
      </trkpt>
      <trkpt lat="46.623193183913827" lon="12.363070975989103">
        <ele>2271.73</ele>
        <time>2015-07-12T07:25:23Z</time>
      </trkpt>
      <trkpt lat="46.623201062902808" lon="12.363036191090941">
        <ele>2271.25</ele>
        <time>2015-07-12T07:25:26Z</time>
      </trkpt>
      <trkpt lat="46.623251689597964" lon="12.362957317382097">
        <ele>2269.8099999999999</ele>
        <time>2015-07-12T07:25:35Z</time>
      </trkpt>
      <trkpt lat="46.623309943825006" lon="12.362893782556057">
        <ele>2267.8899999999999</ele>
        <time>2015-07-12T07:25:45Z</time>
      </trkpt>
      <trkpt lat="46.623358307406306" lon="12.362784901633859">
        <ele>2265</ele>
        <time>2015-07-12T07:25:56Z</time>
      </trkpt>
      <trkpt lat="46.62334380671382" lon="12.362733939662576">
        <ele>2265</ele>
        <time>2015-07-12T07:26:00Z</time>
      </trkpt>
      <trkpt lat="46.623369790613651" lon="12.362688845023513">
        <ele>2265</ele>
        <time>2015-07-12T07:26:11Z</time>
      </trkpt>
      <trkpt lat="46.62338831461966" lon="12.362684570252895">
        <ele>2264.52</ele>
        <time>2015-07-12T07:26:26Z</time>
      </trkpt>
      <trkpt lat="46.623376496136189" lon="12.362696724012494">
        <ele>2264.52</ele>
        <time>2015-07-12T07:26:42Z</time>
      </trkpt>
      <trkpt lat="46.623388398438692" lon="12.362696807831526">
        <ele>2264.52</ele>
        <time>2015-07-12T07:26:58Z</time>
      </trkpt>
      <trkpt lat="46.623376663774252" lon="12.362698568031192">
        <ele>2265</ele>
        <time>2015-07-12T07:27:12Z</time>
      </trkpt>
      <trkpt lat="46.623325534164906" lon="12.36271851696074">
        <ele>2266.9299999999998</ele>
        <time>2015-07-12T07:27:22Z</time>
      </trkpt>
      <trkpt lat="46.623272392898798" lon="12.362665710970759">
        <ele>2271.25</ele>
        <time>2015-07-12T07:27:32Z</time>
      </trkpt>
      <trkpt lat="46.623208355158567" lon="12.362670572474599">
        <ele>2272.21</ele>
        <time>2015-07-12T07:27:42Z</time>
      </trkpt>
      <trkpt lat="46.623197374865413" lon="12.362617515027523">
        <ele>2274.6199999999999</ele>
        <time>2015-07-12T07:27:55Z</time>
      </trkpt>
      <trkpt lat="46.623295862227678" lon="12.362478626891971">
        <ele>2272.21</ele>
        <time>2015-07-12T07:28:10Z</time>
      </trkpt>
      <trkpt lat="46.623304663226008" lon="12.362415343523026">
        <ele>2271.73</ele>
        <time>2015-07-12T07:28:24Z</time>
      </trkpt>
      <trkpt lat="46.623347997665405" lon="12.362312329933047">
        <ele>2268.8499999999999</ele>
        <time>2015-07-12T07:28:32Z</time>
      </trkpt>
      <trkpt lat="46.623373478651047" lon="12.362254746258259">
        <ele>2266.4499999999998</ele>
        <time>2015-07-12T07:28:44Z</time>
      </trkpt>
      <trkpt lat="46.623362246900797" lon="12.362258350476623">
        <ele>2267.4099999999999</ele>
        <time>2015-07-12T07:28:55Z</time>
      </trkpt>
      <trkpt lat="46.623370796442032" lon="12.362260445952415">
        <ele>2267.4099999999999</ele>
        <time>2015-07-12T07:29:11Z</time>
      </trkpt>
      <trkpt lat="46.623289659619331" lon="12.362185847014189">
        <ele>2269.8099999999999</ele>
        <time>2015-07-12T07:29:25Z</time>
      </trkpt>
      <trkpt lat="46.62328370846808" lon="12.362189115956426">
        <ele>2269.3299999999999</ele>
        <time>2015-07-12T07:29:40Z</time>
      </trkpt>
      <trkpt lat="46.62328127771616" lon="12.362160868942738">
        <ele>2269.3299999999999</ele>
        <time>2015-07-12T07:29:56Z</time>
      </trkpt>
      <trkpt lat="46.62331304512918" lon="12.362172603607178">
        <ele>2268.8499999999999</ele>
        <time>2015-07-12T07:30:07Z</time>
      </trkpt>
      <trkpt lat="46.623314637690783" lon="12.362185092642903">
        <ele>2268.8499999999999</ele>
        <time>2015-07-12T07:30:22Z</time>
      </trkpt>
      <trkpt lat="46.623337185010314" lon="12.362161288037896">
        <ele>2268.8499999999999</ele>
        <time>2015-07-12T07:30:39Z</time>
      </trkpt>
      <trkpt lat="46.623342297971249" lon="12.362161371856928">
        <ele>2268.3699999999999</ele>
        <time>2015-07-12T07:30:54Z</time>
      </trkpt>
      <trkpt lat="46.623351015150547" lon="12.362162293866277">
        <ele>2269.3299999999999</ele>
        <time>2015-07-12T07:31:06Z</time>
      </trkpt>
      <trkpt lat="46.623334502801299" lon="12.362143350765109">
        <ele>2269.3299999999999</ele>
        <time>2015-07-12T07:31:22Z</time>
      </trkpt>
      <trkpt lat="46.623295862227678" lon="12.362081073224545">
        <ele>2271.25</ele>
        <time>2015-07-12T07:31:33Z</time>
      </trkpt>
      <trkpt lat="46.62323878146708" lon="12.361983926966786">
        <ele>2272.21</ele>
        <time>2015-07-12T07:31:48Z</time>
      </trkpt>
      <trkpt lat="46.623332239687443" lon="12.36191569827497">
        <ele>2270.29</ele>
        <time>2015-07-12T07:32:05Z</time>
      </trkpt>
      <trkpt lat="46.623391835018992" lon="12.361810756847262">
        <ele>2268.8499999999999</ele>
        <time>2015-07-12T07:32:14Z</time>
      </trkpt>
      <trkpt lat="46.623394936323166" lon="12.361689386889338">
        <ele>2268.3699999999999</ele>
        <time>2015-07-12T07:32:25Z</time>
      </trkpt>
      <trkpt lat="46.623375657945871" lon="12.361635072156787">
        <ele>2267.4099999999999</ele>
        <time>2015-07-12T07:32:34Z</time>
      </trkpt>
      <trkpt lat="46.62339074537158" lon="12.361548570916057">
        <ele>2266.4499999999998</ele>
        <time>2015-07-12T07:32:47Z</time>
      </trkpt>
      <trkpt lat="46.623396947979927" lon="12.361447149887681">
        <ele>2265.48</ele>
        <time>2015-07-12T07:32:58Z</time>
      </trkpt>
      <trkpt lat="46.623381357640028" lon="12.36139333806932">
        <ele>2265.96</ele>
        <time>2015-07-12T07:33:08Z</time>
      </trkpt>
      <trkpt lat="46.623388146981597" lon="12.361282948404551">
        <ele>2265.96</ele>
        <time>2015-07-12T07:33:17Z</time>
      </trkpt>
      <trkpt lat="46.623367695137858" lon="12.361186221241951">
        <ele>2266.9299999999998</ele>
        <time>2015-07-12T07:33:28Z</time>
      </trkpt>
      <trkpt lat="46.623375825583935" lon="12.361128050833941">
        <ele>2268.3699999999999</ele>
        <time>2015-07-12T07:33:35Z</time>
      </trkpt>
      <trkpt lat="46.623374735936522" lon="12.36109334975481">
        <ele>2266.9299999999998</ele>
        <time>2015-07-12T07:33:46Z</time>
      </trkpt>
      <trkpt lat="46.623352942988276" lon="12.361044147983193">
        <ele>2267.8899999999999</ele>
        <time>2015-07-12T07:33:56Z</time>
      </trkpt>
      <trkpt lat="46.62334238179028" lon="12.360944906249642">
        <ele>2268.8499999999999</ele>
        <time>2015-07-12T07:34:07Z</time>
      </trkpt>
      <trkpt lat="46.623349422588944" lon="12.360880952328444">
        <ele>2269.8099999999999</ele>
        <time>2015-07-12T07:34:16Z</time>
      </trkpt>
      <trkpt lat="46.62335118278861" lon="12.360839126631618">
        <ele>2270.29</ele>
        <time>2015-07-12T07:34:25Z</time>
      </trkpt>
      <trkpt lat="46.623342130333185" lon="12.360790427774191">
        <ele>2270.29</ele>
        <time>2015-07-12T07:34:33Z</time>
      </trkpt>
      <trkpt lat="46.623345566913486" lon="12.360756983980536">
        <ele>2270.77</ele>
        <time>2015-07-12T07:34:43Z</time>
      </trkpt>
      <trkpt lat="46.623330898582935" lon="12.360721360892057">
        <ele>2270.77</ele>
        <time>2015-07-12T07:34:52Z</time>
      </trkpt>
      <trkpt lat="46.623296113684773" lon="12.36076938919723">
        <ele>2272.21</ele>
        <time>2015-07-12T07:35:04Z</time>
      </trkpt>
      <trkpt lat="46.623244816437364" lon="12.36072882078588">
        <ele>2274.1399999999999</ele>
        <time>2015-07-12T07:35:14Z</time>
      </trkpt>
      <trkpt lat="46.623210953548551" lon="12.360717505216599">
        <ele>2275.0999999999999</ele>
        <time>2015-07-12T07:35:19Z</time>
      </trkpt>
      <trkpt lat="46.62316988222301" lon="12.360673667863011">
        <ele>2275.0999999999999</ele>
        <time>2015-07-12T07:35:28Z</time>
      </trkpt>
      <trkpt lat="46.623097462579608" lon="12.360588926821947">
        <ele>2275.5799999999999</ele>
        <time>2015-07-12T07:35:39Z</time>
      </trkpt>
      <trkpt lat="46.623069802299142" lon="12.360561266541481">
        <ele>2276.0599999999999</ele>
        <time>2015-07-12T07:35:43Z</time>
      </trkpt>
      <trkpt lat="46.623019427061081" lon="12.360471663996577">
        <ele>2277.02</ele>
        <time>2015-07-12T07:35:53Z</time>
      </trkpt>
      <trkpt lat="46.62300375290215" lon="12.360440315678716">
        <ele>2277.5</ele>
        <time>2015-07-12T07:35:59Z</time>
      </trkpt>
      <trkpt lat="46.622993862256408" lon="12.360423803329468">
        <ele>2277.5</ele>
        <time>2015-07-12T07:36:01Z</time>
      </trkpt>
      <trkpt lat="46.622943319380283" lon="12.36035842448473">
        <ele>2278.9400000000001</ele>
        <time>2015-07-12T07:36:11Z</time>
      </trkpt>
      <trkpt lat="46.622904594987631" lon="12.360259015113115">
        <ele>2280.3800000000001</ele>
        <time>2015-07-12T07:36:21Z</time>
      </trkpt>
      <trkpt lat="46.622885065153241" lon="12.360183577984571">
        <ele>2281.8299999999999</ele>
        <time>2015-07-12T07:36:31Z</time>
      </trkpt>
      <trkpt lat="46.622898727655411" lon="12.360144685953856">
        <ele>2282.3099999999999</ele>
        <time>2015-07-12T07:36:41Z</time>
      </trkpt>
      <trkpt lat="46.62286352366209" lon="12.360097663477063">
        <ele>2283.75</ele>
        <time>2015-07-12T07:36:50Z</time>
      </trkpt>
      <trkpt lat="46.62282882258296" lon="12.36001493409276">
        <ele>2284.23</ele>
        <time>2015-07-12T07:37:00Z</time>
      </trkpt>
      <trkpt lat="46.622813567519188" lon="12.359963301569223">
        <ele>2285.6700000000001</ele>
        <time>2015-07-12T07:37:09Z</time>
      </trkpt>
      <trkpt lat="46.622832510620356" lon="12.359919967129827">
        <ele>2286.6300000000001</ele>
        <time>2015-07-12T07:37:18Z</time>
      </trkpt>
      <trkpt lat="46.622830666601658" lon="12.359917955473065">
        <ele>2287.1100000000001</ele>
        <time>2015-07-12T07:37:28Z</time>
      </trkpt>
      <trkpt lat="46.622814992442727" lon="12.359864478930831">
        <ele>2289.52</ele>
        <time>2015-07-12T07:37:37Z</time>
      </trkpt>
      <trkpt lat="46.6227853205055" lon="12.35982583835721">
        <ele>2289.52</ele>
        <time>2015-07-12T07:37:47Z</time>
      </trkpt>
      <trkpt lat="46.62276042625308" lon="12.359772277995944">
        <ele>2290</ele>
        <time>2015-07-12T07:37:56Z</time>
      </trkpt>
      <trkpt lat="46.622792193666101" lon="12.359764147549868">
        <ele>2290</ele>
        <time>2015-07-12T07:38:03Z</time>
      </trkpt>
      <trkpt lat="46.6227594204247" lon="12.35971150919795">
        <ele>2291.4400000000001</ele>
        <time>2015-07-12T07:38:14Z</time>
      </trkpt>
      <trkpt lat="46.622732011601329" lon="12.359697176143527">
        <ele>2292.4000000000001</ele>
        <time>2015-07-12T07:38:20Z</time>
      </trkpt>
      <trkpt lat="46.622709045186639" lon="12.359671946614981">
        <ele>2293.3600000000001</ele>
        <time>2015-07-12T07:38:26Z</time>
      </trkpt>
      <trkpt lat="46.622676020488143" lon="12.359625175595284">
        <ele>2293.8400000000001</ele>
        <time>2015-07-12T07:38:32Z</time>
      </trkpt>
      <trkpt lat="46.622663028538227" lon="12.359609082341194">
        <ele>2294.8000000000002</ele>
        <time>2015-07-12T07:38:39Z</time>
      </trkpt>
      <trkpt lat="46.622643666341901" lon="12.359573291614652">
        <ele>2296.25</ele>
        <time>2015-07-12T07:38:49Z</time>
      </trkpt>
      <trkpt lat="46.622637715190649" lon="12.359518054872751">
        <ele>2296.73</ele>
        <time>2015-07-12T07:38:59Z</time>
      </trkpt>
      <trkpt lat="46.622649533674121" lon="12.359504560008645">
        <ele>2297.6900000000001</ele>
        <time>2015-07-12T07:39:09Z</time>
      </trkpt>
      <trkpt lat="46.622639978304505" lon="12.359460303559899">
        <ele>2299.1300000000001</ele>
        <time>2015-07-12T07:39:20Z</time>
      </trkpt>
      <trkpt lat="46.622634446248412" lon="12.359389644116163">
        <ele>2299.6100000000001</ele>
        <time>2015-07-12T07:39:29Z</time>
      </trkpt>
      <trkpt lat="46.6226299200207" lon="12.359373550862074">
        <ele>2300.0900000000001</ele>
        <time>2015-07-12T07:39:36Z</time>
      </trkpt>
      <trkpt lat="46.622644504532218" lon="12.359365085139871">
        <ele>2299.1300000000001</ele>
        <time>2015-07-12T07:39:41Z</time>
      </trkpt>
      <trkpt lat="46.622641487047076" lon="12.359383441507816">
        <ele>2300.0900000000001</ele>
        <time>2015-07-12T07:39:52Z</time>
      </trkpt>
      <trkpt lat="46.622657664120197" lon="12.359328456223011">
        <ele>2301.5300000000002</ele>
        <time>2015-07-12T07:40:07Z</time>
      </trkpt>
      <trkpt lat="46.622636541724205" lon="12.359255282208323">
        <ele>2302.4899999999998</ele>
        <time>2015-07-12T07:40:18Z</time>
      </trkpt>
      <trkpt lat="46.622621705755591" lon="12.359235836192966">
        <ele>2303.46</ele>
        <time>2015-07-12T07:40:30Z</time>
      </trkpt>
      <trkpt lat="46.622599996626377" lon="12.359184036031365">
        <ele>2304.4200000000001</ele>
        <time>2015-07-12T07:40:39Z</time>
      </trkpt>
      <trkpt lat="46.622577114030719" lon="12.359157213941216">
        <ele>2304.9000000000001</ele>
        <time>2015-07-12T07:40:51Z</time>
      </trkpt>
      <trkpt lat="46.6225815564394" lon="12.3591339122504">
        <ele>2305.3800000000001</ele>
        <time>2015-07-12T07:40:58Z</time>
      </trkpt>
      <trkpt lat="46.622584154829383" lon="12.359130559489131">
        <ele>2305.3800000000001</ele>
        <time>2015-07-12T07:40:59Z</time>
      </trkpt>
      <trkpt lat="46.622531181201339" lon="12.35908362083137">
        <ele>2306.3400000000001</ele>
        <time>2015-07-12T07:41:08Z</time>
      </trkpt>
      <trkpt lat="46.622517853975296" lon="12.359066354110837">
        <ele>2306.3400000000001</ele>
        <time>2015-07-12T07:41:17Z</time>
      </trkpt>
      <trkpt lat="46.622501760721207" lon="12.359053948894143">
        <ele>2306.8200000000002</ele>
        <time>2015-07-12T07:41:20Z</time>
      </trkpt>
      <trkpt lat="46.622510310262442" lon="12.359037352725863">
        <ele>2307.3000000000002</ele>
        <time>2015-07-12T07:41:28Z</time>
      </trkpt>
      <trkpt lat="46.622482901439071" lon="12.358986726030707">
        <ele>2308.2600000000002</ele>
        <time>2015-07-12T07:41:37Z</time>
      </trkpt>
      <trkpt lat="46.62246135994792" lon="12.358903409913182">
        <ele>2309.2199999999998</ele>
        <time>2015-07-12T07:41:47Z</time>
      </trkpt>
      <trkpt lat="46.622463958337903" lon="12.358874408528209">
        <ele>2309.6999999999998</ele>
        <time>2015-07-12T07:42:00Z</time>
      </trkpt>
      <trkpt lat="46.622463203966618" lon="12.358854962512851">
        <ele>2310.1900000000001</ele>
        <time>2015-07-12T07:42:03Z</time>
      </trkpt>
      <trkpt lat="46.622408470138907" lon="12.358771311119199">
        <ele>2311.6300000000001</ele>
        <time>2015-07-12T07:42:13Z</time>
      </trkpt>
      <trkpt lat="46.622422887012362" lon="12.358755301684141">
        <ele>2311.6300000000001</ele>
        <time>2015-07-12T07:42:27Z</time>
      </trkpt>
      <trkpt lat="46.622421126812696" lon="12.358703836798668">
        <ele>2312.5900000000001</ele>
        <time>2015-07-12T07:42:37Z</time>
      </trkpt>
      <trkpt lat="46.622399836778641" lon="12.358641978353262">
        <ele>2313.5500000000002</ele>
        <time>2015-07-12T07:42:47Z</time>
      </trkpt>
      <trkpt lat="46.622384330257773" lon="12.358612725511193">
        <ele>2314.0300000000002</ele>
        <time>2015-07-12T07:42:55Z</time>
      </trkpt>
      <trkpt lat="46.622389694675803" lon="12.358571821823716">
        <ele>2314.0300000000002</ele>
        <time>2015-07-12T07:43:04Z</time>
      </trkpt>
      <trkpt lat="46.622377121821046" lon="12.358544077724218">
        <ele>2314.5100000000002</ele>
        <time>2015-07-12T07:43:13Z</time>
      </trkpt>
      <trkpt lat="46.622376451268792" lon="12.358497306704521">
        <ele>2314.9899999999998</ele>
        <time>2015-07-12T07:43:25Z</time>
      </trkpt>
      <trkpt lat="46.62236999720335" lon="12.35847819596529">
        <ele>2315.4699999999998</ele>
        <time>2015-07-12T07:43:39Z</time>
      </trkpt>
      <trkpt lat="46.622412409633398" lon="12.358473166823387">
        <ele>2314.9899999999998</ele>
        <time>2015-07-12T07:43:54Z</time>
      </trkpt>
      <trkpt lat="46.622447445988655" lon="12.3585070297122">
        <ele>2315.9499999999998</ele>
        <time>2015-07-12T07:44:10Z</time>
      </trkpt>
      <trkpt lat="46.622454319149256" lon="12.358477776870131">
        <ele>2316.9099999999999</ele>
        <time>2015-07-12T07:44:19Z</time>
      </trkpt>
      <trkpt lat="46.622463455423713" lon="12.358432514593005">
        <ele>2318.8400000000001</ele>
        <time>2015-07-12T07:44:28Z</time>
      </trkpt>
      <trkpt lat="46.622464712709188" lon="12.358377948403358">
        <ele>2319.3200000000002</ele>
        <time>2015-07-12T07:44:38Z</time>
      </trkpt>
      <trkpt lat="46.622472088783979" lon="12.358378283679485">
        <ele>2319.3200000000002</ele>
        <time>2015-07-12T07:44:48Z</time>
      </trkpt>
      <trkpt lat="46.622472507879138" lon="12.358341738581657">
        <ele>2320.2800000000002</ele>
        <time>2015-07-12T07:44:57Z</time>
      </trkpt>
      <trkpt lat="46.622444009408355" lon="12.358401417732239">
        <ele>2319.8000000000002</ele>
        <time>2015-07-12T07:45:14Z</time>
      </trkpt>
      <trkpt lat="46.622434034943581" lon="12.358351796865463">
        <ele>2320.2800000000002</ele>
        <time>2015-07-12T07:45:25Z</time>
      </trkpt>
      <trkpt lat="46.622430430725217" lon="12.358316173776984">
        <ele>2321.2399999999998</ele>
        <time>2015-07-12T07:45:35Z</time>
      </trkpt>
      <trkpt lat="46.622423557564616" lon="12.358280550688505">
        <ele>2321.7199999999998</ele>
        <time>2015-07-12T07:45:47Z</time>
      </trkpt>
      <trkpt lat="46.622417522594333" lon="12.358243921771646">
        <ele>2322.6799999999998</ele>
        <time>2015-07-12T07:45:58Z</time>
      </trkpt>
      <trkpt lat="46.622414337471128" lon="12.358227828517556">
        <ele>2324.1199999999999</ele>
        <time>2015-07-12T07:46:08Z</time>
      </trkpt>
      <trkpt lat="46.62239246070385" lon="12.358269402757287">
        <ele>2326.0500000000002</ele>
        <time>2015-07-12T07:46:19Z</time>
      </trkpt>
      <trkpt lat="46.622339487075806" lon="12.358296141028404">
        <ele>2327.0100000000002</ele>
        <time>2015-07-12T07:46:29Z</time>
      </trkpt>
      <trkpt lat="46.622352143749595" lon="12.358280969783664">
        <ele>2326.5300000000002</ele>
        <time>2015-07-12T07:46:39Z</time>
      </trkpt>
      <trkpt lat="46.622343510389328" lon="12.35829203389585">
        <ele>2326.0500000000002</ele>
        <time>2015-07-12T07:46:51Z</time>
      </trkpt>
      <trkpt lat="46.622326243668795" lon="12.3583067022264">
        <ele>2326.5300000000002</ele>
        <time>2015-07-12T07:47:14Z</time>
      </trkpt>
      <trkpt lat="46.622351305559278" lon="12.358268480747938">
        <ele>2326.0500000000002</ele>
        <time>2015-07-12T07:47:30Z</time>
      </trkpt>
      <trkpt lat="46.622368069365621" lon="12.35829153098166">
        <ele>2326.0500000000002</ele>
        <time>2015-07-12T07:47:53Z</time>
      </trkpt>
      <trkpt lat="46.622328506782651" lon="12.358338050544262">
        <ele>2326.0500000000002</ele>
        <time>2015-07-12T07:48:17Z</time>
      </trkpt>
      <trkpt lat="46.622356167063117" lon="12.358290273696184">
        <ele>2326.0500000000002</ele>
        <time>2015-07-12T07:48:41Z</time>
      </trkpt>
      <trkpt lat="46.622337978333235" lon="12.358292117714882">
        <ele>2326.0500000000002</ele>
        <time>2015-07-12T07:49:16Z</time>
      </trkpt>
      <trkpt lat="46.622354155406356" lon="12.358243251219392">
        <ele>2326.0500000000002</ele>
        <time>2015-07-12T07:49:45Z</time>
      </trkpt>
      <trkpt lat="46.622314006090164" lon="12.358284322544932">
        <ele>2326.0500000000002</ele>
        <time>2015-07-12T07:50:09Z</time>
      </trkpt>
      <trkpt lat="46.622302774339914" lon="12.358299409970641">
        <ele>2326.0500000000002</ele>
        <time>2015-07-12T07:50:33Z</time>
      </trkpt>
      <trkpt lat="46.62226740270853" lon="12.358292117714882">
        <ele>2326.0500000000002</ele>
        <time>2015-07-12T07:51:01Z</time>
      </trkpt>
      <trkpt lat="46.622233707457781" lon="12.358319694176316">
        <ele>2326.0500000000002</ele>
        <time>2015-07-12T07:51:26Z</time>
      </trkpt>
      <trkpt lat="46.622225409373641" lon="12.358325310051441">
        <ele>2326.0500000000002</ele>
        <time>2015-07-12T07:51:50Z</time>
      </trkpt>
      <trkpt lat="46.622215351089835" lon="12.358348779380322">
        <ele>2326.5300000000002</ele>
        <time>2015-07-12T07:52:16Z</time>
      </trkpt>
      <trkpt lat="46.622212333604693" lon="12.358354143798351">
        <ele>2326.5300000000002</ele>
        <time>2015-07-12T07:52:33Z</time>
      </trkpt>
      <trkpt lat="46.622243765741587" lon="12.358337044715881">
        <ele>2326.5300000000002</ele>
        <time>2015-07-12T07:52:44Z</time>
      </trkpt>
      <trkpt lat="46.622255332767963" lon="12.358318939805031">
        <ele>2326.5300000000002</ele>
        <time>2015-07-12T07:53:07Z</time>
      </trkpt>
      <trkpt lat="46.622221134603024" lon="12.358358670026064">
        <ele>2326.5300000000002</ele>
        <time>2015-07-12T07:53:31Z</time>
      </trkpt>
      <trkpt lat="46.622227001935244" lon="12.358348947018385">
        <ele>2326.0500000000002</ele>
        <time>2015-07-12T07:53:51Z</time>
      </trkpt>
      <trkpt lat="46.622257512062788" lon="12.35833989456296">
        <ele>2326.0500000000002</ele>
        <time>2015-07-12T07:54:06Z</time>
      </trkpt>
      <trkpt lat="46.622192217037082" lon="12.358378283679485">
        <ele>2326.0500000000002</ele>
        <time>2015-07-12T07:54:29Z</time>
      </trkpt>
      <trkpt lat="46.62216966971755" lon="12.358384737744927">
        <ele>2326.5300000000002</ele>
        <time>2015-07-12T07:55:01Z</time>
      </trkpt>
      <trkpt lat="46.622213926166296" lon="12.358369901776314">
        <ele>2326.0500000000002</ele>
        <time>2015-07-12T07:55:24Z</time>
      </trkpt>
      <trkpt lat="46.62220093421638" lon="12.358387587592006">
        <ele>2326.0500000000002</ele>
        <time>2015-07-12T07:55:52Z</time>
      </trkpt>
      <trkpt lat="46.622198084369302" lon="12.358390269801021">
        <ele>2326.5300000000002</ele>
        <time>2015-07-12T07:56:15Z</time>
      </trkpt>
      <trkpt lat="46.62203187122941" lon="12.358523206785321">
        <ele>2326.5300000000002</ele>
        <time>2015-07-12T07:56:40Z</time>
      </trkpt>
      <trkpt lat="46.622033882886171" lon="12.358501749113202">
        <ele>2326.5300000000002</ele>
        <time>2015-07-12T07:57:01Z</time>
      </trkpt>
      <trkpt lat="46.622005132958293" lon="12.35852412879467">
        <ele>2326.5300000000002</ele>
        <time>2015-07-12T07:57:25Z</time>
      </trkpt>
      <trkpt lat="46.622016867622733" lon="12.358534438535571">
        <ele>2326.5300000000002</ele>
        <time>2015-07-12T07:57:50Z</time>
      </trkpt>
      <trkpt lat="46.621783766895533" lon="12.357664983719587">
        <ele>2377.48</ele>
        <time>2015-07-12T08:09:23Z</time>
      </trkpt>
      <trkpt lat="46.621796004474163" lon="12.357543362304568">
        <ele>2379.4000000000001</ele>
        <time>2015-07-12T08:09:36Z</time>
      </trkpt>
      <trkpt lat="46.621788376942277" lon="12.357471277937293">
        <ele>2381.3200000000002</ele>
        <time>2015-07-12T08:09:47Z</time>
      </trkpt>
      <trkpt lat="46.621809834614396" lon="12.357488041743636">
        <ele>2381.3200000000002</ele>
        <time>2015-07-12T08:09:58Z</time>
      </trkpt>
      <trkpt lat="46.62179147824645" lon="12.357372036203742">
        <ele>2382.7600000000002</ele>
        <time>2015-07-12T08:10:10Z</time>
      </trkpt>
      <trkpt lat="46.62177873775363" lon="12.357263825833797">
        <ele>2383.73</ele>
        <time>2015-07-12T08:10:21Z</time>
      </trkpt>
      <trkpt lat="46.621778905391693" lon="12.357089146971703">
        <ele>2385.1700000000001</ele>
        <time>2015-07-12T08:10:34Z</time>
      </trkpt>
      <trkpt lat="46.621751831844449" lon="12.356989486142993">
        <ele>2388.0500000000002</ele>
        <time>2015-07-12T08:10:47Z</time>
      </trkpt>
      <trkpt lat="46.621734481304884" lon="12.356877252459526">
        <ele>2389.4899999999998</ele>
        <time>2015-07-12T08:10:59Z</time>
      </trkpt>
      <trkpt lat="46.621725596487522" lon="12.356797624379396">
        <ele>2391.9000000000001</ele>
        <time>2015-07-12T08:11:11Z</time>
      </trkpt>
      <trkpt lat="46.621742025017738" lon="12.356693185865879">
        <ele>2393.8200000000002</ele>
        <time>2015-07-12T08:11:22Z</time>
      </trkpt>
      <trkpt lat="46.621751664206386" lon="12.356632584705949">
        <ele>2395.7399999999998</ele>
        <time>2015-07-12T08:11:31Z</time>
      </trkpt>
      <trkpt lat="46.621764153242111" lon="12.356540719047189">
        <ele>2397.6700000000001</ele>
        <time>2015-07-12T08:11:42Z</time>
      </trkpt>
      <trkpt lat="46.621753424406052" lon="12.356549268588424">
        <ele>2398.6300000000001</ele>
        <time>2015-07-12T08:11:56Z</time>
      </trkpt>
      <trkpt lat="46.621754849329591" lon="12.35652906820178">
        <ele>2399.5900000000001</ele>
        <time>2015-07-12T08:11:59Z</time>
      </trkpt>
      <trkpt lat="46.621755436062813" lon="12.356456648558378">
        <ele>2400.5500000000002</ele>
        <time>2015-07-12T08:12:08Z</time>
      </trkpt>
      <trkpt lat="46.621726099401712" lon="12.356418091803789">
        <ele>2402.4699999999998</ele>
        <time>2015-07-12T08:12:18Z</time>
      </trkpt>
      <trkpt lat="46.621759124100208" lon="12.356362603604794">
        <ele>2403.4299999999998</ele>
        <time>2015-07-12T08:12:24Z</time>
      </trkpt>
      <trkpt lat="46.621764404699206" lon="12.356304433196783">
        <ele>2405.3600000000001</ele>
        <time>2015-07-12T08:12:35Z</time>
      </trkpt>
      <trkpt lat="46.621763650327921" lon="12.356228493154049">
        <ele>2407.2800000000002</ele>
        <time>2015-07-12T08:12:46Z</time>
      </trkpt>
      <trkpt lat="46.621741522103548" lon="12.356286663562059">
        <ele>2408.2399999999998</ele>
        <time>2015-07-12T08:12:57Z</time>
      </trkpt>
      <trkpt lat="46.621725931763649" lon="12.356206784024835">
        <ele>2409.6799999999998</ele>
        <time>2015-07-12T08:13:07Z</time>
      </trkpt>
      <trkpt lat="46.621714280918241" lon="12.356133861467242">
        <ele>2411.5999999999999</ele>
        <time>2015-07-12T08:13:19Z</time>
      </trkpt>
      <trkpt lat="46.621705144643784" lon="12.356049371883273">
        <ele>2413.0500000000002</ele>
        <time>2015-07-12T08:13:30Z</time>
      </trkpt>
      <trkpt lat="46.62168787792325" lon="12.355988183990121">
        <ele>2414.4899999999998</ele>
        <time>2015-07-12T08:13:39Z</time>
      </trkpt>
      <trkpt lat="46.621668683364987" lon="12.355907214805484">
        <ele>2415.9299999999998</ele>
        <time>2015-07-12T08:13:51Z</time>
      </trkpt>
      <trkpt lat="46.621631635352969" lon="12.355833118781447">
        <ele>2417.3699999999999</ele>
        <time>2015-07-12T08:14:01Z</time>
      </trkpt>
      <trkpt lat="46.621632557362318" lon="12.355690710246563">
        <ele>2418.8099999999999</ele>
        <time>2015-07-12T08:14:13Z</time>
      </trkpt>
      <trkpt lat="46.621646890416741" lon="12.355654248967767">
        <ele>2419.3000000000002</ele>
        <time>2015-07-12T08:14:22Z</time>
      </trkpt>
      <trkpt lat="46.621629539877176" lon="12.35562901943922">
        <ele>2419.7800000000002</ele>
        <time>2015-07-12T08:14:31Z</time>
      </trkpt>
      <trkpt lat="46.621614536270499" lon="12.355541763827205">
        <ele>2421.2199999999998</ele>
        <time>2015-07-12T08:14:40Z</time>
      </trkpt>
      <trkpt lat="46.62160087376833" lon="12.355462638661265">
        <ele>2423.1399999999999</ele>
        <time>2015-07-12T08:14:50Z</time>
      </trkpt>
      <trkpt lat="46.621605567634106" lon="12.355418046936393">
        <ele>2425.0599999999999</ele>
        <time>2015-07-12T08:14:54Z</time>
      </trkpt>
      <trkpt lat="46.621601209044456" lon="12.355391895398498">
        <ele>2424.0999999999999</ele>
        <time>2015-07-12T08:14:57Z</time>
      </trkpt>
      <trkpt lat="46.621588384732604" lon="12.35534948296845">
        <ele>2426.02</ele>
        <time>2015-07-12T08:15:10Z</time>
      </trkpt>
      <trkpt lat="46.621715957298875" lon="12.355210511013865">
        <ele>2425.54</ele>
        <time>2015-07-12T08:15:34Z</time>
      </trkpt>
      <trkpt lat="46.621633563190699" lon="12.355282343924046">
        <ele>2425.54</ele>
        <time>2015-07-12T08:15:54Z</time>
      </trkpt>
      <trkpt lat="46.621567346155643" lon="12.35532115213573">
        <ele>2426.5</ele>
        <time>2015-07-12T08:16:10Z</time>
      </trkpt>
      <trkpt lat="46.621512193232775" lon="12.355277063325047">
        <ele>2427.9499999999998</ele>
        <time>2015-07-12T08:16:20Z</time>
      </trkpt>
      <trkpt lat="46.621482186019421" lon="12.355271866545081">
        <ele>2428.4299999999998</ele>
        <time>2015-07-12T08:16:23Z</time>
      </trkpt>
      <trkpt lat="46.62145821377635" lon="12.355263317003846">
        <ele>2428.9099999999999</ele>
        <time>2015-07-12T08:16:25Z</time>
      </trkpt>
      <trkpt lat="46.621360229328275" lon="12.355215540155768">
        <ele>2430.3499999999999</ele>
        <time>2015-07-12T08:16:36Z</time>
      </trkpt>
      <trkpt lat="46.621358720585704" lon="12.355120237916708">
        <ele>2432.75</ele>
        <time>2015-07-12T08:16:46Z</time>
      </trkpt>
      <trkpt lat="46.621374227106571" lon="12.35503239557147">
        <ele>2435.6399999999999</ele>
        <time>2015-07-12T08:16:55Z</time>
      </trkpt>
      <trkpt lat="46.621380262076855" lon="12.354925442487001">
        <ele>2437.0799999999999</ele>
        <time>2015-07-12T08:17:07Z</time>
      </trkpt>
      <trkpt lat="46.621384955942631" lon="12.35482469201088">
        <ele>2439</ele>
        <time>2015-07-12T08:17:19Z</time>
      </trkpt>
      <trkpt lat="46.621371125802398" lon="12.354710111394525">
        <ele>2440.9200000000001</ele>
        <time>2015-07-12T08:17:32Z</time>
      </trkpt>
      <trkpt lat="46.621347656473517" lon="12.354626124724746">
        <ele>2442.8499999999999</ele>
        <time>2015-07-12T08:17:45Z</time>
      </trkpt>
      <trkpt lat="46.62134581245482" lon="12.354510119184852">
        <ele>2444.77</ele>
        <time>2015-07-12T08:17:59Z</time>
      </trkpt>
      <trkpt lat="46.621350254863501" lon="12.354422025382519">
        <ele>2446.21</ele>
        <time>2015-07-12T08:18:12Z</time>
      </trkpt>
      <trkpt lat="46.621340615674853" lon="12.354358658194542">
        <ele>2448.1300000000001</ele>
        <time>2015-07-12T08:18:24Z</time>
      </trkpt>
      <trkpt lat="46.621337849646807" lon="12.35430140979588">
        <ele>2449.5799999999999</ele>
        <time>2015-07-12T08:18:34Z</time>
      </trkpt>
      <trkpt lat="46.621324773877859" lon="12.354239299893379">
        <ele>2451.5</ele>
        <time>2015-07-12T08:18:44Z</time>
      </trkpt>
      <trkpt lat="46.621307423338294" lon="12.354305014014244">
        <ele>2453.4200000000001</ele>
        <time>2015-07-12T08:18:54Z</time>
      </trkpt>
      <trkpt lat="46.621282026171684" lon="12.354354299604893">
        <ele>2454.3800000000001</ele>
        <time>2015-07-12T08:19:07Z</time>
      </trkpt>
      <trkpt lat="46.621258724480867" lon="12.354378523305058">
        <ele>2455.8200000000002</ele>
        <time>2015-07-12T08:19:22Z</time>
      </trkpt>
      <trkpt lat="46.621234333142638" lon="12.354396041482687">
        <ele>2457.27</ele>
        <time>2015-07-12T08:19:33Z</time>
      </trkpt>
      <trkpt lat="46.62122662179172" lon="12.354347594082355">
        <ele>2457.75</ele>
        <time>2015-07-12T08:19:49Z</time>
      </trkpt>
      <trkpt lat="46.621185969561338" lon="12.354364106431603">
        <ele>2460.1500000000001</ele>
        <time>2015-07-12T08:19:58Z</time>
      </trkpt>
      <trkpt lat="46.621152525767684" lon="12.354365615174174">
        <ele>2461.5900000000001</ele>
        <time>2015-07-12T08:20:08Z</time>
      </trkpt>
      <trkpt lat="46.621157554909587" lon="12.354310965165496">
        <ele>2462.5500000000002</ele>
        <time>2015-07-12T08:20:16Z</time>
      </trkpt>
      <trkpt lat="46.621158393099904" lon="12.354268971830606">
        <ele>2463.04</ele>
        <time>2015-07-12T08:20:27Z</time>
      </trkpt>
      <trkpt lat="46.621146239340305" lon="12.354208705946803">
        <ele>2464.96</ele>
        <time>2015-07-12T08:20:38Z</time>
      </trkpt>
      <trkpt lat="46.621124697849154" lon="12.354181548580527">
        <ele>2466.4000000000001</ele>
        <time>2015-07-12T08:20:49Z</time>
      </trkpt>
      <trkpt lat="46.621097875759006" lon="12.354165371507406">
        <ele>2468.3200000000002</ele>
        <time>2015-07-12T08:20:59Z</time>
      </trkpt>
      <trkpt lat="46.621064096689224" lon="12.354245083406568">
        <ele>2470.2399999999998</ele>
        <time>2015-07-12T08:21:14Z</time>
      </trkpt>
      <trkpt lat="46.621016906574368" lon="12.354295961558819">
        <ele>2472.1700000000001</ele>
        <time>2015-07-12T08:21:25Z</time>
      </trkpt>
      <trkpt lat="46.621015733107924" lon="12.354311216622591">
        <ele>2472.6500000000001</ele>
        <time>2015-07-12T08:21:38Z</time>
      </trkpt>
      <trkpt lat="46.621003411710262" lon="12.354289926588535">
        <ele>2472.6500000000001</ele>
        <time>2015-07-12T08:21:51Z</time>
      </trkpt>
      <trkpt lat="46.620970219373703" lon="12.354352120310068">
        <ele>2473.6100000000001</ele>
        <time>2015-07-12T08:22:03Z</time>
      </trkpt>
      <trkpt lat="46.620953874662519" lon="12.35437911003828">
        <ele>2474.0900000000001</ele>
        <time>2015-07-12T08:22:16Z</time>
      </trkpt>
      <trkpt lat="46.620935937389731" lon="12.354415152221918">
        <ele>2474.0900000000001</ele>
        <time>2015-07-12T08:22:32Z</time>
      </trkpt>
      <trkpt lat="46.620902325958014" lon="12.354426886886358">
        <ele>2476.9699999999998</ele>
        <time>2015-07-12T08:22:46Z</time>
      </trkpt>
      <trkpt lat="46.620871312916279" lon="12.354470975697041">
        <ele>2479.3800000000001</ele>
        <time>2015-07-12T08:23:00Z</time>
      </trkpt>
      <trkpt lat="46.620837533846498" lon="12.354478351771832">
        <ele>2480.3400000000001</ele>
        <time>2015-07-12T08:23:09Z</time>
      </trkpt>
      <trkpt lat="46.620813477784395" lon="12.35438933596015">
        <ele>2482.2600000000002</ele>
        <time>2015-07-12T08:23:21Z</time>
      </trkpt>
      <trkpt lat="46.620788415893912" lon="12.354378942400217">
        <ele>2483.6999999999998</ele>
        <time>2015-07-12T08:23:32Z</time>
      </trkpt>
      <trkpt lat="46.620772238820791" lon="12.354403669014573">
        <ele>2485.6300000000001</ele>
        <time>2015-07-12T08:23:44Z</time>
      </trkpt>
      <trkpt lat="46.62074432708323" lon="12.354431413114071">
        <ele>2487.0700000000002</ele>
        <time>2015-07-12T08:23:55Z</time>
      </trkpt>
      <trkpt lat="46.620706943795085" lon="12.354381624609232">
        <ele>2489.4699999999998</ele>
        <time>2015-07-12T08:24:09Z</time>
      </trkpt>
      <trkpt lat="46.620715241879225" lon="12.354324795305729">
        <ele>2489.9499999999998</ele>
        <time>2015-07-12T08:24:24Z</time>
      </trkpt>
      <trkpt lat="46.620704429224133" lon="12.354322280734777">
        <ele>2490.9099999999999</ele>
        <time>2015-07-12T08:24:31Z</time>
      </trkpt>
      <trkpt lat="46.620699316263199" lon="12.354305097833276">
        <ele>2491.8699999999999</ele>
        <time>2015-07-12T08:24:44Z</time>
      </trkpt>
      <trkpt lat="46.620671320706606" lon="12.354289423674345">
        <ele>2493.3200000000002</ele>
        <time>2015-07-12T08:24:55Z</time>
      </trkpt>
      <trkpt lat="46.62065296433866" lon="12.354234103113413">
        <ele>2494.7600000000002</ele>
        <time>2015-07-12T08:25:04Z</time>
      </trkpt>
      <trkpt lat="46.620641816407442" lon="12.354177441447973">
        <ele>2496.1999999999998</ele>
        <time>2015-07-12T08:25:14Z</time>
      </trkpt>
      <trkpt lat="46.620634105056524" lon="12.354131257161498">
        <ele>2497.6399999999999</ele>
        <time>2015-07-12T08:25:23Z</time>
      </trkpt>
      <trkpt lat="46.620641313493252" lon="12.354108206927776">
        <ele>2498.5999999999999</ele>
        <time>2015-07-12T08:25:32Z</time>
      </trkpt>
      <trkpt lat="46.620614239946008" lon="12.354136956855655">
        <ele>2500.0500000000002</ele>
        <time>2015-07-12T08:25:42Z</time>
      </trkpt>
      <trkpt lat="46.620585154742002" lon="12.354168221354485">
        <ele>2501.4899999999998</ele>
        <time>2015-07-12T08:25:53Z</time>
      </trkpt>
      <trkpt lat="46.620548190549016" lon="12.354179956018925">
        <ele>2503.4099999999999</ele>
        <time>2015-07-12T08:26:02Z</time>
      </trkpt>
      <trkpt lat="46.620506197214127" lon="12.35420267097652">
        <ele>2505.3299999999999</ele>
        <time>2015-07-12T08:26:13Z</time>
      </trkpt>
      <trkpt lat="46.620476022362709" lon="12.354233684018254">
        <ele>2507.2600000000002</ele>
        <time>2015-07-12T08:26:24Z</time>
      </trkpt>
      <trkpt lat="46.620440063998103" lon="12.354240054264665">
        <ele>2508.6999999999998</ele>
        <time>2015-07-12T08:26:33Z</time>
      </trkpt>
      <trkpt lat="46.62040863186121" lon="12.354268468916416">
        <ele>2510.6199999999999</ele>
        <time>2015-07-12T08:26:44Z</time>
      </trkpt>
      <trkpt lat="46.620384072884917" lon="12.35428866930306">
        <ele>2511.5799999999999</ele>
        <time>2015-07-12T08:26:54Z</time>
      </trkpt>
      <trkpt lat="46.620404860004783" lon="12.354164449498057">
        <ele>2512.0599999999999</ele>
        <time>2015-07-12T08:27:06Z</time>
      </trkpt>
      <trkpt lat="46.620414834469557" lon="12.354063112288713">
        <ele>2513.02</ele>
        <time>2015-07-12T08:27:17Z</time>
      </trkpt>
      <trkpt lat="46.620453307405114" lon="12.353993123397231">
        <ele>2514.9499999999998</ele>
        <time>2015-07-12T08:27:28Z</time>
      </trkpt>
      <trkpt lat="46.620490020141006" lon="12.353887595236301">
        <ele>2516.3899999999999</ele>
        <time>2015-07-12T08:27:39Z</time>
      </trkpt>
      <trkpt lat="46.620499240234494" lon="12.353795226663351">
        <ele>2518.3099999999999</ele>
        <time>2015-07-12T08:27:50Z</time>
      </trkpt>
      <trkpt lat="46.620490606874228" lon="12.353764213621616">
        <ele>2518.79</ele>
        <time>2015-07-12T08:27:59Z</time>
      </trkpt>
      <trkpt lat="46.620492115616798" lon="12.353785671293736">
        <ele>2518.79</ele>
        <time>2015-07-12T08:28:19Z</time>
      </trkpt>
      <trkpt lat="46.620500329881907" lon="12.353794807568192">
        <ele>2518.79</ele>
        <time>2015-07-12T08:28:39Z</time>
      </trkpt>
      <trkpt lat="46.620504353195429" lon="12.353829927742481">
        <ele>2519.27</ele>
        <time>2015-07-12T08:28:59Z</time>
      </trkpt>
      <trkpt lat="46.620542742311954" lon="12.353756669908762">
        <ele>2518.79</ele>
        <time>2015-07-12T08:29:14Z</time>
      </trkpt>
      <trkpt lat="46.62056646309793" lon="12.353764967992902">
        <ele>2519.27</ele>
        <time>2015-07-12T08:29:23Z</time>
      </trkpt>
      <trkpt lat="46.620545424520969" lon="12.353783408179879">
        <ele>2518.79</ele>
        <time>2015-07-12T08:29:31Z</time>
      </trkpt>
      <trkpt lat="46.620559841394424" lon="12.353778295218945">
        <ele>2519.27</ele>
        <time>2015-07-12T08:29:40Z</time>
      </trkpt>
      <trkpt lat="46.620637122541666" lon="12.353682573884726">
        <ele>2519.27</ele>
        <time>2015-07-12T08:29:52Z</time>
      </trkpt>
      <trkpt lat="46.620704093948007" lon="12.353636473417282">
        <ele>2519.75</ele>
        <time>2015-07-12T08:30:03Z</time>
      </trkpt>
      <trkpt lat="46.620719265192747" lon="12.35363001935184">
        <ele>2519.75</ele>
        <time>2015-07-12T08:30:14Z</time>
      </trkpt>
      <trkpt lat="46.620715828612447" lon="12.353632198646665">
        <ele>2519.27</ele>
        <time>2015-07-12T08:30:32Z</time>
      </trkpt>
      <trkpt lat="46.620719600468874" lon="12.353636221960187">
        <ele>2519.75</ele>
        <time>2015-07-12T08:30:49Z</time>
      </trkpt>
      <trkpt lat="46.620729072019458" lon="12.3536217212677">
        <ele>2519.75</ele>
        <time>2015-07-12T08:31:05Z</time>
      </trkpt>
      <trkpt lat="46.620699567720294" lon="12.35363831743598">
        <ele>2519.27</ele>
        <time>2015-07-12T08:31:21Z</time>
      </trkpt>
      <trkpt lat="46.620728317648172" lon="12.353632031008601">
        <ele>2518.79</ele>
        <time>2015-07-12T08:31:39Z</time>
      </trkpt>
      <trkpt lat="46.620716750621796" lon="12.353621888905764">
        <ele>2518.3099999999999</ele>
        <time>2015-07-12T08:31:52Z</time>
      </trkpt>
      <trkpt lat="46.620715660974383" lon="12.353625157848001">
        <ele>2518.3099999999999</ele>
        <time>2015-07-12T08:32:19Z</time>
      </trkpt>
      <trkpt lat="46.620710967108607" lon="12.353631947189569">
        <ele>2518.3099999999999</ele>
        <time>2015-07-12T08:32:49Z</time>
      </trkpt>
      <trkpt lat="46.620700657367706" lon="12.353642843663692">
        <ele>2518.79</ele>
        <time>2015-07-12T08:33:18Z</time>
      </trkpt>
      <trkpt lat="46.620707781985402" lon="12.353628091514111">
        <ele>2518.3099999999999</ele>
        <time>2015-07-12T08:33:35Z</time>
      </trkpt>
      <trkpt lat="46.620710883289576" lon="12.353631528094411">
        <ele>2518.3099999999999</ele>
        <time>2015-07-12T08:34:06Z</time>
      </trkpt>
      <trkpt lat="46.62070912308991" lon="12.353622140362859">
        <ele>2518.79</ele>
        <time>2015-07-12T08:34:35Z</time>
      </trkpt>
      <trkpt lat="46.620701411738992" lon="12.353640412911773">
        <ele>2518.79</ele>
        <time>2015-07-12T08:35:06Z</time>
      </trkpt>
      <trkpt lat="46.620688252151012" lon="12.353641837835312">
        <ele>2518.3099999999999</ele>
        <time>2015-07-12T08:35:35Z</time>
      </trkpt>
      <trkpt lat="46.620688252151012" lon="12.353655751794577">
        <ele>2518.79</ele>
        <time>2015-07-12T08:36:04Z</time>
      </trkpt>
      <trkpt lat="46.620706943795085" lon="12.353630186989903">
        <ele>2518.3099999999999</ele>
        <time>2015-07-12T08:36:28Z</time>
      </trkpt>
      <trkpt lat="46.620716080069542" lon="12.353651477023959">
        <ele>2518.79</ele>
        <time>2015-07-12T08:37:02Z</time>
      </trkpt>
      <trkpt lat="46.620727814733982" lon="12.35359875485301">
        <ele>2518.79</ele>
        <time>2015-07-12T08:37:32Z</time>
      </trkpt>
      <trkpt lat="46.620676936581731" lon="12.353653069585562">
        <ele>2518.79</ele>
        <time>2015-07-12T08:38:03Z</time>
      </trkpt>
      <trkpt lat="46.62071792408824" lon="12.35361585393548">
        <ele>2518.79</ele>
        <time>2015-07-12T08:38:30Z</time>
      </trkpt>
      <trkpt lat="46.620711889117956" lon="12.353580901399255">
        <ele>2518.79</ele>
        <time>2015-07-12T08:38:59Z</time>
      </trkpt>
      <trkpt lat="46.620687749236822" lon="12.35365348868072">
        <ele>2519.27</ele>
        <time>2015-07-12T08:39:25Z</time>
      </trkpt>
      <trkpt lat="46.620699232444167" lon="12.353685842826962">
        <ele>2519.27</ele>
        <time>2015-07-12T08:39:56Z</time>
      </trkpt>
      <trkpt lat="46.620696717873216" lon="12.353734038770199">
        <ele>2519.27</ele>
        <time>2015-07-12T08:40:18Z</time>
      </trkpt>
      <trkpt lat="46.620718091726303" lon="12.353709731251001">
        <ele>2519.27</ele>
        <time>2015-07-12T08:40:40Z</time>
      </trkpt>
      <trkpt lat="46.620745668187737" lon="12.353664049878716">
        <ele>2519.75</ele>
        <time>2015-07-12T08:40:59Z</time>
      </trkpt>
      <trkpt lat="46.620738627389073" lon="12.353640580549836">
        <ele>2520.23</ele>
        <time>2015-07-12T08:41:05Z</time>
      </trkpt>
      <trkpt lat="46.620763605460525" lon="12.35363781452179">
        <ele>2520.23</ele>
        <time>2015-07-12T08:41:09Z</time>
      </trkpt>
      <trkpt lat="46.620791517198086" lon="12.353614429011941">
        <ele>2520.23</ele>
        <time>2015-07-12T08:41:12Z</time>
      </trkpt>
      <trkpt lat="46.620897883549333" lon="12.353563047945499">
        <ele>2522.1599999999999</ele>
        <time>2015-07-12T08:41:26Z</time>
      </trkpt>
      <trkpt lat="46.620950102806091" lon="12.353537483140826">
        <ele>2522.1599999999999</ele>
        <time>2015-07-12T08:41:37Z</time>
      </trkpt>
      <trkpt lat="46.620988491922617" lon="12.353520048782229">
        <ele>2523.1199999999999</ele>
        <time>2015-07-12T08:41:49Z</time>
      </trkpt>
      <trkpt lat="46.621002070605755" lon="12.353523736819625">
        <ele>2523.1199999999999</ele>
        <time>2015-07-12T08:42:07Z</time>
      </trkpt>
      <trkpt lat="46.620985642075539" lon="12.353518707677722">
        <ele>2523.1199999999999</ele>
        <time>2015-07-12T08:42:22Z</time>
      </trkpt>
      <trkpt lat="46.620980780571699" lon="12.353517115116119">
        <ele>2523.1199999999999</ele>
        <time>2015-07-12T08:42:37Z</time>
      </trkpt>
      <trkpt lat="46.620983378961682" lon="12.353527341037989">
        <ele>2523.1199999999999</ele>
        <time>2015-07-12T08:42:52Z</time>
      </trkpt>
      <trkpt lat="46.620987569913268" lon="12.35353471711278">
        <ele>2523.5999999999999</ele>
        <time>2015-07-12T08:43:06Z</time>
      </trkpt>
      <trkpt lat="46.621000478044152" lon="12.353522311896086">
        <ele>2523.5999999999999</ele>
        <time>2015-07-12T08:43:20Z</time>
      </trkpt>
      <trkpt lat="46.621012799441814" lon="12.353534046560526">
        <ele>2523.1199999999999</ele>
        <time>2015-07-12T08:43:32Z</time>
      </trkpt>
      <trkpt lat="46.621001651510596" lon="12.353510744869709">
        <ele>2523.5999999999999</ele>
        <time>2015-07-12T08:43:43Z</time>
      </trkpt>
      <trkpt lat="46.621017660945654" lon="12.353487946093082">
        <ele>2523.5999999999999</ele>
        <time>2015-07-12T08:43:53Z</time>
      </trkpt>
      <trkpt lat="46.621019588783383" lon="12.35349029302597">
        <ele>2523.5999999999999</ele>
        <time>2015-07-12T08:44:03Z</time>
      </trkpt>
      <trkpt lat="46.621023025363684" lon="12.353453496471047">
        <ele>2523.5999999999999</ele>
        <time>2015-07-12T08:44:15Z</time>
      </trkpt>
      <trkpt lat="46.621027803048491" lon="12.35341259278357">
        <ele>2522.6399999999999</ele>
        <time>2015-07-12T08:44:18Z</time>
      </trkpt>
      <trkpt lat="46.621059235185385" lon="12.353218803182244">
        <ele>2519.27</ele>
        <time>2015-07-12T08:44:27Z</time>
      </trkpt>
      <trkpt lat="46.621145652607083" lon="12.353110844269395">
        <ele>2519.27</ele>
        <time>2015-07-12T08:44:37Z</time>
      </trkpt>
      <trkpt lat="46.621207343414426" lon="12.353031635284424">
        <ele>2519.27</ele>
        <time>2015-07-12T08:44:45Z</time>
      </trkpt>
      <trkpt lat="46.621235003694892" lon="12.353004058822989">
        <ele>2519.27</ele>
        <time>2015-07-12T08:44:56Z</time>
      </trkpt>
      <trkpt lat="46.621241206303239" lon="12.353023756295443">
        <ele>2519.27</ele>
        <time>2015-07-12T08:45:11Z</time>
      </trkpt>
      <trkpt lat="46.621243972331285" lon="12.353010848164558">
        <ele>2519.75</ele>
        <time>2015-07-12T08:45:23Z</time>
      </trkpt>
      <trkpt lat="46.621217988431454" lon="12.352978829294443">
        <ele>2517.8299999999999</ele>
        <time>2015-07-12T08:45:31Z</time>
      </trkpt>
      <trkpt lat="46.621217485517263" lon="12.35296843573451">
        <ele>2517.8299999999999</ele>
        <time>2015-07-12T08:45:41Z</time>
      </trkpt>
      <trkpt lat="46.621234500780702" lon="12.353016631677747">
        <ele>2518.3099999999999</ele>
        <time>2015-07-12T08:45:52Z</time>
      </trkpt>
      <trkpt lat="46.621287474408746" lon="12.352954354137182">
        <ele>2519.27</ele>
        <time>2015-07-12T08:46:02Z</time>
      </trkpt>
      <trkpt lat="46.621323516592383" lon="12.352922586724162">
        <ele>2519.27</ele>
        <time>2015-07-12T08:46:13Z</time>
      </trkpt>
      <trkpt lat="46.621355703100562" lon="12.352886460721493">
        <ele>2519.75</ele>
        <time>2015-07-12T08:46:24Z</time>
      </trkpt>
      <trkpt lat="46.621359726414084" lon="12.35289559699595">
        <ele>2519.27</ele>
        <time>2015-07-12T08:46:34Z</time>
      </trkpt>
      <trkpt lat="46.621358217671514" lon="12.352906661108136">
        <ele>2519.27</ele>
        <time>2015-07-12T08:46:44Z</time>
      </trkpt>
      <trkpt lat="46.621366096660495" lon="12.352918731048703">
        <ele>2519.75</ele>
        <time>2015-07-12T08:47:06Z</time>
      </trkpt>
      <trkpt lat="46.621361235156655" lon="12.352908756583929">
        <ele>2519.75</ele>
        <time>2015-07-12T08:47:31Z</time>
      </trkpt>
      <trkpt lat="46.621357882395387" lon="12.352878078818321">
        <ele>2519.75</ele>
        <time>2015-07-12T08:47:54Z</time>
      </trkpt>
      <trkpt lat="46.621349332854152" lon="12.352868691086769">
        <ele>2519.75</ele>
        <time>2015-07-12T08:48:12Z</time>
      </trkpt>
      <trkpt lat="46.621351260691881" lon="12.352871876209974">
        <ele>2519.75</ele>
        <time>2015-07-12T08:48:34Z</time>
      </trkpt>
      <trkpt lat="46.621356960386038" lon="12.35288243740797">
        <ele>2520.23</ele>
        <time>2015-07-12T08:49:06Z</time>
      </trkpt>
      <trkpt lat="46.621356038376689" lon="12.352887885645032">
        <ele>2520.23</ele>
        <time>2015-07-12T08:49:37Z</time>
      </trkpt>
      <trkpt lat="46.621363246813416" lon="12.35288679599762">
        <ele>2520.23</ele>
        <time>2015-07-12T08:49:54Z</time>
      </trkpt>
      <trkpt lat="46.621352098882198" lon="12.352894255891442">
        <ele>2520.71</ele>
        <time>2015-07-12T08:50:20Z</time>
      </trkpt>
      <trkpt lat="46.621348997578025" lon="12.352895429357886">
        <ele>2520.71</ele>
        <time>2015-07-12T08:50:53Z</time>
      </trkpt>
      <trkpt lat="46.621353859081864" lon="12.352894842624664">
        <ele>2520.71</ele>
        <time>2015-07-12T08:51:28Z</time>
      </trkpt>
      <trkpt lat="46.621339358389378" lon="12.352901380509138">
        <ele>2521.1900000000001</ele>
        <time>2015-07-12T08:51:55Z</time>
      </trkpt>
      <trkpt lat="46.621353607624769" lon="12.352883946150541">
        <ele>2521.6799999999998</ele>
        <time>2015-07-12T08:52:15Z</time>
      </trkpt>
      <trkpt lat="46.621347069740295" lon="12.352881683036685">
        <ele>2521.6799999999998</ele>
        <time>2015-07-12T08:52:35Z</time>
      </trkpt>
      <trkpt lat="46.621334329247475" lon="12.352871876209974">
        <ele>2521.1900000000001</ele>
        <time>2015-07-12T08:52:59Z</time>
      </trkpt>
      <trkpt lat="46.621355954557657" lon="12.352875061333179">
        <ele>2521.6799999999998</ele>
        <time>2015-07-12T08:53:23Z</time>
      </trkpt>
      <trkpt lat="46.621356960386038" lon="12.35287606716156">
        <ele>2522.1599999999999</ele>
        <time>2015-07-12T08:53:52Z</time>
      </trkpt>
      <trkpt lat="46.62135855294764" lon="12.352878414094448">
        <ele>2521.6799999999998</ele>
        <time>2015-07-12T08:54:17Z</time>
      </trkpt>
      <trkpt lat="46.621350925415754" lon="12.352867685258389">
        <ele>2522.1599999999999</ele>
        <time>2015-07-12T08:54:44Z</time>
      </trkpt>
      <trkpt lat="46.621367521584034" lon="12.352860979735851">
        <ele>2522.1599999999999</ele>
        <time>2015-07-12T08:55:11Z</time>
      </trkpt>
      <trkpt lat="46.621354948729277" lon="12.352848742157221">
        <ele>2522.1599999999999</ele>
        <time>2015-07-12T08:55:40Z</time>
      </trkpt>
      <trkpt lat="46.621347237378359" lon="12.352849077433348">
        <ele>2522.6399999999999</ele>
        <time>2015-07-12T08:56:11Z</time>
      </trkpt>
      <trkpt lat="46.621345477178693" lon="12.352865841239691">
        <ele>2523.1199999999999</ele>
        <time>2015-07-12T08:56:31Z</time>
      </trkpt>
      <trkpt lat="46.62135805003345" lon="12.352896519005299">
        <ele>2523.1199999999999</ele>
        <time>2015-07-12T08:57:01Z</time>
      </trkpt>
      <trkpt lat="46.621339777484536" lon="12.352885957807302">
        <ele>2523.1199999999999</ele>
        <time>2015-07-12T08:57:30Z</time>
      </trkpt>
      <trkpt lat="46.621317816898227" lon="12.352883359417319">
        <ele>2523.1199999999999</ele>
        <time>2015-07-12T08:57:51Z</time>
      </trkpt>
      <trkpt lat="46.621339693665504" lon="12.352883107960224">
        <ele>2523.1199999999999</ele>
        <time>2015-07-12T08:58:21Z</time>
      </trkpt>
      <trkpt lat="46.621347405016422" lon="12.352874474599957">
        <ele>2523.5999999999999</ele>
        <time>2015-07-12T08:58:54Z</time>
      </trkpt>
      <trkpt lat="46.621343968436122" lon="12.352868858724833">
        <ele>2523.5999999999999</ele>
        <time>2015-07-12T08:59:24Z</time>
      </trkpt>
      <trkpt lat="46.62133265286684" lon="12.352869780734181">
        <ele>2523.5999999999999</ele>
        <time>2015-07-12T08:59:46Z</time>
      </trkpt>
      <trkpt lat="46.621310189366341" lon="12.352874055504799">
        <ele>2524.0799999999999</ele>
        <time>2015-07-12T09:00:16Z</time>
      </trkpt>
      <trkpt lat="46.621335418894887" lon="12.352871708571911">
        <ele>2524.0799999999999</ele>
        <time>2015-07-12T09:00:40Z</time>
      </trkpt>
      <trkpt lat="46.621325192973018" lon="12.352875983342528">
        <ele>2524.0799999999999</ele>
        <time>2015-07-12T09:01:04Z</time>
      </trkpt>
      <trkpt lat="46.621310608461499" lon="12.352870032191277">
        <ele>2524.0799999999999</ele>
        <time>2015-07-12T09:01:31Z</time>
      </trkpt>
      <trkpt lat="46.621350506320596" lon="12.3528809286654">
        <ele>2524.0799999999999</ele>
        <time>2015-07-12T09:01:56Z</time>
      </trkpt>
      <trkpt lat="46.621330138295889" lon="12.352891992777586">
        <ele>2524.0799999999999</ele>
        <time>2015-07-12T09:02:18Z</time>
      </trkpt>
      <trkpt lat="46.621333239600062" lon="12.352885706350207">
        <ele>2524.0799999999999</ele>
        <time>2015-07-12T09:02:23Z</time>
      </trkpt>
      <trkpt lat="46.62134581245482" lon="12.352930214256048">
        <ele>2525.52</ele>
        <time>2015-07-12T09:02:32Z</time>
      </trkpt>
      <trkpt lat="46.62133852019906" lon="12.35295569524169">
        <ele>2525.52</ele>
        <time>2015-07-12T09:02:45Z</time>
      </trkpt>
      <trkpt lat="46.621345980092883" lon="12.352910181507468">
        <ele>2525.52</ele>
        <time>2015-07-12T09:03:01Z</time>
      </trkpt>
      <trkpt lat="46.621325444430113" lon="12.352874809876084">
        <ele>2525.04</ele>
        <time>2015-07-12T09:03:11Z</time>
      </trkpt>
      <trkpt lat="46.621378753334284" lon="12.352905320003629">
        <ele>2525.04</ele>
        <time>2015-07-12T09:03:27Z</time>
      </trkpt>
      <trkpt lat="46.621368024498224" lon="12.352894088253379">
        <ele>2525.52</ele>
        <time>2015-07-12T09:03:39Z</time>
      </trkpt>
      <trkpt lat="46.62138294428587" lon="12.352844970300794">
        <ele>2525.52</ele>
        <time>2015-07-12T09:03:54Z</time>
      </trkpt>
      <trkpt lat="46.621432900428772" lon="12.352813202887774">
        <ele>2525.52</ele>
        <time>2015-07-12T09:04:05Z</time>
      </trkpt>
      <trkpt lat="46.621426865458488" lon="12.352777328342199">
        <ele>2525.52</ele>
        <time>2015-07-12T09:04:16Z</time>
      </trkpt>
      <trkpt lat="46.621445473283529" lon="12.352750841528177">
        <ele>2525.52</ele>
        <time>2015-07-12T09:04:31Z</time>
      </trkpt>
      <trkpt lat="46.621515126898885" lon="12.352674230933189">
        <ele>2525.52</ele>
        <time>2015-07-12T09:04:43Z</time>
      </trkpt>
      <trkpt lat="46.621549408882856" lon="12.352620251476765">
        <ele>2525.52</ele>
        <time>2015-07-12T09:04:49Z</time>
      </trkpt>
      <trkpt lat="46.621624510735273" lon="12.352518243715167">
        <ele>2526</ele>
        <time>2015-07-12T09:05:00Z</time>
      </trkpt>
      <trkpt lat="46.621707156300545" lon="12.352376841008663">
        <ele>2526.48</ele>
        <time>2015-07-12T09:05:13Z</time>
      </trkpt>
      <trkpt lat="46.621776390820742" lon="12.352244909852743">
        <ele>2526.96</ele>
        <time>2015-07-12T09:05:23Z</time>
      </trkpt>
      <trkpt lat="46.621850822120905" lon="12.352125132456422">
        <ele>2526.48</ele>
        <time>2015-07-12T09:05:33Z</time>
      </trkpt>
      <trkpt lat="46.621951488777995" lon="12.351996805518866">
        <ele>2526.96</ele>
        <time>2015-07-12T09:05:45Z</time>
      </trkpt>
      <trkpt lat="46.622055256739259" lon="12.351879291236401">
        <ele>2527.4400000000001</ele>
        <time>2015-07-12T09:05:57Z</time>
      </trkpt>
      <trkpt lat="46.622162545099854" lon="12.35176295042038">
        <ele>2527.4400000000001</ele>
        <time>2015-07-12T09:06:09Z</time>
      </trkpt>
      <trkpt lat="46.622222475707531" lon="12.35170628875494">
        <ele>2527.4400000000001</ele>
        <time>2015-07-12T09:06:16Z</time>
      </trkpt>
      <trkpt lat="46.622271258383989" lon="12.351615848019719">
        <ele>2527.4400000000001</ele>
        <time>2015-07-12T09:06:23Z</time>
      </trkpt>
      <trkpt lat="46.622388185933232" lon="12.35143412835896">
        <ele>2527.4400000000001</ele>
        <time>2015-07-12T09:06:38Z</time>
      </trkpt>
      <trkpt lat="46.622491115704179" lon="12.351311668753624">
        <ele>2527.9200000000001</ele>
        <time>2015-07-12T09:06:51Z</time>
      </trkpt>
      <trkpt lat="46.622574683278799" lon="12.351189879700541">
        <ele>2528.4000000000001</ele>
        <time>2015-07-12T09:07:03Z</time>
      </trkpt>
      <trkpt lat="46.622657412663102" lon="12.351050404831767">
        <ele>2528.4000000000001</ele>
        <time>2015-07-12T09:07:15Z</time>
      </trkpt>
      <trkpt lat="46.622747266665101" lon="12.350867846980691">
        <ele>2528.8899999999999</ele>
        <time>2015-07-12T09:07:29Z</time>
      </trkpt>
      <trkpt lat="46.622794456779957" lon="12.350683948025107">
        <ele>2528.8899999999999</ele>
        <time>2015-07-12T09:07:41Z</time>
      </trkpt>
      <trkpt lat="46.622836198657751" lon="12.35049351118505">
        <ele>2528.8899999999999</ele>
        <time>2015-07-12T09:07:54Z</time>
      </trkpt>
      <trkpt lat="46.622876934707165" lon="12.350311540067196">
        <ele>2528.8899999999999</ele>
        <time>2015-07-12T09:08:06Z</time>
      </trkpt>
      <trkpt lat="46.622933596372604" lon="12.350138118490577">
        <ele>2528.8899999999999</ele>
        <time>2015-07-12T09:08:18Z</time>
      </trkpt>
      <trkpt lat="46.622999645769596" lon="12.34992035664618">
        <ele>2528.8899999999999</ele>
        <time>2015-07-12T09:08:32Z</time>
      </trkpt>
      <trkpt lat="46.623061336576939" lon="12.349763363599777">
        <ele>2528.8899999999999</ele>
        <time>2015-07-12T09:08:43Z</time>
      </trkpt>
      <trkpt lat="46.623154459521174" lon="12.349600670859218">
        <ele>2528.8899999999999</ele>
        <time>2015-07-12T09:08:56Z</time>
      </trkpt>
      <trkpt lat="46.623225957155228" lon="12.349412832409143">
        <ele>2529.3699999999999</ele>
        <time>2015-07-12T09:09:08Z</time>
      </trkpt>
      <trkpt lat="46.623253952711821" lon="12.349317111074924">
        <ele>2529.3699999999999</ele>
        <time>2015-07-12T09:09:14Z</time>
      </trkpt>
      <trkpt lat="46.623314470052719" lon="12.349134804680943">
        <ele>2529.3699999999999</ele>
        <time>2015-07-12T09:09:27Z</time>
      </trkpt>
      <trkpt lat="46.623383956030011" lon="12.348931878805161">
        <ele>2529.3699999999999</ele>
        <time>2015-07-12T09:09:40Z</time>
      </trkpt>
      <trkpt lat="46.623448664322495" lon="12.348719146102667">
        <ele>2529.3699999999999</ele>
        <time>2015-07-12T09:09:53Z</time>
      </trkpt>
      <trkpt lat="46.623458303511143" lon="12.348674554377794">
        <ele>2529.3699999999999</ele>
        <time>2015-07-12T09:09:56Z</time>
      </trkpt>
      <trkpt lat="46.623495435342193" lon="12.348464671522379">
        <ele>2528.8899999999999</ele>
        <time>2015-07-12T09:10:09Z</time>
      </trkpt>
      <trkpt lat="46.623497363179922" lon="12.348343804478645">
        <ele>2528.8899999999999</ele>
        <time>2015-07-12T09:10:17Z</time>
      </trkpt>
      <trkpt lat="46.623490154743195" lon="12.348305163905025">
        <ele>2528.8899999999999</ele>
        <time>2015-07-12T09:10:20Z</time>
      </trkpt>
      <trkpt lat="46.623472971841693" lon="12.348132412880659">
        <ele>2529.8499999999999</ele>
        <time>2015-07-12T09:10:33Z</time>
      </trkpt>
      <trkpt lat="46.623448077589273" lon="12.347960583865643">
        <ele>2529.8499999999999</ele>
        <time>2015-07-12T09:10:47Z</time>
      </trkpt>
      <trkpt lat="46.623510187491775" lon="12.347841896116734">
        <ele>2530.3299999999999</ele>
        <time>2015-07-12T09:10:58Z</time>
      </trkpt>
      <trkpt lat="46.623531226068735" lon="12.347781211137772">
        <ele>2529.8499999999999</ele>
        <time>2015-07-12T09:11:09Z</time>
      </trkpt>
      <trkpt lat="46.623541787266731" lon="12.347776936367154">
        <ele>2529.8499999999999</ele>
        <time>2015-07-12T09:11:20Z</time>
      </trkpt>
      <trkpt lat="46.623585373163223" lon="12.347785402089357">
        <ele>2531.77</ele>
        <time>2015-07-12T09:11:31Z</time>
      </trkpt>
      <trkpt lat="46.623574225232005" lon="12.347782803699374">
        <ele>2530.8099999999999</ele>
        <time>2015-07-12T09:12:06Z</time>
      </trkpt>
      <trkpt lat="46.62356567569077" lon="12.347752209752798">
        <ele>2529.8499999999999</ele>
        <time>2015-07-12T09:12:10Z</time>
      </trkpt>
      <trkpt lat="46.623566346243024" lon="12.347692949697375">
        <ele>2529.8499999999999</ele>
        <time>2015-07-12T09:12:21Z</time>
      </trkpt>
      <trkpt lat="46.623531728982925" lon="12.347581805661321">
        <ele>2528.8899999999999</ele>
        <time>2015-07-12T09:12:35Z</time>
      </trkpt>
      <trkpt lat="46.62350800819695" lon="12.347565963864326">
        <ele>2529.3699999999999</ele>
        <time>2015-07-12T09:12:39Z</time>
      </trkpt>
      <trkpt lat="46.623410442844033" lon="12.34749723225832">
        <ele>2528.4000000000001</ele>
        <time>2015-07-12T09:12:52Z</time>
      </trkpt>
      <trkpt lat="46.623365432024002" lon="12.347408467903733">
        <ele>2527.9200000000001</ele>
        <time>2015-07-12T09:13:02Z</time>
      </trkpt>
      <trkpt lat="46.623300975188613" lon="12.347318027168512">
        <ele>2527.4400000000001</ele>
        <time>2015-07-12T09:13:14Z</time>
      </trkpt>
      <trkpt lat="46.623236602172256" lon="12.347251558676362">
        <ele>2526.96</ele>
        <time>2015-07-12T09:13:25Z</time>
      </trkpt>
      <trkpt lat="46.623220257461071" lon="12.347239321097732">
        <ele>2527.4400000000001</ele>
        <time>2015-07-12T09:13:39Z</time>
      </trkpt>
      <trkpt lat="46.623162925243378" lon="12.347145359963179">
        <ele>2526</ele>
        <time>2015-07-12T09:13:51Z</time>
      </trkpt>
      <trkpt lat="46.623120093718171" lon="12.347059277817607">
        <ele>2526.96</ele>
        <time>2015-07-12T09:14:02Z</time>
      </trkpt>
      <trkpt lat="46.623092517256737" lon="12.346979146823287">
        <ele>2525.52</ele>
        <time>2015-07-12T09:14:09Z</time>
      </trkpt>
      <trkpt lat="46.623053289949894" lon="12.346807904541492">
        <ele>2524.0799999999999</ele>
        <time>2015-07-12T09:14:22Z</time>
      </trkpt>
      <trkpt lat="46.623045410960913" lon="12.346626939252019">
        <ele>2523.5999999999999</ele>
        <time>2015-07-12T09:14:35Z</time>
      </trkpt>
      <trkpt lat="46.623062258586287" lon="12.346584694460034">
        <ele>2524.0799999999999</ele>
        <time>2015-07-12T09:14:39Z</time>
      </trkpt>
      <trkpt lat="46.62311322055757" lon="12.346455780789256">
        <ele>2524.5599999999999</ele>
        <time>2015-07-12T09:14:51Z</time>
      </trkpt>
      <trkpt lat="46.623169966042042" lon="12.346334410831332">
        <ele>2525.52</ele>
        <time>2015-07-12T09:15:02Z</time>
      </trkpt>
      <trkpt lat="46.623234925791621" lon="12.346237013116479">
        <ele>2526.48</ele>
        <time>2015-07-12T09:15:14Z</time>
      </trkpt>
      <trkpt lat="46.623298795893788" lon="12.346174567937851">
        <ele>2527.4400000000001</ele>
        <time>2015-07-12T09:15:24Z</time>
      </trkpt>
      <trkpt lat="46.62336191162467" lon="12.3460977897048">
        <ele>2527.9200000000001</ele>
        <time>2015-07-12T09:15:35Z</time>
      </trkpt>
      <trkpt lat="46.623439779505134" lon="12.346034338697791">
        <ele>2528.4000000000001</ele>
        <time>2015-07-12T09:15:46Z</time>
      </trkpt>
      <trkpt lat="46.623501051217318" lon="12.345910202711821">
        <ele>2527.4400000000001</ele>
        <time>2015-07-12T09:15:57Z</time>
      </trkpt>
      <trkpt lat="46.623571123927832" lon="12.345761004835367">
        <ele>2526.48</ele>
        <time>2015-07-12T09:16:10Z</time>
      </trkpt>
      <trkpt lat="46.623600879684091" lon="12.345645418390632">
        <ele>2524.0799999999999</ele>
        <time>2015-07-12T09:16:22Z</time>
      </trkpt>
      <trkpt lat="46.623584534972906" lon="12.345629492774606">
        <ele>2523.5999999999999</ele>
        <time>2015-07-12T09:16:25Z</time>
      </trkpt>
      <trkpt lat="46.623453022912145" lon="12.345668384805322">
        <ele>2520.71</ele>
        <time>2015-07-12T09:16:37Z</time>
      </trkpt>
      <trkpt lat="46.623352440074086" lon="12.345681795850396">
        <ele>2517.8299999999999</ele>
        <time>2015-07-12T09:16:48Z</time>
      </trkpt>
      <trkpt lat="46.623257556930184" lon="12.345726303756237">
        <ele>2514.9499999999998</ele>
        <time>2015-07-12T09:17:00Z</time>
      </trkpt>
      <trkpt lat="46.623222436755896" lon="12.345757987350225">
        <ele>2512.54</ele>
        <time>2015-07-12T09:17:12Z</time>
      </trkpt>
      <trkpt lat="46.623229812830687" lon="12.345733931288123">
        <ele>2512.0599999999999</ele>
        <time>2015-07-12T09:17:14Z</time>
      </trkpt>
      <trkpt lat="46.623243559151888" lon="12.345637874677777">
        <ele>2509.6599999999999</ele>
        <time>2015-07-12T09:17:25Z</time>
      </trkpt>
      <trkpt lat="46.623240625485778" lon="12.345509463921189">
        <ele>2507.2600000000002</ele>
        <time>2015-07-12T09:17:38Z</time>
      </trkpt>
      <trkpt lat="46.623233668506145" lon="12.345392536371946">
        <ele>2504.8499999999999</ele>
        <time>2015-07-12T09:17:50Z</time>
      </trkpt>
      <trkpt lat="46.623241296038032" lon="12.345365881919861">
        <ele>2503.8899999999999</ele>
        <time>2015-07-12T09:17:54Z</time>
      </trkpt>
      <trkpt lat="46.623270632699132" lon="12.345238225534558">
        <ele>2501.4899999999998</ele>
        <time>2015-07-12T09:18:06Z</time>
      </trkpt>
      <trkpt lat="46.623310949653387" lon="12.345094392076135">
        <ele>2499.5700000000002</ele>
        <time>2015-07-12T09:18:19Z</time>
      </trkpt>
      <trkpt lat="46.623352356255054" lon="12.344921138137579">
        <ele>2498.1199999999999</ele>
        <time>2015-07-12T09:18:33Z</time>
      </trkpt>
      <trkpt lat="46.623429385945201" lon="12.344835978001356">
        <ele>2496.6799999999998</ele>
        <time>2015-07-12T09:18:43Z</time>
      </trkpt>
      <trkpt lat="46.623528460040689" lon="12.344749895855784">
        <ele>2495.7199999999998</ele>
        <time>2015-07-12T09:18:54Z</time>
      </trkpt>
      <trkpt lat="46.623593168333173" lon="12.344683846458793">
        <ele>2495.2399999999998</ele>
        <time>2015-07-12T09:19:02Z</time>
      </trkpt>
      <trkpt lat="46.623697942122817" lon="12.344610672444105">
        <ele>2492.3600000000001</ele>
        <time>2015-07-12T09:19:14Z</time>
      </trkpt>
      <trkpt lat="46.623739013448358" lon="12.344577061012387">
        <ele>2491.3899999999999</ele>
        <time>2015-07-12T09:19:20Z</time>
      </trkpt>
      <trkpt lat="46.623796261847019" lon="12.344525428488851">
        <ele>2490.9099999999999</ele>
        <time>2015-07-12T09:19:26Z</time>
      </trkpt>
      <trkpt lat="46.623853258788586" lon="12.344460552558303">
        <ele>2490.9099999999999</ele>
        <time>2015-07-12T09:19:33Z</time>
      </trkpt>
      <trkpt lat="46.623966582119465" lon="12.344387797638774">
        <ele>2489.4699999999998</ele>
        <time>2015-07-12T09:19:45Z</time>
      </trkpt>
      <trkpt lat="46.624080240726471" lon="12.344313785433769">
        <ele>2487.0700000000002</ele>
        <time>2015-07-12T09:19:57Z</time>
      </trkpt>
      <trkpt lat="46.62422533147037" lon="12.344248238950968">
        <ele>2484.6599999999999</ele>
        <time>2015-07-12T09:20:12Z</time>
      </trkpt>
      <trkpt lat="46.624341169372201" lon="12.344193756580353">
        <ele>2481.7800000000002</ele>
        <time>2015-07-12T09:20:26Z</time>
      </trkpt>
      <trkpt lat="46.624423731118441" lon="12.344102645292878">
        <ele>2479.8600000000001</ele>
        <time>2015-07-12T09:20:39Z</time>
      </trkpt>
      <trkpt lat="46.624522218480706" lon="12.344045899808407">
        <ele>2477.4499999999998</ele>
        <time>2015-07-12T09:20:51Z</time>
      </trkpt>
      <trkpt lat="46.62458055652678" lon="12.343986053019762">
        <ele>2476.0100000000002</ele>
        <time>2015-07-12T09:21:00Z</time>
      </trkpt>
      <trkpt lat="46.624736292287707" lon="12.343868790194392">
        <ele>2472.6500000000001</ele>
        <time>2015-07-12T09:21:16Z</time>
      </trkpt>
      <trkpt lat="46.624815249815583" lon="12.343806931748986">
        <ele>2470.73</ele>
        <time>2015-07-12T09:21:26Z</time>
      </trkpt>
      <trkpt lat="46.62494801916182" lon="12.34370106831193">
        <ele>2467.3600000000001</ele>
        <time>2015-07-12T09:21:40Z</time>
      </trkpt>
      <trkpt lat="46.625052457675338" lon="12.343633258715272">
        <ele>2464.48</ele>
        <time>2015-07-12T09:21:52Z</time>
      </trkpt>
      <trkpt lat="46.625071568414569" lon="12.34363024123013">
        <ele>2464</ele>
        <time>2015-07-12T09:21:54Z</time>
      </trkpt>
      <trkpt lat="46.625088164582849" lon="12.343620350584388">
        <ele>2464</ele>
        <time>2015-07-12T09:21:56Z</time>
      </trkpt>
      <trkpt lat="46.625118255615234" lon="12.343586655333638">
        <ele>2462.0700000000002</ele>
        <time>2015-07-12T09:22:00Z</time>
      </trkpt>
      <trkpt lat="46.625210456550121" lon="12.34355740249157">
        <ele>2459.1900000000001</ele>
        <time>2015-07-12T09:22:08Z</time>
      </trkpt>
      <trkpt lat="46.625296119600534" lon="12.34349143691361">
        <ele>2456.79</ele>
        <time>2015-07-12T09:22:16Z</time>
      </trkpt>
      <trkpt lat="46.625399887561798" lon="12.343541393056512">
        <ele>2454.8600000000001</ele>
        <time>2015-07-12T09:22:27Z</time>
      </trkpt>
      <trkpt lat="46.625465350225568" lon="12.343482552096248">
        <ele>2452.9400000000001</ele>
        <time>2015-07-12T09:22:35Z</time>
      </trkpt>
      <trkpt lat="46.625509103760123" lon="12.343487832695246">
        <ele>2452.46</ele>
        <time>2015-07-12T09:22:39Z</time>
      </trkpt>
      <trkpt lat="46.625676574185491" lon="12.343511804938316">
        <ele>2450.0599999999999</ele>
        <time>2015-07-12T09:22:52Z</time>
      </trkpt>
      <trkpt lat="46.625728290528059" lon="12.343501327559352">
        <ele>2449.5799999999999</ele>
        <time>2015-07-12T09:22:57Z</time>
      </trkpt>
      <trkpt lat="46.625859718769789" lon="12.34344843775034">
        <ele>2449.5799999999999</ele>
        <time>2015-07-12T09:23:09Z</time>
      </trkpt>
      <trkpt lat="46.625957870855927" lon="12.343410970643163">
        <ele>2449.5799999999999</ele>
        <time>2015-07-12T09:23:19Z</time>
      </trkpt>
      <trkpt lat="46.625963822007179" lon="12.34337224625051">
        <ele>2449.0999999999999</ele>
        <time>2015-07-12T09:23:23Z</time>
      </trkpt>
      <trkpt lat="46.625980501994491" lon="12.343303011730313">
        <ele>2447.1700000000001</ele>
        <time>2015-07-12T09:23:27Z</time>
      </trkpt>
      <trkpt lat="46.626101955771446" lon="12.343133026733994">
        <ele>2445.25</ele>
        <time>2015-07-12T09:23:40Z</time>
      </trkpt>
      <trkpt lat="46.626186612993479" lon="12.343072760850191">
        <ele>2444.29</ele>
        <time>2015-07-12T09:23:48Z</time>
      </trkpt>
      <trkpt lat="46.626312509179115" lon="12.343002771958709">
        <ele>2441.8899999999999</ele>
        <time>2015-07-12T09:24:00Z</time>
      </trkpt>
      <trkpt lat="46.626408817246556" lon="12.342929178848863">
        <ele>2440.4400000000001</ele>
        <time>2015-07-12T09:24:11Z</time>
      </trkpt>
      <trkpt lat="46.62649305537343" lon="12.342851646244526">
        <ele>2438.52</ele>
        <time>2015-07-12T09:24:20Z</time>
      </trkpt>
      <trkpt lat="46.62651602178812" lon="12.342839827761054">
        <ele>2438.52</ele>
        <time>2015-07-12T09:24:22Z</time>
      </trkpt>
      <trkpt lat="46.626599337905645" lon="12.342722397297621">
        <ele>2436.5999999999999</ele>
        <time>2015-07-12T09:24:33Z</time>
      </trkpt>
      <trkpt lat="46.626689275726676" lon="12.3425835929811">
        <ele>2435.1599999999999</ele>
        <time>2015-07-12T09:24:45Z</time>
      </trkpt>
      <trkpt lat="46.626774435862899" lon="12.34241796657443">
        <ele>2432.75</ele>
        <time>2015-07-12T09:24:58Z</time>
      </trkpt>
      <trkpt lat="46.626822631806135" lon="12.342227529734373">
        <ele>2429.3899999999999</ele>
        <time>2015-07-12T09:25:11Z</time>
      </trkpt>
      <trkpt lat="46.62684191018343" lon="12.342126443982124">
        <ele>2427.4699999999998</ele>
        <time>2015-07-12T09:25:18Z</time>
      </trkpt>
      <trkpt lat="46.626834869384766" lon="12.341966098174453">
        <ele>2424.5799999999999</ele>
        <time>2015-07-12T09:25:30Z</time>
      </trkpt>
      <trkpt lat="46.626830091699958" lon="12.341964337974787">
        <ele>2424.5799999999999</ele>
        <time>2015-07-12T09:25:42Z</time>
      </trkpt>
      <trkpt lat="46.626845095306635" lon="12.341915471479297">
        <ele>2424.5799999999999</ele>
        <time>2015-07-12T09:25:48Z</time>
      </trkpt>
      <trkpt lat="46.626885244622827" lon="12.341791419312358">
        <ele>2425.54</ele>
        <time>2015-07-12T09:26:02Z</time>
      </trkpt>
      <trkpt lat="46.626895889639854" lon="12.341721681877971">
        <ele>2426.5</ele>
        <time>2015-07-12T09:26:10Z</time>
      </trkpt>
      <trkpt lat="46.626959005370736" lon="12.341612130403519">
        <ele>2427.9499999999998</ele>
        <time>2015-07-12T09:26:22Z</time>
      </trkpt>
      <trkpt lat="46.627043914049864" lon="12.341560497879982">
        <ele>2430.3499999999999</ele>
        <time>2015-07-12T09:26:36Z</time>
      </trkpt>
      <trkpt lat="46.627099821344018" lon="12.341522360220551">
        <ele>2432.75</ele>
        <time>2015-07-12T09:26:48Z</time>
      </trkpt>
      <trkpt lat="46.62714927457273" lon="12.341525042429566">
        <ele>2435.1599999999999</ele>
        <time>2015-07-12T09:27:01Z</time>
      </trkpt>
      <trkpt lat="46.627226639539003" lon="12.341501656919718">
        <ele>2437.5599999999999</ele>
        <time>2015-07-12T09:27:14Z</time>
      </trkpt>
      <trkpt lat="46.627312051132321" lon="12.341490173712373">
        <ele>2439.48</ele>
        <time>2015-07-12T09:27:26Z</time>
      </trkpt>
      <trkpt lat="46.627352954819798" lon="12.341456562280655">
        <ele>2440.4400000000001</ele>
        <time>2015-07-12T09:27:36Z</time>
      </trkpt>
      <trkpt lat="46.627350021153688" lon="12.34139621257782">
        <ele>2440.4400000000001</ele>
        <time>2015-07-12T09:27:47Z</time>
      </trkpt>
      <trkpt lat="46.627343147993088" lon="12.341385651379824">
        <ele>2440.9200000000001</ele>
        <time>2015-07-12T09:27:57Z</time>
      </trkpt>
      <trkpt lat="46.627356559038162" lon="12.341383052989841">
        <ele>2440.4400000000001</ele>
        <time>2015-07-12T09:28:11Z</time>
      </trkpt>
      <trkpt lat="46.627368880435824" lon="12.341331839561462">
        <ele>2439.96</ele>
        <time>2015-07-12T09:28:20Z</time>
      </trkpt>
      <trkpt lat="46.627366868779063" lon="12.341386489570141">
        <ele>2439.96</ele>
        <time>2015-07-12T09:28:42Z</time>
      </trkpt>
      <trkpt lat="46.627404587343335" lon="12.34140451066196">
        <ele>2439.96</ele>
        <time>2015-07-12T09:29:09Z</time>
      </trkpt>
      <trkpt lat="46.627396456897259" lon="12.341414652764797">
        <ele>2439.96</ele>
        <time>2015-07-12T09:29:37Z</time>
      </trkpt>
      <trkpt lat="46.627386314794421" lon="12.341408198699355">
        <ele>2439.96</ele>
        <time>2015-07-12T09:30:04Z</time>
      </trkpt>
      <trkpt lat="46.627360666170716" lon="12.341323876753449">
        <ele>2439.96</ele>
        <time>2015-07-12T09:30:28Z</time>
      </trkpt>
      <trkpt lat="46.627392433583736" lon="12.341356398537755">
        <ele>2439.96</ele>
        <time>2015-07-12T09:30:42Z</time>
      </trkpt>
      <trkpt lat="46.627388913184404" lon="12.341358410194516">
        <ele>2439.96</ele>
        <time>2015-07-12T09:31:09Z</time>
      </trkpt>
      <trkpt lat="46.627391930669546" lon="12.341367630288005">
        <ele>2441.4099999999999</ele>
        <time>2015-07-12T09:31:11Z</time>
      </trkpt>
      <trkpt lat="46.627389416098595" lon="12.341378359124064">
        <ele>2440.4400000000001</ele>
        <time>2015-07-12T09:31:23Z</time>
      </trkpt>
      <trkpt lat="46.627379860728979" lon="12.341354386880994">
        <ele>2440.4400000000001</ele>
        <time>2015-07-12T09:31:43Z</time>
      </trkpt>
      <trkpt lat="46.627376256510615" lon="12.3413454182446">
        <ele>2440.4400000000001</ele>
        <time>2015-07-12T09:32:08Z</time>
      </trkpt>
      <trkpt lat="46.627397546544671" lon="12.341371485963464">
        <ele>2440.4400000000001</ele>
        <time>2015-07-12T09:32:26Z</time>
      </trkpt>
      <trkpt lat="46.627388494089246" lon="12.341331001371145">
        <ele>2440.4400000000001</ele>
        <time>2015-07-12T09:32:51Z</time>
      </trkpt>
      <trkpt lat="46.627371227368712" lon="12.341367630288005">
        <ele>2440.4400000000001</ele>
        <time>2015-07-12T09:33:16Z</time>
      </trkpt>
      <trkpt lat="46.62735203281045" lon="12.341303927823901">
        <ele>2440.4400000000001</ele>
        <time>2015-07-12T09:33:37Z</time>
      </trkpt>
      <trkpt lat="46.627371059730649" lon="12.341345082968473">
        <ele>2440.4400000000001</ele>
        <time>2015-07-12T09:34:02Z</time>
      </trkpt>
      <trkpt lat="46.627348344773054" lon="12.341346507892013">
        <ele>2440.9200000000001</ele>
        <time>2015-07-12T09:34:25Z</time>
      </trkpt>
      <trkpt lat="46.627331916242838" lon="12.341380286961794">
        <ele>2440.9200000000001</ele>
        <time>2015-07-12T09:34:45Z</time>
      </trkpt>
      <trkpt lat="46.627372484654188" lon="12.341389087960124">
        <ele>2441.4099999999999</ele>
        <time>2015-07-12T09:35:08Z</time>
      </trkpt>
      <trkpt lat="46.62734717130661" lon="12.341367546468973">
        <ele>2440.9200000000001</ele>
        <time>2015-07-12T09:35:29Z</time>
      </trkpt>
      <trkpt lat="46.627362845465541" lon="12.341406270861626">
        <ele>2441.4099999999999</ele>
        <time>2015-07-12T09:35:56Z</time>
      </trkpt>
      <trkpt lat="46.62736619822681" lon="12.341335359960794">
        <ele>2441.4099999999999</ele>
        <time>2015-07-12T09:36:23Z</time>
      </trkpt>
      <trkpt lat="46.627365946769714" lon="12.34139621257782">
        <ele>2441.8899999999999</ele>
        <time>2015-07-12T09:36:46Z</time>
      </trkpt>
      <trkpt lat="46.62738430313766" lon="12.341409958899021">
        <ele>2441.8899999999999</ele>
        <time>2015-07-12T09:37:04Z</time>
      </trkpt>
      <trkpt lat="46.627443647012115" lon="12.341457735747099">
        <ele>2441.8899999999999</ele>
        <time>2015-07-12T09:37:21Z</time>
      </trkpt>
      <trkpt lat="46.627413891255856" lon="12.341469805687666">
        <ele>2441.4099999999999</ele>
        <time>2015-07-12T09:37:41Z</time>
      </trkpt>
      <trkpt lat="46.627453034743667" lon="12.341490341350436">
        <ele>2441.4099999999999</ele>
        <time>2015-07-12T09:38:05Z</time>
      </trkpt>
      <trkpt lat="46.627397714182734" lon="12.341437116265297">
        <ele>2442.3699999999999</ele>
        <time>2015-07-12T09:38:19Z</time>
      </trkpt>
      <trkpt lat="46.627374412491918" lon="12.341415910050273">
        <ele>2442.3699999999999</ele>
        <time>2015-07-12T09:38:28Z</time>
      </trkpt>
      <trkpt lat="46.627341723069549" lon="12.341404845938087">
        <ele>2441.8899999999999</ele>
        <time>2015-07-12T09:38:42Z</time>
      </trkpt>
      <trkpt lat="46.627375083044171" lon="12.341397805139422">
        <ele>2442.3699999999999</ele>
        <time>2015-07-12T09:39:02Z</time>
      </trkpt>
      <trkpt lat="46.627394612878561" lon="12.341399565339088">
        <ele>2442.3699999999999</ele>
        <time>2015-07-12T09:39:21Z</time>
      </trkpt>
      <trkpt lat="46.627390421926975" lon="12.341432757675648">
        <ele>2442.3699999999999</ele>
        <time>2015-07-12T09:39:31Z</time>
      </trkpt>
      <trkpt lat="46.627378351986408" lon="12.3414162453264">
        <ele>2442.3699999999999</ele>
        <time>2015-07-12T09:39:41Z</time>
      </trkpt>
      <trkpt lat="46.627362174913287" lon="12.341428734362125">
        <ele>2441.8899999999999</ele>
        <time>2015-07-12T09:39:53Z</time>
      </trkpt>
      <trkpt lat="46.627408610656857" lon="12.341391267254949">
        <ele>2442.3699999999999</ele>
        <time>2015-07-12T09:40:06Z</time>
      </trkpt>
      <trkpt lat="46.627385476604104" lon="12.341374838724732">
        <ele>2442.3699999999999</ele>
        <time>2015-07-12T09:40:17Z</time>
      </trkpt>
      <trkpt lat="46.627404419705272" lon="12.341371737420559">
        <ele>2442.3699999999999</ele>
        <time>2015-07-12T09:40:33Z</time>
      </trkpt>
      <trkpt lat="46.627387404441833" lon="12.341393027454615">
        <ele>2442.3699999999999</ele>
        <time>2015-07-12T09:40:44Z</time>
      </trkpt>
      <trkpt lat="46.627413723617792" lon="12.341368719935417">
        <ele>2442.3699999999999</ele>
        <time>2015-07-12T09:40:58Z</time>
      </trkpt>
      <trkpt lat="46.627408694475889" lon="12.341399062424898">
        <ele>2442.3699999999999</ele>
        <time>2015-07-12T09:41:10Z</time>
      </trkpt>
      <trkpt lat="46.627429984509945" lon="12.341372575610876">
        <ele>2442.3699999999999</ele>
        <time>2015-07-12T09:41:24Z</time>
      </trkpt>
      <trkpt lat="46.627489663660526" lon="12.341278279200196">
        <ele>2441.8899999999999</ele>
        <time>2015-07-12T09:41:36Z</time>
      </trkpt>
      <trkpt lat="46.627584798261523" lon="12.341210469603539">
        <ele>2442.3699999999999</ele>
        <time>2015-07-12T09:41:50Z</time>
      </trkpt>
      <trkpt lat="46.627630144357681" lon="12.341234441846609">
        <ele>2442.3699999999999</ele>
        <time>2015-07-12T09:41:55Z</time>
      </trkpt>
      <trkpt lat="46.62773123010993" lon="12.341297892853618">
        <ele>2444.29</ele>
        <time>2015-07-12T09:42:06Z</time>
      </trkpt>
      <trkpt lat="46.627793004736304" lon="12.341303341090679">
        <ele>2446.21</ele>
        <time>2015-07-12T09:42:18Z</time>
      </trkpt>
      <trkpt lat="46.627841619774699" lon="12.341257743537426">
        <ele>2447.6500000000001</ele>
        <time>2015-07-12T09:42:28Z</time>
      </trkpt>
      <trkpt lat="46.627885038033128" lon="12.341177612543106">
        <ele>2449.0999999999999</ele>
        <time>2015-07-12T09:42:39Z</time>
      </trkpt>
      <trkpt lat="46.627929545938969" lon="12.341108880937099">
        <ele>2450.54</ele>
        <time>2015-07-12T09:42:50Z</time>
      </trkpt>
      <trkpt lat="46.62796919234097" lon="12.341049537062645">
        <ele>2451.98</ele>
        <time>2015-07-12T09:43:01Z</time>
      </trkpt>
      <trkpt lat="46.62803272716701" lon="12.340953145176172">
        <ele>2452.9400000000001</ele>
        <time>2015-07-12T09:43:13Z</time>
      </trkpt>
      <trkpt lat="46.62811285816133" lon="12.340862033888698">
        <ele>2453.9000000000001</ele>
        <time>2015-07-12T09:43:25Z</time>
      </trkpt>
      <trkpt lat="46.62819541990757" lon="12.340828757733107">
        <ele>2455.3400000000001</ele>
        <time>2015-07-12T09:43:37Z</time>
      </trkpt>
      <trkpt lat="46.628254344686866" lon="12.34079422429204">
        <ele>2457.27</ele>
        <time>2015-07-12T09:43:49Z</time>
      </trkpt>
      <trkpt lat="46.628296254202724" lon="12.340773269534111">
        <ele>2458.23</ele>
        <time>2015-07-12T09:43:54Z</time>
      </trkpt>
      <trkpt lat="46.628414522856474" lon="12.340766983106732">
        <ele>2458.23</ele>
        <time>2015-07-12T09:44:06Z</time>
      </trkpt>
      <trkpt lat="46.628547962754965" lon="12.340780813246965">
        <ele>2459.1900000000001</ele>
        <time>2015-07-12T09:44:18Z</time>
      </trkpt>
      <trkpt lat="46.628614012151957" lon="12.340842420235276">
        <ele>2461.1100000000001</ele>
        <time>2015-07-12T09:44:30Z</time>
      </trkpt>
      <trkpt lat="46.62865768186748" lon="12.340889861807227">
        <ele>2463.52</ele>
        <time>2015-07-12T09:44:40Z</time>
      </trkpt>
      <trkpt lat="46.628696322441101" lon="12.340927748009562">
        <ele>2465.4400000000001</ele>
        <time>2015-07-12T09:44:51Z</time>
      </trkpt>
      <trkpt lat="46.628765137866139" lon="12.340937471017241">
        <ele>2467.3600000000001</ele>
        <time>2015-07-12T09:45:04Z</time>
      </trkpt>
      <trkpt lat="46.628792798146605" lon="12.340946774929762">
        <ele>2467.3600000000001</ele>
        <time>2015-07-12T09:45:08Z</time>
      </trkpt>
      <trkpt lat="46.628882652148604" lon="12.340968819335103">
        <ele>2468.8000000000002</ele>
        <time>2015-07-12T09:45:21Z</time>
      </trkpt>
      <trkpt lat="46.628982312977314" lon="12.340980805456638">
        <ele>2470.2399999999998</ele>
        <time>2015-07-12T09:45:34Z</time>
      </trkpt>
      <trkpt lat="46.629057750105858" lon="12.340959599241614">
        <ele>2471.6900000000001</ele>
        <time>2015-07-12T09:45:46Z</time>
      </trkpt>
      <trkpt lat="46.629119692370296" lon="12.340957587584853">
        <ele>2473.1300000000001</ele>
        <time>2015-07-12T09:45:57Z</time>
      </trkpt>
      <trkpt lat="46.62920250557363" lon="12.34098088927567">
        <ele>2474.0900000000001</ele>
        <time>2015-07-12T09:46:09Z</time>
      </trkpt>
      <trkpt lat="46.629301412031054" lon="12.341035287827253">
        <ele>2475.5300000000002</ele>
        <time>2015-07-12T09:46:21Z</time>
      </trkpt>
      <trkpt lat="46.629382213577628" lon="12.34099161811173">
        <ele>2476.9699999999998</ele>
        <time>2015-07-12T09:46:35Z</time>
      </trkpt>
      <trkpt lat="46.629398139193654" lon="12.340968064963818">
        <ele>2477.4499999999998</ele>
        <time>2015-07-12T09:46:38Z</time>
      </trkpt>
      <trkpt lat="46.629475085064769" lon="12.340862536802888">
        <ele>2478.4200000000001</ele>
        <time>2015-07-12T09:46:50Z</time>
      </trkpt>
      <trkpt lat="46.629530573263764" lon="12.340779472142458">
        <ele>2479.8600000000001</ele>
        <time>2015-07-12T09:47:01Z</time>
      </trkpt>
      <trkpt lat="46.629584049805999" lon="12.340664807707071">
        <ele>2481.7800000000002</ele>
        <time>2015-07-12T09:47:15Z</time>
      </trkpt>
      <trkpt lat="46.629622438922524" lon="12.340566236525774">
        <ele>2483.2199999999998</ele>
        <time>2015-07-12T09:47:26Z</time>
      </trkpt>
      <trkpt lat="46.629648925736547" lon="12.340470599010587">
        <ele>2483.6999999999998</ele>
        <time>2015-07-12T09:47:34Z</time>
      </trkpt>
      <trkpt lat="46.6297013964504" lon="12.340332381427288">
        <ele>2485.1500000000001</ele>
        <time>2015-07-12T09:47:46Z</time>
      </trkpt>
      <trkpt lat="46.629746239632368" lon="12.340217046439648">
        <ele>2486.5900000000001</ele>
        <time>2015-07-12T09:47:59Z</time>
      </trkpt>
      <trkpt lat="46.629765098914504" lon="12.340134317055345">
        <ele>2488.0300000000002</ele>
        <time>2015-07-12T09:48:09Z</time>
      </trkpt>
      <trkpt lat="46.629765853285789" lon="12.34007740393281">
        <ele>2488.9899999999998</ele>
        <time>2015-07-12T09:48:17Z</time>
      </trkpt>
      <trkpt lat="46.629767948761582" lon="12.339969780296087">
        <ele>2490.9099999999999</ele>
        <time>2015-07-12T09:48:29Z</time>
      </trkpt>
      <trkpt lat="46.629774235188961" lon="12.339830473065376">
        <ele>2492.8400000000001</ele>
        <time>2015-07-12T09:48:42Z</time>
      </trkpt>
      <trkpt lat="46.62976979278028" lon="12.339723855257034">
        <ele>2493.8000000000002</ele>
        <time>2015-07-12T09:48:54Z</time>
      </trkpt>
      <trkpt lat="46.62975269369781" lon="12.339600138366222">
        <ele>2495.7199999999998</ele>
        <time>2015-07-12T09:49:07Z</time>
      </trkpt>
      <trkpt lat="46.629728972911835" lon="12.339495196938515">
        <ele>2498.1199999999999</ele>
        <time>2015-07-12T09:49:19Z</time>
      </trkpt>
      <trkpt lat="46.629712376743555" lon="12.339418167248368">
        <ele>2499.5700000000002</ele>
        <time>2015-07-12T09:49:29Z</time>
      </trkpt>
      <trkpt lat="46.629674909636378" lon="12.339301574975252">
        <ele>2501.4899999999998</ele>
        <time>2015-07-12T09:49:44Z</time>
      </trkpt>
      <trkpt lat="46.629643477499485" lon="12.33918665908277">
        <ele>2504.3699999999999</ele>
        <time>2015-07-12T09:49:58Z</time>
      </trkpt>
      <trkpt lat="46.629620343446732" lon="12.339111724868417">
        <ele>2505.8099999999999</ele>
        <time>2015-07-12T09:50:10Z</time>
      </trkpt>
      <trkpt lat="46.629589330404997" lon="12.339018853381276">
        <ele>2507.7399999999998</ele>
        <time>2015-07-12T09:50:22Z</time>
      </trkpt>
      <trkpt lat="46.629545157775283" lon="12.338899578899145">
        <ele>2509.6599999999999</ele>
        <time>2015-07-12T09:50:36Z</time>
      </trkpt>
      <trkpt lat="46.629487322643399" lon="12.338771587237716">
        <ele>2511.5799999999999</ele>
        <time>2015-07-12T09:50:51Z</time>
      </trkpt>
      <trkpt lat="46.629442479461432" lon="12.33865600079298">
        <ele>2513.98</ele>
        <time>2015-07-12T09:51:06Z</time>
      </trkpt>
      <trkpt lat="46.629403252154589" lon="12.338536726310849">
        <ele>2517.3499999999999</ele>
        <time>2015-07-12T09:51:21Z</time>
      </trkpt>
      <trkpt lat="46.629373831674457" lon="12.338431114330888">
        <ele>2518.79</ele>
        <time>2015-07-12T09:51:35Z</time>
      </trkpt>
      <trkpt lat="46.629327731207013" lon="12.338346289470792">
        <ele>2520.71</ele>
        <time>2015-07-12T09:51:47Z</time>
      </trkpt>
      <trkpt lat="46.629266710951924" lon="12.338244281709194">
        <ele>2522.6399999999999</ele>
        <time>2015-07-12T09:52:00Z</time>
      </trkpt>
      <trkpt lat="46.629258496686816" lon="12.338223243132234">
        <ele>2522.6399999999999</ele>
        <time>2015-07-12T09:52:02Z</time>
      </trkpt>
      <trkpt lat="46.629206947982311" lon="12.338102627545595">
        <ele>2524.0799999999999</ele>
        <time>2015-07-12T09:52:14Z</time>
      </trkpt>
      <trkpt lat="46.62919906899333" lon="12.337969522923231">
        <ele>2525.04</ele>
        <time>2015-07-12T09:52:26Z</time>
      </trkpt>
      <trkpt lat="46.629205606877804" lon="12.337853601202369">
        <ele>2526.96</ele>
        <time>2015-07-12T09:52:38Z</time>
      </trkpt>
      <trkpt lat="46.629215916618705" lon="12.337769530713558">
        <ele>2527.9200000000001</ele>
        <time>2015-07-12T09:52:49Z</time>
      </trkpt>
      <trkpt lat="46.629221783950925" lon="12.337678503245115">
        <ele>2529.8499999999999</ele>
        <time>2015-07-12T09:53:01Z</time>
      </trkpt>
      <trkpt lat="46.62930459715426" lon="12.337737260386348">
        <ele>2532.25</ele>
        <time>2015-07-12T09:53:11Z</time>
      </trkpt>
      <trkpt lat="46.629340052604675" lon="12.33770658262074">
        <ele>2534.1700000000001</ele>
        <time>2015-07-12T09:53:20Z</time>
      </trkpt>
      <trkpt lat="46.629346841946244" lon="12.337700128555298">
        <ele>2534.6500000000001</ele>
        <time>2015-07-12T09:53:33Z</time>
      </trkpt>
      <trkpt lat="46.629362013190985" lon="12.337713958695531">
        <ele>2534.6500000000001</ele>
        <time>2015-07-12T09:53:46Z</time>
      </trkpt>
      <trkpt lat="46.629352709278464" lon="12.337720412760973">
        <ele>2534.6500000000001</ele>
        <time>2015-07-12T09:53:57Z</time>
      </trkpt>
      <trkpt lat="46.629344243556261" lon="12.337704990059137">
        <ele>2534.6500000000001</ele>
        <time>2015-07-12T09:54:09Z</time>
      </trkpt>
      <trkpt lat="46.629354050382972" lon="12.33771194703877">
        <ele>2535.1300000000001</ele>
        <time>2015-07-12T09:54:20Z</time>
      </trkpt>
      <trkpt lat="46.629347763955593" lon="12.337714545428753">
        <ele>2535.1300000000001</ele>
        <time>2015-07-12T09:54:28Z</time>
      </trkpt>
      <trkpt lat="46.629333682358265" lon="12.33771538361907">
        <ele>2534.6500000000001</ele>
        <time>2015-07-12T09:54:39Z</time>
      </trkpt>
      <trkpt lat="46.629312559962273" lon="12.337698535993695">
        <ele>2534.6500000000001</ele>
        <time>2015-07-12T09:54:51Z</time>
      </trkpt>
      <trkpt lat="46.629321109503508" lon="12.337686801329255">
        <ele>2534.1700000000001</ele>
        <time>2015-07-12T09:55:12Z</time>
      </trkpt>
      <trkpt lat="46.629323121160269" lon="12.337709097191691">
        <ele>2534.6500000000001</ele>
        <time>2015-07-12T09:55:34Z</time>
      </trkpt>
      <trkpt lat="46.629304261878133" lon="12.337717982009053">
        <ele>2534.6500000000001</ele>
        <time>2015-07-12T09:55:55Z</time>
      </trkpt>
      <trkpt lat="46.629319014027715" lon="12.337713539600372">
        <ele>2535.1300000000001</ele>
        <time>2015-07-12T09:56:10Z</time>
      </trkpt>
      <trkpt lat="46.629324294626713" lon="12.337717898190022">
        <ele>2534.6500000000001</ele>
        <time>2015-07-12T09:56:27Z</time>
      </trkpt>
      <trkpt lat="46.629332927986979" lon="12.337703481316566">
        <ele>2535.1300000000001</ele>
        <time>2015-07-12T09:56:43Z</time>
      </trkpt>
      <trkpt lat="46.629334855824709" lon="12.33771244995296">
        <ele>2535.1300000000001</ele>
        <time>2015-07-12T09:56:58Z</time>
      </trkpt>
      <trkpt lat="46.629329239949584" lon="12.337694680318236">
        <ele>2535.1300000000001</ele>
        <time>2015-07-12T09:57:15Z</time>
      </trkpt>
      <trkpt lat="46.629324126988649" lon="12.337709683924913">
        <ele>2535.1300000000001</ele>
        <time>2015-07-12T09:57:30Z</time>
      </trkpt>
      <trkpt lat="46.629327479749918" lon="12.337681101635098">
        <ele>2534.6500000000001</ele>
        <time>2015-07-12T09:57:41Z</time>
      </trkpt>
      <trkpt lat="46.629323456436396" lon="12.337683029472828">
        <ele>2535.1300000000001</ele>
        <time>2015-07-12T09:57:58Z</time>
      </trkpt>
      <trkpt lat="46.629314068704844" lon="12.33769778162241">
        <ele>2535.6100000000001</ele>
        <time>2015-07-12T09:58:10Z</time>
      </trkpt>
      <trkpt lat="46.629344243556261" lon="12.337715215981007">
        <ele>2535.6100000000001</ele>
        <time>2015-07-12T09:58:23Z</time>
      </trkpt>
      <trkpt lat="46.629324965178967" lon="12.337702726945281">
        <ele>2535.6100000000001</ele>
        <time>2015-07-12T09:58:41Z</time>
      </trkpt>
      <trkpt lat="46.629316750913858" lon="12.337699374184012">
        <ele>2535.6100000000001</ele>
        <time>2015-07-12T09:59:01Z</time>
      </trkpt>
      <trkpt lat="46.629316415637732" lon="12.337679341435432">
        <ele>2535.6100000000001</ele>
        <time>2015-07-12T09:59:20Z</time>
      </trkpt>
      <trkpt lat="46.62932270206511" lon="12.33770415186882">
        <ele>2536.0999999999999</ele>
        <time>2015-07-12T09:59:34Z</time>
      </trkpt>
      <trkpt lat="46.629324462264776" lon="12.337707169353962">
        <ele>2536.0999999999999</ele>
        <time>2015-07-12T09:59:46Z</time>
      </trkpt>
      <trkpt lat="46.629316499456763" lon="12.337709432467818">
        <ele>2536.0999999999999</ele>
        <time>2015-07-12T10:00:08Z</time>
      </trkpt>
      <trkpt lat="46.629326138645411" lon="12.337710103020072">
        <ele>2536.0999999999999</ele>
        <time>2015-07-12T10:00:20Z</time>
      </trkpt>
      <trkpt lat="46.629355307668447" lon="12.337754443287849">
        <ele>2535.6100000000001</ele>
        <time>2015-07-12T10:00:36Z</time>
      </trkpt>
      <trkpt lat="46.629365030676126" lon="12.337800459936261">
        <ele>2536.5799999999999</ele>
        <time>2015-07-12T10:00:40Z</time>
      </trkpt>
      <trkpt lat="46.629363941028714" lon="12.337895426899195">
        <ele>2537.0599999999999</ele>
        <time>2015-07-12T10:00:51Z</time>
      </trkpt>
      <trkpt lat="46.629373244941235" lon="12.337951501831412">
        <ele>2537.54</ele>
        <time>2015-07-12T10:00:56Z</time>
      </trkpt>
      <trkpt lat="46.629451448097825" lon="12.338036997243762">
        <ele>2538.5</ele>
        <time>2015-07-12T10:01:09Z</time>
      </trkpt>
      <trkpt lat="46.629530321806669" lon="12.338072368875146">
        <ele>2540.9000000000001</ele>
        <time>2015-07-12T10:01:22Z</time>
      </trkpt>
      <trkpt lat="46.629612045362592" lon="12.338067255914211">
        <ele>2542.8200000000002</ele>
        <time>2015-07-12T10:01:34Z</time>
      </trkpt>
      <trkpt lat="46.629688404500484" lon="12.338111344724894">
        <ele>2545.71</ele>
        <time>2015-07-12T10:01:47Z</time>
      </trkpt>
      <trkpt lat="46.629756549373269" lon="12.338168593123555">
        <ele>2547.6300000000001</ele>
        <time>2015-07-12T10:01:59Z</time>
      </trkpt>
      <trkpt lat="46.629802733659744" lon="12.338209664449096">
        <ele>2549.0700000000002</ele>
        <time>2015-07-12T10:02:08Z</time>
      </trkpt>
      <trkpt lat="46.629847744479775" lon="12.338227350264788">
        <ele>2549.5500000000002</ele>
        <time>2015-07-12T10:02:17Z</time>
      </trkpt>
      <trkpt lat="46.629917146638036" lon="12.338252244517207">
        <ele>2551</ele>
        <time>2015-07-12T10:02:30Z</time>
      </trkpt>
      <trkpt lat="46.630011275410652" lon="12.33827973715961">
        <ele>2552.9200000000001</ele>
        <time>2015-07-12T10:02:43Z</time>
      </trkpt>
      <trkpt lat="46.630029464140534" lon="12.338286945596337">
        <ele>2552.9200000000001</ele>
        <time>2015-07-12T10:02:45Z</time>
      </trkpt>
      <trkpt lat="46.630164915695786" lon="12.338359029963613">
        <ele>2553.8800000000001</ele>
        <time>2015-07-12T10:02:59Z</time>
      </trkpt>
      <trkpt lat="46.630257284268737" lon="12.338449470698833">
        <ele>2554.8400000000001</ele>
        <time>2015-07-12T10:03:11Z</time>
      </trkpt>
      <trkpt lat="46.630347054451704" lon="12.33863789588213">
        <ele>2555.3200000000002</ele>
        <time>2015-07-12T10:03:24Z</time>
      </trkpt>
      <trkpt lat="46.630460796877742" lon="12.338763372972608">
        <ele>2554.8400000000001</ele>
        <time>2015-07-12T10:03:37Z</time>
      </trkpt>
      <trkpt lat="46.630570599809289" lon="12.33877862803638">
        <ele>2557.73</ele>
        <time>2015-07-12T10:03:51Z</time>
      </trkpt>
      <trkpt lat="46.630572443827987" lon="12.338790111243725">
        <ele>2558.21</ele>
        <time>2015-07-12T10:03:52Z</time>
      </trkpt>
      <trkpt lat="46.630708230659366" lon="12.338836127892137">
        <ele>2558.21</ele>
        <time>2015-07-12T10:04:06Z</time>
      </trkpt>
      <trkpt lat="46.630745446309447" lon="12.338820621371269">
        <ele>2559.1700000000001</ele>
        <time>2015-07-12T10:04:13Z</time>
      </trkpt>
      <trkpt lat="46.630731951445341" lon="12.338823722675443">
        <ele>2558.21</ele>
        <time>2015-07-12T10:04:27Z</time>
      </trkpt>
      <trkpt lat="46.630744440481067" lon="12.338838391005993">
        <ele>2558.6900000000001</ele>
        <time>2015-07-12T10:04:43Z</time>
      </trkpt>
      <trkpt lat="46.630743686109781" lon="12.338824812322855">
        <ele>2558.6900000000001</ele>
        <time>2015-07-12T10:04:57Z</time>
      </trkpt>
      <trkpt lat="46.630744775757194" lon="12.3388103954494">
        <ele>2558.21</ele>
        <time>2015-07-12T10:05:09Z</time>
      </trkpt>
      <trkpt lat="46.630712924525142" lon="12.338849036023021">
        <ele>2558.6900000000001</ele>
        <time>2015-07-12T10:05:24Z</time>
      </trkpt>
      <trkpt lat="46.630706386640668" lon="12.338820453733206">
        <ele>2558.6900000000001</ele>
        <time>2015-07-12T10:05:36Z</time>
      </trkpt>
      <trkpt lat="46.630714433267713" lon="12.338860938325524">
        <ele>2558.21</ele>
        <time>2015-07-12T10:05:52Z</time>
      </trkpt>
      <trkpt lat="46.630793223157525" lon="12.338933106511831">
        <ele>2559.6500000000001</ele>
        <time>2015-07-12T10:06:03Z</time>
      </trkpt>
      <trkpt lat="46.630904786288738" lon="12.339098649099469">
        <ele>2562.0500000000002</ele>
        <time>2015-07-12T10:06:18Z</time>
      </trkpt>
      <trkpt lat="46.630996316671371" lon="12.339245500043035">
        <ele>2565.4200000000001</ele>
        <time>2015-07-12T10:06:32Z</time>
      </trkpt>
      <trkpt lat="46.631073262542486" lon="12.339420849457383">
        <ele>2568.7800000000002</ele>
        <time>2015-07-12T10:06:48Z</time>
      </trkpt>
      <trkpt lat="46.631041830405593" lon="12.339610196650028">
        <ele>2570.2199999999998</ele>
        <time>2015-07-12T10:07:06Z</time>
      </trkpt>
      <trkpt lat="46.631017019972205" lon="12.339695692062378">
        <ele>2570.2199999999998</ele>
        <time>2015-07-12T10:07:18Z</time>
      </trkpt>
      <trkpt lat="46.631008218973875" lon="12.339700637385249">
        <ele>2570.2199999999998</ele>
        <time>2015-07-12T10:07:19Z</time>
      </trkpt>
      <trkpt lat="46.630906965583563" lon="12.339763250201941">
        <ele>2568.7800000000002</ele>
        <time>2015-07-12T10:07:29Z</time>
      </trkpt>
      <trkpt lat="46.630868325009942" lon="12.339804489165545">
        <ele>2567.8200000000002</ele>
        <time>2015-07-12T10:07:33Z</time>
      </trkpt>
      <trkpt lat="46.630805628374219" lon="12.340006241574883">
        <ele>2567.3400000000001</ele>
        <time>2015-07-12T10:07:47Z</time>
      </trkpt>
      <trkpt lat="46.630799006670713" lon="12.340075811371207">
        <ele>2566.3800000000001</ele>
        <time>2015-07-12T10:07:53Z</time>
      </trkpt>
      <trkpt lat="46.630810322239995" lon="12.340173292905092">
        <ele>2567.3400000000001</ele>
        <time>2015-07-12T10:08:04Z</time>
      </trkpt>
      <trkpt lat="46.630765479058027" lon="12.340110093355179">
        <ele>2568.3000000000002</ele>
        <time>2015-07-12T10:08:13Z</time>
      </trkpt>
      <trkpt lat="46.630751565098763" lon="12.340130377560854">
        <ele>2568.7800000000002</ele>
        <time>2015-07-12T10:08:26Z</time>
      </trkpt>
      <trkpt lat="46.630770424380898" lon="12.340119732543826">
        <ele>2567.3400000000001</ele>
        <time>2015-07-12T10:08:40Z</time>
      </trkpt>
      <trkpt lat="46.630779812112451" lon="12.340127695351839">
        <ele>2569.2600000000002</ele>
        <time>2015-07-12T10:08:49Z</time>
      </trkpt>
      <trkpt lat="46.630802024155855" lon="12.3401780705899">
        <ele>2568.3000000000002</ele>
        <time>2015-07-12T10:08:54Z</time>
      </trkpt>
      <trkpt lat="46.630816608667374" lon="12.340191816911101">
        <ele>2568.3000000000002</ele>
        <time>2015-07-12T10:08:56Z</time>
      </trkpt>
      <trkpt lat="46.630871007218957" lon="12.340363897383213">
        <ele>2567.8200000000002</ele>
        <time>2015-07-12T10:09:08Z</time>
      </trkpt>
      <trkpt lat="46.630919286981225" lon="12.340398011729121">
        <ele>2567.3400000000001</ele>
        <time>2015-07-12T10:09:16Z</time>
      </trkpt>
      <trkpt lat="46.630964381620288" lon="12.340399688109756">
        <ele>2567.8200000000002</ele>
        <time>2015-07-12T10:09:26Z</time>
      </trkpt>
      <trkpt lat="46.630974104627967" lon="12.340426677837968">
        <ele>2567.8200000000002</ele>
        <time>2015-07-12T10:09:31Z</time>
      </trkpt>
      <trkpt lat="46.631048200652003" lon="12.340451069176197">
        <ele>2568.7800000000002</ele>
        <time>2015-07-12T10:09:41Z</time>
      </trkpt>
      <trkpt lat="46.631083488464355" lon="12.340413182973862">
        <ele>2569.7399999999998</ele>
        <time>2015-07-12T10:09:52Z</time>
      </trkpt>
      <trkpt lat="46.63109052926302" lon="12.340427432209253">
        <ele>2570.2199999999998</ele>
        <time>2015-07-12T10:10:06Z</time>
      </trkpt>
      <trkpt lat="46.631105113774538" lon="12.340388707816601">
        <ele>2571.6599999999999</ele>
        <time>2015-07-12T10:10:19Z</time>
      </trkpt>
      <trkpt lat="46.631157919764519" lon="12.340321568772197">
        <ele>2574.0700000000002</ele>
        <time>2015-07-12T10:10:32Z</time>
      </trkpt>
      <trkpt lat="46.631151549518108" lon="12.340302625671029">
        <ele>2575.0300000000002</ele>
        <time>2015-07-12T10:10:40Z</time>
      </trkpt>
      <trkpt lat="46.631197901442647" lon="12.340247640386224">
        <ele>2575.9899999999998</ele>
        <time>2015-07-12T10:10:48Z</time>
      </trkpt>
      <trkpt lat="46.63128113374114" lon="12.340238336473703">
        <ele>2577.4299999999998</ele>
        <time>2015-07-12T10:11:01Z</time>
      </trkpt>
      <trkpt lat="46.631324971094728" lon="12.340293992310762">
        <ele>2576.9499999999998</ele>
        <time>2015-07-12T10:11:12Z</time>
      </trkpt>
      <trkpt lat="46.631377190351486" lon="12.34030120074749">
        <ele>2576.4699999999998</ele>
        <time>2015-07-12T10:11:22Z</time>
      </trkpt>
      <trkpt lat="46.631422368809581" lon="12.34025334008038">
        <ele>2577.4299999999998</ele>
        <time>2015-07-12T10:11:31Z</time>
      </trkpt>
      <trkpt lat="46.631473414599895" lon="12.340200198814273">
        <ele>2578.3899999999999</ele>
        <time>2015-07-12T10:11:40Z</time>
      </trkpt>
      <trkpt lat="46.631555054336786" lon="12.340179579332471">
        <ele>2578.8699999999999</ele>
        <time>2015-07-12T10:11:50Z</time>
      </trkpt>
      <trkpt lat="46.631606183946133" lon="12.340163988992572">
        <ele>2577.9099999999999</ele>
        <time>2015-07-12T10:11:59Z</time>
      </trkpt>
      <trkpt lat="46.631661169230938" lon="12.340243197977543">
        <ele>2576.9499999999998</ele>
        <time>2015-07-12T10:12:09Z</time>
      </trkpt>
      <trkpt lat="46.631661085411906" lon="12.340247640386224">
        <ele>2576.4699999999998</ele>
        <time>2015-07-12T10:12:11Z</time>
      </trkpt>
      <trkpt lat="46.631666282191873" lon="12.340263146907091">
        <ele>2575.5100000000002</ele>
        <time>2015-07-12T10:12:14Z</time>
      </trkpt>
      <trkpt lat="46.631663097068667" lon="12.340257111936808">
        <ele>2574.0700000000002</ele>
        <time>2015-07-12T10:12:23Z</time>
      </trkpt>
      <trkpt lat="46.631737779825926" lon="12.340312516316772">
        <ele>2571.6599999999999</ele>
        <time>2015-07-12T10:12:33Z</time>
      </trkpt>
      <trkpt lat="46.631741551682353" lon="12.340333890169859">
        <ele>2571.1799999999998</ele>
        <time>2015-07-12T10:12:35Z</time>
      </trkpt>
      <trkpt lat="46.631787149235606" lon="12.340425001457334">
        <ele>2569.2600000000002</ele>
        <time>2015-07-12T10:12:44Z</time>
      </trkpt>
      <trkpt lat="46.631825119256973" lon="12.340511083602905">
        <ele>2566.3800000000001</ele>
        <time>2015-07-12T10:12:54Z</time>
      </trkpt>
      <trkpt lat="46.631885133683681" lon="12.340540504083037">
        <ele>2565.4200000000001</ele>
        <time>2015-07-12T10:13:03Z</time>
      </trkpt>
      <trkpt lat="46.631931066513062" lon="12.340569756925106">
        <ele>2562.5300000000002</ele>
        <time>2015-07-12T10:13:12Z</time>
      </trkpt>
      <trkpt lat="46.631988482549787" lon="12.340651899576187">
        <ele>2560.6100000000001</ele>
        <time>2015-07-12T10:13:22Z</time>
      </trkpt>
      <trkpt lat="46.631993427872658" lon="12.340681487694383">
        <ele>2560.6100000000001</ele>
        <time>2015-07-12T10:13:24Z</time>
      </trkpt>
      <trkpt lat="46.631999295204878" lon="12.34073949046433">
        <ele>2560.1300000000001</ele>
        <time>2015-07-12T10:13:28Z</time>
      </trkpt>
      <trkpt lat="46.631976161152124" lon="12.340824231505394">
        <ele>2560.1300000000001</ele>
        <time>2015-07-12T10:13:35Z</time>
      </trkpt>
      <trkpt lat="46.631949339061975" lon="12.340863961726427">
        <ele>2559.1700000000001</ele>
        <time>2015-07-12T10:13:46Z</time>
      </trkpt>
      <trkpt lat="46.631917152553797" lon="12.340881982818246">
        <ele>2559.1700000000001</ele>
        <time>2015-07-12T10:13:49Z</time>
      </trkpt>
      <trkpt lat="46.631876919418573" lon="12.340929508209229">
        <ele>2558.6900000000001</ele>
        <time>2015-07-12T10:13:54Z</time>
      </trkpt>
      <trkpt lat="46.631765943020582" lon="12.341020116582513">
        <ele>2557.2399999999998</ele>
        <time>2015-07-12T10:14:05Z</time>
      </trkpt>
      <trkpt lat="46.631673155352473" lon="12.341139893978834">
        <ele>2555.8000000000002</ele>
        <time>2015-07-12T10:14:18Z</time>
      </trkpt>
      <trkpt lat="46.631659157574177" lon="12.341140815988183">
        <ele>2555.3200000000002</ele>
        <time>2015-07-12T10:14:27Z</time>
      </trkpt>
      <trkpt lat="46.631652368232608" lon="12.341143162921071">
        <ele>2555.3200000000002</ele>
        <time>2015-07-12T10:14:44Z</time>
      </trkpt>
      <trkpt lat="46.631577685475349" lon="12.34122815541923">
        <ele>2553.8800000000001</ele>
        <time>2015-07-12T10:14:58Z</time>
      </trkpt>
      <trkpt lat="46.631582044064999" lon="12.341215666383505">
        <ele>2553.8800000000001</ele>
        <time>2015-07-12T10:14:59Z</time>
      </trkpt>
      <trkpt lat="46.63162998855114" lon="12.341182306408882">
        <ele>2554.3600000000001</ele>
        <time>2015-07-12T10:15:08Z</time>
      </trkpt>
      <trkpt lat="46.631630659103394" lon="12.341172834858298">
        <ele>2554.3600000000001</ele>
        <time>2015-07-12T10:15:25Z</time>
      </trkpt>
      <trkpt lat="46.631637867540121" lon="12.341172751039267">
        <ele>2551</ele>
        <time>2015-07-12T10:15:27Z</time>
      </trkpt>
      <trkpt lat="46.631637783721089" lon="12.341172080487013">
        <ele>2554.8400000000001</ele>
        <time>2015-07-12T10:15:28Z</time>
      </trkpt>
      <trkpt lat="46.631633592769504" lon="12.341171409934759">
        <ele>2555.8000000000002</ele>
        <time>2015-07-12T10:15:30Z</time>
      </trkpt>
      <trkpt lat="46.631621103733778" lon="12.341176941990852">
        <ele>2554.8400000000001</ele>
        <time>2015-07-12T10:15:59Z</time>
      </trkpt>
      <trkpt lat="46.631617415696383" lon="12.341196136549115">
        <ele>2554.8400000000001</ele>
        <time>2015-07-12T10:16:36Z</time>
      </trkpt>
      <trkpt lat="46.631602747365832" lon="12.341154562309384">
        <ele>2554.8400000000001</ele>
        <time>2015-07-12T10:17:09Z</time>
      </trkpt>
      <trkpt lat="46.63161288946867" lon="12.341165626421571">
        <ele>2555.3200000000002</ele>
        <time>2015-07-12T10:17:33Z</time>
      </trkpt>
      <trkpt lat="46.631608279421926" lon="12.341168057173491">
        <ele>2554.8400000000001</ele>
        <time>2015-07-12T10:17:56Z</time>
      </trkpt>
      <trkpt lat="46.631589001044631" lon="12.341152047738433">
        <ele>2555.8000000000002</ele>
        <time>2015-07-12T10:18:25Z</time>
      </trkpt>
      <trkpt lat="46.631598472595215" lon="12.341164872050285">
        <ele>2555.8000000000002</ele>
        <time>2015-07-12T10:18:55Z</time>
      </trkpt>
      <trkpt lat="46.631610877811909" lon="12.341163950040936">
        <ele>2555.3200000000002</ele>
        <time>2015-07-12T10:19:28Z</time>
      </trkpt>
      <trkpt lat="46.631614565849304" lon="12.341182390227914">
        <ele>2555.3200000000002</ele>
        <time>2015-07-12T10:20:08Z</time>
      </trkpt>
      <trkpt lat="46.631612638011575" lon="12.341166045516729">
        <ele>2555.3200000000002</ele>
        <time>2015-07-12T10:20:37Z</time>
      </trkpt>
      <trkpt lat="46.631620600819588" lon="12.34117241576314">
        <ele>2555.3200000000002</ele>
        <time>2015-07-12T10:21:04Z</time>
      </trkpt>
      <trkpt lat="46.631634850054979" lon="12.341188760474324">
        <ele>2555.8000000000002</ele>
        <time>2015-07-12T10:21:33Z</time>
      </trkpt>
      <trkpt lat="46.631603669375181" lon="12.341187000274658">
        <ele>2555.3200000000002</ele>
        <time>2015-07-12T10:22:05Z</time>
      </trkpt>
      <trkpt lat="46.631618505343795" lon="12.341179037466645">
        <ele>2555.8000000000002</ele>
        <time>2015-07-12T10:22:30Z</time>
      </trkpt>
      <trkpt lat="46.631602579727769" lon="12.341155651956797">
        <ele>2555.8000000000002</ele>
        <time>2015-07-12T10:22:58Z</time>
      </trkpt>
      <trkpt lat="46.631594030186534" lon="12.341176187619567">
        <ele>2555.8000000000002</ele>
        <time>2015-07-12T10:23:22Z</time>
      </trkpt>
      <trkpt lat="46.631605261936784" lon="12.341175181791186">
        <ele>2555.8000000000002</ele>
        <time>2015-07-12T10:23:45Z</time>
      </trkpt>
      <trkpt lat="46.631623283028603" lon="12.341169817373157">
        <ele>2555.8000000000002</ele>
        <time>2015-07-12T10:24:09Z</time>
      </trkpt>
      <trkpt lat="46.631616996601224" lon="12.341183982789516">
        <ele>2555.8000000000002</ele>
        <time>2015-07-12T10:24:35Z</time>
      </trkpt>
      <trkpt lat="46.631620097905397" lon="12.341181049123406">
        <ele>2556.2800000000002</ele>
        <time>2015-07-12T10:25:06Z</time>
      </trkpt>
      <trkpt lat="46.631609536707401" lon="12.341180043295026">
        <ele>2557.2399999999998</ele>
        <time>2015-07-12T10:25:36Z</time>
      </trkpt>
      <trkpt lat="46.631624791771173" lon="12.341187838464975">
        <ele>2556.2800000000002</ele>
        <time>2015-07-12T10:26:07Z</time>
      </trkpt>
      <trkpt lat="46.631624037399888" lon="12.341175768524408">
        <ele>2556.2800000000002</ele>
        <time>2015-07-12T10:26:33Z</time>
      </trkpt>
      <trkpt lat="46.63163878954947" lon="12.34116654843092">
        <ele>2556.2800000000002</ele>
        <time>2015-07-12T10:26:59Z</time>
      </trkpt>
      <trkpt lat="46.631636610254645" lon="12.341189095750451">
        <ele>2556.7600000000002</ele>
        <time>2015-07-12T10:27:29Z</time>
      </trkpt>
      <trkpt lat="46.631638957187533" lon="12.341179875656962">
        <ele>2556.2800000000002</ele>
        <time>2015-07-12T10:27:56Z</time>
      </trkpt>
      <trkpt lat="46.631606770679355" lon="12.341162022203207">
        <ele>2556.7600000000002</ele>
        <time>2015-07-12T10:28:26Z</time>
      </trkpt>
      <trkpt lat="46.631617164239287" lon="12.34116168692708">
        <ele>2556.7600000000002</ele>
        <time>2015-07-12T10:28:53Z</time>
      </trkpt>
      <trkpt lat="46.631617248058319" lon="12.341175014153123">
        <ele>2556.7600000000002</ele>
        <time>2015-07-12T10:29:21Z</time>
      </trkpt>
      <trkpt lat="46.631624037399888" lon="12.341163447126746">
        <ele>2557.2399999999998</ele>
        <time>2015-07-12T10:29:50Z</time>
      </trkpt>
      <trkpt lat="46.631622612476349" lon="12.341186413541436">
        <ele>2557.2399999999998</ele>
        <time>2015-07-12T10:30:16Z</time>
      </trkpt>
      <trkpt lat="46.631642561405897" lon="12.341199154034257">
        <ele>2557.2399999999998</ele>
        <time>2015-07-12T10:30:43Z</time>
      </trkpt>
      <trkpt lat="46.631612051278353" lon="12.341184737160802">
        <ele>2557.73</ele>
        <time>2015-07-12T10:31:13Z</time>
      </trkpt>
      <trkpt lat="46.631599981337786" lon="12.341153640300035">
        <ele>2558.21</ele>
        <time>2015-07-12T10:31:40Z</time>
      </trkpt>
      <trkpt lat="46.631632167845964" lon="12.34120661392808">
        <ele>2557.73</ele>
        <time>2015-07-12T10:31:58Z</time>
      </trkpt>
      <trkpt lat="46.631645495072007" lon="12.341187503188848">
        <ele>2557.73</ele>
        <time>2015-07-12T10:32:31Z</time>
      </trkpt>
      <trkpt lat="46.631651530042291" lon="12.341215498745441">
        <ele>2558.21</ele>
        <time>2015-07-12T10:32:59Z</time>
      </trkpt>
      <trkpt lat="46.631660917773843" lon="12.341200327500701">
        <ele>2557.73</ele>
        <time>2015-07-12T10:33:35Z</time>
      </trkpt>
      <trkpt lat="46.631625713780522" lon="12.341185575351119">
        <ele>2558.21</ele>
        <time>2015-07-12T10:34:09Z</time>
      </trkpt>
      <trkpt lat="46.631635185331106" lon="12.341184904798865">
        <ele>2557.73</ele>
        <time>2015-07-12T10:34:46Z</time>
      </trkpt>
      <trkpt lat="46.631636191159487" lon="12.341188844293356">
        <ele>2557.73</ele>
        <time>2015-07-12T10:35:11Z</time>
      </trkpt>
      <trkpt lat="46.631652535870671" lon="12.341171661391854">
        <ele>2557.73</ele>
        <time>2015-07-12T10:35:37Z</time>
      </trkpt>
      <trkpt lat="46.631614146754146" lon="12.34116168692708">
        <ele>2559.1700000000001</ele>
        <time>2015-07-12T10:35:55Z</time>
      </trkpt>
      <trkpt lat="46.631629066541791" lon="12.341155735775828">
        <ele>2555.3200000000002</ele>
        <time>2015-07-12T10:36:05Z</time>
      </trkpt>
      <trkpt lat="46.63163049146533" lon="12.341153472661972">
        <ele>2558.6900000000001</ele>
        <time>2015-07-12T10:36:06Z</time>
      </trkpt>
      <trkpt lat="46.631669634953141" lon="12.341185407713056">
        <ele>2558.21</ele>
        <time>2015-07-12T10:36:32Z</time>
      </trkpt>
      <trkpt lat="46.631629737094045" lon="12.341211140155792">
        <ele>2558.21</ele>
        <time>2015-07-12T10:36:59Z</time>
      </trkpt>
      <trkpt lat="46.631628144532442" lon="12.341145928949118">
        <ele>2557.73</ele>
        <time>2015-07-12T10:37:31Z</time>
      </trkpt>
      <trkpt lat="46.631651949137449" lon="12.341156490147114">
        <ele>2557.73</ele>
        <time>2015-07-12T10:38:02Z</time>
      </trkpt>
      <trkpt lat="46.631631916388869" lon="12.341160094365478">
        <ele>2557.73</ele>
        <time>2015-07-12T10:38:36Z</time>
      </trkpt>
      <trkpt lat="46.631650440394878" lon="12.341197477653623">
        <ele>2557.73</ele>
        <time>2015-07-12T10:39:05Z</time>
      </trkpt>
      <trkpt lat="46.631660750135779" lon="12.341173589229584">
        <ele>2557.73</ele>
        <time>2015-07-12T10:39:31Z</time>
      </trkpt>
      <trkpt lat="46.63166125304997" lon="12.341229747980833">
        <ele>2557.2399999999998</ele>
        <time>2015-07-12T10:40:02Z</time>
      </trkpt>
      <trkpt lat="46.631634347140789" lon="12.341225640848279">
        <ele>2557.73</ele>
        <time>2015-07-12T10:40:41Z</time>
      </trkpt>
      <trkpt lat="46.631622277200222" lon="12.34121834859252">
        <ele>2557.73</ele>
        <time>2015-07-12T10:41:20Z</time>
      </trkpt>
      <trkpt lat="46.63163099437952" lon="12.341227820143104">
        <ele>2557.73</ele>
        <time>2015-07-12T10:41:59Z</time>
      </trkpt>
      <trkpt lat="46.631661839783192" lon="12.341212397441268">
        <ele>2557.73</ele>
        <time>2015-07-12T10:42:26Z</time>
      </trkpt>
      <trkpt lat="46.631636023521423" lon="12.341174678876996">
        <ele>2557.73</ele>
        <time>2015-07-12T10:42:57Z</time>
      </trkpt>
      <trkpt lat="46.63163828663528" lon="12.341207535937428">
        <ele>2557.73</ele>
        <time>2015-07-12T10:43:29Z</time>
      </trkpt>
      <trkpt lat="46.631635436788201" lon="12.341224802657962">
        <ele>2557.73</ele>
        <time>2015-07-12T10:44:03Z</time>
      </trkpt>
      <trkpt lat="46.631659744307399" lon="12.341178450733423">
        <ele>2557.73</ele>
        <time>2015-07-12T10:44:32Z</time>
      </trkpt>
      <trkpt lat="46.631650691851974" lon="12.341179205104709">
        <ele>2557.73</ele>
        <time>2015-07-12T10:45:06Z</time>
      </trkpt>
      <trkpt lat="46.631667204201221" lon="12.34117585234344">
        <ele>2557.73</ele>
        <time>2015-07-12T10:45:37Z</time>
      </trkpt>
      <trkpt lat="46.631657565012574" lon="12.341168895363808">
        <ele>2557.2399999999998</ele>
        <time>2015-07-12T10:46:11Z</time>
      </trkpt>
      <trkpt lat="46.631654128432274" lon="12.341149784624577">
        <ele>2557.2399999999998</ele>
        <time>2015-07-12T10:46:41Z</time>
      </trkpt>
      <trkpt lat="46.631614398211241" lon="12.341208206489682">
        <ele>2557.2399999999998</ele>
        <time>2015-07-12T10:47:09Z</time>
      </trkpt>
      <trkpt lat="46.631622947752476" lon="12.341175936162472">
        <ele>2557.2399999999998</ele>
        <time>2015-07-12T10:47:38Z</time>
      </trkpt>
      <trkpt lat="46.631618672981858" lon="12.341185910627246">
        <ele>2557.2399999999998</ele>
        <time>2015-07-12T10:48:07Z</time>
      </trkpt>
      <trkpt lat="46.631634933874011" lon="12.341181468218565">
        <ele>2557.2399999999998</ele>
        <time>2015-07-12T10:48:39Z</time>
      </trkpt>
      <trkpt lat="46.631634598597884" lon="12.341154227033257">
        <ele>2556.7600000000002</ele>
        <time>2015-07-12T10:49:08Z</time>
      </trkpt>
      <trkpt lat="46.631621774286032" lon="12.341203764081001">
        <ele>2556.7600000000002</ele>
        <time>2015-07-12T10:49:37Z</time>
      </trkpt>
      <trkpt lat="46.631636191159487" lon="12.341217594221234">
        <ele>2556.7600000000002</ele>
        <time>2015-07-12T10:50:07Z</time>
      </trkpt>
      <trkpt lat="46.631613140925765" lon="12.341136960312724">
        <ele>2556.7600000000002</ele>
        <time>2015-07-12T10:50:27Z</time>
      </trkpt>
      <trkpt lat="46.631616242229939" lon="12.341138301417232">
        <ele>2551.96</ele>
        <time>2015-07-12T10:50:29Z</time>
      </trkpt>
      <trkpt lat="46.631620014086366" lon="12.341139893978834">
        <ele>2561.5700000000002</ele>
        <time>2015-07-12T10:50:30Z</time>
      </trkpt>
      <trkpt lat="46.631622947752476" lon="12.34114064835012">
        <ele>2557.2399999999998</ele>
        <time>2015-07-12T10:50:31Z</time>
      </trkpt>
      <trkpt lat="46.631654882803559" lon="12.34116361476481">
        <ele>2556.7600000000002</ele>
        <time>2015-07-12T10:50:41Z</time>
      </trkpt>
      <trkpt lat="46.631665276363492" lon="12.34116654843092">
        <ele>2557.2399999999998</ele>
        <time>2015-07-12T10:50:58Z</time>
      </trkpt>
      <trkpt lat="46.631677849218249" lon="12.341119777411222">
        <ele>2557.2399999999998</ele>
        <time>2015-07-12T10:51:08Z</time>
      </trkpt>
      <trkpt lat="46.631674077361822" lon="12.341102678328753">
        <ele>2557.2399999999998</ele>
        <time>2015-07-12T10:51:22Z</time>
      </trkpt>
      <trkpt lat="46.631666952744126" lon="12.341104354709387">
        <ele>2557.2399999999998</ele>
        <time>2015-07-12T10:51:36Z</time>
      </trkpt>
      <trkpt lat="46.631660750135779" lon="12.34109815210104">
        <ele>2557.2399999999998</ele>
        <time>2015-07-12T10:51:52Z</time>
      </trkpt>
      <trkpt lat="46.631653038784862" lon="12.341113239526749">
        <ele>2556.7600000000002</ele>
        <time>2015-07-12T10:52:08Z</time>
      </trkpt>
      <trkpt lat="46.631647339090705" lon="12.341104103252292">
        <ele>2557.2399999999998</ele>
        <time>2015-07-12T10:52:19Z</time>
      </trkpt>
      <trkpt lat="46.631638873368502" lon="12.341116508468986">
        <ele>2557.2399999999998</ele>
        <time>2015-07-12T10:52:28Z</time>
      </trkpt>
      <trkpt lat="46.631651194766164" lon="12.341131679713726">
        <ele>2557.2399999999998</ele>
        <time>2015-07-12T10:52:45Z</time>
      </trkpt>
      <trkpt lat="46.631686901673675" lon="12.341154562309384">
        <ele>2557.2399999999998</ele>
        <time>2015-07-12T10:53:01Z</time>
      </trkpt>
      <trkpt lat="46.63160115480423" lon="12.341145426034927">
        <ele>2556.7600000000002</ele>
        <time>2015-07-12T10:53:14Z</time>
      </trkpt>
      <trkpt lat="46.63154206238687" lon="12.341223126277328">
        <ele>2556.2800000000002</ele>
        <time>2015-07-12T10:53:25Z</time>
      </trkpt>
      <trkpt lat="46.631526807323098" lon="12.341300742700696">
        <ele>2555.8000000000002</ele>
        <time>2015-07-12T10:53:36Z</time>
      </trkpt>
      <trkpt lat="46.63153032772243" lon="12.341319099068642">
        <ele>2555.8000000000002</ele>
        <time>2015-07-12T10:53:54Z</time>
      </trkpt>
      <trkpt lat="46.631539296358824" lon="12.341313399374485">
        <ele>2555.8000000000002</ele>
        <time>2015-07-12T10:54:05Z</time>
      </trkpt>
      <trkpt lat="46.631546588614583" lon="12.341303424909711">
        <ele>2555.8000000000002</ele>
        <time>2015-07-12T10:54:22Z</time>
      </trkpt>
      <trkpt lat="46.631537368521094" lon="12.341311974450946">
        <ele>2555.8000000000002</ele>
        <time>2015-07-12T10:54:41Z</time>
      </trkpt>
      <trkpt lat="46.631576763466001" lon="12.341274758800864">
        <ele>2555.8000000000002</ele>
        <time>2015-07-12T10:54:52Z</time>
      </trkpt>
      <trkpt lat="46.631629401817918" lon="12.34120418317616">
        <ele>2555.8000000000002</ele>
        <time>2015-07-12T10:55:00Z</time>
      </trkpt>
      <trkpt lat="46.631660917773843" lon="12.341146096587181">
        <ele>2557.73</ele>
        <time>2015-07-12T10:55:13Z</time>
      </trkpt>
      <trkpt lat="46.631647339090705" lon="12.34114752151072">
        <ele>2557.2399999999998</ele>
        <time>2015-07-12T10:55:41Z</time>
      </trkpt>
      <trkpt lat="46.631664521992207" lon="12.341140732169151">
        <ele>2557.2399999999998</ele>
        <time>2015-07-12T10:56:07Z</time>
      </trkpt>
      <trkpt lat="46.631655553355813" lon="12.341131512075663">
        <ele>2557.2399999999998</ele>
        <time>2015-07-12T10:56:19Z</time>
      </trkpt>
      <trkpt lat="46.631661839783192" lon="12.341126902028918">
        <ele>2557.2399999999998</ele>
        <time>2015-07-12T10:56:39Z</time>
      </trkpt>
      <trkpt lat="46.631636274978518" lon="12.34113042242825">
        <ele>2557.2399999999998</ele>
        <time>2015-07-12T10:56:54Z</time>
      </trkpt>
      <trkpt lat="46.631659073755145" lon="12.341145006939769">
        <ele>2557.2399999999998</ele>
        <time>2015-07-12T10:57:06Z</time>
      </trkpt>
      <trkpt lat="46.631638621911407" lon="12.341148862615228">
        <ele>2556.7600000000002</ele>
        <time>2015-07-12T10:57:17Z</time>
      </trkpt>
      <trkpt lat="46.631647339090705" lon="12.341155987232924">
        <ele>2556.7600000000002</ele>
        <time>2015-07-12T10:57:28Z</time>
      </trkpt>
      <trkpt lat="46.631631748750806" lon="12.341151377186179">
        <ele>2556.7600000000002</ele>
        <time>2015-07-12T10:57:38Z</time>
      </trkpt>
      <trkpt lat="46.631651110947132" lon="12.341167805716395">
        <ele>2556.2800000000002</ele>
        <time>2015-07-12T10:57:46Z</time>
      </trkpt>
      <trkpt lat="46.631663935258985" lon="12.341173337772489">
        <ele>2556.7600000000002</ele>
        <time>2015-07-12T10:58:11Z</time>
      </trkpt>
      <trkpt lat="46.631663264706731" lon="12.341162022203207">
        <ele>2556.2800000000002</ele>
        <time>2015-07-12T10:58:33Z</time>
      </trkpt>
      <trkpt lat="46.631652619689703" lon="12.341147437691689">
        <ele>2556.7600000000002</ele>
        <time>2015-07-12T10:58:47Z</time>
      </trkpt>
      <trkpt lat="46.631655469536781" lon="12.341151209548116">
        <ele>2556.7600000000002</ele>
        <time>2015-07-12T10:58:58Z</time>
      </trkpt>
      <trkpt lat="46.631658654659986" lon="12.341157998889685">
        <ele>2556.7600000000002</ele>
        <time>2015-07-12T10:59:16Z</time>
      </trkpt>
      <trkpt lat="46.631641807034612" lon="12.341160848736763">
        <ele>2556.2800000000002</ele>
        <time>2015-07-12T10:59:30Z</time>
      </trkpt>
      <trkpt lat="46.63161288946867" lon="12.34120225533843">
        <ele>2555.8000000000002</ele>
        <time>2015-07-12T10:59:39Z</time>
      </trkpt>
      <trkpt lat="46.631554048508406" lon="12.341231591999531">
        <ele>2555.8000000000002</ele>
        <time>2015-07-12T10:59:47Z</time>
      </trkpt>
      <trkpt lat="46.631540721282363" lon="12.341203512623906">
        <ele>2555.8000000000002</ele>
        <time>2015-07-12T10:59:56Z</time>
      </trkpt>
      <trkpt lat="46.631595371291041" lon="12.341209296137094">
        <ele>2555.8000000000002</ele>
        <time>2015-07-12T11:00:06Z</time>
      </trkpt>
      <trkpt lat="46.631624456495047" lon="12.341199154034257">
        <ele>2556.7600000000002</ele>
        <time>2015-07-12T11:00:09Z</time>
      </trkpt>
      <trkpt lat="46.631679190322757" lon="12.341128913685679">
        <ele>2556.7600000000002</ele>
        <time>2015-07-12T11:00:19Z</time>
      </trkpt>
      <trkpt lat="46.631699055433273" lon="12.341116843745112">
        <ele>2556.2800000000002</ele>
        <time>2015-07-12T11:00:31Z</time>
      </trkpt>
      <trkpt lat="46.631684554740787" lon="12.341092452406883">
        <ele>2556.2800000000002</ele>
        <time>2015-07-12T11:00:39Z</time>
      </trkpt>
      <trkpt lat="46.631800895556808" lon="12.340998575091362">
        <ele>2557.73</ele>
        <time>2015-07-12T11:00:52Z</time>
      </trkpt>
      <trkpt lat="46.631917655467987" lon="12.340917102992535">
        <ele>2560.1300000000001</ele>
        <time>2015-07-12T11:01:04Z</time>
      </trkpt>
      <trkpt lat="46.631992170587182" lon="12.34076589345932">
        <ele>2560.6100000000001</ele>
        <time>2015-07-12T11:01:15Z</time>
      </trkpt>
      <trkpt lat="46.632006084546447" lon="12.340760696679354">
        <ele>2560.6100000000001</ele>
        <time>2015-07-12T11:01:17Z</time>
      </trkpt>
      <trkpt lat="46.632098620757461" lon="12.340775532647967">
        <ele>2562.0500000000002</ele>
        <time>2015-07-12T11:01:30Z</time>
      </trkpt>
      <trkpt lat="46.632188390940428" lon="12.340751895681024">
        <ele>2564.9299999999998</ele>
        <time>2015-07-12T11:01:43Z</time>
      </trkpt>
      <trkpt lat="46.63226324133575" lon="12.340732701122761">
        <ele>2565.9000000000001</ele>
        <time>2015-07-12T11:01:53Z</time>
      </trkpt>
      <trkpt lat="46.632346054539084" lon="12.340715350583196">
        <ele>2566.3800000000001</ele>
        <time>2015-07-12T11:02:04Z</time>
      </trkpt>
      <trkpt lat="46.632412523031235" lon="12.340718870982528">
        <ele>2567.3400000000001</ele>
        <time>2015-07-12T11:02:14Z</time>
      </trkpt>
      <trkpt lat="46.632474297657609" lon="12.340674279257655">
        <ele>2569.2600000000002</ele>
        <time>2015-07-12T11:02:23Z</time>
      </trkpt>
      <trkpt lat="46.632539676502347" lon="12.340658018365502">
        <ele>2571.1799999999998</ele>
        <time>2015-07-12T11:02:33Z</time>
      </trkpt>
      <trkpt lat="46.632615532726049" lon="12.340658605098724">
        <ele>2574.0700000000002</ele>
        <time>2015-07-12T11:02:45Z</time>
      </trkpt>
      <trkpt lat="46.63266783580184" lon="12.340665562078357">
        <ele>2575.9899999999998</ele>
        <time>2015-07-12T11:02:55Z</time>
      </trkpt>
      <trkpt lat="46.632704297080636" lon="12.340663466602564">
        <ele>2575.9899999999998</ele>
        <time>2015-07-12T11:03:00Z</time>
      </trkpt>
      <trkpt lat="46.632764311507344" lon="12.340700263157487">
        <ele>2576.4699999999998</ele>
        <time>2015-07-12T11:03:09Z</time>
      </trkpt>
      <trkpt lat="46.632844023406506" lon="12.340775281190872">
        <ele>2576.9499999999998</ele>
        <time>2015-07-12T11:03:20Z</time>
      </trkpt>
      <trkpt lat="46.632932787761092" lon="12.340843509882689">
        <ele>2576.4699999999998</ele>
        <time>2015-07-12T11:03:32Z</time>
      </trkpt>
      <trkpt lat="46.633001519367099" lon="12.340866895392537">
        <ele>2578.8699999999999</ele>
        <time>2015-07-12T11:03:42Z</time>
      </trkpt>
      <trkpt lat="46.633042590692639" lon="12.340865302830935">
        <ele>2579.8400000000001</ele>
        <time>2015-07-12T11:03:48Z</time>
      </trkpt>
      <trkpt lat="46.633122637867928" lon="12.340877121314406">
        <ele>2582.2399999999998</ele>
        <time>2015-07-12T11:03:59Z</time>
      </trkpt>
      <trkpt lat="46.633196566253901" lon="12.340864799916744">
        <ele>2584.6399999999999</ele>
        <time>2015-07-12T11:04:10Z</time>
      </trkpt>
      <trkpt lat="46.633237218484282" lon="12.340852310881019">
        <ele>2586.5599999999999</ele>
        <time>2015-07-12T11:04:16Z</time>
      </trkpt>
      <trkpt lat="46.633300920948386" lon="12.340807635337114">
        <ele>2588.0100000000002</ele>
        <time>2015-07-12T11:04:27Z</time>
      </trkpt>
      <trkpt lat="46.633360683917999" lon="12.340746866539121">
        <ele>2589.9299999999998</ele>
        <time>2015-07-12T11:04:37Z</time>
      </trkpt>
      <trkpt lat="46.633424889296293" lon="12.340713422745466">
        <ele>2593.29</ele>
        <time>2015-07-12T11:04:50Z</time>
      </trkpt>
      <trkpt lat="46.633485574275255" lon="12.340740244835615">
        <ele>2594.25</ele>
        <time>2015-07-12T11:05:01Z</time>
      </trkpt>
      <trkpt lat="46.633535698056221" lon="12.340735215693712">
        <ele>2596.1799999999998</ele>
        <time>2015-07-12T11:05:10Z</time>
      </trkpt>
      <trkpt lat="46.633618595078588" lon="12.340701017528772">
        <ele>2598.5799999999999</ele>
        <time>2015-07-12T11:05:23Z</time>
      </trkpt>
      <trkpt lat="46.633706018328667" lon="12.340661538764834">
        <ele>2600.98</ele>
        <time>2015-07-12T11:05:35Z</time>
      </trkpt>
      <trkpt lat="46.633736863732338" lon="12.340647373348475">
        <ele>2601.46</ele>
        <time>2015-07-12T11:05:39Z</time>
      </trkpt>
      <trkpt lat="46.633831830695271" lon="12.340616527944803">
        <ele>2604.3499999999999</ele>
        <time>2015-07-12T11:05:50Z</time>
      </trkpt>
      <trkpt lat="46.633852366358042" lon="12.340618455782533">
        <ele>2605.3099999999999</ele>
        <time>2015-07-12T11:05:52Z</time>
      </trkpt>
      <trkpt lat="46.633953284472227" lon="12.340547712519765">
        <ele>2604.8299999999999</ele>
        <time>2015-07-12T11:06:03Z</time>
      </trkpt>
      <trkpt lat="46.634043473750353" lon="12.340516867116094">
        <ele>2607.71</ele>
        <time>2015-07-12T11:06:15Z</time>
      </trkpt>
      <trkpt lat="46.634064260870218" lon="12.340507227927446">
        <ele>2608.6700000000001</ele>
        <time>2015-07-12T11:06:18Z</time>
      </trkpt>
      <trkpt lat="46.63417967967689" lon="12.340496750548482">
        <ele>2609.6399999999999</ele>
        <time>2015-07-12T11:06:29Z</time>
      </trkpt>
      <trkpt lat="46.63424170576036" lon="12.340463139116764">
        <ele>2610.1199999999999</ele>
        <time>2015-07-12T11:06:35Z</time>
      </trkpt>
      <trkpt lat="46.634300881996751" lon="12.340458193793893">
        <ele>2610.5999999999999</ele>
        <time>2015-07-12T11:06:41Z</time>
      </trkpt>
      <trkpt lat="46.634418983012438" lon="12.340400358662009">
        <ele>2613</ele>
        <time>2015-07-12T11:06:54Z</time>
      </trkpt>
      <trkpt lat="46.634509675204754" lon="12.340294914320111">
        <ele>2613.48</ele>
        <time>2015-07-12T11:07:06Z</time>
      </trkpt>
      <trkpt lat="46.634519062936306" lon="12.340257866308093">
        <ele>2613.96</ele>
        <time>2015-07-12T11:07:14Z</time>
      </trkpt>
      <trkpt lat="46.634559044614434" lon="12.340194918215275">
        <ele>2615.4000000000001</ele>
        <time>2015-07-12T11:07:24Z</time>
      </trkpt>
      <trkpt lat="46.634586285799742" lon="12.340135658159852">
        <ele>2615.4000000000001</ele>
        <time>2015-07-12T11:07:34Z</time>
      </trkpt>
      <trkpt lat="46.634572371840477" lon="12.340133059769869">
        <ele>2616.3699999999999</ele>
        <time>2015-07-12T11:07:47Z</time>
      </trkpt>
      <trkpt lat="46.63457547314465" lon="12.340146973729134">
        <ele>2615.4000000000001</ele>
        <time>2015-07-12T11:08:00Z</time>
      </trkpt>
      <trkpt lat="46.634585279971361" lon="12.34020883217454">
        <ele>2615.8800000000001</ele>
        <time>2015-07-12T11:08:11Z</time>
      </trkpt>
      <trkpt lat="46.63458083756268" lon="12.340265745297074">
        <ele>2614.9200000000001</ele>
        <time>2015-07-12T11:08:18Z</time>
      </trkpt>
      <trkpt lat="46.634573210030794" lon="12.340302038937807">
        <ele>2613.96</ele>
        <time>2015-07-12T11:08:21Z</time>
      </trkpt>
      <trkpt lat="46.63470882922411" lon="12.340389126911759">
        <ele>2613.48</ele>
        <time>2015-07-12T11:08:33Z</time>
      </trkpt>
      <trkpt lat="46.634770855307579" lon="12.340411087498069">
        <ele>2613.48</ele>
        <time>2015-07-12T11:08:44Z</time>
      </trkpt>
      <trkpt lat="46.634827349334955" lon="12.340445034205914">
        <ele>2613.96</ele>
        <time>2015-07-12T11:08:54Z</time>
      </trkpt>
      <trkpt lat="46.634926004335284" lon="12.340492056682706">
        <ele>2611.0799999999999</ele>
        <time>2015-07-12T11:09:04Z</time>
      </trkpt>
      <trkpt lat="46.634936146438122" lon="12.340498762205243">
        <ele>2610.5999999999999</ele>
        <time>2015-07-12T11:09:05Z</time>
      </trkpt>
      <trkpt lat="46.635046200826764" lon="12.340554501861334">
        <ele>2608.6700000000001</ele>
        <time>2015-07-12T11:09:16Z</time>
      </trkpt>
      <trkpt lat="46.635080482810736" lon="12.340574869886041">
        <ele>2608.1900000000001</ele>
        <time>2015-07-12T11:09:19Z</time>
      </trkpt>
      <trkpt lat="46.635148292407393" lon="12.340635387226939">
        <ele>2607.23</ele>
        <time>2015-07-12T11:09:26Z</time>
      </trkpt>
      <trkpt lat="46.635266896337271" lon="12.340766480192542">
        <ele>2604.8299999999999</ele>
        <time>2015-07-12T11:09:39Z</time>
      </trkpt>
      <trkpt lat="46.635353732854128" lon="12.340805875137448">
        <ele>2604.3499999999999</ele>
        <time>2015-07-12T11:09:46Z</time>
      </trkpt>
      <trkpt lat="46.635467559099197" lon="12.340901764109731">
        <ele>2602.9099999999999</ele>
        <time>2015-07-12T11:09:59Z</time>
      </trkpt>
      <trkpt lat="46.635474180802703" lon="12.340911654755473">
        <ele>2602.9099999999999</ele>
        <time>2015-07-12T11:10:00Z</time>
      </trkpt>
      <trkpt lat="46.635505110025406" lon="12.340913247317076">
        <ele>2602.9099999999999</ele>
        <time>2015-07-12T11:10:03Z</time>
      </trkpt>
      <trkpt lat="46.635595466941595" lon="12.340949540957808">
        <ele>2601.9499999999998</ele>
        <time>2015-07-12T11:10:14Z</time>
      </trkpt>
      <trkpt lat="46.6356211155653" lon="12.340934788808227">
        <ele>2601.9499999999998</ele>
        <time>2015-07-12T11:10:24Z</time>
      </trkpt>
      <trkpt lat="46.635577362030745" lon="12.340922048315406">
        <ele>2602.9099999999999</ele>
        <time>2015-07-12T11:10:35Z</time>
      </trkpt>
      <trkpt lat="46.635562106966972" lon="12.3409344535321">
        <ele>2602.9099999999999</ele>
        <time>2015-07-12T11:10:37Z</time>
      </trkpt>
      <trkpt lat="46.635570153594017" lon="12.341020032763481">
        <ele>2599.54</ele>
        <time>2015-07-12T11:10:46Z</time>
      </trkpt>
      <trkpt lat="46.63558105006814" lon="12.341059176251292">
        <ele>2599.54</ele>
        <time>2015-07-12T11:10:55Z</time>
      </trkpt>
      <trkpt lat="46.635577697306871" lon="12.341052638366818">
        <ele>2600.02</ele>
        <time>2015-07-12T11:11:06Z</time>
      </trkpt>
      <trkpt lat="46.635605609044433" lon="12.341132098808885">
        <ele>2600.98</ele>
        <time>2015-07-12T11:11:16Z</time>
      </trkpt>
      <trkpt lat="46.635710131376982" lon="12.341188173741102">
        <ele>2603.3899999999999</ele>
        <time>2015-07-12T11:11:28Z</time>
      </trkpt>
      <trkpt lat="46.635734522715211" lon="12.341183396056294">
        <ele>2603.8699999999999</ele>
        <time>2015-07-12T11:11:31Z</time>
      </trkpt>
      <trkpt lat="46.635792357847095" lon="12.341169230639935">
        <ele>2606.75</ele>
        <time>2015-07-12T11:11:41Z</time>
      </trkpt>
      <trkpt lat="46.635839212685823" lon="12.341215582564473">
        <ele>2609.1599999999999</ele>
        <time>2015-07-12T11:11:52Z</time>
      </trkpt>
      <trkpt lat="46.635874584317207" lon="12.341124303638935">
        <ele>2611.0799999999999</ele>
        <time>2015-07-12T11:12:02Z</time>
      </trkpt>
      <trkpt lat="46.635891096666455" lon="12.341173589229584">
        <ele>2613.48</ele>
        <time>2015-07-12T11:12:13Z</time>
      </trkpt>
      <trkpt lat="46.63593577221036" lon="12.341156154870987">
        <ele>2613.96</ele>
        <time>2015-07-12T11:12:23Z</time>
      </trkpt>
      <trkpt lat="46.635941890999675" lon="12.341170068830252">
        <ele>2614.9200000000001</ele>
        <time>2015-07-12T11:12:25Z</time>
      </trkpt>
      <trkpt lat="46.635973071679473" lon="12.341250954195857">
        <ele>2616.8499999999999</ele>
        <time>2015-07-12T11:12:36Z</time>
      </trkpt>
      <trkpt lat="46.636041384190321" lon="12.341247852891684">
        <ele>2618.29</ele>
        <time>2015-07-12T11:12:47Z</time>
      </trkpt>
      <trkpt lat="46.636081030592322" lon="12.341289259493351">
        <ele>2621.6500000000001</ele>
        <time>2015-07-12T11:12:55Z</time>
      </trkpt>
      <trkpt lat="46.636128975078464" lon="12.341341730207205">
        <ele>2622.1300000000001</ele>
        <time>2015-07-12T11:13:04Z</time>
      </trkpt>
      <trkpt lat="46.636169794946909" lon="12.34138741157949">
        <ele>2623.0900000000001</ele>
        <time>2015-07-12T11:13:11Z</time>
      </trkpt>
      <trkpt lat="46.636204160749912" lon="12.341410294175148">
        <ele>2623.5799999999999</ele>
        <time>2015-07-12T11:13:16Z</time>
      </trkpt>
      <trkpt lat="46.636286303400993" lon="12.341455807909369">
        <ele>2625.98</ele>
        <time>2015-07-12T11:13:28Z</time>
      </trkpt>
      <trkpt lat="46.636359896510839" lon="12.341510290279984">
        <ele>2627.9000000000001</ele>
        <time>2015-07-12T11:13:40Z</time>
      </trkpt>
      <trkpt lat="46.636391161009669" lon="12.341520767658949">
        <ele>2628.8600000000001</ele>
        <time>2015-07-12T11:13:46Z</time>
      </trkpt>
      <trkpt lat="46.636495934799314" lon="12.341615483164787">
        <ele>2630.3000000000002</ele>
        <time>2015-07-12T11:14:00Z</time>
      </trkpt>
      <trkpt lat="46.636573970317841" lon="12.341583799570799">
        <ele>2631.27</ele>
        <time>2015-07-12T11:14:10Z</time>
      </trkpt>
      <trkpt lat="46.636595511808991" lon="12.341595953330398">
        <ele>2632.23</ele>
        <time>2015-07-12T11:14:21Z</time>
      </trkpt>
      <trkpt lat="46.636567851528525" lon="12.341571897268295">
        <ele>2631.75</ele>
        <time>2015-07-12T11:14:38Z</time>
      </trkpt>
      <trkpt lat="46.636590901762247" lon="12.341570975258946">
        <ele>2632.23</ele>
        <time>2015-07-12T11:14:52Z</time>
      </trkpt>
      <trkpt lat="46.63656516931951" lon="12.341571394354105">
        <ele>2631.75</ele>
        <time>2015-07-12T11:14:56Z</time>
      </trkpt>
      <trkpt lat="46.636550249531865" lon="12.341609532013535">
        <ele>2631.27</ele>
        <time>2015-07-12T11:15:06Z</time>
      </trkpt>
      <trkpt lat="46.636555027216673" lon="12.341644903644919">
        <ele>2630.79</ele>
        <time>2015-07-12T11:15:17Z</time>
      </trkpt>
      <trkpt lat="46.636551255360246" lon="12.341645238921046">
        <ele>2631.27</ele>
        <time>2015-07-12T11:15:31Z</time>
      </trkpt>
      <trkpt lat="46.636558044701815" lon="12.34166887588799">
        <ele>2631.75</ele>
        <time>2015-07-12T11:15:48Z</time>
      </trkpt>
      <trkpt lat="46.636556284502149" lon="12.341679437085986">
        <ele>2632.23</ele>
        <time>2015-07-12T11:16:03Z</time>
      </trkpt>
      <trkpt lat="46.636578412726521" lon="12.341690585017204">
        <ele>2632.23</ele>
        <time>2015-07-12T11:16:12Z</time>
      </trkpt>
      <trkpt lat="46.636570952832699" lon="12.341683125123382">
        <ele>2632.71</ele>
        <time>2015-07-12T11:16:29Z</time>
      </trkpt>
      <trkpt lat="46.636579753831029" lon="12.341691758483648">
        <ele>2632.71</ele>
        <time>2015-07-12T11:16:54Z</time>
      </trkpt>
      <trkpt lat="46.636586878448725" lon="12.341702319681644">
        <ele>2632.71</ele>
        <time>2015-07-12T11:17:00Z</time>
      </trkpt>
      <trkpt lat="46.636635074391961" lon="12.341790413483977">
        <ele>2633.1900000000001</ele>
        <time>2015-07-12T11:17:13Z</time>
      </trkpt>
      <trkpt lat="46.636610850691795" lon="12.341829808428884">
        <ele>2632.23</ele>
        <time>2015-07-12T11:17:29Z</time>
      </trkpt>
      <trkpt lat="46.636630799621344" lon="12.34177784062922">
        <ele>2632.71</ele>
        <time>2015-07-12T11:17:49Z</time>
      </trkpt>
      <trkpt lat="46.636648485437036" lon="12.341829976066947">
        <ele>2634.6300000000001</ele>
        <time>2015-07-12T11:17:58Z</time>
      </trkpt>
      <trkpt lat="46.636642785742879" lon="12.341845650225878">
        <ele>2633.1900000000001</ele>
        <time>2015-07-12T11:18:12Z</time>
      </trkpt>
      <trkpt lat="46.636638510972261" lon="12.341856546700001">
        <ele>2633.1900000000001</ele>
        <time>2015-07-12T11:18:29Z</time>
      </trkpt>
      <trkpt lat="46.636637672781944" lon="12.341869790107012">
        <ele>2633.1900000000001</ele>
        <time>2015-07-12T11:18:50Z</time>
      </trkpt>
      <trkpt lat="46.636658543720841" lon="12.341934917494655">
        <ele>2634.1500000000001</ele>
        <time>2015-07-12T11:19:01Z</time>
      </trkpt>
      <trkpt lat="46.63666189648211" lon="12.341937432065606">
        <ele>2634.1500000000001</ele>
        <time>2015-07-12T11:19:19Z</time>
      </trkpt>
      <trkpt lat="46.636638091877103" lon="12.341946652159095">
        <ele>2634.1500000000001</ele>
        <time>2015-07-12T11:19:32Z</time>
      </trkpt>
      <trkpt lat="46.636634990572929" lon="12.341973138973117">
        <ele>2634.6300000000001</ele>
        <time>2015-07-12T11:19:37Z</time>
      </trkpt>
      <trkpt lat="46.636687545105815" lon="12.342027202248573">
        <ele>2634.6300000000001</ele>
        <time>2015-07-12T11:19:47Z</time>
      </trkpt>
      <trkpt lat="46.636778069660068" lon="12.342187548056245">
        <ele>2634.6300000000001</ele>
        <time>2015-07-12T11:19:59Z</time>
      </trkpt>
      <trkpt lat="46.636776477098465" lon="12.342224847525358">
        <ele>2633.1900000000001</ele>
        <time>2015-07-12T11:20:18Z</time>
      </trkpt>
      <trkpt lat="46.636802377179265" lon="12.342305481433868">
        <ele>2633.1900000000001</ele>
        <time>2015-07-12T11:20:29Z</time>
      </trkpt>
      <trkpt lat="46.636853087693453" lon="12.34250103123486">
        <ele>2631.27</ele>
        <time>2015-07-12T11:20:43Z</time>
      </trkpt>
      <trkpt lat="46.636883765459061" lon="12.342681158334017">
        <ele>2629.8200000000002</ele>
        <time>2015-07-12T11:20:54Z</time>
      </trkpt>
      <trkpt lat="46.636920645833015" lon="12.342853741720319">
        <ele>2630.3000000000002</ele>
        <time>2015-07-12T11:21:06Z</time>
      </trkpt>
      <trkpt lat="46.636924501508474" lon="12.343043172731996">
        <ele>2629.8200000000002</ele>
        <time>2015-07-12T11:21:18Z</time>
      </trkpt>
      <trkpt lat="46.636935565620661" lon="12.343133529648185">
        <ele>2628.8600000000001</ele>
        <time>2015-07-12T11:21:30Z</time>
      </trkpt>
      <trkpt lat="46.636933637782931" lon="12.343155993148685">
        <ele>2628.3800000000001</ele>
        <time>2015-07-12T11:21:40Z</time>
      </trkpt>
      <trkpt lat="46.637041764333844" lon="12.343435864895582">
        <ele>2627.9000000000001</ele>
        <time>2015-07-12T11:22:24Z</time>
      </trkpt>
      <trkpt lat="46.637016953900456" lon="12.343455730006099">
        <ele>2627.4200000000001</ele>
        <time>2015-07-12T11:22:26Z</time>
      </trkpt>
      <trkpt lat="46.637039417400956" lon="12.343562347814441">
        <ele>2630.3000000000002</ele>
        <time>2015-07-12T11:22:37Z</time>
      </trkpt>
      <trkpt lat="46.637053750455379" lon="12.343667037785053">
        <ele>2633.1900000000001</ele>
        <time>2015-07-12T11:22:49Z</time>
      </trkpt>
      <trkpt lat="46.637103455141187" lon="12.343787737190723">
        <ele>2635.1100000000001</ele>
        <time>2015-07-12T11:23:01Z</time>
      </trkpt>
      <trkpt lat="46.637151902541518" lon="12.343906089663506">
        <ele>2635.5900000000001</ele>
        <time>2015-07-12T11:23:11Z</time>
      </trkpt>
      <trkpt lat="46.637189704924822" lon="12.344001727178693">
        <ele>2636.5500000000002</ele>
        <time>2015-07-12T11:23:19Z</time>
      </trkpt>
      <trkpt lat="46.637225998565555" lon="12.344171376898885">
        <ele>2638.96</ele>
        <time>2015-07-12T11:23:32Z</time>
      </trkpt>
      <trkpt lat="46.637265142053366" lon="12.344265505671501">
        <ele>2638.96</ele>
        <time>2015-07-12T11:23:44Z</time>
      </trkpt>
      <trkpt lat="46.637312667444348" lon="12.344329124316573">
        <ele>2641.8400000000001</ele>
        <time>2015-07-12T11:23:55Z</time>
      </trkpt>
      <trkpt lat="46.637316606938839" lon="12.344353096559644">
        <ele>2642.8000000000002</ele>
        <time>2015-07-12T11:23:57Z</time>
      </trkpt>
      <trkpt lat="46.637337561696768" lon="12.344443621113896">
        <ele>2642.8000000000002</ele>
        <time>2015-07-12T11:24:04Z</time>
      </trkpt>
      <trkpt lat="46.637342758476734" lon="12.344667837023735">
        <ele>2641.8400000000001</ele>
        <time>2015-07-12T11:24:20Z</time>
      </trkpt>
      <trkpt lat="46.637371927499771" lon="12.344827596098185">
        <ele>2642.3200000000002</ele>
        <time>2015-07-12T11:24:31Z</time>
      </trkpt>
      <trkpt lat="46.637366646900773" lon="12.344998084008694">
        <ele>2640.8800000000001</ele>
        <time>2015-07-12T11:24:43Z</time>
      </trkpt>
      <trkpt lat="46.637382572516799" lon="12.345053907483816">
        <ele>2639.9200000000001</ele>
        <time>2015-07-12T11:24:48Z</time>
      </trkpt>
      <trkpt lat="46.637389697134495" lon="12.345086932182312">
        <ele>2641.8400000000001</ele>
        <time>2015-07-12T11:24:51Z</time>
      </trkpt>
      <trkpt lat="46.63739824667573" lon="12.345204697921872">
        <ele>2643.2800000000002</ele>
        <time>2015-07-12T11:25:03Z</time>
      </trkpt>
      <trkpt lat="46.63740755058825" lon="12.34532380476594">
        <ele>2645.6900000000001</ele>
        <time>2015-07-12T11:25:15Z</time>
      </trkpt>
      <trkpt lat="46.637429343536496" lon="12.345397062599659">
        <ele>2646.1700000000001</ele>
        <time>2015-07-12T11:25:25Z</time>
      </trkpt>
      <trkpt lat="46.637467565014958" lon="12.345406450331211">
        <ele>2647.6100000000001</ele>
        <time>2015-07-12T11:25:34Z</time>
      </trkpt>
      <trkpt lat="46.637474773451686" lon="12.345416424795985">
        <ele>2649.0500000000002</ele>
        <time>2015-07-12T11:25:43Z</time>
      </trkpt>
      <trkpt lat="46.637502517551184" lon="12.345472751185298">
        <ele>2649.5300000000002</ele>
        <time>2015-07-12T11:25:53Z</time>
      </trkpt>
      <trkpt lat="46.637556999921799" lon="12.345448359847069">
        <ele>2652.9000000000001</ele>
        <time>2015-07-12T11:26:02Z</time>
      </trkpt>
      <trkpt lat="46.637606620788574" lon="12.345363618806005">
        <ele>2654.3400000000001</ele>
        <time>2015-07-12T11:26:14Z</time>
      </trkpt>
      <trkpt lat="46.637650709599257" lon="12.345314836129546">
        <ele>2656.7399999999998</ele>
        <time>2015-07-12T11:26:24Z</time>
      </trkpt>
      <trkpt lat="46.637713825330138" lon="12.345303101465106">
        <ele>2660.1100000000001</ele>
        <time>2015-07-12T11:26:36Z</time>
      </trkpt>
      <trkpt lat="46.637719608843327" lon="12.345309471711516">
        <ele>2660.5900000000001</ele>
        <time>2015-07-12T11:26:37Z</time>
      </trkpt>
      <trkpt lat="46.637753220275044" lon="12.345335287973285">
        <ele>2662.5100000000002</ele>
        <time>2015-07-12T11:26:45Z</time>
      </trkpt>
      <trkpt lat="46.637791944667697" lon="12.345368731766939">
        <ele>2663.9499999999998</ele>
        <time>2015-07-12T11:26:54Z</time>
      </trkpt>
      <trkpt lat="46.63782094605267" lon="12.345358757302165">
        <ele>2664.9099999999999</ele>
        <time>2015-07-12T11:27:06Z</time>
      </trkpt>
      <trkpt lat="46.637866208329797" lon="12.345291282981634">
        <ele>2667.3099999999999</ele>
        <time>2015-07-12T11:27:19Z</time>
      </trkpt>
      <trkpt lat="46.637905100360513" lon="12.345237135887146">
        <ele>2669.2399999999998</ele>
        <time>2015-07-12T11:27:30Z</time>
      </trkpt>
      <trkpt lat="46.637938711792231" lon="12.345260437577963">
        <ele>2671.6399999999999</ele>
        <time>2015-07-12T11:27:40Z</time>
      </trkpt>
      <trkpt lat="46.637979028746486" lon="12.345299161970615">
        <ele>2674.52</ele>
        <time>2015-07-12T11:27:52Z</time>
      </trkpt>
      <trkpt lat="46.638002749532461" lon="12.345353811979294">
        <ele>2677.8899999999999</ele>
        <time>2015-07-12T11:28:03Z</time>
      </trkpt>
      <trkpt lat="46.638014568015933" lon="12.345381556078792">
        <ele>2677.4099999999999</ele>
        <time>2015-07-12T11:28:06Z</time>
      </trkpt>
      <trkpt lat="46.638074582442641" lon="12.345395889133215">
        <ele>2678.8499999999999</ele>
        <time>2015-07-12T11:28:16Z</time>
      </trkpt>
      <trkpt lat="46.638127975165844" lon="12.345447018742561">
        <ele>2681.73</ele>
        <time>2015-07-12T11:28:28Z</time>
      </trkpt>
      <trkpt lat="46.638137446716428" lon="12.34545623883605">
        <ele>2682.2199999999998</ele>
        <time>2015-07-12T11:28:30Z</time>
      </trkpt>
      <trkpt lat="46.638171225786209" lon="12.345438720658422">
        <ele>2684.1399999999999</ele>
        <time>2015-07-12T11:28:41Z</time>
      </trkpt>
      <trkpt lat="46.63820399902761" lon="12.345450036227703">
        <ele>2684.6199999999999</ele>
        <time>2015-07-12T11:28:53Z</time>
      </trkpt>
      <trkpt lat="46.638168459758162" lon="12.345474427565932">
        <ele>2684.1399999999999</ele>
        <time>2015-07-12T11:29:07Z</time>
      </trkpt>
      <trkpt lat="46.638179188594222" lon="12.345465291291475">
        <ele>2684.1399999999999</ele>
        <time>2015-07-12T11:29:20Z</time>
      </trkpt>
      <trkpt lat="46.638163514435291" lon="12.345463698729873">
        <ele>2683.1799999999998</ele>
        <time>2015-07-12T11:29:41Z</time>
      </trkpt>
      <trkpt lat="46.638215985149145" lon="12.345521450042725">
        <ele>2684.1399999999999</ele>
        <time>2015-07-12T11:29:52Z</time>
      </trkpt>
      <trkpt lat="46.638213470578194" lon="12.345539135858417">
        <ele>2683.6599999999999</ele>
        <time>2015-07-12T11:30:07Z</time>
      </trkpt>
      <trkpt lat="46.63819276727736" lon="12.34554810449481">
        <ele>2684.1399999999999</ele>
        <time>2015-07-12T11:30:27Z</time>
      </trkpt>
      <trkpt lat="46.638210201635957" lon="12.34563653357327">
        <ele>2684.1399999999999</ele>
        <time>2015-07-12T11:30:38Z</time>
      </trkpt>
      <trkpt lat="46.638195365667343" lon="12.345538968220353">
        <ele>2683.1799999999998</ele>
        <time>2015-07-12T11:30:54Z</time>
      </trkpt>
      <trkpt lat="46.638165945187211" lon="12.345484653487802">
        <ele>2683.1799999999998</ele>
        <time>2015-07-12T11:31:07Z</time>
      </trkpt>
      <trkpt lat="46.638170806691051" lon="12.34544794075191">
        <ele>2684.1399999999999</ele>
        <time>2015-07-12T11:31:18Z</time>
      </trkpt>
      <trkpt lat="46.638183714821935" lon="12.345454478636384">
        <ele>2684.1399999999999</ele>
        <time>2015-07-12T11:31:39Z</time>
      </trkpt>
      <trkpt lat="46.638159491121769" lon="12.345461016520858">
        <ele>2683.6599999999999</ele>
        <time>2015-07-12T11:31:57Z</time>
      </trkpt>
      <trkpt lat="46.638156473636627" lon="12.345500998198986">
        <ele>2682.2199999999998</ele>
        <time>2015-07-12T11:32:11Z</time>
      </trkpt>
      <trkpt lat="46.638150103390217" lon="12.345479791983962">
        <ele>2683.1799999999998</ele>
        <time>2015-07-12T11:32:23Z</time>
      </trkpt>
      <trkpt lat="46.638172399252653" lon="12.345491778105497">
        <ele>2683.6599999999999</ele>
        <time>2015-07-12T11:32:34Z</time>
      </trkpt>
      <trkpt lat="46.638193354010582" lon="12.345445677638054">
        <ele>2684.1399999999999</ele>
        <time>2015-07-12T11:32:48Z</time>
      </trkpt>
      <trkpt lat="46.638160329312086" lon="12.3454415705055">
        <ele>2684.1399999999999</ele>
        <time>2015-07-12T11:33:03Z</time>
      </trkpt>
      <trkpt lat="46.638192012906075" lon="12.345527652651072">
        <ele>2684.6199999999999</ele>
        <time>2015-07-12T11:33:15Z</time>
      </trkpt>
      <trkpt lat="46.638190085068345" lon="12.345556234940886">
        <ele>2684.1399999999999</ele>
        <time>2015-07-12T11:33:18Z</time>
      </trkpt>
      <trkpt lat="46.638222774490714" lon="12.345561850816011">
        <ele>2683.6599999999999</ele>
        <time>2015-07-12T11:33:27Z</time>
      </trkpt>
      <trkpt lat="46.638219505548477" lon="12.345561012625694">
        <ele>2683.6599999999999</ele>
        <time>2015-07-12T11:33:47Z</time>
      </trkpt>
      <trkpt lat="46.638217829167843" lon="12.345550702884793">
        <ele>2683.1799999999998</ele>
        <time>2015-07-12T11:34:01Z</time>
      </trkpt>
      <trkpt lat="46.638213722035289" lon="12.34553930349648">
        <ele>2684.6199999999999</ele>
        <time>2015-07-12T11:34:22Z</time>
      </trkpt>
      <trkpt lat="46.638202238827944" lon="12.345532095059752">
        <ele>2684.1399999999999</ele>
        <time>2015-07-12T11:34:37Z</time>
      </trkpt>
      <trkpt lat="46.638198802247643" lon="12.345548020675778">
        <ele>2684.1399999999999</ele>
        <time>2015-07-12T11:34:56Z</time>
      </trkpt>
      <trkpt lat="46.638180026784539" lon="12.345537459477782">
        <ele>2684.1399999999999</ele>
        <time>2015-07-12T11:35:14Z</time>
      </trkpt>
      <trkpt lat="46.638176925480366" lon="12.345501082018018">
        <ele>2684.6199999999999</ele>
        <time>2015-07-12T11:35:24Z</time>
      </trkpt>
      <trkpt lat="46.638213386759162" lon="12.345457244664431">
        <ele>2685.5799999999999</ele>
        <time>2015-07-12T11:35:38Z</time>
      </trkpt>
      <trkpt lat="46.638218918815255" lon="12.34544450417161">
        <ele>2686.0599999999999</ele>
        <time>2015-07-12T11:35:52Z</time>
      </trkpt>
      <trkpt lat="46.638184217736125" lon="12.345426483079791">
        <ele>2686.0599999999999</ele>
        <time>2015-07-12T11:36:16Z</time>
      </trkpt>
      <trkpt lat="46.638205340132117" lon="12.345464117825031">
        <ele>2685.5799999999999</ele>
        <time>2015-07-12T11:36:31Z</time>
      </trkpt>
      <trkpt lat="46.638197293505073" lon="12.345452131703496">
        <ele>2686.0599999999999</ele>
        <time>2015-07-12T11:36:42Z</time>
      </trkpt>
      <trkpt lat="46.638192934915423" lon="12.345440313220024">
        <ele>2686.0599999999999</ele>
        <time>2015-07-12T11:36:54Z</time>
      </trkpt>
      <trkpt lat="46.638146582990885" lon="12.345397984609008">
        <ele>2685.0999999999999</ele>
        <time>2015-07-12T11:37:05Z</time>
      </trkpt>
      <trkpt lat="46.638126047328115" lon="12.345367390662432">
        <ele>2684.6199999999999</ele>
        <time>2015-07-12T11:37:11Z</time>
      </trkpt>
      <trkpt lat="46.638107020407915" lon="12.34536194242537">
        <ele>2684.1399999999999</ele>
        <time>2015-07-12T11:37:13Z</time>
      </trkpt>
      <trkpt lat="46.638076510280371" lon="12.345392871648073">
        <ele>2682.2199999999998</ele>
        <time>2015-07-12T11:37:17Z</time>
      </trkpt>
      <trkpt lat="46.638056812807918" lon="12.345383148640394">
        <ele>2681.25</ele>
        <time>2015-07-12T11:37:19Z</time>
      </trkpt>
      <trkpt lat="46.638005431741476" lon="12.345358338207006">
        <ele>2677.8899999999999</ele>
        <time>2015-07-12T11:37:24Z</time>
      </trkpt>
      <trkpt lat="46.637983806431293" lon="12.345279296860099">
        <ele>2675.9699999999998</ele>
        <time>2015-07-12T11:37:33Z</time>
      </trkpt>
      <trkpt lat="46.637955643236637" lon="12.345268819481134">
        <ele>2675.0100000000002</ele>
        <time>2015-07-12T11:37:37Z</time>
      </trkpt>
      <trkpt lat="46.637911638244987" lon="12.345217857509851">
        <ele>2672.5999999999999</ele>
        <time>2015-07-12T11:37:43Z</time>
      </trkpt>
      <trkpt lat="46.637852881103754" lon="12.345282565802336">
        <ele>2670.6799999999998</ele>
        <time>2015-07-12T11:37:48Z</time>
      </trkpt>
      <trkpt lat="46.637831591069698" lon="12.345316428691149">
        <ele>2668.7600000000002</ele>
        <time>2015-07-12T11:37:51Z</time>
      </trkpt>
      <trkpt lat="46.637811893597245" lon="12.345331264659762">
        <ele>2667.8000000000002</ele>
        <time>2015-07-12T11:37:53Z</time>
      </trkpt>
      <trkpt lat="46.637746933847666" lon="12.345322715118527">
        <ele>2664.9099999999999</ele>
        <time>2015-07-12T11:37:58Z</time>
      </trkpt>
      <trkpt lat="46.637723883613944" lon="12.345309220254421">
        <ele>2663.4699999999998</ele>
        <time>2015-07-12T11:38:07Z</time>
      </trkpt>
      <trkpt lat="46.637693708762527" lon="12.345286086201668">
        <ele>2661.5500000000002</ele>
        <time>2015-07-12T11:38:10Z</time>
      </trkpt>
      <trkpt lat="46.637657331302762" lon="12.345280051231384">
        <ele>2660.1100000000001</ele>
        <time>2015-07-12T11:38:13Z</time>
      </trkpt>
      <trkpt lat="46.637621037662029" lon="12.345328330993652">
        <ele>2658.1799999999998</ele>
        <time>2015-07-12T11:38:17Z</time>
      </trkpt>
      <trkpt lat="46.637565130367875" lon="12.345408126711845">
        <ele>2655.3000000000002</ele>
        <time>2015-07-12T11:38:24Z</time>
      </trkpt>
      <trkpt lat="46.637546438723803" lon="12.345424303784966">
        <ele>2654.3400000000001</ele>
        <time>2015-07-12T11:38:27Z</time>
      </trkpt>
      <trkpt lat="46.637502936646342" lon="12.34543913975358">
        <ele>2650.9699999999998</ele>
        <time>2015-07-12T11:38:31Z</time>
      </trkpt>
      <trkpt lat="46.637494387105107" lon="12.345432937145233">
        <ele>2650.4899999999998</ele>
        <time>2015-07-12T11:38:32Z</time>
      </trkpt>
      <trkpt lat="46.637440491467714" lon="12.345373341813684">
        <ele>2648.0900000000001</ele>
        <time>2015-07-12T11:38:38Z</time>
      </trkpt>
      <trkpt lat="46.637425823137164" lon="12.345314417034388">
        <ele>2646.1700000000001</ele>
        <time>2015-07-12T11:38:45Z</time>
      </trkpt>
      <trkpt lat="46.637429343536496" lon="12.345288433134556">
        <ele>2645.6900000000001</ele>
        <time>2015-07-12T11:38:47Z</time>
      </trkpt>
      <trkpt lat="46.637403359636664" lon="12.345090871676803">
        <ele>2643.2800000000002</ele>
        <time>2015-07-12T11:38:59Z</time>
      </trkpt>
      <trkpt lat="46.637390283867717" lon="12.344886437058449">
        <ele>2643.2800000000002</ele>
        <time>2015-07-12T11:39:10Z</time>
      </trkpt>
      <trkpt lat="46.637365473434329" lon="12.344645541161299">
        <ele>2642.8000000000002</ele>
        <time>2015-07-12T11:39:23Z</time>
      </trkpt>
      <trkpt lat="46.637381985783577" lon="12.344572450965643">
        <ele>2642.8000000000002</ele>
        <time>2015-07-12T11:39:27Z</time>
      </trkpt>
      <trkpt lat="46.637366646900773" lon="12.344440435990691">
        <ele>2644.2399999999998</ele>
        <time>2015-07-12T11:39:35Z</time>
      </trkpt>
      <trkpt lat="46.637300346046686" lon="12.344250585883856">
        <ele>2643.7600000000002</ele>
        <time>2015-07-12T11:39:46Z</time>
      </trkpt>
      <trkpt lat="46.637267069891095" lon="12.344212783500552">
        <ele>2641.8400000000001</ele>
        <time>2015-07-12T11:39:50Z</time>
      </trkpt>
      <trkpt lat="46.637250976637006" lon="12.344181854277849">
        <ele>2641.3600000000001</ele>
        <time>2015-07-12T11:39:54Z</time>
      </trkpt>
      <trkpt lat="46.63724385201931" lon="12.344153104349971">
        <ele>2640.4000000000001</ele>
        <time>2015-07-12T11:39:56Z</time>
      </trkpt>
      <trkpt lat="46.637234296649694" lon="12.344108931720257">
        <ele>2639.9200000000001</ele>
        <time>2015-07-12T11:39:58Z</time>
      </trkpt>
      <trkpt lat="46.637139329686761" lon="12.343849344179034">
        <ele>2638.48</ele>
        <time>2015-07-12T11:40:12Z</time>
      </trkpt>
      <trkpt lat="46.637073783203959" lon="12.343690674751997">
        <ele>2635.5900000000001</ele>
        <time>2015-07-12T11:40:23Z</time>
      </trkpt>
      <trkpt lat="46.637050649151206" lon="12.343651950359344">
        <ele>2634.6300000000001</ele>
        <time>2015-07-12T11:40:26Z</time>
      </trkpt>
      <trkpt lat="46.637022318318486" lon="12.343551786616445">
        <ele>2632.23</ele>
        <time>2015-07-12T11:40:37Z</time>
      </trkpt>
      <trkpt lat="46.636976217851043" lon="12.343469224870205">
        <ele>2629.8200000000002</ele>
        <time>2015-07-12T11:40:47Z</time>
      </trkpt>
      <trkpt lat="46.636973787099123" lon="12.343452209606767">
        <ele>2629.3400000000001</ele>
        <time>2015-07-12T11:40:49Z</time>
      </trkpt>
      <trkpt lat="46.637006560340524" lon="12.34324224293232">
        <ele>2629.3400000000001</ele>
        <time>2015-07-12T11:41:09Z</time>
      </trkpt>
      <trkpt lat="46.636956101283431" lon="12.343088015913963">
        <ele>2630.3000000000002</ele>
        <time>2015-07-12T11:41:35Z</time>
      </trkpt>
      <trkpt lat="46.636948389932513" lon="12.342928675934672">
        <ele>2631.27</ele>
        <time>2015-07-12T11:41:48Z</time>
      </trkpt>
      <trkpt lat="46.636947048828006" lon="12.342891711741686">
        <ele>2631.27</ele>
        <time>2015-07-12T11:41:50Z</time>
      </trkpt>
      <trkpt lat="46.636931877583265" lon="12.342728264629841">
        <ele>2631.27</ele>
        <time>2015-07-12T11:41:59Z</time>
      </trkpt>
      <trkpt lat="46.636907067149878" lon="12.342625670135021">
        <ele>2630.79</ele>
        <time>2015-07-12T11:42:05Z</time>
      </trkpt>
      <trkpt lat="46.636890722438693" lon="12.342497427016497">
        <ele>2631.27</ele>
        <time>2015-07-12T11:42:17Z</time>
      </trkpt>
      <trkpt lat="46.636895248666406" lon="12.342491475865245">
        <ele>2631.27</ele>
        <time>2015-07-12T11:42:20Z</time>
      </trkpt>
      <trkpt lat="46.636886028572917" lon="12.342437328770757">
        <ele>2632.23</ele>
        <time>2015-07-12T11:42:24Z</time>
      </trkpt>
      <trkpt lat="46.636843029409647" lon="12.342225015163422">
        <ele>2634.6300000000001</ele>
        <time>2015-07-12T11:42:37Z</time>
      </trkpt>
      <trkpt lat="46.636833138763905" lon="12.342193750664592">
        <ele>2634.6300000000001</ele>
        <time>2015-07-12T11:42:39Z</time>
      </trkpt>
      <trkpt lat="46.636808579787612" lon="12.342146560549736">
        <ele>2635.1100000000001</ele>
        <time>2015-07-12T11:42:43Z</time>
      </trkpt>
      <trkpt lat="46.636762730777264" lon="12.342064920812845">
        <ele>2635.5900000000001</ele>
        <time>2015-07-12T11:42:49Z</time>
      </trkpt>
      <trkpt lat="46.636654436588287" lon="12.341872304677963">
        <ele>2635.5900000000001</ele>
        <time>2015-07-12T11:43:04Z</time>
      </trkpt>
      <trkpt lat="46.636606324464083" lon="12.341732745990157">
        <ele>2634.6300000000001</ele>
        <time>2015-07-12T11:43:13Z</time>
      </trkpt>
      <trkpt lat="46.636571539565921" lon="12.341680442914367">
        <ele>2635.1100000000001</ele>
        <time>2015-07-12T11:43:17Z</time>
      </trkpt>
      <trkpt lat="46.63650750182569" lon="12.341598803177476">
        <ele>2634.6300000000001</ele>
        <time>2015-07-12T11:43:24Z</time>
      </trkpt>
      <trkpt lat="46.636463161557913" lon="12.341566951945424">
        <ele>2633.6700000000001</ele>
        <time>2015-07-12T11:43:28Z</time>
      </trkpt>
      <trkpt lat="46.636432567611337" lon="12.34153107739985">
        <ele>2632.23</ele>
        <time>2015-07-12T11:43:33Z</time>
      </trkpt>
      <trkpt lat="46.636437177658081" lon="12.341529484838247">
        <ele>2632.23</ele>
        <time>2015-07-12T11:43:37Z</time>
      </trkpt>
      <trkpt lat="46.636381940916181" lon="12.341500902548432">
        <ele>2632.23</ele>
        <time>2015-07-12T11:43:41Z</time>
      </trkpt>
      <trkpt lat="46.636330392211676" lon="12.341478271409869">
        <ele>2631.27</ele>
        <time>2015-07-12T11:43:46Z</time>
      </trkpt>
      <trkpt lat="46.636270880699158" lon="12.341439547017217">
        <ele>2629.8200000000002</ele>
        <time>2015-07-12T11:43:52Z</time>
      </trkpt>
      <trkpt lat="46.636210866272449" lon="12.341401241719723">
        <ele>2628.3800000000001</ele>
        <time>2015-07-12T11:43:57Z</time>
      </trkpt>
      <trkpt lat="46.636116821318865" lon="12.341400487348437">
        <ele>2625.98</ele>
        <time>2015-07-12T11:44:06Z</time>
      </trkpt>
      <trkpt lat="46.636125957593322" lon="12.341443067416549">
        <ele>2624.0599999999999</ele>
        <time>2015-07-12T11:44:13Z</time>
      </trkpt>
      <trkpt lat="46.636140458285809" lon="12.341466369107366">
        <ele>2624.0599999999999</ele>
        <time>2015-07-12T11:44:34Z</time>
      </trkpt>
      <trkpt lat="46.63613417185843" lon="12.341420101001859">
        <ele>2625.02</ele>
        <time>2015-07-12T11:44:53Z</time>
      </trkpt>
      <trkpt lat="46.636121179908514" lon="12.341356398537755">
        <ele>2625.5</ele>
        <time>2015-07-12T11:44:57Z</time>
      </trkpt>
      <trkpt lat="46.63608237169683" lon="12.341314321383834">
        <ele>2625.98</ele>
        <time>2015-07-12T11:45:01Z</time>
      </trkpt>
      <trkpt lat="46.636026380583644" lon="12.341248942539096">
        <ele>2623.0900000000001</ele>
        <time>2015-07-12T11:45:12Z</time>
      </trkpt>
      <trkpt lat="46.635949602350593" lon="12.341201165691018">
        <ele>2619.73</ele>
        <time>2015-07-12T11:45:23Z</time>
      </trkpt>
      <trkpt lat="46.635934850201011" lon="12.341127824038267">
        <ele>2617.3299999999999</ele>
        <time>2015-07-12T11:45:31Z</time>
      </trkpt>
      <trkpt lat="46.635929485782981" lon="12.341117765754461">
        <ele>2617.3299999999999</ele>
        <time>2015-07-12T11:45:32Z</time>
      </trkpt>
      <trkpt lat="46.635878942906857" lon="12.34111474826932">
        <ele>2615.8800000000001</ele>
        <time>2015-07-12T11:45:41Z</time>
      </trkpt>
      <trkpt lat="46.635879781097174" lon="12.341088596731424">
        <ele>2615.4000000000001</ele>
        <time>2015-07-12T11:45:43Z</time>
      </trkpt>
      <trkpt lat="46.635837201029062" lon="12.341149114072323">
        <ele>2614.4400000000001</ele>
        <time>2015-07-12T11:45:50Z</time>
      </trkpt>
      <trkpt lat="46.635823370888829" lon="12.341182976961136">
        <ele>2613</ele>
        <time>2015-07-12T11:45:54Z</time>
      </trkpt>
      <trkpt lat="46.635813396424055" lon="12.341162441298366">
        <ele>2612.04</ele>
        <time>2015-07-12T11:45:56Z</time>
      </trkpt>
      <trkpt lat="46.635787328705192" lon="12.341139307245612">
        <ele>2611.0799999999999</ele>
        <time>2015-07-12T11:46:01Z</time>
      </trkpt>
      <trkpt lat="46.635732259601355" lon="12.341129165142775">
        <ele>2610.1199999999999</ele>
        <time>2015-07-12T11:46:06Z</time>
      </trkpt>
      <trkpt lat="46.635688841342926" lon="12.34114995226264">
        <ele>2609.1599999999999</ele>
        <time>2015-07-12T11:46:10Z</time>
      </trkpt>
      <trkpt lat="46.63563528098166" lon="12.341138133779168">
        <ele>2607.23</ele>
        <time>2015-07-12T11:46:15Z</time>
      </trkpt>
      <trkpt lat="46.635595047846437" lon="12.341093039140105">
        <ele>2604.3499999999999</ele>
        <time>2015-07-12T11:46:21Z</time>
      </trkpt>
      <trkpt lat="46.635566968470812" lon="12.341024726629257">
        <ele>2603.3899999999999</ele>
        <time>2015-07-12T11:46:25Z</time>
      </trkpt>
      <trkpt lat="46.635538302361965" lon="12.340941242873669">
        <ele>2604.8299999999999</ele>
        <time>2015-07-12T11:46:31Z</time>
      </trkpt>
      <trkpt lat="46.635435707867146" lon="12.340880641713738">
        <ele>2606.75</ele>
        <time>2015-07-12T11:46:42Z</time>
      </trkpt>
      <trkpt lat="46.635318696498871" lon="12.340773520991206">
        <ele>2607.71</ele>
        <time>2015-07-12T11:46:55Z</time>
      </trkpt>
      <trkpt lat="46.635204199701548" lon="12.340698754414916">
        <ele>2608.1900000000001</ele>
        <time>2015-07-12T11:47:07Z</time>
      </trkpt>
      <trkpt lat="46.635108646005392" lon="12.340595321729779">
        <ele>2609.6399999999999</ele>
        <time>2015-07-12T11:47:19Z</time>
      </trkpt>
      <trkpt lat="46.635037064552307" lon="12.340546706691384">
        <ele>2610.5999999999999</ele>
        <time>2015-07-12T11:47:27Z</time>
      </trkpt>
      <trkpt lat="46.634907061234117" lon="12.340487195178866">
        <ele>2613</ele>
        <time>2015-07-12T11:47:41Z</time>
      </trkpt>
      <trkpt lat="46.634795414283872" lon="12.340426258742809">
        <ele>2614.9200000000001</ele>
        <time>2015-07-12T11:47:53Z</time>
      </trkpt>
      <trkpt lat="46.634690808132291" lon="12.340380409732461">
        <ele>2616.3699999999999</ele>
        <time>2015-07-12T11:48:04Z</time>
      </trkpt>
      <trkpt lat="46.634559966623783" lon="12.340296590700746">
        <ele>2617.3299999999999</ele>
        <time>2015-07-12T11:48:17Z</time>
      </trkpt>
      <trkpt lat="46.634447984397411" lon="12.340222578495741">
        <ele>2617.3299999999999</ele>
        <time>2015-07-12T11:48:29Z</time>
      </trkpt>
      <trkpt lat="46.634408505633473" lon="12.3401556070894">
        <ele>2616.3699999999999</ele>
        <time>2015-07-12T11:48:36Z</time>
      </trkpt>
      <trkpt lat="46.634313454851508" lon="12.340042367577553">
        <ele>2613.48</ele>
        <time>2015-07-12T11:48:45Z</time>
      </trkpt>
      <trkpt lat="46.634182194247842" lon="12.340102382004261">
        <ele>2613.48</ele>
        <time>2015-07-12T11:48:58Z</time>
      </trkpt>
      <trkpt lat="46.634125700220466" lon="12.340144878253341">
        <ele>2612.04</ele>
        <time>2015-07-12T11:49:05Z</time>
      </trkpt>
      <trkpt lat="46.634064260870218" lon="12.340158792212605">
        <ele>2611.0799999999999</ele>
        <time>2015-07-12T11:49:11Z</time>
      </trkpt>
      <trkpt lat="46.634034588932991" lon="12.340202545747161">
        <ele>2610.1199999999999</ele>
        <time>2015-07-12T11:49:15Z</time>
      </trkpt>
      <trkpt lat="46.633973401039839" lon="12.340276641771197">
        <ele>2608.6700000000001</ele>
        <time>2015-07-12T11:49:22Z</time>
      </trkpt>
      <trkpt lat="46.633916068822145" lon="12.340257363393903">
        <ele>2608.1900000000001</ele>
        <time>2015-07-12T11:49:28Z</time>
      </trkpt>
      <trkpt lat="46.633866364136338" lon="12.340264236554503">
        <ele>2608.6700000000001</ele>
        <time>2015-07-12T11:49:34Z</time>
      </trkpt>
      <trkpt lat="46.633861670270562" lon="12.340425839647651">
        <ele>2607.71</ele>
        <time>2015-07-12T11:49:41Z</time>
      </trkpt>
      <trkpt lat="46.633869633078575" lon="12.340474454686046">
        <ele>2607.71</ele>
        <time>2015-07-12T11:49:44Z</time>
      </trkpt>
      <trkpt lat="46.633745916187763" lon="12.340584425255656">
        <ele>2605.79</ele>
        <time>2015-07-12T11:49:56Z</time>
      </trkpt>
      <trkpt lat="46.633637202903628" lon="12.340668328106403">
        <ele>2603.8699999999999</ele>
        <time>2015-07-12T11:50:08Z</time>
      </trkpt>
      <trkpt lat="46.633605603128672" lon="12.34068819321692">
        <ele>2603.3899999999999</ele>
        <time>2015-07-12T11:50:11Z</time>
      </trkpt>
      <trkpt lat="46.63355715572834" lon="12.340698083862662">
        <ele>2600.98</ele>
        <time>2015-07-12T11:50:17Z</time>
      </trkpt>
      <trkpt lat="46.633488675579429" lon="12.340704286471009">
        <ele>2599.54</ele>
        <time>2015-07-12T11:50:26Z</time>
      </trkpt>
      <trkpt lat="46.63346872664988" lon="12.340730773285031">
        <ele>2599.0599999999999</ele>
        <time>2015-07-12T11:50:29Z</time>
      </trkpt>
      <trkpt lat="46.633366886526346" lon="12.340675536543131">
        <ele>2595.6999999999998</ele>
        <time>2015-07-12T11:50:40Z</time>
      </trkpt>
      <trkpt lat="46.633291700854897" lon="12.340785842388868">
        <ele>2591.8499999999999</ele>
        <time>2015-07-12T11:50:51Z</time>
      </trkpt>
      <trkpt lat="46.633278541266918" lon="12.340791542083025">
        <ele>2591.3699999999999</ele>
        <time>2015-07-12T11:50:53Z</time>
      </trkpt>
      <trkpt lat="46.63325808942318" lon="12.340794391930103">
        <ele>2590.8899999999999</ele>
        <time>2015-07-12T11:50:55Z</time>
      </trkpt>
      <trkpt lat="46.633197488263249" lon="12.340810988098383">
        <ele>2588.4899999999998</ele>
        <time>2015-07-12T11:51:02Z</time>
      </trkpt>
      <trkpt lat="46.633150968700647" lon="12.340848706662655">
        <ele>2586.5599999999999</ele>
        <time>2015-07-12T11:51:07Z</time>
      </trkpt>
      <trkpt lat="46.633052146062255" lon="12.34084309078753">
        <ele>2583.6799999999998</ele>
        <time>2015-07-12T11:51:17Z</time>
      </trkpt>
      <trkpt lat="46.633034879341722" lon="12.340842252597213">
        <ele>2583.6799999999998</ele>
        <time>2015-07-12T11:51:19Z</time>
      </trkpt>
      <trkpt lat="46.632941840216517" lon="12.340821800753474">
        <ele>2580.8000000000002</ele>
        <time>2015-07-12T11:51:30Z</time>
      </trkpt>
      <trkpt lat="46.63290630094707" lon="12.340792631730437">
        <ele>2579.3499999999999</ele>
        <time>2015-07-12T11:51:33Z</time>
      </trkpt>
      <trkpt lat="46.63286087103188" lon="12.340747620910406">
        <ele>2579.3499999999999</ele>
        <time>2015-07-12T11:51:37Z</time>
      </trkpt>
      <trkpt lat="46.63277629762888" lon="12.340709986165166">
        <ele>2578.8699999999999</ele>
        <time>2015-07-12T11:51:45Z</time>
      </trkpt>
      <trkpt lat="46.632714355364442" lon="12.340651731938124">
        <ele>2578.3899999999999</ele>
        <time>2015-07-12T11:51:52Z</time>
      </trkpt>
      <trkpt lat="46.632574712857604" lon="12.340636476874352">
        <ele>2576.9499999999998</ele>
        <time>2015-07-12T11:52:05Z</time>
      </trkpt>
      <trkpt lat="46.632517632097006" lon="12.340633794665337">
        <ele>2574.0700000000002</ele>
        <time>2015-07-12T11:52:09Z</time>
      </trkpt>
      <trkpt lat="46.632456192746758" lon="12.340665897354484">
        <ele>2572.6300000000001</ele>
        <time>2015-07-12T11:52:15Z</time>
      </trkpt>
      <trkpt lat="46.632402883842587" lon="12.340672938153148">
        <ele>2570.6999999999998</ele>
        <time>2015-07-12T11:52:20Z</time>
      </trkpt>
      <trkpt lat="46.632377738133073" lon="12.340709986165166">
        <ele>2570.2199999999998</ele>
        <time>2015-07-12T11:52:24Z</time>
      </trkpt>
      <trkpt lat="46.632322249934077" lon="12.340698670595884">
        <ele>2568.7800000000002</ele>
        <time>2015-07-12T11:52:29Z</time>
      </trkpt>
      <trkpt lat="46.632296601310372" lon="12.340679308399558">
        <ele>2568.7800000000002</ele>
        <time>2015-07-12T11:52:31Z</time>
      </trkpt>
      <trkpt lat="46.632170872762799" lon="12.340705543756485">
        <ele>2567.8200000000002</ele>
        <time>2015-07-12T11:52:42Z</time>
      </trkpt>
      <trkpt lat="46.632052939385176" lon="12.340744184330106">
        <ele>2564.4499999999998</ele>
        <time>2015-07-12T11:52:53Z</time>
      </trkpt>
      <trkpt lat="46.632037265226245" lon="12.340749213472009">
        <ele>2563.9699999999998</ele>
        <time>2015-07-12T11:52:55Z</time>
      </trkpt>
      <trkpt lat="46.632011700421572" lon="12.340775365009904">
        <ele>2563.9699999999998</ele>
        <time>2015-07-12T11:52:58Z</time>
      </trkpt>
      <trkpt lat="46.631970461457968" lon="12.340767486020923">
        <ele>2563.4899999999998</ele>
        <time>2015-07-12T11:53:01Z</time>
      </trkpt>
      <trkpt lat="46.631896533071995" lon="12.340891202911735">
        <ele>2563.0100000000002</ele>
        <time>2015-07-12T11:53:10Z</time>
      </trkpt>
      <trkpt lat="46.631787652149796" lon="12.340988349169493">
        <ele>2561.0900000000001</ele>
        <time>2015-07-12T11:53:23Z</time>
      </trkpt>
      <trkpt lat="46.631681453436613" lon="12.341089686378837">
        <ele>2558.6900000000001</ele>
        <time>2015-07-12T11:53:35Z</time>
      </trkpt>
      <trkpt lat="46.63166762329638" lon="12.3411123175174">
        <ele>2558.6900000000001</ele>
        <time>2015-07-12T11:53:37Z</time>
      </trkpt>
      <trkpt lat="46.631605513393879" lon="12.341179372742772">
        <ele>2559.1700000000001</ele>
        <time>2015-07-12T11:53:52Z</time>
      </trkpt>
      <trkpt lat="46.6315733268857" lon="12.341215331107378">
        <ele>2558.21</ele>
        <time>2015-07-12T11:54:02Z</time>
      </trkpt>
      <trkpt lat="46.63150635547936" lon="12.341267298907042">
        <ele>2557.2399999999998</ele>
        <time>2015-07-12T11:54:12Z</time>
      </trkpt>
      <trkpt lat="46.631535943597555" lon="12.34125941991806">
        <ele>2557.2399999999998</ele>
        <time>2015-07-12T11:54:25Z</time>
      </trkpt>
      <trkpt lat="46.631549522280693" lon="12.341226311400533">
        <ele>2557.73</ele>
        <time>2015-07-12T11:54:38Z</time>
      </trkpt>
      <trkpt lat="46.631556395441294" lon="12.341222371906042">
        <ele>2557.73</ele>
        <time>2015-07-12T11:54:56Z</time>
      </trkpt>
      <trkpt lat="46.631521945819259" lon="12.341134613379836">
        <ele>2557.73</ele>
        <time>2015-07-12T11:55:16Z</time>
      </trkpt>
      <trkpt lat="46.631485149264336" lon="12.341076945886016">
        <ele>2557.73</ele>
        <time>2015-07-12T11:55:45Z</time>
      </trkpt>
      <trkpt lat="46.631476348266006" lon="12.341051800176501">
        <ele>2557.73</ele>
        <time>2015-07-12T11:56:05Z</time>
      </trkpt>
      <trkpt lat="46.631497386842966" lon="12.341125812381506">
        <ele>2557.73</ele>
        <time>2015-07-12T11:56:25Z</time>
      </trkpt>
      <trkpt lat="46.631511552259326" lon="12.341247517615557">
        <ele>2557.73</ele>
        <time>2015-07-12T11:56:37Z</time>
      </trkpt>
      <trkpt lat="46.631499985232949" lon="12.341286577284336">
        <ele>2557.2399999999998</ele>
        <time>2015-07-12T11:57:12Z</time>
      </trkpt>
      <trkpt lat="46.631511133164167" lon="12.341253887861967">
        <ele>2557.73</ele>
        <time>2015-07-12T11:57:27Z</time>
      </trkpt>
      <trkpt lat="46.631517503410578" lon="12.341259000822902">
        <ele>2557.73</ele>
        <time>2015-07-12T11:58:01Z</time>
      </trkpt>
      <trkpt lat="46.631518844515085" lon="12.341246260330081">
        <ele>2558.21</ele>
        <time>2015-07-12T11:58:25Z</time>
      </trkpt>
      <trkpt lat="46.631534686312079" lon="12.341224467381835">
        <ele>2558.21</ele>
        <time>2015-07-12T11:58:47Z</time>
      </trkpt>
      <trkpt lat="46.631537955254316" lon="12.341245925053954">
        <ele>2558.21</ele>
        <time>2015-07-12T11:59:12Z</time>
      </trkpt>
      <trkpt lat="46.63154985755682" lon="12.341251205652952">
        <ele>2557.73</ele>
        <time>2015-07-12T11:59:33Z</time>
      </trkpt>
      <trkpt lat="46.631576931104064" lon="12.341256989166141">
        <ele>2558.21</ele>
        <time>2015-07-12T11:59:55Z</time>
      </trkpt>
      <trkpt lat="46.631579780951142" lon="12.341262772679329">
        <ele>2558.21</ele>
        <time>2015-07-12T12:00:12Z</time>
      </trkpt>
      <trkpt lat="46.631543235853314" lon="12.341234022751451">
        <ele>2557.73</ele>
        <time>2015-07-12T12:00:38Z</time>
      </trkpt>
      <trkpt lat="46.631509205326438" lon="12.341224551200867">
        <ele>2558.21</ele>
        <time>2015-07-12T12:00:58Z</time>
      </trkpt>
      <trkpt lat="46.63152982480824" lon="12.341234777122736">
        <ele>2558.21</ele>
        <time>2015-07-12T12:01:20Z</time>
      </trkpt>
      <trkpt lat="46.631561843678355" lon="12.341250535100698">
        <ele>2558.21</ele>
        <time>2015-07-12T12:01:41Z</time>
      </trkpt>
      <trkpt lat="46.631556646898389" lon="12.341255648061633">
        <ele>2558.6900000000001</ele>
        <time>2015-07-12T12:01:59Z</time>
      </trkpt>
      <trkpt lat="46.631563352420926" lon="12.341265035793185">
        <ele>2558.6900000000001</ele>
        <time>2015-07-12T12:02:12Z</time>
      </trkpt>
      <trkpt lat="46.631519347429276" lon="12.341241398826241">
        <ele>2558.6900000000001</ele>
        <time>2015-07-12T12:02:37Z</time>
      </trkpt>
      <trkpt lat="46.631515743210912" lon="12.341250032186508">
        <ele>2558.6900000000001</ele>
        <time>2015-07-12T12:03:03Z</time>
      </trkpt>
      <trkpt lat="46.631532004103065" lon="12.341257827356458">
        <ele>2558.6900000000001</ele>
        <time>2015-07-12T12:03:29Z</time>
      </trkpt>
      <trkpt lat="46.631534770131111" lon="12.341239973902702">
        <ele>2558.6900000000001</ele>
        <time>2015-07-12T12:03:44Z</time>
      </trkpt>
      <trkpt lat="46.631516749039292" lon="12.34123008325696">
        <ele>2559.6500000000001</ele>
        <time>2015-07-12T12:03:52Z</time>
      </trkpt>
      <trkpt lat="46.631525550037622" lon="12.341245589777827">
        <ele>2558.6900000000001</ele>
        <time>2015-07-12T12:04:00Z</time>
      </trkpt>
      <trkpt lat="46.631535356864333" lon="12.341233100742102">
        <ele>2558.6900000000001</ele>
        <time>2015-07-12T12:04:21Z</time>
      </trkpt>
      <trkpt lat="46.631521107628942" lon="12.341236285865307">
        <ele>2558.6900000000001</ele>
        <time>2015-07-12T12:04:33Z</time>
      </trkpt>
      <trkpt lat="46.631545582786202" lon="12.341246260330081">
        <ele>2559.6500000000001</ele>
        <time>2015-07-12T12:04:43Z</time>
      </trkpt>
      <trkpt lat="46.631554970517755" lon="12.341180546209216">
        <ele>2558.21</ele>
        <time>2015-07-12T12:04:53Z</time>
      </trkpt>
      <trkpt lat="46.631507026031613" lon="12.341170990839601">
        <ele>2556.7600000000002</ele>
        <time>2015-07-12T12:04:59Z</time>
      </trkpt>
      <trkpt lat="46.631500655785203" lon="12.341133942827582">
        <ele>2556.7600000000002</ele>
        <time>2015-07-12T12:05:03Z</time>
      </trkpt>
      <trkpt lat="46.63154499605298" lon="12.3409862536937">
        <ele>2554.8400000000001</ele>
        <time>2015-07-12T12:05:15Z</time>
      </trkpt>
      <trkpt lat="46.631438629701734" lon="12.340885084122419">
        <ele>2555.8000000000002</ele>
        <time>2015-07-12T12:05:29Z</time>
      </trkpt>
      <trkpt lat="46.631363863125443" lon="12.340828506276011">
        <ele>2557.2399999999998</ele>
        <time>2015-07-12T12:05:40Z</time>
      </trkpt>
      <trkpt lat="46.631283313035965" lon="12.340766312554479">
        <ele>2558.21</ele>
        <time>2015-07-12T12:05:53Z</time>
      </trkpt>
      <trkpt lat="46.631269650533795" lon="12.340754326432943">
        <ele>2559.1700000000001</ele>
        <time>2015-07-12T12:06:05Z</time>
      </trkpt>
      <trkpt lat="46.631269315257668" lon="12.340751979500055">
        <ele>2559.1700000000001</ele>
        <time>2015-07-12T12:06:18Z</time>
      </trkpt>
      <trkpt lat="46.63128356449306" lon="12.340742088854313">
        <ele>2558.6900000000001</ele>
        <time>2015-07-12T12:06:33Z</time>
      </trkpt>
      <trkpt lat="46.631274679675698" lon="12.340745022520423">
        <ele>2558.6900000000001</ele>
        <time>2015-07-12T12:06:48Z</time>
      </trkpt>
      <trkpt lat="46.631264789029956" lon="12.340749464929104">
        <ele>2559.1700000000001</ele>
        <time>2015-07-12T12:07:01Z</time>
      </trkpt>
      <trkpt lat="46.631278786808252" lon="12.340760948136449">
        <ele>2559.1700000000001</ele>
        <time>2015-07-12T12:07:21Z</time>
      </trkpt>
      <trkpt lat="46.63124542683363" lon="12.340746279805899">
        <ele>2559.1700000000001</ele>
        <time>2015-07-12T12:07:33Z</time>
      </trkpt>
      <trkpt lat="46.631206283345819" lon="12.340726749971509">
        <ele>2559.6500000000001</ele>
        <time>2015-07-12T12:07:42Z</time>
      </trkpt>
      <trkpt lat="46.631127744913101" lon="12.340711997821927">
        <ele>2560.6100000000001</ele>
        <time>2015-07-12T12:07:52Z</time>
      </trkpt>
      <trkpt lat="46.631049877032638" lon="12.340661287307739">
        <ele>2561.5700000000002</ele>
        <time>2015-07-12T12:08:02Z</time>
      </trkpt>
      <trkpt lat="46.630981732159853" lon="12.340617785230279">
        <ele>2563.0100000000002</ele>
        <time>2015-07-12T12:08:12Z</time>
      </trkpt>
      <trkpt lat="46.630891039967537" lon="12.340554585680366">
        <ele>2564.4499999999998</ele>
        <time>2015-07-12T12:08:24Z</time>
      </trkpt>
      <trkpt lat="46.630814848467708" lon="12.340462803840637">
        <ele>2565.9000000000001</ele>
        <time>2015-07-12T12:08:35Z</time>
      </trkpt>
      <trkpt lat="46.630766484886408" lon="12.340347887948155">
        <ele>2566.8600000000001</ele>
        <time>2015-07-12T12:08:46Z</time>
      </trkpt>
      <trkpt lat="46.630701022222638" lon="12.340167593210936">
        <ele>2568.3000000000002</ele>
        <time>2015-07-12T12:09:00Z</time>
      </trkpt>
      <trkpt lat="46.630734466016293" lon="12.340016467496753">
        <ele>2569.7399999999998</ele>
        <time>2015-07-12T12:09:13Z</time>
      </trkpt>
      <trkpt lat="46.630803029984236" lon="12.33995670452714">
        <ele>2570.6999999999998</ele>
        <time>2015-07-12T12:09:23Z</time>
      </trkpt>
      <trkpt lat="46.630814932286739" lon="12.339929630979896">
        <ele>2570.6999999999998</ele>
        <time>2015-07-12T12:09:25Z</time>
      </trkpt>
      <trkpt lat="46.630876287817955" lon="12.339781019836664">
        <ele>2571.6599999999999</ele>
        <time>2015-07-12T12:09:36Z</time>
      </trkpt>
      <trkpt lat="46.630952311679721" lon="12.339669205248356">
        <ele>2574.0700000000002</ele>
        <time>2015-07-12T12:09:48Z</time>
      </trkpt>
      <trkpt lat="46.630997825413942" lon="12.33956971205771">
        <ele>2575.0300000000002</ele>
        <time>2015-07-12T12:09:59Z</time>
      </trkpt>
      <trkpt lat="46.630998244509101" lon="12.339562671259046">
        <ele>2575.5100000000002</ele>
        <time>2015-07-12T12:10:00Z</time>
      </trkpt>
      <trkpt lat="46.631013080477715" lon="12.339385142549872">
        <ele>2574.5500000000002</ele>
        <time>2015-07-12T12:10:15Z</time>
      </trkpt>
      <trkpt lat="46.630977792665362" lon="12.339249439537525">
        <ele>2571.6599999999999</ele>
        <time>2015-07-12T12:10:26Z</time>
      </trkpt>
      <trkpt lat="46.630963124334812" lon="12.339222365990281">
        <ele>2570.6999999999998</ele>
        <time>2015-07-12T12:10:29Z</time>
      </trkpt>
      <trkpt lat="46.630906378850341" lon="12.339159836992621">
        <ele>2569.7399999999998</ele>
        <time>2015-07-12T12:10:36Z</time>
      </trkpt>
      <trkpt lat="46.630860194563866" lon="12.338993037119508">
        <ele>2566.3800000000001</ele>
        <time>2015-07-12T12:10:48Z</time>
      </trkpt>
      <trkpt lat="46.630845190957189" lon="12.33897409401834">
        <ele>2565.4200000000001</ele>
        <time>2015-07-12T12:10:50Z</time>
      </trkpt>
      <trkpt lat="46.630773525685072" lon="12.338907206431031">
        <ele>2563.4899999999998</ele>
        <time>2015-07-12T12:10:58Z</time>
      </trkpt>
      <trkpt lat="46.630697837099433" lon="12.33885926194489">
        <ele>2562.0500000000002</ele>
        <time>2015-07-12T12:11:06Z</time>
      </trkpt>
      <trkpt lat="46.630678726360202" lon="12.338846353814006">
        <ele>2562.5300000000002</ele>
        <time>2015-07-12T12:11:08Z</time>
      </trkpt>
      <trkpt lat="46.630637235939503" lon="12.338834702968597">
        <ele>2560.6100000000001</ele>
        <time>2015-07-12T12:11:12Z</time>
      </trkpt>
      <trkpt lat="46.630577137693763" lon="12.338794972747564">
        <ele>2563.4899999999998</ele>
        <time>2015-07-12T12:11:23Z</time>
      </trkpt>
      <trkpt lat="46.630557104945183" lon="12.338803606107831">
        <ele>2562.0500000000002</ele>
        <time>2015-07-12T12:11:37Z</time>
      </trkpt>
      <trkpt lat="46.630543610081077" lon="12.338810060173273">
        <ele>2562.5300000000002</ele>
        <time>2015-07-12T12:11:41Z</time>
      </trkpt>
      <trkpt lat="46.630426598712802" lon="12.338770749047399">
        <ele>2558.6900000000001</ele>
        <time>2015-07-12T12:11:52Z</time>
      </trkpt>
      <trkpt lat="46.630413187667727" lon="12.338762953877449">
        <ele>2558.21</ele>
        <time>2015-07-12T12:11:53Z</time>
      </trkpt>
      <trkpt lat="46.630305564031005" lon="12.338602188974619">
        <ele>2556.7600000000002</ele>
        <time>2015-07-12T12:12:05Z</time>
      </trkpt>
      <trkpt lat="46.630215039476752" lon="12.338425163179636">
        <ele>2557.2399999999998</ele>
        <time>2015-07-12T12:12:18Z</time>
      </trkpt>
      <trkpt lat="46.630037594586611" lon="12.338307565078139">
        <ele>2556.7600000000002</ele>
        <time>2015-07-12T12:12:33Z</time>
      </trkpt>
      <trkpt lat="46.629853108897805" lon="12.338272863999009">
        <ele>2553.8800000000001</ele>
        <time>2015-07-12T12:12:48Z</time>
      </trkpt>
      <trkpt lat="46.629731068387628" lon="12.338197259232402">
        <ele>2550.5100000000002</ele>
        <time>2015-07-12T12:12:59Z</time>
      </trkpt>
      <trkpt lat="46.629710951820016" lon="12.338177729398012">
        <ele>2549.5500000000002</ele>
        <time>2015-07-12T12:13:01Z</time>
      </trkpt>
      <trkpt lat="46.62959729321301" lon="12.338120145723224">
        <ele>2546.6700000000001</ele>
        <time>2015-07-12T12:13:11Z</time>
      </trkpt>
      <trkpt lat="46.629496123641729" lon="12.338112099096179">
        <ele>2543.3099999999999</ele>
        <time>2015-07-12T12:13:20Z</time>
      </trkpt>
      <trkpt lat="46.629370478913188" lon="12.338038589805365">
        <ele>2540.9000000000001</ele>
        <time>2015-07-12T12:13:32Z</time>
      </trkpt>
      <trkpt lat="46.629357738420367" lon="12.338014701381326">
        <ele>2539.9400000000001</ele>
        <time>2015-07-12T12:13:34Z</time>
      </trkpt>
      <trkpt lat="46.629362097010016" lon="12.33789274469018">
        <ele>2540.9000000000001</ele>
        <time>2015-07-12T12:13:39Z</time>
      </trkpt>
      <trkpt lat="46.629375088959932" lon="12.337821749970317">
        <ele>2542.3400000000001</ele>
        <time>2015-07-12T12:13:44Z</time>
      </trkpt>
      <trkpt lat="46.629390008747578" lon="12.337785623967648">
        <ele>2541.8600000000001</ele>
        <time>2015-07-12T12:13:47Z</time>
      </trkpt>
      <trkpt lat="46.629368551075459" lon="12.337728627026081">
        <ele>2539.9400000000001</ele>
        <time>2015-07-12T12:13:51Z</time>
      </trkpt>
      <trkpt lat="46.629299903288484" lon="12.337609184905887">
        <ele>2539.9400000000001</ele>
        <time>2015-07-12T12:14:01Z</time>
      </trkpt>
      <trkpt lat="46.629290599375963" lon="12.337585715577006">
        <ele>2539.46</ele>
        <time>2015-07-12T12:14:03Z</time>
      </trkpt>
      <trkpt lat="46.629255646839738" lon="12.337543638423085">
        <ele>2538.02</ele>
        <time>2015-07-12T12:14:07Z</time>
      </trkpt>
      <trkpt lat="46.629217341542244" lon="12.337471218779683">
        <ele>2541.3800000000001</ele>
        <time>2015-07-12T12:14:15Z</time>
      </trkpt>
      <trkpt lat="46.629218934103847" lon="12.337482450529933">
        <ele>2540.9000000000001</ele>
        <time>2015-07-12T12:14:16Z</time>
      </trkpt>
      <trkpt lat="46.629220107570291" lon="12.337479265406728">
        <ele>2537.54</ele>
        <time>2015-07-12T12:14:28Z</time>
      </trkpt>
      <trkpt lat="46.629211641848087" lon="12.337461579591036">
        <ele>2536.5799999999999</ele>
        <time>2015-07-12T12:14:30Z</time>
      </trkpt>
      <trkpt lat="46.629215246066451" lon="12.337455125525594">
        <ele>2540.4200000000001</ele>
        <time>2015-07-12T12:14:32Z</time>
      </trkpt>
      <trkpt lat="46.629215748980641" lon="12.337452443316579">
        <ele>2539.46</ele>
        <time>2015-07-12T12:14:33Z</time>
      </trkpt>
      <trkpt lat="46.629217592999339" lon="12.337430063635111">
        <ele>2538.98</ele>
        <time>2015-07-12T12:14:45Z</time>
      </trkpt>
      <trkpt lat="46.629208289086819" lon="12.337436266243458">
        <ele>2539.46</ele>
        <time>2015-07-12T12:15:00Z</time>
      </trkpt>
      <trkpt lat="46.629209294915199" lon="12.337431572377682">
        <ele>2539.46</ele>
        <time>2015-07-12T12:15:16Z</time>
      </trkpt>
      <trkpt lat="46.629218766465783" lon="12.33745202422142">
        <ele>2539.46</ele>
        <time>2015-07-12T12:15:30Z</time>
      </trkpt>
      <trkpt lat="46.629223963245749" lon="12.337446659803391">
        <ele>2538.5</ele>
        <time>2015-07-12T12:15:42Z</time>
      </trkpt>
      <trkpt lat="46.629226813092828" lon="12.337459567934275">
        <ele>2538.5</ele>
        <time>2015-07-12T12:15:47Z</time>
      </trkpt>
      <trkpt lat="46.629235781729221" lon="12.337497035041451">
        <ele>2539.46</ele>
        <time>2015-07-12T12:16:00Z</time>
      </trkpt>
      <trkpt lat="46.629238044843078" lon="12.337497537955642">
        <ele>2538.98</ele>
        <time>2015-07-12T12:16:13Z</time>
      </trkpt>
      <trkpt lat="46.629231926053762" lon="12.337453281506896">
        <ele>2537.54</ele>
        <time>2015-07-12T12:16:29Z</time>
      </trkpt>
      <trkpt lat="46.62922203540802" lon="12.337341550737619">
        <ele>2537.0599999999999</ele>
        <time>2015-07-12T12:16:40Z</time>
      </trkpt>
      <trkpt lat="46.62922446615994" lon="12.337245745584369">
        <ele>2534.6500000000001</ele>
        <time>2015-07-12T12:16:47Z</time>
      </trkpt>
      <trkpt lat="46.629308369010687" lon="12.337083220481873">
        <ele>2531.29</ele>
        <time>2015-07-12T12:16:59Z</time>
      </trkpt>
      <trkpt lat="46.6293422318995" lon="12.337091183289886">
        <ele>2529.8499999999999</ele>
        <time>2015-07-12T12:17:05Z</time>
      </trkpt>
      <trkpt lat="46.62942479364574" lon="12.337257983162999">
        <ele>2526.48</ele>
        <time>2015-07-12T12:17:18Z</time>
      </trkpt>
      <trkpt lat="46.629429990425706" lon="12.33727122657001">
        <ele>2526</ele>
        <time>2015-07-12T12:17:19Z</time>
      </trkpt>
      <trkpt lat="46.629495117813349" lon="12.337292768061161">
        <ele>2525.04</ele>
        <time>2015-07-12T12:17:30Z</time>
      </trkpt>
      <trkpt lat="46.62956552579999" lon="12.337309028953314">
        <ele>2523.5999999999999</ele>
        <time>2015-07-12T12:17:39Z</time>
      </trkpt>
      <trkpt lat="46.629660660400987" lon="12.337276758626103">
        <ele>2519.75</ele>
        <time>2015-07-12T12:17:49Z</time>
      </trkpt>
      <trkpt lat="46.62966619245708" lon="12.337269298732281">
        <ele>2519.27</ele>
        <time>2015-07-12T12:17:50Z</time>
      </trkpt>
      <trkpt lat="46.629767194390297" lon="12.337209787219763">
        <ele>2516.3899999999999</ele>
        <time>2015-07-12T12:18:04Z</time>
      </trkpt>
      <trkpt lat="46.629831986501813" lon="12.337132338434458">
        <ele>2513.02</ele>
        <time>2015-07-12T12:18:16Z</time>
      </trkpt>
      <trkpt lat="46.629892587661743" lon="12.337083639577031">
        <ele>2511.0999999999999</ele>
        <time>2015-07-12T12:18:27Z</time>
      </trkpt>
      <trkpt lat="46.629892252385616" lon="12.337062349542975">
        <ele>2510.1399999999999</ele>
        <time>2015-07-12T12:18:34Z</time>
      </trkpt>
      <trkpt lat="46.629844391718507" lon="12.336958413943648">
        <ele>2506.77</ele>
        <time>2015-07-12T12:18:45Z</time>
      </trkpt>
      <trkpt lat="46.629854617640376" lon="12.336900997906923">
        <ele>2505.3299999999999</ele>
        <time>2015-07-12T12:18:51Z</time>
      </trkpt>
      <trkpt lat="46.62998428568244" lon="12.336860345676541">
        <ele>2501.4899999999998</ele>
        <time>2015-07-12T12:19:03Z</time>
      </trkpt>
      <trkpt lat="46.630002809688449" lon="12.336828410625458">
        <ele>2500.5300000000002</ele>
        <time>2015-07-12T12:19:07Z</time>
      </trkpt>
      <trkpt lat="46.630045976489782" lon="12.336792536079884">
        <ele>2498.5999999999999</ele>
        <time>2015-07-12T12:19:11Z</time>
      </trkpt>
      <trkpt lat="46.630031978711486" lon="12.336719697341323">
        <ele>2496.1999999999998</ele>
        <time>2015-07-12T12:19:17Z</time>
      </trkpt>
      <trkpt lat="46.630044216290116" lon="12.336667394265532">
        <ele>2494.7600000000002</ele>
        <time>2015-07-12T12:19:21Z</time>
      </trkpt>
      <trkpt lat="46.630066093057394" lon="12.336639314889908">
        <ele>2494.2800000000002</ele>
        <time>2015-07-12T12:19:26Z</time>
      </trkpt>
      <trkpt lat="46.630126526579261" lon="12.336594723165035">
        <ele>2492.3600000000001</ele>
        <time>2015-07-12T12:19:32Z</time>
      </trkpt>
      <trkpt lat="46.630159467458725" lon="12.336552981287241">
        <ele>2490.9099999999999</ele>
        <time>2015-07-12T12:19:37Z</time>
      </trkpt>
      <trkpt lat="46.630240269005299" lon="12.336510317400098">
        <ele>2488.5100000000002</ele>
        <time>2015-07-12T12:19:47Z</time>
      </trkpt>
      <trkpt lat="46.630232809111476" lon="12.336459020152688">
        <ele>2487.5500000000002</ele>
        <time>2015-07-12T12:19:57Z</time>
      </trkpt>
      <trkpt lat="46.63024865090847" lon="12.336376206949353">
        <ele>2485.6300000000001</ele>
        <time>2015-07-12T12:20:05Z</time>
      </trkpt>
      <trkpt lat="46.630306737497449" lon="12.336263302713633">
        <ele>2485.1500000000001</ele>
        <time>2015-07-12T12:20:16Z</time>
      </trkpt>
      <trkpt lat="46.630356442183256" lon="12.336205551400781">
        <ele>2485.1500000000001</ele>
        <time>2015-07-12T12:20:24Z</time>
      </trkpt>
      <trkpt lat="46.630436070263386" lon="12.336062639951706">
        <ele>2484.1799999999998</ele>
        <time>2015-07-12T12:20:36Z</time>
      </trkpt>
      <trkpt lat="46.630506310611963" lon="12.335876310244203">
        <ele>2481.7800000000002</ele>
        <time>2015-07-12T12:20:50Z</time>
      </trkpt>
      <trkpt lat="46.630563978105783" lon="12.335672965273261">
        <ele>2480.8200000000002</ele>
        <time>2015-07-12T12:21:04Z</time>
      </trkpt>
      <trkpt lat="46.630647629499435" lon="12.335592750459909">
        <ele>2479.8600000000001</ele>
        <time>2015-07-12T12:21:15Z</time>
      </trkpt>
      <trkpt lat="46.630700519308448" lon="12.335568275302649">
        <ele>2478.4200000000001</ele>
        <time>2015-07-12T12:21:21Z</time>
      </trkpt>
      <trkpt lat="46.630735890939832" lon="12.335462914779782">
        <ele>2476.0100000000002</ele>
        <time>2015-07-12T12:21:33Z</time>
      </trkpt>
      <trkpt lat="46.630772016942501" lon="12.33539879322052">
        <ele>2475.0500000000002</ele>
        <time>2015-07-12T12:21:42Z</time>
      </trkpt>
      <trkpt lat="46.630839742720127" lon="12.335349759086967">
        <ele>2472.6500000000001</ele>
        <time>2015-07-12T12:21:51Z</time>
      </trkpt>
      <trkpt lat="46.630866816267371" lon="12.335344562307">
        <ele>2471.21</ele>
        <time>2015-07-12T12:21:56Z</time>
      </trkpt>
      <trkpt lat="46.630918029695749" lon="12.33536409214139">
        <ele>2469.7600000000002</ele>
        <time>2015-07-12T12:22:00Z</time>
      </trkpt>
      <trkpt lat="46.630961867049336" lon="12.335406756028533">
        <ele>2468.8000000000002</ele>
        <time>2015-07-12T12:22:06Z</time>
      </trkpt>
      <trkpt lat="46.631020121276379" lon="12.335406839847565">
        <ele>2464.96</ele>
        <time>2015-07-12T12:22:15Z</time>
      </trkpt>
      <trkpt lat="46.631046021357179" lon="12.335385717451572">
        <ele>2464.48</ele>
        <time>2015-07-12T12:22:19Z</time>
      </trkpt>
      <trkpt lat="46.631062785163522" lon="12.335367444902658">
        <ele>2463.52</ele>
        <time>2015-07-12T12:22:21Z</time>
      </trkpt>
      <trkpt lat="46.631094887852669" lon="12.335277171805501">
        <ele>2463.52</ele>
        <time>2015-07-12T12:22:27Z</time>
      </trkpt>
      <trkpt lat="46.631088852882385" lon="12.335248421877623">
        <ele>2462.0700000000002</ele>
        <time>2015-07-12T12:22:29Z</time>
      </trkpt>
      <trkpt lat="46.631147777661681" lon="12.335226545110345">
        <ele>2459.6700000000001</ele>
        <time>2015-07-12T12:22:38Z</time>
      </trkpt>
      <trkpt lat="46.6311692353338" lon="12.335213636979461">
        <ele>2459.6700000000001</ele>
        <time>2015-07-12T12:22:40Z</time>
      </trkpt>
      <trkpt lat="46.631256574764848" lon="12.335201231762767">
        <ele>2457.27</ele>
        <time>2015-07-12T12:22:48Z</time>
      </trkpt>
      <trkpt lat="46.631256826221943" lon="12.335055135190487">
        <ele>2454.8600000000001</ele>
        <time>2015-07-12T12:22:58Z</time>
      </trkpt>
      <trkpt lat="46.631291527301073" lon="12.334978189319372">
        <ele>2452.9400000000001</ele>
        <time>2015-07-12T12:23:04Z</time>
      </trkpt>
      <trkpt lat="46.631364617496729" lon="12.33489403501153">
        <ele>2450.0599999999999</ele>
        <time>2015-07-12T12:23:15Z</time>
      </trkpt>
      <trkpt lat="46.6313988994807" lon="12.33482907526195">
        <ele>2448.1300000000001</ele>
        <time>2015-07-12T12:23:23Z</time>
      </trkpt>
      <trkpt lat="46.631434354931116" lon="12.334750453010201">
        <ele>2445.73</ele>
        <time>2015-07-12T12:23:33Z</time>
      </trkpt>
      <trkpt lat="46.631471989676356" lon="12.334696725010872">
        <ele>2444.29</ele>
        <time>2015-07-12T12:23:39Z</time>
      </trkpt>
      <trkpt lat="46.631547762081027" lon="12.334613408893347">
        <ele>2440.4400000000001</ele>
        <time>2015-07-12T12:23:51Z</time>
      </trkpt>
      <trkpt lat="46.631565866991878" lon="12.33449530787766">
        <ele>2438.04</ele>
        <time>2015-07-12T12:24:03Z</time>
      </trkpt>
      <trkpt lat="46.63156938739121" lon="12.334384247660637">
        <ele>2435.6399999999999</ele>
        <time>2015-07-12T12:24:13Z</time>
      </trkpt>
      <trkpt lat="46.631576595827937" lon="12.334328256547451">
        <ele>2434.1999999999998</ele>
        <time>2015-07-12T12:24:25Z</time>
      </trkpt>
      <trkpt lat="46.631550528109074" lon="12.334345523267984">
        <ele>2434.1999999999998</ele>
        <time>2015-07-12T12:24:43Z</time>
      </trkpt>
      <trkpt lat="46.631567627191544" lon="12.334337644279003">
        <ele>2434.6799999999998</ele>
        <time>2015-07-12T12:25:07Z</time>
      </trkpt>
      <trkpt lat="46.631631916388869" lon="12.334340745583177">
        <ele>2433.23</ele>
        <time>2015-07-12T12:25:19Z</time>
      </trkpt>
      <trkpt lat="46.631670305505395" lon="12.334349378943443">
        <ele>2431.79</ele>
        <time>2015-07-12T12:25:29Z</time>
      </trkpt>
      <trkpt lat="46.631715400144458" lon="12.334400005638599">
        <ele>2430.3499999999999</ele>
        <time>2015-07-12T12:25:41Z</time>
      </trkpt>
      <trkpt lat="46.631750352680683" lon="12.334282826632261">
        <ele>2427.4699999999998</ele>
        <time>2015-07-12T12:25:51Z</time>
      </trkpt>
      <trkpt lat="46.631751693785191" lon="12.33423488214612">
        <ele>2426.5</ele>
        <time>2015-07-12T12:25:54Z</time>
      </trkpt>
      <trkpt lat="46.631833584979177" lon="12.334246532991529">
        <ele>2424.0999999999999</ele>
        <time>2015-07-12T12:26:05Z</time>
      </trkpt>
      <trkpt lat="46.631873566657305" lon="12.334328508004546">
        <ele>2422.6599999999999</ele>
        <time>2015-07-12T12:26:16Z</time>
      </trkpt>
      <trkpt lat="46.631892845034599" lon="12.334350133314729">
        <ele>2421.2199999999998</ele>
        <time>2015-07-12T12:26:20Z</time>
      </trkpt>
      <trkpt lat="46.631928803399205" lon="12.334239156916738">
        <ele>2419.7800000000002</ele>
        <time>2015-07-12T12:26:31Z</time>
      </trkpt>
      <trkpt lat="46.631933748722076" lon="12.334236726164818">
        <ele>2419.7800000000002</ele>
        <time>2015-07-12T12:26:32Z</time>
      </trkpt>
      <trkpt lat="46.631976077333093" lon="12.334291711449623">
        <ele>2416.4099999999999</ele>
        <time>2015-07-12T12:26:41Z</time>
      </trkpt>
      <trkpt lat="46.632030727341771" lon="12.334259692579508">
        <ele>2415.4499999999998</ele>
        <time>2015-07-12T12:26:45Z</time>
      </trkpt>
      <trkpt lat="46.63205704651773" lon="12.334231026470661">
        <ele>2414.9699999999998</ele>
        <time>2015-07-12T12:26:47Z</time>
      </trkpt>
      <trkpt lat="46.632084120064974" lon="12.334157433360815">
        <ele>2414.0100000000002</ele>
        <time>2015-07-12T12:26:53Z</time>
      </trkpt>
      <trkpt lat="46.632130974903703" lon="12.334058526903391">
        <ele>2412.0900000000001</ele>
        <time>2015-07-12T12:27:04Z</time>
      </trkpt>
      <trkpt lat="46.632171710953116" lon="12.333978479728103">
        <ele>2410.1599999999999</ele>
        <time>2015-07-12T12:27:15Z</time>
      </trkpt>
      <trkpt lat="46.632209429517388" lon="12.333982000127435">
        <ele>2408.7199999999998</ele>
        <time>2015-07-12T12:27:22Z</time>
      </trkpt>
      <trkpt lat="46.632281597703695" lon="12.333863731473684">
        <ele>2406.3200000000002</ele>
        <time>2015-07-12T12:27:32Z</time>
      </trkpt>
      <trkpt lat="46.632324177771807" lon="12.333789383992553">
        <ele>2405.3600000000001</ele>
        <time>2015-07-12T12:27:41Z</time>
      </trkpt>
      <trkpt lat="46.632349072024226" lon="12.333707408979535">
        <ele>2403.9099999999999</ele>
        <time>2015-07-12T12:27:51Z</time>
      </trkpt>
      <trkpt lat="46.632300708442926" lon="12.333711348474026">
        <ele>2402.4699999999998</ele>
        <time>2015-07-12T12:28:02Z</time>
      </trkpt>
      <trkpt lat="46.632307078689337" lon="12.333674719557166">
        <ele>2401.0300000000002</ele>
        <time>2015-07-12T12:28:11Z</time>
      </trkpt>
      <trkpt lat="46.632328033447266" lon="12.333648903295398">
        <ele>2400.0700000000002</ele>
        <time>2015-07-12T12:28:13Z</time>
      </trkpt>
      <trkpt lat="46.632379665970802" lon="12.333537759259343">
        <ele>2397.6700000000001</ele>
        <time>2015-07-12T12:28:23Z</time>
      </trkpt>
      <trkpt lat="46.632401794195175" lon="12.333507835865021">
        <ele>2397.6700000000001</ele>
        <time>2015-07-12T12:28:26Z</time>
      </trkpt>
      <trkpt lat="46.632497347891331" lon="12.333406833931804">
        <ele>2395.2600000000002</ele>
        <time>2015-07-12T12:28:38Z</time>
      </trkpt>
      <trkpt lat="46.632588794454932" lon="12.333313710987568">
        <ele>2394.7800000000002</ele>
        <time>2015-07-12T12:28:50Z</time>
      </trkpt>
      <trkpt lat="46.632634475827217" lon="12.333259982988238">
        <ele>2393.3400000000001</ele>
        <time>2015-07-12T12:29:01Z</time>
      </trkpt>
      <trkpt lat="46.632646210491657" lon="12.333196615800261">
        <ele>2391.4200000000001</ele>
        <time>2015-07-12T12:29:11Z</time>
      </trkpt>
      <trkpt lat="46.632611257955432" lon="12.333156047388911">
        <ele>2390.46</ele>
        <time>2015-07-12T12:29:24Z</time>
      </trkpt>
      <trkpt lat="46.632586866617203" lon="12.333079436793923">
        <ele>2388.0500000000002</ele>
        <time>2015-07-12T12:29:35Z</time>
      </trkpt>
      <trkpt lat="46.632585022598505" lon="12.333064181730151">
        <ele>2387.5700000000002</ele>
        <time>2015-07-12T12:29:49Z</time>
      </trkpt>
      <trkpt lat="46.632569935172796" lon="12.332997545599937">
        <ele>2386.6100000000001</ele>
        <time>2015-07-12T12:30:04Z</time>
      </trkpt>
      <trkpt lat="46.632569767534733" lon="12.332902159541845">
        <ele>2384.6900000000001</ele>
        <time>2015-07-12T12:30:15Z</time>
      </trkpt>
      <trkpt lat="46.632577730342746" lon="12.332803504541516">
        <ele>2382.7600000000002</ele>
        <time>2015-07-12T12:30:26Z</time>
      </trkpt>
      <trkpt lat="46.632583178579807" lon="12.33278900384903">
        <ele>2382.2800000000002</ele>
        <time>2015-07-12T12:30:27Z</time>
      </trkpt>
      <trkpt lat="46.63255887106061" lon="12.332696048542857">
        <ele>2379.8800000000001</ele>
        <time>2015-07-12T12:30:38Z</time>
      </trkpt>
      <trkpt lat="46.63256574422121" lon="12.332616671919823">
        <ele>2377.96</ele>
        <time>2015-07-12T12:30:44Z</time>
      </trkpt>
      <trkpt lat="46.632557446137071" lon="12.332563027739525">
        <ele>2377.96</ele>
        <time>2015-07-12T12:30:47Z</time>
      </trkpt>
      <trkpt lat="46.632556021213531" lon="12.332465462386608">
        <ele>2377.48</ele>
        <time>2015-07-12T12:30:52Z</time>
      </trkpt>
      <trkpt lat="46.63258577696979" lon="12.332397736608982">
        <ele>2376.04</ele>
        <time>2015-07-12T12:30:56Z</time>
      </trkpt>
      <trkpt lat="46.632658196613193" lon="12.332240492105484">
        <ele>2373.1500000000001</ele>
        <time>2015-07-12T12:31:10Z</time>
      </trkpt>
      <trkpt lat="46.632690466940403" lon="12.332159439101815">
        <ele>2370.75</ele>
        <time>2015-07-12T12:31:19Z</time>
      </trkpt>
      <trkpt lat="46.632725251838565" lon="12.332018874585629">
        <ele>2367.3800000000001</ele>
        <time>2015-07-12T12:31:27Z</time>
      </trkpt>
      <trkpt lat="46.632727682590485" lon="12.332005631178617">
        <ele>2366.9000000000001</ele>
        <time>2015-07-12T12:31:28Z</time>
      </trkpt>
      <trkpt lat="46.632700022310019" lon="12.331833885982633">
        <ele>2363.54</ele>
        <time>2015-07-12T12:31:41Z</time>
      </trkpt>
      <trkpt lat="46.632706895470619" lon="12.331746965646744">
        <ele>2363.0599999999999</ele>
        <time>2015-07-12T12:31:50Z</time>
      </trkpt>
      <trkpt lat="46.632708655670285" lon="12.331726597622037">
        <ele>2363.54</ele>
        <time>2015-07-12T12:32:00Z</time>
      </trkpt>
      <trkpt lat="46.632662555202842" lon="12.331721065565944">
        <ele>2364.02</ele>
        <time>2015-07-12T12:32:11Z</time>
      </trkpt>
      <trkpt lat="46.632681917399168" lon="12.331641186028719">
        <ele>2364.02</ele>
        <time>2015-07-12T12:32:22Z</time>
      </trkpt>
      <trkpt lat="46.632682168856263" lon="12.33162852935493">
        <ele>2364.02</ele>
        <time>2015-07-12T12:32:23Z</time>
      </trkpt>
      <trkpt lat="46.632684264332056" lon="12.331562228500843">
        <ele>2364.02</ele>
        <time>2015-07-12T12:32:27Z</time>
      </trkpt>
      <trkpt lat="46.632713517174125" lon="12.331442115828395">
        <ele>2364.02</ele>
        <time>2015-07-12T12:32:34Z</time>
      </trkpt>
      <trkpt lat="46.632746206596494" lon="12.331296857446432">
        <ele>2364.5</ele>
        <time>2015-07-12T12:32:44Z</time>
      </trkpt>
      <trkpt lat="46.632753498852253" lon="12.331246649846435">
        <ele>2364.98</ele>
        <time>2015-07-12T12:32:48Z</time>
      </trkpt>
      <trkpt lat="46.632753917947412" lon="12.331193508580327">
        <ele>2364.98</ele>
        <time>2015-07-12T12:32:51Z</time>
      </trkpt>
      <trkpt lat="46.632738579064608" lon="12.331122765317559">
        <ele>2364.98</ele>
        <time>2015-07-12T12:32:57Z</time>
      </trkpt>
      <trkpt lat="46.632736818864942" lon="12.331054117530584">
        <ele>2364.5</ele>
        <time>2015-07-12T12:33:01Z</time>
      </trkpt>
      <trkpt lat="46.632683929055929" lon="12.330859657377005">
        <ele>2363.54</ele>
        <time>2015-07-12T12:33:12Z</time>
      </trkpt>
      <trkpt lat="46.632665321230888" lon="12.330774078145623">
        <ele>2362.5799999999999</ele>
        <time>2015-07-12T12:33:17Z</time>
      </trkpt>
      <trkpt lat="46.632609833031893" lon="12.330609122291207">
        <ele>2361.6199999999999</ele>
        <time>2015-07-12T12:33:30Z</time>
      </trkpt>
      <trkpt lat="46.632557781413198" lon="12.330444334074855">
        <ele>2360.1700000000001</ele>
        <time>2015-07-12T12:33:42Z</time>
      </trkpt>
      <trkpt lat="46.632506065070629" lon="12.330244928598404">
        <ele>2359.21</ele>
        <time>2015-07-12T12:33:54Z</time>
      </trkpt>
      <trkpt lat="46.632445631548762" lon="12.330071339383721">
        <ele>2358.73</ele>
        <time>2015-07-12T12:34:04Z</time>
      </trkpt>
      <trkpt lat="46.632418222725391" lon="12.329910909757018">
        <ele>2358.25</ele>
        <time>2015-07-12T12:34:13Z</time>
      </trkpt>
      <trkpt lat="46.632354520261288" lon="12.329720221459866">
        <ele>2356.8099999999999</ele>
        <time>2015-07-12T12:34:24Z</time>
      </trkpt>
      <trkpt lat="46.632299618795514" lon="12.329478319734335">
        <ele>2357.77</ele>
        <time>2015-07-12T12:34:39Z</time>
      </trkpt>
      <trkpt lat="46.632252177223563" lon="12.329389220103621">
        <ele>2357.29</ele>
        <time>2015-07-12T12:34:49Z</time>
      </trkpt>
      <trkpt lat="46.632219739258289" lon="12.329198867082596">
        <ele>2355.8499999999999</ele>
        <time>2015-07-12T12:35:00Z</time>
      </trkpt>
      <trkpt lat="46.63218654692173" lon="12.329009352251887">
        <ele>2355.3699999999999</ele>
        <time>2015-07-12T12:35:11Z</time>
      </trkpt>
      <trkpt lat="46.632180344313383" lon="12.328943470492959">
        <ele>2354.4099999999999</ele>
        <time>2015-07-12T12:35:16Z</time>
      </trkpt>
      <trkpt lat="46.632168190553784" lon="12.328868955373764">
        <ele>2354.4099999999999</ele>
        <time>2015-07-12T12:35:20Z</time>
      </trkpt>
      <trkpt lat="46.632115468382835" lon="12.328776335343719">
        <ele>2353.9299999999998</ele>
        <time>2015-07-12T12:35:27Z</time>
      </trkpt>
      <trkpt lat="46.632090741768479" lon="12.328669717535377">
        <ele>2354.8899999999999</ele>
        <time>2015-07-12T12:35:33Z</time>
      </trkpt>
      <trkpt lat="46.632083533331752" lon="12.32862638309598">
        <ele>2354.8899999999999</ele>
        <time>2015-07-12T12:35:36Z</time>
      </trkpt>
      <trkpt lat="46.632056711241603" lon="12.32842018827796">
        <ele>2354.4099999999999</ele>
        <time>2015-07-12T12:35:49Z</time>
      </trkpt>
      <trkpt lat="46.632002145051956" lon="12.32821449637413">
        <ele>2353.4400000000001</ele>
        <time>2015-07-12T12:36:01Z</time>
      </trkpt>
      <trkpt lat="46.631943723186851" lon="12.328032189980149">
        <ele>2352</ele>
        <time>2015-07-12T12:36:12Z</time>
      </trkpt>
      <trkpt lat="46.631918242201209" lon="12.327993800863624">
        <ele>2352</ele>
        <time>2015-07-12T12:36:15Z</time>
      </trkpt>
      <trkpt lat="46.631910698488355" lon="12.32793940231204">
        <ele>2352.48</ele>
        <time>2015-07-12T12:36:28Z</time>
      </trkpt>
      <trkpt lat="46.631868621334434" lon="12.32772440649569">
        <ele>2351.52</ele>
        <time>2015-07-12T12:36:40Z</time>
      </trkpt>
      <trkpt lat="46.63181028328836" lon="12.327494909986854">
        <ele>2350.0799999999999</ele>
        <time>2015-07-12T12:36:53Z</time>
      </trkpt>
      <trkpt lat="46.631810870021582" lon="12.327478229999542">
        <ele>2350.0799999999999</ele>
        <time>2015-07-12T12:36:54Z</time>
      </trkpt>
      <trkpt lat="46.631821431219578" lon="12.327320901677012">
        <ele>2350.0799999999999</ele>
        <time>2015-07-12T12:37:07Z</time>
      </trkpt>
      <trkpt lat="46.631811708211899" lon="12.327264826744795">
        <ele>2351.52</ele>
        <time>2015-07-12T12:37:20Z</time>
      </trkpt>
      <trkpt lat="46.631821347400546" lon="12.327248398214579">
        <ele>2351.52</ele>
        <time>2015-07-12T12:37:21Z</time>
      </trkpt>
      <trkpt lat="46.631872057914734" lon="12.327151000499725">
        <ele>2352.48</ele>
        <time>2015-07-12T12:37:30Z</time>
      </trkpt>
      <trkpt lat="46.631871135905385" lon="12.327145468443632">
        <ele>2352</ele>
        <time>2015-07-12T12:37:31Z</time>
      </trkpt>
      <trkpt lat="46.631829310208559" lon="12.327003814280033">
        <ele>2352</ele>
        <time>2015-07-12T12:37:40Z</time>
      </trkpt>
      <trkpt lat="46.631764601916075" lon="12.326929047703743">
        <ele>2351.04</ele>
        <time>2015-07-12T12:37:49Z</time>
      </trkpt>
      <trkpt lat="46.631742222234607" lon="12.326839528977871">
        <ele>2352.48</ele>
        <time>2015-07-12T12:37:56Z</time>
      </trkpt>
      <trkpt lat="46.631669886410236" lon="12.326705669984221">
        <ele>2352.48</ele>
        <time>2015-07-12T12:38:07Z</time>
      </trkpt>
      <trkpt lat="46.631613727658987" lon="12.326523195952177">
        <ele>2352.48</ele>
        <time>2015-07-12T12:38:18Z</time>
      </trkpt>
      <trkpt lat="46.631548013538122" lon="12.326360167935491">
        <ele>2352.96</ele>
        <time>2015-07-12T12:38:29Z</time>
      </trkpt>
      <trkpt lat="46.631527310237288" lon="12.326256148517132">
        <ele>2354.8899999999999</ele>
        <time>2015-07-12T12:38:35Z</time>
      </trkpt>
      <trkpt lat="46.631519012153149" lon="12.326234858483076">
        <ele>2353.9299999999998</ele>
        <time>2015-07-12T12:38:36Z</time>
      </trkpt>
      <trkpt lat="46.631466960534453" lon="12.326054144650698">
        <ele>2354.4099999999999</ele>
        <time>2015-07-12T12:38:49Z</time>
      </trkpt>
      <trkpt lat="46.631441731005907" lon="12.325893547385931">
        <ele>2355.3699999999999</ele>
        <time>2015-07-12T12:39:00Z</time>
      </trkpt>
      <trkpt lat="46.631437875330448" lon="12.325669666752219">
        <ele>2355.3699999999999</ele>
        <time>2015-07-12T12:39:13Z</time>
      </trkpt>
      <trkpt lat="46.631445502862334" lon="12.325436985120177">
        <ele>2354.4099999999999</ele>
        <time>2015-07-12T12:39:26Z</time>
      </trkpt>
      <trkpt lat="46.631449442356825" lon="12.325403122231364">
        <ele>2354.4099999999999</ele>
        <time>2015-07-12T12:39:30Z</time>
      </trkpt>
      <trkpt lat="46.63146679289639" lon="12.325331624597311">
        <ele>2354.4099999999999</ele>
        <time>2015-07-12T12:39:34Z</time>
      </trkpt>
      <trkpt lat="46.631477018818259" lon="12.325087795034051">
        <ele>2354.4099999999999</ele>
        <time>2015-07-12T12:39:47Z</time>
      </trkpt>
      <trkpt lat="46.631489675492048" lon="12.32496508397162">
        <ele>2354.4099999999999</ele>
        <time>2015-07-12T12:39:54Z</time>
      </trkpt>
      <trkpt lat="46.631501242518425" lon="12.324910936877131">
        <ele>2354.8899999999999</ele>
        <time>2015-07-12T12:39:57Z</time>
      </trkpt>
      <trkpt lat="46.6315215267241" lon="12.324773389846087">
        <ele>2355.3699999999999</ele>
        <time>2015-07-12T12:40:05Z</time>
      </trkpt>
      <trkpt lat="46.631572069600224" lon="12.324566440656781">
        <ele>2354.8899999999999</ele>
        <time>2015-07-12T12:40:17Z</time>
      </trkpt>
      <trkpt lat="46.631620517000556" lon="12.324410285800695">
        <ele>2356.8099999999999</ele>
        <time>2015-07-12T12:40:28Z</time>
      </trkpt>
      <trkpt lat="46.63164951838553" lon="12.324250023812056">
        <ele>2356.8099999999999</ele>
        <time>2015-07-12T12:40:40Z</time>
      </trkpt>
      <trkpt lat="46.631688913330436" lon="12.324080625548959">
        <ele>2357.29</ele>
        <time>2015-07-12T12:40:53Z</time>
      </trkpt>
      <trkpt lat="46.631721183657646" lon="12.323937630280852">
        <ele>2358.73</ele>
        <time>2015-07-12T12:41:04Z</time>
      </trkpt>
      <trkpt lat="46.631793351843953" lon="12.323771920055151">
        <ele>2357.77</ele>
        <time>2015-07-12T12:41:16Z</time>
      </trkpt>
      <trkpt lat="46.631825873628259" lon="12.323531527072191">
        <ele>2356.3299999999999</ele>
        <time>2015-07-12T12:41:30Z</time>
      </trkpt>
      <trkpt lat="46.631844649091363" lon="12.323418455198407">
        <ele>2356.3299999999999</ele>
        <time>2015-07-12T12:41:37Z</time>
      </trkpt>
      <trkpt lat="46.63187624886632" lon="12.32326028868556">
        <ele>2356.3299999999999</ele>
        <time>2015-07-12T12:41:46Z</time>
      </trkpt>
      <trkpt lat="46.631898880004883" lon="12.323212595656514">
        <ele>2356.3299999999999</ele>
        <time>2015-07-12T12:41:50Z</time>
      </trkpt>
      <trkpt lat="46.631904076784849" lon="12.323068091645837">
        <ele>2356.3299999999999</ele>
        <time>2015-07-12T12:41:59Z</time>
      </trkpt>
      <trkpt lat="46.631901226937771" lon="12.32302475720644">
        <ele>2356.3299999999999</ele>
        <time>2015-07-12T12:42:02Z</time>
      </trkpt>
      <trkpt lat="46.631959648802876" lon="12.322847228497267">
        <ele>2357.29</ele>
        <time>2015-07-12T12:42:15Z</time>
      </trkpt>
      <trkpt lat="46.632009604945779" lon="12.32271303422749">
        <ele>2357.29</ele>
        <time>2015-07-12T12:42:26Z</time>
      </trkpt>
      <trkpt lat="46.632061488926411" lon="12.322578504681587">
        <ele>2357.77</ele>
        <time>2015-07-12T12:42:37Z</time>
      </trkpt>
      <trkpt lat="46.632065931335092" lon="12.322546318173409">
        <ele>2357.77</ele>
        <time>2015-07-12T12:42:39Z</time>
      </trkpt>
      <trkpt lat="46.632102811709046" lon="12.322435257956386">
        <ele>2358.25</ele>
        <time>2015-07-12T12:42:49Z</time>
      </trkpt>
      <trkpt lat="46.632152516394854" lon="12.322268709540367">
        <ele>2357.77</ele>
        <time>2015-07-12T12:43:00Z</time>
      </trkpt>
      <trkpt lat="46.632160311564803" lon="12.32222436927259">
        <ele>2357.77</ele>
        <time>2015-07-12T12:43:03Z</time>
      </trkpt>
      <trkpt lat="46.632212111726403" lon="12.322021443396807">
        <ele>2358.73</ele>
        <time>2015-07-12T12:43:15Z</time>
      </trkpt>
      <trkpt lat="46.632275898009539" lon="12.321866042912006">
        <ele>2359.21</ele>
        <time>2015-07-12T12:43:26Z</time>
      </trkpt>
      <trkpt lat="46.632366171106696" lon="12.321752887219191">
        <ele>2359.21</ele>
        <time>2015-07-12T12:43:38Z</time>
      </trkpt>
      <trkpt lat="46.632371870800853" lon="12.321741823107004">
        <ele>2359.21</ele>
        <time>2015-07-12T12:43:39Z</time>
      </trkpt>
      <trkpt lat="46.632420150563121" lon="12.321583572775126">
        <ele>2359.21</ele>
        <time>2015-07-12T12:43:50Z</time>
      </trkpt>
      <trkpt lat="46.632455354556441" lon="12.321524312719703">
        <ele>2359.6900000000001</ele>
        <time>2015-07-12T12:43:55Z</time>
      </trkpt>
      <trkpt lat="46.632495922967792" lon="12.321505872532725">
        <ele>2359.6900000000001</ele>
        <time>2015-07-12T12:44:06Z</time>
      </trkpt>
      <trkpt lat="46.632553758099675" lon="12.321427166461945">
        <ele>2359.21</ele>
        <time>2015-07-12T12:44:16Z</time>
      </trkpt>
      <trkpt lat="46.632692897692323" lon="12.321319626644254">
        <ele>2359.6900000000001</ele>
        <time>2015-07-12T12:44:28Z</time>
      </trkpt>
      <trkpt lat="46.632812088355422" lon="12.321202363818884">
        <ele>2360.6500000000001</ele>
        <time>2015-07-12T12:44:39Z</time>
      </trkpt>
      <trkpt lat="46.632905378937721" lon="12.321128603070974">
        <ele>2358.73</ele>
        <time>2015-07-12T12:44:48Z</time>
      </trkpt>
      <trkpt lat="46.632945192977786" lon="12.32107168994844">
        <ele>2359.6900000000001</ele>
        <time>2015-07-12T12:44:54Z</time>
      </trkpt>
      <trkpt lat="46.633044183254242" lon="12.321024751290679">
        <ele>2360.1700000000001</ele>
        <time>2015-07-12T12:45:05Z</time>
      </trkpt>
      <trkpt lat="46.633169241249561" lon="12.320937411859632">
        <ele>2358.73</ele>
        <time>2015-07-12T12:45:19Z</time>
      </trkpt>
      <trkpt lat="46.633307291194797" lon="12.320842780172825">
        <ele>2357.77</ele>
        <time>2015-07-12T12:45:31Z</time>
      </trkpt>
      <trkpt lat="46.633391864597797" lon="12.320735827088356">
        <ele>2357.29</ele>
        <time>2015-07-12T12:45:43Z</time>
      </trkpt>
      <trkpt lat="46.633391194045544" lon="12.320722918957472">
        <ele>2357.29</ele>
        <time>2015-07-12T12:45:53Z</time>
      </trkpt>
      <trkpt lat="46.633434779942036" lon="12.320661814883351">
        <ele>2358.25</ele>
        <time>2015-07-12T12:46:06Z</time>
      </trkpt>
      <trkpt lat="46.633464535698295" lon="12.32062216848135">
        <ele>2358.73</ele>
        <time>2015-07-12T12:46:16Z</time>
      </trkpt>
      <trkpt lat="46.63345992565155" lon="12.320622000843287">
        <ele>2358.73</ele>
        <time>2015-07-12T12:46:35Z</time>
      </trkpt>
      <trkpt lat="46.633459758013487" lon="12.320616636425257">
        <ele>2358.73</ele>
        <time>2015-07-12T12:46:50Z</time>
      </trkpt>
      <trkpt lat="46.633469983935356" lon="12.320618564262986">
        <ele>2358.25</ele>
        <time>2015-07-12T12:47:03Z</time>
      </trkpt>
      <trkpt lat="46.633476689457893" lon="12.320642033591866">
        <ele>2358.25</ele>
        <time>2015-07-12T12:47:15Z</time>
      </trkpt>
      <trkpt lat="46.633471995592117" lon="12.320643123239279">
        <ele>2358.25</ele>
        <time>2015-07-12T12:47:30Z</time>
      </trkpt>
      <trkpt lat="46.633469983935356" lon="12.320621497929096">
        <ele>2358.25</ele>
        <time>2015-07-12T12:47:46Z</time>
      </trkpt>
      <trkpt lat="46.633459506556392" lon="12.320628203451633">
        <ele>2358.25</ele>
        <time>2015-07-12T12:48:01Z</time>
      </trkpt>
      <trkpt lat="46.633456740528345" lon="12.320603644475341">
        <ele>2358.73</ele>
        <time>2015-07-12T12:48:12Z</time>
      </trkpt>
      <trkpt lat="46.633460093289614" lon="12.320602806285024">
        <ele>2358.73</ele>
        <time>2015-07-12T12:48:29Z</time>
      </trkpt>
      <trkpt lat="46.633506193757057" lon="12.320567350834608">
        <ele>2358.25</ele>
        <time>2015-07-12T12:48:34Z</time>
      </trkpt>
      <trkpt lat="46.633517425507307" lon="12.320489399135113">
        <ele>2357.77</ele>
        <time>2015-07-12T12:48:39Z</time>
      </trkpt>
      <trkpt lat="46.633633263409138" lon="12.320351181551814">
        <ele>2358.25</ele>
        <time>2015-07-12T12:48:52Z</time>
      </trkpt>
      <trkpt lat="46.633696127682924" lon="12.320215813815594">
        <ele>2358.25</ele>
        <time>2015-07-12T12:49:03Z</time>
      </trkpt>
      <trkpt lat="46.633726637810469" lon="12.320167617872357">
        <ele>2357.77</ele>
        <time>2015-07-12T12:49:15Z</time>
      </trkpt>
      <trkpt lat="46.633772235363722" lon="12.32004314661026">
        <ele>2357.77</ele>
        <time>2015-07-12T12:49:25Z</time>
      </trkpt>
      <trkpt lat="46.633855886757374" lon="12.319798646494746">
        <ele>2356.3299999999999</ele>
        <time>2015-07-12T12:49:39Z</time>
      </trkpt>
      <trkpt lat="46.633910620585084" lon="12.319591948762536">
        <ele>2355.8499999999999</ele>
        <time>2015-07-12T12:49:51Z</time>
      </trkpt>
      <trkpt lat="46.63393241353333" lon="12.319546267390251">
        <ele>2356.3299999999999</ele>
        <time>2015-07-12T12:49:54Z</time>
      </trkpt>
      <trkpt lat="46.633998630568385" lon="12.319556912407279">
        <ele>2356.3299999999999</ele>
        <time>2015-07-12T12:49:59Z</time>
      </trkpt>
      <trkpt lat="46.634105248376727" lon="12.319645676761866">
        <ele>2356.3299999999999</ele>
        <time>2015-07-12T12:50:11Z</time>
      </trkpt>
      <trkpt lat="46.634157299995422" lon="12.31966495513916">
        <ele>2356.3299999999999</ele>
        <time>2015-07-12T12:50:22Z</time>
      </trkpt>
      <trkpt lat="46.63426467217505" lon="12.319674175232649">
        <ele>2357.77</ele>
        <time>2015-07-12T12:50:36Z</time>
      </trkpt>
      <trkpt lat="46.634332565590739" lon="12.319702757522464">
        <ele>2358.73</ele>
        <time>2015-07-12T12:50:47Z</time>
      </trkpt>
      <trkpt lat="46.634387383237481" lon="12.319760173559189">
        <ele>2360.6500000000001</ele>
        <time>2015-07-12T12:50:58Z</time>
      </trkpt>
      <trkpt lat="46.634473968297243" lon="12.319764280691743">
        <ele>2362.0999999999999</ele>
        <time>2015-07-12T12:51:09Z</time>
      </trkpt>
      <trkpt lat="46.634539514780045" lon="12.319709965959191">
        <ele>2363.54</ele>
        <time>2015-07-12T12:51:21Z</time>
      </trkpt>
      <trkpt lat="46.63459450006485" lon="12.319628661498427">
        <ele>2364.98</ele>
        <time>2015-07-12T12:51:32Z</time>
      </trkpt>
      <trkpt lat="46.634651245549321" lon="12.319591110572219">
        <ele>2365.9400000000001</ele>
        <time>2015-07-12T12:51:43Z</time>
      </trkpt>
      <trkpt lat="46.634669601917267" lon="12.319585997611284">
        <ele>2366.4200000000001</ele>
        <time>2015-07-12T12:51:54Z</time>
      </trkpt>
      <trkpt lat="46.634707488119602" lon="12.31954769231379">
        <ele>2367.3800000000001</ele>
        <time>2015-07-12T12:52:01Z</time>
      </trkpt>
      <trkpt lat="46.634756773710251" lon="12.319489438086748">
        <ele>2368.3499999999999</ele>
        <time>2015-07-12T12:52:09Z</time>
      </trkpt>
      <trkpt lat="46.634788457304239" lon="12.319371420890093">
        <ele>2368.3499999999999</ele>
        <time>2015-07-12T12:52:17Z</time>
      </trkpt>
      <trkpt lat="46.634803377091885" lon="12.319309059530497">
        <ele>2368.3499999999999</ele>
        <time>2015-07-12T12:52:22Z</time>
      </trkpt>
      <trkpt lat="46.634816452860832" lon="12.319285590201616">
        <ele>2368.3499999999999</ele>
        <time>2015-07-12T12:52:24Z</time>
      </trkpt>
      <trkpt lat="46.634842185303569" lon="12.319222223013639">
        <ele>2368.3499999999999</ele>
        <time>2015-07-12T12:52:29Z</time>
      </trkpt>
      <trkpt lat="46.634915778413415" lon="12.319054501131177">
        <ele>2367.8600000000001</ele>
        <time>2015-07-12T12:52:41Z</time>
      </trkpt>
      <trkpt lat="46.634940002113581" lon="12.319028433412313">
        <ele>2369.3099999999999</ele>
        <time>2015-07-12T12:52:44Z</time>
      </trkpt>
      <trkpt lat="46.635074783116579" lon="12.319113845005631">
        <ele>2367.8600000000001</ele>
        <time>2015-07-12T12:52:57Z</time>
      </trkpt>
      <trkpt lat="46.635097078979015" lon="12.319153072312474">
        <ele>2368.3499999999999</ele>
        <time>2015-07-12T12:53:08Z</time>
      </trkpt>
      <trkpt lat="46.63509875535965" lon="12.319153491407633">
        <ele>2367.8600000000001</ele>
        <time>2015-07-12T12:53:38Z</time>
      </trkpt>
      <trkpt lat="46.635070089250803" lon="12.319122981280088">
        <ele>2368.3499999999999</ele>
        <time>2015-07-12T12:53:46Z</time>
      </trkpt>
      <trkpt lat="46.63504846394062" lon="12.319097500294447">
        <ele>2367.8600000000001</ele>
        <time>2015-07-12T12:53:49Z</time>
      </trkpt>
      <trkpt lat="46.63502792827785" lon="12.319088615477085">
        <ele>2368.3499999999999</ele>
        <time>2015-07-12T12:53:52Z</time>
      </trkpt>
      <trkpt lat="46.634965483099222" lon="12.319031450897455">
        <ele>2367.8600000000001</ele>
        <time>2015-07-12T12:54:00Z</time>
      </trkpt>
      <trkpt lat="46.634964225813746" lon="12.318916618824005">
        <ele>2367.8600000000001</ele>
        <time>2015-07-12T12:54:07Z</time>
      </trkpt>
      <trkpt lat="46.634970093145967" lon="12.318881582468748">
        <ele>2367.8600000000001</ele>
        <time>2015-07-12T12:54:09Z</time>
      </trkpt>
      <trkpt lat="46.634987024590373" lon="12.318687038496137">
        <ele>2366.4200000000001</ele>
        <time>2015-07-12T12:54:22Z</time>
      </trkpt>
      <trkpt lat="46.635003872215748" lon="12.318493416532874">
        <ele>2364.02</ele>
        <time>2015-07-12T12:54:34Z</time>
      </trkpt>
      <trkpt lat="46.635010410100222" lon="12.318479251116514">
        <ele>2364.02</ele>
        <time>2015-07-12T12:54:35Z</time>
      </trkpt>
      <trkpt lat="46.635038405656815" lon="12.318249922245741">
        <ele>2361.1399999999999</ele>
        <time>2015-07-12T12:54:48Z</time>
      </trkpt>
      <trkpt lat="46.635127337649465" lon="12.31805294752121">
        <ele>2359.6900000000001</ele>
        <time>2015-07-12T12:55:02Z</time>
      </trkpt>
      <trkpt lat="46.635137060657144" lon="12.318047918379307">
        <ele>2359.6900000000001</ele>
        <time>2015-07-12T12:55:03Z</time>
      </trkpt>
      <trkpt lat="46.635196069255471" lon="12.317885560914874">
        <ele>2357.77</ele>
        <time>2015-07-12T12:55:14Z</time>
      </trkpt>
      <trkpt lat="46.635192381218076" lon="12.317730411887169">
        <ele>2355.8499999999999</ele>
        <time>2015-07-12T12:55:24Z</time>
      </trkpt>
      <trkpt lat="46.635153573006392" lon="12.317540477961302">
        <ele>2354.8899999999999</ele>
        <time>2015-07-12T12:55:35Z</time>
      </trkpt>
      <trkpt lat="46.635143430903554" lon="12.317478870972991">
        <ele>2355.3699999999999</ele>
        <time>2015-07-12T12:55:39Z</time>
      </trkpt>
      <trkpt lat="46.635136138647795" lon="12.317388681694865">
        <ele>2354.4099999999999</ele>
        <time>2015-07-12T12:55:44Z</time>
      </trkpt>
      <trkpt lat="46.635106801986694" lon="12.317191623151302">
        <ele>2353.4400000000001</ele>
        <time>2015-07-12T12:55:55Z</time>
      </trkpt>
      <trkpt lat="46.635084925219417" lon="12.317086262628436">
        <ele>2353.9299999999998</ele>
        <time>2015-07-12T12:56:02Z</time>
      </trkpt>
      <trkpt lat="46.635087858885527" lon="12.316963467746973">
        <ele>2353.4400000000001</ele>
        <time>2015-07-12T12:56:09Z</time>
      </trkpt>
      <trkpt lat="46.635075956583023" lon="12.316713435575366">
        <ele>2354.4099999999999</ele>
        <time>2015-07-12T12:56:24Z</time>
      </trkpt>
      <trkpt lat="46.635074447840452" lon="12.316697677597404">
        <ele>2354.4099999999999</ele>
        <time>2015-07-12T12:56:25Z</time>
      </trkpt>
      <trkpt lat="46.635100012645125" lon="12.316604135558009">
        <ele>2353.9299999999998</ele>
        <time>2015-07-12T12:56:30Z</time>
      </trkpt>
      <trkpt lat="46.635159775614738" lon="12.316338010132313">
        <ele>2352.96</ele>
        <time>2015-07-12T12:56:46Z</time>
      </trkpt>
      <trkpt lat="46.635226160287857" lon="12.316201385110617">
        <ele>2351.52</ele>
        <time>2015-07-12T12:56:55Z</time>
      </trkpt>
      <trkpt lat="46.635250635445118" lon="12.316143969073892">
        <ele>2351.52</ele>
        <time>2015-07-12T12:56:59Z</time>
      </trkpt>
      <trkpt lat="46.635377453640103" lon="12.315945234149694">
        <ele>2350.5599999999999</ele>
        <time>2015-07-12T12:57:13Z</time>
      </trkpt>
      <trkpt lat="46.635439647361636" lon="12.31579209677875">
        <ele>2349.5999999999999</ele>
        <time>2015-07-12T12:57:24Z</time>
      </trkpt>
      <trkpt lat="46.635441407561302" lon="12.315707020461559">
        <ele>2350.5599999999999</ele>
        <time>2015-07-12T12:57:32Z</time>
      </trkpt>
      <trkpt lat="46.635493542999029" lon="12.315544998273253">
        <ele>2350.0799999999999</ele>
        <time>2015-07-12T12:57:43Z</time>
      </trkpt>
      <trkpt lat="46.635553138330579" lon="12.315432094037533">
        <ele>2351.52</ele>
        <time>2015-07-12T12:57:55Z</time>
      </trkpt>
      <trkpt lat="46.63557861931622" lon="12.315445505082607">
        <ele>2351.52</ele>
        <time>2015-07-12T12:58:05Z</time>
      </trkpt>
      <trkpt lat="46.635557999834418" lon="12.315414492040873">
        <ele>2352</ele>
        <time>2015-07-12T12:58:10Z</time>
      </trkpt>
      <trkpt lat="46.635566046461463" lon="12.315289350226521">
        <ele>2352.48</ele>
        <time>2015-07-12T12:58:20Z</time>
      </trkpt>
      <trkpt lat="46.635586079210043" lon="12.31525020673871">
        <ele>2353.4400000000001</ele>
        <time>2015-07-12T12:58:25Z</time>
      </trkpt>
      <trkpt lat="46.63561038672924" lon="12.315167393535376">
        <ele>2354.4099999999999</ele>
        <time>2015-07-12T12:58:32Z</time>
      </trkpt>
      <trkpt lat="46.635629497468472" lon="12.315121460705996">
        <ele>2354.4099999999999</ele>
        <time>2015-07-12T12:58:35Z</time>
      </trkpt>
      <trkpt lat="46.635662103071809" lon="12.315029427409172">
        <ele>2354.4099999999999</ele>
        <time>2015-07-12T12:58:46Z</time>
      </trkpt>
      <trkpt lat="46.635693199932575" lon="12.314960779622197">
        <ele>2354.4099999999999</ele>
        <time>2015-07-12T12:58:57Z</time>
      </trkpt>
      <trkpt lat="46.635742485523224" lon="12.31482457369566">
        <ele>2353.9299999999998</ele>
        <time>2015-07-12T12:59:07Z</time>
      </trkpt>
      <trkpt lat="46.635749861598015" lon="12.314637573435903">
        <ele>2355.3699999999999</ele>
        <time>2015-07-12T12:59:21Z</time>
      </trkpt>
      <trkpt lat="46.635786574333906" lon="12.314405897632241">
        <ele>2357.77</ele>
        <time>2015-07-12T12:59:40Z</time>
      </trkpt>
      <trkpt lat="46.635914565995336" lon="12.314302632585168">
        <ele>2360.1700000000001</ele>
        <time>2015-07-12T12:59:57Z</time>
      </trkpt>
      <trkpt lat="46.635959157720208" lon="12.314196769148111">
        <ele>2362.0999999999999</ele>
        <time>2015-07-12T13:00:09Z</time>
      </trkpt>
      <trkpt lat="46.635993774980307" lon="12.314144214615226">
        <ele>2363.0599999999999</ele>
        <time>2015-07-12T13:00:22Z</time>
      </trkpt>
      <trkpt lat="46.63602034561336" lon="12.31409945525229">
        <ele>2363.54</ele>
        <time>2015-07-12T13:00:32Z</time>
      </trkpt>
      <trkpt lat="46.636056723073125" lon="12.31403692625463">
        <ele>2364.02</ele>
        <time>2015-07-12T13:00:46Z</time>
      </trkpt>
      <trkpt lat="46.636079773306847" lon="12.313931817188859">
        <ele>2365.46</ele>
        <time>2015-07-12T13:00:57Z</time>
      </trkpt>
      <trkpt lat="46.6360994707793" lon="12.313828803598881">
        <ele>2366.4200000000001</ele>
        <time>2015-07-12T13:01:07Z</time>
      </trkpt>
      <trkpt lat="46.636133417487144" lon="12.313717324286699">
        <ele>2367.8600000000001</ele>
        <time>2015-07-12T13:01:18Z</time>
      </trkpt>
      <trkpt lat="46.63619720377028" lon="12.313643898814917">
        <ele>2369.79</ele>
        <time>2015-07-12T13:01:30Z</time>
      </trkpt>
      <trkpt lat="46.636230396106839" lon="12.313574999570847">
        <ele>2371.71</ele>
        <time>2015-07-12T13:01:41Z</time>
      </trkpt>
      <trkpt lat="46.63627197034657" lon="12.313514817506075">
        <ele>2372.6700000000001</ele>
        <time>2015-07-12T13:01:52Z</time>
      </trkpt>
      <trkpt lat="46.636321004480124" lon="12.313495622947812">
        <ele>2374.1100000000001</ele>
        <time>2015-07-12T13:02:03Z</time>
      </trkpt>
      <trkpt lat="46.636349586769938" lon="12.31346033513546">
        <ele>2374.5900000000001</ele>
        <time>2015-07-12T13:02:22Z</time>
      </trkpt>
      <trkpt lat="46.636383617296815" lon="12.313356231898069">
        <ele>2377</ele>
        <time>2015-07-12T13:02:37Z</time>
      </trkpt>
      <trkpt lat="46.636437512934208" lon="12.31326637789607">
        <ele>2378.9200000000001</ele>
        <time>2015-07-12T13:02:49Z</time>
      </trkpt>
      <trkpt lat="46.636506244540215" lon="12.313142409548163">
        <ele>2380.8400000000001</ele>
        <time>2015-07-12T13:03:04Z</time>
      </trkpt>
      <trkpt lat="46.636531641706824" lon="12.31307971291244">
        <ele>2381.8000000000002</ele>
        <time>2015-07-12T13:03:14Z</time>
      </trkpt>
      <trkpt lat="46.636586794629693" lon="12.312972843647003">
        <ele>2382.7600000000002</ele>
        <time>2015-07-12T13:03:25Z</time>
      </trkpt>
      <trkpt lat="46.636603139340878" lon="12.312952140346169">
        <ele>2384.21</ele>
        <time>2015-07-12T13:03:29Z</time>
      </trkpt>
      <trkpt lat="46.636636080220342" lon="12.312839152291417">
        <ele>2385.6500000000001</ele>
        <time>2015-07-12T13:03:42Z</time>
      </trkpt>
      <trkpt lat="46.636645635589957" lon="12.312724655494094">
        <ele>2387.0900000000001</ele>
        <time>2015-07-12T13:03:53Z</time>
      </trkpt>
      <trkpt lat="46.636651251465082" lon="12.312644356861711">
        <ele>2388.0500000000002</ele>
        <time>2015-07-12T13:04:01Z</time>
      </trkpt>
      <trkpt lat="46.636679582297802" lon="12.312543103471398">
        <ele>2389.0100000000002</ele>
        <time>2015-07-12T13:04:12Z</time>
      </trkpt>
      <trkpt lat="46.636688802391291" lon="12.312462218105793">
        <ele>2389.9699999999998</ele>
        <time>2015-07-12T13:04:22Z</time>
      </trkpt>
      <trkpt lat="46.636698860675097" lon="12.312375213950872">
        <ele>2391.4200000000001</ele>
        <time>2015-07-12T13:04:34Z</time>
      </trkpt>
      <trkpt lat="46.636729203164577" lon="12.312272619456053">
        <ele>2392.8600000000001</ele>
        <time>2015-07-12T13:04:45Z</time>
      </trkpt>
      <trkpt lat="46.636742698028684" lon="12.312176311388612">
        <ele>2393.8200000000002</ele>
        <time>2015-07-12T13:04:55Z</time>
      </trkpt>
      <trkpt lat="46.63675275631249" lon="12.312054857611656">
        <ele>2395.2600000000002</ele>
        <time>2015-07-12T13:05:08Z</time>
      </trkpt>
      <trkpt lat="46.636785948649049" lon="12.312042536213994">
        <ele>2396.2199999999998</ele>
        <time>2015-07-12T13:05:18Z</time>
      </trkpt>
      <trkpt lat="46.636798521503806" lon="12.311998195946217">
        <ele>2396.6999999999998</ele>
        <time>2015-07-12T13:05:31Z</time>
      </trkpt>
      <trkpt lat="46.636801371350884" lon="12.311899624764919">
        <ele>2397.6700000000001</ele>
        <time>2015-07-12T13:05:41Z</time>
      </trkpt>
      <trkpt lat="46.636831713840365" lon="12.311770543456078">
        <ele>2399.5900000000001</ele>
        <time>2015-07-12T13:05:53Z</time>
      </trkpt>
      <trkpt lat="46.636861972510815" lon="12.311644311994314">
        <ele>2401.5100000000002</ele>
        <time>2015-07-12T13:06:05Z</time>
      </trkpt>
      <trkpt lat="46.636903462931514" lon="12.311551524326205">
        <ele>2403.4299999999998</ele>
        <time>2015-07-12T13:06:16Z</time>
      </trkpt>
      <trkpt lat="46.636933805420995" lon="12.311439961194992">
        <ele>2405.3600000000001</ele>
        <time>2015-07-12T13:06:28Z</time>
      </trkpt>
      <trkpt lat="46.636977810412645" lon="12.311343150213361">
        <ele>2407.2800000000002</ele>
        <time>2015-07-12T13:06:40Z</time>
      </trkpt>
      <trkpt lat="46.637023659422994" lon="12.311238627880812">
        <ele>2409.1999999999998</ele>
        <time>2015-07-12T13:06:53Z</time>
      </trkpt>
      <trkpt lat="46.637008404359221" lon="12.311179954558611">
        <ele>2410.6399999999999</ele>
        <time>2015-07-12T13:07:01Z</time>
      </trkpt>
      <trkpt lat="46.636956436559558" lon="12.311132345348597">
        <ele>2410.6399999999999</ele>
        <time>2015-07-12T13:07:12Z</time>
      </trkpt>
      <trkpt lat="46.636899188160896" lon="12.311105355620384">
        <ele>2410.6399999999999</ele>
        <time>2015-07-12T13:07:22Z</time>
      </trkpt>
      <trkpt lat="46.636858703568578" lon="12.311078701168299">
        <ele>2410.6399999999999</ele>
        <time>2015-07-12T13:07:27Z</time>
      </trkpt>
      <trkpt lat="46.636815955862403" lon="12.310985326766968">
        <ele>2412.0900000000001</ele>
        <time>2015-07-12T13:07:38Z</time>
      </trkpt>
      <trkpt lat="46.636818386614323" lon="12.310965629294515">
        <ele>2411.5999999999999</ele>
        <time>2015-07-12T13:07:45Z</time>
      </trkpt>
      <trkpt lat="46.636818973347545" lon="12.310966551303864">
        <ele>2412.5700000000002</ele>
        <time>2015-07-12T13:07:54Z</time>
      </trkpt>
      <trkpt lat="46.636845543980598" lon="12.310959007591009">
        <ele>2412.5700000000002</ele>
        <time>2015-07-12T13:08:24Z</time>
      </trkpt>
      <trkpt lat="46.636845292523503" lon="12.310953559353948">
        <ele>2414.0100000000002</ele>
        <time>2015-07-12T13:08:53Z</time>
      </trkpt>
      <trkpt lat="46.636811261996627" lon="12.310976777225733">
        <ele>2412.0900000000001</ele>
        <time>2015-07-12T13:09:18Z</time>
      </trkpt>
      <trkpt lat="46.636813692748547" lon="12.310956744477153">
        <ele>2412.0900000000001</ele>
        <time>2015-07-12T13:09:50Z</time>
      </trkpt>
      <trkpt lat="46.63683095946908" lon="12.310975017026067">
        <ele>2412.0900000000001</ele>
        <time>2015-07-12T13:10:20Z</time>
      </trkpt>
      <trkpt lat="46.636787625029683" lon="12.310973340645432">
        <ele>2411.5999999999999</ele>
        <time>2015-07-12T13:10:48Z</time>
      </trkpt>
      <trkpt lat="46.636799275875092" lon="12.310951547697186">
        <ele>2411.5999999999999</ele>
        <time>2015-07-12T13:11:10Z</time>
      </trkpt>
      <trkpt lat="46.636801203712821" lon="12.310991026461124">
        <ele>2411.5999999999999</ele>
        <time>2015-07-12T13:11:32Z</time>
      </trkpt>
      <trkpt lat="46.636811094358563" lon="12.310951463878155">
        <ele>2411.5999999999999</ele>
        <time>2015-07-12T13:11:54Z</time>
      </trkpt>
      <trkpt lat="46.636786116287112" lon="12.310958253219724">
        <ele>2412.0900000000001</ele>
        <time>2015-07-12T13:12:14Z</time>
      </trkpt>
      <trkpt lat="46.636786200106144" lon="12.310935873538256">
        <ele>2411.5999999999999</ele>
        <time>2015-07-12T13:12:42Z</time>
      </trkpt>
      <trkpt lat="46.636803215369582" lon="12.310940148308873">
        <ele>2412.0900000000001</ele>
        <time>2015-07-12T13:13:13Z</time>
      </trkpt>
      <trkpt lat="46.636795252561569" lon="12.310958001762629">
        <ele>2412.0900000000001</ele>
        <time>2015-07-12T13:13:33Z</time>
      </trkpt>
      <trkpt lat="46.636787708848715" lon="12.310976274311543">
        <ele>2411.5999999999999</ele>
        <time>2015-07-12T13:14:06Z</time>
      </trkpt>
      <trkpt lat="46.636782847344875" lon="12.310974765568972">
        <ele>2411.5999999999999</ele>
        <time>2015-07-12T13:14:13Z</time>
      </trkpt>
      <trkpt lat="46.636794665828347" lon="12.310945009812713">
        <ele>2412.0900000000001</ele>
        <time>2015-07-12T13:14:17Z</time>
      </trkpt>
      <trkpt lat="46.636808244511485" lon="12.310909051448107">
        <ele>2412.5700000000002</ele>
        <time>2015-07-12T13:14:19Z</time>
      </trkpt>
      <trkpt lat="46.636833809316158" lon="12.310715680941939">
        <ele>2413.5300000000002</ele>
        <time>2015-07-12T13:14:31Z</time>
      </trkpt>
      <trkpt lat="46.63684168830514" lon="12.31067419052124">
        <ele>2414.0100000000002</ele>
        <time>2015-07-12T13:14:34Z</time>
      </trkpt>
      <trkpt lat="46.636839089915156" lon="12.310542929917574">
        <ele>2414.9699999999998</ele>
        <time>2015-07-12T13:14:45Z</time>
      </trkpt>
      <trkpt lat="46.636866247281432" lon="12.310454500839114">
        <ele>2415.9299999999998</ele>
        <time>2015-07-12T13:14:56Z</time>
      </trkpt>
      <trkpt lat="46.636993233114481" lon="12.310518873855472">
        <ele>2416.4099999999999</ele>
        <time>2015-07-12T13:15:12Z</time>
      </trkpt>
    </trkseg>
  </trk>

  <trk>
    <name>3tappa2015-07-13</name>
    <extensions>
      <gpxx:TrackExtension>
        <gpxx:DisplayColor>Yellow</gpxx:DisplayColor>
      </gpxx:TrackExtension>
      <gpxtrkx:TrackStatsExtension xmlns:gpxtrkx="http://www.garmin.com/xmlschemas/TrackStatsExtension/v1">
        <gpxtrkx:Distance>18371</gpxtrkx:Distance>
        <gpxtrkx:TotalElapsedTime>31454</gpxtrkx:TotalElapsedTime>
        <gpxtrkx:MovingTime>19086</gpxtrkx:MovingTime>
        <gpxtrkx:StoppedTime>12299</gpxtrkx:StoppedTime>
        <gpxtrkx:MovingSpeed>1</gpxtrkx:MovingSpeed>
        <gpxtrkx:MaxSpeed>3</gpxtrkx:MaxSpeed>
        <gpxtrkx:MaxElevation>2467</gpxtrkx:MaxElevation>
        <gpxtrkx:MinElevation>2127</gpxtrkx:MinElevation>
        <gpxtrkx:Ascent>934</gpxtrkx:Ascent>
        <gpxtrkx:Descent>1217</gpxtrkx:Descent>
        <gpxtrkx:AvgAscentRate>0</gpxtrkx:AvgAscentRate>
        <gpxtrkx:MaxAscentRate>0</gpxtrkx:MaxAscentRate>
        <gpxtrkx:AvgDescentRate>0</gpxtrkx:AvgDescentRate>
        <gpxtrkx:MaxDescentRate>-0</gpxtrkx:MaxDescentRate>
      </gpxtrkx:TrackStatsExtension>
    </extensions>
    <trkseg>
      <trkpt lat="46.636785361915827" lon="12.310622474178672">
        <ele>2420.2600000000002</ele>
        <time>2015-07-13T06:00:48Z</time>
      </trkpt>
      <trkpt lat="46.636787038296461" lon="12.310624234378338">
        <ele>2420.2600000000002</ele>
        <time>2015-07-13T06:00:49Z</time>
      </trkpt>
      <trkpt lat="46.636796677485108" lon="12.310624234378338">
        <ele>2415.4499999999998</ele>
        <time>2015-07-13T06:00:52Z</time>
      </trkpt>
      <trkpt lat="46.636797431856394" lon="12.310621635988355">
        <ele>2415.4499999999998</ele>
        <time>2015-07-13T06:00:53Z</time>
      </trkpt>
      <trkpt lat="46.636810172349215" lon="12.310574864968657">
        <ele>2415.4499999999998</ele>
        <time>2015-07-13T06:01:12Z</time>
      </trkpt>
      <trkpt lat="46.636804053559899" lon="12.310575200244784">
        <ele>2414.9699999999998</ele>
        <time>2015-07-13T06:01:42Z</time>
      </trkpt>
      <trkpt lat="46.636810088530183" lon="12.310578133910894">
        <ele>2414.9699999999998</ele>
        <time>2015-07-13T06:02:05Z</time>
      </trkpt>
      <trkpt lat="46.636822912842035" lon="12.310581738129258">
        <ele>2414.9699999999998</ele>
        <time>2015-07-13T06:02:21Z</time>
      </trkpt>
      <trkpt lat="46.636801790446043" lon="12.310600010678172">
        <ele>2414.9699999999998</ele>
        <time>2015-07-13T06:02:32Z</time>
      </trkpt>
      <trkpt lat="46.636806819587946" lon="12.310636723414063">
        <ele>2415.4499999999998</ele>
        <time>2015-07-13T06:02:40Z</time>
      </trkpt>
      <trkpt lat="46.636803718283772" lon="12.310626162216067">
        <ele>2415.4499999999998</ele>
        <time>2015-07-13T06:02:42Z</time>
      </trkpt>
      <trkpt lat="46.636829702183604" lon="12.310633705928922">
        <ele>2414.4899999999998</ele>
        <time>2015-07-13T06:02:51Z</time>
      </trkpt>
      <trkpt lat="46.636810507625341" lon="12.310615601018071">
        <ele>2414.4899999999998</ele>
        <time>2015-07-13T06:03:11Z</time>
      </trkpt>
      <trkpt lat="46.636811764910817" lon="12.310640327632427">
        <ele>2415.4499999999998</ele>
        <time>2015-07-13T06:03:23Z</time>
      </trkpt>
      <trkpt lat="46.636808244511485" lon="12.31070495210588">
        <ele>2415.4499999999998</ele>
        <time>2015-07-13T06:03:33Z</time>
      </trkpt>
      <trkpt lat="46.636778069660068" lon="12.31080318801105">
        <ele>2413.0500000000002</ele>
        <time>2015-07-13T06:03:44Z</time>
      </trkpt>
      <trkpt lat="46.636749403551221" lon="12.310895472764969">
        <ele>2412.0900000000001</ele>
        <time>2015-07-13T06:03:53Z</time>
      </trkpt>
      <trkpt lat="46.636700285598636" lon="12.311000162735581">
        <ele>2410.1599999999999</ele>
        <time>2015-07-13T06:04:06Z</time>
      </trkpt>
      <trkpt lat="46.636691736057401" lon="12.311007454991341">
        <ele>2410.6399999999999</ele>
        <time>2015-07-13T06:04:08Z</time>
      </trkpt>
      <trkpt lat="46.636581933125854" lon="12.311138799414039">
        <ele>2408.7199999999998</ele>
        <time>2015-07-13T06:04:21Z</time>
      </trkpt>
      <trkpt lat="46.636554691940546" lon="12.31107191182673">
        <ele>2407.7600000000002</ele>
        <time>2015-07-13T06:04:32Z</time>
      </trkpt>
      <trkpt lat="46.636577155441046" lon="12.311038132756948">
        <ele>2407.2800000000002</ele>
        <time>2015-07-13T06:04:45Z</time>
      </trkpt>
      <trkpt lat="46.636585453525186" lon="12.310996139422059">
        <ele>2406.8000000000002</ele>
        <time>2015-07-13T06:04:48Z</time>
      </trkpt>
      <trkpt lat="46.636587549000978" lon="12.31090921908617">
        <ele>2404.8800000000001</ele>
        <time>2015-07-13T06:04:58Z</time>
      </trkpt>
      <trkpt lat="46.636578999459743" lon="12.31093117967248">
        <ele>2404.3899999999999</ele>
        <time>2015-07-13T06:05:00Z</time>
      </trkpt>
      <trkpt lat="46.636470621451735" lon="12.311019189655781">
        <ele>2401.9899999999998</ele>
        <time>2015-07-13T06:05:11Z</time>
      </trkpt>
      <trkpt lat="46.636368194594979" lon="12.311096470803022">
        <ele>2400.5500000000002</ele>
        <time>2015-07-13T06:05:21Z</time>
      </trkpt>
      <trkpt lat="46.636239867657423" lon="12.311125472187996">
        <ele>2398.6300000000001</ele>
        <time>2015-07-13T06:05:32Z</time>
      </trkpt>
      <trkpt lat="46.636104919016361" lon="12.311102924868464">
        <ele>2398.6300000000001</ele>
        <time>2015-07-13T06:05:44Z</time>
      </trkpt>
      <trkpt lat="46.636064266785979" lon="12.311110887676477">
        <ele>2399.1100000000001</ele>
        <time>2015-07-13T06:05:47Z</time>
      </trkpt>
      <trkpt lat="46.63600861094892" lon="12.311214068904519">
        <ele>2399.1100000000001</ele>
        <time>2015-07-13T06:05:54Z</time>
      </trkpt>
      <trkpt lat="46.635954296216369" lon="12.311257487162948">
        <ele>2398.6300000000001</ele>
        <time>2015-07-13T06:05:59Z</time>
      </trkpt>
      <trkpt lat="46.635809792205691" lon="12.31126494705677">
        <ele>2399.1100000000001</ele>
        <time>2015-07-13T06:06:13Z</time>
      </trkpt>
      <trkpt lat="46.63578087463975" lon="12.311248434707522">
        <ele>2399.1100000000001</ele>
        <time>2015-07-13T06:06:16Z</time>
      </trkpt>
      <trkpt lat="46.635795291513205" lon="12.31115547940135">
        <ele>2399.1100000000001</ele>
        <time>2015-07-13T06:06:20Z</time>
      </trkpt>
      <trkpt lat="46.635794704779983" lon="12.311101835221052">
        <ele>2398.6300000000001</ele>
        <time>2015-07-13T06:06:23Z</time>
      </trkpt>
      <trkpt lat="46.635741228237748" lon="12.311075264587998">
        <ele>2398.1500000000001</ele>
        <time>2015-07-13T06:06:28Z</time>
      </trkpt>
      <trkpt lat="46.635612649843097" lon="12.311070151627064">
        <ele>2396.2199999999998</ele>
        <time>2015-07-13T06:06:40Z</time>
      </trkpt>
      <trkpt lat="46.63558054715395" lon="12.310999827459455">
        <ele>2395.2600000000002</ele>
        <time>2015-07-13T06:06:44Z</time>
      </trkpt>
      <trkpt lat="46.635539056733251" lon="12.310974011197686">
        <ele>2393.8200000000002</ele>
        <time>2015-07-13T06:06:55Z</time>
      </trkpt>
      <trkpt lat="46.635507037863135" lon="12.311036121100187">
        <ele>2392.3800000000001</ele>
        <time>2015-07-13T06:07:01Z</time>
      </trkpt>
      <trkpt lat="46.635419949889183" lon="12.311133183538914">
        <ele>2389.9699999999998</ele>
        <time>2015-07-13T06:07:13Z</time>
      </trkpt>
      <trkpt lat="46.63534551858902" lon="12.311220858246088">
        <ele>2387.5700000000002</ele>
        <time>2015-07-13T06:07:25Z</time>
      </trkpt>
      <trkpt lat="46.635337388142943" lon="12.311099153012037">
        <ele>2385.6500000000001</ele>
        <time>2015-07-13T06:07:34Z</time>
      </trkpt>
      <trkpt lat="46.635295730084181" lon="12.311018435284495">
        <ele>2382.7600000000002</ele>
        <time>2015-07-13T06:07:44Z</time>
      </trkpt>
      <trkpt lat="46.635290449485183" lon="12.31102941557765">
        <ele>2382.7600000000002</ele>
        <time>2015-07-13T06:07:45Z</time>
      </trkpt>
      <trkpt lat="46.635202942416072" lon="12.311146594583988">
        <ele>2380.8400000000001</ele>
        <time>2015-07-13T06:07:56Z</time>
      </trkpt>
      <trkpt lat="46.635192632675171" lon="12.311258828267455">
        <ele>2377.96</ele>
        <time>2015-07-13T06:08:07Z</time>
      </trkpt>
      <trkpt lat="46.635172097012401" lon="12.31128984130919">
        <ele>2377.48</ele>
        <time>2015-07-13T06:08:15Z</time>
      </trkpt>
      <trkpt lat="46.635129516944289" lon="12.31111298315227">
        <ele>2375.0700000000002</ele>
        <time>2015-07-13T06:08:25Z</time>
      </trkpt>
      <trkpt lat="46.635079309344292" lon="12.3111891746521">
        <ele>2372.6700000000001</ele>
        <time>2015-07-13T06:08:35Z</time>
      </trkpt>
      <trkpt lat="46.634966488927603" lon="12.311211135238409">
        <ele>2369.3099999999999</ele>
        <time>2015-07-13T06:08:46Z</time>
      </trkpt>
      <trkpt lat="46.634943941608071" lon="12.311218930408359">
        <ele>2368.8299999999999</ele>
        <time>2015-07-13T06:08:49Z</time>
      </trkpt>
      <trkpt lat="46.634773118421435" lon="12.311387406662107">
        <ele>2367.8600000000001</ele>
        <time>2015-07-13T06:09:06Z</time>
      </trkpt>
      <trkpt lat="46.634700782597065" lon="12.311561834067106">
        <ele>2365.9400000000001</ele>
        <time>2015-07-13T06:09:20Z</time>
      </trkpt>
      <trkpt lat="46.634704805910587" lon="12.311546579003334">
        <ele>2365.9400000000001</ele>
        <time>2015-07-13T06:09:23Z</time>
      </trkpt>
      <trkpt lat="46.634696675464511" lon="12.311559906229377">
        <ele>2365.9400000000001</ele>
        <time>2015-07-13T06:09:25Z</time>
      </trkpt>
      <trkpt lat="46.634576311334968" lon="12.311703404411674">
        <ele>2367.3800000000001</ele>
        <time>2015-07-13T06:09:40Z</time>
      </trkpt>
      <trkpt lat="46.634535994380713" lon="12.311661327257752">
        <ele>2366.9000000000001</ele>
        <time>2015-07-13T06:09:47Z</time>
      </trkpt>
      <trkpt lat="46.634523924440145" lon="12.311682617291808">
        <ele>2366.9000000000001</ele>
        <time>2015-07-13T06:09:49Z</time>
      </trkpt>
      <trkpt lat="46.63435896858573" lon="12.311820331960917">
        <ele>2365.46</ele>
        <time>2015-07-13T06:10:03Z</time>
      </trkpt>
      <trkpt lat="46.634191246703267" lon="12.311927117407322">
        <ele>2363.0599999999999</ele>
        <time>2015-07-13T06:10:17Z</time>
      </trkpt>
      <trkpt lat="46.634170543402433" lon="12.311887219548225">
        <ele>2362.0999999999999</ele>
        <time>2015-07-13T06:10:29Z</time>
      </trkpt>
      <trkpt lat="46.63415034301579" lon="12.311919322237372">
        <ele>2362.5799999999999</ele>
        <time>2015-07-13T06:10:48Z</time>
      </trkpt>
      <trkpt lat="46.634127711877227" lon="12.311907922849059">
        <ele>2362.0999999999999</ele>
        <time>2015-07-13T06:10:55Z</time>
      </trkpt>
      <trkpt lat="46.634114636108279" lon="12.311914628371596">
        <ele>2361.6199999999999</ele>
        <time>2015-07-13T06:11:04Z</time>
      </trkpt>
      <trkpt lat="46.634121425449848" lon="12.311914628371596">
        <ele>2361.1399999999999</ele>
        <time>2015-07-13T06:11:23Z</time>
      </trkpt>
      <trkpt lat="46.634117737412453" lon="12.31191286817193">
        <ele>2361.1399999999999</ele>
        <time>2015-07-13T06:11:47Z</time>
      </trkpt>
      <trkpt lat="46.634124191477895" lon="12.311895685270429">
        <ele>2361.1399999999999</ele>
        <time>2015-07-13T06:12:11Z</time>
      </trkpt>
      <trkpt lat="46.634108517318964" lon="12.311898283660412">
        <ele>2362.0999999999999</ele>
        <time>2015-07-13T06:12:30Z</time>
      </trkpt>
      <trkpt lat="46.634131567552686" lon="12.311906917020679">
        <ele>2361.6199999999999</ele>
        <time>2015-07-13T06:12:42Z</time>
      </trkpt>
      <trkpt lat="46.634131316095591" lon="12.311897361651063">
        <ele>2361.6199999999999</ele>
        <time>2015-07-13T06:13:36Z</time>
      </trkpt>
      <trkpt lat="46.634093262255192" lon="12.311871126294136">
        <ele>2361.6199999999999</ele>
        <time>2015-07-13T06:13:37Z</time>
      </trkpt>
      <trkpt lat="46.634106002748013" lon="12.31192066334188">
        <ele>2360.6500000000001</ele>
        <time>2015-07-13T06:13:56Z</time>
      </trkpt>
      <trkpt lat="46.634130394086242" lon="12.311945222318172">
        <ele>2360.6500000000001</ele>
        <time>2015-07-13T06:14:16Z</time>
      </trkpt>
      <trkpt lat="46.634125700220466" lon="12.311924267560244">
        <ele>2360.6500000000001</ele>
        <time>2015-07-13T06:14:34Z</time>
      </trkpt>
      <trkpt lat="46.634112456813455" lon="12.311898367479444">
        <ele>2360.6500000000001</ele>
        <time>2015-07-13T06:14:56Z</time>
      </trkpt>
      <trkpt lat="46.634106170386076" lon="12.311905827373266">
        <ele>2360.6500000000001</ele>
        <time>2015-07-13T06:15:16Z</time>
      </trkpt>
      <trkpt lat="46.63412787951529" lon="12.311879927292466">
        <ele>2360.6500000000001</ele>
        <time>2015-07-13T06:15:41Z</time>
      </trkpt>
      <trkpt lat="46.63414254784584" lon="12.311878586187959">
        <ele>2360.6500000000001</ele>
        <time>2015-07-13T06:16:09Z</time>
      </trkpt>
      <trkpt lat="46.634160066023469" lon="12.31188353151083">
        <ele>2360.6500000000001</ele>
        <time>2015-07-13T06:16:35Z</time>
      </trkpt>
      <trkpt lat="46.63416258059442" lon="12.311860732734203">
        <ele>2361.1399999999999</ele>
        <time>2015-07-13T06:17:05Z</time>
      </trkpt>
      <trkpt lat="46.634159898385406" lon="12.311892164871097">
        <ele>2361.1399999999999</ele>
        <time>2015-07-13T06:17:30Z</time>
      </trkpt>
      <trkpt lat="46.634173728525639" lon="12.311866348609328">
        <ele>2361.1399999999999</ele>
        <time>2015-07-13T06:17:55Z</time>
      </trkpt>
      <trkpt lat="46.634164592251182" lon="12.311851093545556">
        <ele>2361.1399999999999</ele>
        <time>2015-07-13T06:18:20Z</time>
      </trkpt>
      <trkpt lat="46.634178841486573" lon="12.31186006218195">
        <ele>2361.1399999999999</ele>
        <time>2015-07-13T06:18:43Z</time>
      </trkpt>
      <trkpt lat="46.634171130135655" lon="12.311872718855739">
        <ele>2361.1399999999999</ele>
        <time>2015-07-13T06:19:13Z</time>
      </trkpt>
      <trkpt lat="46.634161239489913" lon="12.31185863725841">
        <ele>2361.6199999999999</ele>
        <time>2015-07-13T06:19:36Z</time>
      </trkpt>
      <trkpt lat="46.634180434048176" lon="12.311864756047726">
        <ele>2361.6199999999999</ele>
        <time>2015-07-13T06:19:58Z</time>
      </trkpt>
      <trkpt lat="46.634165598079562" lon="12.311875401064754">
        <ele>2362.5799999999999</ele>
        <time>2015-07-13T06:20:33Z</time>
      </trkpt>
      <trkpt lat="46.634162161499262" lon="12.311865761876106">
        <ele>2363.0599999999999</ele>
        <time>2015-07-13T06:20:42Z</time>
      </trkpt>
      <trkpt lat="46.63415377959609" lon="12.311889650300145">
        <ele>2363.0599999999999</ele>
        <time>2015-07-13T06:20:51Z</time>
      </trkpt>
      <trkpt lat="46.634092843160033" lon="12.311889817938209">
        <ele>2363.0599999999999</ele>
        <time>2015-07-13T06:21:02Z</time>
      </trkpt>
      <trkpt lat="46.634082365781069" lon="12.311912281438708">
        <ele>2363.0599999999999</ele>
        <time>2015-07-13T06:21:13Z</time>
      </trkpt>
      <trkpt lat="46.634062584489584" lon="12.311902055516839">
        <ele>2363.0599999999999</ele>
        <time>2015-07-13T06:21:20Z</time>
      </trkpt>
      <trkpt lat="46.633976250886917" lon="12.311849081888795">
        <ele>2363.0599999999999</ele>
        <time>2015-07-13T06:21:31Z</time>
      </trkpt>
      <trkpt lat="46.633878350257874" lon="12.311836928129196">
        <ele>2364.02</ele>
        <time>2015-07-13T06:21:45Z</time>
      </trkpt>
      <trkpt lat="46.633908860385418" lon="12.311875568702817">
        <ele>2363.54</ele>
        <time>2015-07-13T06:21:58Z</time>
      </trkpt>
      <trkpt lat="46.633886815980077" lon="12.311848243698478">
        <ele>2363.54</ele>
        <time>2015-07-13T06:22:09Z</time>
      </trkpt>
      <trkpt lat="46.633880781009793" lon="12.311799796298146">
        <ele>2364.5</ele>
        <time>2015-07-13T06:22:22Z</time>
      </trkpt>
      <trkpt lat="46.633906429633498" lon="12.311788396909833">
        <ele>2364.02</ele>
        <time>2015-07-13T06:22:31Z</time>
      </trkpt>
      <trkpt lat="46.633893521502614" lon="12.311811447143555">
        <ele>2364.02</ele>
        <time>2015-07-13T06:22:45Z</time>
      </trkpt>
      <trkpt lat="46.633875668048859" lon="12.311813207343221">
        <ele>2364.5</ele>
        <time>2015-07-13T06:23:01Z</time>
      </trkpt>
      <trkpt lat="46.633737199008465" lon="12.311764508485794">
        <ele>2365.46</ele>
        <time>2015-07-13T06:23:14Z</time>
      </trkpt>
      <trkpt lat="46.633599316701293" lon="12.311714217066765">
        <ele>2366.9000000000001</ele>
        <time>2015-07-13T06:23:28Z</time>
      </trkpt>
      <trkpt lat="46.633564112707973" lon="12.311698794364929">
        <ele>2367.3800000000001</ele>
        <time>2015-07-13T06:23:39Z</time>
      </trkpt>
      <trkpt lat="46.633515581488609" lon="12.311669206246734">
        <ele>2367.8600000000001</ele>
        <time>2015-07-13T06:23:44Z</time>
      </trkpt>
      <trkpt lat="46.633467888459563" lon="12.311646575108171">
        <ele>2368.8299999999999</ele>
        <time>2015-07-13T06:23:49Z</time>
      </trkpt>
      <trkpt lat="46.633389936760068" lon="12.311565186828375">
        <ele>2371.23</ele>
        <time>2015-07-13T06:24:01Z</time>
      </trkpt>
      <trkpt lat="46.633315421640873" lon="12.311507938429713">
        <ele>2372.6700000000001</ele>
        <time>2015-07-13T06:24:12Z</time>
      </trkpt>
      <trkpt lat="46.633187932893634" lon="12.311412887647748">
        <ele>2373.1500000000001</ele>
        <time>2015-07-13T06:24:25Z</time>
      </trkpt>
      <trkpt lat="46.633093552663922" lon="12.311373911798">
        <ele>2374.1100000000001</ele>
        <time>2015-07-13T06:24:36Z</time>
      </trkpt>
      <trkpt lat="46.632975870743394" lon="12.311342898756266">
        <ele>2374.5900000000001</ele>
        <time>2015-07-13T06:24:47Z</time>
      </trkpt>
      <trkpt lat="46.63295273669064" lon="12.311336444690824">
        <ele>2374.5900000000001</ele>
        <time>2015-07-13T06:24:49Z</time>
      </trkpt>
      <trkpt lat="46.632881155237556" lon="12.311320435255766">
        <ele>2375.0700000000002</ele>
        <time>2015-07-13T06:24:55Z</time>
      </trkpt>
      <trkpt lat="46.632793229073286" lon="12.311303671449423">
        <ele>2375.5500000000002</ele>
        <time>2015-07-13T06:25:06Z</time>
      </trkpt>
      <trkpt lat="46.632825499400496" lon="12.311292355880141">
        <ele>2375.5500000000002</ele>
        <time>2015-07-13T06:25:13Z</time>
      </trkpt>
      <trkpt lat="46.632632715627551" lon="12.311253799125552">
        <ele>2375.0700000000002</ele>
        <time>2015-07-13T06:25:27Z</time>
      </trkpt>
      <trkpt lat="46.632499443367124" lon="12.311188168823719">
        <ele>2375.0700000000002</ele>
        <time>2015-07-13T06:25:38Z</time>
      </trkpt>
      <trkpt lat="46.632373631000519" lon="12.31111491099">
        <ele>2376.04</ele>
        <time>2015-07-13T06:25:50Z</time>
      </trkpt>
      <trkpt lat="46.632236335426569" lon="12.311020698398352">
        <ele>2377</ele>
        <time>2015-07-13T06:26:03Z</time>
      </trkpt>
      <trkpt lat="46.63209711201489" lon="12.310932604596019">
        <ele>2378.4400000000001</ele>
        <time>2015-07-13T06:26:17Z</time>
      </trkpt>
      <trkpt lat="46.631900388747454" lon="12.310822969302535">
        <ele>2378.9200000000001</ele>
        <time>2015-07-13T06:26:34Z</time>
      </trkpt>
      <trkpt lat="46.631768122315407" lon="12.310717860236764">
        <ele>2379.4000000000001</ele>
        <time>2015-07-13T06:26:47Z</time>
      </trkpt>
      <trkpt lat="46.631628563627601" lon="12.310658013448119">
        <ele>2381.3200000000002</ele>
        <time>2015-07-13T06:27:00Z</time>
      </trkpt>
      <trkpt lat="46.631610374897718" lon="12.310655079782009">
        <ele>2380.8400000000001</ele>
        <time>2015-07-13T06:27:02Z</time>
      </trkpt>
      <trkpt lat="46.631538206711411" lon="12.310625491663814">
        <ele>2380.8400000000001</ele>
        <time>2015-07-13T06:27:14Z</time>
      </trkpt>
      <trkpt lat="46.631541308015585" lon="12.310612834990025">
        <ele>2381.3200000000002</ele>
        <time>2015-07-13T06:27:25Z</time>
      </trkpt>
      <trkpt lat="46.631477857008576" lon="12.310606045648456">
        <ele>2380.8400000000001</ele>
        <time>2015-07-13T06:27:38Z</time>
      </trkpt>
      <trkpt lat="46.631323713809252" lon="12.310605207458138">
        <ele>2378.9200000000001</ele>
        <time>2015-07-13T06:27:50Z</time>
      </trkpt>
      <trkpt lat="46.631142413243651" lon="12.310627419501543">
        <ele>2378.4400000000001</ele>
        <time>2015-07-13T06:28:04Z</time>
      </trkpt>
      <trkpt lat="46.631001848727465" lon="12.310577044263482">
        <ele>2377</ele>
        <time>2015-07-13T06:28:17Z</time>
      </trkpt>
      <trkpt lat="46.630986761301756" lon="12.310561705380678">
        <ele>2376.52</ele>
        <time>2015-07-13T06:28:31Z</time>
      </trkpt>
      <trkpt lat="46.630880143493414" lon="12.310557346791029">
        <ele>2377</ele>
        <time>2015-07-13T06:28:43Z</time>
      </trkpt>
      <trkpt lat="46.630772687494755" lon="12.310566147789359">
        <ele>2376.52</ele>
        <time>2015-07-13T06:28:55Z</time>
      </trkpt>
      <trkpt lat="46.630751648917794" lon="12.310576792806387">
        <ele>2377</ele>
        <time>2015-07-13T06:29:16Z</time>
      </trkpt>
      <trkpt lat="46.63059457205236" lon="12.310582995414734">
        <ele>2376.04</ele>
        <time>2015-07-13T06:29:29Z</time>
      </trkpt>
      <trkpt lat="46.6304353158921" lon="12.310558771714568">
        <ele>2376.04</ele>
        <time>2015-07-13T06:29:44Z</time>
      </trkpt>
      <trkpt lat="46.630250914022326" lon="12.310615768656135">
        <ele>2375.0700000000002</ele>
        <time>2015-07-13T06:29:59Z</time>
      </trkpt>
      <trkpt lat="46.630078246816993" lon="12.310710232704878">
        <ele>2372.6700000000001</ele>
        <time>2015-07-13T06:30:14Z</time>
      </trkpt>
      <trkpt lat="46.629927372559905" lon="12.310825819149613">
        <ele>2371.71</ele>
        <time>2015-07-13T06:30:29Z</time>
      </trkpt>
      <trkpt lat="46.629776414483786" lon="12.310931934043765">
        <ele>2371.71</ele>
        <time>2015-07-13T06:30:43Z</time>
      </trkpt>
      <trkpt lat="46.629606932401657" lon="12.311024805530906">
        <ele>2371.71</ele>
        <time>2015-07-13T06:30:57Z</time>
      </trkpt>
      <trkpt lat="46.629442228004336" lon="12.311032433062792">
        <ele>2370.27</ele>
        <time>2015-07-13T06:31:10Z</time>
      </trkpt>
      <trkpt lat="46.629263274371624" lon="12.311054393649101">
        <ele>2369.79</ele>
        <time>2015-07-13T06:31:24Z</time>
      </trkpt>
      <trkpt lat="46.62923569791019" lon="12.311044922098517">
        <ele>2369.79</ele>
        <time>2015-07-13T06:31:33Z</time>
      </trkpt>
      <trkpt lat="46.629186496138573" lon="12.3110372107476">
        <ele>2370.27</ele>
        <time>2015-07-13T06:31:43Z</time>
      </trkpt>
      <trkpt lat="46.629064539447427" lon="12.311029499396682">
        <ele>2370.27</ele>
        <time>2015-07-13T06:31:54Z</time>
      </trkpt>
      <trkpt lat="46.628910899162292" lon="12.311029499396682">
        <ele>2369.3099999999999</ele>
        <time>2015-07-13T06:32:06Z</time>
      </trkpt>
      <trkpt lat="46.628757091239095" lon="12.311051711440086">
        <ele>2368.3499999999999</ele>
        <time>2015-07-13T06:32:18Z</time>
      </trkpt>
      <trkpt lat="46.628661705181003" lon="12.311016172170639">
        <ele>2370.27</ele>
        <time>2015-07-13T06:32:29Z</time>
      </trkpt>
      <trkpt lat="46.628601690754294" lon="12.311004772782326">
        <ele>2372.1900000000001</ele>
        <time>2015-07-13T06:32:39Z</time>
      </trkpt>
      <trkpt lat="46.628546286374331" lon="12.310999240726233">
        <ele>2374.1100000000001</ele>
        <time>2015-07-13T06:32:49Z</time>
      </trkpt>
      <trkpt lat="46.628499180078506" lon="12.311016758903861">
        <ele>2376.04</ele>
        <time>2015-07-13T06:32:59Z</time>
      </trkpt>
      <trkpt lat="46.628457857295871" lon="12.311045760288835">
        <ele>2377.96</ele>
        <time>2015-07-13T06:33:09Z</time>
      </trkpt>
      <trkpt lat="46.628406811505556" lon="12.311093369498849">
        <ele>2379.8800000000001</ele>
        <time>2015-07-13T06:33:18Z</time>
      </trkpt>
      <trkpt lat="46.628341935575008" lon="12.311118263751268">
        <ele>2381.3200000000002</ele>
        <time>2015-07-13T06:33:28Z</time>
      </trkpt>
      <trkpt lat="46.628303211182356" lon="12.311157407239079">
        <ele>2384.6900000000001</ele>
        <time>2015-07-13T06:33:40Z</time>
      </trkpt>
      <trkpt lat="46.628306731581688" lon="12.311170399188995">
        <ele>2384.21</ele>
        <time>2015-07-13T06:33:52Z</time>
      </trkpt>
      <trkpt lat="46.628301618620753" lon="12.311153551563621">
        <ele>2384.6900000000001</ele>
        <time>2015-07-13T06:34:04Z</time>
      </trkpt>
      <trkpt lat="46.628328189253807" lon="12.311251787468791">
        <ele>2385.6500000000001</ele>
        <time>2015-07-13T06:34:13Z</time>
      </trkpt>
      <trkpt lat="46.628295499831438" lon="12.311363853514194">
        <ele>2387.5700000000002</ele>
        <time>2015-07-13T06:34:24Z</time>
      </trkpt>
      <trkpt lat="46.628263313323259" lon="12.311366703361273">
        <ele>2388.0500000000002</ele>
        <time>2015-07-13T06:34:28Z</time>
      </trkpt>
      <trkpt lat="46.628156108781695" lon="12.311373492702842">
        <ele>2389.4899999999998</ele>
        <time>2015-07-13T06:34:40Z</time>
      </trkpt>
      <trkpt lat="46.628094920888543" lon="12.311376007273793">
        <ele>2390.9400000000001</ele>
        <time>2015-07-13T06:34:50Z</time>
      </trkpt>
      <trkpt lat="46.628085030242801" lon="12.311377096921206">
        <ele>2391.4200000000001</ele>
        <time>2015-07-13T06:34:51Z</time>
      </trkpt>
      <trkpt lat="46.6280522570014" lon="12.311392854899168">
        <ele>2392.8600000000001</ele>
        <time>2015-07-13T06:35:01Z</time>
      </trkpt>
      <trkpt lat="46.628055358305573" lon="12.311381455510855">
        <ele>2392.3800000000001</ele>
        <time>2015-07-13T06:35:11Z</time>
      </trkpt>
      <trkpt lat="46.628049742430449" lon="12.311360165476799">
        <ele>2392.3800000000001</ele>
        <time>2015-07-13T06:35:28Z</time>
      </trkpt>
      <trkpt lat="46.628048317506909" lon="12.31134700588882">
        <ele>2392.3800000000001</ele>
        <time>2015-07-13T06:35:47Z</time>
      </trkpt>
      <trkpt lat="46.628040606155992" lon="12.311335103586316">
        <ele>2392.3800000000001</ele>
        <time>2015-07-13T06:36:03Z</time>
      </trkpt>
      <trkpt lat="46.628044042736292" lon="12.311335690319538">
        <ele>2393.3400000000001</ele>
        <time>2015-07-13T06:36:12Z</time>
      </trkpt>
      <trkpt lat="46.628034906461835" lon="12.311323536559939">
        <ele>2393.3400000000001</ele>
        <time>2015-07-13T06:36:24Z</time>
      </trkpt>
      <trkpt lat="46.628033732995391" lon="12.311325883492827">
        <ele>2393.3400000000001</ele>
        <time>2015-07-13T06:36:39Z</time>
      </trkpt>
      <trkpt lat="46.628034152090549" lon="12.311351615935564">
        <ele>2392.8600000000001</ele>
        <time>2015-07-13T06:36:55Z</time>
      </trkpt>
      <trkpt lat="46.628046222031116" lon="12.311400650069118">
        <ele>2392.8600000000001</ele>
        <time>2015-07-13T06:37:05Z</time>
      </trkpt>
      <trkpt lat="46.628040773794055" lon="12.311398135498166">
        <ele>2393.3400000000001</ele>
        <time>2015-07-13T06:37:16Z</time>
      </trkpt>
      <trkpt lat="46.628033313900232" lon="12.311371313408017">
        <ele>2393.8200000000002</ele>
        <time>2015-07-13T06:37:29Z</time>
      </trkpt>
      <trkpt lat="46.628025518730283" lon="12.311368631199002">
        <ele>2393.8200000000002</ele>
        <time>2015-07-13T06:37:46Z</time>
      </trkpt>
      <trkpt lat="46.628007162362337" lon="12.31139394454658">
        <ele>2394.3000000000002</ele>
        <time>2015-07-13T06:37:59Z</time>
      </trkpt>
      <trkpt lat="46.627973886206746" lon="12.311421856284142">
        <ele>2393.8200000000002</ele>
        <time>2015-07-13T06:38:09Z</time>
      </trkpt>
      <trkpt lat="46.627981094643474" lon="12.311392854899168">
        <ele>2394.3000000000002</ele>
        <time>2015-07-13T06:38:25Z</time>
      </trkpt>
      <trkpt lat="46.627956200391054" lon="12.311430238187313">
        <ele>2393.8200000000002</ele>
        <time>2015-07-13T06:38:30Z</time>
      </trkpt>
      <trkpt lat="46.627919571474195" lon="12.311452869325876">
        <ele>2393.8200000000002</ele>
        <time>2015-07-13T06:38:34Z</time>
      </trkpt>
      <trkpt lat="46.62787489593029" lon="12.311537945643067">
        <ele>2394.7800000000002</ele>
        <time>2015-07-13T06:38:45Z</time>
      </trkpt>
      <trkpt lat="46.62777179852128" lon="12.311613718047738">
        <ele>2396.2199999999998</ele>
        <time>2015-07-13T06:38:58Z</time>
      </trkpt>
      <trkpt lat="46.627671718597412" lon="12.31167146936059">
        <ele>2399.1100000000001</ele>
        <time>2015-07-13T06:39:11Z</time>
      </trkpt>
      <trkpt lat="46.627640705555677" lon="12.311773309484124">
        <ele>2401.0300000000002</ele>
        <time>2015-07-13T06:39:24Z</time>
      </trkpt>
      <trkpt lat="46.627626707777381" lon="12.311781859025359">
        <ele>2401.5100000000002</ele>
        <time>2015-07-13T06:39:26Z</time>
      </trkpt>
      <trkpt lat="46.627447502687573" lon="12.311690328642726">
        <ele>2402.9499999999998</ele>
        <time>2015-07-13T06:39:36Z</time>
      </trkpt>
      <trkpt lat="46.627376591786742" lon="12.31168806552887">
        <ele>2404.3899999999999</ele>
        <time>2015-07-13T06:39:46Z</time>
      </trkpt>
      <trkpt lat="46.627284809947014" lon="12.311704074963927">
        <ele>2405.8400000000001</ele>
        <time>2015-07-13T06:39:58Z</time>
      </trkpt>
      <trkpt lat="46.627233931794763" lon="12.311720168218017">
        <ele>2405.8400000000001</ele>
        <time>2015-07-13T06:40:07Z</time>
      </trkpt>
      <trkpt lat="46.627204678952694" lon="12.311792504042387">
        <ele>2405.3600000000001</ele>
        <time>2015-07-13T06:40:16Z</time>
      </trkpt>
      <trkpt lat="46.627211552113295" lon="12.311781523749232">
        <ele>2405.3600000000001</ele>
        <time>2015-07-13T06:40:25Z</time>
      </trkpt>
      <trkpt lat="46.627169139683247" lon="12.311821589246392">
        <ele>2404.8800000000001</ele>
        <time>2015-07-13T06:40:29Z</time>
      </trkpt>
      <trkpt lat="46.627071490511298" lon="12.311968021094799">
        <ele>2404.3899999999999</ele>
        <time>2015-07-13T06:40:39Z</time>
      </trkpt>
      <trkpt lat="46.626958167180419" lon="12.312064245343208">
        <ele>2404.8800000000001</ele>
        <time>2015-07-13T06:40:50Z</time>
      </trkpt>
      <trkpt lat="46.626925393939018" lon="12.312085451558232">
        <ele>2405.3600000000001</ele>
        <time>2015-07-13T06:40:53Z</time>
      </trkpt>
      <trkpt lat="46.626812741160393" lon="12.312236996367574">
        <ele>2404.8800000000001</ele>
        <time>2015-07-13T06:41:06Z</time>
      </trkpt>
      <trkpt lat="46.626712158322334" lon="12.312310254201293">
        <ele>2405.8400000000001</ele>
        <time>2015-07-13T06:41:17Z</time>
      </trkpt>
      <trkpt lat="46.626734035089612" lon="12.312260214239359">
        <ele>2405.8400000000001</ele>
        <time>2015-07-13T06:41:28Z</time>
      </trkpt>
      <trkpt lat="46.626715427264571" lon="12.312298519536853">
        <ele>2405.8400000000001</ele>
        <time>2015-07-13T06:41:33Z</time>
      </trkpt>
      <trkpt lat="46.626621382310987" lon="12.312414608895779">
        <ele>2405.3600000000001</ele>
        <time>2015-07-13T06:41:44Z</time>
      </trkpt>
      <trkpt lat="46.626503532752395" lon="12.31256665661931">
        <ele>2404.3899999999999</ele>
        <time>2015-07-13T06:41:58Z</time>
      </trkpt>
      <trkpt lat="46.626394400373101" lon="12.312628515064716">
        <ele>2404.8800000000001</ele>
        <time>2015-07-13T06:42:08Z</time>
      </trkpt>
      <trkpt lat="46.626405967399478" lon="12.312849462032318">
        <ele>2404.8800000000001</ele>
        <time>2015-07-13T06:42:20Z</time>
      </trkpt>
      <trkpt lat="46.626277808099985" lon="12.312958342954516">
        <ele>2405.3600000000001</ele>
        <time>2015-07-13T06:42:33Z</time>
      </trkpt>
      <trkpt lat="46.625993074849248" lon="12.312841415405273">
        <ele>2407.2800000000002</ele>
        <time>2015-07-13T06:42:46Z</time>
      </trkpt>
      <trkpt lat="46.625851169228554" lon="12.312878295779228">
        <ele>2408.7199999999998</ele>
        <time>2015-07-13T06:43:00Z</time>
      </trkpt>
      <trkpt lat="46.625814959406853" lon="12.312877289950848">
        <ele>2409.6799999999998</ele>
        <time>2015-07-13T06:43:05Z</time>
      </trkpt>
      <trkpt lat="46.62570146843791" lon="12.312834039330482">
        <ele>2411.5999999999999</ele>
        <time>2015-07-13T06:43:18Z</time>
      </trkpt>
      <trkpt lat="46.625691996887326" lon="12.312831608578563">
        <ele>2411.1199999999999</ele>
        <time>2015-07-13T06:43:19Z</time>
      </trkpt>
      <trkpt lat="46.625560065731406" lon="12.312860526144505">
        <ele>2412.5700000000002</ele>
        <time>2015-07-13T06:43:33Z</time>
      </trkpt>
      <trkpt lat="46.62548840045929" lon="12.312884079292417">
        <ele>2414.0100000000002</ele>
        <time>2015-07-13T06:43:42Z</time>
      </trkpt>
      <trkpt lat="46.625370299443603" lon="12.312893634662032">
        <ele>2414.9699999999998</ele>
        <time>2015-07-13T06:43:55Z</time>
      </trkpt>
      <trkpt lat="46.625283798202872" lon="12.31291358359158">
        <ele>2416.4099999999999</ele>
        <time>2015-07-13T06:44:05Z</time>
      </trkpt>
      <trkpt lat="46.625219425186515" lon="12.312917858362198">
        <ele>2416.8899999999999</ele>
        <time>2015-07-13T06:44:12Z</time>
      </trkpt>
      <trkpt lat="46.62511364556849" lon="12.312933951616287">
        <ele>2417.8499999999999</ele>
        <time>2015-07-13T06:44:22Z</time>
      </trkpt>
      <trkpt lat="46.625001076608896" lon="12.312949877232313">
        <ele>2419.3000000000002</ele>
        <time>2015-07-13T06:44:34Z</time>
      </trkpt>
      <trkpt lat="46.624964196234941" lon="12.312974939122796">
        <ele>2419.7800000000002</ele>
        <time>2015-07-13T06:44:38Z</time>
      </trkpt>
      <trkpt lat="46.624849364161491" lon="12.313027577474713">
        <ele>2420.2600000000002</ele>
        <time>2015-07-13T06:44:50Z</time>
      </trkpt>
      <trkpt lat="46.624742327257991" lon="12.313038809224963">
        <ele>2420.7399999999998</ele>
        <time>2015-07-13T06:45:01Z</time>
      </trkpt>
      <trkpt lat="46.624638643115759" lon="12.313028499484062">
        <ele>2421.6999999999998</ele>
        <time>2015-07-13T06:45:12Z</time>
      </trkpt>
      <trkpt lat="46.624539066106081" lon="12.312997905537486">
        <ele>2422.1799999999998</ele>
        <time>2015-07-13T06:45:22Z</time>
      </trkpt>
      <trkpt lat="46.62444518879056" lon="12.312928587198257">
        <ele>2423.6199999999999</ele>
        <time>2015-07-13T06:45:32Z</time>
      </trkpt>
      <trkpt lat="46.62435038946569" lon="12.312870416790247">
        <ele>2425.0599999999999</ele>
        <time>2015-07-13T06:45:44Z</time>
      </trkpt>
      <trkpt lat="46.624296577647328" lon="12.312825238332152">
        <ele>2426.5</ele>
        <time>2015-07-13T06:45:54Z</time>
      </trkpt>
      <trkpt lat="46.624220553785563" lon="12.312748292461038">
        <ele>2428.4299999999998</ele>
        <time>2015-07-13T06:46:06Z</time>
      </trkpt>
      <trkpt lat="46.624156180769205" lon="12.312677716836333">
        <ele>2430.3499999999999</ele>
        <time>2015-07-13T06:46:17Z</time>
      </trkpt>
      <trkpt lat="46.624103123322129" lon="12.312634717673063">
        <ele>2432.27</ele>
        <time>2015-07-13T06:46:27Z</time>
      </trkpt>
      <trkpt lat="46.624044952914119" lon="12.31256959028542">
        <ele>2434.1999999999998</ele>
        <time>2015-07-13T06:46:39Z</time>
      </trkpt>
      <trkpt lat="46.623999942094088" lon="12.312504379078746">
        <ele>2436.1199999999999</ele>
        <time>2015-07-13T06:46:49Z</time>
      </trkpt>
      <trkpt lat="46.623992482200265" lon="12.312497505918145">
        <ele>2436.1199999999999</ele>
        <time>2015-07-13T06:46:51Z</time>
      </trkpt>
      <trkpt lat="46.623950740322471" lon="12.312451992183924">
        <ele>2437.5599999999999</ele>
        <time>2015-07-13T06:46:57Z</time>
      </trkpt>
      <trkpt lat="46.623933389782906" lon="12.31242885813117">
        <ele>2438.04</ele>
        <time>2015-07-13T06:47:01Z</time>
      </trkpt>
      <trkpt lat="46.623895922675729" lon="12.312380829825997">
        <ele>2439.48</ele>
        <time>2015-07-13T06:47:11Z</time>
      </trkpt>
      <trkpt lat="46.623843032866716" lon="12.312338501214981">
        <ele>2441.8899999999999</ele>
        <time>2015-07-13T06:47:23Z</time>
      </trkpt>
      <trkpt lat="46.623782766982913" lon="12.312270440161228">
        <ele>2444.77</ele>
        <time>2015-07-13T06:47:37Z</time>
      </trkpt>
      <trkpt lat="46.623719232156873" lon="12.312223250046372">
        <ele>2447.6500000000001</ele>
        <time>2015-07-13T06:47:48Z</time>
      </trkpt>
      <trkpt lat="46.623651338741183" lon="12.312161140143871">
        <ele>2448.1300000000001</ele>
        <time>2015-07-13T06:47:59Z</time>
      </trkpt>
      <trkpt lat="46.623571123927832" lon="12.312093246728182">
        <ele>2449.0999999999999</ele>
        <time>2015-07-13T06:48:10Z</time>
      </trkpt>
      <trkpt lat="46.623482946306467" lon="12.312030550092459">
        <ele>2450.54</ele>
        <time>2015-07-13T06:48:21Z</time>
      </trkpt>
      <trkpt lat="46.623415807262063" lon="12.311968021094799">
        <ele>2451.5</ele>
        <time>2015-07-13T06:48:31Z</time>
      </trkpt>
      <trkpt lat="46.623395355418324" lon="12.311925776302814">
        <ele>2452.46</ele>
        <time>2015-07-13T06:48:40Z</time>
      </trkpt>
      <trkpt lat="46.623402815312147" lon="12.311919908970594">
        <ele>2452.46</ele>
        <time>2015-07-13T06:48:52Z</time>
      </trkpt>
      <trkpt lat="46.623401306569576" lon="12.31194362975657">
        <ele>2451.98</ele>
        <time>2015-07-13T06:49:08Z</time>
      </trkpt>
      <trkpt lat="46.623399378731847" lon="12.311956370249391">
        <ele>2452.46</ele>
        <time>2015-07-13T06:49:25Z</time>
      </trkpt>
      <trkpt lat="46.623399797827005" lon="12.31197590008378">
        <ele>2452.46</ele>
        <time>2015-07-13T06:49:44Z</time>
      </trkpt>
      <trkpt lat="46.623388146981597" lon="12.3119524307549">
        <ele>2452.46</ele>
        <time>2015-07-13T06:50:02Z</time>
      </trkpt>
      <trkpt lat="46.623408012092113" lon="12.311918484047055">
        <ele>2452.46</ele>
        <time>2015-07-13T06:50:25Z</time>
      </trkpt>
      <trkpt lat="46.623386302962899" lon="12.311955699697137">
        <ele>2452.46</ele>
        <time>2015-07-13T06:50:42Z</time>
      </trkpt>
      <trkpt lat="46.623360067605972" lon="12.311905324459076">
        <ele>2453.4200000000001</ele>
        <time>2015-07-13T06:50:52Z</time>
      </trkpt>
      <trkpt lat="46.623230315744877" lon="12.311824942007661">
        <ele>2455.3400000000001</ele>
        <time>2015-07-13T06:51:04Z</time>
      </trkpt>
      <trkpt lat="46.623070137575269" lon="12.311753276735544">
        <ele>2457.27</ele>
        <time>2015-07-13T06:51:18Z</time>
      </trkpt>
      <trkpt lat="46.622934434562922" lon="12.311655208468437">
        <ele>2458.23</ele>
        <time>2015-07-13T06:51:32Z</time>
      </trkpt>
      <trkpt lat="46.622807616367936" lon="12.311575245112181">
        <ele>2459.6700000000001</ele>
        <time>2015-07-13T06:51:46Z</time>
      </trkpt>
      <trkpt lat="46.622696304693818" lon="12.311515482142568">
        <ele>2460.6300000000001</ele>
        <time>2015-07-13T06:51:59Z</time>
      </trkpt>
      <trkpt lat="46.622676439583302" lon="12.311527468264103">
        <ele>2460.6300000000001</ele>
        <time>2015-07-13T06:52:09Z</time>
      </trkpt>
      <trkpt lat="46.62265632301569" lon="12.311515063047409">
        <ele>2460.6300000000001</ele>
        <time>2015-07-13T06:52:17Z</time>
      </trkpt>
      <trkpt lat="46.622586417943239" lon="12.311484133824706">
        <ele>2461.1100000000001</ele>
        <time>2015-07-13T06:52:28Z</time>
      </trkpt>
      <trkpt lat="46.622580382972956" lon="12.31147994287312">
        <ele>2461.1100000000001</ele>
        <time>2015-07-13T06:52:45Z</time>
      </trkpt>
      <trkpt lat="46.622603349387646" lon="12.311476841568947">
        <ele>2461.1100000000001</ele>
        <time>2015-07-13T06:53:04Z</time>
      </trkpt>
      <trkpt lat="46.622604355216026" lon="12.311421185731888">
        <ele>2460.6300000000001</ele>
        <time>2015-07-13T06:53:16Z</time>
      </trkpt>
      <trkpt lat="46.622598404064775" lon="12.311439123004675">
        <ele>2461.1100000000001</ele>
        <time>2015-07-13T06:53:32Z</time>
      </trkpt>
      <trkpt lat="46.622596140950918" lon="12.311494359746575">
        <ele>2461.1100000000001</ele>
        <time>2015-07-13T06:53:49Z</time>
      </trkpt>
      <trkpt lat="46.622599409893155" lon="12.311618244275451">
        <ele>2462.0700000000002</ele>
        <time>2015-07-13T06:54:00Z</time>
      </trkpt>
      <trkpt lat="46.622636374086142" lon="12.311682365834713">
        <ele>2462.5500000000002</ele>
        <time>2015-07-13T06:54:06Z</time>
      </trkpt>
      <trkpt lat="46.622651964426041" lon="12.311708768829703">
        <ele>2463.04</ele>
        <time>2015-07-13T06:54:09Z</time>
      </trkpt>
      <trkpt lat="46.622683480381966" lon="12.311755288392305">
        <ele>2464.48</ele>
        <time>2015-07-13T06:54:18Z</time>
      </trkpt>
      <trkpt lat="46.622742991894484" lon="12.311826534569263">
        <ele>2465.4400000000001</ele>
        <time>2015-07-13T06:54:28Z</time>
      </trkpt>
      <trkpt lat="46.622731005772948" lon="12.311853105202317">
        <ele>2465.9200000000001</ele>
        <time>2015-07-13T06:54:44Z</time>
      </trkpt>
      <trkpt lat="46.622726395726204" lon="12.311825528740883">
        <ele>2465.9200000000001</ele>
        <time>2015-07-13T06:55:00Z</time>
      </trkpt>
      <trkpt lat="46.622696556150913" lon="12.311801640316844">
        <ele>2466.4000000000001</ele>
        <time>2015-07-13T06:55:17Z</time>
      </trkpt>
      <trkpt lat="46.622677948325872" lon="12.311840783804655">
        <ele>2465.9200000000001</ele>
        <time>2015-07-13T06:55:30Z</time>
      </trkpt>
      <trkpt lat="46.622646516188979" lon="12.311862157657743">
        <ele>2465.4400000000001</ele>
        <time>2015-07-13T06:55:46Z</time>
      </trkpt>
      <trkpt lat="46.622640397399664" lon="12.311849920079112">
        <ele>2465.4400000000001</ele>
        <time>2015-07-13T06:56:03Z</time>
      </trkpt>
      <trkpt lat="46.622637631371617" lon="12.311875149607658">
        <ele>2464.96</ele>
        <time>2015-07-13T06:56:27Z</time>
      </trkpt>
      <trkpt lat="46.622643414884806" lon="12.311848662793636">
        <ele>2464.96</ele>
        <time>2015-07-13T06:56:47Z</time>
      </trkpt>
      <trkpt lat="46.62264559417963" lon="12.3118488304317">
        <ele>2464.96</ele>
        <time>2015-07-13T06:57:03Z</time>
      </trkpt>
      <trkpt lat="46.622649114578962" lon="12.311849752441049">
        <ele>2464.48</ele>
        <time>2015-07-13T06:57:19Z</time>
      </trkpt>
      <trkpt lat="46.622657161206007" lon="12.311852853745222">
        <ele>2464.96</ele>
        <time>2015-07-13T06:57:38Z</time>
      </trkpt>
      <trkpt lat="46.622641403228045" lon="12.311828630045056">
        <ele>2464.48</ele>
        <time>2015-07-13T06:58:05Z</time>
      </trkpt>
      <trkpt lat="46.62265732884407" lon="12.311837179586291">
        <ele>2464.48</ele>
        <time>2015-07-13T06:58:21Z</time>
      </trkpt>
      <trkpt lat="46.622649282217026" lon="12.311874981969595">
        <ele>2464.48</ele>
        <time>2015-07-13T06:58:47Z</time>
      </trkpt>
      <trkpt lat="46.622647689655423" lon="12.311863163486123">
        <ele>2464.48</ele>
        <time>2015-07-13T06:59:10Z</time>
      </trkpt>
      <trkpt lat="46.622653054073453" lon="12.311837347224355">
        <ele>2464.48</ele>
        <time>2015-07-13T06:59:28Z</time>
      </trkpt>
      <trkpt lat="46.622650874778628" lon="12.311824690550566">
        <ele>2464.48</ele>
        <time>2015-07-13T06:59:29Z</time>
      </trkpt>
      <trkpt lat="46.622632769867778" lon="12.311771046370268">
        <ele>2464</ele>
        <time>2015-07-13T06:59:33Z</time>
      </trkpt>
      <trkpt lat="46.622524559497833" lon="12.311642551794648">
        <ele>2460.6300000000001</ele>
        <time>2015-07-13T06:59:47Z</time>
      </trkpt>
      <trkpt lat="46.622501173987985" lon="12.311601983383298">
        <ele>2460.1500000000001</ele>
        <time>2015-07-13T06:59:56Z</time>
      </trkpt>
      <trkpt lat="46.622418444603682" lon="12.311553033068776">
        <ele>2458.23</ele>
        <time>2015-07-13T07:00:04Z</time>
      </trkpt>
      <trkpt lat="46.622387180104852" lon="12.311540208756924">
        <ele>2457.75</ele>
        <time>2015-07-13T07:00:07Z</time>
      </trkpt>
      <trkpt lat="46.622333200648427" lon="12.311505926772952">
        <ele>2455.8200000000002</ele>
        <time>2015-07-13T07:00:15Z</time>
      </trkpt>
      <trkpt lat="46.622241837903857" lon="12.311418503522873">
        <ele>2453.9000000000001</ele>
        <time>2015-07-13T07:00:25Z</time>
      </trkpt>
      <trkpt lat="46.622157851234078" lon="12.311369553208351">
        <ele>2451.98</ele>
        <time>2015-07-13T07:00:36Z</time>
      </trkpt>
      <trkpt lat="46.622150810435414" lon="12.311375504359603">
        <ele>2451.5</ele>
        <time>2015-07-13T07:00:37Z</time>
      </trkpt>
      <trkpt lat="46.622045701369643" lon="12.311282549053431">
        <ele>2449.0999999999999</ele>
        <time>2015-07-13T07:00:50Z</time>
      </trkpt>
      <trkpt lat="46.622035307809711" lon="12.311279280111194">
        <ele>2449.0999999999999</ele>
        <time>2015-07-13T07:00:52Z</time>
      </trkpt>
      <trkpt lat="46.62196054123342" lon="12.311195209622383">
        <ele>2447.1700000000001</ele>
        <time>2015-07-13T07:01:02Z</time>
      </trkpt>
      <trkpt lat="46.62183447740972" lon="12.311131926253438">
        <ele>2445.73</ele>
        <time>2015-07-13T07:01:15Z</time>
      </trkpt>
      <trkpt lat="46.621763566508889" lon="12.311073588207364">
        <ele>2444.29</ele>
        <time>2015-07-13T07:01:30Z</time>
      </trkpt>
      <trkpt lat="46.621684357523918" lon="12.31101768091321">
        <ele>2442.3699999999999</ele>
        <time>2015-07-13T07:01:41Z</time>
      </trkpt>
      <trkpt lat="46.62155494093895" lon="12.310975519940257">
        <ele>2441.8899999999999</ele>
        <time>2015-07-13T07:01:54Z</time>
      </trkpt>
      <trkpt lat="46.621478917077184" lon="12.310917265713215">
        <ele>2439.96</ele>
        <time>2015-07-13T07:02:06Z</time>
      </trkpt>
      <trkpt lat="46.621372886002064" lon="12.310815677046776">
        <ele>2438.04</ele>
        <time>2015-07-13T07:02:19Z</time>
      </trkpt>
      <trkpt lat="46.621216395869851" lon="12.310751052573323">
        <ele>2434.6799999999998</ele>
        <time>2015-07-13T07:02:33Z</time>
      </trkpt>
      <trkpt lat="46.621034676209092" lon="12.310661785304546">
        <ele>2432.27</ele>
        <time>2015-07-13T07:02:48Z</time>
      </trkpt>
      <trkpt lat="46.620903415605426" lon="12.310594813898206">
        <ele>2429.3899999999999</ele>
        <time>2015-07-13T07:03:02Z</time>
      </trkpt>
      <trkpt lat="46.620775759220123" lon="12.31052759103477">
        <ele>2428.4299999999998</ele>
        <time>2015-07-13T07:03:15Z</time>
      </trkpt>
      <trkpt lat="46.620650114491582" lon="12.310521891340613">
        <ele>2427.9499999999998</ele>
        <time>2015-07-13T07:03:26Z</time>
      </trkpt>
      <trkpt lat="46.620525056496263" lon="12.310498673468828">
        <ele>2426.5</ele>
        <time>2015-07-13T07:03:38Z</time>
      </trkpt>
      <trkpt lat="46.620486415922642" lon="12.310502445325255">
        <ele>2425.54</ele>
        <time>2015-07-13T07:03:42Z</time>
      </trkpt>
      <trkpt lat="46.620332859456539" lon="12.310498505830765">
        <ele>2422.1799999999998</ele>
        <time>2015-07-13T07:03:58Z</time>
      </trkpt>
      <trkpt lat="46.620321543887258" lon="12.310501355677843">
        <ele>2422.1799999999998</ele>
        <time>2015-07-13T07:03:59Z</time>
      </trkpt>
      <trkpt lat="46.620205538347363" lon="12.31045089662075">
        <ele>2419.7800000000002</ele>
        <time>2015-07-13T07:04:11Z</time>
      </trkpt>
      <trkpt lat="46.62008467130363" lon="12.310441676527262">
        <ele>2416.8899999999999</ele>
        <time>2015-07-13T07:04:26Z</time>
      </trkpt>
      <trkpt lat="46.619989369064569" lon="12.310396414250135">
        <ele>2414.9699999999998</ele>
        <time>2015-07-13T07:04:38Z</time>
      </trkpt>
      <trkpt lat="46.619972018525004" lon="12.310397587716579">
        <ele>2414.4899999999998</ele>
        <time>2015-07-13T07:04:40Z</time>
      </trkpt>
      <trkpt lat="46.619872273877263" lon="12.310381913557649">
        <ele>2413.5300000000002</ele>
        <time>2015-07-13T07:04:50Z</time>
      </trkpt>
      <trkpt lat="46.619815025478601" lon="12.310363473370671">
        <ele>2412.5700000000002</ele>
        <time>2015-07-13T07:04:57Z</time>
      </trkpt>
      <trkpt lat="46.619675550609827" lon="12.310345200821757">
        <ele>2410.1599999999999</ele>
        <time>2015-07-13T07:05:10Z</time>
      </trkpt>
      <trkpt lat="46.619594749063253" lon="12.310333298519254">
        <ele>2407.2800000000002</ele>
        <time>2015-07-13T07:05:23Z</time>
      </trkpt>
      <trkpt lat="46.619505984708667" lon="12.310317791998386">
        <ele>2404.8800000000001</ele>
        <time>2015-07-13T07:05:35Z</time>
      </trkpt>
      <trkpt lat="46.619415041059256" lon="12.310310835018754">
        <ele>2401.5100000000002</ele>
        <time>2015-07-13T07:05:46Z</time>
      </trkpt>
      <trkpt lat="46.619329461827874" lon="12.31024956330657">
        <ele>2399.5900000000001</ele>
        <time>2015-07-13T07:05:56Z</time>
      </trkpt>
      <trkpt lat="46.619215803220868" lon="12.310321228578687">
        <ele>2395.7399999999998</ele>
        <time>2015-07-13T07:06:09Z</time>
      </trkpt>
      <trkpt lat="46.61915042437613" lon="12.310371184721589">
        <ele>2393.3400000000001</ele>
        <time>2015-07-13T07:06:18Z</time>
      </trkpt>
      <trkpt lat="46.619052272289991" lon="12.310385769233108">
        <ele>2390.9400000000001</ele>
        <time>2015-07-13T07:06:29Z</time>
      </trkpt>
      <trkpt lat="46.618969878181815" lon="12.310466235503554">
        <ele>2389.0100000000002</ele>
        <time>2015-07-13T07:06:41Z</time>
      </trkpt>
      <trkpt lat="46.618894189596176" lon="12.310462631285191">
        <ele>2387.5700000000002</ele>
        <time>2015-07-13T07:06:49Z</time>
      </trkpt>
      <trkpt lat="46.61880299448967" lon="12.310480820015073">
        <ele>2385.6500000000001</ele>
        <time>2015-07-13T07:06:59Z</time>
      </trkpt>
      <trkpt lat="46.618672907352448" lon="12.310507306829095">
        <ele>2382.7600000000002</ele>
        <time>2015-07-13T07:07:12Z</time>
      </trkpt>
      <trkpt lat="46.618537707254291" lon="12.3105398286134">
        <ele>2379.8800000000001</ele>
        <time>2015-07-13T07:07:26Z</time>
      </trkpt>
      <trkpt lat="46.618506526574492" lon="12.310547372326255">
        <ele>2379.4000000000001</ele>
        <time>2015-07-13T07:07:30Z</time>
      </trkpt>
      <trkpt lat="46.618460677564144" lon="12.310538487508893">
        <ele>2378.4400000000001</ele>
        <time>2015-07-13T07:07:35Z</time>
      </trkpt>
      <trkpt lat="46.618368057534099" lon="12.310569165274501">
        <ele>2375.5500000000002</ele>
        <time>2015-07-13T07:07:47Z</time>
      </trkpt>
      <trkpt lat="46.618285328149796" lon="12.310567237436771">
        <ele>2373.6300000000001</ele>
        <time>2015-07-13T07:07:58Z</time>
      </trkpt>
      <trkpt lat="46.618299996480346" lon="12.310619708150625">
        <ele>2371.23</ele>
        <time>2015-07-13T07:08:07Z</time>
      </trkpt>
      <trkpt lat="46.618365542963147" lon="12.310741413384676">
        <ele>2368.3499999999999</ele>
        <time>2015-07-13T07:08:17Z</time>
      </trkpt>
      <trkpt lat="46.618346432223916" lon="12.310765637084842">
        <ele>2367.3800000000001</ele>
        <time>2015-07-13T07:08:28Z</time>
      </trkpt>
      <trkpt lat="46.618263032287359" lon="12.310828668996692">
        <ele>2365.46</ele>
        <time>2015-07-13T07:08:39Z</time>
      </trkpt>
      <trkpt lat="46.618142835795879" lon="12.310861023142934">
        <ele>2362.0999999999999</ele>
        <time>2015-07-13T07:08:52Z</time>
      </trkpt>
      <trkpt lat="46.618110230192542" lon="12.310911985114217">
        <ele>2360.6500000000001</ele>
        <time>2015-07-13T07:08:57Z</time>
      </trkpt>
      <trkpt lat="46.618048790842295" lon="12.310980297625065">
        <ele>2359.21</ele>
        <time>2015-07-13T07:09:07Z</time>
      </trkpt>
      <trkpt lat="46.618017023429275" lon="12.311009299010038">
        <ele>2357.77</ele>
        <time>2015-07-13T07:09:11Z</time>
      </trkpt>
      <trkpt lat="46.617992799729109" lon="12.311016172170639">
        <ele>2356.8099999999999</ele>
        <time>2015-07-13T07:09:14Z</time>
      </trkpt>
      <trkpt lat="46.617976371198893" lon="12.311016591265798">
        <ele>2356.8099999999999</ele>
        <time>2015-07-13T07:09:16Z</time>
      </trkpt>
      <trkpt lat="46.617907974869013" lon="12.311034696176648">
        <ele>2353.4400000000001</ele>
        <time>2015-07-13T07:09:26Z</time>
      </trkpt>
      <trkpt lat="46.61787117831409" lon="12.311020782217383">
        <ele>2352.48</ele>
        <time>2015-07-13T07:09:33Z</time>
      </trkpt>
      <trkpt lat="46.617861790582538" lon="12.311030924320221">
        <ele>2352</ele>
        <time>2015-07-13T07:09:35Z</time>
      </trkpt>
      <trkpt lat="46.617796998471022" lon="12.311039306223392">
        <ele>2351.04</ele>
        <time>2015-07-13T07:09:42Z</time>
      </trkpt>
      <trkpt lat="46.617667078971863" lon="12.310935622081161">
        <ele>2349.5999999999999</ele>
        <time>2015-07-13T07:09:55Z</time>
      </trkpt>
      <trkpt lat="46.617589294910431" lon="12.310917768627405">
        <ele>2348.6399999999999</ele>
        <time>2015-07-13T07:10:01Z</time>
      </trkpt>
      <trkpt lat="46.61753062158823" lon="12.310872841626406">
        <ele>2348.1599999999999</ele>
        <time>2015-07-13T07:10:06Z</time>
      </trkpt>
      <trkpt lat="46.617494998499751" lon="12.310827411711216">
        <ele>2348.1599999999999</ele>
        <time>2015-07-13T07:10:10Z</time>
      </trkpt>
      <trkpt lat="46.61734932102263" lon="12.310698330402374">
        <ele>2347.1999999999998</ele>
        <time>2015-07-13T07:10:23Z</time>
      </trkpt>
      <trkpt lat="46.617211354896426" lon="12.310609649866819">
        <ele>2347.1999999999998</ele>
        <time>2015-07-13T07:10:35Z</time>
      </trkpt>
      <trkpt lat="46.617052769288421" lon="12.310470091179013">
        <ele>2347.1999999999998</ele>
        <time>2015-07-13T07:10:50Z</time>
      </trkpt>
      <trkpt lat="46.616917653009295" lon="12.310326928272843">
        <ele>2346.7199999999998</ele>
        <time>2015-07-13T07:11:03Z</time>
      </trkpt>
      <trkpt lat="46.616789996623993" lon="12.310192231088877">
        <ele>2346.23</ele>
        <time>2015-07-13T07:11:15Z</time>
      </trkpt>
      <trkpt lat="46.616648593917489" lon="12.3100546002388">
        <ele>2347.1999999999998</ele>
        <time>2015-07-13T07:11:29Z</time>
      </trkpt>
      <trkpt lat="46.616489505395293" lon="12.309934487566352">
        <ele>2347.1999999999998</ele>
        <time>2015-07-13T07:11:44Z</time>
      </trkpt>
      <trkpt lat="46.616307869553566" lon="12.309818817302585">
        <ele>2346.23</ele>
        <time>2015-07-13T07:12:00Z</time>
      </trkpt>
      <trkpt lat="46.616121539846063" lon="12.309772130101919">
        <ele>2345.75</ele>
        <time>2015-07-13T07:12:14Z</time>
      </trkpt>
      <trkpt lat="46.616022884845734" lon="12.309706415981054">
        <ele>2345.75</ele>
        <time>2015-07-13T07:12:26Z</time>
      </trkpt>
      <trkpt lat="46.616020873188972" lon="12.309710187837481">
        <ele>2345.75</ele>
        <time>2015-07-13T07:12:31Z</time>
      </trkpt>
      <trkpt lat="46.615854911506176" lon="12.309644054621458">
        <ele>2344.3099999999999</ele>
        <time>2015-07-13T07:12:44Z</time>
      </trkpt>
      <trkpt lat="46.615614518523216" lon="12.309474321082234">
        <ele>2342.8699999999999</ele>
        <time>2015-07-13T07:13:04Z</time>
      </trkpt>
      <trkpt lat="46.615457776933908" lon="12.309353537857533">
        <ele>2341.9099999999999</ele>
        <time>2015-07-13T07:13:18Z</time>
      </trkpt>
      <trkpt lat="46.615330288186669" lon="12.309182714670897">
        <ele>2340.4699999999998</ele>
        <time>2015-07-13T07:13:33Z</time>
      </trkpt>
      <trkpt lat="46.615240685641766" lon="12.309028068557382">
        <ele>2338.54</ele>
        <time>2015-07-13T07:13:46Z</time>
      </trkpt>
      <trkpt lat="46.615180755034089" lon="12.308912230655551">
        <ele>2339.02</ele>
        <time>2015-07-13T07:13:56Z</time>
      </trkpt>
      <trkpt lat="46.615117136389017" lon="12.30885942466557">
        <ele>2338.0599999999999</ele>
        <time>2015-07-13T07:14:03Z</time>
      </trkpt>
      <trkpt lat="46.614988055080175" lon="12.308778204023838">
        <ele>2337.5799999999999</ele>
        <time>2015-07-13T07:14:16Z</time>
      </trkpt>
      <trkpt lat="46.614968776702881" lon="12.308730594813824">
        <ele>2337.0999999999999</ele>
        <time>2015-07-13T07:14:27Z</time>
      </trkpt>
      <trkpt lat="46.614935919642448" lon="12.308732774108648">
        <ele>2337.0999999999999</ele>
        <time>2015-07-13T07:14:38Z</time>
      </trkpt>
      <trkpt lat="46.614847322925925" lon="12.308714501559734">
        <ele>2336.6199999999999</ele>
        <time>2015-07-13T07:14:46Z</time>
      </trkpt>
      <trkpt lat="46.614776914939284" lon="12.308708131313324">
        <ele>2336.1399999999999</ele>
        <time>2015-07-13T07:14:53Z</time>
      </trkpt>
      <trkpt lat="46.614629393443465" lon="12.308644596487284">
        <ele>2334.2199999999998</ele>
        <time>2015-07-13T07:15:07Z</time>
      </trkpt>
      <trkpt lat="46.614535516127944" lon="12.308601262047887">
        <ele>2333.7399999999998</ele>
        <time>2015-07-13T07:15:18Z</time>
      </trkpt>
      <trkpt lat="46.614425545558333" lon="12.308574104681611">
        <ele>2332.7800000000002</ele>
        <time>2015-07-13T07:15:28Z</time>
      </trkpt>
      <trkpt lat="46.614383719861507" lon="12.308547031134367">
        <ele>2332.7800000000002</ele>
        <time>2015-07-13T07:15:32Z</time>
      </trkpt>
      <trkpt lat="46.61424407735467" lon="12.30846899561584">
        <ele>2332.3000000000002</ele>
        <time>2015-07-13T07:15:46Z</time>
      </trkpt>
      <trkpt lat="46.614117175340652" lon="12.308438485488296">
        <ele>2330.8499999999999</ele>
        <time>2015-07-13T07:15:59Z</time>
      </trkpt>
      <trkpt lat="46.613950543105602" lon="12.308324659243226">
        <ele>2329.8899999999999</ele>
        <time>2015-07-13T07:16:14Z</time>
      </trkpt>
      <trkpt lat="46.613940568640828" lon="12.308314265683293">
        <ele>2329.8899999999999</ele>
        <time>2015-07-13T07:16:15Z</time>
      </trkpt>
      <trkpt lat="46.613877033814788" lon="12.308301357552409">
        <ele>2328.9299999999998</ele>
        <time>2015-07-13T07:16:27Z</time>
      </trkpt>
      <trkpt lat="46.613871417939663" lon="12.308233380317688">
        <ele>2328.9299999999998</ele>
        <time>2015-07-13T07:16:31Z</time>
      </trkpt>
      <trkpt lat="46.613825652748346" lon="12.308040596544743">
        <ele>2327.9699999999998</ele>
        <time>2015-07-13T07:16:44Z</time>
      </trkpt>
      <trkpt lat="46.613774690777063" lon="12.307871198281646">
        <ele>2327.0100000000002</ele>
        <time>2015-07-13T07:16:55Z</time>
      </trkpt>
      <trkpt lat="46.613675951957703" lon="12.3077233415097">
        <ele>2326.0500000000002</ele>
        <time>2015-07-13T07:17:07Z</time>
      </trkpt>
      <trkpt lat="46.613620044663548" lon="12.307627368718386">
        <ele>2325.0900000000001</ele>
        <time>2015-07-13T07:17:17Z</time>
      </trkpt>
      <trkpt lat="46.613623984158039" lon="12.307604150846601">
        <ele>2325.0900000000001</ele>
        <time>2015-07-13T07:17:32Z</time>
      </trkpt>
      <trkpt lat="46.613621134310961" lon="12.307595685124397">
        <ele>2325.5700000000002</ele>
        <time>2015-07-13T07:17:52Z</time>
      </trkpt>
      <trkpt lat="46.613622894510627" lon="12.307607755064964">
        <ele>2325.0900000000001</ele>
        <time>2015-07-13T07:18:10Z</time>
      </trkpt>
      <trkpt lat="46.613634126260877" lon="12.307562408968806">
        <ele>2325.0900000000001</ele>
        <time>2015-07-13T07:18:18Z</time>
      </trkpt>
      <trkpt lat="46.613646196201444" lon="12.307466603815556">
        <ele>2324.6100000000001</ele>
        <time>2015-07-13T07:18:25Z</time>
      </trkpt>
      <trkpt lat="46.61368659697473" lon="12.30746190994978">
        <ele>2325.0900000000001</ele>
        <time>2015-07-13T07:18:36Z</time>
      </trkpt>
      <trkpt lat="46.613676371052861" lon="12.307476075366139">
        <ele>2323.6399999999999</ele>
        <time>2015-07-13T07:18:46Z</time>
      </trkpt>
      <trkpt lat="46.613683328032494" lon="12.307452606037259">
        <ele>2323.6399999999999</ele>
        <time>2015-07-13T07:19:10Z</time>
      </trkpt>
      <trkpt lat="46.613670587539673" lon="12.307472135871649">
        <ele>2323.6399999999999</ele>
        <time>2015-07-13T07:19:35Z</time>
      </trkpt>
      <trkpt lat="46.613679137080908" lon="12.307471465319395">
        <ele>2323.6399999999999</ele>
        <time>2015-07-13T07:19:57Z</time>
      </trkpt>
      <trkpt lat="46.613667402416468" lon="12.307476159185171">
        <ele>2323.1599999999999</ele>
        <time>2015-07-13T07:20:29Z</time>
      </trkpt>
      <trkpt lat="46.613664887845516" lon="12.307480433955789">
        <ele>2323.1599999999999</ele>
        <time>2015-07-13T07:20:46Z</time>
      </trkpt>
      <trkpt lat="46.613668911159039" lon="12.307467190548778">
        <ele>2323.1599999999999</ele>
        <time>2015-07-13T07:21:09Z</time>
      </trkpt>
      <trkpt lat="46.613674610853195" lon="12.307463167235255">
        <ele>2323.1599999999999</ele>
        <time>2015-07-13T07:21:35Z</time>
      </trkpt>
      <trkpt lat="46.613681064918637" lon="12.307460904121399">
        <ele>2323.6399999999999</ele>
        <time>2015-07-13T07:22:05Z</time>
      </trkpt>
      <trkpt lat="46.613688943907619" lon="12.307451013475657">
        <ele>2323.6399999999999</ele>
        <time>2015-07-13T07:22:27Z</time>
      </trkpt>
      <trkpt lat="46.613692380487919" lon="12.30744481086731">
        <ele>2323.1599999999999</ele>
        <time>2015-07-13T07:22:50Z</time>
      </trkpt>
      <trkpt lat="46.613686177879572" lon="12.307450342923403">
        <ele>2323.6399999999999</ele>
        <time>2015-07-13T07:23:17Z</time>
      </trkpt>
      <trkpt lat="46.613682322204113" lon="12.30747364461422">
        <ele>2323.1599999999999</ele>
        <time>2015-07-13T07:23:46Z</time>
      </trkpt>
      <trkpt lat="46.613685507327318" lon="12.307452773675323">
        <ele>2323.1599999999999</ele>
        <time>2015-07-13T07:24:16Z</time>
      </trkpt>
      <trkpt lat="46.613681819289923" lon="12.307458054274321">
        <ele>2323.1599999999999</ele>
        <time>2015-07-13T07:24:28Z</time>
      </trkpt>
      <trkpt lat="46.613688608631492" lon="12.30746048502624">
        <ele>2323.6399999999999</ele>
        <time>2015-07-13T07:24:30Z</time>
      </trkpt>
      <trkpt lat="46.613663882017136" lon="12.307403571903706">
        <ele>2324.6100000000001</ele>
        <time>2015-07-13T07:24:38Z</time>
      </trkpt>
      <trkpt lat="46.613634377717972" lon="12.307266024872661">
        <ele>2323.6399999999999</ele>
        <time>2015-07-13T07:24:49Z</time>
      </trkpt>
      <trkpt lat="46.613553324714303" lon="12.307185223326087">
        <ele>2323.6399999999999</ele>
        <time>2015-07-13T07:24:59Z</time>
      </trkpt>
      <trkpt lat="46.61351602524519" lon="12.306982800364494">
        <ele>2322.6799999999998</ele>
        <time>2015-07-13T07:25:11Z</time>
      </trkpt>
      <trkpt lat="46.613492388278246" lon="12.306757746264338">
        <ele>2322.1999999999998</ele>
        <time>2015-07-13T07:25:24Z</time>
      </trkpt>
      <trkpt lat="46.61349113099277" lon="12.306696139276028">
        <ele>2320.2800000000002</ele>
        <time>2015-07-13T07:25:28Z</time>
      </trkpt>
      <trkpt lat="46.613495238125324" lon="12.30667426250875">
        <ele>2321.7199999999998</ele>
        <time>2015-07-13T07:25:32Z</time>
      </trkpt>
      <trkpt lat="46.61350579932332" lon="12.306682057678699">
        <ele>2321.7199999999998</ele>
        <time>2015-07-13T07:25:42Z</time>
      </trkpt>
      <trkpt lat="46.613530106842518" lon="12.306566219776869">
        <ele>2319.8000000000002</ele>
        <time>2015-07-13T07:25:49Z</time>
      </trkpt>
      <trkpt lat="46.613566232845187" lon="12.306315181776881">
        <ele>2317.8800000000001</ele>
        <time>2015-07-13T07:26:03Z</time>
      </trkpt>
      <trkpt lat="46.613552654162049" lon="12.306029442697763">
        <ele>2317.8800000000001</ele>
        <time>2015-07-13T07:26:18Z</time>
      </trkpt>
      <trkpt lat="46.613580817356706" lon="12.305801538750529">
        <ele>2317.4000000000001</ele>
        <time>2015-07-13T07:26:31Z</time>
      </trkpt>
      <trkpt lat="46.61364552564919" lon="12.30557925067842">
        <ele>2316.4299999999998</ele>
        <time>2015-07-13T07:26:44Z</time>
      </trkpt>
      <trkpt lat="46.613640831783414" lon="12.305387640371919">
        <ele>2315.9499999999998</ele>
        <time>2015-07-13T07:26:55Z</time>
      </trkpt>
      <trkpt lat="46.613620296120644" lon="12.305140625685453">
        <ele>2315.9499999999998</ele>
        <time>2015-07-13T07:27:08Z</time>
      </trkpt>
      <trkpt lat="46.613661451265216" lon="12.304918086156249">
        <ele>2315.4699999999998</ele>
        <time>2015-07-13T07:27:20Z</time>
      </trkpt>
      <trkpt lat="46.613830598071218" lon="12.304756566882133">
        <ele>2315.4699999999998</ele>
        <time>2015-07-13T07:27:34Z</time>
      </trkpt>
      <trkpt lat="46.613980047404766" lon="12.304578116163611">
        <ele>2315.9499999999998</ele>
        <time>2015-07-13T07:27:48Z</time>
      </trkpt>
      <trkpt lat="46.614089598879218" lon="12.304441323503852">
        <ele>2316.9099999999999</ele>
        <time>2015-07-13T07:28:01Z</time>
      </trkpt>
      <trkpt lat="46.614140141755342" lon="12.304288856685162">
        <ele>2317.8800000000001</ele>
        <time>2015-07-13T07:28:12Z</time>
      </trkpt>
      <trkpt lat="46.614179704338312" lon="12.304102694615722">
        <ele>2318.3600000000001</ele>
        <time>2015-07-13T07:28:24Z</time>
      </trkpt>
      <trkpt lat="46.614207196980715" lon="12.303983755409718">
        <ele>2318.8400000000001</ele>
        <time>2015-07-13T07:28:32Z</time>
      </trkpt>
      <trkpt lat="46.614217339083552" lon="12.303798766806722">
        <ele>2318.3600000000001</ele>
        <time>2015-07-13T07:28:43Z</time>
      </trkpt>
      <trkpt lat="46.61421281285584" lon="12.303559463471174">
        <ele>2318.8400000000001</ele>
        <time>2015-07-13T07:28:56Z</time>
      </trkpt>
      <trkpt lat="46.614215578883886" lon="12.303306329995394">
        <ele>2319.3200000000002</ele>
        <time>2015-07-13T07:29:09Z</time>
      </trkpt>
      <trkpt lat="46.614225218072534" lon="12.303063422441483">
        <ele>2319.3200000000002</ele>
        <time>2015-07-13T07:29:21Z</time>
      </trkpt>
      <trkpt lat="46.614232426509261" lon="12.302833506837487">
        <ele>2320.7600000000002</ele>
        <time>2015-07-13T07:29:33Z</time>
      </trkpt>
      <trkpt lat="46.614217339083552" lon="12.30260887183249">
        <ele>2321.7199999999998</ele>
        <time>2015-07-13T07:29:46Z</time>
      </trkpt>
      <trkpt lat="46.614230498671532" lon="12.302385829389095">
        <ele>2323.6399999999999</ele>
        <time>2015-07-13T07:29:59Z</time>
      </trkpt>
      <trkpt lat="46.61426561884582" lon="12.302251886576414">
        <ele>2324.6100000000001</ele>
        <time>2015-07-13T07:30:07Z</time>
      </trkpt>
      <trkpt lat="46.614284394308925" lon="12.302064131945372">
        <ele>2325.5700000000002</ele>
        <time>2015-07-13T07:30:19Z</time>
      </trkpt>
      <trkpt lat="46.614286070689559" lon="12.301858523860574">
        <ele>2326.5300000000002</ele>
        <time>2015-07-13T07:30:31Z</time>
      </trkpt>
      <trkpt lat="46.61427685059607" lon="12.30162626132369">
        <ele>2326.5300000000002</ele>
        <time>2015-07-13T07:30:44Z</time>
      </trkpt>
      <trkpt lat="46.61424265243113" lon="12.301412774249911">
        <ele>2327.9699999999998</ele>
        <time>2015-07-13T07:30:56Z</time>
      </trkpt>
      <trkpt lat="46.614204766228795" lon="12.301179086789489">
        <ele>2327.9699999999998</ele>
        <time>2015-07-13T07:31:08Z</time>
      </trkpt>
      <trkpt lat="46.614189092069864" lon="12.300949171185493">
        <ele>2328.4499999999998</ele>
        <time>2015-07-13T07:31:20Z</time>
      </trkpt>
      <trkpt lat="46.614109380170703" lon="12.300690002739429">
        <ele>2328.9299999999998</ele>
        <time>2015-07-13T07:31:35Z</time>
      </trkpt>
      <trkpt lat="46.61403888836503" lon="12.300445334985852">
        <ele>2328.9299999999998</ele>
        <time>2015-07-13T07:31:50Z</time>
      </trkpt>
      <trkpt lat="46.613963451236486" lon="12.300216509029269">
        <ele>2328.9299999999998</ele>
        <time>2015-07-13T07:32:05Z</time>
      </trkpt>
      <trkpt lat="46.613894300535321" lon="12.300029089674354">
        <ele>2328.9299999999998</ele>
        <time>2015-07-13T07:32:17Z</time>
      </trkpt>
      <trkpt lat="46.613851971924305" lon="12.299846112728119">
        <ele>2328.9299999999998</ele>
        <time>2015-07-13T07:32:28Z</time>
      </trkpt>
      <trkpt lat="46.613818611949682" lon="12.299773609265685">
        <ele>2328.9299999999998</ele>
        <time>2015-07-13T07:32:35Z</time>
      </trkpt>
      <trkpt lat="46.613781061023474" lon="12.299639331176877">
        <ele>2328.9299999999998</ele>
        <time>2015-07-13T07:32:45Z</time>
      </trkpt>
      <trkpt lat="46.613726494833827" lon="12.299593817442656">
        <ele>2328.9299999999998</ele>
        <time>2015-07-13T07:32:54Z</time>
      </trkpt>
      <trkpt lat="46.613723896443844" lon="12.299533635377884">
        <ele>2328.9299999999998</ele>
        <time>2015-07-13T07:33:05Z</time>
      </trkpt>
      <trkpt lat="46.613719705492258" lon="12.299519972875714">
        <ele>2328.4499999999998</ele>
        <time>2015-07-13T07:33:06Z</time>
      </trkpt>
      <trkpt lat="46.613697074353695" lon="12.299331715330482">
        <ele>2328.4499999999998</ele>
        <time>2015-07-13T07:33:19Z</time>
      </trkpt>
      <trkpt lat="46.613677879795432" lon="12.299168184399605">
        <ele>2328.9299999999998</ele>
        <time>2015-07-13T07:33:30Z</time>
      </trkpt>
      <trkpt lat="46.613654242828488" lon="12.29899157769978">
        <ele>2328.4499999999998</ele>
        <time>2015-07-13T07:33:42Z</time>
      </trkpt>
      <trkpt lat="46.61365625448525" lon="12.298755459487438">
        <ele>2328.9299999999998</ele>
        <time>2015-07-13T07:33:56Z</time>
      </trkpt>
      <trkpt lat="46.613659523427486" lon="12.298720926046371">
        <ele>2328.4499999999998</ele>
        <time>2015-07-13T07:34:08Z</time>
      </trkpt>
      <trkpt lat="46.613664133474231" lon="12.298730565235019">
        <ele>2328.4499999999998</ele>
        <time>2015-07-13T07:34:26Z</time>
      </trkpt>
      <trkpt lat="46.613681735470891" lon="12.298659905791283">
        <ele>2327.9699999999998</ele>
        <time>2015-07-13T07:34:42Z</time>
      </trkpt>
      <trkpt lat="46.613704618066549" lon="12.298482963815331">
        <ele>2327.0100000000002</ele>
        <time>2015-07-13T07:34:54Z</time>
      </trkpt>
      <trkpt lat="46.613698834553361" lon="12.298393277451396">
        <ele>2327.4899999999998</ele>
        <time>2015-07-13T07:35:01Z</time>
      </trkpt>
      <trkpt lat="46.61369975656271" lon="12.298308704048395">
        <ele>2327.4899999999998</ele>
        <time>2015-07-13T07:35:06Z</time>
      </trkpt>
      <trkpt lat="46.613689698278904" lon="12.298211306333542">
        <ele>2327.4899999999998</ele>
        <time>2015-07-13T07:35:13Z</time>
      </trkpt>
      <trkpt lat="46.613654242828488" lon="12.298089936375618">
        <ele>2327.4899999999998</ele>
        <time>2015-07-13T07:35:21Z</time>
      </trkpt>
      <trkpt lat="46.613613842055202" lon="12.297940067946911">
        <ele>2327.4899999999998</ele>
        <time>2015-07-13T07:35:34Z</time>
      </trkpt>
      <trkpt lat="46.613595150411129" lon="12.297784751281142">
        <ele>2327.9699999999998</ele>
        <time>2015-07-13T07:35:46Z</time>
      </trkpt>
      <trkpt lat="46.613592300564051" lon="12.29761459864676">
        <ele>2327.4899999999998</ele>
        <time>2015-07-13T07:35:59Z</time>
      </trkpt>
      <trkpt lat="46.613525748252869" lon="12.297475123777986">
        <ele>2327.9699999999998</ele>
        <time>2015-07-13T07:36:10Z</time>
      </trkpt>
      <trkpt lat="46.613473864272237" lon="12.297307820990682">
        <ele>2327.4899999999998</ele>
        <time>2015-07-13T07:36:22Z</time>
      </trkpt>
      <trkpt lat="46.613428853452206" lon="12.297154767438769">
        <ele>2327.9699999999998</ele>
        <time>2015-07-13T07:36:34Z</time>
      </trkpt>
      <trkpt lat="46.613391973078251" lon="12.297005318105221">
        <ele>2327.9699999999998</ele>
        <time>2015-07-13T07:36:44Z</time>
      </trkpt>
      <trkpt lat="46.613356601446867" lon="12.296842876821756">
        <ele>2327.9699999999998</ele>
        <time>2015-07-13T07:36:56Z</time>
      </trkpt>
      <trkpt lat="46.613356852903962" lon="12.296801637858152">
        <ele>2328.4499999999998</ele>
        <time>2015-07-13T07:36:59Z</time>
      </trkpt>
      <trkpt lat="46.613347046077251" lon="12.296752855181694">
        <ele>2328.4499999999998</ele>
        <time>2015-07-13T07:37:03Z</time>
      </trkpt>
      <trkpt lat="46.613308824598789" lon="12.296619582921267">
        <ele>2329.4099999999999</ele>
        <time>2015-07-13T07:37:15Z</time>
      </trkpt>
      <trkpt lat="46.613261885941029" lon="12.296582534909248">
        <ele>2329.4099999999999</ele>
        <time>2015-07-13T07:37:25Z</time>
      </trkpt>
      <trkpt lat="46.6131407674402" lon="12.296598292887211">
        <ele>2328.9299999999998</ele>
        <time>2015-07-13T07:37:35Z</time>
      </trkpt>
      <trkpt lat="46.613004896789789" lon="12.296664929017425">
        <ele>2328.9299999999998</ele>
        <time>2015-07-13T07:37:46Z</time>
      </trkpt>
      <trkpt lat="46.612856620922685" lon="12.29660022072494">
        <ele>2328.9299999999998</ele>
        <time>2015-07-13T07:38:00Z</time>
      </trkpt>
      <trkpt lat="46.612715134397149" lon="12.296569962054491">
        <ele>2328.9299999999998</ele>
        <time>2015-07-13T07:38:13Z</time>
      </trkpt>
      <trkpt lat="46.61257884465158" lon="12.29654892347753">
        <ele>2329.8899999999999</ele>
        <time>2015-07-13T07:38:27Z</time>
      </trkpt>
      <trkpt lat="46.612473735585809" lon="12.296519502997398">
        <ele>2329.8899999999999</ele>
        <time>2015-07-13T07:38:37Z</time>
      </trkpt>
      <trkpt lat="46.612355886027217" lon="12.296467954292893">
        <ele>2330.8499999999999</ele>
        <time>2015-07-13T07:38:50Z</time>
      </trkpt>
      <trkpt lat="46.612335350364447" lon="12.296464098617435">
        <ele>2331.3299999999999</ele>
        <time>2015-07-13T07:38:52Z</time>
      </trkpt>
      <trkpt lat="46.612295368686318" lon="12.296391427516937">
        <ele>2332.7800000000002</ele>
        <time>2015-07-13T07:39:04Z</time>
      </trkpt>
      <trkpt lat="46.61229788325727" lon="12.296408526599407">
        <ele>2332.7800000000002</ele>
        <time>2015-07-13T07:39:16Z</time>
      </trkpt>
      <trkpt lat="46.612283634021878" lon="12.296379189938307">
        <ele>2332.7800000000002</ele>
        <time>2015-07-13T07:39:26Z</time>
      </trkpt>
      <trkpt lat="46.612284472212195" lon="12.296377094462514">
        <ele>2333.2600000000002</ele>
        <time>2015-07-13T07:39:29Z</time>
      </trkpt>
      <trkpt lat="46.612346582114697" lon="12.296280199661851">
        <ele>2333.7399999999998</ele>
        <time>2015-07-13T07:39:37Z</time>
      </trkpt>
      <trkpt lat="46.612366111949086" lon="12.29622202925384">
        <ele>2332.7800000000002</ele>
        <time>2015-07-13T07:39:40Z</time>
      </trkpt>
      <trkpt lat="46.612355299293995" lon="12.296010889112949">
        <ele>2334.2199999999998</ele>
        <time>2015-07-13T07:39:53Z</time>
      </trkpt>
      <trkpt lat="46.612321939319372" lon="12.295898906886578">
        <ele>2335.1799999999998</ele>
        <time>2015-07-13T07:40:00Z</time>
      </trkpt>
      <trkpt lat="46.612306348979473" lon="12.295879041776061">
        <ele>2334.6999999999998</ele>
        <time>2015-07-13T07:40:02Z</time>
      </trkpt>
      <trkpt lat="46.612221943214536" lon="12.295915000140667">
        <ele>2333.7399999999998</ele>
        <time>2015-07-13T07:40:15Z</time>
      </trkpt>
      <trkpt lat="46.612231750041246" lon="12.295939307659864">
        <ele>2334.6999999999998</ele>
        <time>2015-07-13T07:40:34Z</time>
      </trkpt>
      <trkpt lat="46.612211046740413" lon="12.296011224389076">
        <ele>2332.3000000000002</ele>
        <time>2015-07-13T07:40:55Z</time>
      </trkpt>
      <trkpt lat="46.61216352134943" lon="12.296072915196419">
        <ele>2332.7800000000002</ele>
        <time>2015-07-13T07:53:23Z</time>
      </trkpt>
      <trkpt lat="46.612143237143755" lon="12.29599135927856">
        <ele>2331.8099999999999</ele>
        <time>2015-07-13T07:53:30Z</time>
      </trkpt>
      <trkpt lat="46.612130999565125" lon="12.295979540795088">
        <ele>2331.8099999999999</ele>
        <time>2015-07-13T07:53:42Z</time>
      </trkpt>
      <trkpt lat="46.6121288202703" lon="12.295973589643836">
        <ele>2332.3000000000002</ele>
        <time>2015-07-13T07:53:49Z</time>
      </trkpt>
      <trkpt lat="46.612120941281319" lon="12.295965794473886">
        <ele>2332.3000000000002</ele>
        <time>2015-07-13T07:53:51Z</time>
      </trkpt>
      <trkpt lat="46.612076265737414" lon="12.296007787808776">
        <ele>2332.3000000000002</ele>
        <time>2015-07-13T07:53:59Z</time>
      </trkpt>
      <trkpt lat="46.612088084220886" lon="12.296073418110609">
        <ele>2331.8099999999999</ele>
        <time>2015-07-13T07:54:06Z</time>
      </trkpt>
      <trkpt lat="46.61213812418282" lon="12.296232003718615">
        <ele>2331.8099999999999</ele>
        <time>2015-07-13T07:54:17Z</time>
      </trkpt>
      <trkpt lat="46.61217768676579" lon="12.296323450282216">
        <ele>2332.3000000000002</ele>
        <time>2015-07-13T07:54:26Z</time>
      </trkpt>
      <trkpt lat="46.612178776413202" lon="12.296326132491231">
        <ele>2331.8099999999999</ele>
        <time>2015-07-13T07:54:28Z</time>
      </trkpt>
      <trkpt lat="46.612216411158442" lon="12.296374244615436">
        <ele>2331.3299999999999</ele>
        <time>2015-07-13T07:54:37Z</time>
      </trkpt>
      <trkpt lat="46.612226720899343" lon="12.296451693400741">
        <ele>2331.3299999999999</ele>
        <time>2015-07-13T07:54:45Z</time>
      </trkpt>
      <trkpt lat="46.612194702029228" lon="12.296422943472862">
        <ele>2331.3299999999999</ele>
        <time>2015-07-13T07:54:49Z</time>
      </trkpt>
      <trkpt lat="46.612050868570805" lon="12.29644825682044">
        <ele>2329.8899999999999</ele>
        <time>2015-07-13T07:55:02Z</time>
      </trkpt>
      <trkpt lat="46.612053718417883" lon="12.296444065868855">
        <ele>2328.9299999999998</ele>
        <time>2015-07-13T07:55:11Z</time>
      </trkpt>
      <trkpt lat="46.612050617113709" lon="12.296444401144981">
        <ele>2329.4099999999999</ele>
        <time>2015-07-13T07:55:22Z</time>
      </trkpt>
      <trkpt lat="46.612046677619219" lon="12.296438617631793">
        <ele>2328.9299999999998</ele>
        <time>2015-07-13T07:55:34Z</time>
      </trkpt>
      <trkpt lat="46.612041816115379" lon="12.29644238948822">
        <ele>2329.4099999999999</ele>
        <time>2015-07-13T07:55:52Z</time>
      </trkpt>
      <trkpt lat="46.612039133906364" lon="12.29646141640842">
        <ele>2329.4099999999999</ele>
        <time>2015-07-13T07:56:17Z</time>
      </trkpt>
      <trkpt lat="46.612034188583493" lon="12.296463595703244">
        <ele>2328.9299999999998</ele>
        <time>2015-07-13T07:56:36Z</time>
      </trkpt>
      <trkpt lat="46.612054640427232" lon="12.296441048383713">
        <ele>2329.4099999999999</ele>
        <time>2015-07-13T07:56:59Z</time>
      </trkpt>
      <trkpt lat="46.612030584365129" lon="12.296460997313261">
        <ele>2329.8899999999999</ele>
        <time>2015-07-13T07:57:29Z</time>
      </trkpt>
      <trkpt lat="46.612035362049937" lon="12.296450352296233">
        <ele>2329.8899999999999</ele>
        <time>2015-07-13T07:57:54Z</time>
      </trkpt>
      <trkpt lat="46.612037038430572" lon="12.296462003141642">
        <ele>2329.8899999999999</ele>
        <time>2015-07-13T07:58:15Z</time>
      </trkpt>
      <trkpt lat="46.612035110592842" lon="12.296454459428787">
        <ele>2329.8899999999999</ele>
        <time>2015-07-13T07:58:36Z</time>
      </trkpt>
      <trkpt lat="46.612019268795848" lon="12.29647658765316">
        <ele>2329.8899999999999</ele>
        <time>2015-07-13T07:58:55Z</time>
      </trkpt>
      <trkpt lat="46.612020777538419" lon="12.296482203528285">
        <ele>2329.8899999999999</ele>
        <time>2015-07-13T07:59:25Z</time>
      </trkpt>
      <trkpt lat="46.612037625163794" lon="12.296468457207084">
        <ele>2330.3699999999999</ele>
        <time>2015-07-13T07:59:44Z</time>
      </trkpt>
      <trkpt lat="46.612039217725396" lon="12.296481449157">
        <ele>2329.8899999999999</ele>
        <time>2015-07-13T08:00:04Z</time>
      </trkpt>
      <trkpt lat="46.612043911591172" lon="12.296465272083879">
        <ele>2329.8899999999999</ele>
        <time>2015-07-13T08:00:18Z</time>
      </trkpt>
      <trkpt lat="46.612048940733075" lon="12.296468373388052">
        <ele>2330.8499999999999</ele>
        <time>2015-07-13T08:00:27Z</time>
      </trkpt>
      <trkpt lat="46.612059166654944" lon="12.296469211578369">
        <ele>2330.8499999999999</ele>
        <time>2015-07-13T08:00:38Z</time>
      </trkpt>
      <trkpt lat="46.612039804458618" lon="12.296463008970022">
        <ele>2330.8499999999999</ele>
        <time>2015-07-13T08:00:49Z</time>
      </trkpt>
      <trkpt lat="46.612007953226566" lon="12.296469211578369">
        <ele>2329.8899999999999</ele>
        <time>2015-07-13T08:00:53Z</time>
      </trkpt>
      <trkpt lat="46.611906783655286" lon="12.296470636501908">
        <ele>2326.5300000000002</ele>
        <time>2015-07-13T08:01:03Z</time>
      </trkpt>
      <trkpt lat="46.61178289912641" lon="12.296414980664849">
        <ele>2323.1599999999999</ele>
        <time>2015-07-13T08:01:14Z</time>
      </trkpt>
      <trkpt lat="46.611726572737098" lon="12.29641355574131">
        <ele>2321.2399999999998</ele>
        <time>2015-07-13T08:01:19Z</time>
      </trkpt>
      <trkpt lat="46.611648621037602" lon="12.296485304832458">
        <ele>2317.8800000000001</ele>
        <time>2015-07-13T08:01:29Z</time>
      </trkpt>
      <trkpt lat="46.611581314355135" lon="12.296531572937965">
        <ele>2315.9499999999998</ele>
        <time>2015-07-13T08:01:38Z</time>
      </trkpt>
      <trkpt lat="46.611490286886692" lon="12.296630311757326">
        <ele>2313.5500000000002</ele>
        <time>2015-07-13T08:01:50Z</time>
      </trkpt>
      <trkpt lat="46.611488107591867" lon="12.296629976481199">
        <ele>2314.0300000000002</ele>
        <time>2015-07-13T08:01:53Z</time>
      </trkpt>
      <trkpt lat="46.611394146457314" lon="12.296746987849474">
        <ele>2311.6300000000001</ele>
        <time>2015-07-13T08:02:06Z</time>
      </trkpt>
      <trkpt lat="46.611364223062992" lon="12.296789651736617">
        <ele>2310.1900000000001</ele>
        <time>2015-07-13T08:02:13Z</time>
      </trkpt>
      <trkpt lat="46.611291132867336" lon="12.296883696690202">
        <ele>2307.7800000000002</ele>
        <time>2015-07-13T08:02:25Z</time>
      </trkpt>
      <trkpt lat="46.611225083470345" lon="12.297011688351631">
        <ele>2305.3800000000001</ele>
        <time>2015-07-13T08:02:38Z</time>
      </trkpt>
      <trkpt lat="46.611162638291717" lon="12.297080839052796">
        <ele>2303.46</ele>
        <time>2015-07-13T08:02:49Z</time>
      </trkpt>
      <trkpt lat="46.611139671877027" lon="12.297139847651124">
        <ele>2302.0100000000002</ele>
        <time>2015-07-13T08:03:01Z</time>
      </trkpt>
      <trkpt lat="46.61112760193646" lon="12.297149151563644">
        <ele>2302.0100000000002</ele>
        <time>2015-07-13T08:03:04Z</time>
      </trkpt>
      <trkpt lat="46.610999023541808" lon="12.297197598963976">
        <ele>2299.1300000000001</ele>
        <time>2015-07-13T08:03:18Z</time>
      </trkpt>
      <trkpt lat="46.61092484369874" lon="12.297228947281837">
        <ele>2298.1700000000001</ele>
        <time>2015-07-13T08:03:27Z</time>
      </trkpt>
      <trkpt lat="46.610853597521782" lon="12.297272281721234">
        <ele>2297.21</ele>
        <time>2015-07-13T08:03:36Z</time>
      </trkpt>
      <trkpt lat="46.610732562839985" lon="12.297300696372986">
        <ele>2298.1700000000001</ele>
        <time>2015-07-13T08:03:47Z</time>
      </trkpt>
      <trkpt lat="46.610695850104094" lon="12.297302791848779">
        <ele>2299.1300000000001</ele>
        <time>2015-07-13T08:03:51Z</time>
      </trkpt>
      <trkpt lat="46.610585544258356" lon="12.297326177358627">
        <ele>2299.1300000000001</ele>
        <time>2015-07-13T08:04:02Z</time>
      </trkpt>
      <trkpt lat="46.610482111573219" lon="12.297310084104538">
        <ele>2301.0500000000002</ele>
        <time>2015-07-13T08:04:14Z</time>
      </trkpt>
      <trkpt lat="46.6103829536587" lon="12.297310503199697">
        <ele>2302.98</ele>
        <time>2015-07-13T08:04:26Z</time>
      </trkpt>
      <trkpt lat="46.61028522066772" lon="12.297281250357628">
        <ele>2304.4200000000001</ele>
        <time>2015-07-13T08:04:38Z</time>
      </trkpt>
      <trkpt lat="46.610172232612967" lon="12.297282507643104">
        <ele>2305.3800000000001</ele>
        <time>2015-07-13T08:04:50Z</time>
      </trkpt>
      <trkpt lat="46.610144320875406" lon="12.297278819605708">
        <ele>2305.3800000000001</ele>
        <time>2015-07-13T08:04:53Z</time>
      </trkpt>
      <trkpt lat="46.610092604532838" lon="12.297255182638764">
        <ele>2304.4200000000001</ele>
        <time>2015-07-13T08:04:58Z</time>
      </trkpt>
      <trkpt lat="46.60992949269712" lon="12.297252500429749">
        <ele>2303.9400000000001</ele>
        <time>2015-07-13T08:05:15Z</time>
      </trkpt>
      <trkpt lat="46.60991339944303" lon="12.297250991687179">
        <ele>2302.0100000000002</ele>
        <time>2015-07-13T08:05:17Z</time>
      </trkpt>
      <trkpt lat="46.609862940385938" lon="12.297272030264139">
        <ele>2300.5700000000002</ele>
        <time>2015-07-13T08:05:25Z</time>
      </trkpt>
      <trkpt lat="46.609812313690782" lon="12.297310587018728">
        <ele>2299.6100000000001</ele>
        <time>2015-07-13T08:05:30Z</time>
      </trkpt>
      <trkpt lat="46.609731093049049" lon="12.297450061887503">
        <ele>2298.6500000000001</ele>
        <time>2015-07-13T08:05:43Z</time>
      </trkpt>
      <trkpt lat="46.609696978703141" lon="12.297474537044764">
        <ele>2297.6900000000001</ele>
        <time>2015-07-13T08:05:49Z</time>
      </trkpt>
      <trkpt lat="46.609670240432024" lon="12.29755106382072">
        <ele>2295.77</ele>
        <time>2015-07-13T08:05:56Z</time>
      </trkpt>
      <trkpt lat="46.609687674790621" lon="12.297700261697173">
        <ele>2294.8000000000002</ele>
        <time>2015-07-13T08:06:08Z</time>
      </trkpt>
      <trkpt lat="46.609662529081106" lon="12.297830432653427">
        <ele>2292.4000000000001</ele>
        <time>2015-07-13T08:06:18Z</time>
      </trkpt>
      <trkpt lat="46.609633024781942" lon="12.297972841188312">
        <ele>2289.52</ele>
        <time>2015-07-13T08:06:30Z</time>
      </trkpt>
      <trkpt lat="46.609585583209991" lon="12.298182472586632">
        <ele>2287.1100000000001</ele>
        <time>2015-07-13T08:06:43Z</time>
      </trkpt>
      <trkpt lat="46.609523808583617" lon="12.298365030437708">
        <ele>2283.75</ele>
        <time>2015-07-13T08:06:56Z</time>
      </trkpt>
      <trkpt lat="46.609461782500148" lon="12.298469301313162">
        <ele>2280.8699999999999</ele>
        <time>2015-07-13T08:07:07Z</time>
      </trkpt>
      <trkpt lat="46.609401181340218" lon="12.298532584682107">
        <ele>2277.98</ele>
        <time>2015-07-13T08:07:18Z</time>
      </trkpt>
      <trkpt lat="46.609389949589968" lon="12.298529734835029">
        <ele>2277.5</ele>
        <time>2015-07-13T08:07:19Z</time>
      </trkpt>
      <trkpt lat="46.609283918514848" lon="12.298567201942205">
        <ele>2275.0999999999999</ele>
        <time>2015-07-13T08:07:31Z</time>
      </trkpt>
      <trkpt lat="46.609252486377954" lon="12.298606345430017">
        <ele>2274.1399999999999</ele>
        <time>2015-07-13T08:07:41Z</time>
      </trkpt>
      <trkpt lat="46.609188197180629" lon="12.298635262995958">
        <ele>2273.1700000000001</ele>
        <time>2015-07-13T08:07:51Z</time>
      </trkpt>
      <trkpt lat="46.609124159440398" lon="12.298670969903469">
        <ele>2272.6900000000001</ele>
        <time>2015-07-13T08:08:02Z</time>
      </trkpt>
      <trkpt lat="46.608994323760271" lon="12.298713298514485">
        <ele>2272.21</ele>
        <time>2015-07-13T08:08:13Z</time>
      </trkpt>
      <trkpt lat="46.609006226062775" lon="12.298686979338527">
        <ele>2271.73</ele>
        <time>2015-07-13T08:08:23Z</time>
      </trkpt>
      <trkpt lat="46.609007064253092" lon="12.298686811700463">
        <ele>2271.73</ele>
        <time>2015-07-13T08:08:45Z</time>
      </trkpt>
      <trkpt lat="46.609002118930221" lon="12.298696367070079">
        <ele>2272.21</ele>
        <time>2015-07-13T08:08:58Z</time>
      </trkpt>
      <trkpt lat="46.608917796984315" lon="12.29873064905405">
        <ele>2272.21</ele>
        <time>2015-07-13T08:09:05Z</time>
      </trkpt>
      <trkpt lat="46.608776561915874" lon="12.298774989321828">
        <ele>2272.21</ele>
        <time>2015-07-13T08:09:17Z</time>
      </trkpt>
      <trkpt lat="46.608685199171305" lon="12.298803487792611">
        <ele>2273.6599999999999</ele>
        <time>2015-07-13T08:09:29Z</time>
      </trkpt>
      <trkpt lat="46.608635913580656" lon="12.298840871080756">
        <ele>2275.0999999999999</ele>
        <time>2015-07-13T08:09:39Z</time>
      </trkpt>
      <trkpt lat="46.608601044863462" lon="12.298933155834675">
        <ele>2277.98</ele>
        <time>2015-07-13T08:09:50Z</time>
      </trkpt>
      <trkpt lat="46.608562404289842" lon="12.298999205231667">
        <ele>2279.9000000000001</ele>
        <time>2015-07-13T08:10:01Z</time>
      </trkpt>
      <trkpt lat="46.60852761939168" lon="12.299078162759542">
        <ele>2282.3099999999999</ele>
        <time>2015-07-13T08:10:12Z</time>
      </trkpt>
      <trkpt lat="46.608474478125572" lon="12.299151169136167">
        <ele>2284.23</ele>
        <time>2015-07-13T08:10:24Z</time>
      </trkpt>
      <trkpt lat="46.608427288010716" lon="12.29920657351613">
        <ele>2285.6700000000001</ele>
        <time>2015-07-13T08:10:34Z</time>
      </trkpt>
      <trkpt lat="46.608343217521906" lon="12.299239262938499">
        <ele>2288.0799999999999</ele>
        <time>2015-07-13T08:10:48Z</time>
      </trkpt>
      <trkpt lat="46.60826769657433" lon="12.299277232959867">
        <ele>2290</ele>
        <time>2015-07-13T08:11:01Z</time>
      </trkpt>
      <trkpt lat="46.608195193111897" lon="12.299269353970885">
        <ele>2291.4400000000001</ele>
        <time>2015-07-13T08:11:13Z</time>
      </trkpt>
      <trkpt lat="46.608116403222084" lon="12.299286620691419">
        <ele>2293.8400000000001</ele>
        <time>2015-07-13T08:11:25Z</time>
      </trkpt>
      <trkpt lat="46.608053036034107" lon="12.299331966787577">
        <ele>2295.2800000000002</ele>
        <time>2015-07-13T08:11:37Z</time>
      </trkpt>
      <trkpt lat="46.608029650524259" lon="12.299415115267038">
        <ele>2297.21</ele>
        <time>2015-07-13T08:11:48Z</time>
      </trkpt>
      <trkpt lat="46.60798572935164" lon="12.299486109986901">
        <ele>2298.6500000000001</ele>
        <time>2015-07-13T08:11:59Z</time>
      </trkpt>
      <trkpt lat="46.607907023280859" lon="12.299544280394912">
        <ele>2300.5700000000002</ele>
        <time>2015-07-13T08:12:12Z</time>
      </trkpt>
      <trkpt lat="46.607901491224766" lon="12.299517625942826">
        <ele>2300.5700000000002</ele>
        <time>2015-07-13T08:12:20Z</time>
      </trkpt>
      <trkpt lat="46.607864107936621" lon="12.299585686996579">
        <ele>2300.5700000000002</ele>
        <time>2015-07-13T08:12:34Z</time>
      </trkpt>
      <trkpt lat="46.607847260311246" lon="12.299651568755507">
        <ele>2301.5300000000002</ele>
        <time>2015-07-13T08:12:44Z</time>
      </trkpt>
      <trkpt lat="46.607840973883867" lon="12.299644695594907">
        <ele>2300.5700000000002</ele>
        <time>2015-07-13T08:13:00Z</time>
      </trkpt>
      <trkpt lat="46.607839381322265" lon="12.299639079719782">
        <ele>2301.0500000000002</ele>
        <time>2015-07-13T08:13:12Z</time>
      </trkpt>
      <trkpt lat="46.607832089066505" lon="12.299648299813271">
        <ele>2301.5300000000002</ele>
        <time>2015-07-13T08:13:14Z</time>
      </trkpt>
      <trkpt lat="46.607786742970347" lon="12.299658106639981">
        <ele>2300.5700000000002</ele>
        <time>2015-07-13T08:13:19Z</time>
      </trkpt>
      <trkpt lat="46.607677862048149" lon="12.299727341160178">
        <ele>2299.6100000000001</ele>
        <time>2015-07-13T08:13:30Z</time>
      </trkpt>
      <trkpt lat="46.607634192332625" lon="12.299741171300411">
        <ele>2299.6100000000001</ele>
        <time>2015-07-13T08:13:34Z</time>
      </trkpt>
      <trkpt lat="46.607480300590396" lon="12.299825996160507">
        <ele>2298.1700000000001</ele>
        <time>2015-07-13T08:13:47Z</time>
      </trkpt>
      <trkpt lat="46.607339149340987" lon="12.299890369176865">
        <ele>2298.1700000000001</ele>
        <time>2015-07-13T08:14:00Z</time>
      </trkpt>
      <trkpt lat="46.607169834896922" lon="12.299924651160836">
        <ele>2298.6500000000001</ele>
        <time>2015-07-13T08:14:15Z</time>
      </trkpt>
      <trkpt lat="46.607079897075891" lon="12.299964716657996">
        <ele>2299.6100000000001</ele>
        <time>2015-07-13T08:14:23Z</time>
      </trkpt>
      <trkpt lat="46.606968501582742" lon="12.300011571496725">
        <ele>2301.5300000000002</ele>
        <time>2015-07-13T08:14:35Z</time>
      </trkpt>
      <trkpt lat="46.60682181827724" lon="12.300038393586874">
        <ele>2303.46</ele>
        <time>2015-07-13T08:14:50Z</time>
      </trkpt>
      <trkpt lat="46.606678823009133" lon="12.300078878179193">
        <ele>2303.9400000000001</ele>
        <time>2015-07-13T08:15:03Z</time>
      </trkpt>
      <trkpt lat="46.606550076976418" lon="12.300130594521761">
        <ele>2304.9000000000001</ele>
        <time>2015-07-13T08:15:17Z</time>
      </trkpt>
      <trkpt lat="46.606433987617493" lon="12.300200248137116">
        <ele>2306.3400000000001</ele>
        <time>2015-07-13T08:15:30Z</time>
      </trkpt>
      <trkpt lat="46.606319826096296" lon="12.300273086875677">
        <ele>2307.7800000000002</ele>
        <time>2015-07-13T08:15:44Z</time>
      </trkpt>
      <trkpt lat="46.606211448088288" lon="12.300345087423921">
        <ele>2308.7399999999998</ele>
        <time>2015-07-13T08:15:56Z</time>
      </trkpt>
      <trkpt lat="46.606106171384454" lon="12.300399569794536">
        <ele>2308.2600000000002</ele>
        <time>2015-07-13T08:16:07Z</time>
      </trkpt>
      <trkpt lat="46.60597700625658" lon="12.300423290580511">
        <ele>2308.2600000000002</ele>
        <time>2015-07-13T08:16:18Z</time>
      </trkpt>
      <trkpt lat="46.605834262445569" lon="12.300391523167491">
        <ele>2310.1900000000001</ele>
        <time>2015-07-13T08:16:32Z</time>
      </trkpt>
      <trkpt lat="46.605728901922703" lon="12.300325641408563">
        <ele>2309.6999999999998</ele>
        <time>2015-07-13T08:16:45Z</time>
      </trkpt>
      <trkpt lat="46.605739379301667" lon="12.300293790176511">
        <ele>2309.6999999999998</ele>
        <time>2015-07-13T08:16:56Z</time>
      </trkpt>
      <trkpt lat="46.605718843638897" lon="12.300329245626926">
        <ele>2309.6999999999998</ele>
        <time>2015-07-13T08:17:06Z</time>
      </trkpt>
      <trkpt lat="46.605686824768782" lon="12.300332095474005">
        <ele>2309.6999999999998</ele>
        <time>2015-07-13T08:17:21Z</time>
      </trkpt>
      <trkpt lat="46.605661427602172" lon="12.300300495699048">
        <ele>2309.2199999999998</ele>
        <time>2015-07-13T08:17:26Z</time>
      </trkpt>
      <trkpt lat="46.605589846149087" lon="12.300279373303056">
        <ele>2309.6999999999998</ele>
        <time>2015-07-13T08:17:33Z</time>
      </trkpt>
      <trkpt lat="46.605480127036572" lon="12.300207121297717">
        <ele>2310.1900000000001</ele>
        <time>2015-07-13T08:17:46Z</time>
      </trkpt>
      <trkpt lat="46.605391027405858" lon="12.300246097147465">
        <ele>2312.5900000000001</ele>
        <time>2015-07-13T08:17:58Z</time>
      </trkpt>
      <trkpt lat="46.60531491972506" lon="12.300192788243294">
        <ele>2314.5100000000002</ele>
        <time>2015-07-13T08:18:09Z</time>
      </trkpt>
      <trkpt lat="46.605236046016216" lon="12.300096144899726">
        <ele>2315.9499999999998</ele>
        <time>2015-07-13T08:18:22Z</time>
      </trkpt>
      <trkpt lat="46.605156837031245" lon="12.300059515982866">
        <ele>2317.4000000000001</ele>
        <time>2015-07-13T08:18:34Z</time>
      </trkpt>
      <trkpt lat="46.605086177587509" lon="12.299955412745476">
        <ele>2319.3200000000002</ele>
        <time>2015-07-13T08:18:47Z</time>
      </trkpt>
      <trkpt lat="46.605011746287346" lon="12.299872683361173">
        <ele>2320.7600000000002</ele>
        <time>2015-07-13T08:19:00Z</time>
      </trkpt>
      <trkpt lat="46.604942847043276" lon="12.299844268709421">
        <ele>2323.1599999999999</ele>
        <time>2015-07-13T08:19:11Z</time>
      </trkpt>
      <trkpt lat="46.604881323873997" lon="12.299833120778203">
        <ele>2325.0900000000001</ele>
        <time>2015-07-13T08:19:22Z</time>
      </trkpt>
      <trkpt lat="46.604810245335102" lon="12.299790289252996">
        <ele>2327.0100000000002</ele>
        <time>2015-07-13T08:19:35Z</time>
      </trkpt>
      <trkpt lat="46.604780657216907" lon="12.299795905128121">
        <ele>2327.4899999999998</ele>
        <time>2015-07-13T08:19:40Z</time>
      </trkpt>
      <trkpt lat="46.604703459888697" lon="12.299755504354835">
        <ele>2329.4099999999999</ele>
        <time>2015-07-13T08:19:52Z</time>
      </trkpt>
      <trkpt lat="46.604627938941121" lon="12.299721138551831">
        <ele>2331.3299999999999</ele>
        <time>2015-07-13T08:20:05Z</time>
      </trkpt>
      <trkpt lat="46.604557195678353" lon="12.299713343381882">
        <ele>2333.2600000000002</ele>
        <time>2015-07-13T08:20:18Z</time>
      </trkpt>
      <trkpt lat="46.604463905096054" lon="12.299698423594236">
        <ele>2335.1799999999998</ele>
        <time>2015-07-13T08:20:32Z</time>
      </trkpt>
      <trkpt lat="46.604376649484038" lon="12.299653915688396">
        <ele>2336.6199999999999</ele>
        <time>2015-07-13T08:20:45Z</time>
      </trkpt>
      <trkpt lat="46.604342367500067" lon="12.299638073891401">
        <ele>2337.0999999999999</ele>
        <time>2015-07-13T08:20:50Z</time>
      </trkpt>
      <trkpt lat="46.604234743863344" lon="12.299558445811272">
        <ele>2337.5799999999999</ele>
        <time>2015-07-13T08:21:02Z</time>
      </trkpt>
      <trkpt lat="46.604147991165519" lon="12.299498096108437">
        <ele>2339.02</ele>
        <time>2015-07-13T08:21:14Z</time>
      </trkpt>
      <trkpt lat="46.604057131335139" lon="12.299447385594249">
        <ele>2340.4699999999998</ele>
        <time>2015-07-13T08:21:25Z</time>
      </trkpt>
      <trkpt lat="46.603916315361857" lon="12.299428107216954">
        <ele>2341.4299999999998</ele>
        <time>2015-07-13T08:21:39Z</time>
      </trkpt>
      <trkpt lat="46.603783378377557" lon="12.299420228227973">
        <ele>2341.9099999999999</ele>
        <time>2015-07-13T08:21:53Z</time>
      </trkpt>
      <trkpt lat="46.603667791932821" lon="12.299386281520128">
        <ele>2343.8299999999999</ele>
        <time>2015-07-13T08:22:05Z</time>
      </trkpt>
      <trkpt lat="46.603572322055697" lon="12.299341019243002">
        <ele>2344.79</ele>
        <time>2015-07-13T08:22:17Z</time>
      </trkpt>
      <trkpt lat="46.603542985394597" lon="12.29931847192347">
        <ele>2346.23</ele>
        <time>2015-07-13T08:22:28Z</time>
      </trkpt>
      <trkpt lat="46.603496465831995" lon="12.299343282356858">
        <ele>2346.23</ele>
        <time>2015-07-13T08:22:39Z</time>
      </trkpt>
      <trkpt lat="46.603492023423314" lon="12.299336409196258">
        <ele>2346.23</ele>
        <time>2015-07-13T08:22:40Z</time>
      </trkpt>
      <trkpt lat="46.603473164141178" lon="12.29930967092514">
        <ele>2346.23</ele>
        <time>2015-07-13T08:22:48Z</time>
      </trkpt>
      <trkpt lat="46.6034512873739" lon="12.299309922382236">
        <ele>2346.23</ele>
        <time>2015-07-13T08:22:50Z</time>
      </trkpt>
      <trkpt lat="46.603345591574907" lon="12.299298522993922">
        <ele>2347.1999999999998</ele>
        <time>2015-07-13T08:23:01Z</time>
      </trkpt>
      <trkpt lat="46.603259425610304" lon="12.299240520223975">
        <ele>2349.1199999999999</ele>
        <time>2015-07-13T08:23:12Z</time>
      </trkpt>
      <trkpt lat="46.603183150291443" lon="12.299181511625648">
        <ele>2350.5599999999999</ele>
        <time>2015-07-13T08:23:23Z</time>
      </trkpt>
      <trkpt lat="46.603153645992279" lon="12.299153516069055">
        <ele>2351.04</ele>
        <time>2015-07-13T08:23:28Z</time>
      </trkpt>
      <trkpt lat="46.603121208027005" lon="12.299028038978577">
        <ele>2353.4400000000001</ele>
        <time>2015-07-13T08:23:40Z</time>
      </trkpt>
      <trkpt lat="46.603129087015986" lon="12.299012197181582">
        <ele>2353.9299999999998</ele>
        <time>2015-07-13T08:23:41Z</time>
      </trkpt>
      <trkpt lat="46.603210475295782" lon="12.298937346786261">
        <ele>2352.96</ele>
        <time>2015-07-13T08:23:52Z</time>
      </trkpt>
      <trkpt lat="46.603221874684095" lon="12.298870207741857">
        <ele>2352.48</ele>
        <time>2015-07-13T08:23:58Z</time>
      </trkpt>
      <trkpt lat="46.603217516094446" lon="12.298742299899459">
        <ele>2352</ele>
        <time>2015-07-13T08:24:07Z</time>
      </trkpt>
      <trkpt lat="46.603156495839357" lon="12.298662839457393">
        <ele>2353.4400000000001</ele>
        <time>2015-07-13T08:24:19Z</time>
      </trkpt>
      <trkpt lat="46.603105030953884" lon="12.298641633242369">
        <ele>2353.9299999999998</ele>
        <time>2015-07-13T08:24:25Z</time>
      </trkpt>
      <trkpt lat="46.603067060932517" lon="12.298640459775925">
        <ele>2354.8899999999999</ele>
        <time>2015-07-13T08:24:39Z</time>
      </trkpt>
      <trkpt lat="46.603008136153221" lon="12.298641800880432">
        <ele>2356.8099999999999</ele>
        <time>2015-07-13T08:24:51Z</time>
      </trkpt>
      <trkpt lat="46.602928340435028" lon="12.298633251339197">
        <ele>2356.3299999999999</ele>
        <time>2015-07-13T08:25:00Z</time>
      </trkpt>
      <trkpt lat="46.602913336828351" lon="12.298617828637362">
        <ele>2356.8099999999999</ele>
        <time>2015-07-13T08:25:02Z</time>
      </trkpt>
      <trkpt lat="46.602865727618337" lon="12.298539793118834">
        <ele>2358.25</ele>
        <time>2015-07-13T08:25:10Z</time>
      </trkpt>
      <trkpt lat="46.602785848081112" lon="12.298506433144212">
        <ele>2359.21</ele>
        <time>2015-07-13T08:25:19Z</time>
      </trkpt>
      <trkpt lat="46.602768748998642" lon="12.298502661287785">
        <ele>2359.6900000000001</ele>
        <time>2015-07-13T08:25:21Z</time>
      </trkpt>
      <trkpt lat="46.602720553055406" lon="12.298384392634034">
        <ele>2359.6900000000001</ele>
        <time>2015-07-13T08:25:30Z</time>
      </trkpt>
      <trkpt lat="46.602745614945889" lon="12.298264782875776">
        <ele>2358.73</ele>
        <time>2015-07-13T08:25:37Z</time>
      </trkpt>
      <trkpt lat="46.602748213335872" lon="12.298211976885796">
        <ele>2358.73</ele>
        <time>2015-07-13T08:25:41Z</time>
      </trkpt>
      <trkpt lat="46.602698257192969" lon="12.298150034621358">
        <ele>2359.6900000000001</ele>
        <time>2015-07-13T08:25:50Z</time>
      </trkpt>
      <trkpt lat="46.602671938017011" lon="12.298138216137886">
        <ele>2359.6900000000001</ele>
        <time>2015-07-13T08:25:53Z</time>
      </trkpt>
      <trkpt lat="46.602575043216348" lon="12.298079542815685">
        <ele>2361.1399999999999</ele>
        <time>2015-07-13T08:26:05Z</time>
      </trkpt>
      <trkpt lat="46.602479992434382" lon="12.298050625249743">
        <ele>2360.6500000000001</ele>
        <time>2015-07-13T08:26:14Z</time>
      </trkpt>
      <trkpt lat="46.602368345484138" lon="12.297984827309847">
        <ele>2361.1399999999999</ele>
        <time>2015-07-13T08:26:26Z</time>
      </trkpt>
      <trkpt lat="46.602293746545911" lon="12.297937469556928">
        <ele>2361.6199999999999</ele>
        <time>2015-07-13T08:26:35Z</time>
      </trkpt>
      <trkpt lat="46.60223163664341" lon="12.297802353277802">
        <ele>2362.5799999999999</ele>
        <time>2015-07-13T08:26:46Z</time>
      </trkpt>
      <trkpt lat="46.602196181192994" lon="12.297771004959941">
        <ele>2363.0599999999999</ele>
        <time>2015-07-13T08:26:58Z</time>
      </trkpt>
      <trkpt lat="46.602119402959943" lon="12.297627087682486">
        <ele>2362.5799999999999</ele>
        <time>2015-07-13T08:27:12Z</time>
      </trkpt>
      <trkpt lat="46.602170532569289" lon="12.297509154304862">
        <ele>2361.6199999999999</ele>
        <time>2015-07-13T08:27:22Z</time>
      </trkpt>
      <trkpt lat="46.602178160101175" lon="12.297501526772976">
        <ele>2361.6199999999999</ele>
        <time>2015-07-13T08:27:27Z</time>
      </trkpt>
      <trkpt lat="46.602256782352924" lon="12.297455845400691">
        <ele>2361.1399999999999</ele>
        <time>2015-07-13T08:27:35Z</time>
      </trkpt>
      <trkpt lat="46.602280838415027" lon="12.297450732439756">
        <ele>2361.1399999999999</ele>
        <time>2015-07-13T08:27:37Z</time>
      </trkpt>
      <trkpt lat="46.602382427081466" lon="12.297349479049444">
        <ele>2358.73</ele>
        <time>2015-07-13T08:27:50Z</time>
      </trkpt>
      <trkpt lat="46.602400364354253" lon="12.297315699979663">
        <ele>2358.25</ele>
        <time>2015-07-13T08:27:53Z</time>
      </trkpt>
      <trkpt lat="46.602415535598993" lon="12.297258619219065">
        <ele>2357.29</ele>
        <time>2015-07-13T08:27:58Z</time>
      </trkpt>
      <trkpt lat="46.602488374337554" lon="12.297195419669151">
        <ele>2355.3699999999999</ele>
        <time>2015-07-13T08:28:07Z</time>
      </trkpt>
      <trkpt lat="46.60250530578196" lon="12.29716457426548">
        <ele>2354.4099999999999</ele>
        <time>2015-07-13T08:28:10Z</time>
      </trkpt>
      <trkpt lat="46.602508239448071" lon="12.297105481848121">
        <ele>2353.4400000000001</ele>
        <time>2015-07-13T08:28:14Z</time>
      </trkpt>
      <trkpt lat="46.602552831172943" lon="12.29697497561574">
        <ele>2351.52</ele>
        <time>2015-07-13T08:28:25Z</time>
      </trkpt>
      <trkpt lat="46.602571522817016" lon="12.296964414417744">
        <ele>2351.04</ele>
        <time>2015-07-13T08:28:27Z</time>
      </trkpt>
      <trkpt lat="46.60263673402369" lon="12.296939603984356">
        <ele>2350.0799999999999</ele>
        <time>2015-07-13T08:28:34Z</time>
      </trkpt>
      <trkpt lat="46.602695910260081" lon="12.296901885420084">
        <ele>2349.1199999999999</ele>
        <time>2015-07-13T08:28:39Z</time>
      </trkpt>
      <trkpt lat="46.60275693051517" lon="12.296753525733948">
        <ele>2348.1599999999999</ele>
        <time>2015-07-13T08:28:50Z</time>
      </trkpt>
      <trkpt lat="46.602712674066424" lon="12.296592006459832">
        <ele>2349.1199999999999</ele>
        <time>2015-07-13T08:29:02Z</time>
      </trkpt>
      <trkpt lat="46.602697419002652" lon="12.296494273468852">
        <ele>2348.6399999999999</ele>
        <time>2015-07-13T08:29:08Z</time>
      </trkpt>
      <trkpt lat="46.60262499935925" lon="12.296338202431798">
        <ele>2348.1599999999999</ele>
        <time>2015-07-13T08:29:20Z</time>
      </trkpt>
      <trkpt lat="46.602596584707499" lon="12.296177102252841">
        <ele>2347.6799999999998</ele>
        <time>2015-07-13T08:29:32Z</time>
      </trkpt>
      <trkpt lat="46.602586023509502" lon="12.29606713168323">
        <ele>2346.7199999999998</ele>
        <time>2015-07-13T08:29:41Z</time>
      </trkpt>
      <trkpt lat="46.602568421512842" lon="12.29604022577405">
        <ele>2346.7199999999998</ele>
        <time>2015-07-13T08:29:44Z</time>
      </trkpt>
      <trkpt lat="46.602505054324865" lon="12.296001585200429">
        <ele>2346.23</ele>
        <time>2015-07-13T08:29:55Z</time>
      </trkpt>
      <trkpt lat="46.602450152859092" lon="12.296003261581063">
        <ele>2345.27</ele>
        <time>2015-07-13T08:30:01Z</time>
      </trkpt>
      <trkpt lat="46.602420900017023" lon="12.296004518866539">
        <ele>2344.3099999999999</ele>
        <time>2015-07-13T08:30:04Z</time>
      </trkpt>
      <trkpt lat="46.602281341329217" lon="12.29600845836103">
        <ele>2341.9099999999999</ele>
        <time>2015-07-13T08:30:16Z</time>
      </trkpt>
      <trkpt lat="46.602124515920877" lon="12.295952551066875">
        <ele>2339.5100000000002</ele>
        <time>2015-07-13T08:30:31Z</time>
      </trkpt>
      <trkpt lat="46.602023178711534" lon="12.295876443386078">
        <ele>2338.0599999999999</ele>
        <time>2015-07-13T08:30:43Z</time>
      </trkpt>
      <trkpt lat="46.601978922262788" lon="12.295846184715629">
        <ele>2338.0599999999999</ele>
        <time>2015-07-13T08:30:48Z</time>
      </trkpt>
      <trkpt lat="46.601848416030407" lon="12.29580519720912">
        <ele>2334.6999999999998</ele>
        <time>2015-07-13T08:31:00Z</time>
      </trkpt>
      <trkpt lat="46.601695865392685" lon="12.295751972123981">
        <ele>2331.8099999999999</ele>
        <time>2015-07-13T08:31:14Z</time>
      </trkpt>
      <trkpt lat="46.60166242159903" lon="12.295706961303949">
        <ele>2331.3299999999999</ele>
        <time>2015-07-13T08:31:18Z</time>
      </trkpt>
      <trkpt lat="46.601578099653125" lon="12.295638229697943">
        <ele>2331.3299999999999</ele>
        <time>2015-07-13T08:31:26Z</time>
      </trkpt>
      <trkpt lat="46.601554043591022" lon="12.29562196880579">
        <ele>2328.9299999999998</ele>
        <time>2015-07-13T08:31:28Z</time>
      </trkpt>
      <trkpt lat="46.601456059142947" lon="12.295553321018815">
        <ele>2329.4099999999999</ele>
        <time>2015-07-13T08:31:38Z</time>
      </trkpt>
      <trkpt lat="46.601383304223418" lon="12.295477548614144">
        <ele>2328.4499999999998</ele>
        <time>2015-07-13T08:31:47Z</time>
      </trkpt>
      <trkpt lat="46.601356817409396" lon="12.295382246375084">
        <ele>2327.4899999999998</ele>
        <time>2015-07-13T08:31:55Z</time>
      </trkpt>
      <trkpt lat="46.601344998925924" lon="12.295223074033856">
        <ele>2327.9699999999998</ele>
        <time>2015-07-13T08:32:06Z</time>
      </trkpt>
      <trkpt lat="46.601352961733937" lon="12.295196838676929">
        <ele>2327.9699999999998</ele>
        <time>2015-07-13T08:32:09Z</time>
      </trkpt>
      <trkpt lat="46.601363103836775" lon="12.295007994398475">
        <ele>2330.3699999999999</ele>
        <time>2015-07-13T08:32:22Z</time>
      </trkpt>
      <trkpt lat="46.601374838501215" lon="12.294953092932701">
        <ele>2330.8499999999999</ele>
        <time>2015-07-13T08:32:28Z</time>
      </trkpt>
      <trkpt lat="46.601379029452801" lon="12.294828034937382">
        <ele>2331.8099999999999</ele>
        <time>2015-07-13T08:32:36Z</time>
      </trkpt>
      <trkpt lat="46.601365199312568" lon="12.294742288067937">
        <ele>2331.8099999999999</ele>
        <time>2015-07-13T08:32:45Z</time>
      </trkpt>
      <trkpt lat="46.601336030289531" lon="12.29472485370934">
        <ele>2333.2600000000002</ele>
        <time>2015-07-13T08:32:56Z</time>
      </trkpt>
      <trkpt lat="46.601314740255475" lon="12.294733067974448">
        <ele>2333.7399999999998</ele>
        <time>2015-07-13T08:33:10Z</time>
      </trkpt>
      <trkpt lat="46.601312309503555" lon="12.294729631394148">
        <ele>2333.2600000000002</ele>
        <time>2015-07-13T08:33:25Z</time>
      </trkpt>
      <trkpt lat="46.601303173229098" lon="12.29472435079515">
        <ele>2333.7399999999998</ele>
        <time>2015-07-13T08:33:45Z</time>
      </trkpt>
      <trkpt lat="46.601279368624091" lon="12.294725691899657">
        <ele>2333.7399999999998</ele>
        <time>2015-07-13T08:34:04Z</time>
      </trkpt>
      <trkpt lat="46.601298563182354" lon="12.294726613909006">
        <ele>2333.7399999999998</ele>
        <time>2015-07-13T08:34:22Z</time>
      </trkpt>
      <trkpt lat="46.601275345310569" lon="12.294722590595484">
        <ele>2333.7399999999998</ele>
        <time>2015-07-13T08:34:39Z</time>
      </trkpt>
      <trkpt lat="46.601288001984358" lon="12.294734911993146">
        <ele>2333.7399999999998</ele>
        <time>2015-07-13T08:34:57Z</time>
      </trkpt>
      <trkpt lat="46.601307783275843" lon="12.294728457927704">
        <ele>2333.7399999999998</ele>
        <time>2015-07-13T08:35:19Z</time>
      </trkpt>
      <trkpt lat="46.601300155743957" lon="12.294732565060258">
        <ele>2333.7399999999998</ele>
        <time>2015-07-13T08:35:36Z</time>
      </trkpt>
      <trkpt lat="46.601292192935944" lon="12.29475368745625">
        <ele>2333.7399999999998</ele>
        <time>2015-07-13T08:35:54Z</time>
      </trkpt>
      <trkpt lat="46.601317338645458" lon="12.294759219512343">
        <ele>2333.7399999999998</ele>
        <time>2015-07-13T08:36:17Z</time>
      </trkpt>
      <trkpt lat="46.601298060268164" lon="12.294744970276952">
        <ele>2333.2600000000002</ele>
        <time>2015-07-13T08:36:32Z</time>
      </trkpt>
      <trkpt lat="46.601272244006395" lon="12.294720830395818">
        <ele>2333.7399999999998</ele>
        <time>2015-07-13T08:36:47Z</time>
      </trkpt>
      <trkpt lat="46.601270316168666" lon="12.294750334694982">
        <ele>2331.8099999999999</ele>
        <time>2015-07-13T08:36:55Z</time>
      </trkpt>
      <trkpt lat="46.601337706670165" lon="12.294733822345734">
        <ele>2332.3000000000002</ele>
        <time>2015-07-13T08:37:26Z</time>
      </trkpt>
      <trkpt lat="46.601473409682512" lon="12.294760812073946">
        <ele>2332.3000000000002</ele>
        <time>2015-07-13T08:37:51Z</time>
      </trkpt>
      <trkpt lat="46.601535603404045" lon="12.294747568666935">
        <ele>2332.3000000000002</ele>
        <time>2015-07-13T08:38:13Z</time>
      </trkpt>
      <trkpt lat="46.601545074954629" lon="12.294741617515683">
        <ele>2332.3000000000002</ele>
        <time>2015-07-13T08:38:33Z</time>
      </trkpt>
      <trkpt lat="46.601406438276172" lon="12.294769613072276">
        <ele>2331.8099999999999</ele>
        <time>2015-07-13T08:38:57Z</time>
      </trkpt>
      <trkpt lat="46.601366372779012" lon="12.294769948348403">
        <ele>2331.8099999999999</ele>
        <time>2015-07-13T08:39:19Z</time>
      </trkpt>
      <trkpt lat="46.60131549462676" lon="12.294797524809837">
        <ele>2331.8099999999999</ele>
        <time>2015-07-13T08:39:43Z</time>
      </trkpt>
      <trkpt lat="46.601310297846794" lon="12.294788137078285">
        <ele>2328.4499999999998</ele>
        <time>2015-07-13T08:39:46Z</time>
      </trkpt>
      <trkpt lat="46.601309459656477" lon="12.294786125421524">
        <ele>2334.2199999999998</ele>
        <time>2015-07-13T08:39:47Z</time>
      </trkpt>
      <trkpt lat="46.60126612521708" lon="12.294763745740056">
        <ele>2332.3000000000002</ele>
        <time>2015-07-13T08:40:17Z</time>
      </trkpt>
      <trkpt lat="46.601271573454142" lon="12.294783610850573">
        <ele>2332.3000000000002</ele>
        <time>2015-07-13T08:40:46Z</time>
      </trkpt>
      <trkpt lat="46.601293785497546" lon="12.294768858700991">
        <ele>2332.3000000000002</ele>
        <time>2015-07-13T08:41:21Z</time>
      </trkpt>
      <trkpt lat="46.601232932880521" lon="12.294789729639888">
        <ele>2332.3000000000002</ele>
        <time>2015-07-13T08:41:48Z</time>
      </trkpt>
      <trkpt lat="46.601254055276513" lon="12.294810516759753">
        <ele>2332.3000000000002</ele>
        <time>2015-07-13T08:42:09Z</time>
      </trkpt>
      <trkpt lat="46.601284481585026" lon="12.294822838157415">
        <ele>2332.3000000000002</ele>
        <time>2015-07-13T08:42:35Z</time>
      </trkpt>
      <trkpt lat="46.601275932043791" lon="12.294820742681623">
        <ele>2332.3000000000002</ele>
        <time>2015-07-13T08:43:01Z</time>
      </trkpt>
      <trkpt lat="46.60132672637701" lon="12.294830633327365">
        <ele>2332.3000000000002</ele>
        <time>2015-07-13T08:43:30Z</time>
      </trkpt>
      <trkpt lat="46.601344328373671" lon="12.294843960553408">
        <ele>2332.3000000000002</ele>
        <time>2015-07-13T08:43:56Z</time>
      </trkpt>
      <trkpt lat="46.601352877914906" lon="12.294847900047898">
        <ele>2332.3000000000002</ele>
        <time>2015-07-13T08:44:22Z</time>
      </trkpt>
      <trkpt lat="46.601330498233438" lon="12.294854437932372">
        <ele>2332.3000000000002</ele>
        <time>2015-07-13T08:44:44Z</time>
      </trkpt>
      <trkpt lat="46.601281883195043" lon="12.294854689389467">
        <ele>2332.3000000000002</ele>
        <time>2015-07-13T08:45:05Z</time>
      </trkpt>
      <trkpt lat="46.601216839626431" lon="12.294853599742055">
        <ele>2332.3000000000002</ele>
        <time>2015-07-13T08:45:26Z</time>
      </trkpt>
      <trkpt lat="46.601162776350975" lon="12.29485577903688">
        <ele>2332.3000000000002</ele>
        <time>2015-07-13T08:45:41Z</time>
      </trkpt>
      <trkpt lat="46.601141318678856" lon="12.294850833714008">
        <ele>2332.3000000000002</ele>
        <time>2015-07-13T08:46:04Z</time>
      </trkpt>
      <trkpt lat="46.601101337000728" lon="12.29483725503087">
        <ele>2332.3000000000002</ele>
        <time>2015-07-13T08:46:27Z</time>
      </trkpt>
      <trkpt lat="46.601136457175016" lon="12.294845301657915">
        <ele>2332.3000000000002</ele>
        <time>2015-07-13T08:46:52Z</time>
      </trkpt>
      <trkpt lat="46.601142408326268" lon="12.294854437932372">
        <ele>2332.7800000000002</ele>
        <time>2015-07-13T08:47:10Z</time>
      </trkpt>
      <trkpt lat="46.601242907345295" lon="12.294849157333374">
        <ele>2332.7800000000002</ele>
        <time>2015-07-13T08:47:34Z</time>
      </trkpt>
      <trkpt lat="46.601221198216081" lon="12.294845385476947">
        <ele>2332.7800000000002</ele>
        <time>2015-07-13T08:47:53Z</time>
      </trkpt>
      <trkpt lat="46.601218180730939" lon="12.294841948896646">
        <ele>2332.3000000000002</ele>
        <time>2015-07-13T08:48:15Z</time>
      </trkpt>
      <trkpt lat="46.601252881810069" lon="12.294831974431872">
        <ele>2333.2600000000002</ele>
        <time>2015-07-13T08:48:33Z</time>
      </trkpt>
      <trkpt lat="46.60122899338603" lon="12.29480448178947">
        <ele>2337.5799999999999</ele>
        <time>2015-07-13T08:48:38Z</time>
      </trkpt>
      <trkpt lat="46.601239470764995" lon="12.294788304716349">
        <ele>2333.2600000000002</ele>
        <time>2015-07-13T08:48:39Z</time>
      </trkpt>
      <trkpt lat="46.601297054439783" lon="12.29474195279181">
        <ele>2333.7399999999998</ele>
        <time>2015-07-13T08:49:01Z</time>
      </trkpt>
      <trkpt lat="46.601292612031102" lon="12.294711945578456">
        <ele>2333.7399999999998</ele>
        <time>2015-07-13T08:49:10Z</time>
      </trkpt>
      <trkpt lat="46.601281380280852" lon="12.294697025790811">
        <ele>2333.7399999999998</ele>
        <time>2015-07-13T08:49:25Z</time>
      </trkpt>
      <trkpt lat="46.601290432736278" lon="12.294679004698992">
        <ele>2334.2199999999998</ele>
        <time>2015-07-13T08:49:40Z</time>
      </trkpt>
      <trkpt lat="46.601290935650468" lon="12.294660229235888">
        <ele>2334.6999999999998</ele>
        <time>2015-07-13T08:49:53Z</time>
      </trkpt>
      <trkpt lat="46.601282889023423" lon="12.294664504006505">
        <ele>2334.6999999999998</ele>
        <time>2015-07-13T08:50:11Z</time>
      </trkpt>
      <trkpt lat="46.601272998377681" lon="12.294610859826207">
        <ele>2335.1799999999998</ele>
        <time>2015-07-13T08:50:22Z</time>
      </trkpt>
      <trkpt lat="46.60126076079905" lon="12.294584792107344">
        <ele>2335.6599999999999</ele>
        <time>2015-07-13T08:50:29Z</time>
      </trkpt>
      <trkpt lat="46.601218599826097" lon="12.294573895633221">
        <ele>2335.6599999999999</ele>
        <time>2015-07-13T08:50:39Z</time>
      </trkpt>
      <trkpt lat="46.601214576512575" lon="12.294583953917027">
        <ele>2335.6599999999999</ele>
        <time>2015-07-13T08:50:59Z</time>
      </trkpt>
      <trkpt lat="46.601213570684195" lon="12.294588983058929">
        <ele>2335.6599999999999</ele>
        <time>2015-07-13T08:51:19Z</time>
      </trkpt>
      <trkpt lat="46.601218851283193" lon="12.29458948597312">
        <ele>2335.6599999999999</ele>
        <time>2015-07-13T08:51:31Z</time>
      </trkpt>
      <trkpt lat="46.601210553199053" lon="12.294603735208511">
        <ele>2336.1399999999999</ele>
        <time>2015-07-13T08:51:51Z</time>
      </trkpt>
      <trkpt lat="46.60119186155498" lon="12.294593090191483">
        <ele>2336.1399999999999</ele>
        <time>2015-07-13T08:52:10Z</time>
      </trkpt>
      <trkpt lat="46.601189179345965" lon="12.294593257829547">
        <ele>2336.1399999999999</ele>
        <time>2015-07-13T08:52:29Z</time>
      </trkpt>
      <trkpt lat="46.601196136325598" lon="12.294561238959432">
        <ele>2336.6199999999999</ele>
        <time>2015-07-13T08:52:52Z</time>
      </trkpt>
      <trkpt lat="46.601194879040122" lon="12.29453768581152">
        <ele>2336.6199999999999</ele>
        <time>2015-07-13T08:53:14Z</time>
      </trkpt>
      <trkpt lat="46.601174594834447" lon="12.294502984732389">
        <ele>2337.0999999999999</ele>
        <time>2015-07-13T08:53:30Z</time>
      </trkpt>
      <trkpt lat="46.601182809099555" lon="12.294472893700004">
        <ele>2337.0999999999999</ele>
        <time>2015-07-13T08:53:45Z</time>
      </trkpt>
      <trkpt lat="46.60123972222209" lon="12.294421764090657">
        <ele>2337.0999999999999</ele>
        <time>2015-07-13T08:53:57Z</time>
      </trkpt>
      <trkpt lat="46.601257994771004" lon="12.294375328347087">
        <ele>2336.1399999999999</ele>
        <time>2015-07-13T08:54:09Z</time>
      </trkpt>
      <trkpt lat="46.601275177672505" lon="12.294320678338408">
        <ele>2335.1799999999998</ele>
        <time>2015-07-13T08:54:17Z</time>
      </trkpt>
      <trkpt lat="46.601280877366662" lon="12.294301399961114">
        <ele>2335.1799999999998</ele>
        <time>2015-07-13T08:54:29Z</time>
      </trkpt>
      <trkpt lat="46.601278614252806" lon="12.294291760772467">
        <ele>2334.6999999999998</ele>
        <time>2015-07-13T08:54:39Z</time>
      </trkpt>
      <trkpt lat="46.601279620081186" lon="12.294264435768127">
        <ele>2334.6999999999998</ele>
        <time>2015-07-13T08:54:52Z</time>
      </trkpt>
      <trkpt lat="46.601268639788032" lon="12.294242894276977">
        <ele>2334.6999999999998</ele>
        <time>2015-07-13T08:55:03Z</time>
      </trkpt>
      <trkpt lat="46.601268472149968" lon="12.294222107157111">
        <ele>2334.6999999999998</ele>
        <time>2015-07-13T08:55:12Z</time>
      </trkpt>
      <trkpt lat="46.601250199601054" lon="12.29422302916646">
        <ele>2334.2199999999998</ele>
        <time>2015-07-13T08:55:22Z</time>
      </trkpt>
      <trkpt lat="46.601216504350305" lon="12.294200984761119">
        <ele>2332.7800000000002</ele>
        <time>2015-07-13T08:55:32Z</time>
      </trkpt>
      <trkpt lat="46.601243410259485" lon="12.294169217348099">
        <ele>2331.8099999999999</ele>
        <time>2015-07-13T08:55:42Z</time>
      </trkpt>
      <trkpt lat="46.601215582340956" lon="12.294172737747431">
        <ele>2330.3699999999999</ele>
        <time>2015-07-13T08:55:48Z</time>
      </trkpt>
      <trkpt lat="46.601152718067169" lon="12.294140551239252">
        <ele>2328.4499999999998</ele>
        <time>2015-07-13T08:55:58Z</time>
      </trkpt>
      <trkpt lat="46.601133104413748" lon="12.294100653380156">
        <ele>2327.4899999999998</ele>
        <time>2015-07-13T08:56:08Z</time>
      </trkpt>
      <trkpt lat="46.601111479103565" lon="12.294073328375816">
        <ele>2326.5300000000002</ele>
        <time>2015-07-13T08:56:19Z</time>
      </trkpt>
      <trkpt lat="46.601120950654149" lon="12.294055977836251">
        <ele>2326.0500000000002</ele>
        <time>2015-07-13T08:56:25Z</time>
      </trkpt>
      <trkpt lat="46.601093374192715" lon="12.294068299233913">
        <ele>2325.5700000000002</ele>
        <time>2015-07-13T08:56:35Z</time>
      </trkpt>
      <trkpt lat="46.601075101643801" lon="12.294055726379156">
        <ele>2324.1199999999999</ele>
        <time>2015-07-13T08:56:46Z</time>
      </trkpt>
      <trkpt lat="46.601052051410079" lon="12.294033598154783">
        <ele>2322.6799999999998</ele>
        <time>2015-07-13T08:56:52Z</time>
      </trkpt>
      <trkpt lat="46.60091676749289" lon="12.293976182118058">
        <ele>2322.1999999999998</ele>
        <time>2015-07-13T08:57:05Z</time>
      </trkpt>
      <trkpt lat="46.600860608741641" lon="12.293934272602201">
        <ele>2322.6799999999998</ele>
        <time>2015-07-13T08:57:16Z</time>
      </trkpt>
      <trkpt lat="46.600720044225454" lon="12.2938531357795">
        <ele>2322.1999999999998</ele>
        <time>2015-07-13T08:57:29Z</time>
      </trkpt>
      <trkpt lat="46.600605631247163" lon="12.293737884610891">
        <ele>2322.1999999999998</ele>
        <time>2015-07-13T08:57:43Z</time>
      </trkpt>
      <trkpt lat="46.600589537993073" lon="12.293710391968489">
        <ele>2321.7199999999998</ele>
        <time>2015-07-13T08:57:56Z</time>
      </trkpt>
      <trkpt lat="46.600567745044827" lon="12.293683318421245">
        <ele>2320.7600000000002</ele>
        <time>2015-07-13T08:58:04Z</time>
      </trkpt>
      <trkpt lat="46.600536061450839" lon="12.293674014508724">
        <ele>2320.2800000000002</ele>
        <time>2015-07-13T08:58:07Z</time>
      </trkpt>
      <trkpt lat="46.600484596565366" lon="12.293574521318078">
        <ele>2319.3200000000002</ele>
        <time>2015-07-13T08:58:20Z</time>
      </trkpt>
      <trkpt lat="46.600475208833814" lon="12.293522469699383">
        <ele>2318.3600000000001</ele>
        <time>2015-07-13T08:58:28Z</time>
      </trkpt>
      <trkpt lat="46.600473951548338" lon="12.293518278747797">
        <ele>2318.3600000000001</ele>
        <time>2015-07-13T08:58:43Z</time>
      </trkpt>
      <trkpt lat="46.600426593795419" lon="12.293533198535442">
        <ele>2317.8800000000001</ele>
        <time>2015-07-13T08:58:56Z</time>
      </trkpt>
      <trkpt lat="46.600344283506274" lon="12.293501514941454">
        <ele>2317.8800000000001</ele>
        <time>2015-07-13T08:59:06Z</time>
      </trkpt>
      <trkpt lat="46.600225176662207" lon="12.293231450021267">
        <ele>2318.8400000000001</ele>
        <time>2015-07-13T08:59:36Z</time>
      </trkpt>
      <trkpt lat="46.600259877741337" lon="12.293286267668009">
        <ele>2317.4000000000001</ele>
        <time>2015-07-13T08:59:51Z</time>
      </trkpt>
      <trkpt lat="46.600481327623129" lon="12.293478883802891">
        <ele>2318.3600000000001</ele>
        <time>2015-07-13T09:00:03Z</time>
      </trkpt>
      <trkpt lat="46.600468922406435" lon="12.293453570455313">
        <ele>2318.3600000000001</ele>
        <time>2015-07-13T09:00:05Z</time>
      </trkpt>
      <trkpt lat="46.600429276004434" lon="12.293372349813581">
        <ele>2317.4000000000001</ele>
        <time>2015-07-13T09:00:11Z</time>
      </trkpt>
      <trkpt lat="46.60033673979342" lon="12.293234299868345">
        <ele>2316.9099999999999</ele>
        <time>2015-07-13T09:00:24Z</time>
      </trkpt>
      <trkpt lat="46.600305894389749" lon="12.293165819719434">
        <ele>2317.4000000000001</ele>
        <time>2015-07-13T09:00:29Z</time>
      </trkpt>
      <trkpt lat="46.600278653204441" lon="12.293124664574862">
        <ele>2317.4000000000001</ele>
        <time>2015-07-13T09:00:33Z</time>
      </trkpt>
      <trkpt lat="46.60023657605052" lon="12.29300681501627">
        <ele>2316.4299999999998</ele>
        <time>2015-07-13T09:00:41Z</time>
      </trkpt>
      <trkpt lat="46.600235486403108" lon="12.29288904927671">
        <ele>2314.0300000000002</ele>
        <time>2015-07-13T09:00:48Z</time>
      </trkpt>
      <trkpt lat="46.60019407980144" lon="12.292711604386568">
        <ele>2312.5900000000001</ele>
        <time>2015-07-13T09:00:59Z</time>
      </trkpt>
      <trkpt lat="46.600158456712961" lon="12.292555030435324">
        <ele>2314.0300000000002</ele>
        <time>2015-07-13T09:01:09Z</time>
      </trkpt>
      <trkpt lat="46.60012417472899" lon="12.292347745969892">
        <ele>2313.5500000000002</ele>
        <time>2015-07-13T09:01:20Z</time>
      </trkpt>
      <trkpt lat="46.600115709006786" lon="12.292082123458385">
        <ele>2313.5500000000002</ele>
        <time>2015-07-13T09:01:33Z</time>
      </trkpt>
      <trkpt lat="46.60008804872632" lon="12.292023617774248">
        <ele>2314.5100000000002</ele>
        <time>2015-07-13T09:01:44Z</time>
      </trkpt>
      <trkpt lat="46.600099615752697" lon="12.291979361325502">
        <ele>2313.5500000000002</ele>
        <time>2015-07-13T09:01:48Z</time>
      </trkpt>
      <trkpt lat="46.600096430629492" lon="12.291932422667742">
        <ele>2315.4699999999998</ele>
        <time>2015-07-13T09:01:51Z</time>
      </trkpt>
      <trkpt lat="46.600094418972731" lon="12.291859081014991">
        <ele>2313.5500000000002</ele>
        <time>2015-07-13T09:01:55Z</time>
      </trkpt>
      <trkpt lat="46.600085869431496" lon="12.291783476248384">
        <ele>2313.5500000000002</ele>
        <time>2015-07-13T09:01:59Z</time>
      </trkpt>
      <trkpt lat="46.600083606317639" lon="12.291702087968588">
        <ele>2312.5900000000001</ele>
        <time>2015-07-13T09:02:05Z</time>
      </trkpt>
      <trkpt lat="46.600021161139011" lon="12.291649701073766">
        <ele>2312.1100000000001</ele>
        <time>2015-07-13T09:02:16Z</time>
      </trkpt>
      <trkpt lat="46.599979754537344" lon="12.291614413261414">
        <ele>2313.0700000000002</ele>
        <time>2015-07-13T09:02:27Z</time>
      </trkpt>
      <trkpt lat="46.599957793951035" lon="12.291623381897807">
        <ele>2312.5900000000001</ele>
        <time>2015-07-13T09:02:39Z</time>
      </trkpt>
      <trkpt lat="46.599933067336679" lon="12.291616927832365">
        <ele>2312.5900000000001</ele>
        <time>2015-07-13T09:02:45Z</time>
      </trkpt>
      <trkpt lat="46.599846398457885" lon="12.291644504293799">
        <ele>2310.6700000000001</ele>
        <time>2015-07-13T09:02:56Z</time>
      </trkpt>
      <trkpt lat="46.599813709035516" lon="12.291635703295469">
        <ele>2309.6999999999998</ele>
        <time>2015-07-13T09:03:00Z</time>
      </trkpt>
      <trkpt lat="46.599775152280927" lon="12.291629249230027">
        <ele>2309.2199999999998</ele>
        <time>2015-07-13T09:03:05Z</time>
      </trkpt>
      <trkpt lat="46.599705582484603" lon="12.291551968082786">
        <ele>2307.3000000000002</ele>
        <time>2015-07-13T09:03:16Z</time>
      </trkpt>
      <trkpt lat="46.599661158397794" lon="12.291502179577947">
        <ele>2305.3800000000001</ele>
        <time>2015-07-13T09:03:25Z</time>
      </trkpt>
      <trkpt lat="46.599628468975425" lon="12.291483571752906">
        <ele>2304.4200000000001</ele>
        <time>2015-07-13T09:03:29Z</time>
      </trkpt>
      <trkpt lat="46.599591756239533" lon="12.291400507092476">
        <ele>2303.9400000000001</ele>
        <time>2015-07-13T09:03:42Z</time>
      </trkpt>
      <trkpt lat="46.599618662148714" lon="12.291352730244398">
        <ele>2305.3800000000001</ele>
        <time>2015-07-13T09:03:52Z</time>
      </trkpt>
      <trkpt lat="46.599584463983774" lon="12.291333535686135">
        <ele>2304.9000000000001</ele>
        <time>2015-07-13T09:04:09Z</time>
      </trkpt>
      <trkpt lat="46.599566861987114" lon="12.29143688455224">
        <ele>2303.46</ele>
        <time>2015-07-13T09:04:21Z</time>
      </trkpt>
      <trkpt lat="46.599616231396794" lon="12.291466807946563">
        <ele>2303.9400000000001</ele>
        <time>2015-07-13T09:04:31Z</time>
      </trkpt>
      <trkpt lat="46.599592426791787" lon="12.29144811630249">
        <ele>2303.9400000000001</ele>
        <time>2015-07-13T09:04:40Z</time>
      </trkpt>
      <trkpt lat="46.599557641893625" lon="12.291463874280453">
        <ele>2303.9400000000001</ele>
        <time>2015-07-13T09:04:49Z</time>
      </trkpt>
      <trkpt lat="46.599628636613488" lon="12.291479464620352">
        <ele>2303.9400000000001</ele>
        <time>2015-07-13T09:05:09Z</time>
      </trkpt>
      <trkpt lat="46.599629307165742" lon="12.29147594422102">
        <ele>2304.4200000000001</ele>
        <time>2015-07-13T09:05:30Z</time>
      </trkpt>
      <trkpt lat="46.599557809531689" lon="12.291406122967601">
        <ele>2304.4200000000001</ele>
        <time>2015-07-13T09:05:50Z</time>
      </trkpt>
      <trkpt lat="46.599563173949718" lon="12.291299421340227">
        <ele>2305.3800000000001</ele>
        <time>2015-07-13T09:06:03Z</time>
      </trkpt>
      <trkpt lat="46.599553870037198" lon="12.291342839598656">
        <ele>2305.3800000000001</ele>
        <time>2015-07-13T09:06:14Z</time>
      </trkpt>
      <trkpt lat="46.599517576396465" lon="12.291271090507507">
        <ele>2305.3800000000001</ele>
        <time>2015-07-13T09:06:24Z</time>
      </trkpt>
      <trkpt lat="46.599470302462578" lon="12.291170423850417">
        <ele>2305.8600000000001</ele>
        <time>2015-07-13T09:06:35Z</time>
      </trkpt>
      <trkpt lat="46.599528221413493" lon="12.291026003658772">
        <ele>2306.8200000000002</ele>
        <time>2015-07-13T09:06:47Z</time>
      </trkpt>
      <trkpt lat="46.599460327997804" lon="12.291038911789656">
        <ele>2306.8200000000002</ele>
        <time>2015-07-13T09:06:55Z</time>
      </trkpt>
      <trkpt lat="46.599385309964418" lon="12.291071768850088">
        <ele>2307.3000000000002</ele>
        <time>2015-07-13T09:07:05Z</time>
      </trkpt>
      <trkpt lat="46.599368127062917" lon="12.291112169623375">
        <ele>2306.8200000000002</ele>
        <time>2015-07-13T09:07:20Z</time>
      </trkpt>
      <trkpt lat="46.599318338558078" lon="12.291064392775297">
        <ele>2306.3400000000001</ele>
        <time>2015-07-13T09:07:29Z</time>
      </trkpt>
      <trkpt lat="46.599261006340384" lon="12.29106699116528">
        <ele>2304.9000000000001</ele>
        <time>2015-07-13T09:07:39Z</time>
      </trkpt>
      <trkpt lat="46.599287493154407" lon="12.291030948981643">
        <ele>2304.4200000000001</ele>
        <time>2015-07-13T09:07:50Z</time>
      </trkpt>
      <trkpt lat="46.599309369921684" lon="12.291016196832061">
        <ele>2304.4200000000001</ele>
        <time>2015-07-13T09:08:10Z</time>
      </trkpt>
      <trkpt lat="46.599296797066927" lon="12.291018627583981">
        <ele>2304.9000000000001</ele>
        <time>2015-07-13T09:08:23Z</time>
      </trkpt>
      <trkpt lat="46.59931062720716" lon="12.291024578735232">
        <ele>2304.9000000000001</ele>
        <time>2015-07-13T09:08:42Z</time>
      </trkpt>
      <trkpt lat="46.59930475987494" lon="12.29105475358665">
        <ele>2304.9000000000001</ele>
        <time>2015-07-13T09:08:58Z</time>
      </trkpt>
      <trkpt lat="46.599327977746725" lon="12.291085598990321">
        <ele>2304.9000000000001</ele>
        <time>2015-07-13T09:09:20Z</time>
      </trkpt>
      <trkpt lat="46.599325546994805" lon="12.291113762184978">
        <ele>2304.9000000000001</ele>
        <time>2015-07-13T09:09:44Z</time>
      </trkpt>
      <trkpt lat="46.59935018979013" lon="12.291106889024377">
        <ele>2304.9000000000001</ele>
        <time>2015-07-13T09:10:03Z</time>
      </trkpt>
      <trkpt lat="46.599318338558078" lon="12.291148211807013">
        <ele>2304.9000000000001</ele>
        <time>2015-07-13T09:10:21Z</time>
      </trkpt>
      <trkpt lat="46.599313896149397" lon="12.291134046390653">
        <ele>2304.9000000000001</ele>
        <time>2015-07-13T09:10:36Z</time>
      </trkpt>
      <trkpt lat="46.59922119230032" lon="12.291085682809353">
        <ele>2303.46</ele>
        <time>2015-07-13T09:10:49Z</time>
      </trkpt>
      <trkpt lat="46.599155981093645" lon="12.290988452732563">
        <ele>2302.98</ele>
        <time>2015-07-13T09:11:01Z</time>
      </trkpt>
      <trkpt lat="46.599140390753746" lon="12.290993062779307">
        <ele>2302.4899999999998</ele>
        <time>2015-07-13T09:11:04Z</time>
      </trkpt>
      <trkpt lat="46.599075011909008" lon="12.291031954810023">
        <ele>2300.0900000000001</ele>
        <time>2015-07-13T09:11:12Z</time>
      </trkpt>
      <trkpt lat="46.599003514274955" lon="12.291035894304514">
        <ele>2299.1300000000001</ele>
        <time>2015-07-13T09:11:20Z</time>
      </trkpt>
      <trkpt lat="46.598968142643571" lon="12.291008485481143">
        <ele>2298.6500000000001</ele>
        <time>2015-07-13T09:11:31Z</time>
      </trkpt>
      <trkpt lat="46.598974261432886" lon="12.291013011708856">
        <ele>2298.1700000000001</ele>
        <time>2015-07-13T09:11:49Z</time>
      </trkpt>
      <trkpt lat="46.598968980833888" lon="12.2910141851753">
        <ele>2298.1700000000001</ele>
        <time>2015-07-13T09:12:03Z</time>
      </trkpt>
      <trkpt lat="46.598973255604506" lon="12.291027177125216">
        <ele>2298.6500000000001</ele>
        <time>2015-07-13T09:12:19Z</time>
      </trkpt>
      <trkpt lat="46.599039388820529" lon="12.2910176217556">
        <ele>2298.6500000000001</ele>
        <time>2015-07-13T09:12:33Z</time>
      </trkpt>
      <trkpt lat="46.599197052419186" lon="12.290976298972964">
        <ele>2298.6500000000001</ele>
        <time>2015-07-13T09:12:46Z</time>
      </trkpt>
      <trkpt lat="46.59917819313705" lon="12.291022483259439">
        <ele>2298.1700000000001</ele>
        <time>2015-07-13T09:13:08Z</time>
      </trkpt>
      <trkpt lat="46.598985577002168" lon="12.291213339194655">
        <ele>2296.73</ele>
        <time>2015-07-13T09:13:19Z</time>
      </trkpt>
      <trkpt lat="46.598962862044573" lon="12.291228761896491">
        <ele>2295.77</ele>
        <time>2015-07-13T09:13:27Z</time>
      </trkpt>
      <trkpt lat="46.598921958357096" lon="12.291269078850746">
        <ele>2294.8000000000002</ele>
        <time>2015-07-13T09:13:31Z</time>
      </trkpt>
      <trkpt lat="46.598864458501339" lon="12.291288441047072">
        <ele>2293.3600000000001</ele>
        <time>2015-07-13T09:13:37Z</time>
      </trkpt>
      <trkpt lat="46.598853059113026" lon="12.29130931198597">
        <ele>2292.8800000000001</ele>
        <time>2015-07-13T09:13:39Z</time>
      </trkpt>
      <trkpt lat="46.598829589784145" lon="12.291359351947904">
        <ele>2292.4000000000001</ele>
        <time>2015-07-13T09:13:52Z</time>
      </trkpt>
      <trkpt lat="46.598747698590159" lon="12.291262457147241">
        <ele>2292.4000000000001</ele>
        <time>2015-07-13T09:14:09Z</time>
      </trkpt>
      <trkpt lat="46.598776448518038" lon="12.291270084679127">
        <ele>2292.4000000000001</ele>
        <time>2015-07-13T09:14:27Z</time>
      </trkpt>
      <trkpt lat="46.598814502358437" lon="12.291335631161928">
        <ele>2292.4000000000001</ele>
        <time>2015-07-13T09:14:42Z</time>
      </trkpt>
      <trkpt lat="46.598776867613196" lon="12.291280142962933">
        <ele>2292.4000000000001</ele>
        <time>2015-07-13T09:15:03Z</time>
      </trkpt>
      <trkpt lat="46.598813412711024" lon="12.291337810456753">
        <ele>2292.8800000000001</ele>
        <time>2015-07-13T09:15:18Z</time>
      </trkpt>
      <trkpt lat="46.598747866228223" lon="12.291276454925537">
        <ele>2292.8800000000001</ele>
        <time>2015-07-13T09:15:41Z</time>
      </trkpt>
      <trkpt lat="46.598648875951767" lon="12.291168244555593">
        <ele>2292.8800000000001</ele>
        <time>2015-07-13T09:16:00Z</time>
      </trkpt>
      <trkpt lat="46.598724480718374" lon="12.29139681905508">
        <ele>2291.9200000000001</ele>
        <time>2015-07-13T09:16:15Z</time>
      </trkpt>
      <trkpt lat="46.598719200119376" lon="12.291430765762925">
        <ele>2291.4400000000001</ele>
        <time>2015-07-13T09:16:18Z</time>
      </trkpt>
      <trkpt lat="46.598700424656272" lon="12.291463706642389">
        <ele>2290.96</ele>
        <time>2015-07-13T09:16:21Z</time>
      </trkpt>
      <trkpt lat="46.598661448806524" lon="12.291479632258415">
        <ele>2289.52</ele>
        <time>2015-07-13T09:16:26Z</time>
      </trkpt>
      <trkpt lat="46.598615599796176" lon="12.291496815159917">
        <ele>2287.1100000000001</ele>
        <time>2015-07-13T09:16:37Z</time>
      </trkpt>
      <trkpt lat="46.598583580926061" lon="12.29146714322269">
        <ele>2285.1900000000001</ele>
        <time>2015-07-13T09:16:46Z</time>
      </trkpt>
      <trkpt lat="46.598563296720386" lon="12.291460270062089">
        <ele>2284.71</ele>
        <time>2015-07-13T09:16:50Z</time>
      </trkpt>
      <trkpt lat="46.598518788814545" lon="12.291452642530203">
        <ele>2283.27</ele>
        <time>2015-07-13T09:16:56Z</time>
      </trkpt>
      <trkpt lat="46.598415691405535" lon="12.291410062462091">
        <ele>2281.3499999999999</ele>
        <time>2015-07-13T09:17:08Z</time>
      </trkpt>
      <trkpt lat="46.598421223461628" lon="12.291454821825027">
        <ele>2279.4200000000001</ele>
        <time>2015-07-13T09:17:16Z</time>
      </trkpt>
      <trkpt lat="46.598548125475645" lon="12.291539562866092">
        <ele>2278.46</ele>
        <time>2015-07-13T09:17:27Z</time>
      </trkpt>
      <trkpt lat="46.598578132688999" lon="12.291581723839045">
        <ele>2276.54</ele>
        <time>2015-07-13T09:17:40Z</time>
      </trkpt>
      <trkpt lat="46.598548125475645" lon="12.291565211489797">
        <ele>2275.0999999999999</ele>
        <time>2015-07-13T09:17:50Z</time>
      </trkpt>
      <trkpt lat="46.598528511822224" lon="12.291518691927195">
        <ele>2274.6199999999999</ele>
        <time>2015-07-13T09:18:05Z</time>
      </trkpt>
      <trkpt lat="46.598497247323394" lon="12.291487343609333">
        <ele>2274.1399999999999</ele>
        <time>2015-07-13T09:18:14Z</time>
      </trkpt>
      <trkpt lat="46.598556088283658" lon="12.291528750211">
        <ele>2274.1399999999999</ele>
        <time>2015-07-13T09:18:26Z</time>
      </trkpt>
      <trkpt lat="46.598487524315715" lon="12.291529588401318">
        <ele>2273.6599999999999</ele>
        <time>2015-07-13T09:18:37Z</time>
      </trkpt>
      <trkpt lat="46.598442094400525" lon="12.291509890928864">
        <ele>2273.6599999999999</ele>
        <time>2015-07-13T09:18:49Z</time>
      </trkpt>
      <trkpt lat="46.598432622849941" lon="12.291477536782622">
        <ele>2274.1399999999999</ele>
        <time>2015-07-13T09:19:17Z</time>
      </trkpt>
      <trkpt lat="46.59847947768867" lon="12.291485164314508">
        <ele>2274.1399999999999</ele>
        <time>2015-07-13T09:19:32Z</time>
      </trkpt>
      <trkpt lat="46.598465060815215" lon="12.291524140164256">
        <ele>2273.6599999999999</ele>
        <time>2015-07-13T09:19:46Z</time>
      </trkpt>
      <trkpt lat="46.598466821014881" lon="12.291540820151567">
        <ele>2273.6599999999999</ele>
        <time>2015-07-13T09:20:05Z</time>
      </trkpt>
      <trkpt lat="46.598529936745763" lon="12.291504610329866">
        <ele>2273.6599999999999</ele>
        <time>2015-07-13T09:20:27Z</time>
      </trkpt>
      <trkpt lat="46.598453745245934" lon="12.29148181155324">
        <ele>2273.6599999999999</ele>
        <time>2015-07-13T09:20:48Z</time>
      </trkpt>
      <trkpt lat="46.59841543994844" lon="12.291513243690133">
        <ele>2273.6599999999999</ele>
        <time>2015-07-13T09:21:15Z</time>
      </trkpt>
      <trkpt lat="46.598438825458288" lon="12.291527912020683">
        <ele>2274.1399999999999</ele>
        <time>2015-07-13T09:21:35Z</time>
      </trkpt>
      <trkpt lat="46.598446369171143" lon="12.291479045525193">
        <ele>2274.1399999999999</ele>
        <time>2015-07-13T09:21:51Z</time>
      </trkpt>
      <trkpt lat="46.598418792709708" lon="12.291464125737548">
        <ele>2274.1399999999999</ele>
        <time>2015-07-13T09:22:06Z</time>
      </trkpt>
      <trkpt lat="46.598413595929742" lon="12.291514417156577">
        <ele>2274.1399999999999</ele>
        <time>2015-07-13T09:22:29Z</time>
      </trkpt>
      <trkpt lat="46.59841108135879" lon="12.291545933112502">
        <ele>2274.1399999999999</ele>
        <time>2015-07-13T09:22:43Z</time>
      </trkpt>
      <trkpt lat="46.598451314494014" lon="12.291580550372601">
        <ele>2274.1399999999999</ele>
        <time>2015-07-13T09:23:02Z</time>
      </trkpt>
      <trkpt lat="46.598406890407205" lon="12.291582729667425">
        <ele>2274.1399999999999</ele>
        <time>2015-07-13T09:23:20Z</time>
      </trkpt>
      <trkpt lat="46.598356934264302" lon="12.291573258116841">
        <ele>2274.1399999999999</ele>
        <time>2015-07-13T09:23:33Z</time>
      </trkpt>
      <trkpt lat="46.5982845146209" lon="12.29157904163003">
        <ele>2273.1700000000001</ele>
        <time>2015-07-13T09:23:49Z</time>
      </trkpt>
      <trkpt lat="46.598293986171484" lon="12.291596224531531">
        <ele>2272.21</ele>
        <time>2015-07-13T09:23:58Z</time>
      </trkpt>
      <trkpt lat="46.598354252055287" lon="12.291630422696471">
        <ele>2271.73</ele>
        <time>2015-07-13T09:24:12Z</time>
      </trkpt>
      <trkpt lat="46.598340505734086" lon="12.291616257280111">
        <ele>2270.77</ele>
        <time>2015-07-13T09:24:23Z</time>
      </trkpt>
      <trkpt lat="46.598330615088344" lon="12.291609384119511">
        <ele>2270.77</ele>
        <time>2015-07-13T09:24:34Z</time>
      </trkpt>
      <trkpt lat="46.598402950912714" lon="12.291535707190633">
        <ele>2271.25</ele>
        <time>2015-07-13T09:24:53Z</time>
      </trkpt>
      <trkpt lat="46.598341092467308" lon="12.291589099913836">
        <ele>2269.8099999999999</ele>
        <time>2015-07-13T09:25:05Z</time>
      </trkpt>
      <trkpt lat="46.598331453278661" lon="12.291655065491796">
        <ele>2269.8099999999999</ele>
        <time>2015-07-13T09:25:16Z</time>
      </trkpt>
      <trkpt lat="46.598425162956119" lon="12.291444009169936">
        <ele>2267.8899999999999</ele>
        <time>2015-07-13T09:25:25Z</time>
      </trkpt>
      <trkpt lat="46.598427761346102" lon="12.291466053575277">
        <ele>2266.4499999999998</ele>
        <time>2015-07-13T09:25:34Z</time>
      </trkpt>
      <trkpt lat="46.59839054569602" lon="12.291436465457082">
        <ele>2264.04</ele>
        <time>2015-07-13T09:25:46Z</time>
      </trkpt>
      <trkpt lat="46.598345870152116" lon="12.291461611166596">
        <ele>2263.5599999999999</ele>
        <time>2015-07-13T09:25:53Z</time>
      </trkpt>
      <trkpt lat="46.598296836018562" lon="12.291422635316849">
        <ele>2262.1199999999999</ele>
        <time>2015-07-13T09:26:03Z</time>
      </trkpt>
      <trkpt lat="46.598274623975158" lon="12.29141291230917">
        <ele>2260.6799999999998</ele>
        <time>2015-07-13T09:26:13Z</time>
      </trkpt>
      <trkpt lat="46.598237995058298" lon="12.291410397738218">
        <ele>2259.7199999999998</ele>
        <time>2015-07-13T09:26:23Z</time>
      </trkpt>
      <trkpt lat="46.598212430253625" lon="12.291392544284463">
        <ele>2258.75</ele>
        <time>2015-07-13T09:26:35Z</time>
      </trkpt>
      <trkpt lat="46.598156355321407" lon="12.291367901489139">
        <ele>2255.8699999999999</ele>
        <time>2015-07-13T09:26:47Z</time>
      </trkpt>
      <trkpt lat="46.598110590130091" lon="12.291369996964931">
        <ele>2253.9499999999998</ele>
        <time>2015-07-13T09:26:58Z</time>
      </trkpt>
      <trkpt lat="46.598077230155468" lon="12.291389275342226">
        <ele>2252.0300000000002</ele>
        <time>2015-07-13T09:27:09Z</time>
      </trkpt>
      <trkpt lat="46.598045462742448" lon="12.291408469900489">
        <ele>2250.0999999999999</ele>
        <time>2015-07-13T09:27:19Z</time>
      </trkpt>
      <trkpt lat="46.59804361872375" lon="12.291422551497817">
        <ele>2249.1399999999999</ele>
        <time>2015-07-13T09:27:31Z</time>
      </trkpt>
      <trkpt lat="46.598031632602215" lon="12.291381899267435">
        <ele>2249.1399999999999</ele>
        <time>2015-07-13T09:27:46Z</time>
      </trkpt>
      <trkpt lat="46.598030459135771" lon="12.2913474496454">
        <ele>2249.6199999999999</ele>
        <time>2015-07-13T09:28:01Z</time>
      </trkpt>
      <trkpt lat="46.598058454692364" lon="12.291328171268106">
        <ele>2249.1399999999999</ele>
        <time>2015-07-13T09:28:16Z</time>
      </trkpt>
      <trkpt lat="46.598050240427256" lon="12.291323728859425">
        <ele>2249.6199999999999</ele>
        <time>2015-07-13T09:28:35Z</time>
      </trkpt>
      <trkpt lat="46.598037499934435" lon="12.291323728859425">
        <ele>2249.1399999999999</ele>
        <time>2015-07-13T09:28:47Z</time>
      </trkpt>
      <trkpt lat="46.598029118031263" lon="12.2913249861449">
        <ele>2249.1399999999999</ele>
        <time>2015-07-13T09:29:05Z</time>
      </trkpt>
      <trkpt lat="46.598016545176506" lon="12.291319034993649">
        <ele>2249.1399999999999</ele>
        <time>2015-07-13T09:29:29Z</time>
      </trkpt>
      <trkpt lat="46.598014449700713" lon="12.291300678625703">
        <ele>2249.1399999999999</ele>
        <time>2015-07-13T09:29:56Z</time>
      </trkpt>
      <trkpt lat="46.598035153001547" lon="12.291318280622363">
        <ele>2249.1399999999999</ele>
        <time>2015-07-13T09:30:17Z</time>
      </trkpt>
      <trkpt lat="46.598044876009226" lon="12.291322303935885">
        <ele>2249.1399999999999</ele>
        <time>2015-07-13T09:30:35Z</time>
      </trkpt>
      <trkpt lat="46.598045378923416" lon="12.291293805465102">
        <ele>2249.1399999999999</ele>
        <time>2015-07-13T09:30:58Z</time>
      </trkpt>
      <trkpt lat="46.598036661744118" lon="12.2913215495646">
        <ele>2248.6599999999999</ele>
        <time>2015-07-13T09:31:16Z</time>
      </trkpt>
      <trkpt lat="46.598007660359144" lon="12.291319789364934">
        <ele>2248.1799999999998</ele>
        <time>2015-07-13T09:31:31Z</time>
      </trkpt>
      <trkpt lat="46.598034733906388" lon="12.291323645040393">
        <ele>2247.2199999999998</ele>
        <time>2015-07-13T09:31:45Z</time>
      </trkpt>
      <trkpt lat="46.598050994798541" lon="12.291281735524535">
        <ele>2247.6999999999998</ele>
        <time>2015-07-13T09:32:07Z</time>
      </trkpt>
      <trkpt lat="46.598054850474" lon="12.291295565664768">
        <ele>2246.7399999999998</ele>
        <time>2015-07-13T09:32:25Z</time>
      </trkpt>
      <trkpt lat="46.598051497712731" lon="12.291278382763267">
        <ele>2246.7399999999998</ele>
        <time>2015-07-13T09:32:38Z</time>
      </trkpt>
      <trkpt lat="46.598050072789192" lon="12.291288608685136">
        <ele>2245.7800000000002</ele>
        <time>2015-07-13T09:32:54Z</time>
      </trkpt>
      <trkpt lat="46.598063316196203" lon="12.291319873183966">
        <ele>2245.3000000000002</ele>
        <time>2015-07-13T09:33:05Z</time>
      </trkpt>
      <trkpt lat="46.59819214604795" lon="12.291778195649385">
        <ele>2245.3000000000002</ele>
        <time>2015-07-13T09:33:24Z</time>
      </trkpt>
      <trkpt lat="46.597900120541453" lon="12.29183510877192">
        <ele>2221.7399999999998</ele>
        <time>2015-07-13T09:43:10Z</time>
      </trkpt>
      <trkpt lat="46.597864748910069" lon="12.291814992204309">
        <ele>2220.3000000000002</ele>
        <time>2015-07-13T09:43:22Z</time>
      </trkpt>
      <trkpt lat="46.597873969003558" lon="12.291807951405644">
        <ele>2219.3400000000001</ele>
        <time>2015-07-13T09:43:30Z</time>
      </trkpt>
      <trkpt lat="46.59785988740623" lon="12.291804514825344">
        <ele>2219.3400000000001</ele>
        <time>2015-07-13T09:43:41Z</time>
      </trkpt>
      <trkpt lat="46.59785351715982" lon="12.291720528155565">
        <ele>2219.8200000000002</ele>
        <time>2015-07-13T09:43:59Z</time>
      </trkpt>
      <trkpt lat="46.597849074751139" lon="12.291785907000303">
        <ele>2218.8600000000001</ele>
        <time>2015-07-13T09:44:12Z</time>
      </trkpt>
      <trkpt lat="46.597826275974512" lon="12.291820859536529">
        <ele>2217.9000000000001</ele>
        <time>2015-07-13T09:44:21Z</time>
      </trkpt>
      <trkpt lat="46.597814876586199" lon="12.291831839829683">
        <ele>2217.9000000000001</ele>
        <time>2015-07-13T09:44:30Z</time>
      </trkpt>
      <trkpt lat="46.597817810252309" lon="12.29182823561132">
        <ele>2218.3800000000001</ele>
        <time>2015-07-13T09:44:52Z</time>
      </trkpt>
      <trkpt lat="46.597850751131773" lon="12.291814992204309">
        <ele>2217.4200000000001</ele>
        <time>2015-07-13T09:45:04Z</time>
      </trkpt>
      <trkpt lat="46.597869778051972" lon="12.291836952790618">
        <ele>2216.9400000000001</ele>
        <time>2015-07-13T09:45:14Z</time>
      </trkpt>
      <trkpt lat="46.597866173833609" lon="12.291835024952888">
        <ele>2216.9400000000001</ele>
        <time>2015-07-13T09:45:30Z</time>
      </trkpt>
      <trkpt lat="46.597860641777515" lon="12.291830163449049">
        <ele>2216.9400000000001</ele>
        <time>2015-07-13T09:45:44Z</time>
      </trkpt>
      <trkpt lat="46.597880842164159" lon="12.291834857314825">
        <ele>2216.9400000000001</ele>
        <time>2015-07-13T09:46:01Z</time>
      </trkpt>
      <trkpt lat="46.597859216853976" lon="12.291826391592622">
        <ele>2217.4200000000001</ele>
        <time>2015-07-13T09:46:24Z</time>
      </trkpt>
      <trkpt lat="46.59785058349371" lon="12.291836198419333">
        <ele>2217.4200000000001</ele>
        <time>2015-07-13T09:46:43Z</time>
      </trkpt>
      <trkpt lat="46.597853600978851" lon="12.291837790980935">
        <ele>2217.4200000000001</ele>
        <time>2015-07-13T09:46:58Z</time>
      </trkpt>
      <trkpt lat="46.597825521603227" lon="12.291878275573254">
        <ele>2215.5</ele>
        <time>2015-07-13T09:47:05Z</time>
      </trkpt>
      <trkpt lat="46.597775900736451" lon="12.291937787085772">
        <ele>2213.0900000000001</ele>
        <time>2015-07-13T09:47:12Z</time>
      </trkpt>
      <trkpt lat="46.59771136008203" lon="12.292006351053715">
        <ele>2210.6900000000001</ele>
        <time>2015-07-13T09:47:23Z</time>
      </trkpt>
      <trkpt lat="46.59766249358654" lon="12.292015571147203">
        <ele>2208.77</ele>
        <time>2015-07-13T09:47:32Z</time>
      </trkpt>
      <trkpt lat="46.597630307078362" lon="12.292040297761559">
        <ele>2206.3600000000001</ele>
        <time>2015-07-13T09:47:39Z</time>
      </trkpt>
      <trkpt lat="46.597602143883705" lon="12.292058235034347">
        <ele>2205.4000000000001</ele>
        <time>2015-07-13T09:47:49Z</time>
      </trkpt>
      <trkpt lat="46.597595103085041" lon="12.292056055739522">
        <ele>2204.9200000000001</ele>
        <time>2015-07-13T09:47:51Z</time>
      </trkpt>
      <trkpt lat="46.597563000395894" lon="12.292039291933179">
        <ele>2205.4000000000001</ele>
        <time>2015-07-13T09:47:54Z</time>
      </trkpt>
      <trkpt lat="46.597533412277699" lon="12.292048847302794">
        <ele>2203.96</ele>
        <time>2015-07-13T09:48:03Z</time>
      </trkpt>
      <trkpt lat="46.597521509975195" lon="12.292073657736182">
        <ele>2203.48</ele>
        <time>2015-07-13T09:48:05Z</time>
      </trkpt>
      <trkpt lat="46.597473230212927" lon="12.292104922235012">
        <ele>2202.52</ele>
        <time>2015-07-13T09:48:10Z</time>
      </trkpt>
      <trkpt lat="46.597407851368189" lon="12.292114980518818">
        <ele>2201.0799999999999</ele>
        <time>2015-07-13T09:48:16Z</time>
      </trkpt>
      <trkpt lat="46.59735613502562" lon="12.292083967477083">
        <ele>2199.6300000000001</ele>
        <time>2015-07-13T09:48:25Z</time>
      </trkpt>
      <trkpt lat="46.597325960174203" lon="12.292107185348868">
        <ele>2198.1900000000001</ele>
        <time>2015-07-13T09:48:32Z</time>
      </trkpt>
      <trkpt lat="46.597312381491065" lon="12.292119087651372">
        <ele>2197.71</ele>
        <time>2015-07-13T09:48:34Z</time>
      </trkpt>
      <trkpt lat="46.597281536087394" lon="12.292128810659051">
        <ele>2197.23</ele>
        <time>2015-07-13T09:48:36Z</time>
      </trkpt>
      <trkpt lat="46.597257228568196" lon="12.292100144550204">
        <ele>2197.23</ele>
        <time>2015-07-13T09:48:38Z</time>
      </trkpt>
      <trkpt lat="46.597094871103764" lon="12.292080949991941">
        <ele>2196.75</ele>
        <time>2015-07-13T09:48:50Z</time>
      </trkpt>
      <trkpt lat="46.596969645470381" lon="12.291983971372247">
        <ele>2197.23</ele>
        <time>2015-07-13T09:49:01Z</time>
      </trkpt>
      <trkpt lat="46.596828494220972" lon="12.291970476508141">
        <ele>2195.79</ele>
        <time>2015-07-13T09:49:13Z</time>
      </trkpt>
      <trkpt lat="46.596777699887753" lon="12.291985144838691">
        <ele>2193.8699999999999</ele>
        <time>2015-07-13T09:49:17Z</time>
      </trkpt>
      <trkpt lat="46.596630597487092" lon="12.291925381869078">
        <ele>2192.4200000000001</ele>
        <time>2015-07-13T09:49:31Z</time>
      </trkpt>
      <trkpt lat="46.596621796488762" lon="12.291925046592951">
        <ele>2192.4200000000001</ele>
        <time>2015-07-13T09:49:32Z</time>
      </trkpt>
      <trkpt lat="46.596494810655713" lon="12.291673254221678">
        <ele>2190.5</ele>
        <time>2015-07-13T09:49:42Z</time>
      </trkpt>
      <trkpt lat="46.596468240022659" lon="12.291631679981947">
        <ele>2189.0599999999999</ele>
        <time>2015-07-13T09:49:52Z</time>
      </trkpt>
      <trkpt lat="46.596432197839022" lon="12.291288524866104">
        <ele>2188.5799999999999</ele>
        <time>2015-07-13T09:50:01Z</time>
      </trkpt>
      <trkpt lat="46.596396826207638" lon="12.291272934526205">
        <ele>2188.5799999999999</ele>
        <time>2015-07-13T09:50:10Z</time>
      </trkpt>
      <trkpt lat="46.596361370757222" lon="12.291249381378293">
        <ele>2187.6199999999999</ele>
        <time>2015-07-13T09:50:21Z</time>
      </trkpt>
      <trkpt lat="46.596323903650045" lon="12.291214512661099">
        <ele>2185.21</ele>
        <time>2015-07-13T09:50:29Z</time>
      </trkpt>
      <trkpt lat="46.596254333853722" lon="12.291151648387313">
        <ele>2182.8099999999999</ele>
        <time>2015-07-13T09:50:39Z</time>
      </trkpt>
      <trkpt lat="46.596229523420334" lon="12.291132705286145">
        <ele>2182.8099999999999</ele>
        <time>2015-07-13T09:50:42Z</time>
      </trkpt>
      <trkpt lat="46.596200102940202" lon="12.291117450222373">
        <ele>2181.8499999999999</ele>
        <time>2015-07-13T09:50:45Z</time>
      </trkpt>
      <trkpt lat="46.596181495115161" lon="12.291076211258769">
        <ele>2181.3699999999999</ele>
        <time>2015-07-13T09:50:55Z</time>
      </trkpt>
      <trkpt lat="46.596161630004644" lon="12.291075875982642">
        <ele>2180.4099999999999</ele>
        <time>2015-07-13T09:51:11Z</time>
      </trkpt>
      <trkpt lat="46.596152577549219" lon="12.291076295077801">
        <ele>2180.4099999999999</ele>
        <time>2015-07-13T09:51:14Z</time>
      </trkpt>
      <trkpt lat="46.596093820407987" lon="12.291003875434399">
        <ele>2179.9299999999998</ele>
        <time>2015-07-13T09:51:23Z</time>
      </trkpt>
      <trkpt lat="46.596117038279772" lon="12.290920726954937">
        <ele>2179.9299999999998</ele>
        <time>2015-07-13T09:51:34Z</time>
      </trkpt>
      <trkpt lat="46.596075966954231" lon="12.290895497426391">
        <ele>2178.48</ele>
        <time>2015-07-13T09:51:40Z</time>
      </trkpt>
      <trkpt lat="46.595990136265755" lon="12.29086859151721">
        <ele>2176.5599999999999</ele>
        <time>2015-07-13T09:51:53Z</time>
      </trkpt>
      <trkpt lat="46.595967337489128" lon="12.290889797732234">
        <ele>2175.5999999999999</ele>
        <time>2015-07-13T09:51:57Z</time>
      </trkpt>
      <trkpt lat="46.595937330275774" lon="12.290812432765961">
        <ele>2177.04</ele>
        <time>2015-07-13T09:52:06Z</time>
      </trkpt>
      <trkpt lat="46.59590682014823" lon="12.29080505669117">
        <ele>2176.5599999999999</ele>
        <time>2015-07-13T09:52:09Z</time>
      </trkpt>
      <trkpt lat="46.595846470445395" lon="12.290847133845091">
        <ele>2175.1199999999999</ele>
        <time>2015-07-13T09:52:15Z</time>
      </trkpt>
      <trkpt lat="46.595701547339559" lon="12.29060280136764">
        <ele>2175.1199999999999</ele>
        <time>2015-07-13T09:52:28Z</time>
      </trkpt>
      <trkpt lat="46.595707833766937" lon="12.290527615696192">
        <ele>2175.5999999999999</ele>
        <time>2015-07-13T09:52:38Z</time>
      </trkpt>
      <trkpt lat="46.595637677237391" lon="12.2904650028795">
        <ele>2173.1999999999998</ele>
        <time>2015-07-13T09:52:49Z</time>
      </trkpt>
      <trkpt lat="46.595596773549914" lon="12.290473636239767">
        <ele>2171.27</ele>
        <time>2015-07-13T09:52:56Z</time>
      </trkpt>
      <trkpt lat="46.595500968396664" lon="12.290346147492528">
        <ele>2170.79</ele>
        <time>2015-07-13T09:53:08Z</time>
      </trkpt>
      <trkpt lat="46.595487557351589" lon="12.290333658456802">
        <ele>2170.79</ele>
        <time>2015-07-13T09:53:10Z</time>
      </trkpt>
      <trkpt lat="46.595434583723545" lon="12.290307255461812">
        <ele>2169.8299999999999</ele>
        <time>2015-07-13T09:53:15Z</time>
      </trkpt>
      <trkpt lat="46.595403151586652" lon="12.29022553190589">
        <ele>2170.79</ele>
        <time>2015-07-13T09:53:22Z</time>
      </trkpt>
      <trkpt lat="46.595315309241414" lon="12.290115058422089">
        <ele>2168.3899999999999</ele>
        <time>2015-07-13T09:53:35Z</time>
      </trkpt>
      <trkpt lat="46.595319500193" lon="12.290132744237781">
        <ele>2167.9099999999999</ele>
        <time>2015-07-13T09:53:48Z</time>
      </trkpt>
      <trkpt lat="46.595335844904184" lon="12.290157554671168">
        <ele>2167.4299999999998</ele>
        <time>2015-07-13T09:54:03Z</time>
      </trkpt>
      <trkpt lat="46.595315979793668" lon="12.290136599913239">
        <ele>2167.9099999999999</ele>
        <time>2015-07-13T09:54:17Z</time>
      </trkpt>
      <trkpt lat="46.595322014763951" lon="12.290130816400051">
        <ele>2167.9099999999999</ele>
        <time>2015-07-13T09:54:26Z</time>
      </trkpt>
      <trkpt lat="46.595322601497173" lon="12.290146239101887">
        <ele>2167.9099999999999</ele>
        <time>2015-07-13T09:54:46Z</time>
      </trkpt>
      <trkpt lat="46.595311285927892" lon="12.290126541629434">
        <ele>2167.9099999999999</ele>
        <time>2015-07-13T09:54:58Z</time>
      </trkpt>
      <trkpt lat="46.595304915681481" lon="12.290116902440786">
        <ele>2167.9099999999999</ele>
        <time>2015-07-13T09:55:17Z</time>
      </trkpt>
      <trkpt lat="46.595278680324554" lon="12.290114974603057">
        <ele>2167.4299999999998</ele>
        <time>2015-07-13T09:55:38Z</time>
      </trkpt>
      <trkpt lat="46.595243560150266" lon="12.290062168613076">
        <ele>2167.4299999999998</ele>
        <time>2015-07-13T09:55:45Z</time>
      </trkpt>
      <trkpt lat="46.595230987295508" lon="12.290037525817752">
        <ele>2167.4299999999998</ele>
        <time>2015-07-13T09:55:47Z</time>
      </trkpt>
      <trkpt lat="46.595214810222387" lon="12.289954461157322">
        <ele>2167.4299999999998</ele>
        <time>2015-07-13T09:55:54Z</time>
      </trkpt>
      <trkpt lat="46.59514750353992" lon="12.289896626025438">
        <ele>2165.5100000000002</ele>
        <time>2015-07-13T09:56:06Z</time>
      </trkpt>
      <trkpt lat="46.595140211284161" lon="12.289778776466846">
        <ele>2168.3899999999999</ele>
        <time>2015-07-13T09:56:18Z</time>
      </trkpt>
      <trkpt lat="46.59512696787715" lon="12.289671907201409">
        <ele>2169.8299999999999</ele>
        <time>2015-07-13T09:56:31Z</time>
      </trkpt>
      <trkpt lat="46.595067624002695" lon="12.289638547226787">
        <ele>2169.8299999999999</ele>
        <time>2015-07-13T09:56:40Z</time>
      </trkpt>
      <trkpt lat="46.595052201300859" lon="12.289644330739975">
        <ele>2169.3499999999999</ele>
        <time>2015-07-13T09:56:42Z</time>
      </trkpt>
      <trkpt lat="46.594995791092515" lon="12.289654137566686">
        <ele>2167.9099999999999</ele>
        <time>2015-07-13T09:56:48Z</time>
      </trkpt>
      <trkpt lat="46.594970645383" lon="12.289601666852832">
        <ele>2167.4299999999998</ele>
        <time>2015-07-13T09:56:52Z</time>
      </trkpt>
      <trkpt lat="46.594853382557631" lon="12.289511729031801">
        <ele>2166.9499999999998</ele>
        <time>2015-07-13T09:57:04Z</time>
      </trkpt>
      <trkpt lat="46.594803594052792" lon="12.289471663534641">
        <ele>2167.9099999999999</ele>
        <time>2015-07-13T09:57:15Z</time>
      </trkpt>
      <trkpt lat="46.594789931550622" lon="12.289483230561018">
        <ele>2167.9099999999999</ele>
        <time>2015-07-13T09:57:18Z</time>
      </trkpt>
      <trkpt lat="46.594757996499538" lon="12.289497312158346">
        <ele>2167.4299999999998</ele>
        <time>2015-07-13T09:57:29Z</time>
      </trkpt>
      <trkpt lat="46.594756655395031" lon="12.289516841992736">
        <ele>2167.4299999999998</ele>
        <time>2015-07-13T09:57:45Z</time>
      </trkpt>
      <trkpt lat="46.594762690365314" lon="12.289518266916275">
        <ele>2166.9499999999998</ele>
        <time>2015-07-13T09:57:58Z</time>
      </trkpt>
      <trkpt lat="46.594749949872494" lon="12.289504185318947">
        <ele>2166.9499999999998</ele>
        <time>2015-07-13T09:58:21Z</time>
      </trkpt>
      <trkpt lat="46.594751290977001" lon="12.289501838386059">
        <ele>2166.4699999999998</ele>
        <time>2015-07-13T09:58:31Z</time>
      </trkpt>
      <trkpt lat="46.594765372574329" lon="12.289487924426794">
        <ele>2167.4299999999998</ele>
        <time>2015-07-13T09:58:41Z</time>
      </trkpt>
      <trkpt lat="46.594760175794363" lon="12.28951851837337">
        <ele>2167.4299999999998</ele>
        <time>2015-07-13T09:58:57Z</time>
      </trkpt>
      <trkpt lat="46.594808790832758" lon="12.289533941075206">
        <ele>2168.3899999999999</ele>
        <time>2015-07-13T09:59:07Z</time>
      </trkpt>
      <trkpt lat="46.594817508012056" lon="12.289545089006424">
        <ele>2168.3899999999999</ele>
        <time>2015-07-13T09:59:08Z</time>
      </trkpt>
      <trkpt lat="46.594954384490848" lon="12.289696549996734">
        <ele>2167.9099999999999</ele>
        <time>2015-07-13T09:59:20Z</time>
      </trkpt>
      <trkpt lat="46.595041556283832" lon="12.289767963811755">
        <ele>2168.8699999999999</ele>
        <time>2015-07-13T09:59:30Z</time>
      </trkpt>
      <trkpt lat="46.595060918480158" lon="12.289750864729285">
        <ele>2169.3499999999999</ele>
        <time>2015-07-13T09:59:34Z</time>
      </trkpt>
      <trkpt lat="46.595082208514214" lon="12.289719767868519">
        <ele>2170.79</ele>
        <time>2015-07-13T09:59:37Z</time>
      </trkpt>
      <trkpt lat="46.595130069181323" lon="12.289757989346981">
        <ele>2170.3099999999999</ele>
        <time>2015-07-13T09:59:45Z</time>
      </trkpt>
      <trkpt lat="46.595133421942592" lon="12.289848597720265">
        <ele>2167.9099999999999</ele>
        <time>2015-07-13T09:59:58Z</time>
      </trkpt>
      <trkpt lat="46.595211708918214" lon="12.289950102567673">
        <ele>2166.4699999999998</ele>
        <time>2015-07-13T10:00:09Z</time>
      </trkpt>
      <trkpt lat="46.595280691981316" lon="12.289993772283196">
        <ele>2167.9099999999999</ele>
        <time>2015-07-13T10:00:18Z</time>
      </trkpt>
      <trkpt lat="46.595286307856441" lon="12.290021851658821">
        <ele>2167.9099999999999</ele>
        <time>2015-07-13T10:00:20Z</time>
      </trkpt>
      <trkpt lat="46.595363672822714" lon="12.290155962109566">
        <ele>2167.9099999999999</ele>
        <time>2015-07-13T10:00:32Z</time>
      </trkpt>
      <trkpt lat="46.595444139093161" lon="12.290224526077509">
        <ele>2169.8299999999999</ele>
        <time>2015-07-13T10:00:43Z</time>
      </trkpt>
      <trkpt lat="46.595501555129886" lon="12.290323851630092">
        <ele>2169.8299999999999</ele>
        <time>2015-07-13T10:00:54Z</time>
      </trkpt>
      <trkpt lat="46.595582105219364" lon="12.29042049497366">
        <ele>2169.8299999999999</ele>
        <time>2015-07-13T10:01:05Z</time>
      </trkpt>
      <trkpt lat="46.595643879845738" lon="12.290427619591355">
        <ele>2171.27</ele>
        <time>2015-07-13T10:01:14Z</time>
      </trkpt>
      <trkpt lat="46.595687884837389" lon="12.290454693138599">
        <ele>2173.1999999999998</ele>
        <time>2015-07-13T10:01:21Z</time>
      </trkpt>
      <trkpt lat="46.595729291439056" lon="12.290499536320567">
        <ele>2175.1199999999999</ele>
        <time>2015-07-13T10:01:30Z</time>
      </trkpt>
      <trkpt lat="46.595797352492809" lon="12.290639849379659">
        <ele>2173.6799999999998</ele>
        <time>2015-07-13T10:01:41Z</time>
      </trkpt>
      <trkpt lat="46.595858791843057" lon="12.290667006745934">
        <ele>2173.1999999999998</ele>
        <time>2015-07-13T10:01:53Z</time>
      </trkpt>
      <trkpt lat="46.595820486545563" lon="12.290685949847102">
        <ele>2172.7199999999998</ele>
        <time>2015-07-13T10:02:11Z</time>
      </trkpt>
      <trkpt lat="46.595807829871774" lon="12.290678154677153">
        <ele>2173.1999999999998</ele>
        <time>2015-07-13T10:02:12Z</time>
      </trkpt>
      <trkpt lat="46.59577933140099" lon="12.290533566847444">
        <ele>2173.1999999999998</ele>
        <time>2015-07-13T10:02:24Z</time>
      </trkpt>
      <trkpt lat="46.595710683614016" lon="12.29049232788384">
        <ele>2173.1999999999998</ele>
        <time>2015-07-13T10:02:35Z</time>
      </trkpt>
      <trkpt lat="46.595638515427709" lon="12.290462823584676">
        <ele>2170.3099999999999</ele>
        <time>2015-07-13T10:02:45Z</time>
      </trkpt>
      <trkpt lat="46.595624266192317" lon="12.290461817756295">
        <ele>2169.8299999999999</ele>
        <time>2015-07-13T10:02:47Z</time>
      </trkpt>
      <trkpt lat="46.595544135197997" lon="12.290412532165647">
        <ele>2168.3899999999999</ele>
        <time>2015-07-13T10:02:55Z</time>
      </trkpt>
      <trkpt lat="46.595488311722875" lon="12.290337011218071">
        <ele>2168.3899999999999</ele>
        <time>2015-07-13T10:03:03Z</time>
      </trkpt>
      <trkpt lat="46.595418741926551" lon="12.290247995406389">
        <ele>2168.3899999999999</ele>
        <time>2015-07-13T10:03:13Z</time>
      </trkpt>
      <trkpt lat="46.595336934551597" lon="12.290160488337278">
        <ele>2166.9499999999998</ele>
        <time>2015-07-13T10:03:24Z</time>
      </trkpt>
      <trkpt lat="46.595330648124218" lon="12.290150346234441">
        <ele>2166.9499999999998</ele>
        <time>2015-07-13T10:03:25Z</time>
      </trkpt>
      <trkpt lat="46.595293013378978" lon="12.29007457382977">
        <ele>2166.4699999999998</ele>
        <time>2015-07-13T10:03:31Z</time>
      </trkpt>
      <trkpt lat="46.595254205167294" lon="12.290009111166">
        <ele>2165.9899999999998</ele>
        <time>2015-07-13T10:03:39Z</time>
      </trkpt>
      <trkpt lat="46.595237189903855" lon="12.289963429793715">
        <ele>2166.4699999999998</ele>
        <time>2015-07-13T10:03:43Z</time>
      </trkpt>
      <trkpt lat="46.595145994797349" lon="12.289849771186709">
        <ele>2165.5100000000002</ele>
        <time>2015-07-13T10:03:58Z</time>
      </trkpt>
      <trkpt lat="46.595144905149937" lon="12.289754468947649">
        <ele>2167.9099999999999</ele>
        <time>2015-07-13T10:04:09Z</time>
      </trkpt>
      <trkpt lat="46.595136690884829" lon="12.289696298539639">
        <ele>2168.8699999999999</ele>
        <time>2015-07-13T10:04:14Z</time>
      </trkpt>
      <trkpt lat="46.595111209899187" lon="12.289616167545319">
        <ele>2169.3499999999999</ele>
        <time>2015-07-13T10:04:24Z</time>
      </trkpt>
      <trkpt lat="46.595068210735917" lon="12.289641732349992">
        <ele>2168.3899999999999</ele>
        <time>2015-07-13T10:04:35Z</time>
      </trkpt>
      <trkpt lat="46.595061337575316" lon="12.289642905816436">
        <ele>2167.9099999999999</ele>
        <time>2015-07-13T10:04:36Z</time>
      </trkpt>
      <trkpt lat="46.595030827447772" lon="12.289631841704249">
        <ele>2166.9499999999998</ele>
        <time>2015-07-13T10:04:45Z</time>
      </trkpt>
      <trkpt lat="46.595010291785002" lon="12.289607618004084">
        <ele>2167.4299999999998</ele>
        <time>2015-07-13T10:04:49Z</time>
      </trkpt>
      <trkpt lat="46.594984643161297" lon="12.28955565020442">
        <ele>2166.9499999999998</ele>
        <time>2015-07-13T10:04:52Z</time>
      </trkpt>
      <trkpt lat="46.594903841614723" lon="12.289491863921285">
        <ele>2166.4699999999998</ele>
        <time>2015-07-13T10:04:59Z</time>
      </trkpt>
      <trkpt lat="46.594828655943274" lon="12.289453642442822">
        <ele>2166.4699999999998</ele>
        <time>2015-07-13T10:05:05Z</time>
      </trkpt>
      <trkpt lat="46.594795798882842" lon="12.289417767897248">
        <ele>2166.9499999999998</ele>
        <time>2015-07-13T10:05:10Z</time>
      </trkpt>
      <trkpt lat="46.594709046185017" lon="12.28940955363214">
        <ele>2164.5500000000002</ele>
        <time>2015-07-13T10:05:23Z</time>
      </trkpt>
      <trkpt lat="46.594673171639442" lon="12.289425479248166">
        <ele>2162.6199999999999</ele>
        <time>2015-07-13T10:05:29Z</time>
      </trkpt>
      <trkpt lat="46.594600332900882" lon="12.289426820352674">
        <ele>2160.6999999999998</ele>
        <time>2015-07-13T10:05:36Z</time>
      </trkpt>
      <trkpt lat="46.594570744782686" lon="12.289429670199752">
        <ele>2160.2199999999998</ele>
        <time>2015-07-13T10:05:38Z</time>
      </trkpt>
      <trkpt lat="46.594468234106898" lon="12.28939832188189">
        <ele>2160.2199999999998</ele>
        <time>2015-07-13T10:05:50Z</time>
      </trkpt>
      <trkpt lat="46.594410734251142" lon="12.289359429851174">
        <ele>2163.0999999999999</ele>
        <time>2015-07-13T10:06:02Z</time>
      </trkpt>
      <trkpt lat="46.594370417296886" lon="12.28934015147388">
        <ele>2165.0300000000002</ele>
        <time>2015-07-13T10:06:14Z</time>
      </trkpt>
      <trkpt lat="46.594339990988374" lon="12.289294637739658">
        <ele>2166.9499999999998</ele>
        <time>2015-07-13T10:06:23Z</time>
      </trkpt>
      <trkpt lat="46.594300093129277" lon="12.289256667718291">
        <ele>2168.8699999999999</ele>
        <time>2015-07-13T10:06:33Z</time>
      </trkpt>
      <trkpt lat="46.594304954633117" lon="12.289267815649509">
        <ele>2169.8299999999999</ele>
        <time>2015-07-13T10:06:42Z</time>
      </trkpt>
      <trkpt lat="46.594280730932951" lon="12.289200676605105">
        <ele>2170.3099999999999</ele>
        <time>2015-07-13T10:06:58Z</time>
      </trkpt>
      <trkpt lat="46.594246700406075" lon="12.289184499531984">
        <ele>2170.3099999999999</ele>
        <time>2015-07-13T10:07:12Z</time>
      </trkpt>
      <trkpt lat="46.594169167801738" lon="12.289135968312621">
        <ele>2172.2399999999998</ele>
        <time>2015-07-13T10:07:23Z</time>
      </trkpt>
      <trkpt lat="46.594110745936632" lon="12.289133537560701">
        <ele>2174.6399999999999</ele>
        <time>2015-07-13T10:07:35Z</time>
      </trkpt>
      <trkpt lat="46.594038745388389" lon="12.289073774591088">
        <ele>2176.5599999999999</ele>
        <time>2015-07-13T10:07:49Z</time>
      </trkpt>
      <trkpt lat="46.593994405120611" lon="12.289009653031826">
        <ele>2178.48</ele>
        <time>2015-07-13T10:08:01Z</time>
      </trkpt>
      <trkpt lat="46.593981496989727" lon="12.289000181481242">
        <ele>2179.9299999999998</ele>
        <time>2015-07-13T10:08:10Z</time>
      </trkpt>
      <trkpt lat="46.593964817002416" lon="12.288985513150692">
        <ele>2182.3299999999999</ele>
        <time>2015-07-13T10:08:20Z</time>
      </trkpt>
      <trkpt lat="46.593967583030462" lon="12.288969336077571">
        <ele>2183.77</ele>
        <time>2015-07-13T10:08:30Z</time>
      </trkpt>
      <trkpt lat="46.594014018774033" lon="12.288946872577071">
        <ele>2185.21</ele>
        <time>2015-07-13T10:08:41Z</time>
      </trkpt>
      <trkpt lat="46.593983843922615" lon="12.288913512602448">
        <ele>2187.1399999999999</ele>
        <time>2015-07-13T10:08:53Z</time>
      </trkpt>
      <trkpt lat="46.593973869457841" lon="12.288872860372066">
        <ele>2189.0599999999999</ele>
        <time>2015-07-13T10:09:04Z</time>
      </trkpt>
      <trkpt lat="46.594034051522613" lon="12.288855258375406">
        <ele>2190.98</ele>
        <time>2015-07-13T10:09:16Z</time>
      </trkpt>
      <trkpt lat="46.594070177525282" lon="12.288868585601449">
        <ele>2192.4200000000001</ele>
        <time>2015-07-13T10:09:25Z</time>
      </trkpt>
      <trkpt lat="46.594071350991726" lon="12.288841344416142">
        <ele>2193.3899999999999</ele>
        <time>2015-07-13T10:09:37Z</time>
      </trkpt>
      <trkpt lat="46.594028770923615" lon="12.28882223367691">
        <ele>2194.8299999999999</ele>
        <time>2015-07-13T10:09:47Z</time>
      </trkpt>
      <trkpt lat="46.594015443697572" lon="12.288825251162052">
        <ele>2195.3099999999999</ele>
        <time>2015-07-13T10:09:49Z</time>
      </trkpt>
      <trkpt lat="46.593971271067858" lon="12.288811001926661">
        <ele>2195.79</ele>
        <time>2015-07-13T10:09:54Z</time>
      </trkpt>
      <trkpt lat="46.593887032940984" lon="12.288781832903624">
        <ele>2196.27</ele>
        <time>2015-07-13T10:10:06Z</time>
      </trkpt>
      <trkpt lat="46.593837914988399" lon="12.288767751306295">
        <ele>2197.23</ele>
        <time>2015-07-13T10:10:14Z</time>
      </trkpt>
      <trkpt lat="46.593764070421457" lon="12.288705389946699">
        <ele>2198.1900000000001</ele>
        <time>2015-07-13T10:10:28Z</time>
      </trkpt>
      <trkpt lat="46.593733225017786" lon="12.28866976685822">
        <ele>2200.1100000000001</ele>
        <time>2015-07-13T10:10:38Z</time>
      </trkpt>
      <trkpt lat="46.59371629357338" lon="12.28862333111465">
        <ele>2200.5900000000001</ele>
        <time>2015-07-13T10:10:49Z</time>
      </trkpt>
      <trkpt lat="46.59370212815702" lon="12.288652751594782">
        <ele>2202.52</ele>
        <time>2015-07-13T10:11:02Z</time>
      </trkpt>
      <trkpt lat="46.59367430023849" lon="12.288657864555717">
        <ele>2203.48</ele>
        <time>2015-07-13T10:11:14Z</time>
      </trkpt>
      <trkpt lat="46.593682514503598" lon="12.28866633027792">
        <ele>2203.48</ele>
        <time>2015-07-13T10:11:30Z</time>
      </trkpt>
      <trkpt lat="46.593677150085568" lon="12.28866683319211">
        <ele>2204.9200000000001</ele>
        <time>2015-07-13T10:11:45Z</time>
      </trkpt>
      <trkpt lat="46.593656865879893" lon="12.288644285872579">
        <ele>2204.9200000000001</ele>
        <time>2015-07-13T10:11:54Z</time>
      </trkpt>
      <trkpt lat="46.593633145093918" lon="12.288659876212478">
        <ele>2205.8800000000001</ele>
        <time>2015-07-13T10:12:03Z</time>
      </trkpt>
      <trkpt lat="46.593618309125304" lon="12.288683596998453">
        <ele>2205.8800000000001</ele>
        <time>2015-07-13T10:12:16Z</time>
      </trkpt>
      <trkpt lat="46.593649238348007" lon="12.288655685260892">
        <ele>2205.8800000000001</ele>
        <time>2015-07-13T10:12:24Z</time>
      </trkpt>
      <trkpt lat="46.593624511733651" lon="12.288666414096951">
        <ele>2205.8800000000001</ele>
        <time>2015-07-13T10:12:37Z</time>
      </trkpt>
      <trkpt lat="46.593619650229812" lon="12.288660127669573">
        <ele>2205.8800000000001</ele>
        <time>2015-07-13T10:12:55Z</time>
      </trkpt>
      <trkpt lat="46.593643454834819" lon="12.288652248680592">
        <ele>2205.8800000000001</ele>
        <time>2015-07-13T10:13:15Z</time>
      </trkpt>
      <trkpt lat="46.593654518947005" lon="12.288649985566735">
        <ele>2205.4000000000001</ele>
        <time>2015-07-13T10:13:28Z</time>
      </trkpt>
      <trkpt lat="46.593689387664199" lon="12.288658451288939">
        <ele>2205.4000000000001</ele>
        <time>2015-07-13T10:13:46Z</time>
      </trkpt>
      <trkpt lat="46.593721909448504" lon="12.288647387176752">
        <ele>2203.96</ele>
        <time>2015-07-13T10:14:00Z</time>
      </trkpt>
      <trkpt lat="46.593701373785734" lon="12.288660295307636">
        <ele>2203.96</ele>
        <time>2015-07-13T10:14:21Z</time>
      </trkpt>
      <trkpt lat="46.593708582222462" lon="12.28865610435605">
        <ele>2203.96</ele>
        <time>2015-07-13T10:14:47Z</time>
      </trkpt>
      <trkpt lat="46.593726351857185" lon="12.288619643077254">
        <ele>2204.4400000000001</ele>
        <time>2015-07-13T10:15:04Z</time>
      </trkpt>
      <trkpt lat="46.593699445948005" lon="12.288623917847872">
        <ele>2204.4400000000001</ele>
        <time>2015-07-13T10:15:14Z</time>
      </trkpt>
      <trkpt lat="46.593666924163699" lon="12.28863749653101">
        <ele>2204.4400000000001</ele>
        <time>2015-07-13T10:15:23Z</time>
      </trkpt>
      <trkpt lat="46.593650076538324" lon="12.288640011101961">
        <ele>2204.9200000000001</ele>
        <time>2015-07-13T10:15:33Z</time>
      </trkpt>
      <trkpt lat="46.593665163964033" lon="12.288641268387437">
        <ele>2204.9200000000001</ele>
        <time>2015-07-13T10:15:46Z</time>
      </trkpt>
      <trkpt lat="46.593648316338658" lon="12.288673287257552">
        <ele>2204.9200000000001</ele>
        <time>2015-07-13T10:16:05Z</time>
      </trkpt>
      <trkpt lat="46.593665750697255" lon="12.288660714402795">
        <ele>2204.4400000000001</ele>
        <time>2015-07-13T10:16:22Z</time>
      </trkpt>
      <trkpt lat="46.593666169792414" lon="12.288650069385767">
        <ele>2204.4400000000001</ele>
        <time>2015-07-13T10:16:43Z</time>
      </trkpt>
      <trkpt lat="46.593672372400761" lon="12.288614949211478">
        <ele>2204.4400000000001</ele>
        <time>2015-07-13T10:17:00Z</time>
      </trkpt>
      <trkpt lat="46.593662733212113" lon="12.288635317236185">
        <ele>2204.9200000000001</ele>
        <time>2015-07-13T10:17:26Z</time>
      </trkpt>
      <trkpt lat="46.593672456219792" lon="12.288625678047538">
        <ele>2203.96</ele>
        <time>2015-07-13T10:17:43Z</time>
      </trkpt>
      <trkpt lat="46.593677401542664" lon="12.288610590621829">
        <ele>2203.96</ele>
        <time>2015-07-13T10:18:01Z</time>
      </trkpt>
      <trkpt lat="46.593668600544333" lon="12.288647135719657">
        <ele>2203.96</ele>
        <time>2015-07-13T10:18:18Z</time>
      </trkpt>
      <trkpt lat="46.593699781224132" lon="12.288613021373749">
        <ele>2203.48</ele>
        <time>2015-07-13T10:18:32Z</time>
      </trkpt>
      <trkpt lat="46.593719897791743" lon="12.28859013877809">
        <ele>2203.96</ele>
        <time>2015-07-13T10:18:53Z</time>
      </trkpt>
      <trkpt lat="46.59369726665318" lon="12.288602627813816">
        <ele>2203.48</ele>
        <time>2015-07-13T10:19:12Z</time>
      </trkpt>
      <trkpt lat="46.593686286360025" lon="12.288614613935351">
        <ele>2203.48</ele>
        <time>2015-07-13T10:19:24Z</time>
      </trkpt>
      <trkpt lat="46.593693410977721" lon="12.288631293922663">
        <ele>2203</ele>
        <time>2015-07-13T10:19:39Z</time>
      </trkpt>
      <trkpt lat="46.593675892800093" lon="12.28864872828126">
        <ele>2203</ele>
        <time>2015-07-13T10:19:57Z</time>
      </trkpt>
      <trkpt lat="46.593651585280895" lon="12.288628024980426">
        <ele>2203</ele>
        <time>2015-07-13T10:20:07Z</time>
      </trkpt>
      <trkpt lat="46.593639515340328" lon="12.288663480430841">
        <ele>2203.48</ele>
        <time>2015-07-13T10:20:18Z</time>
      </trkpt>
      <trkpt lat="46.593588553369045" lon="12.28869273327291">
        <ele>2202.04</ele>
        <time>2015-07-13T10:20:29Z</time>
      </trkpt>
      <trkpt lat="46.593537591397762" lon="12.288709245622158">
        <ele>2199.1500000000001</ele>
        <time>2015-07-13T10:20:37Z</time>
      </trkpt>
      <trkpt lat="46.593392752110958" lon="12.288705389946699">
        <ele>2196.75</ele>
        <time>2015-07-13T10:20:49Z</time>
      </trkpt>
      <trkpt lat="46.593373557552695" lon="12.288671359419823">
        <ele>2197.23</ele>
        <time>2015-07-13T10:20:52Z</time>
      </trkpt>
      <trkpt lat="46.593223689123988" lon="12.288563149049878">
        <ele>2196.27</ele>
        <time>2015-07-13T10:21:05Z</time>
      </trkpt>
      <trkpt lat="46.593088740482926" lon="12.288551162928343">
        <ele>2195.79</ele>
        <time>2015-07-13T10:21:16Z</time>
      </trkpt>
      <trkpt lat="46.592991426587105" lon="12.288566837087274">
        <ele>2194.8299999999999</ele>
        <time>2015-07-13T10:21:24Z</time>
      </trkpt>
      <trkpt lat="46.592883383855224" lon="12.288508750498295">
        <ele>2193.8699999999999</ele>
        <time>2015-07-13T10:21:32Z</time>
      </trkpt>
      <trkpt lat="46.592852454632521" lon="12.288499111309648">
        <ele>2193.8699999999999</ele>
        <time>2015-07-13T10:21:35Z</time>
      </trkpt>
      <trkpt lat="46.592832170426846" lon="12.288488382473588">
        <ele>2194.3499999999999</ele>
        <time>2015-07-13T10:21:37Z</time>
      </trkpt>
      <trkpt lat="46.592733599245548" lon="12.288435911759734">
        <ele>2197.23</ele>
        <time>2015-07-13T10:21:48Z</time>
      </trkpt>
      <trkpt lat="46.592668890953064" lon="12.28839416988194">
        <ele>2199.6300000000001</ele>
        <time>2015-07-13T10:21:59Z</time>
      </trkpt>
      <trkpt lat="46.592643912881613" lon="12.28835946880281">
        <ele>2202.04</ele>
        <time>2015-07-13T10:22:09Z</time>
      </trkpt>
      <trkpt lat="46.592647433280945" lon="12.288316050544381">
        <ele>2203.96</ele>
        <time>2015-07-13T10:22:21Z</time>
      </trkpt>
      <trkpt lat="46.592593705281615" lon="12.288296269252896">
        <ele>2206.3600000000001</ele>
        <time>2015-07-13T10:22:33Z</time>
      </trkpt>
      <trkpt lat="46.592565793544054" lon="12.288260813802481">
        <ele>2207.8099999999999</ele>
        <time>2015-07-13T10:22:42Z</time>
      </trkpt>
      <trkpt lat="46.59256411716342" lon="12.288223514333367">
        <ele>2209.25</ele>
        <time>2015-07-13T10:22:51Z</time>
      </trkpt>
      <trkpt lat="46.592604601755738" lon="12.288194764405489">
        <ele>2210.6900000000001</ele>
        <time>2015-07-13T10:23:02Z</time>
      </trkpt>
      <trkpt lat="46.592548443004489" lon="12.288202811032534">
        <ele>2212.1300000000001</ele>
        <time>2015-07-13T10:23:12Z</time>
      </trkpt>
      <trkpt lat="46.592560512945056" lon="12.288158386945724">
        <ele>2214.0500000000002</ele>
        <time>2015-07-13T10:23:22Z</time>
      </trkpt>
      <trkpt lat="46.592522291466594" lon="12.288158806040883">
        <ele>2215.5</ele>
        <time>2015-07-13T10:23:33Z</time>
      </trkpt>
      <trkpt lat="46.592508796602488" lon="12.288107005879283">
        <ele>2215.98</ele>
        <time>2015-07-13T10:23:43Z</time>
      </trkpt>
      <trkpt lat="46.592527236789465" lon="12.288096863776445">
        <ele>2215.98</ele>
        <time>2015-07-13T10:23:53Z</time>
      </trkpt>
      <trkpt lat="46.592490440234542" lon="12.288109939545393">
        <ele>2215.98</ele>
        <time>2015-07-13T10:24:07Z</time>
      </trkpt>
      <trkpt lat="46.592481303960085" lon="12.288076328113675">
        <ele>2215.98</ele>
        <time>2015-07-13T10:24:21Z</time>
      </trkpt>
      <trkpt lat="46.592482812702656" lon="12.288090577349067">
        <ele>2215.98</ele>
        <time>2015-07-13T10:24:37Z</time>
      </trkpt>
      <trkpt lat="46.592476526275277" lon="12.288092589005828">
        <ele>2215.5</ele>
        <time>2015-07-13T10:24:55Z</time>
      </trkpt>
      <trkpt lat="46.592451380565763" lon="12.288131397217512">
        <ele>2215.98</ele>
        <time>2015-07-13T10:25:10Z</time>
      </trkpt>
      <trkpt lat="46.592371584847569" lon="12.288165092468262">
        <ele>2215.98</ele>
        <time>2015-07-13T10:25:21Z</time>
      </trkpt>
      <trkpt lat="46.592360101640224" lon="12.288163248449564">
        <ele>2215.98</ele>
        <time>2015-07-13T10:25:23Z</time>
      </trkpt>
      <trkpt lat="46.592356413602829" lon="12.288138354197145">
        <ele>2215.0100000000002</ele>
        <time>2015-07-13T10:25:32Z</time>
      </trkpt>
      <trkpt lat="46.592360939830542" lon="12.288140868768096">
        <ele>2215.0100000000002</ele>
        <time>2015-07-13T10:25:52Z</time>
      </trkpt>
      <trkpt lat="46.592360436916351" lon="12.288143048062921">
        <ele>2215.0100000000002</ele>
        <time>2015-07-13T10:26:17Z</time>
      </trkpt>
      <trkpt lat="46.592380553483963" lon="12.288151681423187">
        <ele>2214.5300000000002</ele>
        <time>2015-07-13T10:26:43Z</time>
      </trkpt>
      <trkpt lat="46.592379966750741" lon="12.288139946758747">
        <ele>2214.5300000000002</ele>
        <time>2015-07-13T10:27:13Z</time>
      </trkpt>
      <trkpt lat="46.592365885153413" lon="12.288146568462253">
        <ele>2214.0500000000002</ele>
        <time>2015-07-13T10:27:41Z</time>
      </trkpt>
      <trkpt lat="46.592355407774448" lon="12.288143383339047">
        <ele>2214.0500000000002</ele>
        <time>2015-07-13T10:28:14Z</time>
      </trkpt>
      <trkpt lat="46.592364544048905" lon="12.288137264549732">
        <ele>2214.0500000000002</ele>
        <time>2015-07-13T10:28:32Z</time>
      </trkpt>
      <trkpt lat="46.592368986457586" lon="12.288146819919348">
        <ele>2214.0500000000002</ele>
        <time>2015-07-13T10:28:56Z</time>
      </trkpt>
      <trkpt lat="46.592365298420191" lon="12.288131061941385">
        <ele>2213.5700000000002</ele>
        <time>2015-07-13T10:29:19Z</time>
      </trkpt>
      <trkpt lat="46.592356245964766" lon="12.28813910856843">
        <ele>2213.5700000000002</ele>
        <time>2015-07-13T10:29:46Z</time>
      </trkpt>
      <trkpt lat="46.592354401946068" lon="12.288144053891301">
        <ele>2214.5300000000002</ele>
        <time>2015-07-13T10:29:49Z</time>
      </trkpt>
      <trkpt lat="46.592339314520359" lon="12.28815034031868">
        <ele>2215.0100000000002</ele>
        <time>2015-07-13T10:29:59Z</time>
      </trkpt>
      <trkpt lat="46.59234082326293" lon="12.288145562633872">
        <ele>2214.5300000000002</ele>
        <time>2015-07-13T10:30:15Z</time>
      </trkpt>
      <trkpt lat="46.592333614826202" lon="12.28814497590065">
        <ele>2215.0100000000002</ele>
        <time>2015-07-13T10:30:28Z</time>
      </trkpt>
      <trkpt lat="46.592342415824533" lon="12.288135923445225">
        <ele>2214.5300000000002</ele>
        <time>2015-07-13T10:30:42Z</time>
      </trkpt>
      <trkpt lat="46.592341996729374" lon="12.288145562633872">
        <ele>2214.5300000000002</ele>
        <time>2015-07-13T10:31:02Z</time>
      </trkpt>
      <trkpt lat="46.592343002557755" lon="12.288153944537044">
        <ele>2214.5300000000002</ele>
        <time>2015-07-13T10:31:19Z</time>
      </trkpt>
      <trkpt lat="46.592335877940059" lon="12.288146484643221">
        <ele>2214.5300000000002</ele>
        <time>2015-07-13T10:31:47Z</time>
      </trkpt>
      <trkpt lat="46.592304613441229" lon="12.288175905123353">
        <ele>2215.0100000000002</ele>
        <time>2015-07-13T10:31:56Z</time>
      </trkpt>
      <trkpt lat="46.592252645641565" lon="12.288176072761416">
        <ele>2211.6500000000001</ele>
        <time>2015-07-13T10:32:05Z</time>
      </trkpt>
      <trkpt lat="46.592176370322704" lon="12.28815427981317">
        <ele>2208.77</ele>
        <time>2015-07-13T10:32:18Z</time>
      </trkpt>
      <trkpt lat="46.592153068631887" lon="12.288135588169098">
        <ele>2207.3200000000002</ele>
        <time>2015-07-13T10:32:25Z</time>
      </trkpt>
      <trkpt lat="46.592128174379468" lon="12.28814447298646">
        <ele>2204.9200000000001</ele>
        <time>2015-07-13T10:32:33Z</time>
      </trkpt>
      <trkpt lat="46.59210093319416" lon="12.288106502965093">
        <ele>2203.96</ele>
        <time>2015-07-13T10:32:37Z</time>
      </trkpt>
      <trkpt lat="46.592042678967118" lon="12.288108263164759">
        <ele>2202.04</ele>
        <time>2015-07-13T10:32:49Z</time>
      </trkpt>
      <trkpt lat="46.592026250436902" lon="12.288144389167428">
        <ele>2201.5599999999999</ele>
        <time>2015-07-13T10:32:52Z</time>
      </trkpt>
      <trkpt lat="46.591915190219879" lon="12.288323175162077">
        <ele>2199.6300000000001</ele>
        <time>2015-07-13T10:33:07Z</time>
      </trkpt>
      <trkpt lat="46.591886105015874" lon="12.288385201245546">
        <ele>2197.71</ele>
        <time>2015-07-13T10:33:16Z</time>
      </trkpt>
      <trkpt lat="46.591862384229898" lon="12.288390398025513">
        <ele>2197.71</ele>
        <time>2015-07-13T10:33:18Z</time>
      </trkpt>
      <trkpt lat="46.591836232692003" lon="12.288391152396798">
        <ele>2197.71</ele>
        <time>2015-07-13T10:33:20Z</time>
      </trkpt>
      <trkpt lat="46.591804884374142" lon="12.288370281457901">
        <ele>2195.79</ele>
        <time>2015-07-13T10:33:23Z</time>
      </trkpt>
      <trkpt lat="46.591778565198183" lon="12.288368521258235">
        <ele>2195.3099999999999</ele>
        <time>2015-07-13T10:33:31Z</time>
      </trkpt>
      <trkpt lat="46.591769512742758" lon="12.288367012515664">
        <ele>2194.8299999999999</ele>
        <time>2015-07-13T10:33:33Z</time>
      </trkpt>
      <trkpt lat="46.59167094156146" lon="12.288364414125681">
        <ele>2192.4200000000001</ele>
        <time>2015-07-13T10:33:42Z</time>
      </trkpt>
      <trkpt lat="46.59160640090704" lon="12.288353433832526">
        <ele>2190.98</ele>
        <time>2015-07-13T10:33:49Z</time>
      </trkpt>
      <trkpt lat="46.591548649594188" lon="12.288358127698302">
        <ele>2190.98</ele>
        <time>2015-07-13T10:33:54Z</time>
      </trkpt>
      <trkpt lat="46.59151210449636" lon="12.28838637471199">
        <ele>2192.9000000000001</ele>
        <time>2015-07-13T10:33:58Z</time>
      </trkpt>
      <trkpt lat="46.591403977945447" lon="12.288375981152058">
        <ele>2190.02</ele>
        <time>2015-07-13T10:34:07Z</time>
      </trkpt>
      <trkpt lat="46.591377994045615" lon="12.288392158225179">
        <ele>2189.54</ele>
        <time>2015-07-13T10:34:09Z</time>
      </trkpt>
      <trkpt lat="46.591279674321413" lon="12.288526268675923">
        <ele>2188.0999999999999</ele>
        <time>2015-07-13T10:34:20Z</time>
      </trkpt>
      <trkpt lat="46.591199627146125" lon="12.288600197061896">
        <ele>2188.5799999999999</ele>
        <time>2015-07-13T10:34:30Z</time>
      </trkpt>
      <trkpt lat="46.591091165319085" lon="12.288704887032509">
        <ele>2186.6599999999999</ele>
        <time>2015-07-13T10:34:41Z</time>
      </trkpt>
      <trkpt lat="46.590958563610911" lon="12.288837069645524">
        <ele>2185.6900000000001</ele>
        <time>2015-07-13T10:34:53Z</time>
      </trkpt>
      <trkpt lat="46.590823698788881" lon="12.288974113762379">
        <ele>2184.73</ele>
        <time>2015-07-13T10:35:05Z</time>
      </trkpt>
      <trkpt lat="46.59077625721693" lon="12.289024908095598">
        <ele>2184.73</ele>
        <time>2015-07-13T10:35:10Z</time>
      </trkpt>
      <trkpt lat="46.590714147314429" lon="12.289178632199764">
        <ele>2183.29</ele>
        <time>2015-07-13T10:35:20Z</time>
      </trkpt>
      <trkpt lat="46.590641979128122" lon="12.289305534213781">
        <ele>2181.8499999999999</ele>
        <time>2015-07-13T10:35:32Z</time>
      </trkpt>
      <trkpt lat="46.590591268613935" lon="12.289402848109603">
        <ele>2181.3699999999999</ele>
        <time>2015-07-13T10:35:41Z</time>
      </trkpt>
      <trkpt lat="46.590555896982551" lon="12.289471747353673">
        <ele>2180.8899999999999</ele>
        <time>2015-07-13T10:35:51Z</time>
      </trkpt>
      <trkpt lat="46.590526895597577" lon="12.289535868912935">
        <ele>2180.8899999999999</ele>
        <time>2015-07-13T10:35:57Z</time>
      </trkpt>
      <trkpt lat="46.59051138907671" lon="12.289577443152666">
        <ele>2180.8899999999999</ele>
        <time>2015-07-13T10:36:01Z</time>
      </trkpt>
      <trkpt lat="46.590436454862356" lon="12.289744997397065">
        <ele>2178.9699999999998</ele>
        <time>2015-07-13T10:36:14Z</time>
      </trkpt>
      <trkpt lat="46.590302092954516" lon="12.289871564134955">
        <ele>2178</ele>
        <time>2015-07-13T10:36:26Z</time>
      </trkpt>
      <trkpt lat="46.590172592550516" lon="12.28997441008687">
        <ele>2177.52</ele>
        <time>2015-07-13T10:36:38Z</time>
      </trkpt>
      <trkpt lat="46.590053904801607" lon="12.290007183328271">
        <ele>2177.52</ele>
        <time>2015-07-13T10:36:48Z</time>
      </trkpt>
      <trkpt lat="46.590028926730156" lon="12.290027718991041">
        <ele>2176.5599999999999</ele>
        <time>2015-07-13T10:36:50Z</time>
      </trkpt>
      <trkpt lat="46.590014258399606" lon="12.29004037566483">
        <ele>2175.5999999999999</ele>
        <time>2015-07-13T10:36:51Z</time>
      </trkpt>
      <trkpt lat="46.590003194287419" lon="12.290050433948636">
        <ele>2175.5999999999999</ele>
        <time>2015-07-13T10:36:52Z</time>
      </trkpt>
      <trkpt lat="46.589993638917804" lon="12.290060576051474">
        <ele>2175.5999999999999</ele>
        <time>2015-07-13T10:36:53Z</time>
      </trkpt>
      <trkpt lat="46.589849637821317" lon="12.290141796693206">
        <ele>2174.6399999999999</ele>
        <time>2015-07-13T10:37:05Z</time>
      </trkpt>
      <trkpt lat="46.589710582047701" lon="12.290240619331598">
        <ele>2171.27</ele>
        <time>2015-07-13T10:37:18Z</time>
      </trkpt>
      <trkpt lat="46.589601114392281" lon="12.290248833596706">
        <ele>2170.3099999999999</ele>
        <time>2015-07-13T10:37:29Z</time>
      </trkpt>
      <trkpt lat="46.589558785781264" lon="12.290225951001048">
        <ele>2171.7600000000002</ele>
        <time>2015-07-13T10:37:35Z</time>
      </trkpt>
      <trkpt lat="46.589495837688446" lon="12.290235003456473">
        <ele>2170.79</ele>
        <time>2015-07-13T10:37:41Z</time>
      </trkpt>
      <trkpt lat="46.589482175186276" lon="12.290231818333268">
        <ele>2170.3099999999999</ele>
        <time>2015-07-13T10:37:42Z</time>
      </trkpt>
      <trkpt lat="46.589443199336529" lon="12.290226873010397">
        <ele>2169.8299999999999</ele>
        <time>2015-07-13T10:37:46Z</time>
      </trkpt>
      <trkpt lat="46.589430626481771" lon="12.290222933515906">
        <ele>2168.8699999999999</ele>
        <time>2015-07-13T10:37:47Z</time>
      </trkpt>
      <trkpt lat="46.589419646188617" lon="12.290215473622084">
        <ele>2168.3899999999999</ele>
        <time>2015-07-13T10:37:48Z</time>
      </trkpt>
      <trkpt lat="46.589404726400971" lon="12.290209354832768">
        <ele>2168.3899999999999</ele>
        <time>2015-07-13T10:37:49Z</time>
      </trkpt>
      <trkpt lat="46.589318476617336" lon="12.29017423465848">
        <ele>2168.8699999999999</ele>
        <time>2015-07-13T10:37:58Z</time>
      </trkpt>
      <trkpt lat="46.589282685890794" lon="12.29016593657434">
        <ele>2170.3099999999999</ele>
        <time>2015-07-13T10:38:01Z</time>
      </trkpt>
      <trkpt lat="46.589220575988293" lon="12.290138611570001">
        <ele>2169.3499999999999</ele>
        <time>2015-07-13T10:38:09Z</time>
      </trkpt>
      <trkpt lat="46.589211691170931" lon="12.290140707045794">
        <ele>2169.3499999999999</ele>
        <time>2015-07-13T10:38:18Z</time>
      </trkpt>
      <trkpt lat="46.589199788868427" lon="12.29013123549521">
        <ele>2169.8299999999999</ele>
        <time>2015-07-13T10:38:20Z</time>
      </trkpt>
      <trkpt lat="46.589187970384955" lon="12.290122266858816">
        <ele>2169.8299999999999</ele>
        <time>2015-07-13T10:38:21Z</time>
      </trkpt>
      <trkpt lat="46.589175062254071" lon="12.290118914097548">
        <ele>2169.3499999999999</ele>
        <time>2015-07-13T10:38:22Z</time>
      </trkpt>
      <trkpt lat="46.589161735028028" lon="12.29012050665915">
        <ele>2169.3499999999999</ele>
        <time>2015-07-13T10:38:23Z</time>
      </trkpt>
      <trkpt lat="46.589059391990304" lon="12.290084799751639">
        <ele>2170.3099999999999</ele>
        <time>2015-07-13T10:38:33Z</time>
      </trkpt>
      <trkpt lat="46.589005328714848" lon="12.2901058383286">
        <ele>2171.27</ele>
        <time>2015-07-13T10:38:39Z</time>
      </trkpt>
      <trkpt lat="46.588906841352582" lon="12.290176078677177">
        <ele>2173.1999999999998</ele>
        <time>2015-07-13T10:38:50Z</time>
      </trkpt>
      <trkpt lat="46.588782118633389" lon="12.29022997431457">
        <ele>2174.1599999999999</ele>
        <time>2015-07-13T10:39:02Z</time>
      </trkpt>
      <trkpt lat="46.588739287108183" lon="12.290250509977341">
        <ele>2175.5999999999999</ele>
        <time>2015-07-13T10:39:12Z</time>
      </trkpt>
      <trkpt lat="46.588683966547251" lon="12.290287557989359">
        <ele>2176.0799999999999</ele>
        <time>2015-07-13T10:39:25Z</time>
      </trkpt>
      <trkpt lat="46.588617162778974" lon="12.290301220491529">
        <ele>2176.5599999999999</ele>
        <time>2015-07-13T10:39:31Z</time>
      </trkpt>
      <trkpt lat="46.588603751733899" lon="12.290302813053131">
        <ele>2177.04</ele>
        <time>2015-07-13T10:39:32Z</time>
      </trkpt>
      <trkpt lat="46.588517669588327" lon="12.290341621264815">
        <ele>2178.48</ele>
        <time>2015-07-13T10:39:41Z</time>
      </trkpt>
      <trkpt lat="46.588434688746929" lon="12.290388476103544">
        <ele>2179.9299999999998</ele>
        <time>2015-07-13T10:39:52Z</time>
      </trkpt>
      <trkpt lat="46.588355144485831" lon="12.290441449731588">
        <ele>2180.4099999999999</ele>
        <time>2015-07-13T10:40:01Z</time>
      </trkpt>
      <trkpt lat="46.588251795619726" lon="12.290498865768313">
        <ele>2181.8499999999999</ele>
        <time>2015-07-13T10:40:13Z</time>
      </trkpt>
      <trkpt lat="46.58816454000771" lon="12.290529375895858">
        <ele>2183.29</ele>
        <time>2015-07-13T10:40:23Z</time>
      </trkpt>
      <trkpt lat="46.588029088452458" lon="12.290505487471819">
        <ele>2183.77</ele>
        <time>2015-07-13T10:40:36Z</time>
      </trkpt>
      <trkpt lat="46.588006960228086" lon="12.2905099298805">
        <ele>2183.77</ele>
        <time>2015-07-13T10:40:38Z</time>
      </trkpt>
      <trkpt lat="46.587994052097201" lon="12.290515042841434">
        <ele>2183.77</ele>
        <time>2015-07-13T10:40:39Z</time>
      </trkpt>
      <trkpt lat="46.587968990206718" lon="12.290545636788011">
        <ele>2183.77</ele>
        <time>2015-07-13T10:40:43Z</time>
      </trkpt>
      <trkpt lat="46.587932612746954" lon="12.290584361180663">
        <ele>2185.6900000000001</ele>
        <time>2015-07-13T10:40:51Z</time>
      </trkpt>
      <trkpt lat="46.587859019637108" lon="12.290670275688171">
        <ele>2185.6900000000001</ele>
        <time>2015-07-13T10:41:01Z</time>
      </trkpt>
      <trkpt lat="46.587827336043119" lon="12.290709083899856">
        <ele>2186.1799999999998</ele>
        <time>2015-07-13T10:41:06Z</time>
      </trkpt>
      <trkpt lat="46.587813757359982" lon="12.290730122476816">
        <ele>2186.1799999999998</ele>
        <time>2015-07-13T10:41:08Z</time>
      </trkpt>
      <trkpt lat="46.587715856730938" lon="12.290752669796348">
        <ele>2187.6199999999999</ele>
        <time>2015-07-13T10:41:20Z</time>
      </trkpt>
      <trkpt lat="46.587661961093545" lon="12.290722327306867">
        <ele>2189.0599999999999</ele>
        <time>2015-07-13T10:41:27Z</time>
      </trkpt>
      <trkpt lat="46.58764997497201" lon="12.290722830221057">
        <ele>2189.0599999999999</ele>
        <time>2015-07-13T10:41:28Z</time>
      </trkpt>
      <trkpt lat="46.587637988850474" lon="12.29071662761271">
        <ele>2189.0599999999999</ele>
        <time>2015-07-13T10:41:29Z</time>
      </trkpt>
      <trkpt lat="46.587606640532613" lon="12.290691733360291">
        <ele>2189.0599999999999</ele>
        <time>2015-07-13T10:41:32Z</time>
      </trkpt>
      <trkpt lat="46.587543357163668" lon="12.290676645934582">
        <ele>2190.5</ele>
        <time>2015-07-13T10:41:42Z</time>
      </trkpt>
      <trkpt lat="46.587522150948644" lon="12.290649907663465">
        <ele>2191.9400000000001</ele>
        <time>2015-07-13T10:41:51Z</time>
      </trkpt>
      <trkpt lat="46.587523575872183" lon="12.2906584572047">
        <ele>2192.4200000000001</ele>
        <time>2015-07-13T10:42:02Z</time>
      </trkpt>
      <trkpt lat="46.587520390748978" lon="12.290624426677823">
        <ele>2193.8699999999999</ele>
        <time>2015-07-13T10:42:08Z</time>
      </trkpt>
      <trkpt lat="46.587497843429446" lon="12.290624091401696">
        <ele>2193.3899999999999</ele>
        <time>2015-07-13T10:42:16Z</time>
      </trkpt>
      <trkpt lat="46.587514355778694" lon="12.290630964562297">
        <ele>2192.9000000000001</ele>
        <time>2015-07-13T10:42:28Z</time>
      </trkpt>
      <trkpt lat="46.587494490668178" lon="12.290626186877489">
        <ele>2192.9000000000001</ele>
        <time>2015-07-13T10:42:55Z</time>
      </trkpt>
      <trkpt lat="46.587504800409079" lon="12.290607579052448">
        <ele>2193.3899999999999</ele>
        <time>2015-07-13T10:43:12Z</time>
      </trkpt>
      <trkpt lat="46.587479570880532" lon="12.290613781660795">
        <ele>2193.8699999999999</ele>
        <time>2015-07-13T10:43:14Z</time>
      </trkpt>
      <trkpt lat="46.587391896173358" lon="12.29050456546247">
        <ele>2195.3099999999999</ele>
        <time>2015-07-13T10:43:25Z</time>
      </trkpt>
      <trkpt lat="46.587363481521606" lon="12.290472127497196">
        <ele>2195.79</ele>
        <time>2015-07-13T10:43:34Z</time>
      </trkpt>
      <trkpt lat="46.587330792099237" lon="12.2904391027987">
        <ele>2196.75</ele>
        <time>2015-07-13T10:43:45Z</time>
      </trkpt>
      <trkpt lat="46.58726935274899" lon="12.290407754480839">
        <ele>2199.6300000000001</ele>
        <time>2015-07-13T10:43:57Z</time>
      </trkpt>
      <trkpt lat="46.587187126278877" lon="12.290384704247117">
        <ele>2200.1100000000001</ele>
        <time>2015-07-13T10:44:07Z</time>
      </trkpt>
      <trkpt lat="46.587126608937979" lon="12.290307842195034">
        <ele>2201.0799999999999</ele>
        <time>2015-07-13T10:44:16Z</time>
      </trkpt>
      <trkpt lat="46.587107246741652" lon="12.290299208834767">
        <ele>2202.04</ele>
        <time>2015-07-13T10:44:19Z</time>
      </trkpt>
      <trkpt lat="46.586982188746333" lon="12.290252018719912">
        <ele>2202.52</ele>
        <time>2015-07-13T10:44:32Z</time>
      </trkpt>
      <trkpt lat="46.586899710819125" lon="12.290170211344957">
        <ele>2203.48</ele>
        <time>2015-07-13T10:44:43Z</time>
      </trkpt>
      <trkpt lat="46.586877414956689" lon="12.290149508044124">
        <ele>2203.96</ele>
        <time>2015-07-13T10:44:47Z</time>
      </trkpt>
      <trkpt lat="46.586803821846843" lon="12.290195105597377">
        <ele>2205.8800000000001</ele>
        <time>2015-07-13T10:44:59Z</time>
      </trkpt>
      <trkpt lat="46.586762499064207" lon="12.290142551064491">
        <ele>2207.8099999999999</ele>
        <time>2015-07-13T10:45:10Z</time>
      </trkpt>
      <trkpt lat="46.58674162812531" lon="12.290117992088199">
        <ele>2209.25</ele>
        <time>2015-07-13T10:45:23Z</time>
      </trkpt>
      <trkpt lat="46.586688570678234" lon="12.29016937315464">
        <ele>2210.6900000000001</ele>
        <time>2015-07-13T10:45:32Z</time>
      </trkpt>
      <trkpt lat="46.586674069985747" lon="12.290257550776005">
        <ele>2212.6100000000001</ele>
        <time>2015-07-13T10:45:44Z</time>
      </trkpt>
      <trkpt lat="46.586669124662876" lon="12.290378417819738">
        <ele>2214.0500000000002</ele>
        <time>2015-07-13T10:45:55Z</time>
      </trkpt>
      <trkpt lat="46.586646996438503" lon="12.290485957637429">
        <ele>2215.5</ele>
        <time>2015-07-13T10:46:06Z</time>
      </trkpt>
      <trkpt lat="46.586577091366053" lon="12.290420327335596">
        <ele>2217.4200000000001</ele>
        <time>2015-07-13T10:46:15Z</time>
      </trkpt>
      <trkpt lat="46.586539540439844" lon="12.290326952934265">
        <ele>2219.3400000000001</ele>
        <time>2015-07-13T10:46:25Z</time>
      </trkpt>
      <trkpt lat="46.586509952321649" lon="12.290238188579679">
        <ele>2221.2600000000002</ele>
        <time>2015-07-13T10:46:36Z</time>
      </trkpt>
      <trkpt lat="46.586465612053871" lon="12.290181778371334">
        <ele>2223.1900000000001</ele>
        <time>2015-07-13T10:46:47Z</time>
      </trkpt>
      <trkpt lat="46.586418505758047" lon="12.290134588256478">
        <ele>2224.6300000000001</ele>
        <time>2015-07-13T10:46:58Z</time>
      </trkpt>
      <trkpt lat="46.586435521021485" lon="12.290171133354306">
        <ele>2226.0700000000002</ele>
        <time>2015-07-13T10:47:07Z</time>
      </trkpt>
      <trkpt lat="46.586452620103955" lon="12.290259981527925">
        <ele>2227.9899999999998</ele>
        <time>2015-07-13T10:47:18Z</time>
      </trkpt>
      <trkpt lat="46.586404843255877" lon="12.290238104760647">
        <ele>2229.4299999999998</ele>
        <time>2015-07-13T10:47:27Z</time>
      </trkpt>
      <trkpt lat="46.586342481896281" lon="12.290196111425757">
        <ele>2231.8400000000001</ele>
        <time>2015-07-13T10:47:38Z</time>
      </trkpt>
      <trkpt lat="46.586270313709974" lon="12.29012687690556">
        <ele>2232.8000000000002</ele>
        <time>2015-07-13T10:47:49Z</time>
      </trkpt>
      <trkpt lat="46.586215160787106" lon="12.290059821680188">
        <ele>2234.2399999999998</ele>
        <time>2015-07-13T10:48:02Z</time>
      </trkpt>
      <trkpt lat="46.586202755570412" lon="12.290103742852807">
        <ele>2236.1599999999999</ele>
        <time>2015-07-13T10:48:12Z</time>
      </trkpt>
      <trkpt lat="46.586141567677259" lon="12.290080189704895">
        <ele>2238.5700000000002</ele>
        <time>2015-07-13T10:48:23Z</time>
      </trkpt>
      <trkpt lat="46.586092785000801" lon="12.290071723982692">
        <ele>2240.0100000000002</ele>
        <time>2015-07-13T10:48:33Z</time>
      </trkpt>
      <trkpt lat="46.586047187447548" lon="12.290006009861827">
        <ele>2241.9299999999998</ele>
        <time>2015-07-13T10:48:44Z</time>
      </trkpt>
      <trkpt lat="46.586060514673591" lon="12.290037525817752">
        <ele>2242.8899999999999</ele>
        <time>2015-07-13T10:48:53Z</time>
      </trkpt>
      <trkpt lat="46.586009385064244" lon="12.290029563009739">
        <ele>2245.3000000000002</ele>
        <time>2015-07-13T10:49:05Z</time>
      </trkpt>
      <trkpt lat="46.585957920178771" lon="12.289969967678189">
        <ele>2247.2199999999998</ele>
        <time>2015-07-13T10:49:15Z</time>
      </trkpt>
      <trkpt lat="46.585901845246553" lon="12.289925459772348">
        <ele>2249.1399999999999</ele>
        <time>2015-07-13T10:49:26Z</time>
      </trkpt>
      <trkpt lat="46.585856918245554" lon="12.289880700409412">
        <ele>2251.0599999999999</ele>
        <time>2015-07-13T10:49:37Z</time>
      </trkpt>
      <trkpt lat="46.585800675675273" lon="12.289807442575693">
        <ele>2252.5100000000002</ele>
        <time>2015-07-13T10:49:48Z</time>
      </trkpt>
      <trkpt lat="46.585782989859581" lon="12.289736615493894">
        <ele>2252.9899999999998</ele>
        <time>2015-07-13T10:49:56Z</time>
      </trkpt>
      <trkpt lat="46.585786091163754" lon="12.289752038195729">
        <ele>2253.9499999999998</ele>
        <time>2015-07-13T10:50:00Z</time>
      </trkpt>
      <trkpt lat="46.585717359557748" lon="12.289645671844482">
        <ele>2254.9099999999999</ele>
        <time>2015-07-13T10:50:11Z</time>
      </trkpt>
      <trkpt lat="46.585691627115011" lon="12.289624465629458">
        <ele>2255.3899999999999</ele>
        <time>2015-07-13T10:50:16Z</time>
      </trkpt>
      <trkpt lat="46.585642509162426" lon="12.289612563326955">
        <ele>2257.3099999999999</ele>
        <time>2015-07-13T10:50:25Z</time>
      </trkpt>
      <trkpt lat="46.585601940751076" lon="12.289569228887558">
        <ele>2258.75</ele>
        <time>2015-07-13T10:50:35Z</time>
      </trkpt>
      <trkpt lat="46.585536813363433" lon="12.289543831720948">
        <ele>2259.7199999999998</ele>
        <time>2015-07-13T10:50:45Z</time>
      </trkpt>
      <trkpt lat="46.585486857220531" lon="12.289561349898577">
        <ele>2261.1599999999999</ele>
        <time>2015-07-13T10:50:56Z</time>
      </trkpt>
      <trkpt lat="46.585473194718361" lon="12.289495132863522">
        <ele>2261.6399999999999</ele>
        <time>2015-07-13T10:51:07Z</time>
      </trkpt>
      <trkpt lat="46.585490796715021" lon="12.289473759010434">
        <ele>2262.1199999999999</ele>
        <time>2015-07-13T10:51:20Z</time>
      </trkpt>
      <trkpt lat="46.585503872483969" lon="12.289490941911936">
        <ele>2261.6399999999999</ele>
        <time>2015-07-13T10:51:28Z</time>
      </trkpt>
      <trkpt lat="46.585498591884971" lon="12.28947308845818">
        <ele>2261.6399999999999</ele>
        <time>2015-07-13T10:51:38Z</time>
      </trkpt>
      <trkpt lat="46.585449557751417" lon="12.289427490904927">
        <ele>2262.5999999999999</ele>
        <time>2015-07-13T10:51:48Z</time>
      </trkpt>
      <trkpt lat="46.585393231362104" lon="12.289390945807099">
        <ele>2264.04</ele>
        <time>2015-07-13T10:51:59Z</time>
      </trkpt>
      <trkpt lat="46.585352830588818" lon="12.28934702463448">
        <ele>2265</ele>
        <time>2015-07-13T10:52:09Z</time>
      </trkpt>
      <trkpt lat="46.585319386795163" lon="12.289343839511275">
        <ele>2265.96</ele>
        <time>2015-07-13T10:52:18Z</time>
      </trkpt>
      <trkpt lat="46.585264150053263" lon="12.289293464273214">
        <ele>2266.4499999999998</ele>
        <time>2015-07-13T10:52:28Z</time>
      </trkpt>
      <trkpt lat="46.585244284942746" lon="12.28931961581111">
        <ele>2266.9299999999998</ele>
        <time>2015-07-13T10:52:36Z</time>
      </trkpt>
      <trkpt lat="46.585246631875634" lon="12.289343671873212">
        <ele>2267.8899999999999</ele>
        <time>2015-07-13T10:52:43Z</time>
      </trkpt>
      <trkpt lat="46.585275884717703" lon="12.289366386830807">
        <ele>2268.8499999999999</ele>
        <time>2015-07-13T10:52:53Z</time>
      </trkpt>
      <trkpt lat="46.585276387631893" lon="12.289414163678885">
        <ele>2269.8099999999999</ele>
        <time>2015-07-13T10:53:00Z</time>
      </trkpt>
      <trkpt lat="46.585231376811862" lon="12.289415001869202">
        <ele>2270.77</ele>
        <time>2015-07-13T10:53:09Z</time>
      </trkpt>
      <trkpt lat="46.585177564993501" lon="12.289409218356013">
        <ele>2271.73</ele>
        <time>2015-07-13T10:53:17Z</time>
      </trkpt>
      <trkpt lat="46.585124423727393" lon="12.289398908615112">
        <ele>2274.1399999999999</ele>
        <time>2015-07-13T10:53:27Z</time>
      </trkpt>
      <trkpt lat="46.585073713213205" lon="12.28940075263381">
        <ele>2274.6199999999999</ele>
        <time>2015-07-13T10:53:39Z</time>
      </trkpt>
      <trkpt lat="46.585049657151103" lon="12.289364458993077">
        <ele>2275.0999999999999</ele>
        <time>2015-07-13T10:53:49Z</time>
      </trkpt>
      <trkpt lat="46.585002634674311" lon="12.289292123168707">
        <ele>2276.0599999999999</ele>
        <time>2015-07-13T10:53:58Z</time>
      </trkpt>
      <trkpt lat="46.584977237507701" lon="12.289161533117294">
        <ele>2275.5799999999999</ele>
        <time>2015-07-13T10:54:09Z</time>
      </trkpt>
      <trkpt lat="46.584979584440589" lon="12.28908752091229">
        <ele>2275.0999999999999</ele>
        <time>2015-07-13T10:54:19Z</time>
      </trkpt>
      <trkpt lat="46.584979752078652" lon="12.289076372981071">
        <ele>2275.5799999999999</ele>
        <time>2015-07-13T10:54:20Z</time>
      </trkpt>
      <trkpt lat="46.585004227235913" lon="12.28900546208024">
        <ele>2275.5799999999999</ele>
        <time>2015-07-13T10:54:29Z</time>
      </trkpt>
      <trkpt lat="46.585057117044926" lon="12.288974532857537">
        <ele>2275.0999999999999</ele>
        <time>2015-07-13T10:54:38Z</time>
      </trkpt>
      <trkpt lat="46.585060972720385" lon="12.288981070742011">
        <ele>2275.0999999999999</ele>
        <time>2015-07-13T10:54:51Z</time>
      </trkpt>
      <trkpt lat="46.585050914436579" lon="12.288955170661211">
        <ele>2275.0999999999999</ele>
        <time>2015-07-13T10:54:59Z</time>
      </trkpt>
      <trkpt lat="46.585074299946427" lon="12.288915105164051">
        <ele>2276.0599999999999</ele>
        <time>2015-07-13T10:55:04Z</time>
      </trkpt>
      <trkpt lat="46.585059966892004" lon="12.288875710219145">
        <ele>2277.98</ele>
        <time>2015-07-13T10:55:12Z</time>
      </trkpt>
      <trkpt lat="46.584987128153443" lon="12.288809828460217">
        <ele>2280.3800000000001</ele>
        <time>2015-07-13T10:55:26Z</time>
      </trkpt>
      <trkpt lat="46.584942704066634" lon="12.288795998319983">
        <ele>2282.3099999999999</ele>
        <time>2015-07-13T10:55:36Z</time>
      </trkpt>
      <trkpt lat="46.58496743068099" lon="12.288699941709638">
        <ele>2285.1900000000001</ele>
        <time>2015-07-13T10:55:46Z</time>
      </trkpt>
      <trkpt lat="46.58494396135211" lon="12.288694074377418">
        <ele>2286.6300000000001</ele>
        <time>2015-07-13T10:55:55Z</time>
      </trkpt>
      <trkpt lat="46.584885707125068" lon="12.288691140711308">
        <ele>2288.0799999999999</ele>
        <time>2015-07-13T10:56:06Z</time>
      </trkpt>
      <trkpt lat="46.584887383505702" lon="12.288628024980426">
        <ele>2290</ele>
        <time>2015-07-13T10:56:14Z</time>
      </trkpt>
      <trkpt lat="46.584834577515721" lon="12.288619643077254">
        <ele>2291.4400000000001</ele>
        <time>2015-07-13T10:56:26Z</time>
      </trkpt>
      <trkpt lat="46.584826447069645" lon="12.28857010602951">
        <ele>2293.3600000000001</ele>
        <time>2015-07-13T10:56:38Z</time>
      </trkpt>
      <trkpt lat="46.584790153428912" lon="12.288544708862901">
        <ele>2293.8400000000001</ele>
        <time>2015-07-13T10:56:47Z</time>
      </trkpt>
      <trkpt lat="46.584889143705368" lon="12.288478072732687">
        <ele>2295.77</ele>
        <time>2015-07-13T10:57:01Z</time>
      </trkpt>
      <trkpt lat="46.584895346313715" lon="12.288488717749715">
        <ele>2296.25</ele>
        <time>2015-07-13T10:57:12Z</time>
      </trkpt>
      <trkpt lat="46.584879672154784" lon="12.288558119907975">
        <ele>2296.25</ele>
        <time>2015-07-13T10:57:23Z</time>
      </trkpt>
      <trkpt lat="46.584875984117389" lon="12.288524508476257">
        <ele>2296.25</ele>
        <time>2015-07-13T10:57:30Z</time>
      </trkpt>
      <trkpt lat="46.584878331050277" lon="12.288525514304638">
        <ele>2296.25</ele>
        <time>2015-07-13T10:57:41Z</time>
      </trkpt>
      <trkpt lat="46.58488629385829" lon="12.288524676114321">
        <ele>2296.73</ele>
        <time>2015-07-13T10:57:53Z</time>
      </trkpt>
      <trkpt lat="46.584911439567804" lon="12.288538590073586">
        <ele>2296.73</ele>
        <time>2015-07-13T10:58:06Z</time>
      </trkpt>
      <trkpt lat="46.584894172847271" lon="12.288493998348713">
        <ele>2296.25</ele>
        <time>2015-07-13T10:58:18Z</time>
      </trkpt>
      <trkpt lat="46.584903644397855" lon="12.288470529019833">
        <ele>2296.73</ele>
        <time>2015-07-13T10:58:27Z</time>
      </trkpt>
      <trkpt lat="46.584875145927072" lon="12.288450412452221">
        <ele>2296.73</ele>
        <time>2015-07-13T10:58:40Z</time>
      </trkpt>
      <trkpt lat="46.584913032129407" lon="12.288419064134359">
        <ele>2297.21</ele>
        <time>2015-07-13T10:58:52Z</time>
      </trkpt>
      <trkpt lat="46.584907835349441" lon="12.288434067741036">
        <ele>2297.21</ele>
        <time>2015-07-13T10:59:00Z</time>
      </trkpt>
      <trkpt lat="46.584904314950109" lon="12.288442868739367">
        <ele>2297.21</ele>
        <time>2015-07-13T10:59:12Z</time>
      </trkpt>
      <trkpt lat="46.584913032129407" lon="12.288419902324677">
        <ele>2296.73</ele>
        <time>2015-07-13T10:59:22Z</time>
      </trkpt>
      <trkpt lat="46.584931723773479" lon="12.288441611453891">
        <ele>2297.21</ele>
        <time>2015-07-13T10:59:35Z</time>
      </trkpt>
      <trkpt lat="46.584928957745433" lon="12.288492741063237">
        <ele>2297.21</ele>
        <time>2015-07-13T10:59:50Z</time>
      </trkpt>
      <trkpt lat="46.584936669096351" lon="12.288470948114991">
        <ele>2297.6900000000001</ele>
        <time>2015-07-13T11:00:03Z</time>
      </trkpt>
      <trkpt lat="46.584901632741094" lon="12.288484442979097">
        <ele>2297.6900000000001</ele>
        <time>2015-07-13T11:00:14Z</time>
      </trkpt>
      <trkpt lat="46.584886042401195" lon="12.288492154330015">
        <ele>2299.1300000000001</ele>
        <time>2015-07-13T11:00:24Z</time>
      </trkpt>
      <trkpt lat="46.584886461496353" lon="12.288502128794789">
        <ele>2299.1300000000001</ele>
        <time>2015-07-13T11:00:36Z</time>
      </trkpt>
      <trkpt lat="46.58490733243525" lon="12.288511600345373">
        <ele>2299.1300000000001</ele>
        <time>2015-07-13T11:00:56Z</time>
      </trkpt>
      <trkpt lat="46.584955779835582" lon="12.288549821823835">
        <ele>2299.6100000000001</ele>
        <time>2015-07-13T11:01:17Z</time>
      </trkpt>
      <trkpt lat="46.584970112890005" lon="12.28855837136507">
        <ele>2299.6100000000001</ele>
        <time>2015-07-13T11:01:30Z</time>
      </trkpt>
      <trkpt lat="46.585005233064294" lon="12.28855493478477">
        <ele>2300.0900000000001</ele>
        <time>2015-07-13T11:01:45Z</time>
      </trkpt>
      <trkpt lat="46.584912110120058" lon="12.288472037762403">
        <ele>2300.0900000000001</ele>
        <time>2015-07-13T11:01:54Z</time>
      </trkpt>
      <trkpt lat="46.58489509485662" lon="12.288392158225179">
        <ele>2302.4899999999998</ele>
        <time>2015-07-13T11:02:02Z</time>
      </trkpt>
      <trkpt lat="46.584925437346101" lon="12.288346141576767">
        <ele>2304.4200000000001</ele>
        <time>2015-07-13T11:02:10Z</time>
      </trkpt>
      <trkpt lat="46.584978578612208" lon="12.288282690569758">
        <ele>2305.8600000000001</ele>
        <time>2015-07-13T11:02:22Z</time>
      </trkpt>
      <trkpt lat="46.584921330213547" lon="12.288281014189124">
        <ele>2307.7800000000002</ele>
        <time>2015-07-13T11:02:32Z</time>
      </trkpt>
      <trkpt lat="46.584871541708708" lon="12.288245307281613">
        <ele>2310.1900000000001</ele>
        <time>2015-07-13T11:02:42Z</time>
      </trkpt>
      <trkpt lat="46.584804486483335" lon="12.288198536261916">
        <ele>2312.1100000000001</ele>
        <time>2015-07-13T11:02:54Z</time>
      </trkpt>
      <trkpt lat="46.584833320230246" lon="12.288136091083288">
        <ele>2313.5500000000002</ele>
        <time>2015-07-13T11:03:03Z</time>
      </trkpt>
      <trkpt lat="46.58484036102891" lon="12.2881044074893">
        <ele>2314.9899999999998</ele>
        <time>2015-07-13T11:03:11Z</time>
      </trkpt>
      <trkpt lat="46.584854945540428" lon="12.288098791614175">
        <ele>2315.4699999999998</ele>
        <time>2015-07-13T11:03:13Z</time>
      </trkpt>
      <trkpt lat="46.584912948310375" lon="12.288068113848567">
        <ele>2316.4299999999998</ele>
        <time>2015-07-13T11:03:24Z</time>
      </trkpt>
      <trkpt lat="46.584871206432581" lon="12.288056714460254">
        <ele>2318.3600000000001</ele>
        <time>2015-07-13T11:03:34Z</time>
      </trkpt>
      <trkpt lat="46.584834912791848" lon="12.288013212382793">
        <ele>2320.2800000000002</ele>
        <time>2015-07-13T11:03:45Z</time>
      </trkpt>
      <trkpt lat="46.584784537553787" lon="12.287986138835549">
        <ele>2322.1999999999998</ele>
        <time>2015-07-13T11:03:54Z</time>
      </trkpt>
      <trkpt lat="46.584747657179832" lon="12.288003321737051">
        <ele>2324.6100000000001</ele>
        <time>2015-07-13T11:04:08Z</time>
      </trkpt>
      <trkpt lat="46.584720080718398" lon="12.28795344941318">
        <ele>2326.0500000000002</ele>
        <time>2015-07-13T11:04:18Z</time>
      </trkpt>
      <trkpt lat="46.584685379639268" lon="12.287905169650912">
        <ele>2328.9299999999998</ele>
        <time>2015-07-13T11:04:29Z</time>
      </trkpt>
      <trkpt lat="46.584654953330755" lon="12.287866277620196">
        <ele>2331.3299999999999</ele>
        <time>2015-07-13T11:04:40Z</time>
      </trkpt>
      <trkpt lat="46.584661575034261" lon="12.287864685058594">
        <ele>2332.7800000000002</ele>
        <time>2015-07-13T11:04:51Z</time>
      </trkpt>
      <trkpt lat="46.584657048806548" lon="12.287821853533387">
        <ele>2334.2199999999998</ele>
        <time>2015-07-13T11:05:03Z</time>
      </trkpt>
      <trkpt lat="46.584613882005215" lon="12.287813136354089">
        <ele>2336.6199999999999</ele>
        <time>2015-07-13T11:05:13Z</time>
      </trkpt>
      <trkpt lat="46.584592172876" lon="12.287798970937729">
        <ele>2338.54</ele>
        <time>2015-07-13T11:05:22Z</time>
      </trkpt>
      <trkpt lat="46.584572056308389" lon="12.287764186039567">
        <ele>2340.4699999999998</ele>
        <time>2015-07-13T11:05:32Z</time>
      </trkpt>
      <trkpt lat="46.584548251703382" lon="12.287748176604509">
        <ele>2341.9099999999999</ele>
        <time>2015-07-13T11:05:40Z</time>
      </trkpt>
      <trkpt lat="46.584538612514734" lon="12.287722611799836">
        <ele>2343.3499999999999</ele>
        <time>2015-07-13T11:05:50Z</time>
      </trkpt>
      <trkpt lat="46.584517657756805" lon="12.287702662870288">
        <ele>2345.27</ele>
        <time>2015-07-13T11:05:58Z</time>
      </trkpt>
      <trkpt lat="46.584561076015234" lon="12.287673661485314">
        <ele>2346.23</ele>
        <time>2015-07-13T11:06:05Z</time>
      </trkpt>
      <trkpt lat="46.584637016057968" lon="12.287656310945749">
        <ele>2347.6799999999998</ele>
        <time>2015-07-13T11:06:18Z</time>
      </trkpt>
      <trkpt lat="46.58470063470304" lon="12.287670224905014">
        <ele>2349.1199999999999</ele>
        <time>2015-07-13T11:06:29Z</time>
      </trkpt>
      <trkpt lat="46.584651684388518" lon="12.287645163014531">
        <ele>2351.04</ele>
        <time>2015-07-13T11:06:38Z</time>
      </trkpt>
      <trkpt lat="46.584608601406217" lon="12.287611551582813">
        <ele>2351.52</ele>
        <time>2015-07-13T11:06:47Z</time>
      </trkpt>
      <trkpt lat="46.584578510373831" lon="12.287609120830894">
        <ele>2352</ele>
        <time>2015-07-13T11:06:55Z</time>
      </trkpt>
      <trkpt lat="46.584568368270993" lon="12.287574168294668">
        <ele>2354.8899999999999</ele>
        <time>2015-07-13T11:07:04Z</time>
      </trkpt>
      <trkpt lat="46.584652857854962" lon="12.287567965686321">
        <ele>2354.8899999999999</ele>
        <time>2015-07-13T11:07:14Z</time>
      </trkpt>
      <trkpt lat="46.58469770103693" lon="12.287554554641247">
        <ele>2357.29</ele>
        <time>2015-07-13T11:07:27Z</time>
      </trkpt>
      <trkpt lat="46.584728294983506" lon="12.287533935159445">
        <ele>2359.21</ele>
        <time>2015-07-13T11:07:38Z</time>
      </trkpt>
      <trkpt lat="46.58471236936748" lon="12.287495629861951">
        <ele>2360.6500000000001</ele>
        <time>2015-07-13T11:07:47Z</time>
      </trkpt>
      <trkpt lat="46.58472603186965" lon="12.287507532164454">
        <ele>2362.0999999999999</ele>
        <time>2015-07-13T11:07:57Z</time>
      </trkpt>
      <trkpt lat="46.584744807332754" lon="12.287464197725058">
        <ele>2363.0599999999999</ele>
        <time>2015-07-13T11:08:11Z</time>
      </trkpt>
      <trkpt lat="46.584771294146776" lon="12.287465538829565">
        <ele>2365.46</ele>
        <time>2015-07-13T11:08:22Z</time>
      </trkpt>
      <trkpt lat="46.584811359643936" lon="12.287459587678313">
        <ele>2367.8600000000001</ele>
        <time>2015-07-13T11:08:33Z</time>
      </trkpt>
      <trkpt lat="46.584833236411214" lon="12.287448858842254">
        <ele>2369.79</ele>
        <time>2015-07-13T11:08:41Z</time>
      </trkpt>
      <trkpt lat="46.584855867549777" lon="12.287478866055608">
        <ele>2369.79</ele>
        <time>2015-07-13T11:08:50Z</time>
      </trkpt>
      <trkpt lat="46.584853185340762" lon="12.287459168583155">
        <ele>2369.79</ele>
        <time>2015-07-13T11:09:04Z</time>
      </trkpt>
      <trkpt lat="46.584881767630577" lon="12.287432933226228">
        <ele>2369.79</ele>
        <time>2015-07-13T11:09:15Z</time>
      </trkpt>
      <trkpt lat="46.584892245009542" lon="12.287458078935742">
        <ele>2369.79</ele>
        <time>2015-07-13T11:09:25Z</time>
      </trkpt>
      <trkpt lat="46.584881599992514" lon="12.287448104470968">
        <ele>2369.79</ele>
        <time>2015-07-13T11:09:39Z</time>
      </trkpt>
      <trkpt lat="46.584873972460628" lon="12.287450116127729">
        <ele>2369.79</ele>
        <time>2015-07-13T11:09:42Z</time>
      </trkpt>
      <trkpt lat="46.584840696305037" lon="12.287483224645257">
        <ele>2369.3099999999999</ele>
        <time>2015-07-13T11:09:51Z</time>
      </trkpt>
      <trkpt lat="46.584841450676322" lon="12.287475345656276">
        <ele>2369.79</ele>
        <time>2015-07-13T11:10:03Z</time>
      </trkpt>
      <trkpt lat="46.584847820922732" lon="12.287454809993505">
        <ele>2369.79</ele>
        <time>2015-07-13T11:10:14Z</time>
      </trkpt>
      <trkpt lat="46.584830218926072" lon="12.287472244352102">
        <ele>2370.27</ele>
        <time>2015-07-13T11:10:26Z</time>
      </trkpt>
      <trkpt lat="46.584829213097692" lon="12.287426646798849">
        <ele>2370.27</ele>
        <time>2015-07-13T11:10:39Z</time>
      </trkpt>
      <trkpt lat="46.584836421534419" lon="12.287401333451271">
        <ele>2370.27</ele>
        <time>2015-07-13T11:10:55Z</time>
      </trkpt>
      <trkpt lat="46.584859052672982" lon="12.287421030923724">
        <ele>2370.27</ele>
        <time>2015-07-13T11:11:08Z</time>
      </trkpt>
      <trkpt lat="46.584844887256622" lon="12.287449864670634">
        <ele>2370.27</ele>
        <time>2015-07-13T11:11:25Z</time>
      </trkpt>
      <trkpt lat="46.584843629971147" lon="12.287486996501684">
        <ele>2370.27</ele>
        <time>2015-07-13T11:11:39Z</time>
      </trkpt>
      <trkpt lat="46.584845306351781" lon="12.287478027865291">
        <ele>2370.27</ele>
        <time>2015-07-13T11:11:49Z</time>
      </trkpt>
      <trkpt lat="46.584848910570145" lon="12.287494037300348">
        <ele>2370.75</ele>
        <time>2015-07-13T11:12:08Z</time>
      </trkpt>
      <trkpt lat="46.584833487868309" lon="12.287478782236576">
        <ele>2370.27</ele>
        <time>2015-07-13T11:12:23Z</time>
      </trkpt>
      <trkpt lat="46.58482720144093" lon="12.28745355270803">
        <ele>2370.27</ele>
        <time>2015-07-13T11:12:40Z</time>
      </trkpt>
      <trkpt lat="46.584859304130077" lon="12.287428239360452">
        <ele>2370.27</ele>
        <time>2015-07-13T11:12:50Z</time>
      </trkpt>
      <trkpt lat="46.584828710183501" lon="12.287470987066627">
        <ele>2370.27</ele>
        <time>2015-07-13T11:13:00Z</time>
      </trkpt>
      <trkpt lat="46.584831392392516" lon="12.28745891712606">
        <ele>2370.27</ele>
        <time>2015-07-13T11:13:20Z</time>
      </trkpt>
      <trkpt lat="46.584838181734085" lon="12.287445841357112">
        <ele>2370.27</ele>
        <time>2015-07-13T11:13:32Z</time>
      </trkpt>
      <trkpt lat="46.58482426777482" lon="12.287441650405526">
        <ele>2370.27</ele>
        <time>2015-07-13T11:13:49Z</time>
      </trkpt>
      <trkpt lat="46.58482032828033" lon="12.287450032308698">
        <ele>2370.27</ele>
        <time>2015-07-13T11:14:02Z</time>
      </trkpt>
      <trkpt lat="46.584830470383167" lon="12.287468472495675">
        <ele>2370.27</ele>
        <time>2015-07-13T11:14:21Z</time>
      </trkpt>
      <trkpt lat="46.584811862558126" lon="12.287459168583155">
        <ele>2370.27</ele>
        <time>2015-07-13T11:14:36Z</time>
      </trkpt>
      <trkpt lat="46.584834661334753" lon="12.287415079772472">
        <ele>2370.27</ele>
        <time>2015-07-13T11:14:53Z</time>
      </trkpt>
      <trkpt lat="46.584822759032249" lon="12.287412649020553">
        <ele>2370.75</ele>
        <time>2015-07-13T11:15:11Z</time>
      </trkpt>
      <trkpt lat="46.584812197834253" lon="12.287429748103023">
        <ele>2370.27</ele>
        <time>2015-07-13T11:15:26Z</time>
      </trkpt>
      <trkpt lat="46.584819154813886" lon="12.287451541051269">
        <ele>2370.75</ele>
        <time>2015-07-13T11:15:40Z</time>
      </trkpt>
      <trkpt lat="46.584800546988845" lon="12.287450116127729">
        <ele>2370.27</ele>
        <time>2015-07-13T11:15:57Z</time>
      </trkpt>
      <trkpt lat="46.584813958033919" lon="12.287426814436913">
        <ele>2370.75</ele>
        <time>2015-07-13T11:16:11Z</time>
      </trkpt>
      <trkpt lat="46.584835080429912" lon="12.287428574636579">
        <ele>2370.75</ele>
        <time>2015-07-13T11:16:24Z</time>
      </trkpt>
      <trkpt lat="46.58482963219285" lon="12.287409799173474">
        <ele>2370.27</ele>
        <time>2015-07-13T11:16:39Z</time>
      </trkpt>
      <trkpt lat="46.584858214482665" lon="12.287406530231237">
        <ele>2370.75</ele>
        <time>2015-07-13T11:16:51Z</time>
      </trkpt>
      <trkpt lat="46.584842540323734" lon="12.287472328171134">
        <ele>2370.75</ele>
        <time>2015-07-13T11:17:03Z</time>
      </trkpt>
      <trkpt lat="46.5848374273628" lon="12.287451205775142">
        <ele>2370.75</ele>
        <time>2015-07-13T11:17:13Z</time>
      </trkpt>
      <trkpt lat="46.584826363250613" lon="12.287493702024221">
        <ele>2370.75</ele>
        <time>2015-07-13T11:17:30Z</time>
      </trkpt>
      <trkpt lat="46.584818484261632" lon="12.287471406161785">
        <ele>2370.75</ele>
        <time>2015-07-13T11:17:51Z</time>
      </trkpt>
      <trkpt lat="46.58479786477983" lon="12.287459587678313">
        <ele>2371.23</ele>
        <time>2015-07-13T11:18:04Z</time>
      </trkpt>
      <trkpt lat="46.584792835637927" lon="12.28749169036746">
        <ele>2371.23</ele>
        <time>2015-07-13T11:18:19Z</time>
      </trkpt>
      <trkpt lat="46.584844132885337" lon="12.287452211603522">
        <ele>2371.23</ele>
        <time>2015-07-13T11:18:28Z</time>
      </trkpt>
      <trkpt lat="46.584991989657283" lon="12.287429161369801">
        <ele>2368.3499999999999</ele>
        <time>2015-07-13T11:18:41Z</time>
      </trkpt>
      <trkpt lat="46.585060385987163" lon="12.287386329844594">
        <ele>2366.4200000000001</ele>
        <time>2015-07-13T11:18:47Z</time>
      </trkpt>
      <trkpt lat="46.585188712924719" lon="12.287384234368801">
        <ele>2364.5</ele>
        <time>2015-07-13T11:18:58Z</time>
      </trkpt>
      <trkpt lat="46.585197597742081" lon="12.287384402006865">
        <ele>2364.02</ele>
        <time>2015-07-13T11:19:07Z</time>
      </trkpt>
      <trkpt lat="46.585190389305353" lon="12.287376690655947">
        <ele>2364.02</ele>
        <time>2015-07-13T11:19:33Z</time>
      </trkpt>
      <trkpt lat="46.585195418447256" lon="12.287378953769803">
        <ele>2364.02</ele>
        <time>2015-07-13T11:19:50Z</time>
      </trkpt>
      <trkpt lat="46.585194077342749" lon="12.287376020103693">
        <ele>2364.02</ele>
        <time>2015-07-13T11:20:11Z</time>
      </trkpt>
      <trkpt lat="46.58519365824759" lon="12.28739446029067">
        <ele>2364.02</ele>
        <time>2015-07-13T11:20:34Z</time>
      </trkpt>
      <trkpt lat="46.58517605625093" lon="12.287383479997516">
        <ele>2363.54</ele>
        <time>2015-07-13T11:21:00Z</time>
      </trkpt>
      <trkpt lat="46.585185276344419" lon="12.287383982911706">
        <ele>2363.54</ele>
        <time>2015-07-13T11:21:36Z</time>
      </trkpt>
      <trkpt lat="46.58520145341754" lon="12.28738809004426">
        <ele>2363.54</ele>
        <time>2015-07-13T11:22:01Z</time>
      </trkpt>
      <trkpt lat="46.585216037929058" lon="12.287404099479318">
        <ele>2363.54</ele>
        <time>2015-07-13T11:22:22Z</time>
      </trkpt>
      <trkpt lat="46.585219893604517" lon="12.287375433370471">
        <ele>2363.54</ele>
        <time>2015-07-13T11:22:43Z</time>
      </trkpt>
      <trkpt lat="46.585206314921379" lon="12.287389934062958">
        <ele>2363.0599999999999</ele>
        <time>2015-07-13T11:23:15Z</time>
      </trkpt>
      <trkpt lat="46.585212182253599" lon="12.287373337894678">
        <ele>2363.0599999999999</ele>
        <time>2015-07-13T11:23:34Z</time>
      </trkpt>
      <trkpt lat="46.585198855027556" lon="12.287376187741756">
        <ele>2363.0599999999999</ele>
        <time>2015-07-13T11:23:56Z</time>
      </trkpt>
      <trkpt lat="46.585205141454935" lon="12.287376271560788">
        <ele>2363.0599999999999</ele>
        <time>2015-07-13T11:24:24Z</time>
      </trkpt>
      <trkpt lat="46.585200028494" lon="12.287381468340755">
        <ele>2363.0599999999999</ele>
        <time>2015-07-13T11:24:51Z</time>
      </trkpt>
      <trkpt lat="46.585205309092999" lon="12.287361603230238">
        <ele>2363.54</ele>
        <time>2015-07-13T11:25:19Z</time>
      </trkpt>
      <trkpt lat="46.585200028494" lon="12.287354143336415">
        <ele>2363.54</ele>
        <time>2015-07-13T11:25:45Z</time>
      </trkpt>
      <trkpt lat="46.58519851975143" lon="12.287378869950771">
        <ele>2363.54</ele>
        <time>2015-07-13T11:26:11Z</time>
      </trkpt>
      <trkpt lat="46.585197011008859" lon="12.287365542724729">
        <ele>2364.02</ele>
        <time>2015-07-13T11:26:38Z</time>
      </trkpt>
      <trkpt lat="46.585189048200846" lon="12.28735925629735">
        <ele>2364.02</ele>
        <time>2015-07-13T11:26:58Z</time>
      </trkpt>
      <trkpt lat="46.585190556943417" lon="12.287369817495346">
        <ele>2364.5</ele>
        <time>2015-07-13T11:27:21Z</time>
      </trkpt>
      <trkpt lat="46.585198938846588" lon="12.287366129457951">
        <ele>2364.5</ele>
        <time>2015-07-13T11:27:39Z</time>
      </trkpt>
      <trkpt lat="46.585205141454935" lon="12.287364201620221">
        <ele>2364.98</ele>
        <time>2015-07-13T11:28:06Z</time>
      </trkpt>
      <trkpt lat="46.585194915533066" lon="12.287354310974479">
        <ele>2364.98</ele>
        <time>2015-07-13T11:28:39Z</time>
      </trkpt>
      <trkpt lat="46.585178822278976" lon="12.287361519411206">
        <ele>2364.98</ele>
        <time>2015-07-13T11:29:00Z</time>
      </trkpt>
      <trkpt lat="46.585171446204185" lon="12.287385324016213">
        <ele>2364.98</ele>
        <time>2015-07-13T11:29:21Z</time>
      </trkpt>
      <trkpt lat="46.585181001573801" lon="12.287377528846264">
        <ele>2364.98</ele>
        <time>2015-07-13T11:29:49Z</time>
      </trkpt>
      <trkpt lat="46.585182342678308" lon="12.287377277389169">
        <ele>2365.46</ele>
        <time>2015-07-13T11:30:17Z</time>
      </trkpt>
      <trkpt lat="46.585184019058943" lon="12.287370236590505">
        <ele>2365.46</ele>
        <time>2015-07-13T11:30:44Z</time>
      </trkpt>
      <trkpt lat="46.585185946896672" lon="12.287365961819887">
        <ele>2364.98</ele>
        <time>2015-07-13T11:31:13Z</time>
      </trkpt>
      <trkpt lat="46.585172200575471" lon="12.287366883829236">
        <ele>2364.98</ele>
        <time>2015-07-13T11:31:31Z</time>
      </trkpt>
      <trkpt lat="46.585185863077641" lon="12.287366883829236">
        <ele>2364.98</ele>
        <time>2015-07-13T11:31:59Z</time>
      </trkpt>
      <trkpt lat="46.585194915533066" lon="12.287363447248936">
        <ele>2364.98</ele>
        <time>2015-07-13T11:32:29Z</time>
      </trkpt>
      <trkpt lat="46.585200782865286" lon="12.287362106144428">
        <ele>2364.98</ele>
        <time>2015-07-13T11:32:58Z</time>
      </trkpt>
      <trkpt lat="46.585189299657941" lon="12.287350036203861">
        <ele>2364.98</ele>
        <time>2015-07-13T11:33:14Z</time>
      </trkpt>
      <trkpt lat="46.585197681561112" lon="12.287354897707701">
        <ele>2364.98</ele>
        <time>2015-07-13T11:33:40Z</time>
      </trkpt>
      <trkpt lat="46.585186198353767" lon="12.287388928234577">
        <ele>2364.98</ele>
        <time>2015-07-13T11:34:08Z</time>
      </trkpt>
      <trkpt lat="46.585184102877975" lon="12.287386246025562">
        <ele>2364.98</ele>
        <time>2015-07-13T11:34:37Z</time>
      </trkpt>
      <trkpt lat="46.585178654640913" lon="12.287373086437583">
        <ele>2365.46</ele>
        <time>2015-07-13T11:34:57Z</time>
      </trkpt>
      <trkpt lat="46.58515946008265" lon="12.287376103922725">
        <ele>2365.46</ele>
        <time>2015-07-13T11:35:33Z</time>
      </trkpt>
      <trkpt lat="46.585169266909361" lon="12.287369733676314">
        <ele>2364.98</ele>
        <time>2015-07-13T11:35:54Z</time>
      </trkpt>
      <trkpt lat="46.585161723196507" lon="12.287381552159786">
        <ele>2364.98</ele>
        <time>2015-07-13T11:36:21Z</time>
      </trkpt>
      <trkpt lat="46.585178654640913" lon="12.287381133064628">
        <ele>2364.98</ele>
        <time>2015-07-13T11:36:50Z</time>
      </trkpt>
      <trkpt lat="46.585187204182148" lon="12.287381803616881">
        <ele>2364.98</ele>
        <time>2015-07-13T11:37:12Z</time>
      </trkpt>
      <trkpt lat="46.585190892219543" lon="12.287386329844594">
        <ele>2365.46</ele>
        <time>2015-07-13T11:37:33Z</time>
      </trkpt>
      <trkpt lat="46.585189802572131" lon="12.287377864122391">
        <ele>2364.98</ele>
        <time>2015-07-13T11:38:04Z</time>
      </trkpt>
      <trkpt lat="46.585192987695336" lon="12.287365039810538">
        <ele>2364.98</ele>
        <time>2015-07-13T11:38:25Z</time>
      </trkpt>
      <trkpt lat="46.585197011008859" lon="12.287364704534411">
        <ele>2364.98</ele>
        <time>2015-07-13T11:38:54Z</time>
      </trkpt>
      <trkpt lat="46.585195083171129" lon="12.287369566038251">
        <ele>2365.46</ele>
        <time>2015-07-13T11:39:13Z</time>
      </trkpt>
      <trkpt lat="46.585183013230562" lon="12.287370823323727">
        <ele>2365.46</ele>
        <time>2015-07-13T11:39:37Z</time>
      </trkpt>
      <trkpt lat="46.585177648812532" lon="12.287381384521723">
        <ele>2365.46</ele>
        <time>2015-07-13T11:40:08Z</time>
      </trkpt>
      <trkpt lat="46.585194831714034" lon="12.28736512362957">
        <ele>2365.9400000000001</ele>
        <time>2015-07-13T11:40:43Z</time>
      </trkpt>
      <trkpt lat="46.585193909704685" lon="12.287369482219219">
        <ele>2365.46</ele>
        <time>2015-07-13T11:41:09Z</time>
      </trkpt>
      <trkpt lat="46.585194747895002" lon="12.28737342171371">
        <ele>2365.9400000000001</ele>
        <time>2015-07-13T11:41:35Z</time>
      </trkpt>
      <trkpt lat="46.585185443982482" lon="12.287381049245596">
        <ele>2365.9400000000001</ele>
        <time>2015-07-13T11:41:58Z</time>
      </trkpt>
      <trkpt lat="46.585169853642583" lon="12.287386832758784">
        <ele>2365.9400000000001</ele>
        <time>2015-07-13T11:42:16Z</time>
      </trkpt>
      <trkpt lat="46.585166836157441" lon="12.287374678999186">
        <ele>2365.9400000000001</ele>
        <time>2015-07-13T11:42:46Z</time>
      </trkpt>
      <trkpt lat="46.585188545286655" lon="12.287369733676314">
        <ele>2365.9400000000001</ele>
        <time>2015-07-13T11:43:14Z</time>
      </trkpt>
      <trkpt lat="46.585185946896672" lon="12.287384569644928">
        <ele>2365.46</ele>
        <time>2015-07-13T11:43:47Z</time>
      </trkpt>
      <trkpt lat="46.585203632712364" lon="12.287377947941422">
        <ele>2365.46</ele>
        <time>2015-07-13T11:44:17Z</time>
      </trkpt>
      <trkpt lat="46.585208578035235" lon="12.287366800010204">
        <ele>2365.46</ele>
        <time>2015-07-13T11:44:44Z</time>
      </trkpt>
      <trkpt lat="46.585223497822881" lon="12.287352131679654">
        <ele>2365.46</ele>
        <time>2015-07-13T11:45:06Z</time>
      </trkpt>
      <trkpt lat="46.585199190303683" lon="12.287354143336415">
        <ele>2364.98</ele>
        <time>2015-07-13T11:45:23Z</time>
      </trkpt>
      <trkpt lat="46.585188042372465" lon="12.287396639585495">
        <ele>2365.46</ele>
        <time>2015-07-13T11:45:38Z</time>
      </trkpt>
      <trkpt lat="46.58518536016345" lon="12.287375265732408">
        <ele>2364.98</ele>
        <time>2015-07-13T11:45:55Z</time>
      </trkpt>
      <trkpt lat="46.585180833935738" lon="12.287373337894678">
        <ele>2364.98</ele>
        <time>2015-07-13T11:46:15Z</time>
      </trkpt>
      <trkpt lat="46.585175972431898" lon="12.287364033982158">
        <ele>2364.98</ele>
        <time>2015-07-13T11:46:37Z</time>
      </trkpt>
      <trkpt lat="46.585187874734402" lon="12.287358921021223">
        <ele>2364.98</ele>
        <time>2015-07-13T11:46:59Z</time>
      </trkpt>
      <trkpt lat="46.585177313536406" lon="12.287363531067967">
        <ele>2364.98</ele>
        <time>2015-07-13T11:47:20Z</time>
      </trkpt>
      <trkpt lat="46.585180833935738" lon="12.287367051467299">
        <ele>2364.98</ele>
        <time>2015-07-13T11:47:41Z</time>
      </trkpt>
      <trkpt lat="46.585196005180478" lon="12.287371074780822">
        <ele>2365.46</ele>
        <time>2015-07-13T11:48:00Z</time>
      </trkpt>
      <trkpt lat="46.585184019058943" lon="12.287363111972809">
        <ele>2364.98</ele>
        <time>2015-07-13T11:48:21Z</time>
      </trkpt>
      <trkpt lat="46.585175050422549" lon="12.287382138893008">
        <ele>2364.98</ele>
        <time>2015-07-13T11:48:48Z</time>
      </trkpt>
      <trkpt lat="46.58518485724926" lon="12.287361938506365">
        <ele>2364.98</ele>
        <time>2015-07-13T11:49:09Z</time>
      </trkpt>
      <trkpt lat="46.585164237767458" lon="12.287373002618551">
        <ele>2364.98</ele>
        <time>2015-07-13T11:49:35Z</time>
      </trkpt>
      <trkpt lat="46.585163651034236" lon="12.287368727847934">
        <ele>2364.98</ele>
        <time>2015-07-13T11:50:02Z</time>
      </trkpt>
      <trkpt lat="46.585164740681648" lon="12.287374259904027">
        <ele>2364.98</ele>
        <time>2015-07-13T11:50:24Z</time>
      </trkpt>
      <trkpt lat="46.585152000188828" lon="12.28738171979785">
        <ele>2364.5</ele>
        <time>2015-07-13T11:50:46Z</time>
      </trkpt>
      <trkpt lat="46.5851413551718" lon="12.287368392571807">
        <ele>2364.5</ele>
        <time>2015-07-13T11:51:09Z</time>
      </trkpt>
      <trkpt lat="46.585148898884654" lon="12.287386748939753">
        <ele>2364.5</ele>
        <time>2015-07-13T11:51:30Z</time>
      </trkpt>
      <trkpt lat="46.585166165605187" lon="12.287408038973808">
        <ele>2364.98</ele>
        <time>2015-07-13T11:51:46Z</time>
      </trkpt>
      <trkpt lat="46.585170943289995" lon="12.287409296259284">
        <ele>2364.98</ele>
        <time>2015-07-13T11:51:56Z</time>
      </trkpt>
      <trkpt lat="46.585179828107357" lon="12.28737442754209">
        <ele>2364.02</ele>
        <time>2015-07-13T11:52:12Z</time>
      </trkpt>
      <trkpt lat="46.585181001573801" lon="12.287378283217549">
        <ele>2364.02</ele>
        <time>2015-07-13T11:52:32Z</time>
      </trkpt>
      <trkpt lat="46.58516826108098" lon="12.287370068952441">
        <ele>2364.02</ele>
        <time>2015-07-13T11:52:55Z</time>
      </trkpt>
      <trkpt lat="46.585183013230562" lon="12.287371745333076">
        <ele>2364.02</ele>
        <time>2015-07-13T11:53:21Z</time>
      </trkpt>
      <trkpt lat="46.585185192525387" lon="12.287375014275312">
        <ele>2364.02</ele>
        <time>2015-07-13T11:53:43Z</time>
      </trkpt>
      <trkpt lat="46.585180582478642" lon="12.287379456683993">
        <ele>2363.54</ele>
        <time>2015-07-13T11:54:06Z</time>
      </trkpt>
      <trkpt lat="46.585182845592499" lon="12.287368476390839">
        <ele>2364.5</ele>
        <time>2015-07-13T11:54:16Z</time>
      </trkpt>
      <trkpt lat="46.585191730409861" lon="12.287366800010204">
        <ele>2364.5</ele>
        <time>2015-07-13T11:54:27Z</time>
      </trkpt>
      <trkpt lat="46.585173541679978" lon="12.287384569644928">
        <ele>2364.5</ele>
        <time>2015-07-13T11:54:35Z</time>
      </trkpt>
      <trkpt lat="46.585165243595839" lon="12.287413403391838">
        <ele>2364.5</ele>
        <time>2015-07-13T11:54:43Z</time>
      </trkpt>
      <trkpt lat="46.585082430392504" lon="12.287393789738417">
        <ele>2363.54</ele>
        <time>2015-07-13T11:54:55Z</time>
      </trkpt>
      <trkpt lat="46.585052339360118" lon="12.287395130842924">
        <ele>2363.54</ele>
        <time>2015-07-13T11:55:01Z</time>
      </trkpt>
      <trkpt lat="46.58498059026897" lon="12.287445003166795">
        <ele>2366.9000000000001</ele>
        <time>2015-07-13T11:55:12Z</time>
      </trkpt>
      <trkpt lat="46.584922419860959" lon="12.287463275715709">
        <ele>2368.8299999999999</ele>
        <time>2015-07-13T11:55:22Z</time>
      </trkpt>
      <trkpt lat="46.584908673539758" lon="12.287468640133739">
        <ele>2369.3099999999999</ele>
        <time>2015-07-13T11:55:24Z</time>
      </trkpt>
      <trkpt lat="46.5847925003618" lon="12.287474758923054">
        <ele>2370.27</ele>
        <time>2015-07-13T11:55:37Z</time>
      </trkpt>
      <trkpt lat="46.584770791232586" lon="12.287490516901016">
        <ele>2368.3499999999999</ele>
        <time>2015-07-13T11:55:47Z</time>
      </trkpt>
      <trkpt lat="46.584750758484006" lon="12.287514824420214">
        <ele>2366.9000000000001</ele>
        <time>2015-07-13T11:55:54Z</time>
      </trkpt>
      <trkpt lat="46.58472846262157" lon="12.287553297355771">
        <ele>2364.98</ele>
        <time>2015-07-13T11:56:07Z</time>
      </trkpt>
      <trkpt lat="46.584730641916394" lon="12.287583304569125">
        <ele>2364.02</ele>
        <time>2015-07-13T11:56:15Z</time>
      </trkpt>
      <trkpt lat="46.58472309820354" lon="12.287588082253933">
        <ele>2363.54</ele>
        <time>2015-07-13T11:56:16Z</time>
      </trkpt>
      <trkpt lat="46.584705663844943" lon="12.287629237398505">
        <ele>2362.0999999999999</ele>
        <time>2015-07-13T11:56:25Z</time>
      </trkpt>
      <trkpt lat="46.584700886160135" lon="12.287633344531059">
        <ele>2361.6199999999999</ele>
        <time>2015-07-13T11:56:33Z</time>
      </trkpt>
      <trkpt lat="46.584677835926414" lon="12.287672907114029">
        <ele>2360.6500000000001</ele>
        <time>2015-07-13T11:56:45Z</time>
      </trkpt>
      <trkpt lat="46.584665514528751" lon="12.287681875750422">
        <ele>2361.1399999999999</ele>
        <time>2015-07-13T11:56:52Z</time>
      </trkpt>
      <trkpt lat="46.584662580862641" lon="12.287693023681641">
        <ele>2359.21</ele>
        <time>2015-07-13T11:56:59Z</time>
      </trkpt>
      <trkpt lat="46.584654785692692" lon="12.287721186876297">
        <ele>2357.77</ele>
        <time>2015-07-13T11:57:08Z</time>
      </trkpt>
      <trkpt lat="46.584617737680674" lon="12.287753121927381">
        <ele>2355.3699999999999</ele>
        <time>2015-07-13T11:57:21Z</time>
      </trkpt>
      <trkpt lat="46.584564344957471" lon="12.287778435274959">
        <ele>2353.9299999999998</ele>
        <time>2015-07-13T11:57:30Z</time>
      </trkpt>
      <trkpt lat="46.584539702162147" lon="12.287828894332051">
        <ele>2352.48</ele>
        <time>2015-07-13T11:57:40Z</time>
      </trkpt>
      <trkpt lat="46.584505252540112" lon="12.287851274013519">
        <ele>2351.52</ele>
        <time>2015-07-13T11:57:48Z</time>
      </trkpt>
      <trkpt lat="46.584514137357473" lon="12.287857811897993">
        <ele>2350.0799999999999</ele>
        <time>2015-07-13T11:57:58Z</time>
      </trkpt>
      <trkpt lat="46.584522854536772" lon="12.287874994799495">
        <ele>2349.1199999999999</ele>
        <time>2015-07-13T11:58:05Z</time>
      </trkpt>
      <trkpt lat="46.584514137357473" lon="12.287885472178459">
        <ele>2348.1599999999999</ele>
        <time>2015-07-13T11:58:16Z</time>
      </trkpt>
      <trkpt lat="46.584515143185854" lon="12.287730993703008">
        <ele>2346.23</ele>
        <time>2015-07-13T11:58:26Z</time>
      </trkpt>
      <trkpt lat="46.584523022174835" lon="12.28771984577179">
        <ele>2344.79</ele>
        <time>2015-07-13T11:58:36Z</time>
      </trkpt>
      <trkpt lat="46.584567781537771" lon="12.28773208335042">
        <ele>2345.27</ele>
        <time>2015-07-13T11:58:55Z</time>
      </trkpt>
      <trkpt lat="46.58457163721323" lon="12.287692353129387">
        <ele>2345.27</ele>
        <time>2015-07-13T11:59:05Z</time>
      </trkpt>
      <trkpt lat="46.58459804020822" lon="12.287713224068284">
        <ele>2343.3499999999999</ele>
        <time>2015-07-13T11:59:16Z</time>
      </trkpt>
      <trkpt lat="46.58460927195847" lon="12.287768125534058">
        <ele>2340.9499999999998</ele>
        <time>2015-07-13T11:59:25Z</time>
      </trkpt>
      <trkpt lat="46.584606673568487" lon="12.287796959280968">
        <ele>2339.9899999999998</ele>
        <time>2015-07-13T11:59:37Z</time>
      </trkpt>
      <trkpt lat="46.584604829549789" lon="12.287816824391484">
        <ele>2339.02</ele>
        <time>2015-07-13T11:59:39Z</time>
      </trkpt>
      <trkpt lat="46.584618827328086" lon="12.287809532135725">
        <ele>2338.0599999999999</ele>
        <time>2015-07-13T11:59:48Z</time>
      </trkpt>
      <trkpt lat="46.584658557549119" lon="12.287835348397493">
        <ele>2334.6999999999998</ele>
        <time>2015-07-13T12:00:01Z</time>
      </trkpt>
      <trkpt lat="46.584678757935762" lon="12.2878557164222">
        <ele>2331.8099999999999</ele>
        <time>2015-07-13T12:00:12Z</time>
      </trkpt>
      <trkpt lat="46.58467959612608" lon="12.287923358380795">
        <ele>2330.8499999999999</ele>
        <time>2015-07-13T12:00:21Z</time>
      </trkpt>
      <trkpt lat="46.584701472893357" lon="12.287918580695987">
        <ele>2329.4099999999999</ele>
        <time>2015-07-13T12:00:29Z</time>
      </trkpt>
      <trkpt lat="46.584717398509383" lon="12.287968453019857">
        <ele>2327.4899999999998</ele>
        <time>2015-07-13T12:00:37Z</time>
      </trkpt>
      <trkpt lat="46.584744723513722" lon="12.288030898198485">
        <ele>2325.5700000000002</ele>
        <time>2015-07-13T12:00:45Z</time>
      </trkpt>
      <trkpt lat="46.584772802889347" lon="12.288032323122025">
        <ele>2323.6399999999999</ele>
        <time>2015-07-13T12:00:52Z</time>
      </trkpt>
      <trkpt lat="46.584833906963468" lon="12.288087392225862">
        <ele>2320.2800000000002</ele>
        <time>2015-07-13T12:01:03Z</time>
      </trkpt>
      <trkpt lat="46.584905823692679" lon="12.288158973678946">
        <ele>2317.4000000000001</ele>
        <time>2015-07-13T12:01:12Z</time>
      </trkpt>
      <trkpt lat="46.584890065714717" lon="12.288177749142051">
        <ele>2316.9099999999999</ele>
        <time>2015-07-13T12:01:16Z</time>
      </trkpt>
      <trkpt lat="46.584818568080664" lon="12.28823927231133">
        <ele>2314.9899999999998</ele>
        <time>2015-07-13T12:01:27Z</time>
      </trkpt>
      <trkpt lat="46.584797110408545" lon="12.288311691954732">
        <ele>2313.0700000000002</ele>
        <time>2015-07-13T12:01:38Z</time>
      </trkpt>
      <trkpt lat="46.584746316075325" lon="12.288359133526683">
        <ele>2310.6700000000001</ele>
        <time>2015-07-13T12:01:50Z</time>
      </trkpt>
      <trkpt lat="46.584686134010553" lon="12.288402132689953">
        <ele>2308.7399999999998</ele>
        <time>2015-07-13T12:01:59Z</time>
      </trkpt>
      <trkpt lat="46.584650008007884" lon="12.2884117718786">
        <ele>2307.3000000000002</ele>
        <time>2015-07-13T12:02:05Z</time>
      </trkpt>
      <trkpt lat="46.584640787914395" lon="12.288377238437533">
        <ele>2307.3000000000002</ele>
        <time>2015-07-13T12:02:16Z</time>
      </trkpt>
      <trkpt lat="46.58467523753643" lon="12.28835167363286">
        <ele>2307.7800000000002</ele>
        <time>2015-07-13T12:02:24Z</time>
      </trkpt>
      <trkpt lat="46.584656713530421" lon="12.288350751623511">
        <ele>2307.3000000000002</ele>
        <time>2015-07-13T12:02:35Z</time>
      </trkpt>
      <trkpt lat="46.584664341062307" lon="12.288383860141039">
        <ele>2305.3800000000001</ele>
        <time>2015-07-13T12:02:43Z</time>
      </trkpt>
      <trkpt lat="46.584667693823576" lon="12.288438677787781">
        <ele>2302.98</ele>
        <time>2015-07-13T12:02:52Z</time>
      </trkpt>
      <trkpt lat="46.584672471508384" lon="12.288496680557728">
        <ele>2301.5300000000002</ele>
        <time>2015-07-13T12:03:01Z</time>
      </trkpt>
      <trkpt lat="46.584666855633259" lon="12.288601957261562">
        <ele>2300.5700000000002</ele>
        <time>2015-07-13T12:03:13Z</time>
      </trkpt>
      <trkpt lat="46.584705244749784" lon="12.288690386340022">
        <ele>2300.5700000000002</ele>
        <time>2015-07-13T12:03:22Z</time>
      </trkpt>
      <trkpt lat="46.584706837311387" lon="12.288757776841521">
        <ele>2299.6100000000001</ele>
        <time>2015-07-13T12:03:28Z</time>
      </trkpt>
      <trkpt lat="46.584708848968148" lon="12.288785185664892">
        <ele>2299.6100000000001</ele>
        <time>2015-07-13T12:03:36Z</time>
      </trkpt>
      <trkpt lat="46.58471429720521" lon="12.288790214806795">
        <ele>2299.6100000000001</ele>
        <time>2015-07-13T12:03:46Z</time>
      </trkpt>
      <trkpt lat="46.58467766828835" lon="12.288813684135675">
        <ele>2301.0500000000002</ele>
        <time>2015-07-13T12:03:55Z</time>
      </trkpt>
      <trkpt lat="46.584687726572156" lon="12.288766829296947">
        <ele>2301.5300000000002</ele>
        <time>2015-07-13T12:04:08Z</time>
      </trkpt>
      <trkpt lat="46.58470063470304" lon="12.288796417415142">
        <ele>2302.0100000000002</ele>
        <time>2015-07-13T12:04:24Z</time>
      </trkpt>
      <trkpt lat="46.584740532562137" lon="12.288801530376077">
        <ele>2302.0100000000002</ele>
        <time>2015-07-13T12:04:41Z</time>
      </trkpt>
      <trkpt lat="46.584715805947781" lon="12.288816869258881">
        <ele>2302.0100000000002</ele>
        <time>2015-07-13T12:04:53Z</time>
      </trkpt>
      <trkpt lat="46.584705831483006" lon="12.28882173076272">
        <ele>2301.5300000000002</ele>
        <time>2015-07-13T12:05:04Z</time>
      </trkpt>
      <trkpt lat="46.584728546440601" lon="12.288833297789097">
        <ele>2302.0100000000002</ele>
        <time>2015-07-13T12:05:26Z</time>
      </trkpt>
      <trkpt lat="46.584771042689681" lon="12.288806727156043">
        <ele>2302.0100000000002</ele>
        <time>2015-07-13T12:05:52Z</time>
      </trkpt>
      <trkpt lat="46.584759475663304" lon="12.288817288354039">
        <ele>2302.4899999999998</ele>
        <time>2015-07-13T12:06:12Z</time>
      </trkpt>
      <trkpt lat="46.584743047133088" lon="12.288804380223155">
        <ele>2302.98</ele>
        <time>2015-07-13T12:06:21Z</time>
      </trkpt>
      <trkpt lat="46.584750423207879" lon="12.288792980834842">
        <ele>2303.46</ele>
        <time>2015-07-13T12:06:34Z</time>
      </trkpt>
      <trkpt lat="46.584754195064306" lon="12.2887899633497">
        <ele>2303.46</ele>
        <time>2015-07-13T12:06:50Z</time>
      </trkpt>
      <trkpt lat="46.58476953394711" lon="12.288799853995442">
        <ele>2302.98</ele>
        <time>2015-07-13T12:07:04Z</time>
      </trkpt>
      <trkpt lat="46.58478420227766" lon="12.288817204535007">
        <ele>2302.98</ele>
        <time>2015-07-13T12:07:20Z</time>
      </trkpt>
      <trkpt lat="46.58479736186564" lon="12.288820557296276">
        <ele>2303.46</ele>
        <time>2015-07-13T12:07:39Z</time>
      </trkpt>
      <trkpt lat="46.584802223369479" lon="12.288821144029498">
        <ele>2304.4200000000001</ele>
        <time>2015-07-13T12:07:41Z</time>
      </trkpt>
      <trkpt lat="46.58483449369669" lon="12.288751238957047">
        <ele>2303.46</ele>
        <time>2015-07-13T12:08:02Z</time>
      </trkpt>
      <trkpt lat="46.584869110956788" lon="12.288766577839851">
        <ele>2303.46</ele>
        <time>2015-07-13T12:08:13Z</time>
      </trkpt>
      <trkpt lat="46.584831392392516" lon="12.288774959743023">
        <ele>2303.46</ele>
        <time>2015-07-13T12:08:30Z</time>
      </trkpt>
      <trkpt lat="46.584864417091012" lon="12.288763727992773">
        <ele>2303.46</ele>
        <time>2015-07-13T12:08:45Z</time>
      </trkpt>
      <trkpt lat="46.584845390170813" lon="12.288745287805796">
        <ele>2303.46</ele>
        <time>2015-07-13T12:09:07Z</time>
      </trkpt>
      <trkpt lat="46.584852766245604" lon="12.288742773234844">
        <ele>2303.9400000000001</ele>
        <time>2015-07-13T12:09:22Z</time>
      </trkpt>
      <trkpt lat="46.584852347150445" lon="12.288751490414143">
        <ele>2303.9400000000001</ele>
        <time>2015-07-13T12:09:40Z</time>
      </trkpt>
      <trkpt lat="46.584842875599861" lon="12.288735900074244">
        <ele>2303.9400000000001</ele>
        <time>2015-07-13T12:09:57Z</time>
      </trkpt>
      <trkpt lat="46.584849413484335" lon="12.288781497627497">
        <ele>2304.4200000000001</ele>
        <time>2015-07-13T12:10:07Z</time>
      </trkpt>
      <trkpt lat="46.584859136492014" lon="12.288818126544356">
        <ele>2303.46</ele>
        <time>2015-07-13T12:10:19Z</time>
      </trkpt>
      <trkpt lat="46.584867769852281" lon="12.288815779611468">
        <ele>2302.4899999999998</ele>
        <time>2015-07-13T12:10:23Z</time>
      </trkpt>
      <trkpt lat="46.584867686033249" lon="12.288817875087261">
        <ele>2302.4899999999998</ele>
        <time>2015-07-13T12:10:31Z</time>
      </trkpt>
      <trkpt lat="46.584824854508042" lon="12.288939831778407">
        <ele>2303.46</ele>
        <time>2015-07-13T12:10:46Z</time>
      </trkpt>
      <trkpt lat="46.584773641079664" lon="12.289051897823811">
        <ele>2304.9000000000001</ele>
        <time>2015-07-13T12:10:55Z</time>
      </trkpt>
      <trkpt lat="46.584764085710049" lon="12.289086012169719">
        <ele>2305.3800000000001</ele>
        <time>2015-07-13T12:10:58Z</time>
      </trkpt>
      <trkpt lat="46.584741538390517" lon="12.28922238573432">
        <ele>2305.8600000000001</ele>
        <time>2015-07-13T12:11:10Z</time>
      </trkpt>
      <trkpt lat="46.584735084325075" lon="12.289355993270874">
        <ele>2306.8200000000002</ele>
        <time>2015-07-13T12:11:21Z</time>
      </trkpt>
      <trkpt lat="46.584713123738766" lon="12.289445260539651">
        <ele>2308.2600000000002</ele>
        <time>2015-07-13T12:11:31Z</time>
      </trkpt>
      <trkpt lat="46.584665682166815" lon="12.28953025303781">
        <ele>2310.1900000000001</ele>
        <time>2015-07-13T12:11:42Z</time>
      </trkpt>
      <trkpt lat="46.584663754329085" lon="12.289538886398077">
        <ele>2311.6300000000001</ele>
        <time>2015-07-13T12:11:43Z</time>
      </trkpt>
      <trkpt lat="46.584632657468319" lon="12.28963871486485">
        <ele>2313.0700000000002</ele>
        <time>2015-07-13T12:11:55Z</time>
      </trkpt>
      <trkpt lat="46.584645649418235" lon="12.28968464769423">
        <ele>2314.0300000000002</ele>
        <time>2015-07-13T12:12:05Z</time>
      </trkpt>
      <trkpt lat="46.584687391296029" lon="12.289738040417433">
        <ele>2315.9499999999998</ele>
        <time>2015-07-13T12:12:16Z</time>
      </trkpt>
      <trkpt lat="46.584702478721738" lon="12.289839712902904">
        <ele>2317.8800000000001</ele>
        <time>2015-07-13T12:12:30Z</time>
      </trkpt>
      <trkpt lat="46.584718655794859" lon="12.289903750643134">
        <ele>2319.8000000000002</ele>
        <time>2015-07-13T12:12:44Z</time>
      </trkpt>
      <trkpt lat="46.584721254184842" lon="12.289988407865167">
        <ele>2322.1999999999998</ele>
        <time>2015-07-13T12:12:58Z</time>
      </trkpt>
      <trkpt lat="46.584645314142108" lon="12.290041884407401">
        <ele>2324.6100000000001</ele>
        <time>2015-07-13T12:13:12Z</time>
      </trkpt>
      <trkpt lat="46.584589993581176" lon="12.290109107270837">
        <ele>2326.5300000000002</ele>
        <time>2015-07-13T12:13:24Z</time>
      </trkpt>
      <trkpt lat="46.584671465680003" lon="12.290215557441115">
        <ele>2326.0500000000002</ele>
        <time>2015-07-13T12:13:38Z</time>
      </trkpt>
      <trkpt lat="46.584720332175493" lon="12.290219999849796">
        <ele>2326.0500000000002</ele>
        <time>2015-07-13T12:13:43Z</time>
      </trkpt>
      <trkpt lat="46.58474313095212" lon="12.290235003456473">
        <ele>2325.0900000000001</ele>
        <time>2015-07-13T12:13:46Z</time>
      </trkpt>
      <trkpt lat="46.584741035476327" lon="12.290362492203712">
        <ele>2324.1199999999999</ele>
        <time>2015-07-13T12:13:55Z</time>
      </trkpt>
      <trkpt lat="46.58474556170404" lon="12.290394008159637">
        <ele>2324.1199999999999</ele>
        <time>2015-07-13T12:13:58Z</time>
      </trkpt>
      <trkpt lat="46.584776993840933" lon="12.290446981787682">
        <ele>2323.6399999999999</ele>
        <time>2015-07-13T12:14:06Z</time>
      </trkpt>
      <trkpt lat="46.584803983569145" lon="12.290530717000365">
        <ele>2323.1599999999999</ele>
        <time>2015-07-13T12:14:17Z</time>
      </trkpt>
      <trkpt lat="46.584824435412884" lon="12.290561059489846">
        <ele>2321.7199999999998</ele>
        <time>2015-07-13T12:14:26Z</time>
      </trkpt>
      <trkpt lat="46.584832146763802" lon="12.290632138028741">
        <ele>2322.6799999999998</ele>
        <time>2015-07-13T12:14:36Z</time>
      </trkpt>
      <trkpt lat="46.584852933883667" lon="12.290631551295519">
        <ele>2321.7199999999998</ele>
        <time>2015-07-13T12:14:46Z</time>
      </trkpt>
      <trkpt lat="46.584900878369808" lon="12.290700701996684">
        <ele>2318.3600000000001</ele>
        <time>2015-07-13T12:14:56Z</time>
      </trkpt>
      <trkpt lat="46.584921414032578" lon="12.290827436372638">
        <ele>2315.9499999999998</ele>
        <time>2015-07-13T12:15:07Z</time>
      </trkpt>
      <trkpt lat="46.584924012422562" lon="12.290853504091501">
        <ele>2314.9899999999998</ele>
        <time>2015-07-13T12:15:09Z</time>
      </trkpt>
      <trkpt lat="46.584917390719056" lon="12.29094042442739">
        <ele>2312.5900000000001</ele>
        <time>2015-07-13T12:15:21Z</time>
      </trkpt>
      <trkpt lat="46.584895011037588" lon="12.290928103029728">
        <ele>2314.0300000000002</ele>
        <time>2015-07-13T12:15:45Z</time>
      </trkpt>
      <trkpt lat="46.584972459822893" lon="12.290961630642414">
        <ele>2313.5500000000002</ele>
        <time>2015-07-13T12:15:57Z</time>
      </trkpt>
      <trkpt lat="46.584989810362458" lon="12.291085263714194">
        <ele>2316.4299999999998</ele>
        <time>2015-07-13T12:16:10Z</time>
      </trkpt>
      <trkpt lat="46.584990061819553" lon="12.291188696399331">
        <ele>2315.9499999999998</ele>
        <time>2015-07-13T12:16:19Z</time>
      </trkpt>
      <trkpt lat="46.5849928278476" lon="12.291201269254088">
        <ele>2315.9499999999998</ele>
        <time>2015-07-13T12:16:20Z</time>
      </trkpt>
      <trkpt lat="46.585004981607199" lon="12.291337894275784">
        <ele>2316.4299999999998</ele>
        <time>2015-07-13T12:16:30Z</time>
      </trkpt>
      <trkpt lat="46.585022499784827" lon="12.291416935622692">
        <ele>2317.8800000000001</ele>
        <time>2015-07-13T12:16:39Z</time>
      </trkpt>
      <trkpt lat="46.585044460371137" lon="12.291535958647728">
        <ele>2319.8000000000002</ele>
        <time>2015-07-13T12:16:53Z</time>
      </trkpt>
      <trkpt lat="46.585050579160452" lon="12.291562613099813">
        <ele>2319.8000000000002</ele>
        <time>2015-07-13T12:16:56Z</time>
      </trkpt>
      <trkpt lat="46.585087710991502" lon="12.291563786566257">
        <ele>2319.3200000000002</ele>
        <time>2015-07-13T12:17:07Z</time>
      </trkpt>
      <trkpt lat="46.585140852257609" lon="12.291694125160575">
        <ele>2319.8000000000002</ele>
        <time>2015-07-13T12:17:19Z</time>
      </trkpt>
      <trkpt lat="46.58513305708766" lon="12.291741063818336">
        <ele>2320.7600000000002</ele>
        <time>2015-07-13T12:17:23Z</time>
      </trkpt>
      <trkpt lat="46.585114449262619" lon="12.291866708546877">
        <ele>2322.1999999999998</ele>
        <time>2015-07-13T12:17:35Z</time>
      </trkpt>
      <trkpt lat="46.585128782317042" lon="12.291984893381596">
        <ele>2323.1599999999999</ele>
        <time>2015-07-13T12:17:46Z</time>
      </trkpt>
      <trkpt lat="46.585130542516708" lon="12.291990341618657">
        <ele>2325.0900000000001</ele>
        <time>2015-07-13T12:17:47Z</time>
      </trkpt>
      <trkpt lat="46.585125764831901" lon="12.292065527290106">
        <ele>2324.6100000000001</ele>
        <time>2015-07-13T12:17:57Z</time>
      </trkpt>
      <trkpt lat="46.585118472576141" lon="12.292094444856048">
        <ele>2324.6100000000001</ele>
        <time>2015-07-13T12:18:04Z</time>
      </trkpt>
      <trkpt lat="46.585174212232232" lon="12.29217222891748">
        <ele>2325.5700000000002</ele>
        <time>2015-07-13T12:18:13Z</time>
      </trkpt>
      <trkpt lat="46.585178654640913" lon="12.292176587507129">
        <ele>2325.0900000000001</ele>
        <time>2015-07-13T12:18:15Z</time>
      </trkpt>
      <trkpt lat="46.585196172818542" lon="12.292189076542854">
        <ele>2325.5700000000002</ele>
        <time>2015-07-13T12:18:17Z</time>
      </trkpt>
      <trkpt lat="46.585235903039575" lon="12.292286893352866">
        <ele>2326.0500000000002</ele>
        <time>2015-07-13T12:18:27Z</time>
      </trkpt>
      <trkpt lat="46.585264569148421" lon="12.292392421513796">
        <ele>2327.0100000000002</ele>
        <time>2015-07-13T12:18:39Z</time>
      </trkpt>
      <trkpt lat="46.585235064849257" lon="12.292445143684745">
        <ele>2328.4499999999998</ele>
        <time>2015-07-13T12:18:49Z</time>
      </trkpt>
      <trkpt lat="46.585238752886653" lon="12.29250499047339">
        <ele>2330.3699999999999</ele>
        <time>2015-07-13T12:19:01Z</time>
      </trkpt>
      <trkpt lat="46.585232717916369" lon="12.292517647147179">
        <ele>2331.8099999999999</ele>
        <time>2015-07-13T12:19:12Z</time>
      </trkpt>
      <trkpt lat="46.585243111476302" lon="12.292508762329817">
        <ele>2333.2600000000002</ele>
        <time>2015-07-13T12:19:23Z</time>
      </trkpt>
      <trkpt lat="46.585179325193167" lon="12.292504319921136">
        <ele>2333.7399999999998</ele>
        <time>2015-07-13T12:19:32Z</time>
      </trkpt>
      <trkpt lat="46.585148647427559" lon="12.292581936344504">
        <ele>2335.6599999999999</ele>
        <time>2015-07-13T12:19:42Z</time>
      </trkpt>
      <trkpt lat="46.585127441212535" lon="12.292612195014954">
        <ele>2338.54</ele>
        <time>2015-07-13T12:19:56Z</time>
      </trkpt>
      <trkpt lat="46.585086453706026" lon="12.292577745392919">
        <ele>2340.9499999999998</ele>
        <time>2015-07-13T12:20:07Z</time>
      </trkpt>
      <trkpt lat="46.585041945800185" lon="12.292536087334156">
        <ele>2342.3899999999999</ele>
        <time>2015-07-13T12:20:16Z</time>
      </trkpt>
      <trkpt lat="46.585041778162122" lon="12.292592581361532">
        <ele>2343.8299999999999</ele>
        <time>2015-07-13T12:20:26Z</time>
      </trkpt>
      <trkpt lat="46.585034402087331" lon="12.292621834203601">
        <ele>2345.27</ele>
        <time>2015-07-13T12:20:36Z</time>
      </trkpt>
      <trkpt lat="46.585070192813873" lon="12.292648404836655">
        <ele>2346.23</ele>
        <time>2015-07-13T12:20:47Z</time>
      </trkpt>
      <trkpt lat="46.5850670915097" lon="12.292657541111112">
        <ele>2346.23</ele>
        <time>2015-07-13T12:20:48Z</time>
      </trkpt>
      <trkpt lat="46.585039850324392" lon="12.292725266888738">
        <ele>2347.6799999999998</ele>
        <time>2015-07-13T12:20:56Z</time>
      </trkpt>
      <trkpt lat="46.585051417350769" lon="12.292745970189571">
        <ele>2348.1599999999999</ele>
        <time>2015-07-13T12:21:06Z</time>
      </trkpt>
      <trkpt lat="46.585031803697348" lon="12.292786622419953">
        <ele>2350.5599999999999</ele>
        <time>2015-07-13T12:21:16Z</time>
      </trkpt>
      <trkpt lat="46.585014034062624" lon="12.292820317670703">
        <ele>2352.48</ele>
        <time>2015-07-13T12:21:27Z</time>
      </trkpt>
      <trkpt lat="46.585035072639585" lon="12.292872704565525">
        <ele>2353.4400000000001</ele>
        <time>2015-07-13T12:21:37Z</time>
      </trkpt>
      <trkpt lat="46.585056195035577" lon="12.292918553575873">
        <ele>2354.8899999999999</ele>
        <time>2015-07-13T12:21:48Z</time>
      </trkpt>
      <trkpt lat="46.585101457312703" lon="12.292919978499413">
        <ele>2356.3299999999999</ele>
        <time>2015-07-13T12:21:58Z</time>
      </trkpt>
      <trkpt lat="46.585148815065622" lon="12.292952835559845">
        <ele>2356.3299999999999</ele>
        <time>2015-07-13T12:22:08Z</time>
      </trkpt>
      <trkpt lat="46.585149569436908" lon="12.292973538860679">
        <ele>2356.8099999999999</ele>
        <time>2015-07-13T12:22:13Z</time>
      </trkpt>
      <trkpt lat="46.585076143965125" lon="12.293009329587221">
        <ele>2359.21</ele>
        <time>2015-07-13T12:22:25Z</time>
      </trkpt>
      <trkpt lat="46.585068767890334" lon="12.29305375367403">
        <ele>2361.6199999999999</ele>
        <time>2015-07-13T12:22:35Z</time>
      </trkpt>
      <trkpt lat="46.58504412509501" lon="12.293034140020609">
        <ele>2362.5799999999999</ele>
        <time>2015-07-13T12:22:43Z</time>
      </trkpt>
      <trkpt lat="46.584988217800856" lon="12.292999103665352">
        <ele>2362.5799999999999</ele>
        <time>2015-07-13T12:22:57Z</time>
      </trkpt>
      <trkpt lat="46.585026355460286" lon="12.293001115322113">
        <ele>2362.5799999999999</ele>
        <time>2015-07-13T12:23:07Z</time>
      </trkpt>
      <trkpt lat="46.585122244432569" lon="12.293053921312094">
        <ele>2364.98</ele>
        <time>2015-07-13T12:23:18Z</time>
      </trkpt>
      <trkpt lat="46.58518192358315" lon="12.293034810572863">
        <ele>2366.4200000000001</ele>
        <time>2015-07-13T12:23:28Z</time>
      </trkpt>
      <trkpt lat="46.585206147283316" lon="12.293046712875366">
        <ele>2367.3800000000001</ele>
        <time>2015-07-13T12:23:36Z</time>
      </trkpt>
      <trkpt lat="46.585210002958775" lon="12.293067499995232">
        <ele>2367.8600000000001</ele>
        <time>2015-07-13T12:23:49Z</time>
      </trkpt>
      <trkpt lat="46.585194412618876" lon="12.293079737573862">
        <ele>2367.8600000000001</ele>
        <time>2015-07-13T12:24:02Z</time>
      </trkpt>
      <trkpt lat="46.585178570821881" lon="12.293127179145813">
        <ele>2369.79</ele>
        <time>2015-07-13T12:24:12Z</time>
      </trkpt>
      <trkpt lat="46.585231963545084" lon="12.293135393410921">
        <ele>2371.23</ele>
        <time>2015-07-13T12:24:21Z</time>
      </trkpt>
      <trkpt lat="46.585298851132393" lon="12.293141093105078">
        <ele>2372.1900000000001</ele>
        <time>2015-07-13T12:24:30Z</time>
      </trkpt>
      <trkpt lat="46.58532751724124" lon="12.293219799175858">
        <ele>2373.6300000000001</ele>
        <time>2015-07-13T12:24:40Z</time>
      </trkpt>
      <trkpt lat="46.585259288549423" lon="12.293234132230282">
        <ele>2375.5500000000002</ele>
        <time>2015-07-13T12:24:52Z</time>
      </trkpt>
      <trkpt lat="46.585218049585819" lon="12.293307976797223">
        <ele>2377.48</ele>
        <time>2015-07-13T12:25:04Z</time>
      </trkpt>
      <trkpt lat="46.585215283557773" lon="12.293306551873684">
        <ele>2378.4400000000001</ele>
        <time>2015-07-13T12:25:15Z</time>
      </trkpt>
      <trkpt lat="46.585246296599507" lon="12.293349551036954">
        <ele>2379.8800000000001</ele>
        <time>2015-07-13T12:25:25Z</time>
      </trkpt>
      <trkpt lat="46.585226431488991" lon="12.293396573513746">
        <ele>2381.8000000000002</ele>
        <time>2015-07-13T12:25:34Z</time>
      </trkpt>
      <trkpt lat="46.585192149505019" lon="12.293419456109405">
        <ele>2383.25</ele>
        <time>2015-07-13T12:25:43Z</time>
      </trkpt>
      <trkpt lat="46.585177229717374" lon="12.293476285412908">
        <ele>2386.1300000000001</ele>
        <time>2015-07-13T12:25:51Z</time>
      </trkpt>
      <trkpt lat="46.585226766765118" lon="12.293529929593205">
        <ele>2386.1300000000001</ele>
        <time>2015-07-13T12:26:02Z</time>
      </trkpt>
      <trkpt lat="46.585293235257268" lon="12.293576197698712">
        <ele>2388.0500000000002</ele>
        <time>2015-07-13T12:26:15Z</time>
      </trkpt>
      <trkpt lat="46.585336653515697" lon="12.293635960668325">
        <ele>2389.0100000000002</ele>
        <time>2015-07-13T12:26:26Z</time>
      </trkpt>
      <trkpt lat="46.585253924131393" lon="12.293683402240276">
        <ele>2390.9400000000001</ele>
        <time>2015-07-13T12:26:38Z</time>
      </trkpt>
      <trkpt lat="46.58516482450068" lon="12.293683988973498">
        <ele>2391.9000000000001</ele>
        <time>2015-07-13T12:26:49Z</time>
      </trkpt>
      <trkpt lat="46.58508125692606" lon="12.293604863807559">
        <ele>2393.3400000000001</ele>
        <time>2015-07-13T12:27:01Z</time>
      </trkpt>
      <trkpt lat="46.585064828395844" lon="12.293566977605224">
        <ele>2393.8200000000002</ele>
        <time>2015-07-13T12:27:06Z</time>
      </trkpt>
      <trkpt lat="46.585061056539416" lon="12.293534288182855">
        <ele>2393.8200000000002</ele>
        <time>2015-07-13T12:27:08Z</time>
      </trkpt>
      <trkpt lat="46.585031049326062" lon="12.293467316776514">
        <ele>2394.3000000000002</ele>
        <time>2015-07-13T12:27:14Z</time>
      </trkpt>
      <trkpt lat="46.585021326318383" lon="12.293378049507737">
        <ele>2394.7800000000002</ele>
        <time>2015-07-13T12:27:27Z</time>
      </trkpt>
      <trkpt lat="46.585021493956447" lon="12.293374696746469">
        <ele>2394.7800000000002</ele>
        <time>2015-07-13T12:27:45Z</time>
      </trkpt>
      <trkpt lat="46.585001712664962" lon="12.293372265994549">
        <ele>2395.7399999999998</ele>
        <time>2015-07-13T12:27:54Z</time>
      </trkpt>
      <trkpt lat="46.58499525859952" lon="12.293370254337788">
        <ele>2395.2600000000002</ele>
        <time>2015-07-13T12:28:14Z</time>
      </trkpt>
      <trkpt lat="46.584990229457617" lon="12.293449295684695">
        <ele>2396.6999999999998</ele>
        <time>2015-07-13T12:28:23Z</time>
      </trkpt>
      <trkpt lat="46.585000539198518" lon="12.293514674529433">
        <ele>2397.6700000000001</ele>
        <time>2015-07-13T12:28:36Z</time>
      </trkpt>
      <trkpt lat="46.58502509817481" lon="12.293593296781182">
        <ele>2398.1500000000001</ele>
        <time>2015-07-13T12:28:43Z</time>
      </trkpt>
      <trkpt lat="46.585044041275978" lon="12.293629422783852">
        <ele>2398.6300000000001</ele>
        <time>2015-07-13T12:28:46Z</time>
      </trkpt>
      <trkpt lat="46.585063738748431" lon="12.293731346726418">
        <ele>2399.5900000000001</ele>
        <time>2015-07-13T12:28:55Z</time>
      </trkpt>
      <trkpt lat="46.585105312988162" lon="12.293830672279">
        <ele>2401.5100000000002</ele>
        <time>2015-07-13T12:29:05Z</time>
      </trkpt>
      <trkpt lat="46.585146803408861" lon="12.29388833977282">
        <ele>2402.9499999999998</ele>
        <time>2015-07-13T12:29:16Z</time>
      </trkpt>
      <trkpt lat="46.585063319653273" lon="12.293902924284339">
        <ele>2404.8800000000001</ele>
        <time>2015-07-13T12:29:27Z</time>
      </trkpt>
      <trkpt lat="46.585034988820553" lon="12.293888423591852">
        <ele>2405.8400000000001</ele>
        <time>2015-07-13T12:29:31Z</time>
      </trkpt>
      <trkpt lat="46.584964664652944" lon="12.293827403336763">
        <ele>2407.2800000000002</ele>
        <time>2015-07-13T12:29:42Z</time>
      </trkpt>
      <trkpt lat="46.58490439876914" lon="12.293740063905716">
        <ele>2408.7199999999998</ele>
        <time>2015-07-13T12:29:53Z</time>
      </trkpt>
      <trkpt lat="46.584853017702699" lon="12.293643755838275">
        <ele>2410.6399999999999</ele>
        <time>2015-07-13T12:30:06Z</time>
      </trkpt>
      <trkpt lat="46.584805240854621" lon="12.293647695332766">
        <ele>2409.6799999999998</ele>
        <time>2015-07-13T12:30:19Z</time>
      </trkpt>
      <trkpt lat="46.584756793454289" lon="12.293639564886689">
        <ele>2408.2399999999998</ele>
        <time>2015-07-13T12:30:29Z</time>
      </trkpt>
      <trkpt lat="46.584742879495025" lon="12.29365037754178">
        <ele>2407.7600000000002</ele>
        <time>2015-07-13T12:30:44Z</time>
      </trkpt>
      <trkpt lat="46.584742460399866" lon="12.293647862970829">
        <ele>2405.8400000000001</ele>
        <time>2015-07-13T12:30:56Z</time>
      </trkpt>
      <trkpt lat="46.584719158709049" lon="12.293581310659647">
        <ele>2403.9099999999999</ele>
        <time>2015-07-13T12:31:06Z</time>
      </trkpt>
      <trkpt lat="46.584709854796529" lon="12.293563289567828">
        <ele>2403.4299999999998</ele>
        <time>2015-07-13T12:31:16Z</time>
      </trkpt>
      <trkpt lat="46.584655623883009" lon="12.293515345081687">
        <ele>2402.9499999999998</ele>
        <time>2015-07-13T12:31:26Z</time>
      </trkpt>
      <trkpt lat="46.584645062685013" lon="12.293508891016245">
        <ele>2402.9499999999998</ele>
        <time>2015-07-13T12:31:28Z</time>
      </trkpt>
      <trkpt lat="46.584567110985518" lon="12.293473267927766">
        <ele>2404.3899999999999</ele>
        <time>2015-07-13T12:31:38Z</time>
      </trkpt>
      <trkpt lat="46.584511455148458" lon="12.293421551585197">
        <ele>2404.3899999999999</ele>
        <time>2015-07-13T12:31:51Z</time>
      </trkpt>
      <trkpt lat="46.584498798474669" lon="12.293449882417917">
        <ele>2404.3899999999999</ele>
        <time>2015-07-13T12:32:12Z</time>
      </trkpt>
      <trkpt lat="46.584503743797541" lon="12.293461197987199">
        <ele>2404.8800000000001</ele>
        <time>2015-07-13T12:32:30Z</time>
      </trkpt>
      <trkpt lat="46.584512209519744" lon="12.293422305956483">
        <ele>2404.3899999999999</ele>
        <time>2015-07-13T12:32:46Z</time>
      </trkpt>
      <trkpt lat="46.58452520146966" lon="12.293428257107735">
        <ele>2404.8800000000001</ele>
        <time>2015-07-13T12:33:10Z</time>
      </trkpt>
      <trkpt lat="46.584567027166486" lon="12.293431693688035">
        <ele>2405.3600000000001</ele>
        <time>2015-07-13T12:33:28Z</time>
      </trkpt>
      <trkpt lat="46.584565518423915" lon="12.293440494686365">
        <ele>2405.3600000000001</ele>
        <time>2015-07-13T12:33:44Z</time>
      </trkpt>
      <trkpt lat="46.584555711597204" lon="12.293444350361824">
        <ele>2405.8400000000001</ele>
        <time>2015-07-13T12:34:00Z</time>
      </trkpt>
      <trkpt lat="46.584557723253965" lon="12.29342557489872">
        <ele>2404.8800000000001</ele>
        <time>2015-07-13T12:34:11Z</time>
      </trkpt>
      <trkpt lat="46.584530062973499" lon="12.293411744758487">
        <ele>2405.3600000000001</ele>
        <time>2015-07-13T12:34:31Z</time>
      </trkpt>
      <trkpt lat="46.584540959447622" lon="12.293437225744128">
        <ele>2405.8400000000001</ele>
        <time>2015-07-13T12:34:38Z</time>
      </trkpt>
      <trkpt lat="46.584532242268324" lon="12.293441835790873">
        <ele>2405.8400000000001</ele>
        <time>2015-07-13T12:34:52Z</time>
      </trkpt>
      <trkpt lat="46.584518747404218" lon="12.293442422524095">
        <ele>2405.8400000000001</ele>
        <time>2015-07-13T12:35:05Z</time>
      </trkpt>
      <trkpt lat="46.584506593644619" lon="12.293410571292043">
        <ele>2406.3200000000002</ele>
        <time>2015-07-13T12:35:30Z</time>
      </trkpt>
      <trkpt lat="46.584521597251296" lon="12.293411241844296">
        <ele>2406.3200000000002</ele>
        <time>2015-07-13T12:35:37Z</time>
      </trkpt>
      <trkpt lat="46.584528218954802" lon="12.293451642617583">
        <ele>2405.8400000000001</ele>
        <time>2015-07-13T12:35:47Z</time>
      </trkpt>
      <trkpt lat="46.584532912820578" lon="12.293462371453643">
        <ele>2405.8400000000001</ele>
        <time>2015-07-13T12:36:06Z</time>
      </trkpt>
      <trkpt lat="46.584536181762815" lon="12.293481649830937">
        <ele>2406.3200000000002</ele>
        <time>2015-07-13T12:36:21Z</time>
      </trkpt>
      <trkpt lat="46.584527129307389" lon="12.293480224907398">
        <ele>2406.3200000000002</ele>
        <time>2015-07-13T12:36:37Z</time>
      </trkpt>
      <trkpt lat="46.58452863804996" lon="12.293489277362823">
        <ele>2406.8000000000002</ele>
        <time>2015-07-13T12:36:49Z</time>
      </trkpt>
      <trkpt lat="46.584564261138439" lon="12.293453235179186">
        <ele>2406.3200000000002</ele>
        <time>2015-07-13T12:36:56Z</time>
      </trkpt>
      <trkpt lat="46.584625951945782" lon="12.293459353968501">
        <ele>2405.8400000000001</ele>
        <time>2015-07-13T12:37:06Z</time>
      </trkpt>
      <trkpt lat="46.584632992744446" lon="12.293441332876682">
        <ele>2405.8400000000001</ele>
        <time>2015-07-13T12:37:21Z</time>
      </trkpt>
      <trkpt lat="46.584545653313398" lon="12.293449798598886">
        <ele>2406.3200000000002</ele>
        <time>2015-07-13T12:37:33Z</time>
      </trkpt>
      <trkpt lat="46.584546156227589" lon="12.293480727821589">
        <ele>2406.3200000000002</ele>
        <time>2015-07-13T12:37:53Z</time>
      </trkpt>
      <trkpt lat="46.584588401019573" lon="12.293478799983859">
        <ele>2406.3200000000002</ele>
        <time>2015-07-13T12:38:20Z</time>
      </trkpt>
      <trkpt lat="46.584572223946452" lon="12.293436387553811">
        <ele>2406.3200000000002</ele>
        <time>2015-07-13T12:38:41Z</time>
      </trkpt>
      <trkpt lat="46.584631819278002" lon="12.293473519384861">
        <ele>2405.8400000000001</ele>
        <time>2015-07-13T12:38:52Z</time>
      </trkpt>
      <trkpt lat="46.584688061848283" lon="12.293543675914407">
        <ele>2403.9099999999999</ele>
        <time>2015-07-13T12:39:01Z</time>
      </trkpt>
      <trkpt lat="46.584712034091353" lon="12.293572090566158">
        <ele>2403.9099999999999</ele>
        <time>2015-07-13T12:39:05Z</time>
      </trkpt>
      <trkpt lat="46.584724774584174" lon="12.293601678684354">
        <ele>2405.8400000000001</ele>
        <time>2015-07-13T12:39:14Z</time>
      </trkpt>
      <trkpt lat="46.58472703769803" lon="12.293614251539111">
        <ele>2406.3200000000002</ele>
        <time>2015-07-13T12:39:31Z</time>
      </trkpt>
      <trkpt lat="46.584724690765142" lon="12.293577287346125">
        <ele>2405.8400000000001</ele>
        <time>2015-07-13T12:39:42Z</time>
      </trkpt>
      <trkpt lat="46.584735419601202" lon="12.293599583208561">
        <ele>2405.8400000000001</ele>
        <time>2015-07-13T12:39:59Z</time>
      </trkpt>
      <trkpt lat="46.584741873666644" lon="12.293591955676675">
        <ele>2405.8400000000001</ele>
        <time>2015-07-13T12:40:10Z</time>
      </trkpt>
      <trkpt lat="46.584733324125409" lon="12.293580891564488">
        <ele>2405.8400000000001</ele>
        <time>2015-07-13T12:40:26Z</time>
      </trkpt>
      <trkpt lat="46.584741957485676" lon="12.293585250154138">
        <ele>2406.3200000000002</ele>
        <time>2015-07-13T12:40:43Z</time>
      </trkpt>
      <trkpt lat="46.584746232256293" lon="12.293565720319748">
        <ele>2406.3200000000002</ele>
        <time>2015-07-13T12:40:57Z</time>
      </trkpt>
      <trkpt lat="46.584740951657295" lon="12.293572006747127">
        <ele>2406.3200000000002</ele>
        <time>2015-07-13T12:41:08Z</time>
      </trkpt>
      <trkpt lat="46.584743466228247" lon="12.293578628450632">
        <ele>2406.8000000000002</ele>
        <time>2015-07-13T12:41:25Z</time>
      </trkpt>
      <trkpt lat="46.584740784019232" lon="12.293614502996206">
        <ele>2406.3200000000002</ele>
        <time>2015-07-13T12:41:43Z</time>
      </trkpt>
      <trkpt lat="46.584741286933422" lon="12.293619951233268">
        <ele>2406.3200000000002</ele>
        <time>2015-07-13T12:41:55Z</time>
      </trkpt>
      <trkpt lat="46.584738185629249" lon="12.293621879070997">
        <ele>2406.3200000000002</ele>
        <time>2015-07-13T12:42:14Z</time>
      </trkpt>
      <trkpt lat="46.584719074890018" lon="12.293607126921415">
        <ele>2406.3200000000002</ele>
        <time>2015-07-13T12:42:27Z</time>
      </trkpt>
      <trkpt lat="46.584739862009883" lon="12.293598912656307">
        <ele>2406.3200000000002</ele>
        <time>2015-07-13T12:42:43Z</time>
      </trkpt>
      <trkpt lat="46.584703819826245" lon="12.293617688119411">
        <ele>2406.3200000000002</ele>
        <time>2015-07-13T12:43:04Z</time>
      </trkpt>
      <trkpt lat="46.584717901423573" lon="12.293587932363153">
        <ele>2406.3200000000002</ele>
        <time>2015-07-13T12:43:20Z</time>
      </trkpt>
      <trkpt lat="46.584710692986846" lon="12.29357561096549">
        <ele>2405.8400000000001</ele>
        <time>2015-07-13T12:43:34Z</time>
      </trkpt>
      <trkpt lat="46.584747740998864" lon="12.29365230537951">
        <ele>2406.3200000000002</ele>
        <time>2015-07-13T12:43:55Z</time>
      </trkpt>
      <trkpt lat="46.584743047133088" lon="12.293632859364152">
        <ele>2406.3200000000002</ele>
        <time>2015-07-13T12:44:08Z</time>
      </trkpt>
      <trkpt lat="46.5847407002002" lon="12.293614083901048">
        <ele>2406.3200000000002</ele>
        <time>2015-07-13T12:44:27Z</time>
      </trkpt>
      <trkpt lat="46.584745729342103" lon="12.293640235438943">
        <ele>2406.8000000000002</ele>
        <time>2015-07-13T12:44:40Z</time>
      </trkpt>
      <trkpt lat="46.584750087931752" lon="12.293622549623251">
        <ele>2407.2800000000002</ele>
        <time>2015-07-13T12:45:01Z</time>
      </trkpt>
      <trkpt lat="46.584748830646276" lon="12.293598996475339">
        <ele>2407.2800000000002</ele>
        <time>2015-07-13T12:45:18Z</time>
      </trkpt>
      <trkpt lat="46.584750674664974" lon="12.293604360893369">
        <ele>2406.8000000000002</ele>
        <time>2015-07-13T12:45:32Z</time>
      </trkpt>
      <trkpt lat="46.584752686321735" lon="12.293613245710731">
        <ele>2407.2800000000002</ele>
        <time>2015-07-13T12:45:45Z</time>
      </trkpt>
      <trkpt lat="46.584740448743105" lon="12.293621879070997">
        <ele>2406.8000000000002</ele>
        <time>2015-07-13T12:46:01Z</time>
      </trkpt>
      <trkpt lat="46.584749165922403" lon="12.293596565723419">
        <ele>2406.3200000000002</ele>
        <time>2015-07-13T12:46:15Z</time>
      </trkpt>
      <trkpt lat="46.584745142608881" lon="12.293579299002886">
        <ele>2406.8000000000002</ele>
        <time>2015-07-13T12:46:32Z</time>
      </trkpt>
      <trkpt lat="46.584742711856961" lon="12.293585753068328">
        <ele>2406.8000000000002</ele>
        <time>2015-07-13T12:46:48Z</time>
      </trkpt>
      <trkpt lat="46.584737012162805" lon="12.293575359508395">
        <ele>2406.8000000000002</ele>
        <time>2015-07-13T12:47:07Z</time>
      </trkpt>
      <trkpt lat="46.584709016606212" lon="12.293586088344455">
        <ele>2406.8000000000002</ele>
        <time>2015-07-13T12:47:30Z</time>
      </trkpt>
      <trkpt lat="46.584696611389518" lon="12.293607713654637">
        <ele>2406.8000000000002</ele>
        <time>2015-07-13T12:47:49Z</time>
      </trkpt>
      <trkpt lat="46.584701389074326" lon="12.293609222397208">
        <ele>2408.2399999999998</ele>
        <time>2015-07-13T12:48:04Z</time>
      </trkpt>
      <trkpt lat="46.584725193679333" lon="12.293585501611233">
        <ele>2406.3200000000002</ele>
        <time>2015-07-13T12:48:19Z</time>
      </trkpt>
      <trkpt lat="46.584746316075325" lon="12.29361223988235">
        <ele>2407.2800000000002</ele>
        <time>2015-07-13T12:48:33Z</time>
      </trkpt>
      <trkpt lat="46.584748579189181" lon="12.29362590238452">
        <ele>2407.7600000000002</ele>
        <time>2015-07-13T12:48:42Z</time>
      </trkpt>
      <trkpt lat="46.584751177579165" lon="12.293605618178844">
        <ele>2407.2800000000002</ele>
        <time>2015-07-13T12:49:01Z</time>
      </trkpt>
      <trkpt lat="46.584745310246944" lon="12.29361274279654">
        <ele>2407.2800000000002</ele>
        <time>2015-07-13T12:49:15Z</time>
      </trkpt>
      <trkpt lat="46.584737934172153" lon="12.293583322316408">
        <ele>2406.8000000000002</ele>
        <time>2015-07-13T12:49:26Z</time>
      </trkpt>
      <trkpt lat="46.584736173972487" lon="12.29359220713377">
        <ele>2406.3200000000002</ele>
        <time>2015-07-13T12:49:42Z</time>
      </trkpt>
      <trkpt lat="46.584765762090683" lon="12.293586172163486">
        <ele>2406.3200000000002</ele>
        <time>2015-07-13T12:49:59Z</time>
      </trkpt>
      <trkpt lat="46.584724942222238" lon="12.293569492176175">
        <ele>2406.3200000000002</ele>
        <time>2015-07-13T12:50:08Z</time>
      </trkpt>
      <trkpt lat="46.584718320518732" lon="12.293552225455642">
        <ele>2404.8800000000001</ele>
        <time>2015-07-13T12:50:17Z</time>
      </trkpt>
      <trkpt lat="46.584707843139768" lon="12.293538898229599">
        <ele>2404.8800000000001</ele>
        <time>2015-07-13T12:50:19Z</time>
      </trkpt>
      <trkpt lat="46.584636094048619" lon="12.293475279584527">
        <ele>2404.8800000000001</ele>
        <time>2015-07-13T12:50:27Z</time>
      </trkpt>
      <trkpt lat="46.584554202854633" lon="12.293457426130772">
        <ele>2406.3200000000002</ele>
        <time>2015-07-13T12:50:37Z</time>
      </trkpt>
      <trkpt lat="46.584550850093365" lon="12.293449463322759">
        <ele>2405.8400000000001</ele>
        <time>2015-07-13T12:50:43Z</time>
      </trkpt>
      <trkpt lat="46.584558477625251" lon="12.293472345918417">
        <ele>2405.8400000000001</ele>
        <time>2015-07-13T12:51:01Z</time>
      </trkpt>
      <trkpt lat="46.584547078236938" lon="12.293495815247297">
        <ele>2406.3200000000002</ele>
        <time>2015-07-13T12:51:07Z</time>
      </trkpt>
      <trkpt lat="46.584476754069328" lon="12.293541077524424">
        <ele>2405.8400000000001</ele>
        <time>2015-07-13T12:51:18Z</time>
      </trkpt>
      <trkpt lat="46.584462504833937" lon="12.293490115553141">
        <ele>2403.4299999999998</ele>
        <time>2015-07-13T12:51:24Z</time>
      </trkpt>
      <trkpt lat="46.584429312497377" lon="12.293426664546132">
        <ele>2401.0300000000002</ele>
        <time>2015-07-13T12:51:32Z</time>
      </trkpt>
      <trkpt lat="46.584342727437615" lon="12.293432196602225">
        <ele>2398.1500000000001</ele>
        <time>2015-07-13T12:51:42Z</time>
      </trkpt>
      <trkpt lat="46.584331495687366" lon="12.293428592383862">
        <ele>2397.6700000000001</ele>
        <time>2015-07-13T12:51:43Z</time>
      </trkpt>
      <trkpt lat="46.584225716069341" lon="12.293429682031274">
        <ele>2394.7800000000002</ele>
        <time>2015-07-13T12:51:54Z</time>
      </trkpt>
      <trkpt lat="46.584112644195557" lon="12.293413756415248">
        <ele>2391.4200000000001</ele>
        <time>2015-07-13T12:52:05Z</time>
      </trkpt>
      <trkpt lat="46.584085403010249" lon="12.29345197789371">
        <ele>2389.4899999999998</ele>
        <time>2015-07-13T12:52:14Z</time>
      </trkpt>
      <trkpt lat="46.584163019433618" lon="12.293533198535442">
        <ele>2388.5300000000002</ele>
        <time>2015-07-13T12:52:25Z</time>
      </trkpt>
      <trkpt lat="46.584144160151482" lon="12.293610982596874">
        <ele>2386.6100000000001</ele>
        <time>2015-07-13T12:52:35Z</time>
      </trkpt>
      <trkpt lat="46.584112476557493" lon="12.293456923216581">
        <ele>2383.73</ele>
        <time>2015-07-13T12:52:46Z</time>
      </trkpt>
      <trkpt lat="46.584097724407911" lon="12.293410487473011">
        <ele>2383.25</ele>
        <time>2015-07-13T12:52:55Z</time>
      </trkpt>
      <trkpt lat="46.58407224342227" lon="12.293409649282694">
        <ele>2382.2800000000002</ele>
        <time>2015-07-13T12:52:58Z</time>
      </trkpt>
      <trkpt lat="46.584068639203906" lon="12.293446864932775">
        <ele>2380.3600000000001</ele>
        <time>2015-07-13T12:53:07Z</time>
      </trkpt>
      <trkpt lat="46.584037961438298" lon="12.293477291241288">
        <ele>2378.4400000000001</ele>
        <time>2015-07-13T12:53:15Z</time>
      </trkpt>
      <trkpt lat="46.584028825163841" lon="12.293473770841956">
        <ele>2377.96</ele>
        <time>2015-07-13T12:53:16Z</time>
      </trkpt>
      <trkpt lat="46.583946766331792" lon="12.293430268764496">
        <ele>2375.0700000000002</ele>
        <time>2015-07-13T12:53:26Z</time>
      </trkpt>
      <trkpt lat="46.583923129364848" lon="12.293423060327768">
        <ele>2375.0700000000002</ele>
        <time>2015-07-13T12:53:28Z</time>
      </trkpt>
      <trkpt lat="46.58380938693881" lon="12.293535126373172">
        <ele>2373.1500000000001</ele>
        <time>2015-07-13T12:53:39Z</time>
      </trkpt>
      <trkpt lat="46.583746606484056" lon="12.29353990405798">
        <ele>2371.23</ele>
        <time>2015-07-13T12:53:45Z</time>
      </trkpt>
      <trkpt lat="46.583691285923123" lon="12.293452648445964">
        <ele>2368.3499999999999</ele>
        <time>2015-07-13T12:53:56Z</time>
      </trkpt>
      <trkpt lat="46.583705199882388" lon="12.293591285124421">
        <ele>2366.4200000000001</ele>
        <time>2015-07-13T12:54:07Z</time>
      </trkpt>
      <trkpt lat="46.583697320893407" lon="12.293590614572167">
        <ele>2365.9400000000001</ele>
        <time>2015-07-13T12:54:08Z</time>
      </trkpt>
      <trkpt lat="46.583650717511773" lon="12.293572761118412">
        <ele>2363.54</ele>
        <time>2015-07-13T12:54:16Z</time>
      </trkpt>
      <trkpt lat="46.583681143820286" lon="12.293490786105394">
        <ele>2362.0999999999999</ele>
        <time>2015-07-13T12:54:20Z</time>
      </trkpt>
      <trkpt lat="46.583593050017953" lon="12.293244861066341">
        <ele>2359.21</ele>
        <time>2015-07-13T12:54:34Z</time>
      </trkpt>
      <trkpt lat="46.58355281688273" lon="12.293202364817262">
        <ele>2357.29</ele>
        <time>2015-07-13T12:54:41Z</time>
      </trkpt>
      <trkpt lat="46.583540411666036" lon="12.293386682868004">
        <ele>2353.9299999999998</ele>
        <time>2015-07-13T12:54:51Z</time>
      </trkpt>
      <trkpt lat="46.58352448605001" lon="12.293404452502728">
        <ele>2352</ele>
        <time>2015-07-13T12:54:55Z</time>
      </trkpt>
      <trkpt lat="46.583492467179894" lon="12.293320382013917">
        <ele>2350.5599999999999</ele>
        <time>2015-07-13T12:55:02Z</time>
      </trkpt>
      <trkpt lat="46.583465477451682" lon="12.293430604040623">
        <ele>2348.1599999999999</ele>
        <time>2015-07-13T12:55:08Z</time>
      </trkpt>
      <trkpt lat="46.583437062799931" lon="12.293397244066">
        <ele>2347.1999999999998</ele>
        <time>2015-07-13T12:55:11Z</time>
      </trkpt>
      <trkpt lat="46.583431782200933" lon="12.293311413377523">
        <ele>2346.7199999999998</ele>
        <time>2015-07-13T12:55:15Z</time>
      </trkpt>
      <trkpt lat="46.583314938470721" lon="12.293218038976192">
        <ele>2343.3499999999999</ele>
        <time>2015-07-13T12:55:27Z</time>
      </trkpt>
      <trkpt lat="46.583290211856365" lon="12.293178224936128">
        <ele>2342.8699999999999</ele>
        <time>2015-07-13T12:55:30Z</time>
      </trkpt>
      <trkpt lat="46.583173535764217" lon="12.293104967102408">
        <ele>2340.9499999999998</ele>
        <time>2015-07-13T12:55:39Z</time>
      </trkpt>
      <trkpt lat="46.583159789443016" lon="12.293087868019938">
        <ele>2340.4699999999998</ele>
        <time>2015-07-13T12:55:40Z</time>
      </trkpt>
      <trkpt lat="46.583138247951865" lon="12.293073702603579">
        <ele>2340.9499999999998</ele>
        <time>2015-07-13T12:55:42Z</time>
      </trkpt>
      <trkpt lat="46.583127100020647" lon="12.293076133355498">
        <ele>2340.9499999999998</ele>
        <time>2015-07-13T12:55:43Z</time>
      </trkpt>
      <trkpt lat="46.583021320402622" lon="12.293091472238302">
        <ele>2341.4299999999998</ele>
        <time>2015-07-13T12:55:55Z</time>
      </trkpt>
      <trkpt lat="46.582960383966565" lon="12.293106643483043">
        <ele>2341.4299999999998</ele>
        <time>2015-07-13T12:56:06Z</time>
      </trkpt>
      <trkpt lat="46.582910679280758" lon="12.293087197467685">
        <ele>2341.4299999999998</ele>
        <time>2015-07-13T12:56:12Z</time>
      </trkpt>
      <trkpt lat="46.582900118082762" lon="12.293077809736133">
        <ele>2341.4299999999998</ele>
        <time>2015-07-13T12:56:13Z</time>
      </trkpt>
      <trkpt lat="46.582811186090112" lon="12.2930415160954">
        <ele>2339.9899999999998</ele>
        <time>2015-07-13T12:56:23Z</time>
      </trkpt>
      <trkpt lat="46.582802385091782" lon="12.29304981417954">
        <ele>2339.9899999999998</ele>
        <time>2015-07-13T12:56:24Z</time>
      </trkpt>
      <trkpt lat="46.582657545804977" lon="12.293111672624946">
        <ele>2338.54</ele>
        <time>2015-07-13T12:56:38Z</time>
      </trkpt>
      <trkpt lat="46.582536594942212" lon="12.293156683444977">
        <ele>2339.02</ele>
        <time>2015-07-13T12:56:49Z</time>
      </trkpt>
      <trkpt lat="46.582416314631701" lon="12.293203203007579">
        <ele>2339.5100000000002</ele>
        <time>2015-07-13T12:57:00Z</time>
      </trkpt>
      <trkpt lat="46.582333501428366" lon="12.293230360373855">
        <ele>2339.02</ele>
        <time>2015-07-13T12:57:11Z</time>
      </trkpt>
      <trkpt lat="46.58225261606276" lon="12.293233796954155">
        <ele>2337.5799999999999</ele>
        <time>2015-07-13T12:57:21Z</time>
      </trkpt>
      <trkpt lat="46.582246413454413" lon="12.293225498870015">
        <ele>2337.0999999999999</ele>
        <time>2015-07-13T12:57:22Z</time>
      </trkpt>
      <trkpt lat="46.582210287451744" lon="12.293223654851317">
        <ele>2336.6199999999999</ele>
        <time>2015-07-13T12:57:31Z</time>
      </trkpt>
      <trkpt lat="46.582181369885802" lon="12.293249554932117">
        <ele>2336.6199999999999</ele>
        <time>2015-07-13T12:57:42Z</time>
      </trkpt>
      <trkpt lat="46.582148261368275" lon="12.293273946270347">
        <ele>2336.6199999999999</ele>
        <time>2015-07-13T12:57:48Z</time>
      </trkpt>
      <trkpt lat="46.58213434740901" lon="12.293272605165839">
        <ele>2336.1399999999999</ele>
        <time>2015-07-13T12:57:49Z</time>
      </trkpt>
      <trkpt lat="46.582071734592319" lon="12.293249219655991">
        <ele>2336.1399999999999</ele>
        <time>2015-07-13T12:57:54Z</time>
      </trkpt>
      <trkpt lat="46.581985233351588" lon="12.293188953772187">
        <ele>2336.1399999999999</ele>
        <time>2015-07-13T12:58:03Z</time>
      </trkpt>
      <trkpt lat="46.581887500360608" lon="12.293198676779866">
        <ele>2335.6599999999999</ele>
        <time>2015-07-13T12:58:12Z</time>
      </trkpt>
      <trkpt lat="46.581854559481144" lon="12.293202700093389">
        <ele>2335.6599999999999</ele>
        <time>2015-07-13T12:58:15Z</time>
      </trkpt>
      <trkpt lat="46.58182991668582" lon="12.293202364817262">
        <ele>2335.6599999999999</ele>
        <time>2015-07-13T12:58:17Z</time>
      </trkpt>
      <trkpt lat="46.581798568367958" lon="12.293190127238631">
        <ele>2335.1799999999998</ele>
        <time>2015-07-13T12:58:20Z</time>
      </trkpt>
      <trkpt lat="46.581660518422723" lon="12.293191133067012">
        <ele>2334.2199999999998</ele>
        <time>2015-07-13T12:58:33Z</time>
      </trkpt>
      <trkpt lat="46.581640988588333" lon="12.293198006227612">
        <ele>2333.7399999999998</ele>
        <time>2015-07-13T12:58:35Z</time>
      </trkpt>
      <trkpt lat="46.581631349399686" lon="12.293212171643972">
        <ele>2333.7399999999998</ele>
        <time>2015-07-13T12:58:36Z</time>
      </trkpt>
      <trkpt lat="46.581622632220387" lon="12.293228516355157">
        <ele>2333.7399999999998</ele>
        <time>2015-07-13T12:58:37Z</time>
      </trkpt>
      <trkpt lat="46.581614753231406" lon="12.293243100866675">
        <ele>2333.7399999999998</ele>
        <time>2015-07-13T12:58:38Z</time>
      </trkpt>
      <trkpt lat="46.581609724089503" lon="12.293262295424938">
        <ele>2333.2600000000002</ele>
        <time>2015-07-13T12:58:39Z</time>
      </trkpt>
      <trkpt lat="46.581603102385998" lon="12.293276712298393">
        <ele>2333.2600000000002</ele>
        <time>2015-07-13T12:58:40Z</time>
      </trkpt>
      <trkpt lat="46.581595558673143" lon="12.293288446962833">
        <ele>2333.7399999999998</ele>
        <time>2015-07-13T12:58:41Z</time>
      </trkpt>
      <trkpt lat="46.581588098779321" lon="12.293299343436956">
        <ele>2333.7399999999998</ele>
        <time>2015-07-13T12:58:42Z</time>
      </trkpt>
      <trkpt lat="46.581511152908206" lon="12.293383413925767">
        <ele>2333.7399999999998</ele>
        <time>2015-07-13T12:58:50Z</time>
      </trkpt>
      <trkpt lat="46.581502184271812" lon="12.293388359248638">
        <ele>2333.7399999999998</ele>
        <time>2015-07-13T12:58:51Z</time>
      </trkpt>
      <trkpt lat="46.581492712721229" lon="12.293396322056651">
        <ele>2333.7399999999998</ele>
        <time>2015-07-13T12:58:52Z</time>
      </trkpt>
      <trkpt lat="46.581485001370311" lon="12.293409565463662">
        <ele>2333.2600000000002</ele>
        <time>2015-07-13T12:58:53Z</time>
      </trkpt>
      <trkpt lat="46.5814458578825" lon="12.293446445837617">
        <ele>2334.6999999999998</ele>
        <time>2015-07-13T12:58:59Z</time>
      </trkpt>
      <trkpt lat="46.581442086026073" lon="12.293461868539453">
        <ele>2334.6999999999998</ele>
        <time>2015-07-13T12:59:00Z</time>
      </trkpt>
      <trkpt lat="46.581435045227408" lon="12.293469496071339">
        <ele>2334.2199999999998</ele>
        <time>2015-07-13T12:59:01Z</time>
      </trkpt>
      <trkpt lat="46.581381652504206" lon="12.29353403672576">
        <ele>2337.0999999999999</ele>
        <time>2015-07-13T12:59:14Z</time>
      </trkpt>
      <trkpt lat="46.581339491531253" lon="12.2936303447932">
        <ele>2338.54</ele>
        <time>2015-07-13T12:59:25Z</time>
      </trkpt>
      <trkpt lat="46.581271681934595" lon="12.293728580698371">
        <ele>2339.5100000000002</ele>
        <time>2015-07-13T12:59:36Z</time>
      </trkpt>
      <trkpt lat="46.581257935613394" lon="12.293696980923414">
        <ele>2341.4299999999998</ele>
        <time>2015-07-13T12:59:46Z</time>
      </trkpt>
      <trkpt lat="46.581245698034763" lon="12.293571839109063">
        <ele>2342.8699999999999</ele>
        <time>2015-07-13T12:59:57Z</time>
      </trkpt>
      <trkpt lat="46.58122013323009" lon="12.293593548238277">
        <ele>2344.3099999999999</ele>
        <time>2015-07-13T13:00:05Z</time>
      </trkpt>
      <trkpt lat="46.581185348331928" lon="12.293606540188193">
        <ele>2346.23</ele>
        <time>2015-07-13T13:00:17Z</time>
      </trkpt>
      <trkpt lat="46.581174787133932" lon="12.293514171615243">
        <ele>2348.1599999999999</ele>
        <time>2015-07-13T13:00:31Z</time>
      </trkpt>
      <trkpt lat="46.581174535676837" lon="12.293536718934774">
        <ele>2349.1199999999999</ele>
        <time>2015-07-13T13:00:41Z</time>
      </trkpt>
      <trkpt lat="46.581126507371664" lon="12.293540993705392">
        <ele>2351.04</ele>
        <time>2015-07-13T13:00:52Z</time>
      </trkpt>
      <trkpt lat="46.581117622554302" lon="12.29343781247735">
        <ele>2352.96</ele>
        <time>2015-07-13T13:01:07Z</time>
      </trkpt>
      <trkpt lat="46.58110530115664" lon="12.2934749443084">
        <ele>2354.4099999999999</ele>
        <time>2015-07-13T13:01:18Z</time>
      </trkpt>
      <trkpt lat="46.581052243709564" lon="12.293491121381521">
        <ele>2356.8099999999999</ele>
        <time>2015-07-13T13:01:31Z</time>
      </trkpt>
      <trkpt lat="46.581013351678848" lon="12.293485589325428">
        <ele>2358.73</ele>
        <time>2015-07-13T13:01:42Z</time>
      </trkpt>
      <trkpt lat="46.580969011411071" lon="12.293523056432605">
        <ele>2361.1399999999999</ele>
        <time>2015-07-13T13:01:54Z</time>
      </trkpt>
      <trkpt lat="46.580947553738952" lon="12.293548453599215">
        <ele>2363.0599999999999</ele>
        <time>2015-07-13T13:02:05Z</time>
      </trkpt>
      <trkpt lat="46.580902291461825" lon="12.293567312881351">
        <ele>2364.98</ele>
        <time>2015-07-13T13:02:14Z</time>
      </trkpt>
      <trkpt lat="46.580910757184029" lon="12.293443093076348">
        <ele>2367.3800000000001</ele>
        <time>2015-07-13T13:02:30Z</time>
      </trkpt>
      <trkpt lat="46.580906985327601" lon="12.293252991512418">
        <ele>2369.3099999999999</ele>
        <time>2015-07-13T13:02:45Z</time>
      </trkpt>
      <trkpt lat="46.580895753577352" lon="12.2929379157722">
        <ele>2372.1900000000001</ele>
        <time>2015-07-13T13:03:01Z</time>
      </trkpt>
      <trkpt lat="46.580869518220425" lon="12.293059285730124">
        <ele>2374.1100000000001</ele>
        <time>2015-07-13T13:03:14Z</time>
      </trkpt>
      <trkpt lat="46.580856442451477" lon="12.293177135288715">
        <ele>2375.5500000000002</ele>
        <time>2015-07-13T13:03:28Z</time>
      </trkpt>
      <trkpt lat="46.580841103568673" lon="12.293159700930119">
        <ele>2377.96</ele>
        <time>2015-07-13T13:03:37Z</time>
      </trkpt>
      <trkpt lat="46.580832805484533" lon="12.293024584650993">
        <ele>2379.4000000000001</ele>
        <time>2015-07-13T13:03:48Z</time>
      </trkpt>
      <trkpt lat="46.580858957022429" lon="12.29296674951911">
        <ele>2380.8400000000001</ele>
        <time>2015-07-13T13:04:00Z</time>
      </trkpt>
      <trkpt lat="46.580858873203397" lon="12.292809672653675">
        <ele>2382.7600000000002</ele>
        <time>2015-07-13T13:04:11Z</time>
      </trkpt>
      <trkpt lat="46.580814281478524" lon="12.292726943269372">
        <ele>2384.6900000000001</ele>
        <time>2015-07-13T13:04:24Z</time>
      </trkpt>
      <trkpt lat="46.580734150484204" lon="12.292825765907764">
        <ele>2386.1300000000001</ele>
        <time>2015-07-13T13:04:41Z</time>
      </trkpt>
      <trkpt lat="46.580675896257162" lon="12.293052664026618">
        <ele>2388.0500000000002</ele>
        <time>2015-07-13T13:04:53Z</time>
      </trkpt>
      <trkpt lat="46.580676566809416" lon="12.29315341450274">
        <ele>2389.9699999999998</ele>
        <time>2015-07-13T13:05:02Z</time>
      </trkpt>
      <trkpt lat="46.580656114965677" lon="12.293133130297065">
        <ele>2391.9000000000001</ele>
        <time>2015-07-13T13:05:14Z</time>
      </trkpt>
      <trkpt lat="46.580647984519601" lon="12.293028440326452">
        <ele>2393.3400000000001</ele>
        <time>2015-07-13T13:05:27Z</time>
      </trkpt>
      <trkpt lat="46.580663742497563" lon="12.292973035946488">
        <ele>2395.7399999999998</ele>
        <time>2015-07-13T13:05:44Z</time>
      </trkpt>
      <trkpt lat="46.580630633980036" lon="12.292829202488065">
        <ele>2398.1500000000001</ele>
        <time>2015-07-13T13:05:59Z</time>
      </trkpt>
      <trkpt lat="46.58068654127419" lon="12.292673382908106">
        <ele>2398.6300000000001</ele>
        <time>2015-07-13T13:06:12Z</time>
      </trkpt>
      <trkpt lat="46.580784609541297" lon="12.292453441768885">
        <ele>2398.6300000000001</ele>
        <time>2015-07-13T13:06:34Z</time>
      </trkpt>
      <trkpt lat="46.580786369740963" lon="12.292451011016965">
        <ele>2398.6300000000001</ele>
        <time>2015-07-13T13:06:56Z</time>
      </trkpt>
      <trkpt lat="46.580837499350309" lon="12.292280523106456">
        <ele>2398.1500000000001</ele>
        <time>2015-07-13T13:07:13Z</time>
      </trkpt>
      <trkpt lat="46.580831045284867" lon="12.292327713221312">
        <ele>2399.5900000000001</ele>
        <time>2015-07-13T13:07:27Z</time>
      </trkpt>
      <trkpt lat="46.580786453559995" lon="12.29235889390111">
        <ele>2401.9899999999998</ele>
        <time>2015-07-13T13:07:39Z</time>
      </trkpt>
      <trkpt lat="46.580671202391386" lon="12.292591910809278">
        <ele>2404.8800000000001</ele>
        <time>2015-07-13T13:07:52Z</time>
      </trkpt>
      <trkpt lat="46.580672292038798" lon="12.292657038196921">
        <ele>2405.3600000000001</ele>
        <time>2015-07-13T13:08:07Z</time>
      </trkpt>
      <trkpt lat="46.580631053075194" lon="12.292526280507445">
        <ele>2407.7600000000002</ele>
        <time>2015-07-13T13:08:20Z</time>
      </trkpt>
      <trkpt lat="46.580574391409755" lon="12.292600208893418">
        <ele>2409.6799999999998</ele>
        <time>2015-07-13T13:08:33Z</time>
      </trkpt>
      <trkpt lat="46.580484788864851" lon="12.292673047631979">
        <ele>2412.0900000000001</ele>
        <time>2015-07-13T13:08:47Z</time>
      </trkpt>
      <trkpt lat="46.580385295674205" lon="12.292986195534468">
        <ele>2414.0100000000002</ele>
        <time>2015-07-13T13:08:59Z</time>
      </trkpt>
      <trkpt lat="46.580347409471869" lon="12.293177973479033">
        <ele>2414.4899999999998</ele>
        <time>2015-07-13T13:09:08Z</time>
      </trkpt>
      <trkpt lat="46.580338273197412" lon="12.293254835531116">
        <ele>2414.9699999999998</ele>
        <time>2015-07-13T13:09:24Z</time>
      </trkpt>
      <trkpt lat="46.580318491905928" lon="12.293244022876024">
        <ele>2416.8899999999999</ele>
        <time>2015-07-13T13:09:32Z</time>
      </trkpt>
      <trkpt lat="46.580313546583056" lon="12.293340330943465">
        <ele>2418.8099999999999</ele>
        <time>2015-07-13T13:09:43Z</time>
      </trkpt>
      <trkpt lat="46.580300219357014" lon="12.293363967910409">
        <ele>2419.3000000000002</ele>
        <time>2015-07-13T13:09:52Z</time>
      </trkpt>
      <trkpt lat="46.580235846340656" lon="12.293367655947804">
        <ele>2420.2600000000002</ele>
        <time>2015-07-13T13:10:06Z</time>
      </trkpt>
      <trkpt lat="46.580209024250507" lon="12.293290877714753">
        <ele>2423.1399999999999</ele>
        <time>2015-07-13T13:10:18Z</time>
      </trkpt>
      <trkpt lat="46.580216903239489" lon="12.293273191899061">
        <ele>2423.6199999999999</ele>
        <time>2015-07-13T13:10:29Z</time>
      </trkpt>
      <trkpt lat="46.580194439738989" lon="12.293359274044633">
        <ele>2425.54</ele>
        <time>2015-07-13T13:10:41Z</time>
      </trkpt>
      <trkpt lat="46.580171305686235" lon="12.293390790000558">
        <ele>2428.4299999999998</ele>
        <time>2015-07-13T13:10:53Z</time>
      </trkpt>
      <trkpt lat="46.580123612657189" lon="12.293418450281024">
        <ele>2429.8699999999999</ele>
        <time>2015-07-13T13:11:06Z</time>
      </trkpt>
      <trkpt lat="46.580071309581399" lon="12.293390203267336">
        <ele>2430.3499999999999</ele>
        <time>2015-07-13T13:11:16Z</time>
      </trkpt>
      <trkpt lat="46.579997213557363" lon="12.293400764465332">
        <ele>2428.9099999999999</ele>
        <time>2015-07-13T13:11:30Z</time>
      </trkpt>
      <trkpt lat="46.579931331798434" lon="12.293379055336118">
        <ele>2431.3099999999999</ele>
        <time>2015-07-13T13:11:41Z</time>
      </trkpt>
      <trkpt lat="46.579919010400772" lon="12.29339238256216">
        <ele>2431.3099999999999</ele>
        <time>2015-07-13T13:11:54Z</time>
      </trkpt>
      <trkpt lat="46.579904425889254" lon="12.293462036177516">
        <ele>2429.8699999999999</ele>
        <time>2015-07-13T13:12:04Z</time>
      </trkpt>
      <trkpt lat="46.579907527193427" lon="12.293427670374513">
        <ele>2431.79</ele>
        <time>2015-07-13T13:12:19Z</time>
      </trkpt>
      <trkpt lat="46.57992429099977" lon="12.293433118611574">
        <ele>2430.3499999999999</ele>
        <time>2015-07-13T13:12:33Z</time>
      </trkpt>
      <trkpt lat="46.579928901046515" lon="12.293485170230269">
        <ele>2429.8699999999999</ele>
        <time>2015-07-13T13:12:48Z</time>
      </trkpt>
      <trkpt lat="46.57988958992064" lon="12.293524062260985">
        <ele>2429.8699999999999</ele>
        <time>2015-07-13T13:13:12Z</time>
      </trkpt>
      <trkpt lat="46.579879699274898" lon="12.293504197150469">
        <ele>2430.8299999999999</ele>
        <time>2015-07-13T13:13:25Z</time>
      </trkpt>
      <trkpt lat="46.579891853034496" lon="12.293480895459652">
        <ele>2430.3499999999999</ele>
        <time>2015-07-13T13:13:43Z</time>
      </trkpt>
      <trkpt lat="46.579947089776397" lon="12.293433370068669">
        <ele>2430.8299999999999</ele>
        <time>2015-07-13T13:14:05Z</time>
      </trkpt>
      <trkpt lat="46.579954130575061" lon="12.293543592095375">
        <ele>2430.8299999999999</ele>
        <time>2015-07-13T13:14:26Z</time>
      </trkpt>
      <trkpt lat="46.57994675450027" lon="12.293640319257975">
        <ele>2431.3099999999999</ele>
        <time>2015-07-13T13:14:39Z</time>
      </trkpt>
      <trkpt lat="46.579915238544345" lon="12.293596062809229">
        <ele>2431.3099999999999</ele>
        <time>2015-07-13T13:14:54Z</time>
      </trkpt>
      <trkpt lat="46.579908281564713" lon="12.293555159121752">
        <ele>2431.3099999999999</ele>
        <time>2015-07-13T13:15:11Z</time>
      </trkpt>
      <trkpt lat="46.579905599355698" lon="12.293584663420916">
        <ele>2431.3099999999999</ele>
        <time>2015-07-13T13:15:28Z</time>
      </trkpt>
      <trkpt lat="46.579892272129655" lon="12.293543675914407">
        <ele>2431.3099999999999</ele>
        <time>2015-07-13T13:15:38Z</time>
      </trkpt>
      <trkpt lat="46.579894199967384" lon="12.293597236275673">
        <ele>2431.3099999999999</ele>
        <time>2015-07-13T13:15:55Z</time>
      </trkpt>
      <trkpt lat="46.579855559393764" lon="12.293476788327098">
        <ele>2430.3499999999999</ele>
        <time>2015-07-13T13:16:06Z</time>
      </trkpt>
      <trkpt lat="46.57982655800879" lon="12.293392885476351">
        <ele>2428.9099999999999</ele>
        <time>2015-07-13T13:16:12Z</time>
      </trkpt>
      <trkpt lat="46.579777272418141" lon="12.293265229091048">
        <ele>2427.4699999999998</ele>
        <time>2015-07-13T13:16:23Z</time>
      </trkpt>
      <trkpt lat="46.579729076474905" lon="12.293175291270018">
        <ele>2425.0599999999999</ele>
        <time>2015-07-13T13:16:34Z</time>
      </trkpt>
      <trkpt lat="46.579760927706957" lon="12.293199766427279">
        <ele>2423.6199999999999</ele>
        <time>2015-07-13T13:16:41Z</time>
      </trkpt>
      <trkpt lat="46.579763861373067" lon="12.293213931843638">
        <ele>2423.1399999999999</ele>
        <time>2015-07-13T13:16:42Z</time>
      </trkpt>
      <trkpt lat="46.579744080081582" lon="12.293309569358826">
        <ele>2421.2199999999998</ele>
        <time>2015-07-13T13:16:54Z</time>
      </trkpt>
      <trkpt lat="46.5797327645123" lon="12.29336891323328">
        <ele>2420.2600000000002</ele>
        <time>2015-07-13T13:17:03Z</time>
      </trkpt>
      <trkpt lat="46.579717677086592" lon="12.293439321219921">
        <ele>2419.3000000000002</ele>
        <time>2015-07-13T13:17:14Z</time>
      </trkpt>
      <trkpt lat="46.579714240506291" lon="12.293470501899719">
        <ele>2419.7800000000002</ele>
        <time>2015-07-13T13:17:31Z</time>
      </trkpt>
      <trkpt lat="46.579654896631837" lon="12.293516686186194">
        <ele>2417.3699999999999</ele>
        <time>2015-07-13T13:17:43Z</time>
      </trkpt>
      <trkpt lat="46.579657578840852" lon="12.293503610417247">
        <ele>2417.3699999999999</ele>
        <time>2015-07-13T13:17:44Z</time>
      </trkpt>
      <trkpt lat="46.579652382060885" lon="12.29337184689939">
        <ele>2415.4499999999998</ele>
        <time>2015-07-13T13:17:54Z</time>
      </trkpt>
      <trkpt lat="46.579615753144026" lon="12.293292554095387">
        <ele>2414.0100000000002</ele>
        <time>2015-07-13T13:18:03Z</time>
      </trkpt>
      <trkpt lat="46.579580884426832" lon="12.293287524953485">
        <ele>2413.0500000000002</ele>
        <time>2015-07-13T13:18:10Z</time>
      </trkpt>
      <trkpt lat="46.57958515919745" lon="12.293417947366834">
        <ele>2412.0900000000001</ele>
        <time>2015-07-13T13:18:21Z</time>
      </trkpt>
      <trkpt lat="46.579550374299288" lon="12.293477458879352">
        <ele>2409.6799999999998</ele>
        <time>2015-07-13T13:18:30Z</time>
      </trkpt>
      <trkpt lat="46.579495221376419" lon="12.293322393670678">
        <ele>2407.7600000000002</ele>
        <time>2015-07-13T13:18:42Z</time>
      </trkpt>
      <trkpt lat="46.579478709027171" lon="12.293270174413919">
        <ele>2406.8000000000002</ele>
        <time>2015-07-13T13:18:46Z</time>
      </trkpt>
      <trkpt lat="46.579471500590444" lon="12.293256260454655">
        <ele>2406.3200000000002</ele>
        <time>2015-07-13T13:18:47Z</time>
      </trkpt>
      <trkpt lat="46.579458760097623" lon="12.293227175250649">
        <ele>2405.8400000000001</ele>
        <time>2015-07-13T13:18:51Z</time>
      </trkpt>
      <trkpt lat="46.579457502812147" lon="12.293317196890712">
        <ele>2403.4299999999998</ele>
        <time>2015-07-13T13:19:01Z</time>
      </trkpt>
      <trkpt lat="46.579429088160396" lon="12.293258188292384">
        <ele>2401.5100000000002</ele>
        <time>2015-07-13T13:19:10Z</time>
      </trkpt>
      <trkpt lat="46.579437972977757" lon="12.293381653726101">
        <ele>2400.0700000000002</ele>
        <time>2015-07-13T13:19:20Z</time>
      </trkpt>
      <trkpt lat="46.579393297433853" lon="12.293370924890041">
        <ele>2397.1799999999998</ele>
        <time>2015-07-13T13:19:31Z</time>
      </trkpt>
      <trkpt lat="46.579372929409146" lon="12.293312083929777">
        <ele>2396.2199999999998</ele>
        <time>2015-07-13T13:19:36Z</time>
      </trkpt>
      <trkpt lat="46.579339066520333" lon="12.293267995119095">
        <ele>2393.8200000000002</ele>
        <time>2015-07-13T13:19:48Z</time>
      </trkpt>
      <trkpt lat="46.57933009788394" lon="12.293312754482031">
        <ele>2392.8600000000001</ele>
        <time>2015-07-13T13:19:51Z</time>
      </trkpt>
      <trkpt lat="46.579294810071588" lon="12.293269503861666">
        <ele>2390.9400000000001</ele>
        <time>2015-07-13T13:19:59Z</time>
      </trkpt>
      <trkpt lat="46.579259606078267" lon="12.293183756992221">
        <ele>2388.0500000000002</ele>
        <time>2015-07-13T13:20:09Z</time>
      </trkpt>
      <trkpt lat="46.579199004918337" lon="12.29312994517386">
        <ele>2386.6100000000001</ele>
        <time>2015-07-13T13:20:18Z</time>
      </trkpt>
      <trkpt lat="46.579218450933695" lon="12.293169843032956">
        <ele>2386.1300000000001</ele>
        <time>2015-07-13T13:20:22Z</time>
      </trkpt>
      <trkpt lat="46.579210739582777" lon="12.293242765590549">
        <ele>2384.6900000000001</ele>
        <time>2015-07-13T13:20:31Z</time>
      </trkpt>
      <trkpt lat="46.579206297174096" lon="12.293252991512418">
        <ele>2384.21</ele>
        <time>2015-07-13T13:20:32Z</time>
      </trkpt>
      <trkpt lat="46.579169500619173" lon="12.293349802494049">
        <ele>2381.3200000000002</ele>
        <time>2015-07-13T13:20:44Z</time>
      </trkpt>
      <trkpt lat="46.579165477305651" lon="12.293337229639292">
        <ele>2381.3200000000002</ele>
        <time>2015-07-13T13:20:45Z</time>
      </trkpt>
      <trkpt lat="46.579120717942715" lon="12.293176297098398">
        <ele>2377.96</ele>
        <time>2015-07-13T13:20:59Z</time>
      </trkpt>
      <trkpt lat="46.579062631353736" lon="12.293083174154162">
        <ele>2375.5500000000002</ele>
        <time>2015-07-13T13:21:10Z</time>
      </trkpt>
      <trkpt lat="46.579023823142052" lon="12.293103290721774">
        <ele>2373.1500000000001</ele>
        <time>2015-07-13T13:21:21Z</time>
      </trkpt>
      <trkpt lat="46.579031953588128" lon="12.293133968487382">
        <ele>2372.6700000000001</ele>
        <time>2015-07-13T13:21:23Z</time>
      </trkpt>
      <trkpt lat="46.57900420948863" lon="12.293233461678028">
        <ele>2370.27</ele>
        <time>2015-07-13T13:21:33Z</time>
      </trkpt>
      <trkpt lat="46.578954504802823" lon="12.293134974315763">
        <ele>2369.3099999999999</ele>
        <time>2015-07-13T13:21:45Z</time>
      </trkpt>
      <trkpt lat="46.578928269445896" lon="12.293134303763509">
        <ele>2369.3099999999999</ele>
        <time>2015-07-13T13:21:59Z</time>
      </trkpt>
      <trkpt lat="46.578861800953746" lon="12.293088790029287">
        <ele>2366.4200000000001</ele>
        <time>2015-07-13T13:22:11Z</time>
      </trkpt>
      <trkpt lat="46.578831290826201" lon="12.293049143627286">
        <ele>2366.9000000000001</ele>
        <time>2015-07-13T13:22:23Z</time>
      </trkpt>
      <trkpt lat="46.578809581696987" lon="12.293041348457336">
        <ele>2365.9400000000001</ele>
        <time>2015-07-13T13:22:29Z</time>
      </trkpt>
      <trkpt lat="46.578775970265269" lon="12.293028691783547">
        <ele>2364.5</ele>
        <time>2015-07-13T13:22:35Z</time>
      </trkpt>
      <trkpt lat="46.578733641654253" lon="12.293009497225285">
        <ele>2362.5799999999999</ele>
        <time>2015-07-13T13:22:41Z</time>
      </trkpt>
      <trkpt lat="46.578644039109349" lon="12.292951745912433">
        <ele>2361.1399999999999</ele>
        <time>2015-07-13T13:22:51Z</time>
      </trkpt>
      <trkpt lat="46.578550329431891" lon="12.292881673201919">
        <ele>2361.1399999999999</ele>
        <time>2015-07-13T13:23:02Z</time>
      </trkpt>
      <trkpt lat="46.578607326373458" lon="12.292819898575544">
        <ele>2362.5799999999999</ele>
        <time>2015-07-13T13:23:10Z</time>
      </trkpt>
      <trkpt lat="46.578625766560435" lon="12.292844038456678">
        <ele>2362.5799999999999</ele>
        <time>2015-07-13T13:23:29Z</time>
      </trkpt>
      <trkpt lat="46.578575307503343" lon="12.292753681540489">
        <ele>2361.6199999999999</ele>
        <time>2015-07-13T13:23:38Z</time>
      </trkpt>
      <trkpt lat="46.578565668314695" lon="12.292686542496085">
        <ele>2361.6199999999999</ele>
        <time>2015-07-13T13:23:50Z</time>
      </trkpt>
      <trkpt lat="46.578488973900676" lon="12.292595179751515">
        <ele>2361.1399999999999</ele>
        <time>2015-07-13T13:24:01Z</time>
      </trkpt>
      <trkpt lat="46.578413369134068" lon="12.292555617168546">
        <ele>2362.0999999999999</ele>
        <time>2015-07-13T13:24:12Z</time>
      </trkpt>
      <trkpt lat="46.578372549265623" lon="12.292584031820297">
        <ele>2363.54</ele>
        <time>2015-07-13T13:24:21Z</time>
      </trkpt>
      <trkpt lat="46.578351845964789" lon="12.292566681280732">
        <ele>2364.98</ele>
        <time>2015-07-13T13:24:35Z</time>
      </trkpt>
      <trkpt lat="46.578358635306358" lon="12.292553605511785">
        <ele>2363.54</ele>
        <time>2015-07-13T13:24:44Z</time>
      </trkpt>
      <trkpt lat="46.578340530395508" lon="12.292577493935823">
        <ele>2363.54</ele>
        <time>2015-07-13T13:25:00Z</time>
      </trkpt>
      <trkpt lat="46.578343799337745" lon="12.29257388971746">
        <ele>2364.02</ele>
        <time>2015-07-13T13:25:08Z</time>
      </trkpt>
      <trkpt lat="46.578333154320717" lon="12.292587384581566">
        <ele>2364.5</ele>
        <time>2015-07-13T13:25:19Z</time>
      </trkpt>
      <trkpt lat="46.578334076330066" lon="12.292605321854353">
        <ele>2364.5</ele>
        <time>2015-07-13T13:25:34Z</time>
      </trkpt>
      <trkpt lat="46.578254280611873" lon="12.292521921917796">
        <ele>2366.4200000000001</ele>
        <time>2015-07-13T13:25:44Z</time>
      </trkpt>
      <trkpt lat="46.578204156830907" lon="12.292438186705112">
        <ele>2366.9000000000001</ele>
        <time>2015-07-13T13:25:55Z</time>
      </trkpt>
      <trkpt lat="46.578141963109374" lon="12.292456710711122">
        <ele>2366.9000000000001</ele>
        <time>2015-07-13T13:26:07Z</time>
      </trkpt>
      <trkpt lat="46.578115224838257" lon="12.292493423447013">
        <ele>2367.3800000000001</ele>
        <time>2015-07-13T13:26:12Z</time>
      </trkpt>
      <trkpt lat="46.577995531260967" lon="12.292491914704442">
        <ele>2368.8299999999999</ele>
        <time>2015-07-13T13:26:25Z</time>
      </trkpt>
      <trkpt lat="46.577952532097697" lon="12.292503733187914">
        <ele>2368.8299999999999</ele>
        <time>2015-07-13T13:26:30Z</time>
      </trkpt>
      <trkpt lat="46.577804675325751" lon="12.29249769821763">
        <ele>2365.9400000000001</ele>
        <time>2015-07-13T13:26:44Z</time>
      </trkpt>
      <trkpt lat="46.577795622870326" lon="12.292500464245677">
        <ele>2365.9400000000001</ele>
        <time>2015-07-13T13:26:45Z</time>
      </trkpt>
      <trkpt lat="46.577736111357808" lon="12.292517647147179">
        <ele>2364.98</ele>
        <time>2015-07-13T13:26:51Z</time>
      </trkpt>
      <trkpt lat="46.577696967869997" lon="12.292515467852354">
        <ele>2366.4200000000001</ele>
        <time>2015-07-13T13:27:01Z</time>
      </trkpt>
      <trkpt lat="46.577660087496042" lon="12.292483365163207">
        <ele>2368.3499999999999</ele>
        <time>2015-07-13T13:27:12Z</time>
      </trkpt>
      <trkpt lat="46.57763946801424" lon="12.292498536407948">
        <ele>2370.27</ele>
        <time>2015-07-13T13:27:22Z</time>
      </trkpt>
      <trkpt lat="46.577590433880687" lon="12.292511193081737">
        <ele>2372.1900000000001</ele>
        <time>2015-07-13T13:27:33Z</time>
      </trkpt>
      <trkpt lat="46.577552044764161" lon="12.292502392083406">
        <ele>2374.1100000000001</ele>
        <time>2015-07-13T13:27:46Z</time>
      </trkpt>
      <trkpt lat="46.577549111098051" lon="12.292418237775564">
        <ele>2376.04</ele>
        <time>2015-07-13T13:27:57Z</time>
      </trkpt>
      <trkpt lat="46.577509380877018" lon="12.292380351573229">
        <ele>2377.48</ele>
        <time>2015-07-13T13:28:08Z</time>
      </trkpt>
      <trkpt lat="46.577482223510742" lon="12.292452268302441">
        <ele>2379.4000000000001</ele>
        <time>2015-07-13T13:28:21Z</time>
      </trkpt>
      <trkpt lat="46.577484486624599" lon="12.292524436488748">
        <ele>2380.3600000000001</ele>
        <time>2015-07-13T13:28:32Z</time>
      </trkpt>
      <trkpt lat="46.57743620686233" lon="12.292633485049009">
        <ele>2381.8000000000002</ele>
        <time>2015-07-13T13:28:45Z</time>
      </trkpt>
      <trkpt lat="46.577411983162165" lon="12.292683022096753">
        <ele>2382.7600000000002</ele>
        <time>2015-07-13T13:28:56Z</time>
      </trkpt>
      <trkpt lat="46.577384574338794" lon="12.292693583294749">
        <ele>2383.73</ele>
        <time>2015-07-13T13:29:07Z</time>
      </trkpt>
      <trkpt lat="46.577327745035291" lon="12.292528040707111">
        <ele>2385.6500000000001</ele>
        <time>2015-07-13T13:29:20Z</time>
      </trkpt>
      <trkpt lat="46.577298324555159" lon="12.292451346293092">
        <ele>2387.5700000000002</ele>
        <time>2015-07-13T13:29:32Z</time>
      </trkpt>
      <trkpt lat="46.57730083912611" lon="12.292359312996268">
        <ele>2389.4899999999998</ele>
        <time>2015-07-13T13:29:44Z</time>
      </trkpt>
      <trkpt lat="46.577311316505075" lon="12.292301142588258">
        <ele>2390.46</ele>
        <time>2015-07-13T13:29:56Z</time>
      </trkpt>
      <trkpt lat="46.577298492193222" lon="12.292240122333169">
        <ele>2391.9000000000001</ele>
        <time>2015-07-13T13:30:08Z</time>
      </trkpt>
      <trkpt lat="46.577296480536461" lon="12.292289910838008">
        <ele>2393.8200000000002</ele>
        <time>2015-07-13T13:30:18Z</time>
      </trkpt>
      <trkpt lat="46.577258510515094" lon="12.292412118986249">
        <ele>2395.2600000000002</ele>
        <time>2015-07-13T13:30:30Z</time>
      </trkpt>
      <trkpt lat="46.577225904911757" lon="12.292502643540502">
        <ele>2397.1799999999998</ele>
        <time>2015-07-13T13:30:42Z</time>
      </trkpt>
      <trkpt lat="46.5772011782974" lon="12.292569112032652">
        <ele>2398.6300000000001</ele>
        <time>2015-07-13T13:30:52Z</time>
      </trkpt>
      <trkpt lat="46.577161364257336" lon="12.292614039033651">
        <ele>2400.0700000000002</ele>
        <time>2015-07-13T13:31:04Z</time>
      </trkpt>
      <trkpt lat="46.577087519690394" lon="12.292469451203942">
        <ele>2401.5100000000002</ele>
        <time>2015-07-13T13:31:19Z</time>
      </trkpt>
      <trkpt lat="46.577114006504416" lon="12.292449418455362">
        <ele>2402.9499999999998</ele>
        <time>2015-07-13T13:31:31Z</time>
      </trkpt>
      <trkpt lat="46.577118365094066" lon="12.292507505044341">
        <ele>2404.3899999999999</ele>
        <time>2015-07-13T13:31:41Z</time>
      </trkpt>
      <trkpt lat="46.577081819996238" lon="12.292585792019963">
        <ele>2405.3600000000001</ele>
        <time>2015-07-13T13:31:51Z</time>
      </trkpt>
      <trkpt lat="46.577054830268025" lon="12.292510522529483">
        <ele>2407.2800000000002</ele>
        <time>2015-07-13T13:32:04Z</time>
      </trkpt>
      <trkpt lat="46.577025074511766" lon="12.29242485947907">
        <ele>2409.1999999999998</ele>
        <time>2015-07-13T13:32:16Z</time>
      </trkpt>
      <trkpt lat="46.576998587697744" lon="12.29236870072782">
        <ele>2410.1599999999999</ele>
        <time>2015-07-13T13:32:25Z</time>
      </trkpt>
      <trkpt lat="46.576981320977211" lon="12.292384961619973">
        <ele>2412.0900000000001</ele>
        <time>2015-07-13T13:32:34Z</time>
      </trkpt>
      <trkpt lat="46.577020045369864" lon="12.292380435392261">
        <ele>2412.5700000000002</ele>
        <time>2015-07-13T13:32:46Z</time>
      </trkpt>
      <trkpt lat="46.577119287103415" lon="12.29227390140295">
        <ele>2412.5700000000002</ele>
        <time>2015-07-13T13:33:04Z</time>
      </trkpt>
      <trkpt lat="46.576985763385892" lon="12.292489651590586">
        <ele>2414.4899999999998</ele>
        <time>2015-07-13T13:33:16Z</time>
      </trkpt>
      <trkpt lat="46.576921390369534" lon="12.292463583871722">
        <ele>2415.9299999999998</ele>
        <time>2015-07-13T13:33:26Z</time>
      </trkpt>
      <trkpt lat="46.576833464205265" lon="12.292469199746847">
        <ele>2418.3299999999999</ele>
        <time>2015-07-13T13:33:40Z</time>
      </trkpt>
      <trkpt lat="46.576805803924799" lon="12.292312458157539">
        <ele>2420.2600000000002</ele>
        <time>2015-07-13T13:33:56Z</time>
      </trkpt>
      <trkpt lat="46.576803792268038" lon="12.292291671037674">
        <ele>2421.6999999999998</ele>
        <time>2015-07-13T13:33:58Z</time>
      </trkpt>
      <trkpt lat="46.57681074924767" lon="12.292253114283085">
        <ele>2421.6999999999998</ele>
        <time>2015-07-13T13:34:13Z</time>
      </trkpt>
      <trkpt lat="46.576829357072711" lon="12.292227214202285">
        <ele>2422.1799999999998</ele>
        <time>2015-07-13T13:34:25Z</time>
      </trkpt>
      <trkpt lat="46.576945949345827" lon="12.292008865624666">
        <ele>2422.1799999999998</ele>
        <time>2015-07-13T13:34:45Z</time>
      </trkpt>
      <trkpt lat="46.576835475862026" lon="12.292221933603287">
        <ele>2422.6599999999999</ele>
        <time>2015-07-13T13:35:01Z</time>
      </trkpt>
      <trkpt lat="46.576699605211616" lon="12.292300974950194">
        <ele>2419.3000000000002</ele>
        <time>2015-07-13T13:35:12Z</time>
      </trkpt>
      <trkpt lat="46.57664461992681" lon="12.292236601933837">
        <ele>2418.3299999999999</ele>
        <time>2015-07-13T13:35:25Z</time>
      </trkpt>
      <trkpt lat="46.576623832806945" lon="12.292199973016977">
        <ele>2416.4099999999999</ele>
        <time>2015-07-13T13:35:38Z</time>
      </trkpt>
      <trkpt lat="46.576558537781239" lon="12.292255545035005">
        <ele>2414.0100000000002</ele>
        <time>2015-07-13T13:35:52Z</time>
      </trkpt>
      <trkpt lat="46.576512940227985" lon="12.292265519499779">
        <ele>2411.1199999999999</ele>
        <time>2015-07-13T13:36:04Z</time>
      </trkpt>
      <trkpt lat="46.576442951336503" lon="12.292349589988589">
        <ele>2408.7199999999998</ele>
        <time>2015-07-13T13:36:17Z</time>
      </trkpt>
      <trkpt lat="46.576395928859711" lon="12.292370209470391">
        <ele>2406.8000000000002</ele>
        <time>2015-07-13T13:36:27Z</time>
      </trkpt>
      <trkpt lat="46.576353935524821" lon="12.292326958850026">
        <ele>2405.8400000000001</ele>
        <time>2015-07-13T13:36:35Z</time>
      </trkpt>
      <trkpt lat="46.576333064585924" lon="12.292291335761547">
        <ele>2404.3899999999999</ele>
        <time>2015-07-13T13:36:46Z</time>
      </trkpt>
      <trkpt lat="46.576338512822986" lon="12.292250012978911">
        <ele>2404.8800000000001</ele>
        <time>2015-07-13T13:36:59Z</time>
      </trkpt>
      <trkpt lat="46.576205240562558" lon="12.292270716279745">
        <ele>2402.9499999999998</ele>
        <time>2015-07-13T13:37:11Z</time>
      </trkpt>
      <trkpt lat="46.576196942478418" lon="12.29228706099093">
        <ele>2402.4699999999998</ele>
        <time>2015-07-13T13:37:19Z</time>
      </trkpt>
      <trkpt lat="46.576180178672075" lon="12.292264765128493">
        <ele>2401.9899999999998</ele>
        <time>2015-07-13T13:37:31Z</time>
      </trkpt>
      <trkpt lat="46.576083451509476" lon="12.292261580005288">
        <ele>2401.9899999999998</ele>
        <time>2015-07-13T13:37:44Z</time>
      </trkpt>
      <trkpt lat="46.576073560863733" lon="12.292250348255038">
        <ele>2401.5100000000002</ele>
        <time>2015-07-13T13:37:47Z</time>
      </trkpt>
      <trkpt lat="46.575973061844707" lon="12.292260993272066">
        <ele>2402.4699999999998</ele>
        <time>2015-07-13T13:38:01Z</time>
      </trkpt>
      <trkpt lat="46.575939366593957" lon="12.292272392660379">
        <ele>2402.9499999999998</ele>
        <time>2015-07-13T13:38:04Z</time>
      </trkpt>
      <trkpt lat="46.575852278620005" lon="12.292260909453034">
        <ele>2406.3200000000002</ele>
        <time>2015-07-13T13:38:15Z</time>
      </trkpt>
      <trkpt lat="46.575804417952895" lon="12.29219963774085">
        <ele>2409.1999999999998</ele>
        <time>2015-07-13T13:38:28Z</time>
      </trkpt>
      <trkpt lat="46.575786815956235" lon="12.292164517566562">
        <ele>2411.1199999999999</ele>
        <time>2015-07-13T13:38:33Z</time>
      </trkpt>
      <trkpt lat="46.575722191482782" lon="12.292169881984591">
        <ele>2411.1199999999999</ele>
        <time>2015-07-13T13:38:45Z</time>
      </trkpt>
      <trkpt lat="46.575687993317842" lon="12.292193351313472">
        <ele>2412.0900000000001</ele>
        <time>2015-07-13T13:38:51Z</time>
      </trkpt>
      <trkpt lat="46.57563996501267" lon="12.292182287201285">
        <ele>2413.0500000000002</ele>
        <time>2015-07-13T13:39:03Z</time>
      </trkpt>
      <trkpt lat="46.57564390450716" lon="12.292134929448366">
        <ele>2413.5300000000002</ele>
        <time>2015-07-13T13:39:16Z</time>
      </trkpt>
      <trkpt lat="46.575610125437379" lon="12.292142724618316">
        <ele>2414.0100000000002</ele>
        <time>2015-07-13T13:39:31Z</time>
      </trkpt>
      <trkpt lat="46.575632337480783" lon="12.292117830365896">
        <ele>2414.0100000000002</ele>
        <time>2015-07-13T13:39:50Z</time>
      </trkpt>
      <trkpt lat="46.575639545917511" lon="12.292125793173909">
        <ele>2414.4899999999998</ele>
        <time>2015-07-13T13:40:04Z</time>
      </trkpt>
      <trkpt lat="46.575641892850399" lon="12.292150352150202">
        <ele>2414.4899999999998</ele>
        <time>2015-07-13T13:40:17Z</time>
      </trkpt>
      <trkpt lat="46.575664523988962" lon="12.292141718789935">
        <ele>2414.9699999999998</ele>
        <time>2015-07-13T13:40:40Z</time>
      </trkpt>
      <trkpt lat="46.575655052438378" lon="12.29214976541698">
        <ele>2414.9699999999998</ele>
        <time>2015-07-13T13:40:58Z</time>
      </trkpt>
      <trkpt lat="46.575580118224025" lon="12.292098049074411">
        <ele>2413.0500000000002</ele>
        <time>2015-07-13T13:41:10Z</time>
      </trkpt>
      <trkpt lat="46.575571149587631" lon="12.292077261954546">
        <ele>2412.5700000000002</ele>
        <time>2015-07-13T13:41:19Z</time>
      </trkpt>
      <trkpt lat="46.575548853725195" lon="12.29206326417625">
        <ele>2411.1199999999999</ele>
        <time>2015-07-13T13:41:32Z</time>
      </trkpt>
      <trkpt lat="46.575541393831372" lon="12.29205060750246">
        <ele>2412.5700000000002</ele>
        <time>2015-07-13T13:41:46Z</time>
      </trkpt>
      <trkpt lat="46.575536448508501" lon="12.292040297761559">
        <ele>2411.1199999999999</ele>
        <time>2015-07-13T13:41:58Z</time>
      </trkpt>
      <trkpt lat="46.575513565912843" lon="12.292040130123496">
        <ele>2409.1999999999998</ele>
        <time>2015-07-13T13:42:06Z</time>
      </trkpt>
      <trkpt lat="46.5754777751863" lon="12.292018001899123">
        <ele>2407.7600000000002</ele>
        <time>2015-07-13T13:42:15Z</time>
      </trkpt>
      <trkpt lat="46.575443325564265" lon="12.2919777687639">
        <ele>2405.8400000000001</ele>
        <time>2015-07-13T13:42:25Z</time>
      </trkpt>
      <trkpt lat="46.575402757152915" lon="12.291949186474085">
        <ele>2403.4299999999998</ele>
        <time>2015-07-13T13:42:35Z</time>
      </trkpt>
      <trkpt lat="46.575399404391646" lon="12.291942480951548">
        <ele>2402.9499999999998</ele>
        <time>2015-07-13T13:42:36Z</time>
      </trkpt>
      <trkpt lat="46.575399739667773" lon="12.29186050593853">
        <ele>2400.5500000000002</ele>
        <time>2015-07-13T13:42:46Z</time>
      </trkpt>
      <trkpt lat="46.575366882607341" lon="12.291844412684441">
        <ele>2400.0700000000002</ele>
        <time>2015-07-13T13:42:55Z</time>
      </trkpt>
      <trkpt lat="46.575326984748244" lon="12.291811471804976">
        <ele>2398.6300000000001</ele>
        <time>2015-07-13T13:43:00Z</time>
      </trkpt>
      <trkpt lat="46.575319357216358" lon="12.291799737140536">
        <ele>2398.1500000000001</ele>
        <time>2015-07-13T13:43:01Z</time>
      </trkpt>
      <trkpt lat="46.57523394562304" lon="12.29177157394588">
        <ele>2397.1799999999998</ele>
        <time>2015-07-13T13:43:12Z</time>
      </trkpt>
      <trkpt lat="46.575188431888819" lon="12.291782470420003">
        <ele>2394.7800000000002</ele>
        <time>2015-07-13T13:43:22Z</time>
      </trkpt>
      <trkpt lat="46.575220953673124" lon="12.291798060759902">
        <ele>2394.7800000000002</ele>
        <time>2015-07-13T13:43:31Z</time>
      </trkpt>
      <trkpt lat="46.575213745236397" lon="12.291804514825344">
        <ele>2394.7800000000002</ele>
        <time>2015-07-13T13:43:53Z</time>
      </trkpt>
      <trkpt lat="46.575150294229388" lon="12.291853129863739">
        <ele>2392.8600000000001</ele>
        <time>2015-07-13T13:44:02Z</time>
      </trkpt>
      <trkpt lat="46.575083322823048" lon="12.291845753788948">
        <ele>2389.9699999999998</ele>
        <time>2015-07-13T13:44:13Z</time>
      </trkpt>
      <trkpt lat="46.57507804222405" lon="12.291859248653054">
        <ele>2390.46</ele>
        <time>2015-07-13T13:44:14Z</time>
      </trkpt>
      <trkpt lat="46.575027834624052" lon="12.291894368827343">
        <ele>2388.5300000000002</ele>
        <time>2015-07-13T13:44:22Z</time>
      </trkpt>
      <trkpt lat="46.574993301182985" lon="12.291829409077764">
        <ele>2386.6100000000001</ele>
        <time>2015-07-13T13:44:32Z</time>
      </trkpt>
      <trkpt lat="46.574962204322219" lon="12.291828403249383">
        <ele>2384.6900000000001</ele>
        <time>2015-07-13T13:44:42Z</time>
      </trkpt>
      <trkpt lat="46.574956336989999" lon="12.291696388274431">
        <ele>2383.73</ele>
        <time>2015-07-13T13:44:46Z</time>
      </trkpt>
      <trkpt lat="46.574873775243759" lon="12.291671996936202">
        <ele>2380.8400000000001</ele>
        <time>2015-07-13T13:44:56Z</time>
      </trkpt>
      <trkpt lat="46.574783334508538" lon="12.291484409943223">
        <ele>2378.4400000000001</ele>
        <time>2015-07-13T13:45:05Z</time>
      </trkpt>
      <trkpt lat="46.574723739176989" lon="12.291444763541222">
        <ele>2377</ele>
        <time>2015-07-13T13:45:10Z</time>
      </trkpt>
      <trkpt lat="46.574676632881165" lon="12.291460270062089">
        <ele>2376.04</ele>
        <time>2015-07-13T13:45:14Z</time>
      </trkpt>
      <trkpt lat="46.57465978525579" lon="12.291432861238718">
        <ele>2373.1500000000001</ele>
        <time>2015-07-13T13:45:25Z</time>
      </trkpt>
      <trkpt lat="46.574674202129245" lon="12.291420288383961">
        <ele>2372.1900000000001</ele>
        <time>2015-07-13T13:45:28Z</time>
      </trkpt>
      <trkpt lat="46.57466079108417" lon="12.29142808355391">
        <ele>2371.71</ele>
        <time>2015-07-13T13:45:30Z</time>
      </trkpt>
      <trkpt lat="46.574637573212385" lon="12.291410397738218">
        <ele>2370.27</ele>
        <time>2015-07-13T13:45:33Z</time>
      </trkpt>
      <trkpt lat="46.57466079108417" lon="12.291368320584297">
        <ele>2369.79</ele>
        <time>2015-07-13T13:45:37Z</time>
      </trkpt>
      <trkpt lat="46.574677806347609" lon="12.291363375261426">
        <ele>2370.27</ele>
        <time>2015-07-13T13:45:48Z</time>
      </trkpt>
      <trkpt lat="46.574717536568642" lon="12.291332865133882">
        <ele>2370.27</ele>
        <time>2015-07-13T13:46:01Z</time>
      </trkpt>
      <trkpt lat="46.574744526296854" lon="12.291332948952913">
        <ele>2370.75</ele>
        <time>2015-07-13T13:46:06Z</time>
      </trkpt>
      <trkpt lat="46.574807893484831" lon="12.291324902325869">
        <ele>2369.3099999999999</ele>
        <time>2015-07-13T13:46:18Z</time>
      </trkpt>
      <trkpt lat="46.574896322563291" lon="12.291189953684807">
        <ele>2366.9000000000001</ele>
        <time>2015-07-13T13:46:31Z</time>
      </trkpt>
      <trkpt lat="46.574904872104526" lon="12.291067494079471">
        <ele>2364.98</ele>
        <time>2015-07-13T13:46:45Z</time>
      </trkpt>
      <trkpt lat="46.574878972023726" lon="12.29100001975894">
        <ele>2362.0999999999999</ele>
        <time>2015-07-13T13:46:56Z</time>
      </trkpt>
      <trkpt lat="46.574827171862125" lon="12.290972527116537">
        <ele>2359.6900000000001</ele>
        <time>2015-07-13T13:47:03Z</time>
      </trkpt>
      <trkpt lat="46.574796410277486" lon="12.29084805585444">
        <ele>2357.29</ele>
        <time>2015-07-13T13:47:15Z</time>
      </trkpt>
      <trkpt lat="46.574764391407371" lon="12.290873201563954">
        <ele>2356.3299999999999</ele>
        <time>2015-07-13T13:47:21Z</time>
      </trkpt>
      <trkpt lat="46.574722230434418" lon="12.290952410548925">
        <ele>2353.9299999999998</ele>
        <time>2015-07-13T13:47:28Z</time>
      </trkpt>
      <trkpt lat="46.574713094159961" lon="12.290999433025718">
        <ele>2352.96</ele>
        <time>2015-07-13T13:47:31Z</time>
      </trkpt>
      <trkpt lat="46.574697168543935" lon="12.290979819372296">
        <ele>2351.52</ele>
        <time>2015-07-13T13:47:35Z</time>
      </trkpt>
      <trkpt lat="46.574649475514889" lon="12.290813438594341">
        <ele>2348.1599999999999</ele>
        <time>2015-07-13T13:47:48Z</time>
      </trkpt>
      <trkpt lat="46.574613600969315" lon="12.290706820785999">
        <ele>2344.79</ele>
        <time>2015-07-13T13:48:01Z</time>
      </trkpt>
      <trkpt lat="46.574568171054125" lon="12.29079332202673">
        <ele>2342.8699999999999</ele>
        <time>2015-07-13T13:48:10Z</time>
      </trkpt>
      <trkpt lat="46.574540426954627" lon="12.290751580148935">
        <ele>2340.4699999999998</ele>
        <time>2015-07-13T13:48:21Z</time>
      </trkpt>
      <trkpt lat="46.574500864371657" lon="12.290666252374649">
        <ele>2337.0999999999999</ele>
        <time>2015-07-13T13:48:31Z</time>
      </trkpt>
      <trkpt lat="46.574454177170992" lon="12.290622917935252">
        <ele>2334.2199999999998</ele>
        <time>2015-07-13T13:48:41Z</time>
      </trkpt>
      <trkpt lat="46.574433306232095" lon="12.290631802752614">
        <ele>2332.3000000000002</ele>
        <time>2015-07-13T13:48:51Z</time>
      </trkpt>
      <trkpt lat="46.574417799711227" lon="12.290580254048109">
        <ele>2330.8499999999999</ele>
        <time>2015-07-13T13:48:58Z</time>
      </trkpt>
      <trkpt lat="46.574417296797037" lon="12.290585953742266">
        <ele>2329.8899999999999</ele>
        <time>2015-07-13T13:49:10Z</time>
      </trkpt>
      <trkpt lat="46.574354851618409" lon="12.290575057268143">
        <ele>2328.4499999999998</ele>
        <time>2015-07-13T13:49:20Z</time>
      </trkpt>
      <trkpt lat="46.574357533827424" lon="12.290528789162636">
        <ele>2327.0100000000002</ele>
        <time>2015-07-13T13:49:27Z</time>
      </trkpt>
      <trkpt lat="46.574333058670163" lon="12.290469529107213">
        <ele>2325.0900000000001</ele>
        <time>2015-07-13T13:49:36Z</time>
      </trkpt>
      <trkpt lat="46.574283940717578" lon="12.290440108627081">
        <ele>2323.6399999999999</ele>
        <time>2015-07-13T13:49:45Z</time>
      </trkpt>
      <trkpt lat="46.574273463338614" lon="12.290415884926915">
        <ele>2324.1199999999999</ele>
        <time>2015-07-13T13:49:47Z</time>
      </trkpt>
      <trkpt lat="46.574264159426093" lon="12.290359893813729">
        <ele>2323.6399999999999</ele>
        <time>2015-07-13T13:49:52Z</time>
      </trkpt>
      <trkpt lat="46.574261728674173" lon="12.290348159149289">
        <ele>2323.6399999999999</ele>
        <time>2015-07-13T13:50:03Z</time>
      </trkpt>
      <trkpt lat="46.574209844693542" lon="12.290349332615733">
        <ele>2323.1599999999999</ele>
        <time>2015-07-13T13:50:17Z</time>
      </trkpt>
      <trkpt lat="46.574177574366331" lon="12.29031840339303">
        <ele>2322.6799999999998</ele>
        <time>2015-07-13T13:50:30Z</time>
      </trkpt>
      <trkpt lat="46.574174892157316" lon="12.290347320958972">
        <ele>2323.1599999999999</ele>
        <time>2015-07-13T13:50:46Z</time>
      </trkpt>
      <trkpt lat="46.57415016554296" lon="12.290351260453463">
        <ele>2323.1599999999999</ele>
        <time>2015-07-13T13:50:48Z</time>
      </trkpt>
      <trkpt lat="46.574063580483198" lon="12.2903545293957">
        <ele>2322.6799999999998</ele>
        <time>2015-07-13T13:50:55Z</time>
      </trkpt>
      <trkpt lat="46.574019324034452" lon="12.290315888822079">
        <ele>2322.1999999999998</ele>
        <time>2015-07-13T13:50:59Z</time>
      </trkpt>
      <trkpt lat="46.573903067037463" lon="12.290244726464152">
        <ele>2321.7199999999998</ele>
        <time>2015-07-13T13:51:12Z</time>
      </trkpt>
      <trkpt lat="46.573899127542973" lon="12.290242128074169">
        <ele>2321.7199999999998</ele>
        <time>2015-07-13T13:51:13Z</time>
      </trkpt>
      <trkpt lat="46.573883285745978" lon="12.290223268792033">
        <ele>2323.6399999999999</ele>
        <time>2015-07-13T13:51:15Z</time>
      </trkpt>
      <trkpt lat="46.573858391493559" lon="12.290208851918578">
        <ele>2323.6399999999999</ele>
        <time>2015-07-13T13:51:18Z</time>
      </trkpt>
      <trkpt lat="46.573760490864515" lon="12.290146574378014">
        <ele>2325.0900000000001</ele>
        <time>2015-07-13T13:51:30Z</time>
      </trkpt>
      <trkpt lat="46.573672732338309" lon="12.290082201361656">
        <ele>2325.5700000000002</ele>
        <time>2015-07-13T13:51:42Z</time>
      </trkpt>
      <trkpt lat="46.573596121743321" lon="12.29002227075398">
        <ele>2327.0100000000002</ele>
        <time>2015-07-13T13:51:53Z</time>
      </trkpt>
      <trkpt lat="46.573524875566363" lon="12.289978852495551">
        <ele>2328.4499999999998</ele>
        <time>2015-07-13T13:52:04Z</time>
      </trkpt>
      <trkpt lat="46.57347341068089" lon="12.28994607925415">
        <ele>2329.4099999999999</ele>
        <time>2015-07-13T13:52:13Z</time>
      </trkpt>
      <trkpt lat="46.5734470076859" lon="12.289951192215085">
        <ele>2329.8899999999999</ele>
        <time>2015-07-13T13:52:22Z</time>
      </trkpt>
      <trkpt lat="46.573470560833812" lon="12.289938535541296">
        <ele>2330.3699999999999</ele>
        <time>2015-07-13T13:52:35Z</time>
      </trkpt>
      <trkpt lat="46.573488833382726" lon="12.289917413145304">
        <ele>2329.8899999999999</ele>
        <time>2015-07-13T13:52:53Z</time>
      </trkpt>
      <trkpt lat="46.573430998250842" lon="12.289859494194388">
        <ele>2330.3699999999999</ele>
        <time>2015-07-13T13:53:04Z</time>
      </trkpt>
      <trkpt lat="46.573309795930982" lon="12.289757654070854">
        <ele>2331.8099999999999</ele>
        <time>2015-07-13T13:53:18Z</time>
      </trkpt>
      <trkpt lat="46.5732242166996" lon="12.289764359593391">
        <ele>2332.7800000000002</ele>
        <time>2015-07-13T13:53:29Z</time>
      </trkpt>
      <trkpt lat="46.573176188394427" lon="12.289757989346981">
        <ele>2334.2199999999998</ele>
        <time>2015-07-13T13:53:38Z</time>
      </trkpt>
      <trkpt lat="46.573107121512294" lon="12.289821691811085">
        <ele>2335.6599999999999</ele>
        <time>2015-07-13T13:53:51Z</time>
      </trkpt>
      <trkpt lat="46.573037216439843" lon="12.289813980460167">
        <ele>2337.0999999999999</ele>
        <time>2015-07-13T13:54:01Z</time>
      </trkpt>
      <trkpt lat="46.573003102093935" lon="12.289763353765011">
        <ele>2338.0599999999999</ele>
        <time>2015-07-13T13:54:10Z</time>
      </trkpt>
      <trkpt lat="46.572979213669896" lon="12.289685485884547">
        <ele>2339.9899999999998</ele>
        <time>2015-07-13T13:54:21Z</time>
      </trkpt>
      <trkpt lat="46.572948032990098" lon="12.289613820612431">
        <ele>2341.9099999999999</ele>
        <time>2015-07-13T13:54:32Z</time>
      </trkpt>
      <trkpt lat="46.572915762662888" lon="12.289532348513603">
        <ele>2343.3499999999999</ele>
        <time>2015-07-13T13:54:44Z</time>
      </trkpt>
      <trkpt lat="46.572895143181086" lon="12.28946428745985">
        <ele>2344.79</ele>
        <time>2015-07-13T13:54:55Z</time>
      </trkpt>
      <trkpt lat="46.572853066027164" lon="12.289388850331306">
        <ele>2346.7199999999998</ele>
        <time>2015-07-13T13:55:09Z</time>
      </trkpt>
      <trkpt lat="46.572803109884262" lon="12.289308132603765">
        <ele>2346.23</ele>
        <time>2015-07-13T13:55:19Z</time>
      </trkpt>
      <trkpt lat="46.572761619463563" lon="12.289231857284904">
        <ele>2347.1999999999998</ele>
        <time>2015-07-13T13:55:29Z</time>
      </trkpt>
      <trkpt lat="46.572706885635853" lon="12.289136722683907">
        <ele>2347.6799999999998</ele>
        <time>2015-07-13T13:55:41Z</time>
      </trkpt>
      <trkpt lat="46.572726834565401" lon="12.289118450134993">
        <ele>2347.6799999999998</ele>
        <time>2015-07-13T13:55:51Z</time>
      </trkpt>
      <trkpt lat="46.572681656107306" lon="12.289084754884243">
        <ele>2347.6799999999998</ele>
        <time>2015-07-13T13:56:02Z</time>
      </trkpt>
      <trkpt lat="46.572625245898962" lon="12.289046784862876">
        <ele>2345.75</ele>
        <time>2015-07-13T13:56:11Z</time>
      </trkpt>
      <trkpt lat="46.572602530941367" lon="12.289014430716634">
        <ele>2344.3099999999999</ele>
        <time>2015-07-13T13:56:15Z</time>
      </trkpt>
      <trkpt lat="46.572563387453556" lon="12.288923570886254">
        <ele>2343.3499999999999</ele>
        <time>2015-07-13T13:56:22Z</time>
      </trkpt>
      <trkpt lat="46.572525417432189" lon="12.288822904229164">
        <ele>2341.4299999999998</ele>
        <time>2015-07-13T13:56:32Z</time>
      </trkpt>
      <trkpt lat="46.572488872334361" lon="12.288796668872237">
        <ele>2339.5100000000002</ele>
        <time>2015-07-13T13:56:43Z</time>
      </trkpt>
      <trkpt lat="46.572489878162742" lon="12.2888124268502">
        <ele>2339.02</ele>
        <time>2015-07-13T13:56:44Z</time>
      </trkpt>
      <trkpt lat="46.572472779080272" lon="12.28894142434001">
        <ele>2336.6199999999999</ele>
        <time>2015-07-13T13:56:54Z</time>
      </trkpt>
      <trkpt lat="46.572462469339371" lon="12.289042258635163">
        <ele>2334.6999999999998</ele>
        <time>2015-07-13T13:57:05Z</time>
      </trkpt>
      <trkpt lat="46.572456602007151" lon="12.289040666073561">
        <ele>2334.6999999999998</ele>
        <time>2015-07-13T13:57:06Z</time>
      </trkpt>
      <trkpt lat="46.572422739118338" lon="12.288909405469894">
        <ele>2332.3000000000002</ele>
        <time>2015-07-13T13:57:16Z</time>
      </trkpt>
      <trkpt lat="46.572382673621178" lon="12.288816031068563">
        <ele>2329.4099999999999</ele>
        <time>2015-07-13T13:57:28Z</time>
      </trkpt>
      <trkpt lat="46.572329867631197" lon="12.288728943094611">
        <ele>2326.5300000000002</ele>
        <time>2015-07-13T13:57:40Z</time>
      </trkpt>
      <trkpt lat="46.572330119088292" lon="12.288675215095282">
        <ele>2325.0900000000001</ele>
        <time>2015-07-13T13:57:51Z</time>
      </trkpt>
      <trkpt lat="46.572345457971096" lon="12.288607908412814">
        <ele>2324.1199999999999</ele>
        <time>2015-07-13T13:57:55Z</time>
      </trkpt>
      <trkpt lat="46.572342189028859" lon="12.288485364988446">
        <ele>2325.0900000000001</ele>
        <time>2015-07-13T13:58:05Z</time>
      </trkpt>
      <trkpt lat="46.572337495163083" lon="12.28834480047226">
        <ele>2325.5700000000002</ele>
        <time>2015-07-13T13:58:16Z</time>
      </trkpt>
      <trkpt lat="46.572317546233535" lon="12.288256958127022">
        <ele>2326.0500000000002</ele>
        <time>2015-07-13T13:58:24Z</time>
      </trkpt>
      <trkpt lat="46.572303464636207" lon="12.288162661716342">
        <ele>2326.5300000000002</ele>
        <time>2015-07-13T13:58:32Z</time>
      </trkpt>
      <trkpt lat="46.572305141016841" lon="12.288107927888632">
        <ele>2326.5300000000002</ele>
        <time>2015-07-13T13:58:36Z</time>
      </trkpt>
      <trkpt lat="46.572285275906324" lon="12.287993850186467">
        <ele>2327.4899999999998</ele>
        <time>2015-07-13T13:58:46Z</time>
      </trkpt>
      <trkpt lat="46.572238588705659" lon="12.287876671180129">
        <ele>2328.4499999999998</ele>
        <time>2015-07-13T13:58:58Z</time>
      </trkpt>
      <trkpt lat="46.572192404419184" lon="12.287761587649584">
        <ele>2330.3699999999999</ele>
        <time>2015-07-13T13:59:10Z</time>
      </trkpt>
      <trkpt lat="46.572156697511673" lon="12.287634517997503">
        <ele>2332.3000000000002</ele>
        <time>2015-07-13T13:59:23Z</time>
      </trkpt>
      <trkpt lat="46.572153847664595" lon="12.287485990673304">
        <ele>2334.2199999999998</ele>
        <time>2015-07-13T13:59:37Z</time>
      </trkpt>
      <trkpt lat="46.572113195434213" lon="12.287368644028902">
        <ele>2334.2199999999998</ele>
        <time>2015-07-13T13:59:51Z</time>
      </trkpt>
      <trkpt lat="46.572074135765433" lon="12.287225062027574">
        <ele>2334.6999999999998</ele>
        <time>2015-07-13T14:00:03Z</time>
      </trkpt>
      <trkpt lat="46.572036165744066" lon="12.287076702341437">
        <ele>2335.6599999999999</ele>
        <time>2015-07-13T14:00:16Z</time>
      </trkpt>
      <trkpt lat="46.572035076096654" lon="12.287048036232591">
        <ele>2335.6599999999999</ele>
        <time>2015-07-13T14:00:18Z</time>
      </trkpt>
      <trkpt lat="46.572033651173115" lon="12.286887103691697">
        <ele>2336.1399999999999</ele>
        <time>2015-07-13T14:00:30Z</time>
      </trkpt>
      <trkpt lat="46.572020575404167" lon="12.286784593015909">
        <ele>2336.1399999999999</ele>
        <time>2015-07-13T14:00:41Z</time>
      </trkpt>
      <trkpt lat="46.572042619809508" lon="12.286669844761491">
        <ele>2337.0999999999999</ele>
        <time>2015-07-13T14:00:50Z</time>
      </trkpt>
      <trkpt lat="46.572060976177454" lon="12.286536656320095">
        <ele>2338.0599999999999</ele>
        <time>2015-07-13T14:01:01Z</time>
      </trkpt>
      <trkpt lat="46.572064580395818" lon="12.286444287747145">
        <ele>2337.5799999999999</ele>
        <time>2015-07-13T14:01:12Z</time>
      </trkpt>
      <trkpt lat="46.57200314104557" lon="12.286430541425943">
        <ele>2335.1799999999998</ele>
        <time>2015-07-13T14:01:23Z</time>
      </trkpt>
      <trkpt lat="46.571965422481298" lon="12.286356696859002">
        <ele>2332.3000000000002</ele>
        <time>2015-07-13T14:01:32Z</time>
      </trkpt>
      <trkpt lat="46.571956370025873" lon="12.286277823150158">
        <ele>2330.3699999999999</ele>
        <time>2015-07-13T14:01:43Z</time>
      </trkpt>
      <trkpt lat="46.571921585127711" lon="12.286195177584887">
        <ele>2327.4899999999998</ele>
        <time>2015-07-13T14:01:52Z</time>
      </trkpt>
      <trkpt lat="46.571931391954422" lon="12.286134241148829">
        <ele>2326.5300000000002</ele>
        <time>2015-07-13T14:02:05Z</time>
      </trkpt>
      <trkpt lat="46.571897361427546" lon="12.28611814789474">
        <ele>2325.0900000000001</ele>
        <time>2015-07-13T14:02:16Z</time>
      </trkpt>
      <trkpt lat="46.571893589571118" lon="12.286045392975211">
        <ele>2322.6799999999998</ele>
        <time>2015-07-13T14:02:26Z</time>
      </trkpt>
      <trkpt lat="46.57187657430768" lon="12.28603164665401">
        <ele>2322.1999999999998</ele>
        <time>2015-07-13T14:02:29Z</time>
      </trkpt>
      <trkpt lat="46.571845058351755" lon="12.286010608077049">
        <ele>2321.2399999999998</ele>
        <time>2015-07-13T14:02:32Z</time>
      </trkpt>
      <trkpt lat="46.571810357272625" lon="12.285963501781225">
        <ele>2318.8400000000001</ele>
        <time>2015-07-13T14:02:41Z</time>
      </trkpt>
      <trkpt lat="46.571770710870624" lon="12.285887477919459">
        <ele>2318.3600000000001</ele>
        <time>2015-07-13T14:02:51Z</time>
      </trkpt>
      <trkpt lat="46.571767525747418" lon="12.285881023854017">
        <ele>2317.8800000000001</ele>
        <time>2015-07-13T14:02:53Z</time>
      </trkpt>
      <trkpt lat="46.571680353954434" lon="12.285806173458695">
        <ele>2316.9099999999999</ele>
        <time>2015-07-13T14:03:03Z</time>
      </trkpt>
      <trkpt lat="46.571567952632904" lon="12.28572185151279">
        <ele>2315.9499999999998</ele>
        <time>2015-07-13T14:03:14Z</time>
      </trkpt>
      <trkpt lat="46.571507938206196" lon="12.285666614770889">
        <ele>2315.4699999999998</ele>
        <time>2015-07-13T14:03:25Z</time>
      </trkpt>
      <trkpt lat="46.57152428291738" lon="12.285646749660373">
        <ele>2314.9899999999998</ele>
        <time>2015-07-13T14:03:37Z</time>
      </trkpt>
      <trkpt lat="46.571506932377815" lon="12.285650605335832">
        <ele>2314.9899999999998</ele>
        <time>2015-07-13T14:03:59Z</time>
      </trkpt>
      <trkpt lat="46.571538532152772" lon="12.285663513466716">
        <ele>2314.9899999999998</ele>
        <time>2015-07-13T14:04:19Z</time>
      </trkpt>
      <trkpt lat="46.57153794541955" lon="12.285667704418302">
        <ele>2314.9899999999998</ele>
        <time>2015-07-13T14:04:34Z</time>
      </trkpt>
      <trkpt lat="46.571540459990501" lon="12.285683713853359">
        <ele>2314.5100000000002</ele>
        <time>2015-07-13T14:04:57Z</time>
      </trkpt>
      <trkpt lat="46.571528138592839" lon="12.285736603662372">
        <ele>2314.5100000000002</ele>
        <time>2015-07-13T14:05:15Z</time>
      </trkpt>
      <trkpt lat="46.571537610143423" lon="12.285688491538167">
        <ele>2314.5100000000002</ele>
        <time>2015-07-13T14:05:37Z</time>
      </trkpt>
      <trkpt lat="46.571509866043925" lon="12.28568279184401">
        <ele>2314.5100000000002</ele>
        <time>2015-07-13T14:05:56Z</time>
      </trkpt>
      <trkpt lat="46.571513805538416" lon="12.285635182633996">
        <ele>2314.5100000000002</ele>
        <time>2015-07-13T14:06:15Z</time>
      </trkpt>
      <trkpt lat="46.571528725326061" lon="12.285652197897434">
        <ele>2314.5100000000002</ele>
        <time>2015-07-13T14:06:35Z</time>
      </trkpt>
      <trkpt lat="46.571503663435578" lon="12.285683881491423">
        <ele>2314.9899999999998</ele>
        <time>2015-07-13T14:06:43Z</time>
      </trkpt>
      <trkpt lat="46.571485558524728" lon="12.285683127120137">
        <ele>2314.9899999999998</ele>
        <time>2015-07-13T14:06:52Z</time>
      </trkpt>
      <trkpt lat="46.571491342037916" lon="12.285673152655363">
        <ele>2314.9899999999998</ele>
        <time>2015-07-13T14:07:06Z</time>
      </trkpt>
      <trkpt lat="46.571499472483993" lon="12.285652197897434">
        <ele>2315.4699999999998</ele>
        <time>2015-07-13T14:07:16Z</time>
      </trkpt>
      <trkpt lat="46.571451695635915" lon="12.285714391618967">
        <ele>2314.0300000000002</ele>
        <time>2015-07-13T14:07:28Z</time>
      </trkpt>
      <trkpt lat="46.571409618481994" lon="12.285769795998931">
        <ele>2312.1100000000001</ele>
        <time>2015-07-13T14:07:38Z</time>
      </trkpt>
      <trkpt lat="46.571321440860629" lon="12.285693939775229">
        <ele>2310.6700000000001</ele>
        <time>2015-07-13T14:07:49Z</time>
      </trkpt>
      <trkpt lat="46.571306437253952" lon="12.285697879269719">
        <ele>2310.1900000000001</ele>
        <time>2015-07-13T14:07:51Z</time>
      </trkpt>
      <trkpt lat="46.571185486391187" lon="12.285684049129486">
        <ele>2311.1500000000001</ele>
        <time>2015-07-13T14:08:03Z</time>
      </trkpt>
      <trkpt lat="46.571137374266982" lon="12.285686312243342">
        <ele>2310.6700000000001</ele>
        <time>2015-07-13T14:08:08Z</time>
      </trkpt>
      <trkpt lat="46.571092279627919" lon="12.285748003050685">
        <ele>2311.6300000000001</ele>
        <time>2015-07-13T14:08:19Z</time>
      </trkpt>
      <trkpt lat="46.571093369275331" lon="12.285766527056694">
        <ele>2311.6300000000001</ele>
        <time>2015-07-13T14:08:23Z</time>
      </trkpt>
      <trkpt lat="46.57108792103827" lon="12.285821428522468">
        <ele>2310.6700000000001</ele>
        <time>2015-07-13T14:08:30Z</time>
      </trkpt>
      <trkpt lat="46.571043916046619" lon="12.285866606980562">
        <ele>2311.1500000000001</ele>
        <time>2015-07-13T14:08:39Z</time>
      </trkpt>
      <trkpt lat="46.571021201089025" lon="12.285903906449676">
        <ele>2310.6700000000001</ele>
        <time>2015-07-13T14:08:51Z</time>
      </trkpt>
      <trkpt lat="46.571014914661646" lon="12.285897117108107">
        <ele>2310.1900000000001</ele>
        <time>2015-07-13T14:09:01Z</time>
      </trkpt>
      <trkpt lat="46.571013322100043" lon="12.285859230905771">
        <ele>2310.6700000000001</ele>
        <time>2015-07-13T14:09:13Z</time>
      </trkpt>
      <trkpt lat="46.5710224583745" lon="12.285840539261699">
        <ele>2310.6700000000001</ele>
        <time>2015-07-13T14:09:28Z</time>
      </trkpt>
      <trkpt lat="46.571038635447621" lon="12.285854620859027">
        <ele>2310.6700000000001</ele>
        <time>2015-07-13T14:09:49Z</time>
      </trkpt>
      <trkpt lat="46.571040563285351" lon="12.285835593938828">
        <ele>2310.6700000000001</ele>
        <time>2015-07-13T14:10:13Z</time>
      </trkpt>
      <trkpt lat="46.571043161675334" lon="12.285844227299094">
        <ele>2310.6700000000001</ele>
        <time>2015-07-13T14:10:24Z</time>
      </trkpt>
      <trkpt lat="46.571061685681343" lon="12.285871217027307">
        <ele>2310.6700000000001</ele>
        <time>2015-07-13T14:10:38Z</time>
      </trkpt>
      <trkpt lat="46.571052297949791" lon="12.285882448777556">
        <ele>2311.1500000000001</ele>
        <time>2015-07-13T14:10:49Z</time>
      </trkpt>
      <trkpt lat="46.571048609912395" lon="12.28587775491178">
        <ele>2310.6700000000001</ele>
        <time>2015-07-13T14:10:51Z</time>
      </trkpt>
      <trkpt lat="46.571039725095034" lon="12.285841461271048">
        <ele>2310.6700000000001</ele>
        <time>2015-07-13T14:11:02Z</time>
      </trkpt>
      <trkpt lat="46.571051375940442" lon="12.285852441564202">
        <ele>2311.1500000000001</ele>
        <time>2015-07-13T14:11:19Z</time>
      </trkpt>
      <trkpt lat="46.571053471416235" lon="12.285848837345839">
        <ele>2310.6700000000001</ele>
        <time>2015-07-13T14:11:41Z</time>
      </trkpt>
      <trkpt lat="46.571033271029592" lon="12.285843724384904">
        <ele>2310.6700000000001</ele>
        <time>2015-07-13T14:11:54Z</time>
      </trkpt>
      <trkpt lat="46.571017345413566" lon="12.285838359966874">
        <ele>2310.6700000000001</ele>
        <time>2015-07-13T14:12:08Z</time>
      </trkpt>
      <trkpt lat="46.571001671254635" lon="12.285945480689406">
        <ele>2310.1900000000001</ele>
        <time>2015-07-13T14:12:17Z</time>
      </trkpt>
      <trkpt lat="46.571013825014234" lon="12.285984875634313">
        <ele>2310.1900000000001</ele>
        <time>2015-07-13T14:12:23Z</time>
      </trkpt>
      <trkpt lat="46.570968395099044" lon="12.286052098497748">
        <ele>2309.6999999999998</ele>
        <time>2015-07-13T14:12:33Z</time>
      </trkpt>
      <trkpt lat="46.570952301844954" lon="12.286075316369534">
        <ele>2309.2199999999998</ele>
        <time>2015-07-13T14:12:37Z</time>
      </trkpt>
      <trkpt lat="46.570900585502386" lon="12.286146646365523">
        <ele>2309.2199999999998</ele>
        <time>2015-07-13T14:12:48Z</time>
      </trkpt>
      <trkpt lat="46.570865213871002" lon="12.286149244755507">
        <ele>2308.2600000000002</ele>
        <time>2015-07-13T14:12:56Z</time>
      </trkpt>
      <trkpt lat="46.570808468386531" lon="12.286145556718111">
        <ele>2307.7800000000002</ele>
        <time>2015-07-13T14:13:05Z</time>
      </trkpt>
      <trkpt lat="46.570782568305731" lon="12.286045057699084">
        <ele>2309.2199999999998</ele>
        <time>2015-07-13T14:13:15Z</time>
      </trkpt>
      <trkpt lat="46.570734372362494" lon="12.286011362448335">
        <ele>2310.1900000000001</ele>
        <time>2015-07-13T14:13:23Z</time>
      </trkpt>
      <trkpt lat="46.57071802765131" lon="12.285999963060021">
        <ele>2309.6999999999998</ele>
        <time>2015-07-13T14:13:25Z</time>
      </trkpt>
      <trkpt lat="46.570652313530445" lon="12.28597397916019">
        <ele>2308.2600000000002</ele>
        <time>2015-07-13T14:13:32Z</time>
      </trkpt>
      <trkpt lat="46.570606296882033" lon="12.285893093794584">
        <ele>2309.6999999999998</ele>
        <time>2015-07-13T14:13:42Z</time>
      </trkpt>
      <trkpt lat="46.570571763440967" lon="12.285849256440997">
        <ele>2311.1500000000001</ele>
        <time>2015-07-13T14:13:50Z</time>
      </trkpt>
      <trkpt lat="46.57051376067102" lon="12.285893764346838">
        <ele>2310.6700000000001</ele>
        <time>2015-07-13T14:14:00Z</time>
      </trkpt>
      <trkpt lat="46.570500349625945" lon="12.285967441275716">
        <ele>2307.7800000000002</ele>
        <time>2015-07-13T14:14:10Z</time>
      </trkpt>
      <trkpt lat="46.570471515879035" lon="12.28605511598289">
        <ele>2307.7800000000002</ele>
        <time>2015-07-13T14:14:20Z</time>
      </trkpt>
      <trkpt lat="46.570435222238302" lon="12.286115549504757">
        <ele>2307.3000000000002</ele>
        <time>2015-07-13T14:14:28Z</time>
      </trkpt>
      <trkpt lat="46.570381913334131" lon="12.286110688000917">
        <ele>2307.7800000000002</ele>
        <time>2015-07-13T14:14:37Z</time>
      </trkpt>
      <trkpt lat="46.57036229968071" lon="12.286140359938145">
        <ele>2306.8200000000002</ele>
        <time>2015-07-13T14:14:43Z</time>
      </trkpt>
      <trkpt lat="46.570304883643985" lon="12.286202469840646">
        <ele>2306.8200000000002</ele>
        <time>2015-07-13T14:14:53Z</time>
      </trkpt>
      <trkpt lat="46.57025140710175" lon="12.286245552822948">
        <ele>2305.3800000000001</ele>
        <time>2015-07-13T14:15:01Z</time>
      </trkpt>
      <trkpt lat="46.570237157866359" lon="12.286256868392229">
        <ele>2305.3800000000001</ele>
        <time>2015-07-13T14:15:03Z</time>
      </trkpt>
      <trkpt lat="46.570204049348831" lon="12.286250414326787">
        <ele>2306.3400000000001</ele>
        <time>2015-07-13T14:15:12Z</time>
      </trkpt>
      <trkpt lat="46.570166582241654" lon="12.286283522844315">
        <ele>2306.3400000000001</ele>
        <time>2015-07-13T14:15:25Z</time>
      </trkpt>
      <trkpt lat="46.570131378248334" lon="12.286324091255665">
        <ele>2306.3400000000001</ele>
        <time>2015-07-13T14:15:29Z</time>
      </trkpt>
      <trkpt lat="46.570067843422294" lon="12.286452418193221">
        <ele>2306.3400000000001</ele>
        <time>2015-07-13T14:15:42Z</time>
      </trkpt>
      <trkpt lat="46.57006180845201" lon="12.286457028239965">
        <ele>2306.3400000000001</ele>
        <time>2015-07-13T14:15:43Z</time>
      </trkpt>
      <trkpt lat="46.570031717419624" lon="12.286494160071015">
        <ele>2306.3400000000001</ele>
        <time>2015-07-13T14:15:48Z</time>
      </trkpt>
      <trkpt lat="46.569949071854353" lon="12.286529196426272">
        <ele>2305.8600000000001</ele>
        <time>2015-07-13T14:15:57Z</time>
      </trkpt>
      <trkpt lat="46.569900875911117" lon="12.286531291902065">
        <ele>2305.8600000000001</ele>
        <time>2015-07-13T14:16:02Z</time>
      </trkpt>
      <trkpt lat="46.569790821522474" lon="12.286609662696719">
        <ele>2306.3400000000001</ele>
        <time>2015-07-13T14:16:14Z</time>
      </trkpt>
      <trkpt lat="46.569775147363544" lon="12.286606309935451">
        <ele>2307.3000000000002</ele>
        <time>2015-07-13T14:16:26Z</time>
      </trkpt>
      <trkpt lat="46.569759640842676" lon="12.286604465916753">
        <ele>2306.8200000000002</ele>
        <time>2015-07-13T14:16:38Z</time>
      </trkpt>
      <trkpt lat="46.569689149037004" lon="12.28665467351675">
        <ele>2308.2600000000002</ele>
        <time>2015-07-13T14:16:49Z</time>
      </trkpt>
      <trkpt lat="46.569623686373234" lon="12.286636987701058">
        <ele>2310.6700000000001</ele>
        <time>2015-07-13T14:17:00Z</time>
      </trkpt>
      <trkpt lat="46.569578340277076" lon="12.286625504493713">
        <ele>2312.5900000000001</ele>
        <time>2015-07-13T14:17:09Z</time>
      </trkpt>
      <trkpt lat="46.569523438811302" lon="12.286621313542128">
        <ele>2314.0300000000002</ele>
        <time>2015-07-13T14:17:21Z</time>
      </trkpt>
      <trkpt lat="46.569473734125495" lon="12.286589797586203">
        <ele>2316.4299999999998</ele>
        <time>2015-07-13T14:17:35Z</time>
      </trkpt>
      <trkpt lat="46.569456802681088" lon="12.286577895283699">
        <ele>2317.8800000000001</ele>
        <time>2015-07-13T14:17:43Z</time>
      </trkpt>
      <trkpt lat="46.569428220391273" lon="12.286624247208238">
        <ele>2319.3200000000002</ele>
        <time>2015-07-13T14:17:53Z</time>
      </trkpt>
      <trkpt lat="46.569417826831341" lon="12.286656517535448">
        <ele>2321.2399999999998</ele>
        <time>2015-07-13T14:18:01Z</time>
      </trkpt>
      <trkpt lat="46.569386059418321" lon="12.28667663410306">
        <ele>2322.6799999999998</ele>
        <time>2015-07-13T14:18:10Z</time>
      </trkpt>
      <trkpt lat="46.569381700828671" lon="12.286716196686029">
        <ele>2324.1199999999999</ele>
        <time>2015-07-13T14:18:19Z</time>
      </trkpt>
      <trkpt lat="46.56939142383635" lon="12.286750478670001">
        <ele>2325.5700000000002</ele>
        <time>2015-07-13T14:18:29Z</time>
      </trkpt>
      <trkpt lat="46.569363847374916" lon="12.286771098151803">
        <ele>2326.5300000000002</ele>
        <time>2015-07-13T14:18:37Z</time>
      </trkpt>
      <trkpt lat="46.569329481571913" lon="12.286768667399883">
        <ele>2327.0100000000002</ele>
        <time>2015-07-13T14:18:42Z</time>
      </trkpt>
      <trkpt lat="46.569272987544537" lon="12.286804122850299">
        <ele>2328.4499999999998</ele>
        <time>2015-07-13T14:18:51Z</time>
      </trkpt>
      <trkpt lat="46.569211464375257" lon="12.286798255518079">
        <ele>2329.8899999999999</ele>
        <time>2015-07-13T14:19:00Z</time>
      </trkpt>
      <trkpt lat="46.569103673100471" lon="12.286772606894374">
        <ele>2331.3299999999999</ele>
        <time>2015-07-13T14:19:14Z</time>
      </trkpt>
      <trkpt lat="46.569087579846382" lon="12.286732038483024">
        <ele>2332.3000000000002</ele>
        <time>2015-07-13T14:19:25Z</time>
      </trkpt>
      <trkpt lat="46.569098979234695" lon="12.28674653917551">
        <ele>2332.3000000000002</ele>
        <time>2015-07-13T14:19:37Z</time>
      </trkpt>
      <trkpt lat="46.569103170186281" lon="12.286756178364158">
        <ele>2332.3000000000002</ele>
        <time>2015-07-13T14:19:42Z</time>
      </trkpt>
      <trkpt lat="46.569104511290789" lon="12.286764811724424">
        <ele>2332.3000000000002</ele>
        <time>2015-07-13T14:19:52Z</time>
      </trkpt>
      <trkpt lat="46.56910409219563" lon="12.286749137565494">
        <ele>2331.8099999999999</ele>
        <time>2015-07-13T14:20:01Z</time>
      </trkpt>
      <trkpt lat="46.569074168801308" lon="12.286757519468665">
        <ele>2331.3299999999999</ele>
        <time>2015-07-13T14:20:11Z</time>
      </trkpt>
      <trkpt lat="46.569064697250724" lon="12.286731284111738">
        <ele>2329.8899999999999</ele>
        <time>2015-07-13T14:20:18Z</time>
      </trkpt>
      <trkpt lat="46.569084897637367" lon="12.28673723526299">
        <ele>2329.8899999999999</ele>
        <time>2015-07-13T14:20:36Z</time>
      </trkpt>
      <trkpt lat="46.5690987277776" lon="12.28672793135047">
        <ele>2330.3699999999999</ele>
        <time>2015-07-13T14:20:55Z</time>
      </trkpt>
      <trkpt lat="46.568994540721178" lon="12.28671720251441">
        <ele>2328.4499999999998</ele>
        <time>2015-07-13T14:21:05Z</time>
      </trkpt>
      <trkpt lat="46.568961935117841" lon="12.286674622446299">
        <ele>2326.5300000000002</ele>
        <time>2015-07-13T14:21:15Z</time>
      </trkpt>
      <trkpt lat="46.568952212110162" lon="12.286674035713077">
        <ele>2326.0500000000002</ele>
        <time>2015-07-13T14:21:17Z</time>
      </trkpt>
      <trkpt lat="46.568936621770263" lon="12.28665953502059">
        <ele>2325.0900000000001</ele>
        <time>2015-07-13T14:21:19Z</time>
      </trkpt>
      <trkpt lat="46.568875350058079" lon="12.28653590194881">
        <ele>2321.7199999999998</ele>
        <time>2015-07-13T14:21:31Z</time>
      </trkpt>
      <trkpt lat="46.568830423057079" lon="12.286526598036289">
        <ele>2318.8400000000001</ele>
        <time>2015-07-13T14:21:41Z</time>
      </trkpt>
      <trkpt lat="46.568824723362923" lon="12.286465242505074">
        <ele>2315.4699999999998</ele>
        <time>2015-07-13T14:21:51Z</time>
      </trkpt>
      <trkpt lat="46.56880946829915" lon="12.286445293575525">
        <ele>2314.9899999999998</ele>
        <time>2015-07-13T14:21:54Z</time>
      </trkpt>
      <trkpt lat="46.568774012848735" lon="12.286427775397897">
        <ele>2313.0700000000002</ele>
        <time>2015-07-13T14:21:58Z</time>
      </trkpt>
      <trkpt lat="46.568726738914847" lon="12.286416543647647">
        <ele>2310.6700000000001</ele>
        <time>2015-07-13T14:22:06Z</time>
      </trkpt>
      <trkpt lat="46.568681811913848" lon="12.286421237513423">
        <ele>2309.2199999999998</ele>
        <time>2015-07-13T14:22:12Z</time>
      </trkpt>
      <trkpt lat="46.568665131926537" lon="12.286399863660336">
        <ele>2307.7800000000002</ele>
        <time>2015-07-13T14:22:21Z</time>
      </trkpt>
      <trkpt lat="46.568660354241729" lon="12.286365497857332">
        <ele>2307.7800000000002</ele>
        <time>2015-07-13T14:22:28Z</time>
      </trkpt>
      <trkpt lat="46.568713746964931" lon="12.286254689097404">
        <ele>2304.9000000000001</ele>
        <time>2015-07-13T14:22:39Z</time>
      </trkpt>
      <trkpt lat="46.568728499114513" lon="12.286219904199243">
        <ele>2303.46</ele>
        <time>2015-07-13T14:22:43Z</time>
      </trkpt>
      <trkpt lat="46.568711483851075" lon="12.286136168986559">
        <ele>2301.0500000000002</ele>
        <time>2015-07-13T14:22:53Z</time>
      </trkpt>
      <trkpt lat="46.568694300949574" lon="12.286166427657008">
        <ele>2299.6100000000001</ele>
        <time>2015-07-13T14:22:57Z</time>
      </trkpt>
      <trkpt lat="46.568685416132212" lon="12.286166427657008">
        <ele>2299.1300000000001</ele>
        <time>2015-07-13T14:22:58Z</time>
      </trkpt>
      <trkpt lat="46.568651972338557" lon="12.286173300817609">
        <ele>2296.73</ele>
        <time>2015-07-13T14:23:05Z</time>
      </trkpt>
      <trkpt lat="46.568650295957923" lon="12.286149077117443">
        <ele>2296.25</ele>
        <time>2015-07-13T14:23:07Z</time>
      </trkpt>
      <trkpt lat="46.568626156076789" lon="12.286108676344156">
        <ele>2294.8000000000002</ele>
        <time>2015-07-13T14:23:11Z</time>
      </trkpt>
      <trkpt lat="46.568596484139562" lon="12.286085458472371">
        <ele>2293.3600000000001</ele>
        <time>2015-07-13T14:23:15Z</time>
      </trkpt>
      <trkpt lat="46.568555999547243" lon="12.286091409623623">
        <ele>2290.96</ele>
        <time>2015-07-13T14:23:23Z</time>
      </trkpt>
      <trkpt lat="46.568535044789314" lon="12.286092080175877">
        <ele>2290</ele>
        <time>2015-07-13T14:23:26Z</time>
      </trkpt>
      <trkpt lat="46.568519957363605" lon="12.286013625562191">
        <ele>2288.0799999999999</ele>
        <time>2015-07-13T14:23:34Z</time>
      </trkpt>
      <trkpt lat="46.568476622924209" lon="12.286024270579219">
        <ele>2285.6700000000001</ele>
        <time>2015-07-13T14:23:42Z</time>
      </trkpt>
      <trkpt lat="46.568416524678469" lon="12.286028964444995">
        <ele>2283.27</ele>
        <time>2015-07-13T14:23:52Z</time>
      </trkpt>
      <trkpt lat="46.568405712023377" lon="12.286002393811941">
        <ele>2282.79</ele>
        <time>2015-07-13T14:23:54Z</time>
      </trkpt>
      <trkpt lat="46.568368664011359" lon="12.285951683297753">
        <ele>2281.3499999999999</ele>
        <time>2015-07-13T14:24:01Z</time>
      </trkpt>
      <trkpt lat="46.568308481946588" lon="12.285969201475382">
        <ele>2278.9400000000001</ele>
        <time>2015-07-13T14:24:09Z</time>
      </trkpt>
      <trkpt lat="46.568277720361948" lon="12.285957131534815">
        <ele>2277.5</ele>
        <time>2015-07-13T14:24:17Z</time>
      </trkpt>
      <trkpt lat="46.568222148343921" lon="12.285900302231312">
        <ele>2275.5799999999999</ele>
        <time>2015-07-13T14:24:26Z</time>
      </trkpt>
      <trkpt lat="46.568198343738914" lon="12.285886220633984">
        <ele>2274.6199999999999</ele>
        <time>2015-07-13T14:24:29Z</time>
      </trkpt>
      <trkpt lat="46.568181915208697" lon="12.285912539809942">
        <ele>2273.6599999999999</ele>
        <time>2015-07-13T14:24:35Z</time>
      </trkpt>
      <trkpt lat="46.568101113662124" lon="12.285908767953515">
        <ele>2270.29</ele>
        <time>2015-07-13T14:24:44Z</time>
      </trkpt>
      <trkpt lat="46.568112429231405" lon="12.285899966955185">
        <ele>2270.29</ele>
        <time>2015-07-13T14:25:06Z</time>
      </trkpt>
      <trkpt lat="46.568121146410704" lon="12.285906923934817">
        <ele>2270.29</ele>
        <time>2015-07-13T14:25:15Z</time>
      </trkpt>
      <trkpt lat="46.568102790042758" lon="12.28589728474617">
        <ele>2270.29</ele>
        <time>2015-07-13T14:25:17Z</time>
      </trkpt>
      <trkpt lat="46.568010840564966" lon="12.285911869257689">
        <ele>2266.4499999999998</ele>
        <time>2015-07-13T14:25:28Z</time>
      </trkpt>
      <trkpt lat="46.567996088415384" lon="12.285904828459024">
        <ele>2265.96</ele>
        <time>2015-07-13T14:25:31Z</time>
      </trkpt>
      <trkpt lat="46.567924926057458" lon="12.285858727991581">
        <ele>2263.0799999999999</ele>
        <time>2015-07-13T14:25:40Z</time>
      </trkpt>
      <trkpt lat="46.567872622981668" lon="12.285877419635653">
        <ele>2261.1599999999999</ele>
        <time>2015-07-13T14:25:46Z</time>
      </trkpt>
      <trkpt lat="46.567759802564979" lon="12.285840455442667">
        <ele>2258.27</ele>
        <time>2015-07-13T14:25:57Z</time>
      </trkpt>
      <trkpt lat="46.567753097042441" lon="12.285838695243001">
        <ele>2257.79</ele>
        <time>2015-07-13T14:25:58Z</time>
      </trkpt>
      <trkpt lat="46.567715629935265" lon="12.285857554525137">
        <ele>2256.8299999999999</ele>
        <time>2015-07-13T14:26:03Z</time>
      </trkpt>
      <trkpt lat="46.567699452862144" lon="12.28591681458056">
        <ele>2255.3899999999999</ele>
        <time>2015-07-13T14:26:07Z</time>
      </trkpt>
      <trkpt lat="46.567615969106555" lon="12.285970458760858">
        <ele>2252.5100000000002</ele>
        <time>2015-07-13T14:26:15Z</time>
      </trkpt>
      <trkpt lat="46.56750968657434" lon="12.285954281687737">
        <ele>2249.1399999999999</ele>
        <time>2015-07-13T14:26:26Z</time>
      </trkpt>
      <trkpt lat="46.567411450669169" lon="12.285955119878054">
        <ele>2246.2600000000002</ele>
        <time>2015-07-13T14:26:34Z</time>
      </trkpt>
      <trkpt lat="46.567314052954316" lon="12.285926453769207">
        <ele>2242.8899999999999</ele>
        <time>2015-07-13T14:26:44Z</time>
      </trkpt>
      <trkpt lat="46.56730986200273" lon="12.285914719104767">
        <ele>2242.8899999999999</ele>
        <time>2015-07-13T14:26:45Z</time>
      </trkpt>
      <trkpt lat="46.567280190065503" lon="12.285840036347508">
        <ele>2242.4099999999999</ele>
        <time>2015-07-13T14:26:57Z</time>
      </trkpt>
      <trkpt lat="46.567243980243802" lon="12.28579318150878">
        <ele>2240.9699999999998</ele>
        <time>2015-07-13T14:27:02Z</time>
      </trkpt>
      <trkpt lat="46.567112049087882" lon="12.285683713853359">
        <ele>2239.0500000000002</ele>
        <time>2015-07-13T14:27:16Z</time>
      </trkpt>
      <trkpt lat="46.567063853144646" lon="12.285618837922812">
        <ele>2239.5300000000002</ele>
        <time>2015-07-13T14:27:22Z</time>
      </trkpt>
      <trkpt lat="46.566964779049158" lon="12.285496294498444">
        <ele>2238.5700000000002</ele>
        <time>2015-07-13T14:27:34Z</time>
      </trkpt>
      <trkpt lat="46.56693653203547" lon="12.285512555390596">
        <ele>2239.5300000000002</ele>
        <time>2015-07-13T14:27:45Z</time>
      </trkpt>
      <trkpt lat="46.566940806806087" lon="12.285510376095772">
        <ele>2239.0500000000002</ele>
        <time>2015-07-13T14:28:03Z</time>
      </trkpt>
      <trkpt lat="46.566924126818776" lon="12.285513058304787">
        <ele>2239.5300000000002</ele>
        <time>2015-07-13T14:28:30Z</time>
      </trkpt>
      <trkpt lat="46.566902585327625" lon="12.28549076244235">
        <ele>2239.0500000000002</ele>
        <time>2015-07-13T14:28:43Z</time>
      </trkpt>
      <trkpt lat="46.566892778500915" lon="12.285481039434671">
        <ele>2238.5700000000002</ele>
        <time>2015-07-13T14:28:46Z</time>
      </trkpt>
      <trkpt lat="46.566842067986727" lon="12.285406272858381">
        <ele>2236.6399999999999</ele>
        <time>2015-07-13T14:28:56Z</time>
      </trkpt>
      <trkpt lat="46.566748693585396" lon="12.28547215461731">
        <ele>2233.7600000000002</ele>
        <time>2015-07-13T14:29:08Z</time>
      </trkpt>
      <trkpt lat="46.566686583682895" lon="12.285523116588593">
        <ele>2230.4000000000001</ele>
        <time>2015-07-13T14:29:18Z</time>
      </trkpt>
      <trkpt lat="46.56662967056036" lon="12.285598302260041">
        <ele>2228.9499999999998</ele>
        <time>2015-07-13T14:29:29Z</time>
      </trkpt>
      <trkpt lat="46.566550713032484" lon="12.285705003887415">
        <ele>2227.5100000000002</ele>
        <time>2015-07-13T14:29:41Z</time>
      </trkpt>
      <trkpt lat="46.566459434106946" lon="12.285775160416961">
        <ele>2227.0300000000002</ele>
        <time>2015-07-13T14:29:53Z</time>
      </trkpt>
      <trkpt lat="46.566424565389752" lon="12.285789744928479">
        <ele>2226.5500000000002</ele>
        <time>2015-07-13T14:29:57Z</time>
      </trkpt>
      <trkpt lat="46.566342171281576" lon="12.285775411874056">
        <ele>2225.5900000000001</ele>
        <time>2015-07-13T14:30:06Z</time>
      </trkpt>
      <trkpt lat="46.566300764679909" lon="12.285765437409282">
        <ele>2225.5900000000001</ele>
        <time>2015-07-13T14:30:10Z</time>
      </trkpt>
      <trkpt lat="46.566198505461216" lon="12.285748338326812">
        <ele>2224.6300000000001</ele>
        <time>2015-07-13T14:30:20Z</time>
      </trkpt>
      <trkpt lat="46.56607897952199" lon="12.285849088802934">
        <ele>2223.6700000000001</ele>
        <time>2015-07-13T14:30:33Z</time>
      </trkpt>
      <trkpt lat="46.566043440252542" lon="12.285921927541494">
        <ele>2222.71</ele>
        <time>2015-07-13T14:30:40Z</time>
      </trkpt>
      <trkpt lat="46.565924333408475" lon="12.28593491949141">
        <ele>2222.2199999999998</ele>
        <time>2015-07-13T14:30:52Z</time>
      </trkpt>
      <trkpt lat="46.565865408629179" lon="12.285978589206934">
        <ele>2220.3000000000002</ele>
        <time>2015-07-13T14:31:02Z</time>
      </trkpt>
      <trkpt lat="46.565825594589114" lon="12.285981271415949">
        <ele>2219.3400000000001</ele>
        <time>2015-07-13T14:31:06Z</time>
      </trkpt>
      <trkpt lat="46.56575501896441" lon="12.286056037992239">
        <ele>2217.9000000000001</ele>
        <time>2015-07-13T14:31:17Z</time>
      </trkpt>
      <trkpt lat="46.565701961517334" lon="12.28607757948339">
        <ele>2215.98</ele>
        <time>2015-07-13T14:31:28Z</time>
      </trkpt>
      <trkpt lat="46.565634906291962" lon="12.28608688339591">
        <ele>2213.0900000000001</ele>
        <time>2015-07-13T14:31:39Z</time>
      </trkpt>
      <trkpt lat="46.565613448619843" lon="12.286120494827628">
        <ele>2212.1300000000001</ele>
        <time>2015-07-13T14:31:48Z</time>
      </trkpt>
      <trkpt lat="46.565573215484619" lon="12.286164835095406">
        <ele>2210.6900000000001</ele>
        <time>2015-07-13T14:31:58Z</time>
      </trkpt>
      <trkpt lat="46.565493755042553" lon="12.286211354658008">
        <ele>2208.77</ele>
        <time>2015-07-13T14:32:10Z</time>
      </trkpt>
      <trkpt lat="46.565489731729031" lon="12.286228621378541">
        <ele>2207.8099999999999</ele>
        <time>2015-07-13T14:32:17Z</time>
      </trkpt>
      <trkpt lat="46.565454611554742" lon="12.286283271387219">
        <ele>2206.3600000000001</ele>
        <time>2015-07-13T14:32:23Z</time>
      </trkpt>
      <trkpt lat="46.565418066456914" lon="12.286395421251655">
        <ele>2204.9200000000001</ele>
        <time>2015-07-13T14:32:35Z</time>
      </trkpt>
      <trkpt lat="46.565372468903661" lon="12.286491896957159">
        <ele>2203.48</ele>
        <time>2015-07-13T14:32:45Z</time>
      </trkpt>
      <trkpt lat="46.56535436399281" lon="12.286611758172512">
        <ele>2202.04</ele>
        <time>2015-07-13T14:32:55Z</time>
      </trkpt>
      <trkpt lat="46.565354783087969" lon="12.286624079570174">
        <ele>2202.04</ele>
        <time>2015-07-13T14:32:56Z</time>
      </trkpt>
      <trkpt lat="46.565325781702995" lon="12.286739330738783">
        <ele>2201.0799999999999</ele>
        <time>2015-07-13T14:33:04Z</time>
      </trkpt>
      <trkpt lat="46.565360985696316" lon="12.286859611049294">
        <ele>2199.6300000000001</ele>
        <time>2015-07-13T14:33:15Z</time>
      </trkpt>
      <trkpt lat="46.565302480012178" lon="12.28694879449904">
        <ele>2198.1900000000001</ele>
        <time>2015-07-13T14:33:25Z</time>
      </trkpt>
      <trkpt lat="46.565263085067272" lon="12.287018867209554">
        <ele>2196.75</ele>
        <time>2015-07-13T14:33:33Z</time>
      </trkpt>
      <trkpt lat="46.565186306834221" lon="12.287130011245608">
        <ele>2195.3099999999999</ele>
        <time>2015-07-13T14:33:45Z</time>
      </trkpt>
      <trkpt lat="46.565150264650583" lon="12.287130178883672">
        <ele>2194.8299999999999</ele>
        <time>2015-07-13T14:33:54Z</time>
      </trkpt>
      <trkpt lat="46.565144648775458" lon="12.287135627120733">
        <ele>2194.8299999999999</ele>
        <time>2015-07-13T14:33:55Z</time>
      </trkpt>
      <trkpt lat="46.565120425075293" lon="12.287138141691685">
        <ele>2194.3499999999999</ele>
        <time>2015-07-13T14:33:58Z</time>
      </trkpt>
      <trkpt lat="46.565093770623207" lon="12.28715649805963">
        <ele>2193.8699999999999</ele>
        <time>2015-07-13T14:34:01Z</time>
      </trkpt>
      <trkpt lat="46.565033840015531" lon="12.287202263250947">
        <ele>2192.4200000000001</ele>
        <time>2015-07-13T14:34:10Z</time>
      </trkpt>
      <trkpt lat="46.564932083711028" lon="12.287248028442264">
        <ele>2190.5</ele>
        <time>2015-07-13T14:34:21Z</time>
      </trkpt>
      <trkpt lat="46.564813898876309" lon="12.287279544398189">
        <ele>2188.0999999999999</ele>
        <time>2015-07-13T14:34:33Z</time>
      </trkpt>
      <trkpt lat="46.56472303904593" lon="12.287287004292011">
        <ele>2186.6599999999999</ele>
        <time>2015-07-13T14:34:44Z</time>
      </trkpt>
      <trkpt lat="46.564716584980488" lon="12.287292284891009">
        <ele>2186.6599999999999</ele>
        <time>2015-07-13T14:34:45Z</time>
      </trkpt>
      <trkpt lat="46.564622204750776" lon="12.287316927686334">
        <ele>2184.25</ele>
        <time>2015-07-13T14:34:57Z</time>
      </trkpt>
      <trkpt lat="46.564560849219561" lon="12.287385407835245">
        <ele>2182.3299999999999</ele>
        <time>2015-07-13T14:35:08Z</time>
      </trkpt>
      <trkpt lat="46.564457416534424" lon="12.287426395341754">
        <ele>2179.4499999999998</ele>
        <time>2015-07-13T14:35:20Z</time>
      </trkpt>
      <trkpt lat="46.564377872273326" lon="12.287441566586494">
        <ele>2177.04</ele>
        <time>2015-07-13T14:35:31Z</time>
      </trkpt>
      <trkpt lat="46.56433017924428" lon="12.287514321506023">
        <ele>2174.6399999999999</ele>
        <time>2015-07-13T14:35:42Z</time>
      </trkpt>
      <trkpt lat="46.564249377697706" lon="12.287567211315036">
        <ele>2171.7600000000002</ele>
        <time>2015-07-13T14:35:55Z</time>
      </trkpt>
      <trkpt lat="46.564175197854638" lon="12.287632003426552">
        <ele>2168.8699999999999</ele>
        <time>2015-07-13T14:36:07Z</time>
      </trkpt>
      <trkpt lat="46.564104538410902" lon="12.287714900448918">
        <ele>2166.4699999999998</ele>
        <time>2015-07-13T14:36:19Z</time>
      </trkpt>
      <trkpt lat="46.564039159566164" lon="12.287777261808515">
        <ele>2164.0599999999999</ele>
        <time>2015-07-13T14:36:30Z</time>
      </trkpt>
      <trkpt lat="46.563970763236284" lon="12.287860661745071">
        <ele>2161.6599999999999</ele>
        <time>2015-07-13T14:36:42Z</time>
      </trkpt>
      <trkpt lat="46.563959699124098" lon="12.2878781799227">
        <ele>2161.1799999999998</ele>
        <time>2015-07-13T14:36:44Z</time>
      </trkpt>
      <trkpt lat="46.563876550644636" lon="12.287930650636554">
        <ele>2159.2600000000002</ele>
        <time>2015-07-13T14:36:56Z</time>
      </trkpt>
      <trkpt lat="46.563814021646976" lon="12.287928136065602">
        <ele>2158.3000000000002</ele>
        <time>2015-07-13T14:37:07Z</time>
      </trkpt>
      <trkpt lat="46.563798347488046" lon="12.28792754933238">
        <ele>2158.3000000000002</ele>
        <time>2015-07-13T14:37:09Z</time>
      </trkpt>
      <trkpt lat="46.563735064119101" lon="12.28797784075141">
        <ele>2157.3400000000001</ele>
        <time>2015-07-13T14:37:18Z</time>
      </trkpt>
      <trkpt lat="46.563632972538471" lon="12.288061659783125">
        <ele>2156.8600000000001</ele>
        <time>2015-07-13T14:37:29Z</time>
      </trkpt>
      <trkpt lat="46.563596427440643" lon="12.288123937323689">
        <ele>2155.4099999999999</ele>
        <time>2015-07-13T14:37:35Z</time>
      </trkpt>
      <trkpt lat="46.563560971990228" lon="12.288276571780443">
        <ele>2153.0100000000002</ele>
        <time>2015-07-13T14:37:47Z</time>
      </trkpt>
      <trkpt lat="46.563511183485389" lon="12.288437085226178">
        <ele>2151.0900000000001</ele>
        <time>2015-07-13T14:38:00Z</time>
      </trkpt>
      <trkpt lat="46.563472039997578" lon="12.288576643913984">
        <ele>2149.6500000000001</ele>
        <time>2015-07-13T14:38:11Z</time>
      </trkpt>
      <trkpt lat="46.563460724428296" lon="12.288629868999124">
        <ele>2149.6500000000001</ele>
        <time>2015-07-13T14:38:15Z</time>
      </trkpt>
      <trkpt lat="46.563448486849666" lon="12.288659457117319">
        <ele>2149.6500000000001</ele>
        <time>2015-07-13T14:38:21Z</time>
      </trkpt>
      <trkpt lat="46.563428705558181" lon="12.288729278370738">
        <ele>2148.1999999999998</ele>
        <time>2015-07-13T14:38:28Z</time>
      </trkpt>
      <trkpt lat="46.56341353431344" lon="12.288786610588431">
        <ele>2148.1999999999998</ele>
        <time>2015-07-13T14:38:32Z</time>
      </trkpt>
      <trkpt lat="46.563397357240319" lon="12.28885106742382">
        <ele>2147.7199999999998</ele>
        <time>2015-07-13T14:38:36Z</time>
      </trkpt>
      <trkpt lat="46.563366763293743" lon="12.288995571434498">
        <ele>2145.8000000000002</ele>
        <time>2015-07-13T14:38:46Z</time>
      </trkpt>
      <trkpt lat="46.563362153246999" lon="12.289010575041175">
        <ele>2145.8000000000002</ele>
        <time>2015-07-13T14:38:47Z</time>
      </trkpt>
      <trkpt lat="46.563359135761857" lon="12.289040666073561">
        <ele>2145.3200000000002</ele>
        <time>2015-07-13T14:38:49Z</time>
      </trkpt>
      <trkpt lat="46.563311107456684" lon="12.289147954434156">
        <ele>2144.8400000000001</ele>
        <time>2015-07-13T14:38:57Z</time>
      </trkpt>
      <trkpt lat="46.563308341428638" lon="12.289195396006107">
        <ele>2143.8800000000001</ele>
        <time>2015-07-13T14:39:02Z</time>
      </trkpt>
      <trkpt lat="46.563296606764197" lon="12.289309473708272">
        <ele>2142.9200000000001</ele>
        <time>2015-07-13T14:39:09Z</time>
      </trkpt>
      <trkpt lat="46.563264923170209" lon="12.289353730157018">
        <ele>2142.4400000000001</ele>
        <time>2015-07-13T14:39:14Z</time>
      </trkpt>
      <trkpt lat="46.563250087201595" lon="12.289525726810098">
        <ele>2139.5500000000002</ele>
        <time>2015-07-13T14:39:27Z</time>
      </trkpt>
      <trkpt lat="46.563254529610276" lon="12.289557158946991">
        <ele>2139.5500000000002</ele>
        <time>2015-07-13T14:39:29Z</time>
      </trkpt>
      <trkpt lat="46.56326693482697" lon="12.289610300213099">
        <ele>2137.6300000000001</ele>
        <time>2015-07-13T14:39:38Z</time>
      </trkpt>
      <trkpt lat="46.563272131606936" lon="12.289621783420444">
        <ele>2137.6300000000001</ele>
        <time>2015-07-13T14:39:40Z</time>
      </trkpt>
      <trkpt lat="46.563253104686737" lon="12.289782129228115">
        <ele>2134.7399999999998</ele>
        <time>2015-07-13T14:39:53Z</time>
      </trkpt>
      <trkpt lat="46.563234161585569" lon="12.289927555248141">
        <ele>2132.3400000000001</ele>
        <time>2015-07-13T14:40:04Z</time>
      </trkpt>
      <trkpt lat="46.563231479376554" lon="12.29014690965414">
        <ele>2130.4200000000001</ele>
        <time>2015-07-13T14:40:17Z</time>
      </trkpt>
      <trkpt lat="46.563232569023967" lon="12.290159566327929">
        <ele>2130.4200000000001</ele>
        <time>2015-07-13T14:40:18Z</time>
      </trkpt>
      <trkpt lat="46.563251176849008" lon="12.29025193490088">
        <ele>2129.46</ele>
        <time>2015-07-13T14:40:23Z</time>
      </trkpt>
      <trkpt lat="46.563220331445336" lon="12.290353020653129">
        <ele>2129.46</ele>
        <time>2015-07-13T14:40:34Z</time>
      </trkpt>
      <trkpt lat="46.563216224312782" lon="12.29038193821907">
        <ele>2129.46</ele>
        <time>2015-07-13T14:40:42Z</time>
      </trkpt>
      <trkpt lat="46.56320340000093" lon="12.290409514680505">
        <ele>2129.46</ele>
        <time>2015-07-13T14:40:44Z</time>
      </trkpt>
      <trkpt lat="46.563110444694757" lon="12.29053826071322">
        <ele>2129.9400000000001</ele>
        <time>2015-07-13T14:40:55Z</time>
      </trkpt>
      <trkpt lat="46.563083538785577" lon="12.290561813861132">
        <ele>2130.4200000000001</ele>
        <time>2015-07-13T14:41:02Z</time>
      </trkpt>
      <trkpt lat="46.563055124133825" lon="12.290616296231747">
        <ele>2130.4200000000001</ele>
        <time>2015-07-13T14:41:07Z</time>
      </trkpt>
      <trkpt lat="46.562962587922812" lon="12.290789382532239">
        <ele>2130.4200000000001</ele>
        <time>2015-07-13T14:41:21Z</time>
      </trkpt>
      <trkpt lat="46.562892599031329" lon="12.290857192128897">
        <ele>2129.9400000000001</ele>
        <time>2015-07-13T14:41:31Z</time>
      </trkpt>
      <trkpt lat="46.562870135530829" lon="12.290888791903853">
        <ele>2129.9400000000001</ele>
        <time>2015-07-13T14:41:34Z</time>
      </trkpt>
      <trkpt lat="46.562829567119479" lon="12.29089985601604">
        <ele>2129.9400000000001</ele>
        <time>2015-07-13T14:41:44Z</time>
      </trkpt>
      <trkpt lat="46.562795620411634" lon="12.29089792817831">
        <ele>2129.46</ele>
        <time>2015-07-13T14:41:53Z</time>
      </trkpt>
      <trkpt lat="46.562658241018653" lon="12.290842356160283">
        <ele>2127.0500000000002</ele>
        <time>2015-07-13T14:42:07Z</time>
      </trkpt>
      <trkpt lat="46.562522705644369" lon="12.290877476334572">
        <ele>2126.5700000000002</ele>
        <time>2015-07-13T14:42:20Z</time>
      </trkpt>
      <trkpt lat="46.562419105321169" lon="12.290883930400014">
        <ele>2126.5700000000002</ele>
        <time>2015-07-13T14:42:30Z</time>
      </trkpt>
      <trkpt lat="46.562398066744208" lon="12.290890049189329">
        <ele>2127.0500000000002</ele>
        <time>2015-07-13T14:42:32Z</time>
      </trkpt>
      <trkpt lat="46.562340650707483" lon="12.290864149108529">
        <ele>2127.0500000000002</ele>
        <time>2015-07-13T14:42:44Z</time>
      </trkpt>
      <trkpt lat="46.562249287962914" lon="12.290744287893176">
        <ele>2131.3800000000001</ele>
        <time>2015-07-13T14:43:06Z</time>
      </trkpt>
      <trkpt lat="46.562087433412671" lon="12.290912596508861">
        <ele>2129.9400000000001</ele>
        <time>2015-07-13T14:43:19Z</time>
      </trkpt>
      <trkpt lat="46.56204292550683" lon="12.291050394997001">
        <ele>2132.3400000000001</ele>
        <time>2015-07-13T14:43:42Z</time>
      </trkpt>
      <trkpt lat="46.562307290732861" lon="12.290853084996343">
        <ele>2131.3800000000001</ele>
        <time>2015-07-13T14:44:13Z</time>
      </trkpt>
      <trkpt lat="46.562389517202973" lon="12.290786113590002">
        <ele>2131.8600000000001</ele>
        <time>2015-07-13T14:44:35Z</time>
      </trkpt>
      <trkpt lat="46.562398988753557" lon="12.290913434699178">
        <ele>2131.8600000000001</ele>
        <time>2015-07-13T14:44:51Z</time>
      </trkpt>
    </trkseg>
  </trk>

  <trk>
    <name>4tappa2015-07-14</name>
    <extensions>
      <gpxx:TrackExtension>
        <gpxx:DisplayColor>Yellow</gpxx:DisplayColor>
      </gpxx:TrackExtension>
      <gpxtrkx:TrackStatsExtension xmlns:gpxtrkx="http://www.garmin.com/xmlschemas/TrackStatsExtension/v1">
        <gpxtrkx:Distance>20942</gpxtrkx:Distance>
        <gpxtrkx:TotalElapsedTime>28837</gpxtrkx:TotalElapsedTime>
        <gpxtrkx:MovingTime>19200</gpxtrkx:MovingTime>
        <gpxtrkx:StoppedTime>9190</gpxtrkx:StoppedTime>
        <gpxtrkx:MovingSpeed>1</gpxtrkx:MovingSpeed>
        <gpxtrkx:MaxSpeed>2</gpxtrkx:MaxSpeed>
        <gpxtrkx:MaxElevation>2159</gpxtrkx:MaxElevation>
        <gpxtrkx:MinElevation>1706</gpxtrkx:MinElevation>
        <gpxtrkx:Ascent>906</gpxtrkx:Ascent>
        <gpxtrkx:Descent>1016</gpxtrkx:Descent>
        <gpxtrkx:AvgAscentRate>0</gpxtrkx:AvgAscentRate>
        <gpxtrkx:MaxAscentRate>1</gpxtrkx:MaxAscentRate>
        <gpxtrkx:AvgDescentRate>0</gpxtrkx:AvgDescentRate>
        <gpxtrkx:MaxDescentRate>-1</gpxtrkx:MaxDescentRate>
      </gpxtrkx:TrackStatsExtension>
    </extensions>
    <trkseg>
      <trkpt lat="46.562195811420679" lon="12.290916284546256">
        <ele>2122.25</ele>
        <time>2015-07-14T06:04:52Z</time>
      </trkpt>
      <trkpt lat="46.562178125604987" lon="12.290904717519879">
        <ele>2122.25</ele>
        <time>2015-07-14T06:05:05Z</time>
      </trkpt>
      <trkpt lat="46.562181478366256" lon="12.290927851572633">
        <ele>2121.77</ele>
        <time>2015-07-14T06:05:16Z</time>
      </trkpt>
      <trkpt lat="46.562186842784286" lon="12.290930282324553">
        <ele>2122.25</ele>
        <time>2015-07-14T06:05:30Z</time>
      </trkpt>
      <trkpt lat="46.562201930209994" lon="12.29094922542572">
        <ele>2122.73</ele>
        <time>2015-07-14T06:05:48Z</time>
      </trkpt>
      <trkpt lat="46.562216598540545" lon="12.290953164920211">
        <ele>2122.25</ele>
        <time>2015-07-14T06:06:04Z</time>
      </trkpt>
      <trkpt lat="46.562201175838709" lon="12.290931204333901">
        <ele>2122.73</ele>
        <time>2015-07-14T06:06:25Z</time>
      </trkpt>
      <trkpt lat="46.562213748693466" lon="12.290937574580312">
        <ele>2122.73</ele>
        <time>2015-07-14T06:06:40Z</time>
      </trkpt>
      <trkpt lat="46.562208803370595" lon="12.290920978412032">
        <ele>2122.25</ele>
        <time>2015-07-14T06:06:55Z</time>
      </trkpt>
      <trkpt lat="46.562214586883783" lon="12.290927264839411">
        <ele>2121.77</ele>
        <time>2015-07-14T06:07:16Z</time>
      </trkpt>
      <trkpt lat="46.562208719551563" lon="12.290935311466455">
        <ele>2121.77</ele>
        <time>2015-07-14T06:07:33Z</time>
      </trkpt>
      <trkpt lat="46.562201343476772" lon="12.290917038917542">
        <ele>2121.77</ele>
        <time>2015-07-14T06:07:53Z</time>
      </trkpt>
      <trkpt lat="46.562214251607656" lon="12.290928522124887">
        <ele>2121.77</ele>
        <time>2015-07-14T06:08:12Z</time>
      </trkpt>
      <trkpt lat="46.562308128923178" lon="12.290935143828392">
        <ele>2121.29</ele>
        <time>2015-07-14T06:08:24Z</time>
      </trkpt>
      <trkpt lat="46.562319863587618" lon="12.290907315909863">
        <ele>2121.29</ele>
        <time>2015-07-14T06:08:35Z</time>
      </trkpt>
      <trkpt lat="46.562313828617334" lon="12.290909662842751">
        <ele>2121.77</ele>
        <time>2015-07-14T06:08:53Z</time>
      </trkpt>
      <trkpt lat="46.562331011518836" lon="12.290892312303185">
        <ele>2121.77</ele>
        <time>2015-07-14T06:09:10Z</time>
      </trkpt>
      <trkpt lat="46.562310140579939" lon="12.290907818824053">
        <ele>2121.77</ele>
        <time>2015-07-14T06:09:26Z</time>
      </trkpt>
      <trkpt lat="46.562316091731191" lon="12.290890216827393">
        <ele>2121.77</ele>
        <time>2015-07-14T06:09:46Z</time>
      </trkpt>
      <trkpt lat="46.562315840274096" lon="12.290896335616708">
        <ele>2121.77</ele>
        <time>2015-07-14T06:09:58Z</time>
      </trkpt>
      <trkpt lat="46.562343081459403" lon="12.290908237919211">
        <ele>2121.77</ele>
        <time>2015-07-14T06:10:15Z</time>
      </trkpt>
      <trkpt lat="46.562384320423007" lon="12.290892396122217">
        <ele>2122.25</ele>
        <time>2015-07-14T06:10:26Z</time>
      </trkpt>
      <trkpt lat="46.562350960448384" lon="12.29092676192522">
        <ele>2120.3200000000002</ele>
        <time>2015-07-14T06:10:33Z</time>
      </trkpt>
      <trkpt lat="46.562332855537534" lon="12.290944615378976">
        <ele>2120.3200000000002</ele>
        <time>2015-07-14T06:10:37Z</time>
      </trkpt>
      <trkpt lat="46.562262028455734" lon="12.290975376963615">
        <ele>2119.8400000000001</ele>
        <time>2015-07-14T06:10:48Z</time>
      </trkpt>
      <trkpt lat="46.56218072399497" lon="12.290977472439408">
        <ele>2120.3200000000002</ele>
        <time>2015-07-14T06:10:58Z</time>
      </trkpt>
      <trkpt lat="46.562148872762918" lon="12.290985435247421">
        <ele>2119.3600000000001</ele>
        <time>2015-07-14T06:11:02Z</time>
      </trkpt>
      <trkpt lat="46.562017863616347" lon="12.291000187397003">
        <ele>2116.48</ele>
        <time>2015-07-14T06:11:15Z</time>
      </trkpt>
      <trkpt lat="46.561910156160593" lon="12.290983088314533">
        <ele>2114.0799999999999</ele>
        <time>2015-07-14T06:11:26Z</time>
      </trkpt>
      <trkpt lat="46.561879143118858" lon="12.290970850735903">
        <ele>2113.5999999999999</ele>
        <time>2015-07-14T06:11:35Z</time>
      </trkpt>
      <trkpt lat="46.561858439818025" lon="12.29093698784709">
        <ele>2113.5999999999999</ele>
        <time>2015-07-14T06:11:43Z</time>
      </trkpt>
      <trkpt lat="46.561813093721867" lon="12.290879739448428">
        <ele>2113.1199999999999</ele>
        <time>2015-07-14T06:11:52Z</time>
      </trkpt>
      <trkpt lat="46.56177612952888" lon="12.290838835760951">
        <ele>2111.6700000000001</ele>
        <time>2015-07-14T06:11:58Z</time>
      </trkpt>
      <trkpt lat="46.561700440943241" lon="12.29068829677999">
        <ele>2110.71</ele>
        <time>2015-07-14T06:12:10Z</time>
      </trkpt>
      <trkpt lat="46.561646712943912" lon="12.290584025904536">
        <ele>2109.27</ele>
        <time>2015-07-14T06:12:21Z</time>
      </trkpt>
      <trkpt lat="46.561618130654097" lon="12.290559550747275">
        <ele>2108.3099999999999</ele>
        <time>2015-07-14T06:12:31Z</time>
      </trkpt>
      <trkpt lat="46.561575215309858" lon="12.290523508563638">
        <ele>2106.3899999999999</ele>
        <time>2015-07-14T06:12:41Z</time>
      </trkpt>
      <trkpt lat="46.561553506180644" lon="12.290503894910216">
        <ele>2105.4200000000001</ele>
        <time>2015-07-14T06:12:44Z</time>
      </trkpt>
      <trkpt lat="46.56158309429884" lon="12.290425188839436">
        <ele>2103.98</ele>
        <time>2015-07-14T06:12:52Z</time>
      </trkpt>
      <trkpt lat="46.561589632183313" lon="12.290415717288852">
        <ele>2103.98</ele>
        <time>2015-07-14T06:12:53Z</time>
      </trkpt>
      <trkpt lat="46.561644952744246" lon="12.290300382301211">
        <ele>2101.5799999999999</ele>
        <time>2015-07-14T06:13:05Z</time>
      </trkpt>
      <trkpt lat="46.561622992157936" lon="12.290258808061481">
        <ele>2099.6599999999999</ele>
        <time>2015-07-14T06:13:14Z</time>
      </trkpt>
      <trkpt lat="46.561649898067117" lon="12.290211282670498">
        <ele>2098.6999999999998</ele>
        <time>2015-07-14T06:13:22Z</time>
      </trkpt>
      <trkpt lat="46.561640091240406" lon="12.290153782814741">
        <ele>2097.73</ele>
        <time>2015-07-14T06:13:30Z</time>
      </trkpt>
      <trkpt lat="46.561647048220038" lon="12.290118243545294">
        <ele>2097.25</ele>
        <time>2015-07-14T06:13:37Z</time>
      </trkpt>
      <trkpt lat="46.561630871146917" lon="12.290073987096548">
        <ele>2096.29</ele>
        <time>2015-07-14T06:13:40Z</time>
      </trkpt>
      <trkpt lat="46.5616559330374" lon="12.28991330601275">
        <ele>2094.8499999999999</ele>
        <time>2015-07-14T06:13:51Z</time>
      </trkpt>
      <trkpt lat="46.561645958572626" lon="12.289820518344641">
        <ele>2094.3699999999999</ele>
        <time>2015-07-14T06:14:00Z</time>
      </trkpt>
      <trkpt lat="46.561588710173965" lon="12.289652125909925">
        <ele>2093.8899999999999</ele>
        <time>2015-07-14T06:14:12Z</time>
      </trkpt>
      <trkpt lat="46.561502125114202" lon="12.289478620514274">
        <ele>2092.4499999999998</ele>
        <time>2015-07-14T06:14:24Z</time>
      </trkpt>
      <trkpt lat="46.561498185619712" lon="12.289269659668207">
        <ele>2092.4499999999998</ele>
        <time>2015-07-14T06:14:37Z</time>
      </trkpt>
      <trkpt lat="46.561503633856773" lon="12.289105542004108">
        <ele>2090.04</ele>
        <time>2015-07-14T06:14:48Z</time>
      </trkpt>
      <trkpt lat="46.561496341601014" lon="12.289077797904611">
        <ele>2089.5599999999999</ele>
        <time>2015-07-14T06:14:50Z</time>
      </trkpt>
      <trkpt lat="46.561465077102184" lon="12.288862885907292">
        <ele>2087.1599999999999</ele>
        <time>2015-07-14T06:15:03Z</time>
      </trkpt>
      <trkpt lat="46.561412271112204" lon="12.28872450068593">
        <ele>2085.2399999999998</ele>
        <time>2015-07-14T06:15:13Z</time>
      </trkpt>
      <trkpt lat="46.561370277777314" lon="12.288516378030181">
        <ele>2083.3099999999999</ele>
        <time>2015-07-14T06:15:26Z</time>
      </trkpt>
      <trkpt lat="46.561304144561291" lon="12.288334155455232">
        <ele>2080.9099999999999</ele>
        <time>2015-07-14T06:15:38Z</time>
      </trkpt>
      <trkpt lat="46.561250332742929" lon="12.28813273832202">
        <ele>2082.3499999999999</ele>
        <time>2015-07-14T06:15:51Z</time>
      </trkpt>
      <trkpt lat="46.561241531744599" lon="12.287958730012178">
        <ele>2083.79</ele>
        <time>2015-07-14T06:16:02Z</time>
      </trkpt>
      <trkpt lat="46.561203561723232" lon="12.287874994799495">
        <ele>2083.3099999999999</ele>
        <time>2015-07-14T06:16:07Z</time>
      </trkpt>
      <trkpt lat="46.561140697449446" lon="12.287753038108349">
        <ele>2083.3099999999999</ele>
        <time>2015-07-14T06:16:17Z</time>
      </trkpt>
      <trkpt lat="46.561112869530916" lon="12.287546843290329">
        <ele>2083.79</ele>
        <time>2015-07-14T06:16:30Z</time>
      </trkpt>
      <trkpt lat="46.561041958630085" lon="12.287404350936413">
        <ele>2085.2399999999998</ele>
        <time>2015-07-14T06:16:43Z</time>
      </trkpt>
      <trkpt lat="46.561008431017399" lon="12.287276443094015">
        <ele>2086.1999999999998</ele>
        <time>2015-07-14T06:16:54Z</time>
      </trkpt>
      <trkpt lat="46.560996612533927" lon="12.287162197753787">
        <ele>2085.7199999999998</ele>
        <time>2015-07-14T06:17:02Z</time>
      </trkpt>
      <trkpt lat="46.561009185388684" lon="12.287046695128083">
        <ele>2083.79</ele>
        <time>2015-07-14T06:17:11Z</time>
      </trkpt>
      <trkpt lat="46.560997115448117" lon="12.286929180845618">
        <ele>2083.79</ele>
        <time>2015-07-14T06:17:20Z</time>
      </trkpt>
      <trkpt lat="46.56092494726181" lon="12.286752574145794">
        <ele>2082.8299999999999</ele>
        <time>2015-07-14T06:17:32Z</time>
      </trkpt>
      <trkpt lat="46.560861160978675" lon="12.286600526422262">
        <ele>2081.3899999999999</ele>
        <time>2015-07-14T06:17:44Z</time>
      </trkpt>
      <trkpt lat="46.560738366097212" lon="12.286552330479026">
        <ele>2079.9499999999998</ele>
        <time>2015-07-14T06:17:55Z</time>
      </trkpt>
      <trkpt lat="46.560595454648137" lon="12.286456525325775">
        <ele>2079.9499999999998</ele>
        <time>2015-07-14T06:18:08Z</time>
      </trkpt>
      <trkpt lat="46.560517502948642" lon="12.286324426531792">
        <ele>2077.0700000000002</ele>
        <time>2015-07-14T06:18:20Z</time>
      </trkpt>
      <trkpt lat="46.560448771342635" lon="12.286235159263015">
        <ele>2073.6999999999998</ele>
        <time>2015-07-14T06:18:31Z</time>
      </trkpt>
      <trkpt lat="46.560397055000067" lon="12.286082273349166">
        <ele>2071.3000000000002</ele>
        <time>2015-07-14T06:18:42Z</time>
      </trkpt>
      <trkpt lat="46.560369143262506" lon="12.285923855379224">
        <ele>2070.3400000000001</ele>
        <time>2015-07-14T06:18:54Z</time>
      </trkpt>
      <trkpt lat="46.560374423861504" lon="12.285910779610276">
        <ele>2069.8600000000001</ele>
        <time>2015-07-14T06:19:01Z</time>
      </trkpt>
      <trkpt lat="46.560347434133291" lon="12.285816734656692">
        <ele>2068.8899999999999</ele>
        <time>2015-07-14T06:19:08Z</time>
      </trkpt>
      <trkpt lat="46.560278283432126" lon="12.285660495981574">
        <ele>2066.0100000000002</ele>
        <time>2015-07-14T06:19:20Z</time>
      </trkpt>
      <trkpt lat="46.56024718657136" lon="12.28561875410378">
        <ele>2065.0500000000002</ele>
        <time>2015-07-14T06:19:24Z</time>
      </trkpt>
      <trkpt lat="46.560160014778376" lon="12.285575000569224">
        <ele>2063.6100000000001</ele>
        <time>2015-07-14T06:19:31Z</time>
      </trkpt>
      <trkpt lat="46.56006395816803" lon="12.285520518198609">
        <ele>2062.1700000000001</ele>
        <time>2015-07-14T06:19:40Z</time>
      </trkpt>
      <trkpt lat="46.559942755848169" lon="12.285450277850032">
        <ele>2059.7600000000002</ele>
        <time>2015-07-14T06:19:52Z</time>
      </trkpt>
      <trkpt lat="46.559811495244503" lon="12.285375008359551">
        <ele>2057.3600000000001</ele>
        <time>2015-07-14T06:20:06Z</time>
      </trkpt>
      <trkpt lat="46.55964863486588" lon="12.285264199599624">
        <ele>2055.4400000000001</ele>
        <time>2015-07-14T06:20:22Z</time>
      </trkpt>
      <trkpt lat="46.559511506929994" lon="12.285174764692783">
        <ele>2054.4699999999998</ele>
        <time>2015-07-14T06:20:35Z</time>
      </trkpt>
      <trkpt lat="46.559388544410467" lon="12.285038223490119">
        <ele>2053.5100000000002</ele>
        <time>2015-07-14T06:20:47Z</time>
      </trkpt>
      <trkpt lat="46.559274466708302" lon="12.284899419173598">
        <ele>2052.0700000000002</ele>
        <time>2015-07-14T06:21:00Z</time>
      </trkpt>
      <trkpt lat="46.559154940769076" lon="12.28475340642035">
        <ele>2050.1500000000001</ele>
        <time>2015-07-14T06:21:13Z</time>
      </trkpt>
      <trkpt lat="46.55902904458344" lon="12.284614518284798">
        <ele>2049.1900000000001</ele>
        <time>2015-07-14T06:21:27Z</time>
      </trkpt>
      <trkpt lat="46.558889821171761" lon="12.284452747553587">
        <ele>2047.75</ele>
        <time>2015-07-14T06:21:43Z</time>
      </trkpt>
      <trkpt lat="46.558792171999812" lon="12.284299610182643">
        <ele>2046.78</ele>
        <time>2015-07-14T06:21:54Z</time>
      </trkpt>
      <trkpt lat="46.558701312169433" lon="12.284064749255776">
        <ele>2045.8199999999999</ele>
        <time>2015-07-14T06:22:08Z</time>
      </trkpt>
      <trkpt lat="46.558595700189471" lon="12.283884454518557">
        <ele>2045.8199999999999</ele>
        <time>2015-07-14T06:22:22Z</time>
      </trkpt>
      <trkpt lat="46.558495033532381" lon="12.28374338708818">
        <ele>2045.8199999999999</ele>
        <time>2015-07-14T06:22:35Z</time>
      </trkpt>
      <trkpt lat="46.558421105146408" lon="12.283531157299876">
        <ele>2044.3800000000001</ele>
        <time>2015-07-14T06:22:49Z</time>
      </trkpt>
      <trkpt lat="46.5583869908005" lon="12.283396711573005">
        <ele>2041.02</ele>
        <time>2015-07-14T06:22:59Z</time>
      </trkpt>
      <trkpt lat="46.558387745171785" lon="12.283382210880518">
        <ele>2041.02</ele>
        <time>2015-07-14T06:23:00Z</time>
      </trkpt>
      <trkpt lat="46.558408616110682" lon="12.283083647489548">
        <ele>2038.6099999999999</ele>
        <time>2015-07-14T06:23:17Z</time>
      </trkpt>
      <trkpt lat="46.558440383523703" lon="12.282892959192395">
        <ele>2037.6500000000001</ele>
        <time>2015-07-14T06:23:29Z</time>
      </trkpt>
      <trkpt lat="46.558510875329375" lon="12.282683746889234">
        <ele>2036.21</ele>
        <time>2015-07-14T06:23:42Z</time>
      </trkpt>
      <trkpt lat="46.558544738218188" lon="12.282504960894585">
        <ele>2034.29</ele>
        <time>2015-07-14T06:23:53Z</time>
      </trkpt>
      <trkpt lat="46.558522526174784" lon="12.282280074432492">
        <ele>2031.8800000000001</ele>
        <time>2015-07-14T06:24:07Z</time>
      </trkpt>
      <trkpt lat="46.558513138443232" lon="12.282058205455542">
        <ele>2029.48</ele>
        <time>2015-07-14T06:24:20Z</time>
      </trkpt>
      <trkpt lat="46.558493357151747" lon="12.281885286793113">
        <ele>2028.04</ele>
        <time>2015-07-14T06:24:32Z</time>
      </trkpt>
      <trkpt lat="46.558451950550079" lon="12.281702142208815">
        <ele>2025.6400000000001</ele>
        <time>2015-07-14T06:24:44Z</time>
      </trkpt>
      <trkpt lat="46.558407945558429" lon="12.281539533287287">
        <ele>2023.23</ele>
        <time>2015-07-14T06:24:56Z</time>
      </trkpt>
      <trkpt lat="46.558374166488647" lon="12.281356137245893">
        <ele>2021.3099999999999</ele>
        <time>2015-07-14T06:25:08Z</time>
      </trkpt>
      <trkpt lat="46.55836352147162" lon="12.281255554407835">
        <ele>2019.8699999999999</ele>
        <time>2015-07-14T06:25:15Z</time>
      </trkpt>
      <trkpt lat="46.558387577533722" lon="12.281056148931384">
        <ele>2017.9400000000001</ele>
        <time>2015-07-14T06:25:28Z</time>
      </trkpt>
      <trkpt lat="46.558426804840565" lon="12.280928241088986">
        <ele>2016.02</ele>
        <time>2015-07-14T06:25:38Z</time>
      </trkpt>
      <trkpt lat="46.558475084602833" lon="12.280815001577139">
        <ele>2014.5799999999999</ele>
        <time>2015-07-14T06:25:49Z</time>
      </trkpt>
      <trkpt lat="46.558564435690641" lon="12.280680220574141">
        <ele>2011.7</ele>
        <time>2015-07-14T06:26:01Z</time>
      </trkpt>
      <trkpt lat="46.558630233630538" lon="12.280544014647603">
        <ele>2010.73</ele>
        <time>2015-07-14T06:26:13Z</time>
      </trkpt>
      <trkpt lat="46.558696953579783" lon="12.280424907803535">
        <ele>2007.8499999999999</ele>
        <time>2015-07-14T06:26:26Z</time>
      </trkpt>
      <trkpt lat="46.558749675750732" lon="12.280344190075994">
        <ele>2004.49</ele>
        <time>2015-07-14T06:26:37Z</time>
      </trkpt>
      <trkpt lat="46.558813462033868" lon="12.280261293053627">
        <ele>2002.0799999999999</ele>
        <time>2015-07-14T06:26:47Z</time>
      </trkpt>
      <trkpt lat="46.558828465640545" lon="12.280244277790189">
        <ele>2001.5999999999999</ele>
        <time>2015-07-14T06:26:49Z</time>
      </trkpt>
      <trkpt lat="46.558897197246552" lon="12.280068676918745">
        <ele>1998.72</ele>
        <time>2015-07-14T06:27:02Z</time>
      </trkpt>
      <trkpt lat="46.558953272178769" lon="12.279968177899718">
        <ele>1998.24</ele>
        <time>2015-07-14T06:27:10Z</time>
      </trkpt>
      <trkpt lat="46.558994092047215" lon="12.279965998604894">
        <ele>1997.76</ele>
        <time>2015-07-14T06:27:14Z</time>
      </trkpt>
      <trkpt lat="46.559101715683937" lon="12.279994580894709">
        <ele>1997.28</ele>
        <time>2015-07-14T06:27:25Z</time>
      </trkpt>
      <trkpt lat="46.559237586334348" lon="12.280057445168495">
        <ele>1994.8699999999999</ele>
        <time>2015-07-14T06:27:38Z</time>
      </trkpt>
      <trkpt lat="46.55925233848393" lon="12.280063983052969">
        <ele>1994.3900000000001</ele>
        <time>2015-07-14T06:27:40Z</time>
      </trkpt>
      <trkpt lat="46.559401536360383" lon="12.280157105997205">
        <ele>1993.9100000000001</ele>
        <time>2015-07-14T06:27:53Z</time>
      </trkpt>
      <trkpt lat="46.559565905481577" lon="12.28019742295146">
        <ele>1994.3900000000001</ele>
        <time>2015-07-14T06:28:05Z</time>
      </trkpt>
      <trkpt lat="46.559663387015462" lon="12.28017252869904">
        <ele>1992.47</ele>
        <time>2015-07-14T06:28:16Z</time>
      </trkpt>
      <trkpt lat="46.559804370626807" lon="12.280096421018243">
        <ele>1989.5899999999999</ele>
        <time>2015-07-14T06:28:29Z</time>
      </trkpt>
      <trkpt lat="46.559885842725635" lon="12.279999190941453">
        <ele>1987.1800000000001</ele>
        <time>2015-07-14T06:28:37Z</time>
      </trkpt>
      <trkpt lat="46.559971338137984" lon="12.279752092435956">
        <ele>1986.22</ele>
        <time>2015-07-14T06:28:53Z</time>
      </trkpt>
      <trkpt lat="46.559969326481223" lon="12.279587555676699">
        <ele>1983.8199999999999</ele>
        <time>2015-07-14T06:29:04Z</time>
      </trkpt>
      <trkpt lat="46.559979468584061" lon="12.27949820458889">
        <ele>1983.3399999999999</ele>
        <time>2015-07-14T06:29:10Z</time>
      </trkpt>
      <trkpt lat="46.560018947347999" lon="12.279304079711437">
        <ele>1981.4100000000001</ele>
        <time>2015-07-14T06:29:24Z</time>
      </trkpt>
      <trkpt lat="46.560067143291235" lon="12.279065530747175">
        <ele>1979.01</ele>
        <time>2015-07-14T06:29:38Z</time>
      </trkpt>
      <trkpt lat="46.560077788308263" lon="12.278871489688754">
        <ele>1978.05</ele>
        <time>2015-07-14T06:29:50Z</time>
      </trkpt>
      <trkpt lat="46.560106202960014" lon="12.278622798621655">
        <ele>1975.6500000000001</ele>
        <time>2015-07-14T06:30:03Z</time>
      </trkpt>
      <trkpt lat="46.560155237093568" lon="12.278445102274418">
        <ele>1974.2</ele>
        <time>2015-07-14T06:30:15Z</time>
      </trkpt>
      <trkpt lat="46.560298567637801" lon="12.278325576335192">
        <ele>1971.8</ele>
        <time>2015-07-14T06:30:28Z</time>
      </trkpt>
      <trkpt lat="46.560338549315929" lon="12.278283583000302">
        <ele>1970.8399999999999</ele>
        <time>2015-07-14T06:30:32Z</time>
      </trkpt>
      <trkpt lat="46.560372244566679" lon="12.27824485860765">
        <ele>1970.3599999999999</ele>
        <time>2015-07-14T06:30:36Z</time>
      </trkpt>
      <trkpt lat="46.560490764677525" lon="12.278060624375939">
        <ele>1967.48</ele>
        <time>2015-07-14T06:30:52Z</time>
      </trkpt>
      <trkpt lat="46.560592940077186" lon="12.277877982705832">
        <ele>1966.03</ele>
        <time>2015-07-14T06:31:05Z</time>
      </trkpt>
      <trkpt lat="46.560612386092544" lon="12.277838671579957">
        <ele>1966.51</ele>
        <time>2015-07-14T06:31:08Z</time>
      </trkpt>
      <trkpt lat="46.560681788250804" lon="12.277700370177627">
        <ele>1968.4400000000001</ele>
        <time>2015-07-14T06:31:20Z</time>
      </trkpt>
      <trkpt lat="46.560770552605391" lon="12.277542538940907">
        <ele>1969.8800000000001</ele>
        <time>2015-07-14T06:31:33Z</time>
      </trkpt>
      <trkpt lat="46.560810366645455" lon="12.277470203116536">
        <ele>1970.3599999999999</ele>
        <time>2015-07-14T06:31:40Z</time>
      </trkpt>
      <trkpt lat="46.560940537601709" lon="12.277386132627726">
        <ele>1969.4000000000001</ele>
        <time>2015-07-14T06:31:52Z</time>
      </trkpt>
      <trkpt lat="46.561076324433088" lon="12.277198880910873">
        <ele>1968.9200000000001</ele>
        <time>2015-07-14T06:32:07Z</time>
      </trkpt>
      <trkpt lat="46.561177410185337" lon="12.277073739096522">
        <ele>1967.96</ele>
        <time>2015-07-14T06:32:18Z</time>
      </trkpt>
      <trkpt lat="46.56121470965445" lon="12.276987824589014">
        <ele>1967.96</ele>
        <time>2015-07-14T06:32:26Z</time>
      </trkpt>
      <trkpt lat="46.561315376311541" lon="12.276840638369322">
        <ele>1968.4400000000001</ele>
        <time>2015-07-14T06:32:39Z</time>
      </trkpt>
      <trkpt lat="46.561383521184325" lon="12.276706611737609">
        <ele>1968.9200000000001</ele>
        <time>2015-07-14T06:32:49Z</time>
      </trkpt>
      <trkpt lat="46.561406152322888" lon="12.276656571775675">
        <ele>1968.9200000000001</ele>
        <time>2015-07-14T06:32:53Z</time>
      </trkpt>
      <trkpt lat="46.561482595279813" lon="12.276535369455814">
        <ele>1969.8800000000001</ele>
        <time>2015-07-14T06:33:04Z</time>
      </trkpt>
      <trkpt lat="46.561574209481478" lon="12.276400504633784">
        <ele>1970.8399999999999</ele>
        <time>2015-07-14T06:33:17Z</time>
      </trkpt>
      <trkpt lat="46.561695244163275" lon="12.276291875168681">
        <ele>1971.3199999999999</ele>
        <time>2015-07-14T06:33:29Z</time>
      </trkpt>
      <trkpt lat="46.561808483675122" lon="12.276189113035798">
        <ele>1973.24</ele>
        <time>2015-07-14T06:33:42Z</time>
      </trkpt>
      <trkpt lat="46.561938319355249" lon="12.276122728362679">
        <ele>1974.6900000000001</ele>
        <time>2015-07-14T06:33:55Z</time>
      </trkpt>
      <trkpt lat="46.561946282163262" lon="12.276121135801077">
        <ele>1974.2</ele>
        <time>2015-07-14T06:33:56Z</time>
      </trkpt>
      <trkpt lat="46.562065808102489" lon="12.276088278740644">
        <ele>1976.1300000000001</ele>
        <time>2015-07-14T06:34:10Z</time>
      </trkpt>
      <trkpt lat="46.562174102291465" lon="12.276044273748994">
        <ele>1979.01</ele>
        <time>2015-07-14T06:34:22Z</time>
      </trkpt>
      <trkpt lat="46.562260519713163" lon="12.276013847440481">
        <ele>1978.53</ele>
        <time>2015-07-14T06:34:32Z</time>
      </trkpt>
      <trkpt lat="46.562399491667747" lon="12.275988114997745">
        <ele>1979.97</ele>
        <time>2015-07-14T06:34:46Z</time>
      </trkpt>
      <trkpt lat="46.562516335397959" lon="12.275998760014772">
        <ele>1981.4100000000001</ele>
        <time>2015-07-14T06:34:58Z</time>
      </trkpt>
      <trkpt lat="46.562597304582596" lon="12.276013512164354">
        <ele>1982.8599999999999</ele>
        <time>2015-07-14T06:35:10Z</time>
      </trkpt>
      <trkpt lat="46.56270844861865" lon="12.276019295677543">
        <ele>1984.78</ele>
        <time>2015-07-14T06:35:23Z</time>
      </trkpt>
      <trkpt lat="46.562733678147197" lon="12.27589507587254">
        <ele>1985.74</ele>
        <time>2015-07-14T06:35:35Z</time>
      </trkpt>
      <trkpt lat="46.562727894634008" lon="12.275845119729638">
        <ele>1985.74</ele>
        <time>2015-07-14T06:35:40Z</time>
      </trkpt>
      <trkpt lat="46.562686655670404" lon="12.275734143331647">
        <ele>1986.22</ele>
        <time>2015-07-14T06:35:49Z</time>
      </trkpt>
      <trkpt lat="46.56270207837224" lon="12.27561553940177">
        <ele>1986.7</ele>
        <time>2015-07-14T06:35:56Z</time>
      </trkpt>
      <trkpt lat="46.56280274502933" lon="12.275467179715633">
        <ele>1987.1800000000001</ele>
        <time>2015-07-14T06:36:09Z</time>
      </trkpt>
      <trkpt lat="46.562891425564885" lon="12.275291914120317">
        <ele>1987.1800000000001</ele>
        <time>2015-07-14T06:36:22Z</time>
      </trkpt>
      <trkpt lat="46.562932915985584" lon="12.275195270776749">
        <ele>1987.6600000000001</ele>
        <time>2015-07-14T06:36:29Z</time>
      </trkpt>
      <trkpt lat="46.562948757782578" lon="12.275138357654214">
        <ele>1988.1400000000001</ele>
        <time>2015-07-14T06:36:33Z</time>
      </trkpt>
      <trkpt lat="46.562967365607619" lon="12.274990417063236">
        <ele>1988.1400000000001</ele>
        <time>2015-07-14T06:36:42Z</time>
      </trkpt>
      <trkpt lat="46.562984548509121" lon="12.274870472028852">
        <ele>1988.6199999999999</ele>
        <time>2015-07-14T06:36:53Z</time>
      </trkpt>
      <trkpt lat="46.562999971210957" lon="12.274864269420505">
        <ele>1988.1400000000001</ele>
        <time>2015-07-14T06:37:03Z</time>
      </trkpt>
      <trkpt lat="46.563110779970884" lon="12.274799644947052">
        <ele>1988.6199999999999</ele>
        <time>2015-07-14T06:37:15Z</time>
      </trkpt>
      <trkpt lat="46.563120586797595" lon="12.274800566956401">
        <ele>1988.6199999999999</ele>
        <time>2015-07-14T06:37:16Z</time>
      </trkpt>
      <trkpt lat="46.56323567032814" lon="12.274818001314998">
        <ele>1988.6199999999999</ele>
        <time>2015-07-14T06:37:27Z</time>
      </trkpt>
      <trkpt lat="46.563419234007597" lon="12.274844236671925">
        <ele>1989.0999999999999</ele>
        <time>2015-07-14T06:37:43Z</time>
      </trkpt>
      <trkpt lat="46.563592487946153" lon="12.274838369339705">
        <ele>1989.5899999999999</ele>
        <time>2015-07-14T06:37:59Z</time>
      </trkpt>
      <trkpt lat="46.563688879832625" lon="12.274814313277602">
        <ele>1989.5899999999999</ele>
        <time>2015-07-14T06:38:08Z</time>
      </trkpt>
      <trkpt lat="46.563824247568846" lon="12.274630246683955">
        <ele>1989.5899999999999</ele>
        <time>2015-07-14T06:38:23Z</time>
      </trkpt>
      <trkpt lat="46.563937487080693" lon="12.274498734623194">
        <ele>1989.5899999999999</ele>
        <time>2015-07-14T06:38:35Z</time>
      </trkpt>
      <trkpt lat="46.564079308882356" lon="12.274441234767437">
        <ele>1991.03</ele>
        <time>2015-07-14T06:38:50Z</time>
      </trkpt>
      <trkpt lat="46.564149465411901" lon="12.274446850642562">
        <ele>1991.99</ele>
        <time>2015-07-14T06:38:57Z</time>
      </trkpt>
      <trkpt lat="46.564293131232262" lon="12.274458920583129">
        <ele>1992.95</ele>
        <time>2015-07-14T06:39:11Z</time>
      </trkpt>
      <trkpt lat="46.56431894749403" lon="12.274454226717353">
        <ele>1993.4300000000001</ele>
        <time>2015-07-14T06:39:14Z</time>
      </trkpt>
      <trkpt lat="46.564448783174157" lon="12.274384489282966">
        <ele>1994.3900000000001</ele>
        <time>2015-07-14T06:39:27Z</time>
      </trkpt>
      <trkpt lat="46.564568309113383" lon="12.274318356066942">
        <ele>1994.8699999999999</ele>
        <time>2015-07-14T06:39:38Z</time>
      </trkpt>
      <trkpt lat="46.564621031284332" lon="12.274256581440568">
        <ele>1995.3499999999999</ele>
        <time>2015-07-14T06:39:44Z</time>
      </trkpt>
      <trkpt lat="46.564720692113042" lon="12.274070335552096">
        <ele>1996.3199999999999</ele>
        <time>2015-07-14T06:39:58Z</time>
      </trkpt>
      <trkpt lat="46.564808283001184" lon="12.273938069120049">
        <ele>1996.3199999999999</ele>
        <time>2015-07-14T06:40:09Z</time>
      </trkpt>
      <trkpt lat="46.564865363761783" lon="12.273795576766133">
        <ele>1997.28</ele>
        <time>2015-07-14T06:40:20Z</time>
      </trkpt>
      <trkpt lat="46.564871063455939" lon="12.273749141022563">
        <ele>1997.76</ele>
        <time>2015-07-14T06:40:23Z</time>
      </trkpt>
      <trkpt lat="46.564884725958109" lon="12.273709997534752">
        <ele>1997.76</ele>
        <time>2015-07-14T06:40:26Z</time>
      </trkpt>
      <trkpt lat="46.564915738999844" lon="12.273574126884341">
        <ele>1998.24</ele>
        <time>2015-07-14T06:40:36Z</time>
      </trkpt>
      <trkpt lat="46.564927976578474" lon="12.273548729717731">
        <ele>1998.72</ele>
        <time>2015-07-14T06:40:38Z</time>
      </trkpt>
      <trkpt lat="46.564962342381477" lon="12.273384360596538">
        <ele>1999.2</ele>
        <time>2015-07-14T06:40:49Z</time>
      </trkpt>
      <trkpt lat="46.564998803660274" lon="12.273246143013239">
        <ele>2000.1600000000001</ele>
        <time>2015-07-14T06:40:59Z</time>
      </trkpt>
      <trkpt lat="46.565015483647585" lon="12.273187385872006">
        <ele>2000.6400000000001</ele>
        <time>2015-07-14T06:41:03Z</time>
      </trkpt>
      <trkpt lat="46.565053956583142" lon="12.273012287914753">
        <ele>2001.1199999999999</ele>
        <time>2015-07-14T06:41:15Z</time>
      </trkpt>
      <trkpt lat="46.565071307122707" lon="12.272971635684371">
        <ele>2001.5999999999999</ele>
        <time>2015-07-14T06:41:18Z</time>
      </trkpt>
      <trkpt lat="46.565084299072623" lon="12.272950932383537">
        <ele>2001.5999999999999</ele>
        <time>2015-07-14T06:41:20Z</time>
      </trkpt>
      <trkpt lat="46.565154874697328" lon="12.272782456129789">
        <ele>2002.5599999999999</ele>
        <time>2015-07-14T06:41:33Z</time>
      </trkpt>
      <trkpt lat="46.565233245491982" lon="12.272640718147159">
        <ele>2004.01</ele>
        <time>2015-07-14T06:41:45Z</time>
      </trkpt>
      <trkpt lat="46.565325614064932" lon="12.272520437836647">
        <ele>2004.97</ele>
        <time>2015-07-14T06:41:57Z</time>
      </trkpt>
      <trkpt lat="46.565404990687966" lon="12.272406192496419">
        <ele>2005.9300000000001</ele>
        <time>2015-07-14T06:42:09Z</time>
      </trkpt>
      <trkpt lat="46.565493000671268" lon="12.272244673222303">
        <ele>2007.3699999999999</ele>
        <time>2015-07-14T06:42:23Z</time>
      </trkpt>
      <trkpt lat="46.565512614324689" lon="12.272216593846679">
        <ele>2007.8499999999999</ele>
        <time>2015-07-14T06:42:26Z</time>
      </trkpt>
      <trkpt lat="46.565602971240878" lon="12.272122045978904">
        <ele>2009.77</ele>
        <time>2015-07-14T06:42:38Z</time>
      </trkpt>
      <trkpt lat="46.5656484849751" lon="12.272074185311794">
        <ele>2010.25</ele>
        <time>2015-07-14T06:42:44Z</time>
      </trkpt>
      <trkpt lat="46.565692154690623" lon="12.272016350179911">
        <ele>2011.22</ele>
        <time>2015-07-14T06:42:51Z</time>
      </trkpt>
      <trkpt lat="46.565817715600133" lon="12.271903697401285">
        <ele>2012.1800000000001</ele>
        <time>2015-07-14T06:43:05Z</time>
      </trkpt>
      <trkpt lat="46.565899439156055" lon="12.271754583343863">
        <ele>2013.1400000000001</ele>
        <time>2015-07-14T06:43:17Z</time>
      </trkpt>
      <trkpt lat="46.565927686169744" lon="12.271660454571247">
        <ele>2014.0999999999999</ele>
        <time>2015-07-14T06:43:25Z</time>
      </trkpt>
      <trkpt lat="46.566027514636517" lon="12.271542437374592">
        <ele>2015.0599999999999</ele>
        <time>2015-07-14T06:43:38Z</time>
      </trkpt>
      <trkpt lat="46.566047295928001" lon="12.271537659689784">
        <ele>2015.54</ele>
        <time>2015-07-14T06:43:40Z</time>
      </trkpt>
      <trkpt lat="46.566184172406793" lon="12.271567834541202">
        <ele>2016.02</ele>
        <time>2015-07-14T06:43:52Z</time>
      </trkpt>
      <trkpt lat="46.566211748868227" lon="12.271549813449383">
        <ele>2016.5</ele>
        <time>2015-07-14T06:43:55Z</time>
      </trkpt>
      <trkpt lat="46.566315349191427" lon="12.271468173712492">
        <ele>2017.46</ele>
        <time>2015-07-14T06:44:07Z</time>
      </trkpt>
      <trkpt lat="46.566419620066881" lon="12.271446799859405">
        <ele>2017.46</ele>
        <time>2015-07-14T06:44:16Z</time>
      </trkpt>
      <trkpt lat="46.566471252590418" lon="12.271406399086118">
        <ele>2017.46</ele>
        <time>2015-07-14T06:44:21Z</time>
      </trkpt>
      <trkpt lat="46.566540487110615" lon="12.271225517615676">
        <ele>2017.9400000000001</ele>
        <time>2015-07-14T06:44:34Z</time>
      </trkpt>
      <trkpt lat="46.566661857068539" lon="12.271093167364597">
        <ele>2018.4300000000001</ele>
        <time>2015-07-14T06:44:47Z</time>
      </trkpt>
      <trkpt lat="46.566708292812109" lon="12.27103172801435">
        <ele>2018.9100000000001</ele>
        <time>2015-07-14T06:44:53Z</time>
      </trkpt>
      <trkpt lat="46.566753974184394" lon="12.270717741921544">
        <ele>2019.3900000000001</ele>
        <time>2015-07-14T06:45:13Z</time>
      </trkpt>
      <trkpt lat="46.566749531775713" lon="12.270512888208032">
        <ele>2019.8699999999999</ele>
        <time>2015-07-14T06:45:25Z</time>
      </trkpt>
      <trkpt lat="46.566704856231809" lon="12.270306777209044">
        <ele>2020.8299999999999</ele>
        <time>2015-07-14T06:45:38Z</time>
      </trkpt>
      <trkpt lat="46.566685494035482" lon="12.27009697817266">
        <ele>2020.3499999999999</ele>
        <time>2015-07-14T06:45:51Z</time>
      </trkpt>
      <trkpt lat="46.566653391346335" lon="12.2698565851897">
        <ele>2020.3499999999999</ele>
        <time>2015-07-14T06:46:05Z</time>
      </trkpt>
      <trkpt lat="46.566641572862864" lon="12.269678888842463">
        <ele>2020.3499999999999</ele>
        <time>2015-07-14T06:46:17Z</time>
      </trkpt>
      <trkpt lat="46.566660096868873" lon="12.269436400383711">
        <ele>2020.3499999999999</ele>
        <time>2015-07-14T06:46:31Z</time>
      </trkpt>
      <trkpt lat="46.566699659451842" lon="12.269242610782385">
        <ele>2020.8299999999999</ele>
        <time>2015-07-14T06:46:43Z</time>
      </trkpt>
      <trkpt lat="46.566739305853844" lon="12.269063573330641">
        <ele>2020.8299999999999</ele>
        <time>2015-07-14T06:46:53Z</time>
      </trkpt>
      <trkpt lat="46.566789010539651" lon="12.268916554749012">
        <ele>2021.3099999999999</ele>
        <time>2015-07-14T06:47:02Z</time>
      </trkpt>
      <trkpt lat="46.566804517060518" lon="12.26883533410728">
        <ele>2020.8299999999999</ele>
        <time>2015-07-14T06:47:07Z</time>
      </trkpt>
      <trkpt lat="46.566836452111602" lon="12.268668282777071">
        <ele>2021.3099999999999</ele>
        <time>2015-07-14T06:47:17Z</time>
      </trkpt>
      <trkpt lat="46.566864280030131" lon="12.268567197024822">
        <ele>2021.3099999999999</ele>
        <time>2015-07-14T06:47:23Z</time>
      </trkpt>
      <trkpt lat="46.566907530650496" lon="12.268317164853215">
        <ele>2022.27</ele>
        <time>2015-07-14T06:47:38Z</time>
      </trkpt>
      <trkpt lat="46.566849444061518" lon="12.268100576475263">
        <ele>2023.71</ele>
        <time>2015-07-14T06:47:54Z</time>
      </trkpt>
      <trkpt lat="46.566806612536311" lon="12.267911229282618">
        <ele>2024.6700000000001</ele>
        <time>2015-07-14T06:48:08Z</time>
      </trkpt>
      <trkpt lat="46.566751794889569" lon="12.267717774957418">
        <ele>2025.6400000000001</ele>
        <time>2015-07-14T06:48:22Z</time>
      </trkpt>
      <trkpt lat="46.566705862060189" lon="12.267568577080965">
        <ele>2025.6400000000001</ele>
        <time>2015-07-14T06:48:33Z</time>
      </trkpt>
      <trkpt lat="46.566684655845165" lon="12.267492217943072">
        <ele>2027.0799999999999</ele>
        <time>2015-07-14T06:48:38Z</time>
      </trkpt>
      <trkpt lat="46.566653056070209" lon="12.267316114157438">
        <ele>2028.04</ele>
        <time>2015-07-14T06:48:50Z</time>
      </trkpt>
      <trkpt lat="46.566629754379392" lon="12.267124000936747">
        <ele>2029</ele>
        <time>2015-07-14T06:49:03Z</time>
      </trkpt>
      <trkpt lat="46.566646015271544" lon="12.266925852745771">
        <ele>2029.48</ele>
        <time>2015-07-14T06:49:15Z</time>
      </trkpt>
      <trkpt lat="46.566661018878222" lon="12.266883859410882">
        <ele>2029.96</ele>
        <time>2015-07-14T06:49:18Z</time>
      </trkpt>
      <trkpt lat="46.566673675552011" lon="12.266845302656293">
        <ele>2029.96</ele>
        <time>2015-07-14T06:49:21Z</time>
      </trkpt>
      <trkpt lat="46.566757829859853" lon="12.266661319881678">
        <ele>2030.4400000000001</ele>
        <time>2015-07-14T06:49:34Z</time>
      </trkpt>
      <trkpt lat="46.566862016916275" lon="12.266483539715409">
        <ele>2030.9200000000001</ele>
        <time>2015-07-14T06:49:48Z</time>
      </trkpt>
      <trkpt lat="46.56696729362011" lon="12.266314728185534">
        <ele>2031.4000000000001</ele>
        <time>2015-07-14T06:50:01Z</time>
      </trkpt>
      <trkpt lat="46.567042814567685" lon="12.266129236668348">
        <ele>2031.4000000000001</ele>
        <time>2015-07-14T06:50:14Z</time>
      </trkpt>
      <trkpt lat="46.567082293331623" lon="12.265958748757839">
        <ele>2031.8800000000001</ele>
        <time>2015-07-14T06:50:26Z</time>
      </trkpt>
      <trkpt lat="46.567085646092892" lon="12.265794379636645">
        <ele>2032.3599999999999</ele>
        <time>2015-07-14T06:50:37Z</time>
      </trkpt>
      <trkpt lat="46.56713199801743" lon="12.26558793336153">
        <ele>2032.8399999999999</ele>
        <time>2015-07-14T06:50:50Z</time>
      </trkpt>
      <trkpt lat="46.567188994958997" lon="12.265428677201271">
        <ele>2033.8099999999999</ele>
        <time>2015-07-14T06:51:02Z</time>
      </trkpt>
      <trkpt lat="46.56728002242744" lon="12.265308732166886">
        <ele>2034.77</ele>
        <time>2015-07-14T06:51:14Z</time>
      </trkpt>
      <trkpt lat="46.567295026034117" lon="12.265270594507456">
        <ele>2035.25</ele>
        <time>2015-07-14T06:51:17Z</time>
      </trkpt>
      <trkpt lat="46.567314555868506" lon="12.265204628929496">
        <ele>2036.21</ele>
        <time>2015-07-14T06:51:23Z</time>
      </trkpt>
      <trkpt lat="46.567319165915251" lon="12.26514327339828">
        <ele>2036.21</ele>
        <time>2015-07-14T06:51:27Z</time>
      </trkpt>
      <trkpt lat="46.567316316068172" lon="12.264914950355887">
        <ele>2037.6500000000001</ele>
        <time>2015-07-14T06:51:42Z</time>
      </trkpt>
      <trkpt lat="46.567295948043466" lon="12.264740942046046">
        <ele>2038.6099999999999</ele>
        <time>2015-07-14T06:51:54Z</time>
      </trkpt>
      <trkpt lat="46.567247752100229" lon="12.264517564326525">
        <ele>2040.05</ele>
        <time>2015-07-14T06:52:09Z</time>
      </trkpt>
      <trkpt lat="46.567206345498562" lon="12.264329558238387">
        <ele>2041.5</ele>
        <time>2015-07-14T06:52:22Z</time>
      </trkpt>
      <trkpt lat="46.567156640812755" lon="12.264111461117864">
        <ele>2042.9400000000001</ele>
        <time>2015-07-14T06:52:37Z</time>
      </trkpt>
      <trkpt lat="46.567158065736294" lon="12.263998305425048">
        <ele>2044.3800000000001</ele>
        <time>2015-07-14T06:52:49Z</time>
      </trkpt>
      <trkpt lat="46.567167956382036" lon="12.26396125741303">
        <ele>2044.3800000000001</ele>
        <time>2015-07-14T06:53:03Z</time>
      </trkpt>
      <trkpt lat="46.567221432924271" lon="12.263877186924219">
        <ele>2046.3</ele>
        <time>2015-07-14T06:53:12Z</time>
      </trkpt>
      <trkpt lat="46.567345736548305" lon="12.26384449750185">
        <ele>2048.23</ele>
        <time>2015-07-14T06:53:26Z</time>
      </trkpt>
      <trkpt lat="46.567462328821421" lon="12.263829242438078">
        <ele>2050.1500000000001</ele>
        <time>2015-07-14T06:53:39Z</time>
      </trkpt>
      <trkpt lat="46.567620579153299" lon="12.263811640441418">
        <ele>2051.5900000000001</ele>
        <time>2015-07-14T06:53:52Z</time>
      </trkpt>
      <trkpt lat="46.567719737067819" lon="12.263793367892504">
        <ele>2052.5500000000002</ele>
        <time>2015-07-14T06:54:04Z</time>
      </trkpt>
      <trkpt lat="46.567842196673155" lon="12.263790015131235">
        <ele>2054.4699999999998</ele>
        <time>2015-07-14T06:54:17Z</time>
      </trkpt>
      <trkpt lat="46.567942695692182" lon="12.263818262144923">
        <ele>2055.4400000000001</ele>
        <time>2015-07-14T06:54:27Z</time>
      </trkpt>
      <trkpt lat="46.568085271865129" lon="12.263883221894503">
        <ele>2056.8800000000001</ele>
        <time>2015-07-14T06:54:39Z</time>
      </trkpt>
      <trkpt lat="46.568178227171302" lon="12.263879366219044">
        <ele>2058.3200000000002</ele>
        <time>2015-07-14T06:54:49Z</time>
      </trkpt>
      <trkpt lat="46.568305632099509" lon="12.263854220509529">
        <ele>2059.7600000000002</ele>
        <time>2015-07-14T06:55:02Z</time>
      </trkpt>
      <trkpt lat="46.568438736721873" lon="12.263839216902852">
        <ele>2060.7199999999998</ele>
        <time>2015-07-14T06:55:15Z</time>
      </trkpt>
      <trkpt lat="46.568622719496489" lon="12.263926221057773">
        <ele>2061.1999999999998</ele>
        <time>2015-07-14T06:55:30Z</time>
      </trkpt>
      <trkpt lat="46.568765714764595" lon="12.264036443084478">
        <ele>2059.7600000000002</ele>
        <time>2015-07-14T06:55:44Z</time>
      </trkpt>
      <trkpt lat="46.56891155987978" lon="12.264080950990319">
        <ele>2058.8000000000002</ele>
        <time>2015-07-14T06:55:56Z</time>
      </trkpt>
      <trkpt lat="46.569088250398636" lon="12.264111042022705">
        <ele>2058.8000000000002</ele>
        <time>2015-07-14T06:56:10Z</time>
      </trkpt>
      <trkpt lat="46.569251613691449" lon="12.264221431687474">
        <ele>2057.8400000000001</ele>
        <time>2015-07-14T06:56:23Z</time>
      </trkpt>
      <trkpt lat="46.56938455067575" lon="12.264246912673116">
        <ele>2056.8800000000001</ele>
        <time>2015-07-14T06:56:35Z</time>
      </trkpt>
      <trkpt lat="46.569522935897112" lon="12.264248672872782">
        <ele>2056.8800000000001</ele>
        <time>2015-07-14T06:56:46Z</time>
      </trkpt>
      <trkpt lat="46.56951111741364" lon="12.264252360910177">
        <ele>2057.3600000000001</ele>
        <time>2015-07-14T06:56:54Z</time>
      </trkpt>
      <trkpt lat="46.569510027766228" lon="12.264252612367272">
        <ele>2056.8800000000001</ele>
        <time>2015-07-14T06:57:10Z</time>
      </trkpt>
      <trkpt lat="46.569509692490101" lon="12.264251941815019">
        <ele>2057.3600000000001</ele>
        <time>2015-07-14T06:57:20Z</time>
      </trkpt>
      <trkpt lat="46.569514386355877" lon="12.26427742280066">
        <ele>2057.3600000000001</ele>
        <time>2015-07-14T06:57:29Z</time>
      </trkpt>
      <trkpt lat="46.56951941549778" lon="12.264261413365602">
        <ele>2057.3600000000001</ele>
        <time>2015-07-14T06:57:44Z</time>
      </trkpt>
      <trkpt lat="46.569548416882753" lon="12.264249846339226">
        <ele>2056.8800000000001</ele>
        <time>2015-07-14T06:57:57Z</time>
      </trkpt>
      <trkpt lat="46.569553446024656" lon="12.264262167736888">
        <ele>2056.8800000000001</ele>
        <time>2015-07-14T06:58:07Z</time>
      </trkpt>
      <trkpt lat="46.569554032757878" lon="12.26425789296627">
        <ele>2056.8800000000001</ele>
        <time>2015-07-14T06:58:09Z</time>
      </trkpt>
      <trkpt lat="46.569564007222652" lon="12.264213804155588">
        <ele>2056.4000000000001</ele>
        <time>2015-07-14T06:58:20Z</time>
      </trkpt>
      <trkpt lat="46.569557636976242" lon="12.264216737821698">
        <ele>2055.4400000000001</ele>
        <time>2015-07-14T06:58:29Z</time>
      </trkpt>
      <trkpt lat="46.569550847634673" lon="12.26424615830183">
        <ele>2055.4400000000001</ele>
        <time>2015-07-14T06:58:42Z</time>
      </trkpt>
      <trkpt lat="46.569533832371235" lon="12.264271471649408">
        <ele>2055.4400000000001</ele>
        <time>2015-07-14T06:58:58Z</time>
      </trkpt>
      <trkpt lat="46.569545986130834" lon="12.264262083917856">
        <ele>2054.96</ele>
        <time>2015-07-14T06:59:08Z</time>
      </trkpt>
      <trkpt lat="46.569559229537845" lon="12.264207517728209">
        <ele>2056.4000000000001</ele>
        <time>2015-07-14T06:59:17Z</time>
      </trkpt>
      <trkpt lat="46.569567024707794" lon="12.264195950701833">
        <ele>2056.4000000000001</ele>
        <time>2015-07-14T06:59:29Z</time>
      </trkpt>
      <trkpt lat="46.569555792957544" lon="12.264242889359593">
        <ele>2056.4000000000001</ele>
        <time>2015-07-14T06:59:51Z</time>
      </trkpt>
      <trkpt lat="46.569545902311802" lon="12.264248505234718">
        <ele>2056.8800000000001</ele>
        <time>2015-07-14T06:59:53Z</time>
      </trkpt>
      <trkpt lat="46.569531820714474" lon="12.264278177171946">
        <ele>2056.4000000000001</ele>
        <time>2015-07-14T07:00:04Z</time>
      </trkpt>
      <trkpt lat="46.569528384134173" lon="12.264293432235718">
        <ele>2056.8800000000001</ele>
        <time>2015-07-14T07:00:18Z</time>
      </trkpt>
      <trkpt lat="46.569555290043354" lon="12.264262838289142">
        <ele>2056.8800000000001</ele>
        <time>2015-07-14T07:00:36Z</time>
      </trkpt>
      <trkpt lat="46.569572892040014" lon="12.264259820804">
        <ele>2056.8800000000001</ele>
        <time>2015-07-14T07:00:50Z</time>
      </trkpt>
      <trkpt lat="46.56955361366272" lon="12.26428035646677">
        <ele>2057.3600000000001</ele>
        <time>2015-07-14T07:01:08Z</time>
      </trkpt>
      <trkpt lat="46.569536263123155" lon="12.264276752248406">
        <ele>2057.3600000000001</ele>
        <time>2015-07-14T07:01:24Z</time>
      </trkpt>
      <trkpt lat="46.569524025544524" lon="12.264274237677455">
        <ele>2057.3600000000001</ele>
        <time>2015-07-14T07:01:38Z</time>
      </trkpt>
      <trkpt lat="46.569553948938847" lon="12.26425152271986">
        <ele>2057.8400000000001</ele>
        <time>2015-07-14T07:01:43Z</time>
      </trkpt>
      <trkpt lat="46.569564677774906" lon="12.264247415587306">
        <ele>2056.8800000000001</ele>
        <time>2015-07-14T07:01:53Z</time>
      </trkpt>
      <trkpt lat="46.56952234916389" lon="12.26425202563405">
        <ele>2057.8400000000001</ele>
        <time>2015-07-14T07:02:02Z</time>
      </trkpt>
      <trkpt lat="46.569530395790935" lon="12.26426225155592">
        <ele>2057.3600000000001</ele>
        <time>2015-07-14T07:02:13Z</time>
      </trkpt>
      <trkpt lat="46.569528048858047" lon="12.264269292354584">
        <ele>2057.8400000000001</ele>
        <time>2015-07-14T07:02:31Z</time>
      </trkpt>
      <trkpt lat="46.569543136283755" lon="12.264258982613683">
        <ele>2057.8400000000001</ele>
        <time>2015-07-14T07:02:47Z</time>
      </trkpt>
      <trkpt lat="46.569509273394942" lon="12.264336012303829">
        <ele>2057.8400000000001</ele>
        <time>2015-07-14T07:02:58Z</time>
      </trkpt>
      <trkpt lat="46.569511704146862" lon="12.26433701813221">
        <ele>2057.8400000000001</ele>
        <time>2015-07-14T07:03:09Z</time>
      </trkpt>
      <trkpt lat="46.569517403841019" lon="12.264328552410007">
        <ele>2057.8400000000001</ele>
        <time>2015-07-14T07:03:23Z</time>
      </trkpt>
      <trkpt lat="46.569495275616646" lon="12.264336850494146">
        <ele>2058.3200000000002</ele>
        <time>2015-07-14T07:03:38Z</time>
      </trkpt>
      <trkpt lat="46.569498209282756" lon="12.264350429177284">
        <ele>2057.8400000000001</ele>
        <time>2015-07-14T07:03:54Z</time>
      </trkpt>
      <trkpt lat="46.569497706368566" lon="12.264318997040391">
        <ele>2058.3200000000002</ele>
        <time>2015-07-14T07:04:12Z</time>
      </trkpt>
      <trkpt lat="46.56947884708643" lon="12.264293096959591">
        <ele>2058.3200000000002</ele>
        <time>2015-07-14T07:04:26Z</time>
      </trkpt>
      <trkpt lat="46.569496029987931" lon="12.264285134151578">
        <ele>2058.3200000000002</ele>
        <time>2015-07-14T07:04:41Z</time>
      </trkpt>
      <trkpt lat="46.569508267566562" lon="12.264269208535552">
        <ele>2058.3200000000002</ele>
        <time>2015-07-14T07:04:50Z</time>
      </trkpt>
      <trkpt lat="46.569500472396612" lon="12.264233333989978">
        <ele>2058.3200000000002</ele>
        <time>2015-07-14T07:05:00Z</time>
      </trkpt>
      <trkpt lat="46.569484379142523" lon="12.264245487749577">
        <ele>2058.3200000000002</ele>
        <time>2015-07-14T07:05:16Z</time>
      </trkpt>
      <trkpt lat="46.569498293101788" lon="12.264262083917856">
        <ele>2058.3200000000002</ele>
        <time>2015-07-14T07:05:32Z</time>
      </trkpt>
      <trkpt lat="46.569485468789935" lon="12.264262503013015">
        <ele>2058.3200000000002</ele>
        <time>2015-07-14T07:05:44Z</time>
      </trkpt>
      <trkpt lat="46.569475494325161" lon="12.264243140816689">
        <ele>2058.8000000000002</ele>
        <time>2015-07-14T07:06:01Z</time>
      </trkpt>
      <trkpt lat="46.56949988566339" lon="12.264269962906837">
        <ele>2058.3200000000002</ele>
        <time>2015-07-14T07:06:13Z</time>
      </trkpt>
      <trkpt lat="46.569577502086759" lon="12.2642339207232">
        <ele>2057.8400000000001</ele>
        <time>2015-07-14T07:06:25Z</time>
      </trkpt>
      <trkpt lat="46.569713959470391" lon="12.264244817197323">
        <ele>2055.9200000000001</ele>
        <time>2015-07-14T07:06:38Z</time>
      </trkpt>
      <trkpt lat="46.569722257554531" lon="12.264244984835386">
        <ele>2055.4400000000001</ele>
        <time>2015-07-14T07:06:39Z</time>
      </trkpt>
      <trkpt lat="46.569756707176566" lon="12.264247164130211">
        <ele>2055.4400000000001</ele>
        <time>2015-07-14T07:06:43Z</time>
      </trkpt>
      <trkpt lat="46.569819236174226" lon="12.264249427244067">
        <ele>2053.9899999999998</ele>
        <time>2015-07-14T07:06:49Z</time>
      </trkpt>
      <trkpt lat="46.569958627223969" lon="12.264298629015684">
        <ele>2050.6300000000001</ele>
        <time>2015-07-14T07:07:04Z</time>
      </trkpt>
      <trkpt lat="46.569977151229978" lon="12.264331066980958">
        <ele>2051.1100000000001</ele>
        <time>2015-07-14T07:07:18Z</time>
      </trkpt>
      <trkpt lat="46.570059042423964" lon="12.264322936534882">
        <ele>2049.1900000000001</ele>
        <time>2015-07-14T07:07:29Z</time>
      </trkpt>
      <trkpt lat="46.570065580308437" lon="12.26437708362937">
        <ele>2048.71</ele>
        <time>2015-07-14T07:07:39Z</time>
      </trkpt>
      <trkpt lat="46.570124169811606" lon="12.264342801645398">
        <ele>2048.23</ele>
        <time>2015-07-14T07:07:48Z</time>
      </trkpt>
      <trkpt lat="46.570232044905424" lon="12.264311453327537">
        <ele>2046.78</ele>
        <time>2015-07-14T07:08:02Z</time>
      </trkpt>
      <trkpt lat="46.570286108180881" lon="12.264269879087806">
        <ele>2045.8199999999999</ele>
        <time>2015-07-14T07:08:10Z</time>
      </trkpt>
      <trkpt lat="46.57036179676652" lon="12.26417331956327">
        <ele>2044.3800000000001</ele>
        <time>2015-07-14T07:08:22Z</time>
      </trkpt>
      <trkpt lat="46.570474449545145" lon="12.264045579358935">
        <ele>2041.98</ele>
        <time>2015-07-14T07:08:34Z</time>
      </trkpt>
      <trkpt lat="46.570539744570851" lon="12.263868805021048">
        <ele>2039.5699999999999</ele>
        <time>2015-07-14T07:08:46Z</time>
      </trkpt>
      <trkpt lat="46.570599172264338" lon="12.263669148087502">
        <ele>2036.6900000000001</ele>
        <time>2015-07-14T07:08:59Z</time>
      </trkpt>
      <trkpt lat="46.570658683776855" lon="12.263475190848112">
        <ele>2034.29</ele>
        <time>2015-07-14T07:09:11Z</time>
      </trkpt>
      <trkpt lat="46.570718111470342" lon="12.263301433995366">
        <ele>2031.4000000000001</ele>
        <time>2015-07-14T07:09:24Z</time>
      </trkpt>
      <trkpt lat="46.570773515850306" lon="12.263134634122252">
        <ele>2028.04</ele>
        <time>2015-07-14T07:09:37Z</time>
      </trkpt>
      <trkpt lat="46.570800337940454" lon="12.263082750141621">
        <ele>2027.5599999999999</ele>
        <time>2015-07-14T07:09:41Z</time>
      </trkpt>
      <trkpt lat="46.570909470319748" lon="12.262956770136952">
        <ele>2024.6700000000001</ele>
        <time>2015-07-14T07:09:55Z</time>
      </trkpt>
      <trkpt lat="46.571023799479008" lon="12.262841938063502">
        <ele>2021.79</ele>
        <time>2015-07-14T07:10:09Z</time>
      </trkpt>
      <trkpt lat="46.571124047040939" lon="12.26273967884481">
        <ele>2019.8699999999999</ele>
        <time>2015-07-14T07:10:21Z</time>
      </trkpt>
      <trkpt lat="46.571200573816895" lon="12.262651165947318">
        <ele>2018.4300000000001</ele>
        <time>2015-07-14T07:10:32Z</time>
      </trkpt>
      <trkpt lat="46.571341641247272" lon="12.262476067990065">
        <ele>2016.5</ele>
        <time>2015-07-14T07:10:48Z</time>
      </trkpt>
      <trkpt lat="46.571472231298685" lon="12.262441534548998">
        <ele>2016.02</ele>
        <time>2015-07-14T07:11:00Z</time>
      </trkpt>
      <trkpt lat="46.571608940139413" lon="12.262456705793738">
        <ele>2014.5799999999999</ele>
        <time>2015-07-14T07:11:11Z</time>
      </trkpt>
      <trkpt lat="46.571746654808521" lon="12.262472212314606">
        <ele>2013.1400000000001</ele>
        <time>2015-07-14T07:11:24Z</time>
      </trkpt>
      <trkpt lat="46.571901552379131" lon="12.262412030249834">
        <ele>2011.7</ele>
        <time>2015-07-14T07:11:38Z</time>
      </trkpt>
      <trkpt lat="46.572024766355753" lon="12.262239279225469">
        <ele>2008.8099999999999</ele>
        <time>2015-07-14T07:11:52Z</time>
      </trkpt>
      <trkpt lat="46.572078745812178" lon="12.262061918154359">
        <ele>2006.8900000000001</ele>
        <time>2015-07-14T07:12:03Z</time>
      </trkpt>
      <trkpt lat="46.572107998654246" lon="12.261924035847187">
        <ele>2004.97</ele>
        <time>2015-07-14T07:12:11Z</time>
      </trkpt>
      <trkpt lat="46.572273541241884" lon="12.261850945651531">
        <ele>2001.5999999999999</ele>
        <time>2015-07-14T07:12:25Z</time>
      </trkpt>
      <trkpt lat="46.572391223162413" lon="12.261871062219143">
        <ele>1998.72</ele>
        <time>2015-07-14T07:12:37Z</time>
      </trkpt>
      <trkpt lat="46.572547126561403" lon="12.261907020583749">
        <ele>1995.3499999999999</ele>
        <time>2015-07-14T07:12:49Z</time>
      </trkpt>
      <trkpt lat="46.572690457105637" lon="12.26197499781847">
        <ele>1992.47</ele>
        <time>2015-07-14T07:13:02Z</time>
      </trkpt>
      <trkpt lat="46.572871338576078" lon="12.261949265375733">
        <ele>1989.0999999999999</ele>
        <time>2015-07-14T07:13:17Z</time>
      </trkpt>
      <trkpt lat="46.573008047416806" lon="12.261921688914299">
        <ele>1986.22</ele>
        <time>2015-07-14T07:13:29Z</time>
      </trkpt>
      <trkpt lat="46.573185157030821" lon="12.261861339211464">
        <ele>1983.3399999999999</ele>
        <time>2015-07-14T07:13:44Z</time>
      </trkpt>
      <trkpt lat="46.573300994932652" lon="12.26183082908392">
        <ele>1981.4100000000001</ele>
        <time>2015-07-14T07:13:54Z</time>
      </trkpt>
      <trkpt lat="46.573489671573043" lon="12.261874498799443">
        <ele>1979.01</ele>
        <time>2015-07-14T07:14:09Z</time>
      </trkpt>
      <trkpt lat="46.573651358485222" lon="12.262018332257867">
        <ele>1977.5699999999999</ele>
        <time>2015-07-14T07:14:23Z</time>
      </trkpt>
      <trkpt lat="46.5737837087363" lon="12.262039873749018">
        <ele>1976.1300000000001</ele>
        <time>2015-07-14T07:14:35Z</time>
      </trkpt>
      <trkpt lat="46.57391513697803" lon="12.26198086515069">
        <ele>1973.24</ele>
        <time>2015-07-14T07:14:47Z</time>
      </trkpt>
      <trkpt lat="46.574044469743967" lon="12.261895202100277">
        <ele>1971.3199999999999</ele>
        <time>2015-07-14T07:14:59Z</time>
      </trkpt>
      <trkpt lat="46.574210682883859" lon="12.261915989220142">
        <ele>1969.8800000000001</ele>
        <time>2015-07-14T07:15:12Z</time>
      </trkpt>
      <trkpt lat="46.574354516342282" lon="12.261982206255198">
        <ele>1967.48</ele>
        <time>2015-07-14T07:15:25Z</time>
      </trkpt>
      <trkpt lat="46.574477311223745" lon="12.261985894292593">
        <ele>1964.5899999999999</ele>
        <time>2015-07-14T07:15:37Z</time>
      </trkpt>
      <trkpt lat="46.574626257643104" lon="12.261981787160039">
        <ele>1961.71</ele>
        <time>2015-07-14T07:15:50Z</time>
      </trkpt>
      <trkpt lat="46.574765481054783" lon="12.261956138536334">
        <ele>1958.3399999999999</ele>
        <time>2015-07-14T07:16:03Z</time>
      </trkpt>
      <trkpt lat="46.574887940660119" lon="12.261963598430157">
        <ele>1955.9400000000001</ele>
        <time>2015-07-14T07:16:14Z</time>
      </trkpt>
      <trkpt lat="46.574943345040083" lon="12.262001736089587">
        <ele>1954.98</ele>
        <time>2015-07-14T07:16:22Z</time>
      </trkpt>
      <trkpt lat="46.575004532933235" lon="12.262039873749018">
        <ele>1954.02</ele>
        <time>2015-07-14T07:16:33Z</time>
      </trkpt>
      <trkpt lat="46.575069827958941" lon="12.262065773829818">
        <ele>1953.0599999999999</ele>
        <time>2015-07-14T07:16:42Z</time>
      </trkpt>
      <trkpt lat="46.575131267309189" lon="12.262098882347345">
        <ele>1950.6500000000001</ele>
        <time>2015-07-14T07:16:49Z</time>
      </trkpt>
      <trkpt lat="46.575152054429054" lon="12.262139702215791">
        <ele>1950.1700000000001</ele>
        <time>2015-07-14T07:16:52Z</time>
      </trkpt>
      <trkpt lat="46.575276274234056" lon="12.262257300317287">
        <ele>1946.3299999999999</ele>
        <time>2015-07-14T07:17:05Z</time>
      </trkpt>
      <trkpt lat="46.575308293104172" lon="12.262296443805099">
        <ele>1945.3599999999999</ele>
        <time>2015-07-14T07:17:16Z</time>
      </trkpt>
      <trkpt lat="46.575350202620029" lon="12.262342041358352">
        <ele>1944.8800000000001</ele>
        <time>2015-07-14T07:17:26Z</time>
      </trkpt>
      <trkpt lat="46.575488084927201" lon="12.262383364140987">
        <ele>1942.96</ele>
        <time>2015-07-14T07:17:38Z</time>
      </trkpt>
      <trkpt lat="46.575607275590301" lon="12.262294096872211">
        <ele>1940.0799999999999</ele>
        <time>2015-07-14T07:17:49Z</time>
      </trkpt>
      <trkpt lat="46.575649436563253" lon="12.262305580079556">
        <ele>1940.0799999999999</ele>
        <time>2015-07-14T07:17:58Z</time>
      </trkpt>
      <trkpt lat="46.575650442391634" lon="12.262280350551009">
        <ele>1940.0799999999999</ele>
        <time>2015-07-14T07:18:11Z</time>
      </trkpt>
      <trkpt lat="46.575639378279448" lon="12.262223605066538">
        <ele>1939.5999999999999</ele>
        <time>2015-07-14T07:18:15Z</time>
      </trkpt>
      <trkpt lat="46.575636863708496" lon="12.262147162109613">
        <ele>1938.1600000000001</ele>
        <time>2015-07-14T07:18:20Z</time>
      </trkpt>
      <trkpt lat="46.575714228674769" lon="12.261945074424148">
        <ele>1935.27</ele>
        <time>2015-07-14T07:18:33Z</time>
      </trkpt>
      <trkpt lat="46.575821433216333" lon="12.261752374470234">
        <ele>1932.8699999999999</ele>
        <time>2015-07-14T07:18:47Z</time>
      </trkpt>
      <trkpt lat="46.575874323025346" lon="12.261710884049535">
        <ele>1931.4300000000001</ele>
        <time>2015-07-14T07:18:52Z</time>
      </trkpt>
      <trkpt lat="46.576039614155889" lon="12.261597644537687">
        <ele>1929.02</ele>
        <time>2015-07-14T07:19:08Z</time>
      </trkpt>
      <trkpt lat="46.576104825362563" lon="12.261422295123339">
        <ele>1927.5799999999999</ele>
        <time>2015-07-14T07:19:20Z</time>
      </trkpt>
      <trkpt lat="46.576176658272743" lon="12.261268654838204">
        <ele>1925.6600000000001</ele>
        <time>2015-07-14T07:19:33Z</time>
      </trkpt>
      <trkpt lat="46.576174478977919" lon="12.261259686201811">
        <ele>1925.1800000000001</ele>
        <time>2015-07-14T07:19:46Z</time>
      </trkpt>
      <trkpt lat="46.57617456279695" lon="12.261255327612162">
        <ele>1925.6600000000001</ele>
        <time>2015-07-14T07:20:00Z</time>
      </trkpt>
      <trkpt lat="46.57619409263134" lon="12.261258931830525">
        <ele>1925.6600000000001</ele>
        <time>2015-07-14T07:20:06Z</time>
      </trkpt>
      <trkpt lat="46.576365083456039" lon="12.261270331218839">
        <ele>1925.1800000000001</ele>
        <time>2015-07-14T07:20:21Z</time>
      </trkpt>
      <trkpt lat="46.576432976871729" lon="12.261334285140038">
        <ele>1924.7</ele>
        <time>2015-07-14T07:20:28Z</time>
      </trkpt>
      <trkpt lat="46.576560046523809" lon="12.261542407795787">
        <ele>1924.22</ele>
        <time>2015-07-14T07:20:42Z</time>
      </trkpt>
      <trkpt lat="46.576646044850349" lon="12.261522123590112">
        <ele>1923.74</ele>
        <time>2015-07-14T07:20:49Z</time>
      </trkpt>
      <trkpt lat="46.576691139489412" lon="12.261443249881268">
        <ele>1924.22</ele>
        <time>2015-07-14T07:20:55Z</time>
      </trkpt>
      <trkpt lat="46.576687535271049" lon="12.261388096958399">
        <ele>1923.74</ele>
        <time>2015-07-14T07:20:58Z</time>
      </trkpt>
      <trkpt lat="46.576670939102769" lon="12.261228002607822">
        <ele>1921.8099999999999</ele>
        <time>2015-07-14T07:21:07Z</time>
      </trkpt>
      <trkpt lat="46.576802786439657" lon="12.261163545772433">
        <ele>1920.8499999999999</ele>
        <time>2015-07-14T07:21:19Z</time>
      </trkpt>
      <trkpt lat="46.576961204409599" lon="12.261095987632871">
        <ele>1919.8900000000001</ele>
        <time>2015-07-14T07:21:32Z</time>
      </trkpt>
      <trkpt lat="46.577064134180546" lon="12.260994063690305">
        <ele>1918.45</ele>
        <time>2015-07-14T07:21:42Z</time>
      </trkpt>
      <trkpt lat="46.577128591015935" lon="12.26098651997745">
        <ele>1917.97</ele>
        <time>2015-07-14T07:21:48Z</time>
      </trkpt>
      <trkpt lat="46.577291116118431" lon="12.261175950989127">
        <ele>1916.53</ele>
        <time>2015-07-14T07:22:03Z</time>
      </trkpt>
      <trkpt lat="46.577414330095053" lon="12.261268990114331">
        <ele>1915.5599999999999</ele>
        <time>2015-07-14T07:22:14Z</time>
      </trkpt>
      <trkpt lat="46.577557744458318" lon="12.261330345645547">
        <ele>1914.5999999999999</ele>
        <time>2015-07-14T07:22:26Z</time>
      </trkpt>
      <trkpt lat="46.577688837423921" lon="12.261328836902976">
        <ele>1914.5999999999999</ele>
        <time>2015-07-14T07:22:37Z</time>
      </trkpt>
      <trkpt lat="46.577746253460646" lon="12.261275527998805">
        <ele>1914.1199999999999</ele>
        <time>2015-07-14T07:22:49Z</time>
      </trkpt>
      <trkpt lat="46.577731836587191" lon="12.261245604604483">
        <ele>1913.6400000000001</ele>
        <time>2015-07-14T07:23:04Z</time>
      </trkpt>
      <trkpt lat="46.577841639518738" lon="12.261228254064918">
        <ele>1912.6800000000001</ele>
        <time>2015-07-14T07:23:14Z</time>
      </trkpt>
      <trkpt lat="46.5778505243361" lon="12.261215262115002">
        <ele>1912.6800000000001</ele>
        <time>2015-07-14T07:23:15Z</time>
      </trkpt>
      <trkpt lat="46.577887823805213" lon="12.261090455576777">
        <ele>1909.3199999999999</ele>
        <time>2015-07-14T07:23:23Z</time>
      </trkpt>
      <trkpt lat="46.577901989221573" lon="12.261058436706662">
        <ele>1907.8699999999999</ele>
        <time>2015-07-14T07:23:26Z</time>
      </trkpt>
      <trkpt lat="46.577816158533096" lon="12.2608941514045">
        <ele>1905.47</ele>
        <time>2015-07-14T07:23:38Z</time>
      </trkpt>
      <trkpt lat="46.577766118571162" lon="12.260710336267948">
        <ele>1903.55</ele>
        <time>2015-07-14T07:23:49Z</time>
      </trkpt>
      <trkpt lat="46.577692776918411" lon="12.260592067614198">
        <ele>1902.5899999999999</ele>
        <time>2015-07-14T07:24:01Z</time>
      </trkpt>
      <trkpt lat="46.577683221548796" lon="12.260586870834231">
        <ele>1902.5899999999999</ele>
        <time>2015-07-14T07:24:07Z</time>
      </trkpt>
      <trkpt lat="46.577607952058315" lon="12.260414035990834">
        <ele>1900.6600000000001</ele>
        <time>2015-07-14T07:24:19Z</time>
      </trkpt>
      <trkpt lat="46.577479457482696" lon="12.260306663811207">
        <ele>1898.74</ele>
        <time>2015-07-14T07:24:32Z</time>
      </trkpt>
      <trkpt lat="46.5773272421211" lon="12.26017439737916">
        <ele>1895.8599999999999</ele>
        <time>2015-07-14T07:24:45Z</time>
      </trkpt>
      <trkpt lat="46.577304862439632" lon="12.260131062939763">
        <ele>1896.3399999999999</ele>
        <time>2015-07-14T07:24:55Z</time>
      </trkpt>
      <trkpt lat="46.577309723943472" lon="12.260145815089345">
        <ele>1896.3399999999999</ele>
        <time>2015-07-14T07:25:00Z</time>
      </trkpt>
      <trkpt lat="46.577302264049649" lon="12.26028143428266">
        <ele>1897.3</ele>
        <time>2015-07-14T07:25:11Z</time>
      </trkpt>
      <trkpt lat="46.577303521335125" lon="12.260334743186831">
        <ele>1897.78</ele>
        <time>2015-07-14T07:25:29Z</time>
      </trkpt>
      <trkpt lat="46.577283488586545" lon="12.260271459817886">
        <ele>1897.78</ele>
        <time>2015-07-14T07:25:47Z</time>
      </trkpt>
      <trkpt lat="46.577304024249315" lon="12.260179929435253">
        <ele>1897.3</ele>
        <time>2015-07-14T07:25:51Z</time>
      </trkpt>
      <trkpt lat="46.577348532155156" lon="12.259995192289352">
        <ele>1894.4200000000001</ele>
        <time>2015-07-14T07:26:03Z</time>
      </trkpt>
      <trkpt lat="46.577428495511413" lon="12.259809114038944">
        <ele>1892.01</ele>
        <time>2015-07-14T07:26:16Z</time>
      </trkpt>
      <trkpt lat="46.577485240995884" lon="12.259638290852308">
        <ele>1889.1300000000001</ele>
        <time>2015-07-14T07:26:28Z</time>
      </trkpt>
      <trkpt lat="46.577368900179863" lon="12.259554136544466">
        <ele>1886.24</ele>
        <time>2015-07-14T07:26:39Z</time>
      </trkpt>
      <trkpt lat="46.577299833297729" lon="12.259539468213916">
        <ele>1884.3199999999999</ele>
        <time>2015-07-14T07:26:45Z</time>
      </trkpt>
      <trkpt lat="46.577137727290392" lon="12.259533181786537">
        <ele>1881.4400000000001</ele>
        <time>2015-07-14T07:26:59Z</time>
      </trkpt>
      <trkpt lat="46.577011663466692" lon="12.259434023872018">
        <ele>1878.55</ele>
        <time>2015-07-14T07:27:12Z</time>
      </trkpt>
      <trkpt lat="46.576974112540483" lon="12.259381134063005">
        <ele>1877.1099999999999</ele>
        <time>2015-07-14T07:27:24Z</time>
      </trkpt>
      <trkpt lat="46.576975453644991" lon="12.259360263124108">
        <ele>1877.1099999999999</ele>
        <time>2015-07-14T07:27:39Z</time>
      </trkpt>
      <trkpt lat="46.576994396746159" lon="12.259292034432292">
        <ele>1876.1500000000001</ele>
        <time>2015-07-14T07:27:44Z</time>
      </trkpt>
      <trkpt lat="46.577104032039642" lon="12.259164461866021">
        <ele>1873.75</ele>
        <time>2015-07-14T07:27:57Z</time>
      </trkpt>
      <trkpt lat="46.577225737273693" lon="12.259020544588566">
        <ele>1871.8199999999999</ele>
        <time>2015-07-14T07:28:11Z</time>
      </trkpt>
      <trkpt lat="46.577291199937463" lon="12.25886095315218">
        <ele>1868.46</ele>
        <time>2015-07-14T07:28:24Z</time>
      </trkpt>
      <trkpt lat="46.577294049784541" lon="12.258847709745169">
        <ele>1868.46</ele>
        <time>2015-07-14T07:28:25Z</time>
      </trkpt>
      <trkpt lat="46.577382478863001" lon="12.25869432091713">
        <ele>1865.0899999999999</ele>
        <time>2015-07-14T07:28:37Z</time>
      </trkpt>
      <trkpt lat="46.577421706169844" lon="12.258537746965885">
        <ele>1861.73</ele>
        <time>2015-07-14T07:28:48Z</time>
      </trkpt>
      <trkpt lat="46.57742690294981" lon="12.258477564901114">
        <ele>1861.25</ele>
        <time>2015-07-14T07:28:52Z</time>
      </trkpt>
      <trkpt lat="46.577446265146136" lon="12.258441606536508">
        <ele>1860.29</ele>
        <time>2015-07-14T07:28:55Z</time>
      </trkpt>
      <trkpt lat="46.577465878799558" lon="12.258267514407635">
        <ele>1858.3699999999999</ele>
        <time>2015-07-14T07:29:05Z</time>
      </trkpt>
      <trkpt lat="46.577454814687371" lon="12.258132481947541">
        <ele>1856.9200000000001</ele>
        <time>2015-07-14T07:29:14Z</time>
      </trkpt>
      <trkpt lat="46.577520109713078" lon="12.257921174168587">
        <ele>1854.52</ele>
        <time>2015-07-14T07:29:27Z</time>
      </trkpt>
      <trkpt lat="46.57759303227067" lon="12.257814137265086">
        <ele>1851.6400000000001</ele>
        <time>2015-07-14T07:29:38Z</time>
      </trkpt>
      <trkpt lat="46.577614741399884" lon="12.257759319618344">
        <ele>1849.23</ele>
        <time>2015-07-14T07:29:48Z</time>
      </trkpt>
      <trkpt lat="46.577636450529099" lon="12.257727049291134">
        <ele>1848.75</ele>
        <time>2015-07-14T07:30:03Z</time>
      </trkpt>
      <trkpt lat="46.577608790248632" lon="12.257686397060752">
        <ele>1847.79</ele>
        <time>2015-07-14T07:30:15Z</time>
      </trkpt>
      <trkpt lat="46.577663524076343" lon="12.257642978802323">
        <ele>1846.8299999999999</ele>
        <time>2015-07-14T07:30:21Z</time>
      </trkpt>
      <trkpt lat="46.577695710584521" lon="12.25751331076026">
        <ele>1844.9100000000001</ele>
        <time>2015-07-14T07:30:29Z</time>
      </trkpt>
      <trkpt lat="46.577703254297376" lon="12.25742588751018">
        <ele>1842.5</ele>
        <time>2015-07-14T07:30:34Z</time>
      </trkpt>
      <trkpt lat="46.577746924012899" lon="12.257309630513191">
        <ele>1839.1400000000001</ele>
        <time>2015-07-14T07:30:43Z</time>
      </trkpt>
      <trkpt lat="46.577803837135434" lon="12.257267469540238">
        <ele>1837.7</ele>
        <time>2015-07-14T07:30:49Z</time>
      </trkpt>
      <trkpt lat="46.577871982008219" lon="12.257161773741245">
        <ele>1835.77</ele>
        <time>2015-07-14T07:30:58Z</time>
      </trkpt>
      <trkpt lat="46.577910287305713" lon="12.257059263065457">
        <ele>1833.8499999999999</ele>
        <time>2015-07-14T07:31:08Z</time>
      </trkpt>
      <trkpt lat="46.577933421358466" lon="12.257036548107862">
        <ele>1833.3699999999999</ele>
        <time>2015-07-14T07:31:10Z</time>
      </trkpt>
      <trkpt lat="46.57798639498651" lon="12.256952561438084">
        <ele>1831.9300000000001</ele>
        <time>2015-07-14T07:31:17Z</time>
      </trkpt>
      <trkpt lat="46.578024951741099" lon="12.256909310817719">
        <ele>1830.97</ele>
        <time>2015-07-14T07:31:21Z</time>
      </trkpt>
      <trkpt lat="46.578062670305371" lon="12.256746198982">
        <ele>1829.05</ele>
        <time>2015-07-14T07:31:32Z</time>
      </trkpt>
      <trkpt lat="46.578081026673317" lon="12.25671443156898">
        <ele>1828.0799999999999</ele>
        <time>2015-07-14T07:31:34Z</time>
      </trkpt>
      <trkpt lat="46.578113799914718" lon="12.256625834852457">
        <ele>1826.6400000000001</ele>
        <time>2015-07-14T07:31:40Z</time>
      </trkpt>
      <trkpt lat="46.578108435496688" lon="12.256501195952296">
        <ele>1825.2</ele>
        <time>2015-07-14T07:31:51Z</time>
      </trkpt>
      <trkpt lat="46.57813441939652" lon="12.256394242867827">
        <ele>1823.76</ele>
        <time>2015-07-14T07:31:58Z</time>
      </trkpt>
      <trkpt lat="46.578193427994847" lon="12.256295587867498">
        <ele>1821.8399999999999</ele>
        <time>2015-07-14T07:32:06Z</time>
      </trkpt>
      <trkpt lat="46.578221339732409" lon="12.256198944523931">
        <ele>1820.3900000000001</ele>
        <time>2015-07-14T07:32:13Z</time>
      </trkpt>
      <trkpt lat="46.578303566202521" lon="12.256043376401067">
        <ele>1817.03</ele>
        <time>2015-07-14T07:32:27Z</time>
      </trkpt>
      <trkpt lat="46.578306499868631" lon="12.255918653681874">
        <ele>1813.6600000000001</ele>
        <time>2015-07-14T07:32:38Z</time>
      </trkpt>
      <trkpt lat="46.578288311138749" lon="12.255878588184714">
        <ele>1811.74</ele>
        <time>2015-07-14T07:32:44Z</time>
      </trkpt>
      <trkpt lat="46.578290406614542" lon="12.255792422220111">
        <ele>1810.3</ele>
        <time>2015-07-14T07:32:51Z</time>
      </trkpt>
      <trkpt lat="46.57828931696713" lon="12.255699466913939">
        <ele>1807.4200000000001</ele>
        <time>2015-07-14T07:32:57Z</time>
      </trkpt>
      <trkpt lat="46.578301135450602" lon="12.255656635388732">
        <ele>1806.45</ele>
        <time>2015-07-14T07:33:00Z</time>
      </trkpt>
      <trkpt lat="46.578320330008864" lon="12.255486734211445">
        <ele>1803.0899999999999</ele>
        <time>2015-07-14T07:33:11Z</time>
      </trkpt>
      <trkpt lat="46.578349582850933" lon="12.255323119461536">
        <ele>1800.21</ele>
        <time>2015-07-14T07:33:22Z</time>
      </trkpt>
      <trkpt lat="46.578382272273302" lon="12.255175430327654">
        <ele>1796.8399999999999</ele>
        <time>2015-07-14T07:33:33Z</time>
      </trkpt>
      <trkpt lat="46.57839534804225" lon="12.255086749792099">
        <ele>1794.4400000000001</ele>
        <time>2015-07-14T07:33:38Z</time>
      </trkpt>
      <trkpt lat="46.578359054401517" lon="12.255025394260883">
        <ele>1793.96</ele>
        <time>2015-07-14T07:33:49Z</time>
      </trkpt>
      <trkpt lat="46.578314881771803" lon="12.254989184439182">
        <ele>1793.48</ele>
        <time>2015-07-14T07:34:07Z</time>
      </trkpt>
      <trkpt lat="46.578236510977149" lon="12.25487862713635">
        <ele>1793</ele>
        <time>2015-07-14T07:34:17Z</time>
      </trkpt>
      <trkpt lat="46.578142717480659" lon="12.254751725122333">
        <ele>1792.03</ele>
        <time>2015-07-14T07:34:28Z</time>
      </trkpt>
      <trkpt lat="46.578099802136421" lon="12.254702942445874">
        <ele>1791.55</ele>
        <time>2015-07-14T07:34:33Z</time>
      </trkpt>
      <trkpt lat="46.578060993924737" lon="12.254668157547712">
        <ele>1791.0699999999999</ele>
        <time>2015-07-14T07:34:37Z</time>
      </trkpt>
      <trkpt lat="46.57803668640554" lon="12.25462993606925">
        <ele>1791.0699999999999</ele>
        <time>2015-07-14T07:34:40Z</time>
      </trkpt>
      <trkpt lat="46.577986227348447" lon="12.254542429000139">
        <ele>1790.5899999999999</ele>
        <time>2015-07-14T07:34:46Z</time>
      </trkpt>
      <trkpt lat="46.577908862382174" lon="12.254365738481283">
        <ele>1789.6300000000001</ele>
        <time>2015-07-14T07:34:59Z</time>
      </trkpt>
      <trkpt lat="46.57788623124361" lon="12.25432843901217">
        <ele>1789.6300000000001</ele>
        <time>2015-07-14T07:35:09Z</time>
      </trkpt>
      <trkpt lat="46.577916657552123" lon="12.254147976636887">
        <ele>1789.1500000000001</ele>
        <time>2015-07-14T07:35:21Z</time>
      </trkpt>
      <trkpt lat="46.577908443287015" lon="12.254069522023201">
        <ele>1789.1500000000001</ele>
        <time>2015-07-14T07:35:25Z</time>
      </trkpt>
      <trkpt lat="46.577898217365146" lon="12.254042448475957">
        <ele>1789.1500000000001</ele>
        <time>2015-07-14T07:35:27Z</time>
      </trkpt>
      <trkpt lat="46.577866617590189" lon="12.254021745175123">
        <ele>1789.6300000000001</ele>
        <time>2015-07-14T07:35:38Z</time>
      </trkpt>
      <trkpt lat="46.577858906239271" lon="12.254057368263602">
        <ele>1789.6300000000001</ele>
        <time>2015-07-14T07:35:56Z</time>
      </trkpt>
      <trkpt lat="46.577867791056633" lon="12.253999030217528">
        <ele>1789.1500000000001</ele>
        <time>2015-07-14T07:36:14Z</time>
      </trkpt>
      <trkpt lat="46.577877597883344" lon="12.253983607515693">
        <ele>1789.1500000000001</ele>
        <time>2015-07-14T07:36:17Z</time>
      </trkpt>
      <trkpt lat="46.577900731936097" lon="12.253900039941072">
        <ele>1788.6700000000001</ele>
        <time>2015-07-14T07:36:28Z</time>
      </trkpt>
      <trkpt lat="46.57791355624795" lon="12.253919402137399">
        <ele>1788.1900000000001</ele>
        <time>2015-07-14T07:36:42Z</time>
      </trkpt>
      <trkpt lat="46.577901570126414" lon="12.253980841487646">
        <ele>1789.1500000000001</ele>
        <time>2015-07-14T07:36:52Z</time>
      </trkpt>
      <trkpt lat="46.577935768291354" lon="12.254011183977127">
        <ele>1789.1500000000001</ele>
        <time>2015-07-14T07:37:03Z</time>
      </trkpt>
      <trkpt lat="46.577935013920069" lon="12.254052087664604">
        <ele>1788.6700000000001</ele>
        <time>2015-07-14T07:37:13Z</time>
      </trkpt>
      <trkpt lat="46.577876759693027" lon="12.254037670791149">
        <ele>1789.1500000000001</ele>
        <time>2015-07-14T07:37:24Z</time>
      </trkpt>
      <trkpt lat="46.577845411375165" lon="12.254032054916024">
        <ele>1789.1500000000001</ele>
        <time>2015-07-14T07:37:36Z</time>
      </trkpt>
      <trkpt lat="46.577814649790525" lon="12.253940524533391">
        <ele>1788.6700000000001</ele>
        <time>2015-07-14T07:37:45Z</time>
      </trkpt>
      <trkpt lat="46.577806016430259" lon="12.25394245237112">
        <ele>1788.6700000000001</ele>
        <time>2015-07-14T07:37:59Z</time>
      </trkpt>
      <trkpt lat="46.577810039743781" lon="12.253922084346414">
        <ele>1788.6700000000001</ele>
        <time>2015-07-14T07:38:10Z</time>
      </trkpt>
      <trkpt lat="46.577878184616566" lon="12.253991151228547">
        <ele>1789.1500000000001</ele>
        <time>2015-07-14T07:38:22Z</time>
      </trkpt>
      <trkpt lat="46.57792579382658" lon="12.253998527303338">
        <ele>1788.6700000000001</ele>
        <time>2015-07-14T07:38:33Z</time>
      </trkpt>
      <trkpt lat="46.57793216407299" lon="12.25400255061686">
        <ele>1788.6700000000001</ele>
        <time>2015-07-14T07:38:45Z</time>
      </trkpt>
      <trkpt lat="46.57792042940855" lon="12.253995761275291">
        <ele>1788.6700000000001</ele>
        <time>2015-07-14T07:39:00Z</time>
      </trkpt>
      <trkpt lat="46.577911293134093" lon="12.253973130136728">
        <ele>1788.6700000000001</ele>
        <time>2015-07-14T07:39:15Z</time>
      </trkpt>
      <trkpt lat="46.577913891524076" lon="12.253982685506344">
        <ele>1788.6700000000001</ele>
        <time>2015-07-14T07:39:30Z</time>
      </trkpt>
      <trkpt lat="46.577921435236931" lon="12.253994755446911">
        <ele>1788.1900000000001</ele>
        <time>2015-07-14T07:39:41Z</time>
      </trkpt>
      <trkpt lat="46.577910371124744" lon="12.25398394279182">
        <ele>1788.1900000000001</ele>
        <time>2015-07-14T07:39:57Z</time>
      </trkpt>
      <trkpt lat="46.577908275648952" lon="12.253963155671954">
        <ele>1788.6700000000001</ele>
        <time>2015-07-14T07:40:08Z</time>
      </trkpt>
      <trkpt lat="46.577901318669319" lon="12.253974806517363">
        <ele>1788.6700000000001</ele>
        <time>2015-07-14T07:40:22Z</time>
      </trkpt>
      <trkpt lat="46.577907102182508" lon="12.25397564470768">
        <ele>1788.6700000000001</ele>
        <time>2015-07-14T07:40:36Z</time>
      </trkpt>
      <trkpt lat="46.577917076647282" lon="12.253989977762103">
        <ele>1787.71</ele>
        <time>2015-07-14T07:40:46Z</time>
      </trkpt>
      <trkpt lat="46.577925542369485" lon="12.254013447090983">
        <ele>1787.71</ele>
        <time>2015-07-14T07:40:48Z</time>
      </trkpt>
      <trkpt lat="46.577946245670319" lon="12.254040436819196">
        <ele>1787.71</ele>
        <time>2015-07-14T07:40:58Z</time>
      </trkpt>
      <trkpt lat="46.577942054718733" lon="12.254070108756423">
        <ele>1787.71</ele>
        <time>2015-07-14T07:41:22Z</time>
      </trkpt>
      <trkpt lat="46.577955214306712" lon="12.254047561436892">
        <ele>1787.23</ele>
        <time>2015-07-14T07:41:46Z</time>
      </trkpt>
      <trkpt lat="46.577943479642272" lon="12.254059799015522">
        <ele>1787.71</ele>
        <time>2015-07-14T07:42:16Z</time>
      </trkpt>
      <trkpt lat="46.57793945632875" lon="12.254067258909345">
        <ele>1787.71</ele>
        <time>2015-07-14T07:42:43Z</time>
      </trkpt>
      <trkpt lat="46.577942054718733" lon="12.254090560600162">
        <ele>1787.71</ele>
        <time>2015-07-14T07:43:06Z</time>
      </trkpt>
      <trkpt lat="46.577947000041604" lon="12.254089303314686">
        <ele>1787.71</ele>
        <time>2015-07-14T07:43:27Z</time>
      </trkpt>
      <trkpt lat="46.577937109395862" lon="12.254104474559426">
        <ele>1788.1900000000001</ele>
        <time>2015-07-14T07:43:49Z</time>
      </trkpt>
      <trkpt lat="46.577932666987181" lon="12.254087626934052">
        <ele>1788.1900000000001</ele>
        <time>2015-07-14T07:44:08Z</time>
      </trkpt>
      <trkpt lat="46.577944066375494" lon="12.254083938896656">
        <ele>1788.6700000000001</ele>
        <time>2015-07-14T07:44:31Z</time>
      </trkpt>
      <trkpt lat="46.577951442450285" lon="12.254053177312016">
        <ele>1788.1900000000001</ele>
        <time>2015-07-14T07:44:54Z</time>
      </trkpt>
      <trkpt lat="46.577918669208884" lon="12.25410221144557">
        <ele>1788.6700000000001</ele>
        <time>2015-07-14T07:45:20Z</time>
      </trkpt>
      <trkpt lat="46.577920261770487" lon="12.254107324406505">
        <ele>1788.6700000000001</ele>
        <time>2015-07-14T07:45:44Z</time>
      </trkpt>
      <trkpt lat="46.577916657552123" lon="12.254117550328374">
        <ele>1789.1500000000001</ele>
        <time>2015-07-14T07:45:54Z</time>
      </trkpt>
      <trkpt lat="46.577887069433928" lon="12.254055105149746">
        <ele>1790.1099999999999</ele>
        <time>2015-07-14T07:46:02Z</time>
      </trkpt>
      <trkpt lat="46.577856475487351" lon="12.253973297774792">
        <ele>1789.6300000000001</ele>
        <time>2015-07-14T07:46:13Z</time>
      </trkpt>
      <trkpt lat="46.577842561528087" lon="12.253877492621541">
        <ele>1789.1500000000001</ele>
        <time>2015-07-14T07:46:25Z</time>
      </trkpt>
      <trkpt lat="46.577828396111727" lon="12.253782190382481">
        <ele>1788.1900000000001</ele>
        <time>2015-07-14T07:46:37Z</time>
      </trkpt>
      <trkpt lat="46.577799562364817" lon="12.253787219524384">
        <ele>1787.23</ele>
        <time>2015-07-14T07:46:42Z</time>
      </trkpt>
      <trkpt lat="46.577710965648293" lon="12.253765175119042">
        <ele>1785.3099999999999</ele>
        <time>2015-07-14T07:46:52Z</time>
      </trkpt>
      <trkpt lat="46.577661009505391" lon="12.253629975020885">
        <ele>1782.4200000000001</ele>
        <time>2015-07-14T07:47:03Z</time>
      </trkpt>
      <trkpt lat="46.577620776370168" lon="12.253577420488">
        <ele>1780.98</ele>
        <time>2015-07-14T07:47:09Z</time>
      </trkpt>
      <trkpt lat="46.577549027279019" lon="12.253539618104696">
        <ele>1778.5799999999999</ele>
        <time>2015-07-14T07:47:20Z</time>
      </trkpt>
      <trkpt lat="46.577562522143126" lon="12.253443226218224">
        <ele>1776.1700000000001</ele>
        <time>2015-07-14T07:47:30Z</time>
      </trkpt>
      <trkpt lat="46.577581046149135" lon="12.25338296033442">
        <ele>1775.6900000000001</ele>
        <time>2015-07-14T07:47:35Z</time>
      </trkpt>
      <trkpt lat="46.577605018392205" lon="12.253295537084341">
        <ele>1774.73</ele>
        <time>2015-07-14T07:47:39Z</time>
      </trkpt>
      <trkpt lat="46.577675677835941" lon="12.253209203481674">
        <ele>1773.29</ele>
        <time>2015-07-14T07:47:48Z</time>
      </trkpt>
      <trkpt lat="46.577721778303385" lon="12.253197301179171">
        <ele>1772.8099999999999</ele>
        <time>2015-07-14T07:47:51Z</time>
      </trkpt>
      <trkpt lat="46.577859492972493" lon="12.253168215975165">
        <ele>1770.8900000000001</ele>
        <time>2015-07-14T07:48:03Z</time>
      </trkpt>
      <trkpt lat="46.577998464927077" lon="12.253109375014901">
        <ele>1770.4100000000001</ele>
        <time>2015-07-14T07:48:15Z</time>
      </trkpt>
      <trkpt lat="46.578085469081998" lon="12.253114236518741">
        <ele>1770.4100000000001</ele>
        <time>2015-07-14T07:48:23Z</time>
      </trkpt>
      <trkpt lat="46.578127630054951" lon="12.253115577623248">
        <ele>1770.4100000000001</ele>
        <time>2015-07-14T07:48:27Z</time>
      </trkpt>
      <trkpt lat="46.578141376376152" lon="12.253103675320745">
        <ele>1769.9200000000001</ele>
        <time>2015-07-14T07:48:29Z</time>
      </trkpt>
      <trkpt lat="46.578265512362123" lon="12.253020778298378">
        <ele>1769.9200000000001</ele>
        <time>2015-07-14T07:48:42Z</time>
      </trkpt>
      <trkpt lat="46.578318569809198" lon="12.252968139946461">
        <ele>1769.4400000000001</ele>
        <time>2015-07-14T07:48:47Z</time>
      </trkpt>
      <trkpt lat="46.578373638913035" lon="12.252969732508063">
        <ele>1768.48</ele>
        <time>2015-07-14T07:49:00Z</time>
      </trkpt>
      <trkpt lat="46.578362490981817" lon="12.252976186573505">
        <ele>1768.48</ele>
        <time>2015-07-14T07:49:17Z</time>
      </trkpt>
      <trkpt lat="46.578335585072637" lon="12.252945341169834">
        <ele>1768.96</ele>
        <time>2015-07-14T07:49:25Z</time>
      </trkpt>
      <trkpt lat="46.578316474333405" lon="12.252948945388198">
        <ele>1769.4400000000001</ele>
        <time>2015-07-14T07:49:34Z</time>
      </trkpt>
      <trkpt lat="46.578355031087995" lon="12.252880716696382">
        <ele>1769.4400000000001</ele>
        <time>2015-07-14T07:49:42Z</time>
      </trkpt>
      <trkpt lat="46.578401802107692" lon="12.252795388922095">
        <ele>1769.4400000000001</ele>
        <time>2015-07-14T07:49:51Z</time>
      </trkpt>
      <trkpt lat="46.578468438237906" lon="12.252584919333458">
        <ele>1769.4400000000001</ele>
        <time>2015-07-14T07:50:06Z</time>
      </trkpt>
      <trkpt lat="46.578534487634897" lon="12.252389872446656">
        <ele>1769.4400000000001</ele>
        <time>2015-07-14T07:50:19Z</time>
      </trkpt>
      <trkpt lat="46.578582432121038" lon="12.252201028168201">
        <ele>1769.9200000000001</ele>
        <time>2015-07-14T07:50:32Z</time>
      </trkpt>
      <trkpt lat="46.578597016632557" lon="12.252158196642995">
        <ele>1769.9200000000001</ele>
        <time>2015-07-14T07:50:35Z</time>
      </trkpt>
      <trkpt lat="46.578642949461937" lon="12.252115029841661">
        <ele>1770.4100000000001</ele>
        <time>2015-07-14T07:50:44Z</time>
      </trkpt>
      <trkpt lat="46.578652001917362" lon="12.252108240500093">
        <ele>1770.8900000000001</ele>
        <time>2015-07-14T07:50:50Z</time>
      </trkpt>
      <trkpt lat="46.578658372163773" lon="12.251927694305778">
        <ele>1771.8499999999999</ele>
        <time>2015-07-14T07:51:01Z</time>
      </trkpt>
      <trkpt lat="46.578603386878967" lon="12.251723511144519">
        <ele>1771.3699999999999</ele>
        <time>2015-07-14T07:51:14Z</time>
      </trkpt>
      <trkpt lat="46.578487129881978" lon="12.251540618017316">
        <ele>1771.8499999999999</ele>
        <time>2015-07-14T07:51:29Z</time>
      </trkpt>
      <trkpt lat="46.578452931717038" lon="12.25144506432116">
        <ele>1772.3299999999999</ele>
        <time>2015-07-14T07:51:41Z</time>
      </trkpt>
      <trkpt lat="46.578455027192831" lon="12.251442046836019">
        <ele>1772.8099999999999</ele>
        <time>2015-07-14T07:51:44Z</time>
      </trkpt>
      <trkpt lat="46.57845301553607" lon="12.251200648024678">
        <ele>1774.25</ele>
        <time>2015-07-14T07:51:58Z</time>
      </trkpt>
      <trkpt lat="46.578417057171464" lon="12.251038542017341">
        <ele>1775.21</ele>
        <time>2015-07-14T07:52:10Z</time>
      </trkpt>
      <trkpt lat="46.578401969745755" lon="12.251030663028359">
        <ele>1776.1700000000001</ele>
        <time>2015-07-14T07:52:19Z</time>
      </trkpt>
      <trkpt lat="46.578438682481647" lon="12.251097047701478">
        <ele>1775.6900000000001</ele>
        <time>2015-07-14T07:52:24Z</time>
      </trkpt>
      <trkpt lat="46.578484950587153" lon="12.251398544758558">
        <ele>1772.8099999999999</ele>
        <time>2015-07-14T07:52:39Z</time>
      </trkpt>
      <trkpt lat="46.578548401594162" lon="12.251648241654038">
        <ele>1771.3699999999999</ele>
        <time>2015-07-14T07:52:53Z</time>
      </trkpt>
      <trkpt lat="46.578699443489313" lon="12.251804480329156">
        <ele>1770.8900000000001</ele>
        <time>2015-07-14T07:53:08Z</time>
      </trkpt>
      <trkpt lat="46.578892227262259" lon="12.251864327117801">
        <ele>1771.3699999999999</ele>
        <time>2015-07-14T07:53:22Z</time>
      </trkpt>
      <trkpt lat="46.579064978286624" lon="12.251941356807947">
        <ele>1770.8900000000001</ele>
        <time>2015-07-14T07:53:36Z</time>
      </trkpt>
      <trkpt lat="46.579259103164077" lon="12.25196692161262">
        <ele>1770.4100000000001</ele>
        <time>2015-07-14T07:53:52Z</time>
      </trkpt>
      <trkpt lat="46.579352980479598" lon="12.251988546922803">
        <ele>1770.8900000000001</ele>
        <time>2015-07-14T07:54:01Z</time>
      </trkpt>
      <trkpt lat="46.579419868066907" lon="12.251904224976897">
        <ele>1770.8900000000001</ele>
        <time>2015-07-14T07:54:08Z</time>
      </trkpt>
      <trkpt lat="46.57942590303719" lon="12.251895172521472">
        <ele>1770.4100000000001</ele>
        <time>2015-07-14T07:54:15Z</time>
      </trkpt>
      <trkpt lat="46.579433027654886" lon="12.251930208876729">
        <ele>1770.4100000000001</ele>
        <time>2015-07-14T07:54:36Z</time>
      </trkpt>
      <trkpt lat="46.579414084553719" lon="12.251932807266712">
        <ele>1768.96</ele>
        <time>2015-07-14T07:54:58Z</time>
      </trkpt>
      <trkpt lat="46.579412994906306" lon="12.251945463940501">
        <ele>1770.8900000000001</ele>
        <time>2015-07-14T07:55:14Z</time>
      </trkpt>
      <trkpt lat="46.579416934400797" lon="12.251946218311787">
        <ele>1770.8900000000001</ele>
        <time>2015-07-14T07:55:38Z</time>
      </trkpt>
      <trkpt lat="46.579390950500965" lon="12.251949654892087">
        <ele>1770.8900000000001</ele>
        <time>2015-07-14T07:56:06Z</time>
      </trkpt>
      <trkpt lat="46.579395309090614" lon="12.251956108957529">
        <ele>1770.8900000000001</ele>
        <time>2015-07-14T07:56:35Z</time>
      </trkpt>
      <trkpt lat="46.579401511698961" lon="12.251936160027981">
        <ele>1770.8900000000001</ele>
        <time>2015-07-14T07:57:04Z</time>
      </trkpt>
      <trkpt lat="46.579409223049879" lon="12.251952001824975">
        <ele>1770.8900000000001</ele>
        <time>2015-07-14T07:57:34Z</time>
      </trkpt>
      <trkpt lat="46.579416180029511" lon="12.251907410100102">
        <ele>1770.8900000000001</ele>
        <time>2015-07-14T07:58:05Z</time>
      </trkpt>
      <trkpt lat="46.579427998512983" lon="12.251909170299768">
        <ele>1770.4100000000001</ele>
        <time>2015-07-14T07:58:32Z</time>
      </trkpt>
      <trkpt lat="46.579429674893618" lon="12.251912606880069">
        <ele>1770.4100000000001</ele>
        <time>2015-07-14T07:58:58Z</time>
      </trkpt>
      <trkpt lat="46.579413246363401" lon="12.251956863328815">
        <ele>1770.4100000000001</ele>
        <time>2015-07-14T07:59:32Z</time>
      </trkpt>
      <trkpt lat="46.579432860016823" lon="12.251944877207279">
        <ele>1770.4100000000001</ele>
        <time>2015-07-14T07:59:59Z</time>
      </trkpt>
      <trkpt lat="46.579428920522332" lon="12.251921156421304">
        <ele>1770.4100000000001</ele>
        <time>2015-07-14T08:00:23Z</time>
      </trkpt>
      <trkpt lat="46.579426070675254" lon="12.251915205270052">
        <ele>1770.4100000000001</ele>
        <time>2015-07-14T08:00:50Z</time>
      </trkpt>
      <trkpt lat="46.579404613003135" lon="12.251961892470717">
        <ele>1770.4100000000001</ele>
        <time>2015-07-14T08:01:17Z</time>
      </trkpt>
      <trkpt lat="46.579411821439862" lon="12.251968933269382">
        <ele>1769.9200000000001</ele>
        <time>2015-07-14T08:01:43Z</time>
      </trkpt>
      <trkpt lat="46.579422634094954" lon="12.251978823915124">
        <ele>1768.96</ele>
        <time>2015-07-14T08:01:50Z</time>
      </trkpt>
      <trkpt lat="46.579423220828176" lon="12.251922078430653">
        <ele>1769.4400000000001</ele>
        <time>2015-07-14T08:02:01Z</time>
      </trkpt>
      <trkpt lat="46.579410396516323" lon="12.251917803660035">
        <ele>1770.4100000000001</ele>
        <time>2015-07-14T08:02:19Z</time>
      </trkpt>
      <trkpt lat="46.579420873895288" lon="12.251924844458699">
        <ele>1770.8900000000001</ele>
        <time>2015-07-14T08:02:26Z</time>
      </trkpt>
      <trkpt lat="46.579415928572416" lon="12.251935992389917">
        <ele>1770.8900000000001</ele>
        <time>2015-07-14T08:02:27Z</time>
      </trkpt>
      <trkpt lat="46.579396985471249" lon="12.25197572261095">
        <ele>1770.4100000000001</ele>
        <time>2015-07-14T08:02:31Z</time>
      </trkpt>
      <trkpt lat="46.579317608848214" lon="12.252195747569203">
        <ele>1769.4400000000001</ele>
        <time>2015-07-14T08:02:45Z</time>
      </trkpt>
      <trkpt lat="46.579241333529353" lon="12.252260372042656">
        <ele>1769.4400000000001</ele>
        <time>2015-07-14T08:02:51Z</time>
      </trkpt>
      <trkpt lat="46.579158352687955" lon="12.25227621383965">
        <ele>1769.4400000000001</ele>
        <time>2015-07-14T08:02:58Z</time>
      </trkpt>
      <trkpt lat="46.579011753201485" lon="12.252329522743821">
        <ele>1768</ele>
        <time>2015-07-14T08:03:11Z</time>
      </trkpt>
      <trkpt lat="46.579038994386792" lon="12.252253415063024">
        <ele>1767.04</ele>
        <time>2015-07-14T08:03:23Z</time>
      </trkpt>
      <trkpt lat="46.57900370657444" lon="12.252306304872036">
        <ele>1767.52</ele>
        <time>2015-07-14T08:03:55Z</time>
      </trkpt>
      <trkpt lat="46.578974956646562" lon="12.252250984311104">
        <ele>1767.52</ele>
        <time>2015-07-14T08:04:30Z</time>
      </trkpt>
      <trkpt lat="46.578961042687297" lon="12.252186024561524">
        <ele>1768</ele>
        <time>2015-07-14T08:04:56Z</time>
      </trkpt>
      <trkpt lat="46.578929359093308" lon="12.252208404242992">
        <ele>1768</ele>
        <time>2015-07-14T08:05:23Z</time>
      </trkpt>
      <trkpt lat="46.578960958868265" lon="12.252211589366198">
        <ele>1768</ele>
        <time>2015-07-14T08:05:57Z</time>
      </trkpt>
      <trkpt lat="46.578983422368765" lon="12.252231957390904">
        <ele>1768</ele>
        <time>2015-07-14T08:06:29Z</time>
      </trkpt>
      <trkpt lat="46.579010998830199" lon="12.252216450870037">
        <ele>1767.52</ele>
        <time>2015-07-14T08:06:59Z</time>
      </trkpt>
      <trkpt lat="46.578983422368765" lon="12.252259282395244">
        <ele>1767.52</ele>
        <time>2015-07-14T08:07:30Z</time>
      </trkpt>
      <trkpt lat="46.579003790393472" lon="12.252286523580551">
        <ele>1767.52</ele>
        <time>2015-07-14T08:07:54Z</time>
      </trkpt>
      <trkpt lat="46.578979818150401" lon="12.252282584086061">
        <ele>1767.52</ele>
        <time>2015-07-14T08:08:23Z</time>
      </trkpt>
      <trkpt lat="46.578983338549733" lon="12.25231577642262">
        <ele>1767.52</ele>
        <time>2015-07-14T08:08:48Z</time>
      </trkpt>
      <trkpt lat="46.579012759029865" lon="12.2522874455899">
        <ele>1766.5599999999999</ele>
        <time>2015-07-14T08:09:05Z</time>
      </trkpt>
      <trkpt lat="46.579005969688296" lon="12.252314016222954">
        <ele>1766.5599999999999</ele>
        <time>2015-07-14T08:09:32Z</time>
      </trkpt>
      <trkpt lat="46.578984260559082" lon="12.252352070063353">
        <ele>1767.04</ele>
        <time>2015-07-14T08:10:04Z</time>
      </trkpt>
      <trkpt lat="46.578966407105327" lon="12.252339078113437">
        <ele>1767.04</ele>
        <time>2015-07-14T08:10:32Z</time>
      </trkpt>
      <trkpt lat="46.578965988010168" lon="12.252329690381885">
        <ele>1767.04</ele>
        <time>2015-07-14T08:11:00Z</time>
      </trkpt>
      <trkpt lat="46.578974956646562" lon="12.25234217941761">
        <ele>1767.04</ele>
        <time>2015-07-14T08:11:35Z</time>
      </trkpt>
      <trkpt lat="46.578962299972773" lon="12.252372857183218">
        <ele>1767.04</ele>
        <time>2015-07-14T08:11:58Z</time>
      </trkpt>
      <trkpt lat="46.578956265002489" lon="12.252329438924789">
        <ele>1767.04</ele>
        <time>2015-07-14T08:12:21Z</time>
      </trkpt>
      <trkpt lat="46.578969256952405" lon="12.252340586856008">
        <ele>1767.52</ele>
        <time>2015-07-14T08:12:46Z</time>
      </trkpt>
      <trkpt lat="46.578968251124024" lon="12.252363637089729">
        <ele>1767.52</ele>
        <time>2015-07-14T08:13:09Z</time>
      </trkpt>
      <trkpt lat="46.578968334943056" lon="12.252256432548165">
        <ele>1767.52</ele>
        <time>2015-07-14T08:13:34Z</time>
      </trkpt>
      <trkpt lat="46.578994737938046" lon="12.252306388691068">
        <ele>1767.52</ele>
        <time>2015-07-14T08:13:59Z</time>
      </trkpt>
      <trkpt lat="46.578991888090968" lon="12.252271184697747">
        <ele>1767.52</ele>
        <time>2015-07-14T08:14:23Z</time>
      </trkpt>
      <trkpt lat="46.579012842848897" lon="12.252324158325791">
        <ele>1768</ele>
        <time>2015-07-14T08:14:50Z</time>
      </trkpt>
      <trkpt lat="46.579012759029865" lon="12.252331618219614">
        <ele>1764.6400000000001</ele>
        <time>2015-07-14T08:14:59Z</time>
      </trkpt>
      <trkpt lat="46.579014770686626" lon="12.252332121133804">
        <ele>1768.96</ele>
        <time>2015-07-14T08:15:00Z</time>
      </trkpt>
      <trkpt lat="46.579012088477612" lon="12.252310579642653">
        <ele>1767.52</ele>
        <time>2015-07-14T08:15:16Z</time>
      </trkpt>
      <trkpt lat="46.579013178125024" lon="12.252313932403922">
        <ele>1768</ele>
        <time>2015-07-14T08:15:32Z</time>
      </trkpt>
      <trkpt lat="46.579036647453904" lon="12.252302533015609">
        <ele>1767.04</ele>
        <time>2015-07-14T08:15:57Z</time>
      </trkpt>
      <trkpt lat="46.579057015478611" lon="12.252275124192238">
        <ele>1766.5599999999999</ele>
        <time>2015-07-14T08:16:20Z</time>
      </trkpt>
      <trkpt lat="46.57905014231801" lon="12.252262551337481">
        <ele>1766.5599999999999</ele>
        <time>2015-07-14T08:16:45Z</time>
      </trkpt>
      <trkpt lat="46.579032372683287" lon="12.252302449196577">
        <ele>1766.5599999999999</ele>
        <time>2015-07-14T08:17:03Z</time>
      </trkpt>
      <trkpt lat="46.579040754586458" lon="12.252260539680719">
        <ele>1766.5599999999999</ele>
        <time>2015-07-14T08:17:32Z</time>
      </trkpt>
      <trkpt lat="46.579028852283955" lon="12.252271939069033">
        <ele>1766.0799999999999</ele>
        <time>2015-07-14T08:17:59Z</time>
      </trkpt>
      <trkpt lat="46.579024074599147" lon="12.25230454467237">
        <ele>1766.0799999999999</ele>
        <time>2015-07-14T08:18:28Z</time>
      </trkpt>
      <trkpt lat="46.579015860334039" lon="12.252324158325791">
        <ele>1766.0799999999999</ele>
        <time>2015-07-14T08:18:59Z</time>
      </trkpt>
      <trkpt lat="46.579017620533705" lon="12.25230504758656">
        <ele>1766.0799999999999</ele>
        <time>2015-07-14T08:19:35Z</time>
      </trkpt>
      <trkpt lat="46.57902667298913" lon="12.252282500267029">
        <ele>1765.5999999999999</ele>
        <time>2015-07-14T08:20:03Z</time>
      </trkpt>
      <trkpt lat="46.57902717590332" lon="12.252278225496411">
        <ele>1766.5599999999999</ele>
        <time>2015-07-14T08:20:12Z</time>
      </trkpt>
      <trkpt lat="46.579033294692636" lon="12.252246793359518">
        <ele>1766.5599999999999</ele>
        <time>2015-07-14T08:20:21Z</time>
      </trkpt>
      <trkpt lat="46.579024158418179" lon="12.252267245203257">
        <ele>1766.5599999999999</ele>
        <time>2015-07-14T08:20:37Z</time>
      </trkpt>
      <trkpt lat="46.579019129276276" lon="12.252275878563523">
        <ele>1766.5599999999999</ele>
        <time>2015-07-14T08:20:52Z</time>
      </trkpt>
      <trkpt lat="46.579047041013837" lon="12.252273363992572">
        <ele>1766.5599999999999</ele>
        <time>2015-07-14T08:21:10Z</time>
      </trkpt>
      <trkpt lat="46.579008651897311" lon="12.252245284616947">
        <ele>1766.5599999999999</ele>
        <time>2015-07-14T08:21:19Z</time>
      </trkpt>
      <trkpt lat="46.578989122062922" lon="12.252234471961856">
        <ele>1766.0799999999999</ele>
        <time>2015-07-14T08:21:27Z</time>
      </trkpt>
      <trkpt lat="46.578950816765428" lon="12.252172278240323">
        <ele>1766.5599999999999</ele>
        <time>2015-07-14T08:21:41Z</time>
      </trkpt>
      <trkpt lat="46.578904129564762" lon="12.252117292955518">
        <ele>1767.52</ele>
        <time>2015-07-14T08:21:52Z</time>
      </trkpt>
      <trkpt lat="46.578894658014178" lon="12.252088459208608">
        <ele>1768</ele>
        <time>2015-07-14T08:22:01Z</time>
      </trkpt>
      <trkpt lat="46.578857274726033" lon="12.252070102840662">
        <ele>1768</ele>
        <time>2015-07-14T08:22:15Z</time>
      </trkpt>
      <trkpt lat="46.578836655244231" lon="12.252062978222966">
        <ele>1768.48</ele>
        <time>2015-07-14T08:22:17Z</time>
      </trkpt>
      <trkpt lat="46.578806983307004" lon="12.25202651694417">
        <ele>1768.48</ele>
        <time>2015-07-14T08:22:21Z</time>
      </trkpt>
      <trkpt lat="46.578772785142064" lon="12.25196985527873">
        <ele>1768.48</ele>
        <time>2015-07-14T08:22:27Z</time>
      </trkpt>
      <trkpt lat="46.578661808744073" lon="12.2519351541996">
        <ele>1768.96</ele>
        <time>2015-07-14T08:22:41Z</time>
      </trkpt>
      <trkpt lat="46.578655019402504" lon="12.25191411562264">
        <ele>1768.48</ele>
        <time>2015-07-14T08:22:45Z</time>
      </trkpt>
      <trkpt lat="46.578618306666613" lon="12.251785369589925">
        <ele>1768.48</ele>
        <time>2015-07-14T08:22:54Z</time>
      </trkpt>
      <trkpt lat="46.57846818678081" lon="12.251692581921816">
        <ele>1768.48</ele>
        <time>2015-07-14T08:23:09Z</time>
      </trkpt>
      <trkpt lat="46.578425355255604" lon="12.251511951908469">
        <ele>1768.96</ele>
        <time>2015-07-14T08:23:22Z</time>
      </trkpt>
      <trkpt lat="46.578454943373799" lon="12.251331573352218">
        <ele>1769.9200000000001</ele>
        <time>2015-07-14T08:23:35Z</time>
      </trkpt>
      <trkpt lat="46.57844421453774" lon="12.251240713521838">
        <ele>1770.4100000000001</ele>
        <time>2015-07-14T08:23:41Z</time>
      </trkpt>
      <trkpt lat="46.578411860391498" lon="12.251069471240044">
        <ele>1771.3699999999999</ele>
        <time>2015-07-14T08:23:54Z</time>
      </trkpt>
      <trkpt lat="46.578337261453271" lon="12.250891271978617">
        <ele>1772.3299999999999</ele>
        <time>2015-07-14T08:24:07Z</time>
      </trkpt>
      <trkpt lat="46.578301219269633" lon="12.250809296965599">
        <ele>1772.8099999999999</ele>
        <time>2015-07-14T08:24:18Z</time>
      </trkpt>
      <trkpt lat="46.578310858458281" lon="12.250801250338554">
        <ele>1772.8099999999999</ele>
        <time>2015-07-14T08:24:30Z</time>
      </trkpt>
      <trkpt lat="46.57832695171237" lon="12.250753222033381">
        <ele>1773.77</ele>
        <time>2015-07-14T08:24:36Z</time>
      </trkpt>
      <trkpt lat="46.578330723568797" lon="12.250607376918197">
        <ele>1774.73</ele>
        <time>2015-07-14T08:24:48Z</time>
      </trkpt>
      <trkpt lat="46.578308511525393" lon="12.250537220388651">
        <ele>1775.21</ele>
        <time>2015-07-14T08:24:55Z</time>
      </trkpt>
      <trkpt lat="46.578322928398848" lon="12.250533951446414">
        <ele>1776.1700000000001</ele>
        <time>2015-07-14T08:25:05Z</time>
      </trkpt>
      <trkpt lat="46.578307924792171" lon="12.250428926199675">
        <ele>1775.21</ele>
        <time>2015-07-14T08:25:20Z</time>
      </trkpt>
      <trkpt lat="46.578308343887329" lon="12.250414174050093">
        <ele>1775.21</ele>
        <time>2015-07-14T08:25:21Z</time>
      </trkpt>
      <trkpt lat="46.578314546495676" lon="12.250341335311532">
        <ele>1776.1700000000001</ele>
        <time>2015-07-14T08:25:26Z</time>
      </trkpt>
      <trkpt lat="46.578385205939412" lon="12.250179396942258">
        <ele>1777.1300000000001</ele>
        <time>2015-07-14T08:25:40Z</time>
      </trkpt>
      <trkpt lat="46.578397611156106" lon="12.250071438029408">
        <ele>1779.54</ele>
        <time>2015-07-14T08:25:51Z</time>
      </trkpt>
      <trkpt lat="46.578397024422884" lon="12.250060876831412">
        <ele>1779.54</ele>
        <time>2015-07-14T08:25:52Z</time>
      </trkpt>
      <trkpt lat="46.578371962532401" lon="12.249937411397696">
        <ele>1780.5</ele>
        <time>2015-07-14T08:26:02Z</time>
      </trkpt>
      <trkpt lat="46.578372130170465" lon="12.249874966219068">
        <ele>1780.5</ele>
        <time>2015-07-14T08:26:06Z</time>
      </trkpt>
      <trkpt lat="46.578376824036241" lon="12.249756865203381">
        <ele>1782.4200000000001</ele>
        <time>2015-07-14T08:26:16Z</time>
      </trkpt>
      <trkpt lat="46.57834354788065" lon="12.249640189111233">
        <ele>1782.4200000000001</ele>
        <time>2015-07-14T08:26:26Z</time>
      </trkpt>
      <trkpt lat="46.578372046351433" lon="12.249531894922256">
        <ele>1783.8599999999999</ele>
        <time>2015-07-14T08:26:36Z</time>
      </trkpt>
      <trkpt lat="46.578402891755104" lon="12.249391581863165">
        <ele>1785.3099999999999</ele>
        <time>2015-07-14T08:26:48Z</time>
      </trkpt>
      <trkpt lat="46.578419068828225" lon="12.249281695112586">
        <ele>1786.75</ele>
        <time>2015-07-14T08:26:59Z</time>
      </trkpt>
      <trkpt lat="46.578436000272632" lon="12.249173820018768">
        <ele>1788.1900000000001</ele>
        <time>2015-07-14T08:27:09Z</time>
      </trkpt>
      <trkpt lat="46.578447315841913" lon="12.249025711789727">
        <ele>1789.6300000000001</ele>
        <time>2015-07-14T08:27:21Z</time>
      </trkpt>
      <trkpt lat="46.57849358394742" lon="12.248946418985724">
        <ele>1790.5899999999999</ele>
        <time>2015-07-14T08:27:30Z</time>
      </trkpt>
      <trkpt lat="46.578555442392826" lon="12.248839382082224">
        <ele>1792.52</ele>
        <time>2015-07-14T08:27:42Z</time>
      </trkpt>
      <trkpt lat="46.578579163178802" lon="12.248805351555347">
        <ele>1793</ele>
        <time>2015-07-14T08:27:46Z</time>
      </trkpt>
      <trkpt lat="46.57864747568965" lon="12.248696051537991">
        <ele>1794.4400000000001</ele>
        <time>2015-07-14T08:27:58Z</time>
      </trkpt>
      <trkpt lat="46.578687457367778" lon="12.248578621074557">
        <ele>1796.3599999999999</ele>
        <time>2015-07-14T08:28:10Z</time>
      </trkpt>
      <trkpt lat="46.578682344406843" lon="12.248530341312289">
        <ele>1796.8399999999999</ele>
        <time>2015-07-14T08:28:14Z</time>
      </trkpt>
      <trkpt lat="46.578683853149414" lon="12.248447947204113">
        <ele>1797.8</ele>
        <time>2015-07-14T08:28:20Z</time>
      </trkpt>
      <trkpt lat="46.578695336356759" lon="12.248327750712633">
        <ele>1799.73</ele>
        <time>2015-07-14T08:28:32Z</time>
      </trkpt>
      <trkpt lat="46.578698102384806" lon="12.248225659132004">
        <ele>1800.6900000000001</ele>
        <time>2015-07-14T08:28:42Z</time>
      </trkpt>
      <trkpt lat="46.57868267968297" lon="12.248133542016149">
        <ele>1802.1300000000001</ele>
        <time>2015-07-14T08:28:51Z</time>
      </trkpt>
      <trkpt lat="46.578652923926711" lon="12.24800705909729">
        <ele>1803.0899999999999</ele>
        <time>2015-07-14T08:29:04Z</time>
      </trkpt>
      <trkpt lat="46.5786396805197" lon="12.247942015528679">
        <ele>1803.5699999999999</ele>
        <time>2015-07-14T08:29:15Z</time>
      </trkpt>
      <trkpt lat="46.578591903671622" lon="12.24784922786057">
        <ele>1804.53</ele>
        <time>2015-07-14T08:29:25Z</time>
      </trkpt>
      <trkpt lat="46.578591400757432" lon="12.247822070494294">
        <ele>1804.53</ele>
        <time>2015-07-14T08:29:27Z</time>
      </trkpt>
      <trkpt lat="46.578631130978465" lon="12.247745711356401">
        <ele>1805.97</ele>
        <time>2015-07-14T08:29:38Z</time>
      </trkpt>
      <trkpt lat="46.5786103438586" lon="12.247836822643876">
        <ele>1805.01</ele>
        <time>2015-07-14T08:29:46Z</time>
      </trkpt>
      <trkpt lat="46.578491237014532" lon="12.247709669172764">
        <ele>1804.05</ele>
        <time>2015-07-14T08:29:58Z</time>
      </trkpt>
      <trkpt lat="46.57844714820385" lon="12.247642697766423">
        <ele>1804.05</ele>
        <time>2015-07-14T08:30:03Z</time>
      </trkpt>
      <trkpt lat="46.57845594920218" lon="12.247577654197812">
        <ele>1804.53</ele>
        <time>2015-07-14T08:30:08Z</time>
      </trkpt>
      <trkpt lat="46.578480675816536" lon="12.247533397749066">
        <ele>1805.49</ele>
        <time>2015-07-14T08:30:14Z</time>
      </trkpt>
      <trkpt lat="46.578500792384148" lon="12.247431641444564">
        <ele>1806.45</ele>
        <time>2015-07-14T08:30:25Z</time>
      </trkpt>
      <trkpt lat="46.578535912558436" lon="12.247355282306671">
        <ele>1806.9400000000001</ele>
        <time>2015-07-14T08:30:33Z</time>
      </trkpt>
      <trkpt lat="46.578599363565445" lon="12.247292501851916">
        <ele>1807.9000000000001</ele>
        <time>2015-07-14T08:30:44Z</time>
      </trkpt>
      <trkpt lat="46.578646721318364" lon="12.247222345322371">
        <ele>1809.8199999999999</ele>
        <time>2015-07-14T08:30:56Z</time>
      </trkpt>
      <trkpt lat="46.578659545630217" lon="12.247125115245581">
        <ele>1811.26</ele>
        <time>2015-07-14T08:31:04Z</time>
      </trkpt>
      <trkpt lat="46.578658539801836" lon="12.247031908482313">
        <ele>1812.22</ele>
        <time>2015-07-14T08:31:15Z</time>
      </trkpt>
      <trkpt lat="46.57865141518414" lon="12.246993184089661">
        <ele>1813.1800000000001</ele>
        <time>2015-07-14T08:31:24Z</time>
      </trkpt>
      <trkpt lat="46.578655773773789" lon="12.246988238766789">
        <ele>1813.1800000000001</ele>
        <time>2015-07-14T08:31:35Z</time>
      </trkpt>
      <trkpt lat="46.578657450154424" lon="12.246958399191499">
        <ele>1813.6600000000001</ele>
        <time>2015-07-14T08:31:48Z</time>
      </trkpt>
      <trkpt lat="46.578647559508681" lon="12.246981281787157">
        <ele>1814.6300000000001</ele>
        <time>2015-07-14T08:32:03Z</time>
      </trkpt>
      <trkpt lat="46.578635321930051" lon="12.246980695053935">
        <ele>1814.1500000000001</ele>
        <time>2015-07-14T08:32:21Z</time>
      </trkpt>
      <trkpt lat="46.578624676913023" lon="12.246921770274639">
        <ele>1814.1500000000001</ele>
        <time>2015-07-14T08:32:32Z</time>
      </trkpt>
      <trkpt lat="46.578662814572453" lon="12.246905257925391">
        <ele>1814.6300000000001</ele>
        <time>2015-07-14T08:32:42Z</time>
      </trkpt>
      <trkpt lat="46.578657198697329" lon="12.246857900172472">
        <ele>1816.0699999999999</ele>
        <time>2015-07-14T08:32:53Z</time>
      </trkpt>
      <trkpt lat="46.578683014959097" lon="12.246733009815216">
        <ele>1817.51</ele>
        <time>2015-07-14T08:33:03Z</time>
      </trkpt>
      <trkpt lat="46.578699108213186" lon="12.246659668162465">
        <ele>1818.95</ele>
        <time>2015-07-14T08:33:12Z</time>
      </trkpt>
      <trkpt lat="46.578703885897994" lon="12.2467200178653">
        <ele>1818.47</ele>
        <time>2015-07-14T08:33:33Z</time>
      </trkpt>
      <trkpt lat="46.578702460974455" lon="12.246630750596523">
        <ele>1819.4300000000001</ele>
        <time>2015-07-14T08:33:44Z</time>
      </trkpt>
      <trkpt lat="46.578707993030548" lon="12.246582554653287">
        <ele>1819.9100000000001</ele>
        <time>2015-07-14T08:33:47Z</time>
      </trkpt>
      <trkpt lat="46.578752165660262" lon="12.246478702872992">
        <ele>1821.3499999999999</ele>
        <time>2015-07-14T08:33:59Z</time>
      </trkpt>
      <trkpt lat="46.578726014122367" lon="12.246408211067319">
        <ele>1822.8</ele>
        <time>2015-07-14T08:34:08Z</time>
      </trkpt>
      <trkpt lat="46.578729785978794" lon="12.246288852766156">
        <ele>1824.24</ele>
        <time>2015-07-14T08:34:19Z</time>
      </trkpt>
      <trkpt lat="46.578753422945738" lon="12.246219115331769">
        <ele>1826.1600000000001</ele>
        <time>2015-07-14T08:34:29Z</time>
      </trkpt>
      <trkpt lat="46.578801618888974" lon="12.246107216924429">
        <ele>1828.5599999999999</ele>
        <time>2015-07-14T08:34:42Z</time>
      </trkpt>
      <trkpt lat="46.578824669122696" lon="12.246018284931779">
        <ele>1830.49</ele>
        <time>2015-07-14T08:34:54Z</time>
      </trkpt>
      <trkpt lat="46.57883464358747" lon="12.245962545275688">
        <ele>1831.45</ele>
        <time>2015-07-14T08:35:00Z</time>
      </trkpt>
      <trkpt lat="46.578844534233212" lon="12.245869925245643">
        <ele>1833.8499999999999</ele>
        <time>2015-07-14T08:35:10Z</time>
      </trkpt>
      <trkpt lat="46.578867584466934" lon="12.245757859200239">
        <ele>1835.29</ele>
        <time>2015-07-14T08:35:23Z</time>
      </trkpt>
      <trkpt lat="46.578893316909671" lon="12.245666244998574">
        <ele>1837.22</ele>
        <time>2015-07-14T08:35:34Z</time>
      </trkpt>
      <trkpt lat="46.578841852024198" lon="12.24559910595417">
        <ele>1837.7</ele>
        <time>2015-07-14T08:35:45Z</time>
      </trkpt>
      <trkpt lat="46.578799523413181" lon="12.245601369068027">
        <ele>1840.0999999999999</ele>
        <time>2015-07-14T08:35:55Z</time>
      </trkpt>
      <trkpt lat="46.578709920868278" lon="12.245623664930463">
        <ele>1841.54</ele>
        <time>2015-07-14T08:36:09Z</time>
      </trkpt>
      <trkpt lat="46.57863087952137" lon="12.245566919445992">
        <ele>1843.95</ele>
        <time>2015-07-14T08:36:22Z</time>
      </trkpt>
      <trkpt lat="46.578594837337732" lon="12.245460720732808">
        <ele>1845.3900000000001</ele>
        <time>2015-07-14T08:36:32Z</time>
      </trkpt>
      <trkpt lat="46.578555107116699" lon="12.245375644415617">
        <ele>1847.3099999999999</ele>
        <time>2015-07-14T08:36:43Z</time>
      </trkpt>
      <trkpt lat="46.57855317927897" lon="12.245363490656018">
        <ele>1847.3099999999999</ele>
        <time>2015-07-14T08:36:44Z</time>
      </trkpt>
      <trkpt lat="46.578572625294328" lon="12.245221082121134">
        <ele>1849.23</ele>
        <time>2015-07-14T08:36:56Z</time>
      </trkpt>
      <trkpt lat="46.578619563952088" lon="12.245121756568551">
        <ele>1850.1900000000001</ele>
        <time>2015-07-14T08:37:06Z</time>
      </trkpt>
      <trkpt lat="46.57867387868464" lon="12.245024610310793">
        <ele>1852.1199999999999</ele>
        <time>2015-07-14T08:37:19Z</time>
      </trkpt>
      <trkpt lat="46.578697850927711" lon="12.24490181542933">
        <ele>1853.5599999999999</ele>
        <time>2015-07-14T08:37:28Z</time>
      </trkpt>
      <trkpt lat="46.57873104326427" lon="12.244789665564895">
        <ele>1855</ele>
        <time>2015-07-14T08:37:41Z</time>
      </trkpt>
      <trkpt lat="46.578728193417192" lon="12.244649436324835">
        <ele>1856.4400000000001</ele>
        <time>2015-07-14T08:37:53Z</time>
      </trkpt>
      <trkpt lat="46.578716123476624" lon="12.244557989761233">
        <ele>1858.3699999999999</ele>
        <time>2015-07-14T08:38:05Z</time>
      </trkpt>
      <trkpt lat="46.57867387868464" lon="12.24444692954421">
        <ele>1860.77</ele>
        <time>2015-07-14T08:38:20Z</time>
      </trkpt>
      <trkpt lat="46.578618893399835" lon="12.24437166005373">
        <ele>1862.21</ele>
        <time>2015-07-14T08:38:32Z</time>
      </trkpt>
      <trkpt lat="46.57852778211236" lon="12.244351459667087">
        <ele>1864.6099999999999</ele>
        <time>2015-07-14T08:38:48Z</time>
      </trkpt>
      <trkpt lat="46.578434240072966" lon="12.24430225789547">
        <ele>1866.54</ele>
        <time>2015-07-14T08:39:02Z</time>
      </trkpt>
      <trkpt lat="46.578348409384489" lon="12.244278537109494">
        <ele>1868.46</ele>
        <time>2015-07-14T08:39:15Z</time>
      </trkpt>
      <trkpt lat="46.578272972255945" lon="12.244250373914838">
        <ele>1870.3800000000001</ele>
        <time>2015-07-14T08:39:28Z</time>
      </trkpt>
      <trkpt lat="46.57824631780386" lon="12.244132440537214">
        <ele>1871.8199999999999</ele>
        <time>2015-07-14T08:39:38Z</time>
      </trkpt>
      <trkpt lat="46.578221926465631" lon="12.244002437219024">
        <ele>1873.27</ele>
        <time>2015-07-14T08:39:51Z</time>
      </trkpt>
      <trkpt lat="46.578177083283663" lon="12.243927922099829">
        <ele>1875.1900000000001</ele>
        <time>2015-07-14T08:40:03Z</time>
      </trkpt>
      <trkpt lat="46.578146908432245" lon="12.243840666487813">
        <ele>1877.1099999999999</ele>
        <time>2015-07-14T08:40:15Z</time>
      </trkpt>
      <trkpt lat="46.578116146847606" lon="12.243720386177301">
        <ele>1879.03</ele>
        <time>2015-07-14T08:40:27Z</time>
      </trkpt>
      <trkpt lat="46.578118996694684" lon="12.243589628487825">
        <ele>1880</ele>
        <time>2015-07-14T08:40:38Z</time>
      </trkpt>
      <trkpt lat="46.578117990866303" lon="12.243483178317547">
        <ele>1881.9200000000001</ele>
        <time>2015-07-14T08:40:49Z</time>
      </trkpt>
      <trkpt lat="46.578073063865304" lon="12.243384188041091">
        <ele>1883.3599999999999</ele>
        <time>2015-07-14T08:41:02Z</time>
      </trkpt>
      <trkpt lat="46.57804355956614" lon="12.243299363180995">
        <ele>1885.76</ele>
        <time>2015-07-14T08:41:13Z</time>
      </trkpt>
      <trkpt lat="46.578026711940765" lon="12.243186961859465">
        <ele>1885.76</ele>
        <time>2015-07-14T08:41:22Z</time>
      </trkpt>
      <trkpt lat="46.577998464927077" lon="12.243191068992019">
        <ele>1886.24</ele>
        <time>2015-07-14T08:41:32Z</time>
      </trkpt>
      <trkpt lat="46.577950352802873" lon="12.243183190003037">
        <ele>1886.72</ele>
        <time>2015-07-14T08:41:41Z</time>
      </trkpt>
      <trkpt lat="46.577942473813891" lon="12.243174389004707">
        <ele>1886.72</ele>
        <time>2015-07-14T08:41:42Z</time>
      </trkpt>
      <trkpt lat="46.577895199880004" lon="12.243203893303871">
        <ele>1887.21</ele>
        <time>2015-07-14T08:41:53Z</time>
      </trkpt>
      <trkpt lat="46.577842561528087" lon="12.243205402046442">
        <ele>1887.6900000000001</ele>
        <time>2015-07-14T08:42:09Z</time>
      </trkpt>
      <trkpt lat="46.577814230695367" lon="12.243210934102535">
        <ele>1888.6500000000001</ele>
        <time>2015-07-14T08:42:18Z</time>
      </trkpt>
      <trkpt lat="46.577735608443618" lon="12.24316818639636">
        <ele>1891.05</ele>
        <time>2015-07-14T08:42:30Z</time>
      </trkpt>
      <trkpt lat="46.577675007283688" lon="12.243027370423079">
        <ele>1893.45</ele>
        <time>2015-07-14T08:42:48Z</time>
      </trkpt>
      <trkpt lat="46.577630750834942" lon="12.242966433987021">
        <ele>1896.3399999999999</ele>
        <time>2015-07-14T08:43:05Z</time>
      </trkpt>
      <trkpt lat="46.577529665082693" lon="12.242913208901882">
        <ele>1897.3</ele>
        <time>2015-07-14T08:43:21Z</time>
      </trkpt>
      <trkpt lat="46.577442074194551" lon="12.242871467024088">
        <ele>1899.22</ele>
        <time>2015-07-14T08:43:36Z</time>
      </trkpt>
      <trkpt lat="46.577412402257323" lon="12.242734925821424">
        <ele>1901.1400000000001</ele>
        <time>2015-07-14T08:43:49Z</time>
      </trkpt>
      <trkpt lat="46.577437380328774" lon="12.24259058944881">
        <ele>1903.55</ele>
        <time>2015-07-14T08:44:02Z</time>
      </trkpt>
      <trkpt lat="46.577458083629608" lon="12.242478355765343">
        <ele>1905.47</ele>
        <time>2015-07-14T08:44:14Z</time>
      </trkpt>
      <trkpt lat="46.577474931254983" lon="12.242347430437803">
        <ele>1908.3499999999999</ele>
        <time>2015-07-14T08:44:28Z</time>
      </trkpt>
      <trkpt lat="46.577487755566835" lon="12.242294456809759">
        <ele>1910.28</ele>
        <time>2015-07-14T08:44:38Z</time>
      </trkpt>
      <trkpt lat="46.577496221289039" lon="12.242194293066859">
        <ele>1912.2</ele>
        <time>2015-07-14T08:44:50Z</time>
      </trkpt>
      <trkpt lat="46.577561013400555" lon="12.242103684693575">
        <ele>1913.6400000000001</ele>
        <time>2015-07-14T08:45:02Z</time>
      </trkpt>
      <trkpt lat="46.577649526298046" lon="12.242075186222792">
        <ele>1915.5599999999999</ele>
        <time>2015-07-14T08:45:14Z</time>
      </trkpt>
      <trkpt lat="46.577727310359478" lon="12.242093123495579">
        <ele>1917.49</ele>
        <time>2015-07-14T08:45:25Z</time>
      </trkpt>
      <trkpt lat="46.577783720567822" lon="12.242077114060521">
        <ele>1918.9300000000001</ele>
        <time>2015-07-14T08:45:35Z</time>
      </trkpt>
      <trkpt lat="46.577845998108387" lon="12.24208977073431">
        <ele>1920.3699999999999</ele>
        <time>2015-07-14T08:45:46Z</time>
      </trkpt>
      <trkpt lat="46.577908443287015" lon="12.242112737149">
        <ele>1921.8099999999999</ele>
        <time>2015-07-14T08:45:56Z</time>
      </trkpt>
      <trkpt lat="46.577978432178497" lon="12.242111479863524">
        <ele>1923.74</ele>
        <time>2015-07-14T08:46:09Z</time>
      </trkpt>
      <trkpt lat="46.578035177662969" lon="12.242116592824459">
        <ele>1925.1800000000001</ele>
        <time>2015-07-14T08:46:22Z</time>
      </trkpt>
      <trkpt lat="46.578117571771145" lon="12.242096895352006">
        <ele>1927.5799999999999</ele>
        <time>2015-07-14T08:46:34Z</time>
      </trkpt>
      <trkpt lat="46.578184878453612" lon="12.242067977786064">
        <ele>1929.02</ele>
        <time>2015-07-14T08:46:47Z</time>
      </trkpt>
      <trkpt lat="46.578228212893009" lon="12.241997569799423">
        <ele>1930.95</ele>
        <time>2015-07-14T08:47:00Z</time>
      </trkpt>
      <trkpt lat="46.578303817659616" lon="12.241926407441497">
        <ele>1932.3900000000001</ele>
        <time>2015-07-14T08:47:10Z</time>
      </trkpt>
      <trkpt lat="46.578387971967459" lon="12.241883995011449">
        <ele>1934.3099999999999</ele>
        <time>2015-07-14T08:47:21Z</time>
      </trkpt>
      <trkpt lat="46.578455027192831" lon="12.241885000839829">
        <ele>1935.75</ele>
        <time>2015-07-14T08:47:32Z</time>
      </trkpt>
      <trkpt lat="46.578523088246584" lon="12.241928419098258">
        <ele>1937.6700000000001</ele>
        <time>2015-07-14T08:47:43Z</time>
      </trkpt>
      <trkpt lat="46.578483944758773" lon="12.241857759654522">
        <ele>1939.1199999999999</ele>
        <time>2015-07-14T08:47:57Z</time>
      </trkpt>
      <trkpt lat="46.578457290306687" lon="12.24180780351162">
        <ele>1939.5999999999999</ele>
        <time>2015-07-14T08:48:11Z</time>
      </trkpt>
      <trkpt lat="46.578454943373799" lon="12.241760948672891">
        <ele>1940.5599999999999</ele>
        <time>2015-07-14T08:48:25Z</time>
      </trkpt>
      <trkpt lat="46.57845594920218" lon="12.241748459637165">
        <ele>1942</ele>
        <time>2015-07-14T08:48:36Z</time>
      </trkpt>
      <trkpt lat="46.578437341377139" lon="12.241697832942009">
        <ele>1942</ele>
        <time>2015-07-14T08:48:51Z</time>
      </trkpt>
      <trkpt lat="46.578406495973468" lon="12.241593729704618">
        <ele>1944.4000000000001</ele>
        <time>2015-07-14T08:49:02Z</time>
      </trkpt>
      <trkpt lat="46.578368274495006" lon="12.241461966186762">
        <ele>1946.3299999999999</ele>
        <time>2015-07-14T08:49:13Z</time>
      </trkpt>
      <trkpt lat="46.57832401804626" lon="12.241389798000455">
        <ele>1948.25</ele>
        <time>2015-07-14T08:49:25Z</time>
      </trkpt>
      <trkpt lat="46.578272469341755" lon="12.241388373076916">
        <ele>1950.6500000000001</ele>
        <time>2015-07-14T08:49:37Z</time>
      </trkpt>
      <trkpt lat="46.578204492107034" lon="12.24132944829762">
        <ele>1952.5699999999999</ele>
        <time>2015-07-14T08:49:50Z</time>
      </trkpt>
      <trkpt lat="46.578136011958122" lon="12.241253508254886">
        <ele>1954.02</ele>
        <time>2015-07-14T08:50:02Z</time>
      </trkpt>
      <trkpt lat="46.578041044995189" lon="12.241199193522334">
        <ele>1955.46</ele>
        <time>2015-07-14T08:50:14Z</time>
      </trkpt>
      <trkpt lat="46.577950771898031" lon="12.241136245429516">
        <ele>1956.9000000000001</ele>
        <time>2015-07-14T08:50:27Z</time>
      </trkpt>
      <trkpt lat="46.577898552641273" lon="12.241037925705314">
        <ele>1958.3399999999999</ele>
        <time>2015-07-14T08:50:37Z</time>
      </trkpt>
      <trkpt lat="46.577872568741441" lon="12.240894678980112">
        <ele>1960.27</ele>
        <time>2015-07-14T08:50:50Z</time>
      </trkpt>
      <trkpt lat="46.577879525721073" lon="12.240755204111338">
        <ele>1962.6700000000001</ele>
        <time>2015-07-14T08:51:03Z</time>
      </trkpt>
      <trkpt lat="46.577912466600537" lon="12.240641545504332">
        <ele>1964.1099999999999</ele>
        <time>2015-07-14T08:51:15Z</time>
      </trkpt>
      <trkpt lat="46.577913723886013" lon="12.240478601306677">
        <ele>1966.51</ele>
        <time>2015-07-14T08:51:31Z</time>
      </trkpt>
      <trkpt lat="46.577849853783846" lon="12.240443648770452">
        <ele>1967.96</ele>
        <time>2015-07-14T08:51:46Z</time>
      </trkpt>
      <trkpt lat="46.577800903469324" lon="12.240459071472287">
        <ele>1969.4000000000001</ele>
        <time>2015-07-14T08:51:55Z</time>
      </trkpt>
      <trkpt lat="46.577695542946458" lon="12.240419173613191">
        <ele>1971.3199999999999</ele>
        <time>2015-07-14T08:52:09Z</time>
      </trkpt>
      <trkpt lat="46.577715240418911" lon="12.240376845002174">
        <ele>1973.24</ele>
        <time>2015-07-14T08:52:19Z</time>
      </trkpt>
      <trkpt lat="46.577767124399543" lon="12.240345161408186">
        <ele>1975.1700000000001</ele>
        <time>2015-07-14T08:52:29Z</time>
      </trkpt>
      <trkpt lat="46.577835856005549" lon="12.240282380953431">
        <ele>1976.6099999999999</ele>
        <time>2015-07-14T08:52:40Z</time>
      </trkpt>
      <trkpt lat="46.577884303405881" lon="12.240225384011865">
        <ele>1978.53</ele>
        <time>2015-07-14T08:52:52Z</time>
      </trkpt>
      <trkpt lat="46.577940881252289" lon="12.240191688761115">
        <ele>1979.49</ele>
        <time>2015-07-14T08:53:07Z</time>
      </trkpt>
      <trkpt lat="46.578024951741099" lon="12.240171236917377">
        <ele>1981.4100000000001</ele>
        <time>2015-07-14T08:53:16Z</time>
      </trkpt>
      <trkpt lat="46.578084714710712" lon="12.240146091207862">
        <ele>1982.8599999999999</ele>
        <time>2015-07-14T08:53:26Z</time>
      </trkpt>
      <trkpt lat="46.578163420781493" lon="12.240164363756776">
        <ele>1984.3</ele>
        <time>2015-07-14T08:53:36Z</time>
      </trkpt>
      <trkpt lat="46.578254867345095" lon="12.240185905247927">
        <ele>1985.74</ele>
        <time>2015-07-14T08:53:49Z</time>
      </trkpt>
      <trkpt lat="46.578345475718379" lon="12.240179535001516">
        <ele>1987.6600000000001</ele>
        <time>2015-07-14T08:54:01Z</time>
      </trkpt>
      <trkpt lat="46.578372716903687" lon="12.240196885541081">
        <ele>1988.6199999999999</ele>
        <time>2015-07-14T08:54:04Z</time>
      </trkpt>
      <trkpt lat="46.578462570905685" lon="12.240216163918376">
        <ele>1989.5899999999999</ele>
        <time>2015-07-14T08:54:16Z</time>
      </trkpt>
      <trkpt lat="46.578491320833564" lon="12.24022027105093">
        <ele>1991.03</ele>
        <time>2015-07-14T08:54:21Z</time>
      </trkpt>
      <trkpt lat="46.578575558960438" lon="12.240237453952432">
        <ele>1992.47</ele>
        <time>2015-07-14T08:54:33Z</time>
      </trkpt>
      <trkpt lat="46.578620402142406" lon="12.240277603268623">
        <ele>1994.3900000000001</ele>
        <time>2015-07-14T08:54:46Z</time>
      </trkpt>
      <trkpt lat="46.578629286959767" lon="12.240310208871961">
        <ele>1994.8699999999999</ele>
        <time>2015-07-14T08:55:01Z</time>
      </trkpt>
      <trkpt lat="46.578680416569114" lon="12.240392686799169">
        <ele>1995.3499999999999</ele>
        <time>2015-07-14T08:55:14Z</time>
      </trkpt>
      <trkpt lat="46.578658791258931" lon="12.240322278812528">
        <ele>1995.8299999999999</ele>
        <time>2015-07-14T08:55:24Z</time>
      </trkpt>
      <trkpt lat="46.578629789873958" lon="12.240319764241576">
        <ele>1996.3199999999999</ele>
        <time>2015-07-14T08:55:49Z</time>
      </trkpt>
      <trkpt lat="46.578627778217196" lon="12.240326972678304">
        <ele>1996.3199999999999</ele>
        <time>2015-07-14T08:56:16Z</time>
      </trkpt>
      <trkpt lat="46.578620569780469" lon="12.240327475592494">
        <ele>1997.28</ele>
        <time>2015-07-14T08:56:27Z</time>
      </trkpt>
      <trkpt lat="46.578613445162773" lon="12.24033853970468">
        <ele>1996.3199999999999</ele>
        <time>2015-07-14T08:56:46Z</time>
      </trkpt>
      <trkpt lat="46.578608499839902" lon="12.240330828353763">
        <ele>1997.28</ele>
        <time>2015-07-14T08:57:00Z</time>
      </trkpt>
      <trkpt lat="46.578618641942739" lon="12.240362847223878">
        <ele>1997.76</ele>
        <time>2015-07-14T08:57:10Z</time>
      </trkpt>
      <trkpt lat="46.578605147078633" lon="12.240343820303679">
        <ele>1997.76</ele>
        <time>2015-07-14T08:57:23Z</time>
      </trkpt>
      <trkpt lat="46.578602716326714" lon="12.240367289632559">
        <ele>1998.24</ele>
        <time>2015-07-14T08:57:38Z</time>
      </trkpt>
      <trkpt lat="46.578623587265611" lon="12.240337952971458">
        <ele>1998.24</ele>
        <time>2015-07-14T08:57:52Z</time>
      </trkpt>
      <trkpt lat="46.578615037724376" lon="12.240197639912367">
        <ele>2000.1600000000001</ele>
        <time>2015-07-14T08:58:05Z</time>
      </trkpt>
      <trkpt lat="46.578591065481305" lon="12.240121951326728">
        <ele>2000.1600000000001</ele>
        <time>2015-07-14T08:58:23Z</time>
      </trkpt>
      <trkpt lat="46.57853121869266" lon="12.240043748170137">
        <ele>2000.1600000000001</ele>
        <time>2015-07-14T08:58:35Z</time>
      </trkpt>
      <trkpt lat="46.578548820689321" lon="12.240055231377482">
        <ele>2001.5999999999999</ele>
        <time>2015-07-14T08:58:46Z</time>
      </trkpt>
      <trkpt lat="46.578552844002843" lon="12.240090519189835">
        <ele>2001.5999999999999</ele>
        <time>2015-07-14T08:59:07Z</time>
      </trkpt>
      <trkpt lat="46.578554268926382" lon="12.240095632150769">
        <ele>2001.5999999999999</ele>
        <time>2015-07-14T08:59:29Z</time>
      </trkpt>
      <trkpt lat="46.578522836789489" lon="12.240073001012206">
        <ele>2001.5999999999999</ele>
        <time>2015-07-14T08:59:44Z</time>
      </trkpt>
      <trkpt lat="46.578508336097002" lon="12.240054309368134">
        <ele>2002.0799999999999</ele>
        <time>2015-07-14T09:00:05Z</time>
      </trkpt>
      <trkpt lat="46.578496936708689" lon="12.240039892494678">
        <ele>2002.0799999999999</ele>
        <time>2015-07-14T09:00:28Z</time>
      </trkpt>
      <trkpt lat="46.578552005812526" lon="12.240073084831238">
        <ele>2002.5599999999999</ele>
        <time>2015-07-14T09:00:45Z</time>
      </trkpt>
      <trkpt lat="46.578554520383477" lon="12.240093033760786">
        <ele>2002.0799999999999</ele>
        <time>2015-07-14T09:01:00Z</time>
      </trkpt>
      <trkpt lat="46.578534403815866" lon="12.240082891657948">
        <ele>2002.0799999999999</ele>
        <time>2015-07-14T09:01:14Z</time>
      </trkpt>
      <trkpt lat="46.57849308103323" lon="12.240115078166127">
        <ele>2002.0799999999999</ele>
        <time>2015-07-14T09:01:37Z</time>
      </trkpt>
      <trkpt lat="46.578534739091992" lon="12.240082640200853">
        <ele>2002.0799999999999</ele>
        <time>2015-07-14T09:01:56Z</time>
      </trkpt>
      <trkpt lat="46.578503474593163" lon="12.240048022940755">
        <ele>2002.5599999999999</ele>
        <time>2015-07-14T09:02:08Z</time>
      </trkpt>
      <trkpt lat="46.57844421453774" lon="12.239995552226901">
        <ele>2004.01</ele>
        <time>2015-07-14T09:02:19Z</time>
      </trkpt>
      <trkpt lat="46.578378416597843" lon="12.239897064864635">
        <ele>2004.97</ele>
        <time>2015-07-14T09:02:31Z</time>
      </trkpt>
      <trkpt lat="46.578296776860952" lon="12.239805953577161">
        <ele>2007.3699999999999</ele>
        <time>2015-07-14T09:02:44Z</time>
      </trkpt>
      <trkpt lat="46.578234080225229" lon="12.239758428186178">
        <ele>2007.3699999999999</ele>
        <time>2015-07-14T09:02:55Z</time>
      </trkpt>
      <trkpt lat="46.578144310042262" lon="12.239684918895364">
        <ele>2008.8099999999999</ele>
        <time>2015-07-14T09:03:07Z</time>
      </trkpt>
      <trkpt lat="46.578120505437255" lon="12.239627167582512">
        <ele>2009.77</ele>
        <time>2015-07-14T09:03:16Z</time>
      </trkpt>
      <trkpt lat="46.578066777437925" lon="12.239626161754131">
        <ele>2010.73</ele>
        <time>2015-07-14T09:03:27Z</time>
      </trkpt>
      <trkpt lat="46.577995615079999" lon="12.239610655233264">
        <ele>2012.1800000000001</ele>
        <time>2015-07-14T09:03:36Z</time>
      </trkpt>
      <trkpt lat="46.577913723886013" lon="12.239539576694369">
        <ele>2013.1400000000001</ele>
        <time>2015-07-14T09:03:46Z</time>
      </trkpt>
      <trkpt lat="46.577824875712395" lon="12.239479562267661">
        <ele>2015.0599999999999</ele>
        <time>2015-07-14T09:03:59Z</time>
      </trkpt>
      <trkpt lat="46.577748600393534" lon="12.23934662528336">
        <ele>2016.02</ele>
        <time>2015-07-14T09:04:12Z</time>
      </trkpt>
      <trkpt lat="46.577675091102719" lon="12.239178651943803">
        <ele>2017.9400000000001</ele>
        <time>2015-07-14T09:04:24Z</time>
      </trkpt>
      <trkpt lat="46.577651873230934" lon="12.239070693030953">
        <ele>2019.8699999999999</ele>
        <time>2015-07-14T09:04:34Z</time>
      </trkpt>
      <trkpt lat="46.577651789411902" lon="12.238925518468022">
        <ele>2020.3499999999999</ele>
        <time>2015-07-14T09:04:45Z</time>
      </trkpt>
      <trkpt lat="46.577644580975175" lon="12.238873718306422">
        <ele>2021.79</ele>
        <time>2015-07-14T09:04:51Z</time>
      </trkpt>
      <trkpt lat="46.577627565711737" lon="12.238764837384224">
        <ele>2023.23</ele>
        <time>2015-07-14T09:05:03Z</time>
      </trkpt>
      <trkpt lat="46.577602755278349" lon="12.238712199032307">
        <ele>2023.23</ele>
        <time>2015-07-14T09:05:08Z</time>
      </trkpt>
      <trkpt lat="46.57752463594079" lon="12.238545315340161">
        <ele>2022.75</ele>
        <time>2015-07-14T09:05:19Z</time>
      </trkpt>
      <trkpt lat="46.577470740303397" lon="12.238444145768881">
        <ele>2024.1900000000001</ele>
        <time>2015-07-14T09:05:31Z</time>
      </trkpt>
      <trkpt lat="46.577437380328774" lon="12.238406259566545">
        <ele>2024.6700000000001</ele>
        <time>2015-07-14T09:05:36Z</time>
      </trkpt>
      <trkpt lat="46.577337216585875" lon="12.23836443386972">
        <ele>2026.1199999999999</ele>
        <time>2015-07-14T09:05:50Z</time>
      </trkpt>
      <trkpt lat="46.577224312350154" lon="12.238322105258703">
        <ele>2028.04</ele>
        <time>2015-07-14T09:06:02Z</time>
      </trkpt>
      <trkpt lat="46.577092297375202" lon="12.238217499107122">
        <ele>2029</ele>
        <time>2015-07-14T09:06:16Z</time>
      </trkpt>
      <trkpt lat="46.577038569375873" lon="12.238125884905457">
        <ele>2029.96</ele>
        <time>2015-07-14T09:06:25Z</time>
      </trkpt>
      <trkpt lat="46.576934549957514" lon="12.238034941256046">
        <ele>2030.4400000000001</ele>
        <time>2015-07-14T09:06:37Z</time>
      </trkpt>
      <trkpt lat="46.576849306002259" lon="12.237935280427337">
        <ele>2032.3599999999999</ele>
        <time>2015-07-14T09:06:50Z</time>
      </trkpt>
      <trkpt lat="46.576840253546834" lon="12.237922623753548">
        <ele>2032.8399999999999</ele>
        <time>2015-07-14T09:07:00Z</time>
      </trkpt>
      <trkpt lat="46.576770516112447" lon="12.237849030643702">
        <ele>2034.29</ele>
        <time>2015-07-14T09:07:11Z</time>
      </trkpt>
      <trkpt lat="46.576687367632985" lon="12.237759428098798">
        <ele>2038.1300000000001</ele>
        <time>2015-07-14T09:07:25Z</time>
      </trkpt>
      <trkpt lat="46.576636070385575" lon="12.237658677622676">
        <ele>2038.6099999999999</ele>
        <time>2015-07-14T09:07:37Z</time>
      </trkpt>
      <trkpt lat="46.576596340164542" lon="12.237570248544216">
        <ele>2040.05</ele>
        <time>2015-07-14T09:07:47Z</time>
      </trkpt>
      <trkpt lat="46.576580749824643" lon="12.237403113394976">
        <ele>2041.02</ele>
        <time>2015-07-14T09:07:59Z</time>
      </trkpt>
      <trkpt lat="46.576537750661373" lon="12.237236900255084">
        <ele>2041.98</ele>
        <time>2015-07-14T09:08:11Z</time>
      </trkpt>
      <trkpt lat="46.576516544446349" lon="12.23706959746778">
        <ele>2043.4200000000001</ele>
        <time>2015-07-14T09:08:24Z</time>
      </trkpt>
      <trkpt lat="46.576503217220306" lon="12.236946132034063">
        <ele>2044.3800000000001</ele>
        <time>2015-07-14T09:08:34Z</time>
      </trkpt>
      <trkpt lat="46.576537080109119" lon="12.236819230020046">
        <ele>2044.8599999999999</ele>
        <time>2015-07-14T09:08:46Z</time>
      </trkpt>
      <trkpt lat="46.576540851965547" lon="12.236768435686827">
        <ele>2044.8599999999999</ele>
        <time>2015-07-14T09:08:51Z</time>
      </trkpt>
      <trkpt lat="46.576550155878067" lon="12.236696686595678">
        <ele>2043.9000000000001</ele>
        <time>2015-07-14T09:08:57Z</time>
      </trkpt>
      <trkpt lat="46.576559711247683" lon="12.236652430146933">
        <ele>2043.9000000000001</ele>
        <time>2015-07-14T09:09:01Z</time>
      </trkpt>
      <trkpt lat="46.576595669612288" lon="12.236560396850109">
        <ele>2043.9000000000001</ele>
        <time>2015-07-14T09:09:09Z</time>
      </trkpt>
      <trkpt lat="46.576569685712457" lon="12.236428633332253">
        <ele>2044.3800000000001</ele>
        <time>2015-07-14T09:09:20Z</time>
      </trkpt>
      <trkpt lat="46.576533894985914" lon="12.236297288909554">
        <ele>2045.3399999999999</ele>
        <time>2015-07-14T09:09:31Z</time>
      </trkpt>
      <trkpt lat="46.576492320746183" lon="12.23622327670455">
        <ele>2045.3399999999999</ele>
        <time>2015-07-14T09:09:40Z</time>
      </trkpt>
      <trkpt lat="46.576439347118139" lon="12.23608841188252">
        <ele>2045.3399999999999</ele>
        <time>2015-07-14T09:09:51Z</time>
      </trkpt>
      <trkpt lat="46.576390732079744" lon="12.2359305806458">
        <ele>2046.78</ele>
        <time>2015-07-14T09:10:06Z</time>
      </trkpt>
      <trkpt lat="46.576323341578245" lon="12.235854221507907">
        <ele>2048.23</ele>
        <time>2015-07-14T09:10:18Z</time>
      </trkpt>
      <trkpt lat="46.576269194483757" lon="12.235780544579029">
        <ele>2049.1900000000001</ele>
        <time>2015-07-14T09:10:29Z</time>
      </trkpt>
      <trkpt lat="46.576250083744526" lon="12.2356818895787">
        <ele>2050.1500000000001</ele>
        <time>2015-07-14T09:10:42Z</time>
      </trkpt>
      <trkpt lat="46.57619409263134" lon="12.235566303133965">
        <ele>2052.0700000000002</ele>
        <time>2015-07-14T09:10:55Z</time>
      </trkpt>
      <trkpt lat="46.576181519776583" lon="12.235433701425791">
        <ele>2053.0300000000002</ele>
        <time>2015-07-14T09:11:06Z</time>
      </trkpt>
      <trkpt lat="46.576140029355884" lon="12.235301854088902">
        <ele>2053.0300000000002</ele>
        <time>2015-07-14T09:11:17Z</time>
      </trkpt>
      <trkpt lat="46.576110860332847" lon="12.23524603061378">
        <ele>2053.9899999999998</ele>
        <time>2015-07-14T09:11:29Z</time>
      </trkpt>
      <trkpt lat="46.576105579733849" lon="12.235278552398086">
        <ele>2053.9899999999998</ele>
        <time>2015-07-14T09:11:47Z</time>
      </trkpt>
      <trkpt lat="46.576098287478089" lon="12.23528316244483">
        <ele>2053.9899999999998</ele>
        <time>2015-07-14T09:12:05Z</time>
      </trkpt>
      <trkpt lat="46.576096946373582" lon="12.235287101939321">
        <ele>2053.9899999999998</ele>
        <time>2015-07-14T09:12:23Z</time>
      </trkpt>
      <trkpt lat="46.576096778735518" lon="12.235270924866199">
        <ele>2054.4699999999998</ele>
        <time>2015-07-14T09:12:41Z</time>
      </trkpt>
      <trkpt lat="46.576059814542532" lon="12.23523236811161">
        <ele>2054.4699999999998</ele>
        <time>2015-07-14T09:12:46Z</time>
      </trkpt>
      <trkpt lat="46.576013127341866" lon="12.235197834670544">
        <ele>2053.9899999999998</ele>
        <time>2015-07-14T09:12:51Z</time>
      </trkpt>
      <trkpt lat="46.575998878106475" lon="12.235183250159025">
        <ele>2054.4699999999998</ele>
        <time>2015-07-14T09:12:53Z</time>
      </trkpt>
      <trkpt lat="46.575936935842037" lon="12.235131366178393">
        <ele>2055.4400000000001</ele>
        <time>2015-07-14T09:13:01Z</time>
      </trkpt>
      <trkpt lat="46.575841633602977" lon="12.23503740504384">
        <ele>2056.4000000000001</ele>
        <time>2015-07-14T09:13:12Z</time>
      </trkpt>
      <trkpt lat="46.575813218951225" lon="12.235026760026813">
        <ele>2056.4000000000001</ele>
        <time>2015-07-14T09:13:15Z</time>
      </trkpt>
      <trkpt lat="46.575754880905151" lon="12.234944030642509">
        <ele>2056.8800000000001</ele>
        <time>2015-07-14T09:13:25Z</time>
      </trkpt>
      <trkpt lat="46.575700147077441" lon="12.234890637919307">
        <ele>2058.3200000000002</ele>
        <time>2015-07-14T09:13:38Z</time>
      </trkpt>
      <trkpt lat="46.575626637786627" lon="12.23482433706522">
        <ele>2060.2399999999998</ele>
        <time>2015-07-14T09:13:51Z</time>
      </trkpt>
      <trkpt lat="46.575577184557915" lon="12.234744373708963">
        <ele>2061.1999999999998</ele>
        <time>2015-07-14T09:14:03Z</time>
      </trkpt>
      <trkpt lat="46.575520187616348" lon="12.234667427837849">
        <ele>2061.6799999999998</ele>
        <time>2015-07-14T09:14:13Z</time>
      </trkpt>
      <trkpt lat="46.575455227866769" lon="12.234559636563063">
        <ele>2063.1300000000001</ele>
        <time>2015-07-14T09:14:26Z</time>
      </trkpt>
      <trkpt lat="46.575449025258422" lon="12.234548320993781">
        <ele>2063.6100000000001</ele>
        <time>2015-07-14T09:14:27Z</time>
      </trkpt>
      <trkpt lat="46.575377946719527" lon="12.234448241069913">
        <ele>2063.6100000000001</ele>
        <time>2015-07-14T09:14:41Z</time>
      </trkpt>
      <trkpt lat="46.575350873172283" lon="12.234385628253222">
        <ele>2065.0500000000002</ele>
        <time>2015-07-14T09:14:50Z</time>
      </trkpt>
      <trkpt lat="46.575293121859431" lon="12.234263336285949">
        <ele>2066.4899999999998</ele>
        <time>2015-07-14T09:15:01Z</time>
      </trkpt>
      <trkpt lat="46.575232101604342" lon="12.234182031825185">
        <ele>2066.4899999999998</ele>
        <time>2015-07-14T09:15:11Z</time>
      </trkpt>
      <trkpt lat="46.575170997530222" lon="12.234107851982117">
        <ele>2066.4899999999998</ele>
        <time>2015-07-14T09:15:23Z</time>
      </trkpt>
      <trkpt lat="46.575095392763615" lon="12.234038701280951">
        <ele>2070.8200000000002</ele>
        <time>2015-07-14T09:15:34Z</time>
      </trkpt>
      <trkpt lat="46.575087178498507" lon="12.234031576663256">
        <ele>2070.8200000000002</ele>
        <time>2015-07-14T09:15:35Z</time>
      </trkpt>
      <trkpt lat="46.57499497756362" lon="12.233967538923025">
        <ele>2070.8200000000002</ele>
        <time>2015-07-14T09:15:46Z</time>
      </trkpt>
      <trkpt lat="46.574909314513206" lon="12.233914732933044">
        <ele>2071.7800000000002</ele>
        <time>2015-07-14T09:15:58Z</time>
      </trkpt>
      <trkpt lat="46.5748440194875" lon="12.233801493421197">
        <ele>2072.7399999999998</ele>
        <time>2015-07-14T09:16:10Z</time>
      </trkpt>
      <trkpt lat="46.574834045022726" lon="12.233641063794494">
        <ele>2073.2199999999998</ele>
        <time>2015-07-14T09:16:23Z</time>
      </trkpt>
      <trkpt lat="46.574806636199355" lon="12.233502008020878">
        <ele>2073.2199999999998</ele>
        <time>2015-07-14T09:16:34Z</time>
      </trkpt>
      <trkpt lat="46.574795739725232" lon="12.233425062149763">
        <ele>2073.6999999999998</ele>
        <time>2015-07-14T09:16:44Z</time>
      </trkpt>
      <trkpt lat="46.574764810502529" lon="12.233390109613538">
        <ele>2074.1799999999998</ele>
        <time>2015-07-14T09:16:51Z</time>
      </trkpt>
      <trkpt lat="46.574752237647772" lon="12.233306122943759">
        <ele>2075.6199999999999</ele>
        <time>2015-07-14T09:16:59Z</time>
      </trkpt>
      <trkpt lat="46.574713429436088" lon="12.233220459893346">
        <ele>2076.5900000000001</ele>
        <time>2015-07-14T09:17:08Z</time>
      </trkpt>
      <trkpt lat="46.57466372475028" lon="12.233097581192851">
        <ele>2077.5500000000002</ele>
        <time>2015-07-14T09:17:20Z</time>
      </trkpt>
      <trkpt lat="46.574648469686508" lon="12.233043434098363">
        <ele>2078.0300000000002</ele>
        <time>2015-07-14T09:17:25Z</time>
      </trkpt>
      <trkpt lat="46.574604297056794" lon="12.232944779098034">
        <ele>2079.9499999999998</ele>
        <time>2015-07-14T09:17:37Z</time>
      </trkpt>
      <trkpt lat="46.574555514380336" lon="12.23285517655313">
        <ele>2080.9099999999999</ele>
        <time>2015-07-14T09:17:49Z</time>
      </trkpt>
      <trkpt lat="46.574476808309555" lon="12.232767501845956">
        <ele>2081.3899999999999</ele>
        <time>2015-07-14T09:18:01Z</time>
      </trkpt>
      <trkpt lat="46.574439257383347" lon="12.232694076374173">
        <ele>2083.3099999999999</ele>
        <time>2015-07-14T09:18:16Z</time>
      </trkpt>
      <trkpt lat="46.574403634294868" lon="12.23264068365097">
        <ele>2084.7600000000002</ele>
        <time>2015-07-14T09:18:27Z</time>
      </trkpt>
      <trkpt lat="46.574354264885187" lon="12.232558457180858">
        <ele>2084.2800000000002</ele>
        <time>2015-07-14T09:18:39Z</time>
      </trkpt>
      <trkpt lat="46.574333058670163" lon="12.232453767210245">
        <ele>2085.7199999999998</ele>
        <time>2015-07-14T09:18:51Z</time>
      </trkpt>
      <trkpt lat="46.574309002608061" lon="12.232368690893054">
        <ele>2087.6399999999999</ele>
        <time>2015-07-14T09:19:02Z</time>
      </trkpt>
      <trkpt lat="46.574303554370999" lon="12.232355112209916">
        <ele>2088.1199999999999</ele>
        <time>2015-07-14T09:19:11Z</time>
      </trkpt>
      <trkpt lat="46.574280001223087" lon="12.232345724478364">
        <ele>2087.6399999999999</ele>
        <time>2015-07-14T09:19:26Z</time>
      </trkpt>
      <trkpt lat="46.574218226596713" lon="12.232290487736464">
        <ele>2085.7199999999998</ele>
        <time>2015-07-14T09:19:35Z</time>
      </trkpt>
      <trkpt lat="46.574155865237117" lon="12.232200633734465">
        <ele>2087.6399999999999</ele>
        <time>2015-07-14T09:19:46Z</time>
      </trkpt>
      <trkpt lat="46.574084116145968" lon="12.232124526053667">
        <ele>2088.5999999999999</ele>
        <time>2015-07-14T09:19:56Z</time>
      </trkpt>
      <trkpt lat="46.573993507772684" lon="12.232019249349833">
        <ele>2091.4899999999998</ele>
        <time>2015-07-14T09:20:09Z</time>
      </trkpt>
      <trkpt lat="46.573889572173357" lon="12.231970801949501">
        <ele>2092.9299999999998</ele>
        <time>2015-07-14T09:20:23Z</time>
      </trkpt>
      <trkpt lat="46.5738579723984" lon="12.231973651796579">
        <ele>2092.9299999999998</ele>
        <time>2015-07-14T09:20:30Z</time>
      </trkpt>
      <trkpt lat="46.573810698464513" lon="12.231950014829636">
        <ele>2093.8899999999999</ele>
        <time>2015-07-14T09:20:42Z</time>
      </trkpt>
      <trkpt lat="46.573828971013427" lon="12.231950936838984">
        <ele>2093.8899999999999</ele>
        <time>2015-07-14T09:21:03Z</time>
      </trkpt>
      <trkpt lat="46.57381740398705" lon="12.231945153325796">
        <ele>2094.3699999999999</ele>
        <time>2015-07-14T09:21:21Z</time>
      </trkpt>
      <trkpt lat="46.57379393465817" lon="12.231936017051339">
        <ele>2094.3699999999999</ele>
        <time>2015-07-14T09:21:30Z</time>
      </trkpt>
      <trkpt lat="46.57365714199841" lon="12.231887737289071">
        <ele>2095.8099999999999</ele>
        <time>2015-07-14T09:21:43Z</time>
      </trkpt>
      <trkpt lat="46.573567623272538" lon="12.231832416728139">
        <ele>2096.77</ele>
        <time>2015-07-14T09:21:51Z</time>
      </trkpt>
      <trkpt lat="46.573514565825462" lon="12.231707274913788">
        <ele>2096.77</ele>
        <time>2015-07-14T09:22:00Z</time>
      </trkpt>
      <trkpt lat="46.573469387367368" lon="12.231508120894432">
        <ele>2098.21</ele>
        <time>2015-07-14T09:22:13Z</time>
      </trkpt>
      <trkpt lat="46.573381461203098" lon="12.231400413438678">
        <ele>2099.6599999999999</ele>
        <time>2015-07-14T09:22:24Z</time>
      </trkpt>
      <trkpt lat="46.57332488335669" lon="12.231350289657712">
        <ele>2099.1799999999998</ele>
        <time>2015-07-14T09:22:30Z</time>
      </trkpt>
      <trkpt lat="46.573246847838163" lon="12.231231182813644">
        <ele>2097.25</ele>
        <time>2015-07-14T09:22:41Z</time>
      </trkpt>
      <trkpt lat="46.573240896686912" lon="12.231109729036689">
        <ele>2098.21</ele>
        <time>2015-07-14T09:22:50Z</time>
      </trkpt>
      <trkpt lat="46.573233269155025" lon="12.231025155633688">
        <ele>2098.21</ele>
        <time>2015-07-14T09:22:59Z</time>
      </trkpt>
      <trkpt lat="46.573221953585744" lon="12.230914011597633">
        <ele>2100.1399999999999</ele>
        <time>2015-07-14T09:23:12Z</time>
      </trkpt>
      <trkpt lat="46.573168560862541" lon="12.230807393789291">
        <ele>2100.1399999999999</ele>
        <time>2015-07-14T09:23:23Z</time>
      </trkpt>
      <trkpt lat="46.573155485093594" lon="12.230748636648059">
        <ele>2101.0999999999999</ele>
        <time>2015-07-14T09:23:28Z</time>
      </trkpt>
      <trkpt lat="46.57310544513166" lon="12.230626093223691">
        <ele>2101.5799999999999</ele>
        <time>2015-07-14T09:23:39Z</time>
      </trkpt>
      <trkpt lat="46.57306588254869" lon="12.230549398809671">
        <ele>2100.1399999999999</ele>
        <time>2015-07-14T09:23:49Z</time>
      </trkpt>
      <trkpt lat="46.573026571422815" lon="12.230369606986642">
        <ele>2101.0999999999999</ele>
        <time>2015-07-14T09:24:02Z</time>
      </trkpt>
      <trkpt lat="46.573015172034502" lon="12.23034999333322">
        <ele>2101.0999999999999</ele>
        <time>2015-07-14T09:24:13Z</time>
      </trkpt>
      <trkpt lat="46.572974184527993" lon="12.230282686650753">
        <ele>2101.5799999999999</ele>
        <time>2015-07-14T09:24:24Z</time>
      </trkpt>
      <trkpt lat="46.572962114587426" lon="12.230216134339571">
        <ele>2101.5799999999999</ele>
        <time>2015-07-14T09:24:34Z</time>
      </trkpt>
      <trkpt lat="46.57288508489728" lon="12.230052519589663">
        <ele>2100.6199999999999</ele>
        <time>2015-07-14T09:24:46Z</time>
      </trkpt>
      <trkpt lat="46.572851305827498" lon="12.229918157681823">
        <ele>2100.1399999999999</ele>
        <time>2015-07-14T09:24:55Z</time>
      </trkpt>
      <trkpt lat="46.572838397696614" lon="12.229747166857123">
        <ele>2101.0999999999999</ele>
        <time>2015-07-14T09:25:06Z</time>
      </trkpt>
      <trkpt lat="46.572840241715312" lon="12.229623701423407">
        <ele>2102.0599999999999</ele>
        <time>2015-07-14T09:25:15Z</time>
      </trkpt>
      <trkpt lat="46.572843929752707" lon="12.22946360707283">
        <ele>2102.0599999999999</ele>
        <time>2015-07-14T09:25:26Z</time>
      </trkpt>
      <trkpt lat="46.572829261422157" lon="12.229441897943616">
        <ele>2102.0599999999999</ele>
        <time>2015-07-14T09:25:36Z</time>
      </trkpt>
      <trkpt lat="46.572822388261557" lon="12.229423206299543">
        <ele>2101.5799999999999</ele>
        <time>2015-07-14T09:25:55Z</time>
      </trkpt>
      <trkpt lat="46.572823729366064" lon="12.229356653988361">
        <ele>2102.54</ele>
        <time>2015-07-14T09:26:11Z</time>
      </trkpt>
      <trkpt lat="46.572815012186766" lon="12.229253808036447">
        <ele>2103.98</ele>
        <time>2015-07-14T09:26:22Z</time>
      </trkpt>
      <trkpt lat="46.57280302606523" lon="12.22915917634964">
        <ele>2105.9099999999999</ele>
        <time>2015-07-14T09:26:35Z</time>
      </trkpt>
      <trkpt lat="46.572752315551043" lon="12.22906680777669">
        <ele>2106.8699999999999</ele>
        <time>2015-07-14T09:26:46Z</time>
      </trkpt>
      <trkpt lat="46.572709567844868" lon="12.228986928239465">
        <ele>2108.3099999999999</ele>
        <time>2015-07-14T09:26:57Z</time>
      </trkpt>
      <trkpt lat="46.572709316387773" lon="12.228963039815426">
        <ele>2108.79</ele>
        <time>2015-07-14T09:27:17Z</time>
      </trkpt>
      <trkpt lat="46.572656175121665" lon="12.228923309594393">
        <ele>2109.27</ele>
        <time>2015-07-14T09:27:30Z</time>
      </trkpt>
      <trkpt lat="46.572634717449546" lon="12.228885507211089">
        <ele>2110.23</ele>
        <time>2015-07-14T09:27:35Z</time>
      </trkpt>
      <trkpt lat="46.572586186230183" lon="12.228815266862512">
        <ele>2110.71</ele>
        <time>2015-07-14T09:27:42Z</time>
      </trkpt>
      <trkpt lat="46.572521394118667" lon="12.228742511942983">
        <ele>2111.6700000000001</ele>
        <time>2015-07-14T09:27:54Z</time>
      </trkpt>
      <trkpt lat="46.572498679161072" lon="12.228728597983718">
        <ele>2112.1500000000001</ele>
        <time>2015-07-14T09:28:00Z</time>
      </trkpt>
      <trkpt lat="46.572449477389455" lon="12.228704793378711">
        <ele>2114.0799999999999</ele>
        <time>2015-07-14T09:28:09Z</time>
      </trkpt>
      <trkpt lat="46.572439251467586" lon="12.228692891076207">
        <ele>2114.5599999999999</ele>
        <time>2015-07-14T09:28:12Z</time>
      </trkpt>
      <trkpt lat="46.572328107431531" lon="12.228647209703922">
        <ele>2116.48</ele>
        <time>2015-07-14T09:28:26Z</time>
      </trkpt>
      <trkpt lat="46.572295501828194" lon="12.228606306016445">
        <ele>2116.96</ele>
        <time>2015-07-14T09:28:32Z</time>
      </trkpt>
      <trkpt lat="46.572298938408494" lon="12.228449648246169">
        <ele>2117.4400000000001</ele>
        <time>2015-07-14T09:28:44Z</time>
      </trkpt>
      <trkpt lat="46.572291981428862" lon="12.228326601907611">
        <ele>2119.3600000000001</ele>
        <time>2015-07-14T09:28:56Z</time>
      </trkpt>
      <trkpt lat="46.572289550676942" lon="12.22819265909493">
        <ele>2121.29</ele>
        <time>2015-07-14T09:29:10Z</time>
      </trkpt>
      <trkpt lat="46.57228016294539" lon="12.228073133155704">
        <ele>2122.73</ele>
        <time>2015-07-14T09:29:21Z</time>
      </trkpt>
      <trkpt lat="46.572260465472937" lon="12.227967604994774">
        <ele>2124.1700000000001</ele>
        <time>2015-07-14T09:29:32Z</time>
      </trkpt>
      <trkpt lat="46.572257867082953" lon="12.227902393788099">
        <ele>2125.1300000000001</ele>
        <time>2015-07-14T09:29:41Z</time>
      </trkpt>
      <trkpt lat="46.572253005579114" lon="12.227810109034181">
        <ele>2127.0500000000002</ele>
        <time>2015-07-14T09:29:53Z</time>
      </trkpt>
      <trkpt lat="46.572229955345392" lon="12.227792423218489">
        <ele>2127.0500000000002</ele>
        <time>2015-07-14T09:30:11Z</time>
      </trkpt>
      <trkpt lat="46.572272032499313" lon="12.22772947512567">
        <ele>2127.0500000000002</ele>
        <time>2015-07-14T09:30:26Z</time>
      </trkpt>
      <trkpt lat="46.572283934801817" lon="12.227696282789111">
        <ele>2129.9400000000001</ele>
        <time>2015-07-14T09:30:31Z</time>
      </trkpt>
      <trkpt lat="46.572311511263251" lon="12.227618834003806">
        <ele>2131.8600000000001</ele>
        <time>2015-07-14T09:30:41Z</time>
      </trkpt>
      <trkpt lat="46.572319809347391" lon="12.227572649717331">
        <ele>2132.8200000000002</ele>
        <time>2015-07-14T09:30:52Z</time>
      </trkpt>
      <trkpt lat="46.572398180142045" lon="12.227649930864573">
        <ele>2135.23</ele>
        <time>2015-07-14T09:31:02Z</time>
      </trkpt>
      <trkpt lat="46.572434892877936" lon="12.227716650813818">
        <ele>2136.6700000000001</ele>
        <time>2015-07-14T09:31:10Z</time>
      </trkpt>
      <trkpt lat="46.572484849020839" lon="12.227792171761394">
        <ele>2138.1100000000001</ele>
        <time>2015-07-14T09:31:22Z</time>
      </trkpt>
      <trkpt lat="46.572474623098969" lon="12.227746155112982">
        <ele>2139.5500000000002</ele>
        <time>2015-07-14T09:31:33Z</time>
      </trkpt>
      <trkpt lat="46.572496248409152" lon="12.227677842602134">
        <ele>2140.9899999999998</ele>
        <time>2015-07-14T09:31:44Z</time>
      </trkpt>
      <trkpt lat="46.572503289207816" lon="12.227645991370082">
        <ele>2141.9499999999998</ele>
        <time>2015-07-14T09:31:56Z</time>
      </trkpt>
      <trkpt lat="46.572534050792456" lon="12.227625790983438">
        <ele>2143.8800000000001</ele>
        <time>2015-07-14T09:32:08Z</time>
      </trkpt>
      <trkpt lat="46.57260806299746" lon="12.227711621671915">
        <ele>2146.2800000000002</ele>
        <time>2015-07-14T09:32:20Z</time>
      </trkpt>
      <trkpt lat="46.57265055924654" lon="12.227842379361391">
        <ele>2147.2399999999998</ele>
        <time>2015-07-14T09:32:33Z</time>
      </trkpt>
      <trkpt lat="46.572675704956055" lon="12.227898454293609">
        <ele>2149.1599999999999</ele>
        <time>2015-07-14T09:32:44Z</time>
      </trkpt>
      <trkpt lat="46.572688948363066" lon="12.227850174531341">
        <ele>2150.6100000000001</ele>
        <time>2015-07-14T09:32:54Z</time>
      </trkpt>
      <trkpt lat="46.572681739926338" lon="12.22774950787425">
        <ele>2152.0500000000002</ele>
        <time>2015-07-14T09:33:05Z</time>
      </trkpt>
      <trkpt lat="46.572707388550043" lon="12.22769083455205">
        <ele>2153.4899999999998</ele>
        <time>2015-07-14T09:33:17Z</time>
      </trkpt>
      <trkpt lat="46.572712166234851" lon="12.22764196805656">
        <ele>2154.9299999999998</ele>
        <time>2015-07-14T09:33:29Z</time>
      </trkpt>
      <trkpt lat="46.572728343307972" lon="12.227603914216161">
        <ele>2156.3699999999999</ele>
        <time>2015-07-14T09:33:41Z</time>
      </trkpt>
      <trkpt lat="46.572736725211143" lon="12.22759117372334">
        <ele>2156.8600000000001</ele>
        <time>2015-07-14T09:33:57Z</time>
      </trkpt>
      <trkpt lat="46.572779221460223" lon="12.227583127096295">
        <ele>2158.3000000000002</ele>
        <time>2015-07-14T09:34:10Z</time>
      </trkpt>
      <trkpt lat="46.572789866477251" lon="12.227557646110654">
        <ele>2159.2600000000002</ele>
        <time>2015-07-14T09:34:19Z</time>
      </trkpt>
      <trkpt lat="46.57276002690196" lon="12.227493356913328">
        <ele>2157.8200000000002</ele>
        <time>2015-07-14T09:34:32Z</time>
      </trkpt>
      <trkpt lat="46.572739742696285" lon="12.227484891191125">
        <ele>2158.3000000000002</ele>
        <time>2015-07-14T09:34:42Z</time>
      </trkpt>
      <trkpt lat="46.572725577279925" lon="12.227458823472261">
        <ele>2157.8200000000002</ele>
        <time>2015-07-14T09:34:53Z</time>
      </trkpt>
      <trkpt lat="46.57271702773869" lon="12.227428061887622">
        <ele>2157.8200000000002</ele>
        <time>2015-07-14T09:35:06Z</time>
      </trkpt>
      <trkpt lat="46.572711328044534" lon="12.227436862885952">
        <ele>2157.8200000000002</ele>
        <time>2015-07-14T09:35:18Z</time>
      </trkpt>
      <trkpt lat="46.572697665542364" lon="12.227444406598806">
        <ele>2157.3400000000001</ele>
        <time>2015-07-14T09:35:32Z</time>
      </trkpt>
      <trkpt lat="46.572694061324" lon="12.227404760196805">
        <ele>2156.8600000000001</ele>
        <time>2015-07-14T09:35:37Z</time>
      </trkpt>
      <trkpt lat="46.572676543146372" lon="12.227271152660251">
        <ele>2156.3699999999999</ele>
        <time>2015-07-14T09:35:47Z</time>
      </trkpt>
      <trkpt lat="46.572666317224503" lon="12.227114662528038">
        <ele>2155.4099999999999</ele>
        <time>2015-07-14T09:35:59Z</time>
      </trkpt>
      <trkpt lat="46.57262122258544" lon="12.227051379159093">
        <ele>2154.4499999999998</ele>
        <time>2015-07-14T09:36:08Z</time>
      </trkpt>
      <trkpt lat="46.572611164301634" lon="12.227045847103">
        <ele>2154.4499999999998</ele>
        <time>2015-07-14T09:36:09Z</time>
      </trkpt>
      <trkpt lat="46.572597753256559" lon="12.22697258926928">
        <ele>2154.4499999999998</ele>
        <time>2015-07-14T09:36:15Z</time>
      </trkpt>
      <trkpt lat="46.572596747428179" lon="12.226849040016532">
        <ele>2154.4499999999998</ele>
        <time>2015-07-14T09:36:26Z</time>
      </trkpt>
      <trkpt lat="46.572591969743371" lon="12.2267228923738">
        <ele>2154.9299999999998</ele>
        <time>2015-07-14T09:36:36Z</time>
      </trkpt>
      <trkpt lat="46.572598591446877" lon="12.226737728342414">
        <ele>2154.9299999999998</ele>
        <time>2015-07-14T09:36:38Z</time>
      </trkpt>
      <trkpt lat="46.572556179016829" lon="12.22669405862689">
        <ele>2154.4499999999998</ele>
        <time>2015-07-14T09:36:43Z</time>
      </trkpt>
      <trkpt lat="46.572496248409152" lon="12.226636139675975">
        <ele>2155.4099999999999</ele>
        <time>2015-07-14T09:36:54Z</time>
      </trkpt>
      <trkpt lat="46.572494488209486" lon="12.226596157997847">
        <ele>2155.4099999999999</ele>
        <time>2015-07-14T09:37:03Z</time>
      </trkpt>
      <trkpt lat="46.572471186518669" lon="12.226513177156448">
        <ele>2155.8899999999999</ele>
        <time>2015-07-14T09:37:09Z</time>
      </trkpt>
      <trkpt lat="46.572432713583112" lon="12.226340509951115">
        <ele>2154.9299999999998</ele>
        <time>2015-07-14T09:37:21Z</time>
      </trkpt>
      <trkpt lat="46.572420727461576" lon="12.226307988166809">
        <ele>2154.4499999999998</ele>
        <time>2015-07-14T09:37:24Z</time>
      </trkpt>
      <trkpt lat="46.572393234819174" lon="12.226292146369815">
        <ele>2154.4499999999998</ele>
        <time>2015-07-14T09:37:27Z</time>
      </trkpt>
      <trkpt lat="46.572300782427192" lon="12.226287703961134">
        <ele>2153.0100000000002</ele>
        <time>2015-07-14T09:37:40Z</time>
      </trkpt>
      <trkpt lat="46.572330202907324" lon="12.226290386170149">
        <ele>2153.0100000000002</ele>
        <time>2015-07-14T09:37:52Z</time>
      </trkpt>
      <trkpt lat="46.572316121309996" lon="12.226252919062972">
        <ele>2152.5300000000002</ele>
        <time>2015-07-14T09:38:06Z</time>
      </trkpt>
      <trkpt lat="46.572271948680282" lon="12.226272029802203">
        <ele>2153.0100000000002</ele>
        <time>2015-07-14T09:38:30Z</time>
      </trkpt>
      <trkpt lat="46.572305811569095" lon="12.226331625133753">
        <ele>2152.5300000000002</ele>
        <time>2015-07-14T09:38:42Z</time>
      </trkpt>
      <trkpt lat="46.572332549840212" lon="12.226342605426908">
        <ele>2153.0100000000002</ele>
        <time>2015-07-14T09:39:01Z</time>
      </trkpt>
      <trkpt lat="46.572300279513001" lon="12.226302623748779">
        <ele>2153.0100000000002</ele>
        <time>2015-07-14T09:39:14Z</time>
      </trkpt>
      <trkpt lat="46.572212353348732" lon="12.226176811382174">
        <ele>2153.0100000000002</ele>
        <time>2015-07-14T09:39:25Z</time>
      </trkpt>
      <trkpt lat="46.57217119820416" lon="12.226122329011559">
        <ele>2152.5300000000002</ele>
        <time>2015-07-14T09:39:36Z</time>
      </trkpt>
      <trkpt lat="46.572129456326365" lon="12.226082850247622">
        <ele>2152.0500000000002</ele>
        <time>2015-07-14T09:39:55Z</time>
      </trkpt>
      <trkpt lat="46.572095593437552" lon="12.226032307371497">
        <ele>2151.5700000000002</ele>
        <time>2015-07-14T09:40:06Z</time>
      </trkpt>
      <trkpt lat="46.572104478254914" lon="12.226019566878676">
        <ele>2151.5700000000002</ele>
        <time>2015-07-14T09:40:18Z</time>
      </trkpt>
      <trkpt lat="46.572075644508004" lon="12.225939352065325">
        <ele>2150.6100000000001</ele>
        <time>2015-07-14T09:40:36Z</time>
      </trkpt>
      <trkpt lat="46.572013702243567" lon="12.225886546075344">
        <ele>2150.6100000000001</ele>
        <time>2015-07-14T09:40:48Z</time>
      </trkpt>
      <trkpt lat="46.571948826313019" lon="12.225866094231606">
        <ele>2151.0900000000001</ele>
        <time>2015-07-14T09:41:03Z</time>
      </trkpt>
      <trkpt lat="46.57190733589232" lon="12.225878583267331">
        <ele>2150.6100000000001</ele>
        <time>2015-07-14T09:41:11Z</time>
      </trkpt>
      <trkpt lat="46.571878418326378" lon="12.225899621844292">
        <ele>2150.1300000000001</ele>
        <time>2015-07-14T09:41:16Z</time>
      </trkpt>
      <trkpt lat="46.571821169927716" lon="12.225895011797547">
        <ele>2149.1599999999999</ele>
        <time>2015-07-14T09:41:23Z</time>
      </trkpt>
      <trkpt lat="46.571756713092327" lon="12.225900711491704">
        <ele>2147.7199999999998</ele>
        <time>2015-07-14T09:41:35Z</time>
      </trkpt>
      <trkpt lat="46.571752857416868" lon="12.22590884193778">
        <ele>2147.2399999999998</ele>
        <time>2015-07-14T09:41:47Z</time>
      </trkpt>
      <trkpt lat="46.571701727807522" lon="12.225898951292038">
        <ele>2146.2800000000002</ele>
        <time>2015-07-14T09:41:57Z</time>
      </trkpt>
      <trkpt lat="46.571625536307693" lon="12.225852347910404">
        <ele>2145.3200000000002</ele>
        <time>2015-07-14T09:42:08Z</time>
      </trkpt>
      <trkpt lat="46.571526797488332" lon="12.225784622132778">
        <ele>2142.9200000000001</ele>
        <time>2015-07-14T09:42:20Z</time>
      </trkpt>
      <trkpt lat="46.571485809981823" lon="12.225759392604232">
        <ele>2142.4400000000001</ele>
        <time>2015-07-14T09:42:24Z</time>
      </trkpt>
      <trkpt lat="46.571401907131076" lon="12.225724188610911">
        <ele>2140.5100000000002</ele>
        <time>2015-07-14T09:42:35Z</time>
      </trkpt>
      <trkpt lat="46.571349939331412" lon="12.225703317672014">
        <ele>2138.5900000000001</ele>
        <time>2015-07-14T09:42:48Z</time>
      </trkpt>
      <trkpt lat="46.571348095312715" lon="12.225706754252315">
        <ele>2138.5900000000001</ele>
        <time>2015-07-14T09:42:49Z</time>
      </trkpt>
      <trkpt lat="46.571337701752782" lon="12.225685548037291">
        <ele>2140.0300000000002</ele>
        <time>2015-07-14T09:43:00Z</time>
      </trkpt>
      <trkpt lat="46.571320686489344" lon="12.225677585229278">
        <ele>2139.0700000000002</ele>
        <time>2015-07-14T09:43:13Z</time>
      </trkpt>
      <trkpt lat="46.571298893541098" lon="12.225688565522432">
        <ele>2138.5900000000001</ele>
        <time>2015-07-14T09:43:23Z</time>
      </trkpt>
      <trkpt lat="46.571372654289007" lon="12.225875649601221">
        <ele>2136.1900000000001</ele>
        <time>2015-07-14T09:43:36Z</time>
      </trkpt>
      <trkpt lat="46.571346670389175" lon="12.225897777825594">
        <ele>2135.71</ele>
        <time>2015-07-14T09:43:39Z</time>
      </trkpt>
      <trkpt lat="46.571271233260632" lon="12.225931892171502">
        <ele>2133.7800000000002</ele>
        <time>2015-07-14T09:43:50Z</time>
      </trkpt>
      <trkpt lat="46.5711675491184" lon="12.225901298224926">
        <ele>2132.3400000000001</ele>
        <time>2015-07-14T09:44:01Z</time>
      </trkpt>
      <trkpt lat="46.57113972119987" lon="12.225900627672672">
        <ele>2131.8600000000001</ele>
        <time>2015-07-14T09:44:04Z</time>
      </trkpt>
      <trkpt lat="46.571107283234596" lon="12.225936334580183">
        <ele>2130.9000000000001</ele>
        <time>2015-07-14T09:44:08Z</time>
      </trkpt>
      <trkpt lat="46.57097652554512" lon="12.226006574928761">
        <ele>2128.98</ele>
        <time>2015-07-14T09:44:21Z</time>
      </trkpt>
      <trkpt lat="46.570865297690034" lon="12.226025434210896">
        <ele>2127.0500000000002</ele>
        <time>2015-07-14T09:44:32Z</time>
      </trkpt>
      <trkpt lat="46.570743257179856" lon="12.225991990417242">
        <ele>2124.6500000000001</ele>
        <time>2015-07-14T09:44:44Z</time>
      </trkpt>
      <trkpt lat="46.570712998509407" lon="12.226031720638275">
        <ele>2124.1700000000001</ele>
        <time>2015-07-14T09:44:47Z</time>
      </trkpt>
      <trkpt lat="46.570680560544133" lon="12.226131297647953">
        <ele>2122.25</ele>
        <time>2015-07-14T09:44:54Z</time>
      </trkpt>
      <trkpt lat="46.570640997961164" lon="12.226247638463974">
        <ele>2120.3200000000002</ele>
        <time>2015-07-14T09:45:04Z</time>
      </trkpt>
      <trkpt lat="46.57063839957118" lon="12.226326931267977">
        <ele>2119.3600000000001</ele>
        <time>2015-07-14T09:45:09Z</time>
      </trkpt>
      <trkpt lat="46.570607973262668" lon="12.22624059766531">
        <ele>2117.9200000000001</ele>
        <time>2015-07-14T09:45:18Z</time>
      </trkpt>
      <trkpt lat="46.57056950032711" lon="12.226211428642273">
        <ele>2116</ele>
        <time>2015-07-14T09:45:28Z</time>
      </trkpt>
      <trkpt lat="46.570496493950486" lon="12.226279322057962">
        <ele>2115.52</ele>
        <time>2015-07-14T09:45:38Z</time>
      </trkpt>
      <trkpt lat="46.570436730980873" lon="12.226315280422568">
        <ele>2113.5999999999999</ele>
        <time>2015-07-14T09:45:47Z</time>
      </trkpt>
      <trkpt lat="46.570413429290056" lon="12.226290972903371">
        <ele>2112.6300000000001</ele>
        <time>2015-07-14T09:45:50Z</time>
      </trkpt>
      <trkpt lat="46.570440586656332" lon="12.226218804717064">
        <ele>2112.1500000000001</ele>
        <time>2015-07-14T09:45:54Z</time>
      </trkpt>
      <trkpt lat="46.570447627454996" lon="12.226173793897033">
        <ele>2111.6700000000001</ele>
        <time>2015-07-14T09:45:56Z</time>
      </trkpt>
      <trkpt lat="46.570453913882375" lon="12.226031301543117">
        <ele>2110.23</ele>
        <time>2015-07-14T09:46:04Z</time>
      </trkpt>
      <trkpt lat="46.570462044328451" lon="12.225832482799888">
        <ele>2109.75</ele>
        <time>2015-07-14T09:46:18Z</time>
      </trkpt>
      <trkpt lat="46.57044536434114" lon="12.225663922727108">
        <ele>2106.8699999999999</ele>
        <time>2015-07-14T09:46:29Z</time>
      </trkpt>
      <trkpt lat="46.570441843941808" lon="12.225659647956491">
        <ele>2106.8699999999999</ele>
        <time>2015-07-14T09:46:30Z</time>
      </trkpt>
      <trkpt lat="46.570386858657002" lon="12.225633328780532">
        <ele>2105.9099999999999</ele>
        <time>2015-07-14T09:46:37Z</time>
      </trkpt>
      <trkpt lat="46.570378392934799" lon="12.225559232756495">
        <ele>2105.9099999999999</ele>
        <time>2015-07-14T09:46:43Z</time>
      </trkpt>
      <trkpt lat="46.570294070988894" lon="12.225413387641311">
        <ele>2104.46</ele>
        <time>2015-07-14T09:46:55Z</time>
      </trkpt>
      <trkpt lat="46.570270769298077" lon="12.225340297445655">
        <ele>2103.98</ele>
        <time>2015-07-14T09:47:01Z</time>
      </trkpt>
      <trkpt lat="46.570209162309766" lon="12.225284725427628">
        <ele>2102.54</ele>
        <time>2015-07-14T09:47:10Z</time>
      </trkpt>
      <trkpt lat="46.570124085992575" lon="12.225271733477712">
        <ele>2100.1399999999999</ele>
        <time>2015-07-14T09:47:22Z</time>
      </trkpt>
      <trkpt lat="46.570048648864031" lon="12.225291347131133">
        <ele>2098.21</ele>
        <time>2015-07-14T09:47:33Z</time>
      </trkpt>
      <trkpt lat="46.569985030218959" lon="12.225281037390232">
        <ele>2096.77</ele>
        <time>2015-07-14T09:47:38Z</time>
      </trkpt>
      <trkpt lat="46.569853518158197" lon="12.225317414849997">
        <ele>2093.8899999999999</ele>
        <time>2015-07-14T09:47:51Z</time>
      </trkpt>
      <trkpt lat="46.569762825965881" lon="12.225397126749158">
        <ele>2091.9699999999998</ele>
        <time>2015-07-14T09:48:03Z</time>
      </trkpt>
      <trkpt lat="46.56971094198525" lon="12.225441131740808">
        <ele>2090.52</ele>
        <time>2015-07-14T09:48:13Z</time>
      </trkpt>
      <trkpt lat="46.569671127945185" lon="12.225478179752827">
        <ele>2088.5999999999999</ele>
        <time>2015-07-14T09:48:22Z</time>
      </trkpt>
      <trkpt lat="46.569650508463383" lon="12.225465606898069">
        <ele>2088.1199999999999</ele>
        <time>2015-07-14T09:48:25Z</time>
      </trkpt>
      <trkpt lat="46.569569287821651" lon="12.225340800359845">
        <ele>2086.1999999999998</ele>
        <time>2015-07-14T09:48:38Z</time>
      </trkpt>
      <trkpt lat="46.569527126848698" lon="12.225362760946155">
        <ele>2085.7199999999998</ele>
        <time>2015-07-14T09:48:49Z</time>
      </trkpt>
      <trkpt lat="46.569547243416309" lon="12.225448088720441">
        <ele>2082.3499999999999</ele>
        <time>2015-07-14T09:48:56Z</time>
      </trkpt>
      <trkpt lat="46.569549422711134" lon="12.225461918860674">
        <ele>2082.3499999999999</ele>
        <time>2015-07-14T09:48:57Z</time>
      </trkpt>
      <trkpt lat="46.569563001394272" lon="12.225516149774194">
        <ele>2082.3499999999999</ele>
        <time>2015-07-14T09:49:01Z</time>
      </trkpt>
      <trkpt lat="46.569607593119144" lon="12.225661156699061">
        <ele>2079.9499999999998</ele>
        <time>2015-07-14T09:49:14Z</time>
      </trkpt>
      <trkpt lat="46.569651430472732" lon="12.225831225514412">
        <ele>2078.5100000000002</ele>
        <time>2015-07-14T09:49:27Z</time>
      </trkpt>
      <trkpt lat="46.569603988900781" lon="12.225817143917084">
        <ele>2076.5900000000001</ele>
        <time>2015-07-14T09:49:37Z</time>
      </trkpt>
      <trkpt lat="46.56954875215888" lon="12.225798619911075">
        <ele>2075.1399999999999</ele>
        <time>2015-07-14T09:49:43Z</time>
      </trkpt>
      <trkpt lat="46.569516649469733" lon="12.22579350695014">
        <ele>2074.6599999999999</ele>
        <time>2015-07-14T09:49:46Z</time>
      </trkpt>
      <trkpt lat="46.569427046924829" lon="12.225709687918425">
        <ele>2072.2600000000002</ele>
        <time>2015-07-14T09:49:58Z</time>
      </trkpt>
      <trkpt lat="46.569391759112477" lon="12.225711112841964">
        <ele>2071.7800000000002</ele>
        <time>2015-07-14T09:50:01Z</time>
      </trkpt>
      <trkpt lat="46.569268545135856" lon="12.22563031129539">
        <ele>2070.3400000000001</ele>
        <time>2015-07-14T09:50:14Z</time>
      </trkpt>
      <trkpt lat="46.569254631176591" lon="12.225657552480698">
        <ele>2069.8600000000001</ele>
        <time>2015-07-14T09:50:20Z</time>
      </trkpt>
      <trkpt lat="46.569308778271079" lon="12.22584581002593">
        <ele>2066.4899999999998</ele>
        <time>2015-07-14T09:50:34Z</time>
      </trkpt>
      <trkpt lat="46.569303330034018" lon="12.225950751453638">
        <ele>2064.5700000000002</ele>
        <time>2015-07-14T09:50:45Z</time>
      </trkpt>
      <trkpt lat="46.569295451045036" lon="12.225957456976175">
        <ele>2064.5700000000002</ele>
        <time>2015-07-14T09:50:46Z</time>
      </trkpt>
      <trkpt lat="46.56918958760798" lon="12.225884282961488">
        <ele>2062.6500000000001</ele>
        <time>2015-07-14T09:50:57Z</time>
      </trkpt>
      <trkpt lat="46.569113312289119" lon="12.225824603810906">
        <ele>2060.7199999999998</ele>
        <time>2015-07-14T09:51:07Z</time>
      </trkpt>
      <trkpt lat="46.569037120789289" lon="12.225693427026272">
        <ele>2058.3200000000002</ele>
        <time>2015-07-14T09:51:20Z</time>
      </trkpt>
      <trkpt lat="46.569021698087454" lon="12.225680267438293">
        <ele>2057.8400000000001</ele>
        <time>2015-07-14T09:51:22Z</time>
      </trkpt>
      <trkpt lat="46.568895382806659" lon="12.225647745653987">
        <ele>2055.4400000000001</ele>
        <time>2015-07-14T09:51:35Z</time>
      </trkpt>
      <trkpt lat="46.568858753889799" lon="12.225621342658997">
        <ele>2054.96</ele>
        <time>2015-07-14T09:51:39Z</time>
      </trkpt>
      <trkpt lat="46.568865710869431" lon="12.225472228601575">
        <ele>2053.0300000000002</ele>
        <time>2015-07-14T09:51:49Z</time>
      </trkpt>
      <trkpt lat="46.568867471069098" lon="12.225453620776534">
        <ele>2052.5500000000002</ele>
        <time>2015-07-14T09:51:52Z</time>
      </trkpt>
      <trkpt lat="46.568895550444722" lon="12.225440125912428">
        <ele>2053.9899999999998</ele>
        <time>2015-07-14T09:52:01Z</time>
      </trkpt>
      <trkpt lat="46.56886956654489" lon="12.225416656583548">
        <ele>2054.4699999999998</ele>
        <time>2015-07-14T09:52:17Z</time>
      </trkpt>
      <trkpt lat="46.56887392513454" lon="12.225410034880042">
        <ele>2053.9899999999998</ele>
        <time>2015-07-14T09:52:48Z</time>
      </trkpt>
      <trkpt lat="46.568866549059749" lon="12.225494105368853">
        <ele>2053.0300000000002</ele>
        <time>2015-07-14T09:53:01Z</time>
      </trkpt>
      <trkpt lat="46.568818353116512" lon="12.22567331045866">
        <ele>2050.1500000000001</ele>
        <time>2015-07-14T09:53:15Z</time>
      </trkpt>
      <trkpt lat="46.568891862407327" lon="12.225767187774181">
        <ele>2047.26</ele>
        <time>2015-07-14T09:53:27Z</time>
      </trkpt>
      <trkpt lat="46.568807624280453" lon="12.225759224966168">
        <ele>2045.3399999999999</ele>
        <time>2015-07-14T09:53:37Z</time>
      </trkpt>
      <trkpt lat="46.568678123876452" lon="12.225653110072017">
        <ele>2042.46</ele>
        <time>2015-07-14T09:53:50Z</time>
      </trkpt>
      <trkpt lat="46.568634705618024" lon="12.225456889718771">
        <ele>2041.5</ele>
        <time>2015-07-14T09:54:02Z</time>
      </trkpt>
      <trkpt lat="46.568540828302503" lon="12.225362677127123">
        <ele>2040.54</ele>
        <time>2015-07-14T09:54:13Z</time>
      </trkpt>
      <trkpt lat="46.568541247397661" lon="12.225347841158509">
        <ele>2040.54</ele>
        <time>2015-07-14T09:54:14Z</time>
      </trkpt>
      <trkpt lat="46.568527333438396" lon="12.225250862538815">
        <ele>2038.1300000000001</ele>
        <time>2015-07-14T09:54:26Z</time>
      </trkpt>
      <trkpt lat="46.568505875766277" lon="12.225295370444655">
        <ele>2037.1700000000001</ele>
        <time>2015-07-14T09:54:30Z</time>
      </trkpt>
      <trkpt lat="46.56844737008214" lon="12.225324623286724">
        <ele>2033.8099999999999</ele>
        <time>2015-07-14T09:54:42Z</time>
      </trkpt>
      <trkpt lat="46.568453907966614" lon="12.225284473970532">
        <ele>2032.8399999999999</ele>
        <time>2015-07-14T09:54:45Z</time>
      </trkpt>
      <trkpt lat="46.568451477214694" lon="12.225193195044994">
        <ele>2031.4000000000001</ele>
        <time>2015-07-14T09:54:56Z</time>
      </trkpt>
      <trkpt lat="46.568466229364276" lon="12.225117171183228">
        <ele>2031.4000000000001</ele>
        <time>2015-07-14T09:55:04Z</time>
      </trkpt>
      <trkpt lat="46.568472851067781" lon="12.225039387121797">
        <ele>2029.48</ele>
        <time>2015-07-14T09:55:17Z</time>
      </trkpt>
      <trkpt lat="46.568439071998" lon="12.225114069879055">
        <ele>2028.04</ele>
        <time>2015-07-14T09:55:24Z</time>
      </trkpt>
      <trkpt lat="46.568404203280807" lon="12.22515782341361">
        <ele>2026.1199999999999</ele>
        <time>2015-07-14T09:55:28Z</time>
      </trkpt>
      <trkpt lat="46.568390373140574" lon="12.225183472037315">
        <ele>2025.1500000000001</ele>
        <time>2015-07-14T09:55:30Z</time>
      </trkpt>
      <trkpt lat="46.568374866619706" lon="12.22518322058022">
        <ele>2024.6700000000001</ele>
        <time>2015-07-14T09:55:32Z</time>
      </trkpt>
      <trkpt lat="46.568379476666451" lon="12.225144160911441">
        <ele>2024.1900000000001</ele>
        <time>2015-07-14T09:55:34Z</time>
      </trkpt>
      <trkpt lat="46.56840680167079" lon="12.224998399615288">
        <ele>2022.75</ele>
        <time>2015-07-14T09:55:43Z</time>
      </trkpt>
      <trkpt lat="46.568356174975634" lon="12.224868312478065">
        <ele>2022.27</ele>
        <time>2015-07-14T09:55:54Z</time>
      </trkpt>
      <trkpt lat="46.568342009559274" lon="12.224862948060036">
        <ele>2021.79</ele>
        <time>2015-07-14T09:55:57Z</time>
      </trkpt>
      <trkpt lat="46.568237990140915" lon="12.224759515374899">
        <ele>2021.3099999999999</ele>
        <time>2015-07-14T09:56:11Z</time>
      </trkpt>
      <trkpt lat="46.568163223564625" lon="12.224727999418974">
        <ele>2019.8699999999999</ele>
        <time>2015-07-14T09:56:22Z</time>
      </trkpt>
      <trkpt lat="46.568069346249104" lon="12.224725652486086">
        <ele>2017.46</ele>
        <time>2015-07-14T09:56:34Z</time>
      </trkpt>
      <trkpt lat="46.568007990717888" lon="12.224731268361211">
        <ele>2015.0599999999999</ele>
        <time>2015-07-14T09:56:45Z</time>
      </trkpt>
      <trkpt lat="46.568013019859791" lon="12.224740320816636">
        <ele>2014.5799999999999</ele>
        <time>2015-07-14T09:56:54Z</time>
      </trkpt>
      <trkpt lat="46.568038584664464" lon="12.224800167605281">
        <ele>2013.1400000000001</ele>
        <time>2015-07-14T09:57:04Z</time>
      </trkpt>
      <trkpt lat="46.567980498075485" lon="12.224804777652025">
        <ele>2011.22</ele>
        <time>2015-07-14T09:57:12Z</time>
      </trkpt>
      <trkpt lat="46.567947138100863" lon="12.224788265302777">
        <ele>2011.22</ele>
        <time>2015-07-14T09:57:27Z</time>
      </trkpt>
      <trkpt lat="46.56793381087482" lon="12.224736213684082">
        <ele>2008.8099999999999</ele>
        <time>2015-07-14T09:57:34Z</time>
      </trkpt>
      <trkpt lat="46.567938001826406" lon="12.224736046046019">
        <ele>2010.73</ele>
        <time>2015-07-14T09:57:40Z</time>
      </trkpt>
      <trkpt lat="46.567935571074486" lon="12.224691957235336">
        <ele>2009.77</ele>
        <time>2015-07-14T09:57:53Z</time>
      </trkpt>
      <trkpt lat="46.567930122837424" lon="12.224671589210629">
        <ele>2009.77</ele>
        <time>2015-07-14T09:58:03Z</time>
      </trkpt>
      <trkpt lat="46.567935571074486" lon="12.224635044112802">
        <ele>2009.29</ele>
        <time>2015-07-14T09:58:15Z</time>
      </trkpt>
      <trkpt lat="46.567921992391348" lon="12.224634708836675">
        <ele>2008.3299999999999</ele>
        <time>2015-07-14T09:58:24Z</time>
      </trkpt>
      <trkpt lat="46.567896846681833" lon="12.224636133760214">
        <ele>2006.8900000000001</ele>
        <time>2015-07-14T09:58:35Z</time>
      </trkpt>
      <trkpt lat="46.567901708185673" lon="12.224668571725488">
        <ele>2005.45</ele>
        <time>2015-07-14T09:58:43Z</time>
      </trkpt>
      <trkpt lat="46.567912520840764" lon="12.224668571725488">
        <ele>2004.97</ele>
        <time>2015-07-14T09:58:53Z</time>
      </trkpt>
      <trkpt lat="46.567890895530581" lon="12.224650969728827">
        <ele>2004.97</ele>
        <time>2015-07-14T09:59:13Z</time>
      </trkpt>
      <trkpt lat="46.56789667904377" lon="12.224654909223318">
        <ele>2004.97</ele>
        <time>2015-07-14T09:59:30Z</time>
      </trkpt>
      <trkpt lat="46.567889470607042" lon="12.224668404087424">
        <ele>2004.97</ele>
        <time>2015-07-14T09:59:43Z</time>
      </trkpt>
      <trkpt lat="46.567889805883169" lon="12.224657088518143">
        <ele>2004.97</ele>
        <time>2015-07-14T09:59:59Z</time>
      </trkpt>
      <trkpt lat="46.567889302968979" lon="12.224649293348193">
        <ele>2004.97</ele>
        <time>2015-07-14T10:00:19Z</time>
      </trkpt>
      <trkpt lat="46.567878909409046" lon="12.224652478471398">
        <ele>2004.97</ele>
        <time>2015-07-14T10:00:34Z</time>
      </trkpt>
      <trkpt lat="46.567830964922905" lon="12.224636888131499">
        <ele>2003.04</ele>
        <time>2015-07-14T10:00:44Z</time>
      </trkpt>
      <trkpt lat="46.567869102582335" lon="12.224727664142847">
        <ele>2001.1199999999999</ele>
        <time>2015-07-14T10:00:56Z</time>
      </trkpt>
      <trkpt lat="46.567843286320567" lon="12.224734453484416">
        <ele>1999.2</ele>
        <time>2015-07-14T10:01:05Z</time>
      </trkpt>
      <trkpt lat="46.567792156711221" lon="12.224695309996605">
        <ele>1997.28</ele>
        <time>2015-07-14T10:01:14Z</time>
      </trkpt>
      <trkpt lat="46.567803304642439" lon="12.224760856479406">
        <ele>1995.3499999999999</ele>
        <time>2015-07-14T10:01:24Z</time>
      </trkpt>
      <trkpt lat="46.567858373746276" lon="12.224841825664043">
        <ele>1993.9100000000001</ele>
        <time>2015-07-14T10:01:35Z</time>
      </trkpt>
      <trkpt lat="46.56785468570888" lon="12.224907791242003">
        <ele>1992.47</ele>
        <time>2015-07-14T10:01:44Z</time>
      </trkpt>
      <trkpt lat="46.567802466452122" lon="12.224856242537498">
        <ele>1991.51</ele>
        <time>2015-07-14T10:01:56Z</time>
      </trkpt>
      <trkpt lat="46.567774135619402" lon="12.224839646369219">
        <ele>1991.03</ele>
        <time>2015-07-14T10:02:03Z</time>
      </trkpt>
      <trkpt lat="46.567640108987689" lon="12.224700842052698">
        <ele>1988.6199999999999</ele>
        <time>2015-07-14T10:02:19Z</time>
      </trkpt>
      <trkpt lat="46.567579340189695" lon="12.224641246721148">
        <ele>1987.1800000000001</ele>
        <time>2015-07-14T10:02:33Z</time>
      </trkpt>
      <trkpt lat="46.567612532526255" lon="12.22476689144969">
        <ele>1984.78</ele>
        <time>2015-07-14T10:02:45Z</time>
      </trkpt>
      <trkpt lat="46.567532988265157" lon="12.224710145965219">
        <ele>1982.8599999999999</ele>
        <time>2015-07-14T10:02:54Z</time>
      </trkpt>
      <trkpt lat="46.567509854212403" lon="12.22465599887073">
        <ele>1981.4100000000001</ele>
        <time>2015-07-14T10:03:05Z</time>
      </trkpt>
      <trkpt lat="46.567461742088199" lon="12.224625572562218">
        <ele>1979.97</ele>
        <time>2015-07-14T10:03:15Z</time>
      </trkpt>
      <trkpt lat="46.567411785945296" lon="12.224600343033671">
        <ele>1977.0899999999999</ele>
        <time>2015-07-14T10:03:25Z</time>
      </trkpt>
      <trkpt lat="46.567390328273177" lon="12.224581902846694">
        <ele>1975.6500000000001</ele>
        <time>2015-07-14T10:03:28Z</time>
      </trkpt>
      <trkpt lat="46.567364763468504" lon="12.224425245076418">
        <ele>1974.2</ele>
        <time>2015-07-14T10:03:37Z</time>
      </trkpt>
      <trkpt lat="46.567291589453816" lon="12.224365314468741">
        <ele>1973.72</ele>
        <time>2015-07-14T10:03:45Z</time>
      </trkpt>
      <trkpt lat="46.567238615825772" lon="12.224358106032014">
        <ele>1973.24</ele>
        <time>2015-07-14T10:03:52Z</time>
      </trkpt>
      <trkpt lat="46.567191341891885" lon="12.224329775199294">
        <ele>1973.24</ele>
        <time>2015-07-14T10:04:01Z</time>
      </trkpt>
      <trkpt lat="46.56720575876534" lon="12.224343772977591">
        <ele>1973.24</ele>
        <time>2015-07-14T10:04:16Z</time>
      </trkpt>
      <trkpt lat="46.567219085991383" lon="12.224354837089777">
        <ele>1972.76</ele>
        <time>2015-07-14T10:04:37Z</time>
      </trkpt>
      <trkpt lat="46.567232580855489" lon="12.224346036091447">
        <ele>1972.28</ele>
        <time>2015-07-14T10:04:55Z</time>
      </trkpt>
      <trkpt lat="46.567206848412752" lon="12.224326757714152">
        <ele>1972.28</ele>
        <time>2015-07-14T10:05:05Z</time>
      </trkpt>
      <trkpt lat="46.567173739895225" lon="12.224304964765906">
        <ele>1972.28</ele>
        <time>2015-07-14T10:05:22Z</time>
      </trkpt>
      <trkpt lat="46.567035103216767" lon="12.224217457696795">
        <ele>1971.8</ele>
        <time>2015-07-14T10:05:33Z</time>
      </trkpt>
      <trkpt lat="46.566993528977036" lon="12.224121568724513">
        <ele>1970.8399999999999</ele>
        <time>2015-07-14T10:05:39Z</time>
      </trkpt>
      <trkpt lat="46.566935107111931" lon="12.223879331722856">
        <ele>1969.4000000000001</ele>
        <time>2015-07-14T10:05:53Z</time>
      </trkpt>
      <trkpt lat="46.566898645833135" lon="12.223822921514511">
        <ele>1969.4000000000001</ele>
        <time>2015-07-14T10:05:57Z</time>
      </trkpt>
      <trkpt lat="46.566845923662186" lon="12.223714794963598">
        <ele>1968.4400000000001</ele>
        <time>2015-07-14T10:06:06Z</time>
      </trkpt>
      <trkpt lat="46.56683393754065" lon="12.223690906539559">
        <ele>1968.4400000000001</ele>
        <time>2015-07-14T10:06:09Z</time>
      </trkpt>
      <trkpt lat="46.566807618364692" lon="12.22368311136961">
        <ele>1966.03</ele>
        <time>2015-07-14T10:06:12Z</time>
      </trkpt>
      <trkpt lat="46.566740060225129" lon="12.223598202690482">
        <ele>1965.0699999999999</ele>
        <time>2015-07-14T10:06:20Z</time>
      </trkpt>
      <trkpt lat="46.566664120182395" lon="12.223574984818697">
        <ele>1965.55</ele>
        <time>2015-07-14T10:06:29Z</time>
      </trkpt>
      <trkpt lat="46.566581642255187" lon="12.223473312333226">
        <ele>1966.51</ele>
        <time>2015-07-14T10:06:41Z</time>
      </trkpt>
      <trkpt lat="46.566479802131653" lon="12.223406927660108">
        <ele>1965.0699999999999</ele>
        <time>2015-07-14T10:06:53Z</time>
      </trkpt>
      <trkpt lat="46.566475192084908" lon="12.223400892689824">
        <ele>1965.55</ele>
        <time>2015-07-14T10:06:54Z</time>
      </trkpt>
      <trkpt lat="46.566407717764378" lon="12.22337918356061">
        <ele>1965.0699999999999</ele>
        <time>2015-07-14T10:07:03Z</time>
      </trkpt>
      <trkpt lat="46.566386176273227" lon="12.223362419754267">
        <ele>1965.0699999999999</ele>
        <time>2015-07-14T10:07:05Z</time>
      </trkpt>
      <trkpt lat="46.566363209858537" lon="12.223363257944584">
        <ele>1965.0699999999999</ele>
        <time>2015-07-14T10:07:07Z</time>
      </trkpt>
      <trkpt lat="46.566334795206785" lon="12.223350936546922">
        <ele>1964.5899999999999</ele>
        <time>2015-07-14T10:07:10Z</time>
      </trkpt>
      <trkpt lat="46.566283749416471" lon="12.223313888534904">
        <ele>1963.6300000000001</ele>
        <time>2015-07-14T10:07:15Z</time>
      </trkpt>
      <trkpt lat="46.566224237903953" lon="12.223248761147261">
        <ele>1963.1500000000001</ele>
        <time>2015-07-14T10:07:22Z</time>
      </trkpt>
      <trkpt lat="46.56621091067791" lon="12.223209785297513">
        <ele>1963.1500000000001</ele>
        <time>2015-07-14T10:07:25Z</time>
      </trkpt>
      <trkpt lat="46.566164810210466" lon="12.223165947943926">
        <ele>1962.6700000000001</ele>
        <time>2015-07-14T10:07:30Z</time>
      </trkpt>
      <trkpt lat="46.566047295928001" lon="12.223208779469132">
        <ele>1962.1900000000001</ele>
        <time>2015-07-14T10:07:42Z</time>
      </trkpt>
      <trkpt lat="46.565923579037189" lon="12.223192434757948">
        <ele>1960.27</ele>
        <time>2015-07-14T10:07:52Z</time>
      </trkpt>
      <trkpt lat="46.565775219351053" lon="12.223193189129233">
        <ele>1958.8199999999999</ele>
        <time>2015-07-14T10:08:04Z</time>
      </trkpt>
      <trkpt lat="46.565642701461911" lon="12.22317005507648">
        <ele>1960.27</ele>
        <time>2015-07-14T10:08:17Z</time>
      </trkpt>
      <trkpt lat="46.565553518012166" lon="12.223153626546264">
        <ele>1960.75</ele>
        <time>2015-07-14T10:08:30Z</time>
      </trkpt>
      <trkpt lat="46.565533904358745" lon="12.223157985135913">
        <ele>1959.78</ele>
        <time>2015-07-14T10:08:39Z</time>
      </trkpt>
      <trkpt lat="46.565535664558411" lon="12.223114483058453">
        <ele>1959.78</ele>
        <time>2015-07-14T10:08:50Z</time>
      </trkpt>
      <trkpt lat="46.565539017319679" lon="12.223138371482491">
        <ele>1959.78</ele>
        <time>2015-07-14T10:09:10Z</time>
      </trkpt>
      <trkpt lat="46.565550919622183" lon="12.223140802234411">
        <ele>1959.3</ele>
        <time>2015-07-14T10:09:34Z</time>
      </trkpt>
      <trkpt lat="46.565570784732699" lon="12.223143484443426">
        <ele>1959.78</ele>
        <time>2015-07-14T10:09:49Z</time>
      </trkpt>
      <trkpt lat="46.565541615709662" lon="12.223147759214044">
        <ele>1959.78</ele>
        <time>2015-07-14T10:10:04Z</time>
      </trkpt>
      <trkpt lat="46.565540190786123" lon="12.223130827769637">
        <ele>1959.3</ele>
        <time>2015-07-14T10:10:24Z</time>
      </trkpt>
      <trkpt lat="46.565541950985789" lon="12.223144825547934">
        <ele>1959.3</ele>
        <time>2015-07-14T10:10:36Z</time>
      </trkpt>
      <trkpt lat="46.565553182736039" lon="12.223139125853777">
        <ele>1958.8199999999999</ele>
        <time>2015-07-14T10:11:12Z</time>
      </trkpt>
      <trkpt lat="46.56554102897644" lon="12.223136192187667">
        <ele>1958.8199999999999</ele>
        <time>2015-07-14T10:11:42Z</time>
      </trkpt>
      <trkpt lat="46.565550500527024" lon="12.223151447251439">
        <ele>1958.8199999999999</ele>
        <time>2015-07-14T10:12:12Z</time>
      </trkpt>
      <trkpt lat="46.565541699528694" lon="12.223125463351607">
        <ele>1958.8199999999999</ele>
        <time>2015-07-14T10:12:27Z</time>
      </trkpt>
      <trkpt lat="46.565559888258576" lon="12.223144825547934">
        <ele>1958.3399999999999</ele>
        <time>2015-07-14T10:12:49Z</time>
      </trkpt>
      <trkpt lat="46.565553182736039" lon="12.223154213279486">
        <ele>1958.8199999999999</ele>
        <time>2015-07-14T10:13:13Z</time>
      </trkpt>
      <trkpt lat="46.565536670386791" lon="12.223142310976982">
        <ele>1958.8199999999999</ele>
        <time>2015-07-14T10:13:31Z</time>
      </trkpt>
      <trkpt lat="46.565530132502317" lon="12.223140215501189">
        <ele>1958.8199999999999</ele>
        <time>2015-07-14T10:13:56Z</time>
      </trkpt>
      <trkpt lat="46.565510854125023" lon="12.223119428381324">
        <ele>1959.3</ele>
        <time>2015-07-14T10:14:10Z</time>
      </trkpt>
      <trkpt lat="46.565489396452904" lon="12.223122026771307">
        <ele>1959.78</ele>
        <time>2015-07-14T10:14:35Z</time>
      </trkpt>
      <trkpt lat="46.565501885488629" lon="12.223093612119555">
        <ele>1959.78</ele>
        <time>2015-07-14T10:14:57Z</time>
      </trkpt>
      <trkpt lat="46.565542705357075" lon="12.223139209672809">
        <ele>1958.8199999999999</ele>
        <time>2015-07-14T10:15:13Z</time>
      </trkpt>
      <trkpt lat="46.565522002056241" lon="12.223158571869135">
        <ele>1959.3</ele>
        <time>2015-07-14T10:15:43Z</time>
      </trkpt>
      <trkpt lat="46.565530803054571" lon="12.223142813891172">
        <ele>1958.8199999999999</ele>
        <time>2015-07-14T10:16:08Z</time>
      </trkpt>
      <trkpt lat="46.565508591011167" lon="12.223149854689837">
        <ele>1959.3</ele>
        <time>2015-07-14T10:16:27Z</time>
      </trkpt>
      <trkpt lat="46.565516050904989" lon="12.223169300705194">
        <ele>1959.3</ele>
        <time>2015-07-14T10:16:49Z</time>
      </trkpt>
      <trkpt lat="46.565526695922017" lon="12.223140215501189">
        <ele>1959.78</ele>
        <time>2015-07-14T10:16:56Z</time>
      </trkpt>
      <trkpt lat="46.56553809531033" lon="12.223107106983662">
        <ele>1960.27</ele>
        <time>2015-07-14T10:17:08Z</time>
      </trkpt>
      <trkpt lat="46.565492749214172" lon="12.223117081448436">
        <ele>1959.78</ele>
        <time>2015-07-14T10:17:20Z</time>
      </trkpt>
      <trkpt lat="46.565443128347397" lon="12.223060419782996">
        <ele>1960.75</ele>
        <time>2015-07-14T10:17:32Z</time>
      </trkpt>
      <trkpt lat="46.565399961546063" lon="12.223018929362297">
        <ele>1961.71</ele>
        <time>2015-07-14T10:17:42Z</time>
      </trkpt>
      <trkpt lat="46.565377246588469" lon="12.2229946218431">
        <ele>1962.1900000000001</ele>
        <time>2015-07-14T10:17:53Z</time>
      </trkpt>
      <trkpt lat="46.565361823886633" lon="12.222975008189678">
        <ele>1962.1900000000001</ele>
        <time>2015-07-14T10:18:04Z</time>
      </trkpt>
      <trkpt lat="46.565357046201825" lon="12.222970565780997">
        <ele>1962.1900000000001</ele>
        <time>2015-07-14T10:18:05Z</time>
      </trkpt>
      <trkpt lat="46.565288817510009" lon="12.222876101732254">
        <ele>1962.6700000000001</ele>
        <time>2015-07-14T10:18:17Z</time>
      </trkpt>
      <trkpt lat="46.565261408686638" lon="12.222748696804047">
        <ele>1963.6300000000001</ele>
        <time>2015-07-14T10:18:26Z</time>
      </trkpt>
      <trkpt lat="46.565243974328041" lon="12.222694298252463">
        <ele>1964.1099999999999</ele>
        <time>2015-07-14T10:18:29Z</time>
      </trkpt>
      <trkpt lat="46.565228886902332" lon="12.22255147062242">
        <ele>1964.5899999999999</ele>
        <time>2015-07-14T10:18:40Z</time>
      </trkpt>
      <trkpt lat="46.565194353461266" lon="12.222441667690873">
        <ele>1962.1900000000001</ele>
        <time>2015-07-14T10:18:52Z</time>
      </trkpt>
      <trkpt lat="46.565187899395823" lon="12.222414091229439">
        <ele>1962.6700000000001</ele>
        <time>2015-07-14T10:18:54Z</time>
      </trkpt>
      <trkpt lat="46.565126040950418" lon="12.222263468429446">
        <ele>1964.1099999999999</ele>
        <time>2015-07-14T10:19:07Z</time>
      </trkpt>
      <trkpt lat="46.565071558579803" lon="12.222259780392051">
        <ele>1965.0699999999999</ele>
        <time>2015-07-14T10:19:13Z</time>
      </trkpt>
      <trkpt lat="46.56498346477747" lon="12.222183085978031">
        <ele>1966.51</ele>
        <time>2015-07-14T10:19:25Z</time>
      </trkpt>
      <trkpt lat="46.564882881939411" lon="12.222123323008418">
        <ele>1966.99</ele>
        <time>2015-07-14T10:19:36Z</time>
      </trkpt>
      <trkpt lat="46.564795542508364" lon="12.222017208114266">
        <ele>1967.48</ele>
        <time>2015-07-14T10:19:48Z</time>
      </trkpt>
      <trkpt lat="46.564715579152107" lon="12.221979070454836">
        <ele>1967.48</ele>
        <time>2015-07-14T10:20:00Z</time>
      </trkpt>
      <trkpt lat="46.564595550298691" lon="12.221924671903253">
        <ele>1964.1099999999999</ele>
        <time>2015-07-14T10:20:12Z</time>
      </trkpt>
      <trkpt lat="46.564541403204203" lon="12.221919056028128">
        <ele>1963.6300000000001</ele>
        <time>2015-07-14T10:20:18Z</time>
      </trkpt>
      <trkpt lat="46.564530087634921" lon="12.221840852871537">
        <ele>1962.6700000000001</ele>
        <time>2015-07-14T10:20:27Z</time>
      </trkpt>
      <trkpt lat="46.564557161182165" lon="12.221741946414113">
        <ele>1960.27</ele>
        <time>2015-07-14T10:20:35Z</time>
      </trkpt>
      <trkpt lat="46.564679369330406" lon="12.22167338244617">
        <ele>1957.3800000000001</ele>
        <time>2015-07-14T10:20:47Z</time>
      </trkpt>
      <trkpt lat="46.564738964661956" lon="12.221568441018462">
        <ele>1956.9000000000001</ele>
        <time>2015-07-14T10:20:55Z</time>
      </trkpt>
      <trkpt lat="46.564779113978148" lon="12.22152192145586">
        <ele>1956.4200000000001</ele>
        <time>2015-07-14T10:21:00Z</time>
      </trkpt>
      <trkpt lat="46.564808702096343" lon="12.221474060788751">
        <ele>1955.46</ele>
        <time>2015-07-14T10:21:04Z</time>
      </trkpt>
      <trkpt lat="46.564824124798179" lon="12.221460985019803">
        <ele>1955.46</ele>
        <time>2015-07-14T10:21:06Z</time>
      </trkpt>
      <trkpt lat="46.564888162538409" lon="12.221351265907288">
        <ele>1954.5</ele>
        <time>2015-07-14T10:21:16Z</time>
      </trkpt>
      <trkpt lat="46.564966365695" lon="12.221232075244188">
        <ele>1953.54</ele>
        <time>2015-07-14T10:21:27Z</time>
      </trkpt>
      <trkpt lat="46.564985308796167" lon="12.221183376386762">
        <ele>1952.5699999999999</ele>
        <time>2015-07-14T10:21:31Z</time>
      </trkpt>
      <trkpt lat="46.565041383728385" lon="12.221049349755049">
        <ele>1950.1700000000001</ele>
        <time>2015-07-14T10:21:41Z</time>
      </trkpt>
      <trkpt lat="46.565089579671621" lon="12.220944073051214">
        <ele>1949.21</ele>
        <time>2015-07-14T10:21:49Z</time>
      </trkpt>
      <trkpt lat="46.565068205818534" lon="12.220824044197798">
        <ele>1949.21</ele>
        <time>2015-07-14T10:21:57Z</time>
      </trkpt>
      <trkpt lat="46.565046245232224" lon="12.220616592094302">
        <ele>1948.73</ele>
        <time>2015-07-14T10:22:11Z</time>
      </trkpt>
      <trkpt lat="46.565035684034228" lon="12.220553979277611">
        <ele>1948.25</ele>
        <time>2015-07-14T10:22:16Z</time>
      </trkpt>
      <trkpt lat="46.5650181658566" lon="12.220513327047229">
        <ele>1948.25</ele>
        <time>2015-07-14T10:22:20Z</time>
      </trkpt>
      <trkpt lat="46.564994612708688" lon="12.220403105020523">
        <ele>1947.77</ele>
        <time>2015-07-14T10:22:31Z</time>
      </trkpt>
      <trkpt lat="46.564993439242244" lon="12.220210572704673">
        <ele>1946.8099999999999</ele>
        <time>2015-07-14T10:22:43Z</time>
      </trkpt>
      <trkpt lat="46.564998216927052" lon="12.220066906884313">
        <ele>1946.3299999999999</ele>
        <time>2015-07-14T10:22:54Z</time>
      </trkpt>
      <trkpt lat="46.565005509182811" lon="12.219974203035235">
        <ele>1945.8499999999999</ele>
        <time>2015-07-14T10:23:05Z</time>
      </trkpt>
      <trkpt lat="46.565044987946749" lon="12.219898514449596">
        <ele>1945.3599999999999</ele>
        <time>2015-07-14T10:23:14Z</time>
      </trkpt>
      <trkpt lat="46.565086478367448" lon="12.219762224704027">
        <ele>1944.4000000000001</ele>
        <time>2015-07-14T10:23:25Z</time>
      </trkpt>
      <trkpt lat="46.565107516944408" lon="12.219643285498023">
        <ele>1946.3299999999999</ele>
        <time>2015-07-14T10:23:36Z</time>
      </trkpt>
      <trkpt lat="46.565147247165442" lon="12.219543121755123">
        <ele>1944.8800000000001</ele>
        <time>2015-07-14T10:23:45Z</time>
      </trkpt>
      <trkpt lat="46.565171889960766" lon="12.219449747353792">
        <ele>1942.48</ele>
        <time>2015-07-14T10:23:57Z</time>
      </trkpt>
      <trkpt lat="46.565162586048245" lon="12.219424434006214">
        <ele>1942</ele>
        <time>2015-07-14T10:24:00Z</time>
      </trkpt>
      <trkpt lat="46.56513643451035" lon="12.219312032684684">
        <ele>1940.0799999999999</ele>
        <time>2015-07-14T10:24:08Z</time>
      </trkpt>
      <trkpt lat="46.565107768401504" lon="12.219211952760816">
        <ele>1939.5999999999999</ele>
        <time>2015-07-14T10:24:20Z</time>
      </trkpt>
      <trkpt lat="46.565050017088652" lon="12.219113800674677">
        <ele>1937.1900000000001</ele>
        <time>2015-07-14T10:24:31Z</time>
      </trkpt>
      <trkpt lat="46.565007353201509" lon="12.219009194523096">
        <ele>1935.27</ele>
        <time>2015-07-14T10:24:44Z</time>
      </trkpt>
      <trkpt lat="46.564998971298337" lon="12.218999974429607">
        <ele>1934.79</ele>
        <time>2015-07-14T10:24:46Z</time>
      </trkpt>
      <trkpt lat="46.564915152266622" lon="12.218958400189877">
        <ele>1930.95</ele>
        <time>2015-07-14T10:24:57Z</time>
      </trkpt>
      <trkpt lat="46.564877014607191" lon="12.218880197033286">
        <ele>1928.54</ele>
        <time>2015-07-14T10:25:07Z</time>
      </trkpt>
      <trkpt lat="46.564835775643587" lon="12.218806520104408">
        <ele>1926.1400000000001</ele>
        <time>2015-07-14T10:25:16Z</time>
      </trkpt>
      <trkpt lat="46.56478900462389" lon="12.218725634738803">
        <ele>1923.25</ele>
        <time>2015-07-14T10:25:29Z</time>
      </trkpt>
      <trkpt lat="46.564784813672304" lon="12.218699986115098">
        <ele>1922.77</ele>
        <time>2015-07-14T10:25:31Z</time>
      </trkpt>
      <trkpt lat="46.56479143537581" lon="12.218637205660343">
        <ele>1921.3299999999999</ele>
        <time>2015-07-14T10:25:36Z</time>
      </trkpt>
      <trkpt lat="46.56481247395277" lon="12.218528408557177">
        <ele>1919.4100000000001</ele>
        <time>2015-07-14T10:25:48Z</time>
      </trkpt>
      <trkpt lat="46.564790597185493" lon="12.218518266454339">
        <ele>1918.45</ele>
        <time>2015-07-14T10:25:51Z</time>
      </trkpt>
      <trkpt lat="46.564695462584496" lon="12.218427658081055">
        <ele>1915.5599999999999</ele>
        <time>2015-07-14T10:26:03Z</time>
      </trkpt>
      <trkpt lat="46.564698563888669" lon="12.21831944771111">
        <ele>1914.1199999999999</ele>
        <time>2015-07-14T10:26:13Z</time>
      </trkpt>
      <trkpt lat="46.56465221196413" lon="12.218221966177225">
        <ele>1912.2</ele>
        <time>2015-07-14T10:26:24Z</time>
      </trkpt>
      <trkpt lat="46.564622623845935" lon="12.218202855437994">
        <ele>1910.28</ele>
        <time>2015-07-14T10:26:27Z</time>
      </trkpt>
      <trkpt lat="46.564582893624902" lon="12.218147534877062">
        <ele>1910.28</ele>
        <time>2015-07-14T10:26:37Z</time>
      </trkpt>
      <trkpt lat="46.564544755965471" lon="12.218108223751187">
        <ele>1907.8699999999999</ele>
        <time>2015-07-14T10:26:46Z</time>
      </trkpt>
      <trkpt lat="46.564514162018895" lon="12.218050053343177">
        <ele>1905.47</ele>
        <time>2015-07-14T10:26:55Z</time>
      </trkpt>
      <trkpt lat="46.564478119835258" lon="12.217945698648691">
        <ele>1903.0699999999999</ele>
        <time>2015-07-14T10:27:06Z</time>
      </trkpt>
      <trkpt lat="46.564482310786843" lon="12.217916697263718">
        <ele>1902.5899999999999</ele>
        <time>2015-07-14T10:27:08Z</time>
      </trkpt>
      <trkpt lat="46.564466049894691" lon="12.217830782756209">
        <ele>1900.1800000000001</ele>
        <time>2015-07-14T10:27:15Z</time>
      </trkpt>
      <trkpt lat="46.564388936385512" lon="12.217764817178249">
        <ele>1896.8199999999999</ele>
        <time>2015-07-14T10:27:25Z</time>
      </trkpt>
      <trkpt lat="46.564387427642941" lon="12.217686530202627">
        <ele>1895.3800000000001</ele>
        <time>2015-07-14T10:27:34Z</time>
      </trkpt>
      <trkpt lat="46.564367059618235" lon="12.217652415856719">
        <ele>1892.01</ele>
        <time>2015-07-14T10:27:45Z</time>
      </trkpt>
      <trkpt lat="46.564371921122074" lon="12.217617966234684">
        <ele>1891.53</ele>
        <time>2015-07-14T10:27:48Z</time>
      </trkpt>
      <trkpt lat="46.564352558925748" lon="12.217531967908144">
        <ele>1888.1700000000001</ele>
        <time>2015-07-14T10:27:58Z</time>
      </trkpt>
      <trkpt lat="46.564291957765818" lon="12.217528028413653">
        <ele>1886.72</ele>
        <time>2015-07-14T10:28:06Z</time>
      </trkpt>
      <trkpt lat="46.564264129847288" lon="12.217488214373589">
        <ele>1885.28</ele>
        <time>2015-07-14T10:28:10Z</time>
      </trkpt>
      <trkpt lat="46.564162541180849" lon="12.217429457232356">
        <ele>1883.8399999999999</ele>
        <time>2015-07-14T10:28:20Z</time>
      </trkpt>
      <trkpt lat="46.564134210348129" lon="12.217387799173594">
        <ele>1883.8399999999999</ele>
        <time>2015-07-14T10:28:24Z</time>
      </trkpt>
      <trkpt lat="46.564063047990203" lon="12.217317810282111">
        <ele>1881.4400000000001</ele>
        <time>2015-07-14T10:28:34Z</time>
      </trkpt>
      <trkpt lat="46.564065311104059" lon="12.2171975299716">
        <ele>1879.03</ele>
        <time>2015-07-14T10:28:45Z</time>
      </trkpt>
      <trkpt lat="46.564078805968165" lon="12.217177329584956">
        <ele>1878.55</ele>
        <time>2015-07-14T10:28:47Z</time>
      </trkpt>
      <trkpt lat="46.564089534804225" lon="12.217113375663757">
        <ele>1878.0699999999999</ele>
        <time>2015-07-14T10:28:51Z</time>
      </trkpt>
      <trkpt lat="46.564077464863658" lon="12.217012206092477">
        <ele>1876.1500000000001</ele>
        <time>2015-07-14T10:29:00Z</time>
      </trkpt>
      <trkpt lat="46.564047038555145" lon="12.216904163360596">
        <ele>1874.71</ele>
        <time>2015-07-14T10:29:09Z</time>
      </trkpt>
      <trkpt lat="46.564062461256981" lon="12.21683350391686">
        <ele>1875.1900000000001</ele>
        <time>2015-07-14T10:29:15Z</time>
      </trkpt>
      <trkpt lat="46.564062712714076" lon="12.216792935505509">
        <ele>1875.1900000000001</ele>
        <time>2015-07-14T10:29:18Z</time>
      </trkpt>
      <trkpt lat="46.564053324982524" lon="12.216728059574962">
        <ele>1875.1900000000001</ele>
        <time>2015-07-14T10:29:23Z</time>
      </trkpt>
      <trkpt lat="46.563910245895386" lon="12.216646671295166">
        <ele>1873.27</ele>
        <time>2015-07-14T10:29:37Z</time>
      </trkpt>
      <trkpt lat="46.563875880092382" lon="12.216639881953597">
        <ele>1873.27</ele>
        <time>2015-07-14T10:29:40Z</time>
      </trkpt>
      <trkpt lat="46.563783762976527" lon="12.216632338240743">
        <ele>1872.3</ele>
        <time>2015-07-14T10:29:48Z</time>
      </trkpt>
      <trkpt lat="46.563650239259005" lon="12.21666494384408">
        <ele>1869.9000000000001</ele>
        <time>2015-07-14T10:30:02Z</time>
      </trkpt>
      <trkpt lat="46.563875377178192" lon="12.216639798134565">
        <ele>1782.4200000000001</ele>
        <time>2015-07-14T10:36:42Z</time>
      </trkpt>
      <trkpt lat="46.561617376282811" lon="12.21606538631022">
        <ele>1782.4200000000001</ele>
        <time>2015-07-14T10:36:43Z</time>
      </trkpt>
      <trkpt lat="46.561607737094164" lon="12.216103607788682">
        <ele>1779.54</ele>
        <time>2015-07-14T10:37:07Z</time>
      </trkpt>
      <trkpt lat="46.561600612476468" lon="12.216106289997697">
        <ele>1778.5799999999999</ele>
        <time>2015-07-14T10:37:08Z</time>
      </trkpt>
      <trkpt lat="46.561578316614032" lon="12.216127244755626">
        <ele>1776.6500000000001</ele>
        <time>2015-07-14T10:37:11Z</time>
      </trkpt>
      <trkpt lat="46.561553506180644" lon="12.216109139844775">
        <ele>1774.25</ele>
        <time>2015-07-14T10:37:14Z</time>
      </trkpt>
      <trkpt lat="46.561468262225389" lon="12.216092543676496">
        <ele>1770.8900000000001</ele>
        <time>2015-07-14T10:37:22Z</time>
      </trkpt>
      <trkpt lat="46.561359046027064" lon="12.216090029105544">
        <ele>1767.52</ele>
        <time>2015-07-14T10:37:33Z</time>
      </trkpt>
      <trkpt lat="46.56135150231421" lon="12.216099500656128">
        <ele>1767.04</ele>
        <time>2015-07-14T10:37:34Z</time>
      </trkpt>
      <trkpt lat="46.561312107369304" lon="12.2161181923002">
        <ele>1765.5999999999999</ele>
        <time>2015-07-14T10:37:38Z</time>
      </trkpt>
      <trkpt lat="46.561178751289845" lon="12.216183822602034">
        <ele>1763.2</ele>
        <time>2015-07-14T10:37:50Z</time>
      </trkpt>
      <trkpt lat="46.561144469305873" lon="12.216210560873151">
        <ele>1761.75</ele>
        <time>2015-07-14T10:37:54Z</time>
      </trkpt>
      <trkpt lat="46.561135668307543" lon="12.216218188405037">
        <ele>1761.75</ele>
        <time>2015-07-14T10:37:55Z</time>
      </trkpt>
      <trkpt lat="46.56108520925045" lon="12.216264372691512">
        <ele>1760.3099999999999</ele>
        <time>2015-07-14T10:38:02Z</time>
      </trkpt>
      <trkpt lat="46.561057129874825" lon="12.216270659118891">
        <ele>1758.8699999999999</ele>
        <time>2015-07-14T10:38:13Z</time>
      </trkpt>
      <trkpt lat="46.56108126975596" lon="12.216305276378989">
        <ele>1758.8699999999999</ele>
        <time>2015-07-14T10:38:20Z</time>
      </trkpt>
      <trkpt lat="46.561057129874825" lon="12.216346682980657">
        <ele>1758.3900000000001</ele>
        <time>2015-07-14T10:38:27Z</time>
      </trkpt>
      <trkpt lat="46.561043970286846" lon="12.216345593333244">
        <ele>1757.9100000000001</ele>
        <time>2015-07-14T10:38:29Z</time>
      </trkpt>
      <trkpt lat="46.560991918668151" lon="12.216368643566966">
        <ele>1758.3900000000001</ele>
        <time>2015-07-14T10:38:40Z</time>
      </trkpt>
      <trkpt lat="46.560993678867817" lon="12.216381216421723">
        <ele>1758.8699999999999</ele>
        <time>2015-07-14T10:38:41Z</time>
      </trkpt>
      <trkpt lat="46.560971718281507" lon="12.216399656608701">
        <ele>1759.3499999999999</ele>
        <time>2015-07-14T10:38:45Z</time>
      </trkpt>
      <trkpt lat="46.560944393277168" lon="12.216437291353941">
        <ele>1759.3499999999999</ele>
        <time>2015-07-14T10:38:48Z</time>
      </trkpt>
      <trkpt lat="46.560852779075503" lon="12.216439973562956">
        <ele>1756.95</ele>
        <time>2015-07-14T10:38:56Z</time>
      </trkpt>
      <trkpt lat="46.56075487844646" lon="12.216421784833074">
        <ele>1755.02</ele>
        <time>2015-07-14T10:39:04Z</time>
      </trkpt>
      <trkpt lat="46.560613811016083" lon="12.216457324102521">
        <ele>1753.0999999999999</ele>
        <time>2015-07-14T10:39:16Z</time>
      </trkpt>
      <trkpt lat="46.560546839609742" lon="12.216451372951269">
        <ele>1751.6600000000001</ele>
        <time>2015-07-14T10:39:24Z</time>
      </trkpt>
      <trkpt lat="46.560521442443132" lon="12.21644064411521">
        <ele>1751.1800000000001</ele>
        <time>2015-07-14T10:39:28Z</time>
      </trkpt>
      <trkpt lat="46.560437539592385" lon="12.216474507004023">
        <ele>1750.22</ele>
        <time>2015-07-14T10:39:36Z</time>
      </trkpt>
      <trkpt lat="46.560383392497897" lon="12.216480206698179">
        <ele>1748.78</ele>
        <time>2015-07-14T10:39:41Z</time>
      </trkpt>
      <trkpt lat="46.560255819931626" lon="12.216497305780649">
        <ele>1745.8900000000001</ele>
        <time>2015-07-14T10:39:52Z</time>
      </trkpt>
      <trkpt lat="46.560157500207424" lon="12.21650174818933">
        <ele>1743.97</ele>
        <time>2015-07-14T10:40:02Z</time>
      </trkpt>
      <trkpt lat="46.560042500495911" lon="12.216498143970966">
        <ele>1742.53</ele>
        <time>2015-07-14T10:40:13Z</time>
      </trkpt>
      <trkpt lat="46.559961698949337" lon="12.216520691290498">
        <ele>1739.6400000000001</ele>
        <time>2015-07-14T10:40:23Z</time>
      </trkpt>
      <trkpt lat="46.559928590431809" lon="12.216526390984654">
        <ele>1738.6800000000001</ele>
        <time>2015-07-14T10:40:27Z</time>
      </trkpt>
      <trkpt lat="46.559844687581062" lon="12.216593697667122">
        <ele>1734.8399999999999</ele>
        <time>2015-07-14T10:40:37Z</time>
      </trkpt>
      <trkpt lat="46.55977176502347" lon="12.216666284948587">
        <ele>1731.47</ele>
        <time>2015-07-14T10:40:47Z</time>
      </trkpt>
      <trkpt lat="46.559674786403775" lon="12.216704254969954">
        <ele>1728.5899999999999</ele>
        <time>2015-07-14T10:40:58Z</time>
      </trkpt>
      <trkpt lat="46.559587530791759" lon="12.2167450748384">
        <ele>1725.22</ele>
        <time>2015-07-14T10:41:10Z</time>
      </trkpt>
      <trkpt lat="46.559567414224148" lon="12.216751612722874">
        <ele>1724.74</ele>
        <time>2015-07-14T10:41:12Z</time>
      </trkpt>
      <trkpt lat="46.559456856921315" lon="12.216807771474123">
        <ele>1721.8599999999999</ele>
        <time>2015-07-14T10:41:25Z</time>
      </trkpt>
      <trkpt lat="46.559356693178415" lon="12.216848591342568">
        <ele>1718.49</ele>
        <time>2015-07-14T10:41:37Z</time>
      </trkpt>
      <trkpt lat="46.559259295463562" lon="12.216923525556922">
        <ele>1716.0899999999999</ele>
        <time>2015-07-14T10:41:49Z</time>
      </trkpt>
      <trkpt lat="46.559163322672248" lon="12.217019414529204">
        <ele>1713.6900000000001</ele>
        <time>2015-07-14T10:42:01Z</time>
      </trkpt>
      <trkpt lat="46.559106661006808" lon="12.217010781168938">
        <ele>1712.73</ele>
        <time>2015-07-14T10:42:07Z</time>
      </trkpt>
      <trkpt lat="46.55907497741282" lon="12.217082865536213">
        <ele>1710.8</ele>
        <time>2015-07-14T10:42:15Z</time>
      </trkpt>
      <trkpt lat="46.559064500033855" lon="12.217146316543221">
        <ele>1710.3199999999999</ele>
        <time>2015-07-14T10:42:24Z</time>
      </trkpt>
      <trkpt lat="46.559055615216494" lon="12.217186046764255">
        <ele>1710.3199999999999</ele>
        <time>2015-07-14T10:42:31Z</time>
      </trkpt>
      <trkpt lat="46.559030134230852" lon="12.217330215498805">
        <ele>1709.8399999999999</ele>
        <time>2015-07-14T10:42:40Z</time>
      </trkpt>
      <trkpt lat="46.558993421494961" lon="12.217500116676092">
        <ele>1709.8399999999999</ele>
        <time>2015-07-14T10:42:52Z</time>
      </trkpt>
      <trkpt lat="46.558899041265249" lon="12.217647386714816">
        <ele>1708.8800000000001</ele>
        <time>2015-07-14T10:43:04Z</time>
      </trkpt>
      <trkpt lat="46.558868531137705" lon="12.217638082802296">
        <ele>1708.8800000000001</ele>
        <time>2015-07-14T10:43:15Z</time>
      </trkpt>
      <trkpt lat="46.558860400691628" lon="12.217604639008641">
        <ele>1708.8800000000001</ele>
        <time>2015-07-14T10:43:28Z</time>
      </trkpt>
      <trkpt lat="46.558819664642215" lon="12.217381093651056">
        <ele>1707.9200000000001</ele>
        <time>2015-07-14T10:43:41Z</time>
      </trkpt>
      <trkpt lat="46.55877104960382" lon="12.217185376212001">
        <ele>1707.9200000000001</ele>
        <time>2015-07-14T10:43:54Z</time>
      </trkpt>
      <trkpt lat="46.558734169229865" lon="12.217093845829368">
        <ele>1707.4400000000001</ele>
        <time>2015-07-14T10:44:00Z</time>
      </trkpt>
      <trkpt lat="46.558578265830874" lon="12.216961747035384">
        <ele>1706.48</ele>
        <time>2015-07-14T10:44:14Z</time>
      </trkpt>
      <trkpt lat="46.558306943625212" lon="12.21670308150351">
        <ele>1706.48</ele>
        <time>2015-07-14T10:44:27Z</time>
      </trkpt>
      <trkpt lat="46.558369221165776" lon="12.216629907488823">
        <ele>1707.4400000000001</ele>
        <time>2015-07-14T10:44:36Z</time>
      </trkpt>
      <trkpt lat="46.558316079899669" lon="12.216595374047756">
        <ele>1706</ele>
        <time>2015-07-14T10:44:50Z</time>
      </trkpt>
      <trkpt lat="46.558324377983809" lon="12.216596798971295">
        <ele>1706.48</ele>
        <time>2015-07-14T10:45:02Z</time>
      </trkpt>
      <trkpt lat="46.558385482057929" lon="12.216607108712196">
        <ele>1707.9200000000001</ele>
        <time>2015-07-14T10:45:15Z</time>
      </trkpt>
      <trkpt lat="46.558460835367441" lon="12.216623285785317">
        <ele>1708.4000000000001</ele>
        <time>2015-07-14T10:45:22Z</time>
      </trkpt>
      <trkpt lat="46.558663258329034" lon="12.216936098411679">
        <ele>1707.9200000000001</ele>
        <time>2015-07-14T10:45:35Z</time>
      </trkpt>
      <trkpt lat="46.558689242228866" lon="12.217006757855415">
        <ele>1708.4000000000001</ele>
        <time>2015-07-14T10:45:39Z</time>
      </trkpt>
      <trkpt lat="46.558788903057575" lon="12.217198284342885">
        <ele>1707.9200000000001</ele>
        <time>2015-07-14T10:45:52Z</time>
      </trkpt>
      <trkpt lat="46.558810528367758" lon="12.217270033434033">
        <ele>1708.4000000000001</ele>
        <time>2015-07-14T10:45:58Z</time>
      </trkpt>
      <trkpt lat="46.558833327144384" lon="12.217488717287779">
        <ele>1708.4000000000001</ele>
        <time>2015-07-14T10:46:12Z</time>
      </trkpt>
      <trkpt lat="46.558849588036537" lon="12.217668844386935">
        <ele>1709.3599999999999</ele>
        <time>2015-07-14T10:46:24Z</time>
      </trkpt>
      <trkpt lat="46.558870039880276" lon="12.217663479968905">
        <ele>1709.3599999999999</ele>
        <time>2015-07-14T10:46:33Z</time>
      </trkpt>
      <trkpt lat="46.558896442875266" lon="12.217613942921162">
        <ele>1710.3199999999999</ele>
        <time>2015-07-14T10:46:51Z</time>
      </trkpt>
      <trkpt lat="46.558891581371427" lon="12.217635149136186">
        <ele>1708.8800000000001</ele>
        <time>2015-07-14T10:47:06Z</time>
      </trkpt>
      <trkpt lat="46.558888228610158" lon="12.217672700062394">
        <ele>1709.3599999999999</ele>
        <time>2015-07-14T10:47:21Z</time>
      </trkpt>
      <trkpt lat="46.558883618563414" lon="12.217684518545866">
        <ele>1709.3599999999999</ele>
        <time>2015-07-14T10:47:37Z</time>
      </trkpt>
      <trkpt lat="46.558888060972095" lon="12.217702455818653">
        <ele>1709.3599999999999</ele>
        <time>2015-07-14T10:47:46Z</time>
      </trkpt>
      <trkpt lat="46.558853778988123" lon="12.21779951825738">
        <ele>1709.3599999999999</ele>
        <time>2015-07-14T10:47:52Z</time>
      </trkpt>
      <trkpt lat="46.55879158526659" lon="12.217901358380914">
        <ele>1709.8399999999999</ele>
        <time>2015-07-14T10:47:59Z</time>
      </trkpt>
      <trkpt lat="46.55868848785758" lon="12.218091879040003">
        <ele>1708.4000000000001</ele>
        <time>2015-07-14T10:48:13Z</time>
      </trkpt>
      <trkpt lat="46.558603662997484" lon="12.218289021402597">
        <ele>1709.3599999999999</ele>
        <time>2015-07-14T10:48:25Z</time>
      </trkpt>
      <trkpt lat="46.558457398787141" lon="12.218566797673702">
        <ele>1708.8800000000001</ele>
        <time>2015-07-14T10:48:40Z</time>
      </trkpt>
      <trkpt lat="46.558423032984138" lon="12.218596469610929">
        <ele>1708.4000000000001</ele>
        <time>2015-07-14T10:48:43Z</time>
      </trkpt>
      <trkpt lat="46.558398138731718" lon="12.218566127121449">
        <ele>1708.8800000000001</ele>
        <time>2015-07-14T10:48:46Z</time>
      </trkpt>
      <trkpt lat="46.558502828702331" lon="12.218317938968539">
        <ele>1709.8399999999999</ele>
        <time>2015-07-14T10:49:00Z</time>
      </trkpt>
      <trkpt lat="46.558585138991475" lon="12.218064051121473">
        <ele>1711.28</ele>
        <time>2015-07-14T10:49:15Z</time>
      </trkpt>
      <trkpt lat="46.558639202266932" lon="12.217843187972903">
        <ele>1712.25</ele>
        <time>2015-07-14T10:49:28Z</time>
      </trkpt>
      <trkpt lat="46.558670969679952" lon="12.217573877424002">
        <ele>1713.6900000000001</ele>
        <time>2015-07-14T10:49:43Z</time>
      </trkpt>
      <trkpt lat="46.558673987165093" lon="12.217359887436032">
        <ele>1715.1300000000001</ele>
        <time>2015-07-14T10:49:56Z</time>
      </trkpt>
      <trkpt lat="46.558666862547398" lon="12.217164253816009">
        <ele>1716.0899999999999</ele>
        <time>2015-07-14T10:50:07Z</time>
      </trkpt>
      <trkpt lat="46.558644399046898" lon="12.216891255229712">
        <ele>1716.5699999999999</ele>
        <time>2015-07-14T10:50:22Z</time>
      </trkpt>
      <trkpt lat="46.558572063222528" lon="12.216600906103849">
        <ele>1717.53</ele>
        <time>2015-07-14T10:50:39Z</time>
      </trkpt>
      <trkpt lat="46.558483634144068" lon="12.216359674930573">
        <ele>1717.53</ele>
        <time>2015-07-14T10:50:52Z</time>
      </trkpt>
      <trkpt lat="46.558326473459601" lon="12.216099249199033">
        <ele>1717.05</ele>
        <time>2015-07-14T10:51:09Z</time>
      </trkpt>
      <trkpt lat="46.558180209249258" lon="12.215892300009727">
        <ele>1716.0899999999999</ele>
        <time>2015-07-14T10:51:24Z</time>
      </trkpt>
      <trkpt lat="46.557987006381154" lon="12.215719968080521">
        <ele>1714.6500000000001</ele>
        <time>2015-07-14T10:51:40Z</time>
      </trkpt>
      <trkpt lat="46.557752061635256" lon="12.21558703109622">
        <ele>1712.73</ele>
        <time>2015-07-14T10:51:57Z</time>
      </trkpt>
      <trkpt lat="46.557546788826585" lon="12.215433139353991">
        <ele>1712.73</ele>
        <time>2015-07-14T10:52:12Z</time>
      </trkpt>
      <trkpt lat="46.557453665882349" lon="12.215180844068527">
        <ele>1714.6500000000001</ele>
        <time>2015-07-14T10:52:26Z</time>
      </trkpt>
      <trkpt lat="46.557400776073337" lon="12.214960232377052">
        <ele>1715.6099999999999</ele>
        <time>2015-07-14T10:52:38Z</time>
      </trkpt>
      <trkpt lat="46.55739264562726" lon="12.214930225163698">
        <ele>1715.6099999999999</ele>
        <time>2015-07-14T10:52:40Z</time>
      </trkpt>
      <trkpt lat="46.557282255962491" lon="12.214758563786745">
        <ele>1717.05</ele>
        <time>2015-07-14T10:52:52Z</time>
      </trkpt>
      <trkpt lat="46.557189803570509" lon="12.214532168582082">
        <ele>1718.01</ele>
        <time>2015-07-14T10:53:07Z</time>
      </trkpt>
      <trkpt lat="46.55706868506968" lon="12.21444508060813">
        <ele>1718.97</ele>
        <time>2015-07-14T10:53:17Z</time>
      </trkpt>
      <trkpt lat="46.556947818025947" lon="12.214418845251203">
        <ele>1719.46</ele>
        <time>2015-07-14T10:53:26Z</time>
      </trkpt>
      <trkpt lat="46.556810522451997" lon="12.214418845251203">
        <ele>1720.9000000000001</ele>
        <time>2015-07-14T10:53:37Z</time>
      </trkpt>
      <trkpt lat="46.556669622659683" lon="12.214441727846861">
        <ele>1721.3800000000001</ele>
        <time>2015-07-14T10:53:48Z</time>
      </trkpt>
      <trkpt lat="46.556490669026971" lon="12.214398812502623">
        <ele>1722.8199999999999</ele>
        <time>2015-07-14T10:54:02Z</time>
      </trkpt>
      <trkpt lat="46.556313643231988" lon="12.214265372604132">
        <ele>1723.3</ele>
        <time>2015-07-14T10:54:18Z</time>
      </trkpt>
      <trkpt lat="46.556223705410957" lon="12.214010646566749">
        <ele>1724.26</ele>
        <time>2015-07-14T10:54:33Z</time>
      </trkpt>
      <trkpt lat="46.556208282709122" lon="12.21384359523654">
        <ele>1725.7</ele>
        <time>2015-07-14T10:54:43Z</time>
      </trkpt>
      <trkpt lat="46.556220017373562" lon="12.213652236387134">
        <ele>1725.7</ele>
        <time>2015-07-14T10:54:55Z</time>
      </trkpt>
      <trkpt lat="46.556220017373562" lon="12.213440425693989">
        <ele>1727.1500000000001</ele>
        <time>2015-07-14T10:55:06Z</time>
      </trkpt>
      <trkpt lat="46.556218676269054" lon="12.213376052677631">
        <ele>1728.1099999999999</ele>
        <time>2015-07-14T10:55:11Z</time>
      </trkpt>
      <trkpt lat="46.556214317679405" lon="12.213318301364779">
        <ele>1728.5899999999999</ele>
        <time>2015-07-14T10:55:15Z</time>
      </trkpt>
      <trkpt lat="46.5562145691365" lon="12.213103054091334">
        <ele>1730.03</ele>
        <time>2015-07-14T10:55:26Z</time>
      </trkpt>
      <trkpt lat="46.556226052343845" lon="12.212857715785503">
        <ele>1731.47</ele>
        <time>2015-07-14T10:55:39Z</time>
      </trkpt>
      <trkpt lat="46.556232254952192" lon="12.212591171264648">
        <ele>1733.3900000000001</ele>
        <time>2015-07-14T10:55:55Z</time>
      </trkpt>
      <trkpt lat="46.556231500580907" lon="12.212374666705728">
        <ele>1735.3199999999999</ele>
        <time>2015-07-14T10:56:08Z</time>
      </trkpt>
      <trkpt lat="46.556244073435664" lon="12.212187247350812">
        <ele>1736.76</ele>
        <time>2015-07-14T10:56:20Z</time>
      </trkpt>
      <trkpt lat="46.556249270215631" lon="12.211955571547151">
        <ele>1738.2</ele>
        <time>2015-07-14T10:56:34Z</time>
      </trkpt>
      <trkpt lat="46.55625899322331" lon="12.211766727268696">
        <ele>1740.1199999999999</ele>
        <time>2015-07-14T10:56:48Z</time>
      </trkpt>
      <trkpt lat="46.55629956163466" lon="12.211524238809943">
        <ele>1741.5699999999999</ele>
        <time>2015-07-14T10:57:00Z</time>
      </trkpt>
      <trkpt lat="46.556319342926145" lon="12.211292730644345">
        <ele>1743.01</ele>
        <time>2015-07-14T10:57:13Z</time>
      </trkpt>
      <trkpt lat="46.556376256048679" lon="12.2110740467906">
        <ele>1744.9300000000001</ele>
        <time>2015-07-14T10:57:27Z</time>
      </trkpt>
      <trkpt lat="46.556410202756524" lon="12.210868438705802">
        <ele>1745.8900000000001</ele>
        <time>2015-07-14T10:57:39Z</time>
      </trkpt>
      <trkpt lat="46.556468121707439" lon="12.210625866428018">
        <ele>1747.3299999999999</ele>
        <time>2015-07-14T10:57:54Z</time>
      </trkpt>
      <trkpt lat="46.556505672633648" lon="12.21039729192853">
        <ele>1749.74</ele>
        <time>2015-07-14T10:58:07Z</time>
      </trkpt>
      <trkpt lat="46.556531069800258" lon="12.210149774327874">
        <ele>1751.6600000000001</ele>
        <time>2015-07-14T10:58:23Z</time>
      </trkpt>
      <trkpt lat="46.556515311822295" lon="12.209914829581976">
        <ele>1752.6199999999999</ele>
        <time>2015-07-14T10:58:37Z</time>
      </trkpt>
      <trkpt lat="46.556468540802598" lon="12.209696481004357">
        <ele>1754.54</ele>
        <time>2015-07-14T10:58:51Z</time>
      </trkpt>
      <trkpt lat="46.556442053988576" lon="12.209478467702866">
        <ele>1755.02</ele>
        <time>2015-07-14T10:59:03Z</time>
      </trkpt>
      <trkpt lat="46.556433504447341" lon="12.209265986457467">
        <ele>1755.02</ele>
        <time>2015-07-14T10:59:16Z</time>
      </trkpt>
      <trkpt lat="46.556432750076056" lon="12.209218041971326">
        <ele>1758.8699999999999</ele>
        <time>2015-07-14T10:59:19Z</time>
      </trkpt>
      <trkpt lat="46.556434342637658" lon="12.209203960373998">
        <ele>1758.3900000000001</ele>
        <time>2015-07-14T10:59:20Z</time>
      </trkpt>
      <trkpt lat="46.556438282132149" lon="12.20909072086215">
        <ele>1758.8699999999999</ele>
        <time>2015-07-14T10:59:27Z</time>
      </trkpt>
      <trkpt lat="46.556471055373549" lon="12.208853010088205">
        <ele>1761.27</ele>
        <time>2015-07-14T10:59:41Z</time>
      </trkpt>
      <trkpt lat="46.556469798088074" lon="12.208627536892891">
        <ele>1762.71</ele>
        <time>2015-07-14T10:59:55Z</time>
      </trkpt>
      <trkpt lat="46.556474911049008" lon="12.208461742848158">
        <ele>1764.1600000000001</ele>
        <time>2015-07-14T11:00:06Z</time>
      </trkpt>
      <trkpt lat="46.556455884128809" lon="12.208227971568704">
        <ele>1766.0799999999999</ele>
        <time>2015-07-14T11:00:20Z</time>
      </trkpt>
      <trkpt lat="46.556450519710779" lon="12.208020854741335">
        <ele>1768</ele>
        <time>2015-07-14T11:00:35Z</time>
      </trkpt>
      <trkpt lat="46.556421015411615" lon="12.207764955237508">
        <ele>1769.4400000000001</ele>
        <time>2015-07-14T11:00:49Z</time>
      </trkpt>
      <trkpt lat="46.556408358737826" lon="12.207550881430507">
        <ele>1770.4100000000001</ele>
        <time>2015-07-14T11:01:01Z</time>
      </trkpt>
      <trkpt lat="46.556387236341834" lon="12.207334376871586">
        <ele>1770.8900000000001</ele>
        <time>2015-07-14T11:01:14Z</time>
      </trkpt>
      <trkpt lat="46.556361168622971" lon="12.207182999700308">
        <ele>1774.25</ele>
        <time>2015-07-14T11:01:25Z</time>
      </trkpt>
      <trkpt lat="46.55634013004601" lon="12.207128517329693">
        <ele>1774.73</ele>
        <time>2015-07-14T11:01:29Z</time>
      </trkpt>
      <trkpt lat="46.556326635181904" lon="12.207086440175772">
        <ele>1774.73</ele>
        <time>2015-07-14T11:01:32Z</time>
      </trkpt>
      <trkpt lat="46.556273577734828" lon="12.206975128501654">
        <ele>1775.6900000000001</ele>
        <time>2015-07-14T11:01:41Z</time>
      </trkpt>
      <trkpt lat="46.556227812543511" lon="12.206746302545071">
        <ele>1777.6099999999999</ele>
        <time>2015-07-14T11:01:56Z</time>
      </trkpt>
      <trkpt lat="46.556152710691094" lon="12.206507083028555">
        <ele>1779.0599999999999</ele>
        <time>2015-07-14T11:02:11Z</time>
      </trkpt>
      <trkpt lat="46.556104682385921" lon="12.206339109688997">
        <ele>1779.54</ele>
        <time>2015-07-14T11:02:22Z</time>
      </trkpt>
      <trkpt lat="46.556104933843017" lon="12.206330141052604">
        <ele>1779.54</ele>
        <time>2015-07-14T11:02:23Z</time>
      </trkpt>
      <trkpt lat="46.556078866124153" lon="12.206131322309375">
        <ele>1781.46</ele>
        <time>2015-07-14T11:02:36Z</time>
      </trkpt>
      <trkpt lat="46.556064616888762" lon="12.205968126654625">
        <ele>1783.3800000000001</ele>
        <time>2015-07-14T11:02:45Z</time>
      </trkpt>
      <trkpt lat="46.556057576090097" lon="12.205944489687681">
        <ele>1783.3800000000001</ele>
        <time>2015-07-14T11:02:47Z</time>
      </trkpt>
      <trkpt lat="46.556041315197945" lon="12.205901406705379">
        <ele>1781.9400000000001</ele>
        <time>2015-07-14T11:02:50Z</time>
      </trkpt>
      <trkpt lat="46.556030670180917" lon="12.205683141946793">
        <ele>1782.9000000000001</ele>
        <time>2015-07-14T11:03:03Z</time>
      </trkpt>
      <trkpt lat="46.556030921638012" lon="12.205539643764496">
        <ele>1784.8199999999999</ele>
        <time>2015-07-14T11:03:11Z</time>
      </trkpt>
      <trkpt lat="46.556068388745189" lon="12.205315763130784">
        <ele>1785.79</ele>
        <time>2015-07-14T11:03:24Z</time>
      </trkpt>
      <trkpt lat="46.556106358766556" lon="12.205062126740813">
        <ele>1787.23</ele>
        <time>2015-07-14T11:03:39Z</time>
      </trkpt>
      <trkpt lat="46.556129241362214" lon="12.204841850325465">
        <ele>1788.1900000000001</ele>
        <time>2015-07-14T11:03:52Z</time>
      </trkpt>
      <trkpt lat="46.556138712912798" lon="12.204732047393918">
        <ele>1788.6700000000001</ele>
        <time>2015-07-14T11:03:58Z</time>
      </trkpt>
      <trkpt lat="46.556135192513466" lon="12.204700196161866">
        <ele>1789.1500000000001</ele>
        <time>2015-07-14T11:04:00Z</time>
      </trkpt>
      <trkpt lat="46.556143071502447" lon="12.204581592231989">
        <ele>1789.6300000000001</ele>
        <time>2015-07-14T11:04:12Z</time>
      </trkpt>
      <trkpt lat="46.556152878329158" lon="12.204587459564209">
        <ele>1789.6300000000001</ele>
        <time>2015-07-14T11:04:20Z</time>
      </trkpt>
      <trkpt lat="46.556195290759206" lon="12.204367853701115">
        <ele>1791.55</ele>
        <time>2015-07-14T11:04:34Z</time>
      </trkpt>
      <trkpt lat="46.556253544986248" lon="12.204183116555214">
        <ele>1792.52</ele>
        <time>2015-07-14T11:04:45Z</time>
      </trkpt>
      <trkpt lat="46.556281708180904" lon="12.20415897667408">
        <ele>1793</ele>
        <time>2015-07-14T11:04:54Z</time>
      </trkpt>
      <trkpt lat="46.55631666071713" lon="12.2039904166013">
        <ele>1793.96</ele>
        <time>2015-07-14T11:05:03Z</time>
      </trkpt>
      <trkpt lat="46.556364772841334" lon="12.203784305602312">
        <ele>1794.9200000000001</ele>
        <time>2015-07-14T11:05:14Z</time>
      </trkpt>
      <trkpt lat="46.55642906203866" lon="12.203523879870772">
        <ele>1796.8399999999999</ele>
        <time>2015-07-14T11:05:29Z</time>
      </trkpt>
      <trkpt lat="46.556491926312447" lon="12.203315421938896">
        <ele>1797.8</ele>
        <time>2015-07-14T11:05:42Z</time>
      </trkpt>
      <trkpt lat="46.556539870798588" lon="12.203148286789656">
        <ele>1799.24</ele>
        <time>2015-07-14T11:05:53Z</time>
      </trkpt>
      <trkpt lat="46.556588904932141" lon="12.202987354248762">
        <ele>1800.21</ele>
        <time>2015-07-14T11:06:04Z</time>
      </trkpt>
      <trkpt lat="46.556599298492074" lon="12.20293840393424">
        <ele>1800.21</ele>
        <time>2015-07-14T11:06:07Z</time>
      </trkpt>
      <trkpt lat="46.556667778640985" lon="12.202743105590343">
        <ele>1801.6500000000001</ele>
        <time>2015-07-14T11:06:21Z</time>
      </trkpt>
      <trkpt lat="46.556712370365858" lon="12.202612766996026">
        <ele>1802.6099999999999</ele>
        <time>2015-07-14T11:06:30Z</time>
      </trkpt>
      <trkpt lat="46.55673349276185" lon="12.202610336244106">
        <ele>1803.0899999999999</ele>
        <time>2015-07-14T11:06:32Z</time>
      </trkpt>
      <trkpt lat="46.556832147762179" lon="12.202425515279174">
        <ele>1804.53</ele>
        <time>2015-07-14T11:06:45Z</time>
      </trkpt>
      <trkpt lat="46.556897861883044" lon="12.202211860567331">
        <ele>1805.49</ele>
        <time>2015-07-14T11:06:58Z</time>
      </trkpt>
      <trkpt lat="46.556933484971523" lon="12.202114379033446">
        <ele>1805.97</ele>
        <time>2015-07-14T11:07:05Z</time>
      </trkpt>
      <trkpt lat="46.556951589882374" lon="12.202071631327271">
        <ele>1805.97</ele>
        <time>2015-07-14T11:07:09Z</time>
      </trkpt>
      <trkpt lat="46.556965922936797" lon="12.202027793973684">
        <ele>1806.45</ele>
        <time>2015-07-14T11:07:12Z</time>
      </trkpt>
      <trkpt lat="46.556977992877364" lon="12.201957134529948">
        <ele>1806.45</ele>
        <time>2015-07-14T11:07:16Z</time>
      </trkpt>
      <trkpt lat="46.557018896564841" lon="12.201751107349992">
        <ele>1806.9400000000001</ele>
        <time>2015-07-14T11:07:29Z</time>
      </trkpt>
      <trkpt lat="46.557038091123104" lon="12.201714226976037">
        <ele>1806.45</ele>
        <time>2015-07-14T11:07:32Z</time>
      </trkpt>
      <trkpt lat="46.557052256539464" lon="12.201690254732966">
        <ele>1806.9400000000001</ele>
        <time>2015-07-14T11:07:43Z</time>
      </trkpt>
      <trkpt lat="46.55711118131876" lon="12.201619176194072">
        <ele>1806.9400000000001</ele>
        <time>2015-07-14T11:07:53Z</time>
      </trkpt>
      <trkpt lat="46.557199191302061" lon="12.201445000246167">
        <ele>1807.4200000000001</ele>
        <time>2015-07-14T11:08:05Z</time>
      </trkpt>
      <trkpt lat="46.557290973141789" lon="12.201211396604776">
        <ele>1807.9000000000001</ele>
        <time>2015-07-14T11:08:19Z</time>
      </trkpt>
      <trkpt lat="46.557301618158817" lon="12.200987264513969">
        <ele>1807.9000000000001</ele>
        <time>2015-07-14T11:08:32Z</time>
      </trkpt>
      <trkpt lat="46.557239340618253" lon="12.200771598145366">
        <ele>1808.3800000000001</ele>
        <time>2015-07-14T11:08:45Z</time>
      </trkpt>
      <trkpt lat="46.557184020057321" lon="12.200574707239866">
        <ele>1808.8599999999999</ele>
        <time>2015-07-14T11:08:56Z</time>
      </trkpt>
      <trkpt lat="46.557145547121763" lon="12.200299948453903">
        <ele>1808.8599999999999</ele>
        <time>2015-07-14T11:09:11Z</time>
      </trkpt>
      <trkpt lat="46.557183181867003" lon="12.200046479701996">
        <ele>1807.9000000000001</ele>
        <time>2015-07-14T11:09:25Z</time>
      </trkpt>
      <trkpt lat="46.557229785248637" lon="12.199825281277299">
        <ele>1806.45</ele>
        <time>2015-07-14T11:09:39Z</time>
      </trkpt>
      <trkpt lat="46.557221068069339" lon="12.199816564098001">
        <ele>1806.9400000000001</ele>
        <time>2015-07-14T11:09:40Z</time>
      </trkpt>
      <trkpt lat="46.557225007563829" lon="12.199628390371799">
        <ele>1805.49</ele>
        <time>2015-07-14T11:09:52Z</time>
      </trkpt>
      <trkpt lat="46.557223750278354" lon="12.19961422495544">
        <ele>1805.49</ele>
        <time>2015-07-14T11:09:53Z</time>
      </trkpt>
      <trkpt lat="46.557194078341126" lon="12.199546499177814">
        <ele>1805.01</ele>
        <time>2015-07-14T11:09:58Z</time>
      </trkpt>
      <trkpt lat="46.557166082784534" lon="12.199491430073977">
        <ele>1805.01</ele>
        <time>2015-07-14T11:10:11Z</time>
      </trkpt>
      <trkpt lat="46.557163568213582" lon="12.199529400095344">
        <ele>1805.01</ele>
        <time>2015-07-14T11:10:21Z</time>
      </trkpt>
      <trkpt lat="46.557138590142131" lon="12.199557814747095">
        <ele>1805.01</ele>
        <time>2015-07-14T11:10:31Z</time>
      </trkpt>
      <trkpt lat="46.557141775265336" lon="12.199540883302689">
        <ele>1805.01</ele>
        <time>2015-07-14T11:10:35Z</time>
      </trkpt>
      <trkpt lat="46.557145044207573" lon="12.199501655995846">
        <ele>1804.05</ele>
        <time>2015-07-14T11:10:43Z</time>
      </trkpt>
      <trkpt lat="46.55712878331542" lon="12.19952579587698">
        <ele>1804.05</ele>
        <time>2015-07-14T11:10:57Z</time>
      </trkpt>
      <trkpt lat="46.557118892669678" lon="12.199536440894008">
        <ele>1804.05</ele>
        <time>2015-07-14T11:11:22Z</time>
      </trkpt>
      <trkpt lat="46.557111851871014" lon="12.199482126161456">
        <ele>1804.05</ele>
        <time>2015-07-14T11:11:55Z</time>
      </trkpt>
      <trkpt lat="46.557132471352816" lon="12.199503500014544">
        <ele>1804.05</ele>
        <time>2015-07-14T11:12:09Z</time>
      </trkpt>
      <trkpt lat="46.557132890447974" lon="12.199518838897347">
        <ele>1804.05</ele>
        <time>2015-07-14T11:12:23Z</time>
      </trkpt>
      <trkpt lat="46.557133896276355" lon="12.199519006535411">
        <ele>1804.05</ele>
        <time>2015-07-14T11:13:02Z</time>
      </trkpt>
      <trkpt lat="46.55713171698153" lon="12.199517665430903">
        <ele>1803.5699999999999</ele>
        <time>2015-07-14T11:13:36Z</time>
      </trkpt>
      <trkpt lat="46.55710925348103" lon="12.199498051777482">
        <ele>1803.5699999999999</ele>
        <time>2015-07-14T11:14:06Z</time>
      </trkpt>
      <trkpt lat="46.557105146348476" lon="12.199519006535411">
        <ele>1804.05</ele>
        <time>2015-07-14T11:14:15Z</time>
      </trkpt>
      <trkpt lat="46.557101793587208" lon="12.199497716501355">
        <ele>1804.05</ele>
        <time>2015-07-14T11:14:33Z</time>
      </trkpt>
      <trkpt lat="46.55710338614881" lon="12.199501404538751">
        <ele>1804.05</ele>
        <time>2015-07-14T11:14:47Z</time>
      </trkpt>
      <trkpt lat="46.557122664526105" lon="12.199506517499685">
        <ele>1805.97</ele>
        <time>2015-07-14T11:14:54Z</time>
      </trkpt>
      <trkpt lat="46.55712241306901" lon="12.199569549411535">
        <ele>1804.05</ele>
        <time>2015-07-14T11:15:02Z</time>
      </trkpt>
      <trkpt lat="46.557100871577859" lon="12.199581116437912">
        <ele>1803.5699999999999</ele>
        <time>2015-07-14T11:15:04Z</time>
      </trkpt>
      <trkpt lat="46.556994589045644" lon="12.199594527482986">
        <ele>1801.6500000000001</ele>
        <time>2015-07-14T11:15:14Z</time>
      </trkpt>
      <trkpt lat="46.556927617639303" lon="12.199695613235235">
        <ele>1801.6500000000001</ele>
        <time>2015-07-14T11:15:24Z</time>
      </trkpt>
      <trkpt lat="46.556910937651992" lon="12.199743976816535">
        <ele>1801.1700000000001</ele>
        <time>2015-07-14T11:15:32Z</time>
      </trkpt>
      <trkpt lat="46.556883780285716" lon="12.199703073129058">
        <ele>1800.6900000000001</ele>
        <time>2015-07-14T11:15:50Z</time>
      </trkpt>
      <trkpt lat="46.556867016479373" lon="12.199725620448589">
        <ele>1800.6900000000001</ele>
        <time>2015-07-14T11:16:08Z</time>
      </trkpt>
      <trkpt lat="46.556880930438638" lon="12.19973299652338">
        <ele>1801.1700000000001</ele>
        <time>2015-07-14T11:16:33Z</time>
      </trkpt>
      <trkpt lat="46.55686978250742" lon="12.19970709644258">
        <ele>1801.1700000000001</ele>
        <time>2015-07-14T11:16:51Z</time>
      </trkpt>
      <trkpt lat="46.556859472766519" lon="12.199685052037239">
        <ele>1801.6500000000001</ele>
        <time>2015-07-14T11:17:11Z</time>
      </trkpt>
      <trkpt lat="46.5568707883358" lon="12.199712209403515">
        <ele>1801.6500000000001</ele>
        <time>2015-07-14T11:17:32Z</time>
      </trkpt>
      <trkpt lat="46.556912278756499" lon="12.199728973209858">
        <ele>1801.6500000000001</ele>
        <time>2015-07-14T11:17:55Z</time>
      </trkpt>
      <trkpt lat="46.55693868175149" lon="12.199742551892996">
        <ele>1801.6500000000001</ele>
        <time>2015-07-14T11:18:20Z</time>
      </trkpt>
      <trkpt lat="46.556875230744481" lon="12.199726877734065">
        <ele>1801.6500000000001</ele>
        <time>2015-07-14T11:18:50Z</time>
      </trkpt>
      <trkpt lat="46.556883528828621" lon="12.199739282950759">
        <ele>1801.6500000000001</ele>
        <time>2015-07-14T11:19:17Z</time>
      </trkpt>
      <trkpt lat="46.556903142482042" lon="12.199700810015202">
        <ele>1802.1300000000001</ele>
        <time>2015-07-14T11:19:43Z</time>
      </trkpt>
      <trkpt lat="46.556880930438638" lon="12.199716567993164">
        <ele>1801.6500000000001</ele>
        <time>2015-07-14T11:20:03Z</time>
      </trkpt>
      <trkpt lat="46.556905237957835" lon="12.19972469843924">
        <ele>1801.6500000000001</ele>
        <time>2015-07-14T11:20:30Z</time>
      </trkpt>
      <trkpt lat="46.55690741725266" lon="12.199703240767121">
        <ele>1802.6099999999999</ele>
        <time>2015-07-14T11:20:58Z</time>
      </trkpt>
      <trkpt lat="46.556903477758169" lon="12.199707683175802">
        <ele>1801.1700000000001</ele>
        <time>2015-07-14T11:21:23Z</time>
      </trkpt>
      <trkpt lat="46.556854946538806" lon="12.199702570214868">
        <ele>1801.1700000000001</ele>
        <time>2015-07-14T11:21:44Z</time>
      </trkpt>
      <trkpt lat="46.556894676759839" lon="12.199677675962448">
        <ele>1801.6500000000001</ele>
        <time>2015-07-14T11:22:05Z</time>
      </trkpt>
      <trkpt lat="46.556900627911091" lon="12.199670132249594">
        <ele>1801.6500000000001</ele>
        <time>2015-07-14T11:22:13Z</time>
      </trkpt>
      <trkpt lat="46.556854611262679" lon="12.199716819450259">
        <ele>1802.1300000000001</ele>
        <time>2015-07-14T11:22:25Z</time>
      </trkpt>
      <trkpt lat="46.556795183569193" lon="12.199770044535398">
        <ele>1801.6500000000001</ele>
        <time>2015-07-14T11:22:52Z</time>
      </trkpt>
      <trkpt lat="46.556827621534467" lon="12.199831986799836">
        <ele>1801.6500000000001</ele>
        <time>2015-07-14T11:23:21Z</time>
      </trkpt>
      <trkpt lat="46.55685561709106" lon="12.199785886332393">
        <ele>1802.1300000000001</ele>
        <time>2015-07-14T11:23:49Z</time>
      </trkpt>
      <trkpt lat="46.556962821632624" lon="12.199849672615528">
        <ele>1802.6099999999999</ele>
        <time>2015-07-14T11:24:15Z</time>
      </trkpt>
      <trkpt lat="46.556872799992561" lon="12.199837770313025">
        <ele>1802.6099999999999</ele>
        <time>2015-07-14T11:24:41Z</time>
      </trkpt>
      <trkpt lat="46.55686198733747" lon="12.19974716193974">
        <ele>1803.0899999999999</ele>
        <time>2015-07-14T11:25:07Z</time>
      </trkpt>
      <trkpt lat="46.556928120553493" lon="12.199747413396835">
        <ele>1803.0899999999999</ele>
        <time>2015-07-14T11:25:37Z</time>
      </trkpt>
      <trkpt lat="46.556911105290055" lon="12.199811115860939">
        <ele>1803.0899999999999</ele>
        <time>2015-07-14T11:26:07Z</time>
      </trkpt>
      <trkpt lat="46.55688688158989" lon="12.199805835261941">
        <ele>1803.5699999999999</ele>
        <time>2015-07-14T11:26:32Z</time>
      </trkpt>
      <trkpt lat="46.556880427524447" lon="12.199830645695329">
        <ele>1803.5699999999999</ele>
        <time>2015-07-14T11:27:00Z</time>
      </trkpt>
      <trkpt lat="46.55689618550241" lon="12.199734253808856">
        <ele>1804.05</ele>
        <time>2015-07-14T11:27:25Z</time>
      </trkpt>
      <trkpt lat="46.556820580735803" lon="12.199779348447919">
        <ele>1804.05</ele>
        <time>2015-07-14T11:27:54Z</time>
      </trkpt>
      <trkpt lat="46.55675645917654" lon="12.199779599905014">
        <ele>1804.05</ele>
        <time>2015-07-14T11:28:20Z</time>
      </trkpt>
      <trkpt lat="46.556728212162852" lon="12.199769960716367">
        <ele>1804.53</ele>
        <time>2015-07-14T11:28:48Z</time>
      </trkpt>
      <trkpt lat="46.556694265455008" lon="12.199784964323044">
        <ele>1804.53</ele>
        <time>2015-07-14T11:29:17Z</time>
      </trkpt>
      <trkpt lat="46.556769283488393" lon="12.199779683724046">
        <ele>1804.53</ele>
        <time>2015-07-14T11:29:45Z</time>
      </trkpt>
      <trkpt lat="46.556834075599909" lon="12.199806421995163">
        <ele>1804.53</ele>
        <time>2015-07-14T11:30:11Z</time>
      </trkpt>
      <trkpt lat="46.556871710345149" lon="12.199783455580473">
        <ele>1805.01</ele>
        <time>2015-07-14T11:30:40Z</time>
      </trkpt>
      <trkpt lat="46.556929042562842" lon="12.1997060906142">
        <ele>1805.01</ele>
        <time>2015-07-14T11:31:11Z</time>
      </trkpt>
      <trkpt lat="46.556924097239971" lon="12.199664767831564">
        <ele>1804.53</ele>
        <time>2015-07-14T11:31:43Z</time>
      </trkpt>
      <trkpt lat="46.556837344542146" lon="12.199767949059606">
        <ele>1804.53</ele>
        <time>2015-07-14T11:32:17Z</time>
      </trkpt>
      <trkpt lat="46.556848408654332" lon="12.199645657092333">
        <ele>1804.53</ele>
        <time>2015-07-14T11:32:48Z</time>
      </trkpt>
      <trkpt lat="46.556853940710425" lon="12.199700307101011">
        <ele>1805.01</ele>
        <time>2015-07-14T11:33:23Z</time>
      </trkpt>
      <trkpt lat="46.556747490540147" lon="12.199751771986485">
        <ele>1805.49</ele>
        <time>2015-07-14T11:34:00Z</time>
      </trkpt>
      <trkpt lat="46.556678675115108" lon="12.199786892160773">
        <ele>1805.49</ele>
        <time>2015-07-14T11:34:34Z</time>
      </trkpt>
      <trkpt lat="46.556603237986565" lon="12.199868280440569">
        <ele>1805.97</ele>
        <time>2015-07-14T11:34:59Z</time>
      </trkpt>
      <trkpt lat="46.556708263233304" lon="12.199822599068284">
        <ele>1805.97</ele>
        <time>2015-07-14T11:35:29Z</time>
      </trkpt>
      <trkpt lat="46.556671131402254" lon="12.199788568541408">
        <ele>1806.45</ele>
        <time>2015-07-14T11:35:58Z</time>
      </trkpt>
      <trkpt lat="46.556712035089731" lon="12.199834249913692">
        <ele>1806.9400000000001</ele>
        <time>2015-07-14T11:36:28Z</time>
      </trkpt>
      <trkpt lat="46.556652272120118" lon="12.199838357046247">
        <ele>1807.4200000000001</ele>
        <time>2015-07-14T11:36:55Z</time>
      </trkpt>
      <trkpt lat="46.556737013161182" lon="12.19980776309967">
        <ele>1807.4200000000001</ele>
        <time>2015-07-14T11:37:24Z</time>
      </trkpt>
      <trkpt lat="46.55688495375216" lon="12.199791083112359">
        <ele>1807.9000000000001</ele>
        <time>2015-07-14T11:37:57Z</time>
      </trkpt>
      <trkpt lat="46.556818904355168" lon="12.199726877734065">
        <ele>1807.9000000000001</ele>
        <time>2015-07-14T11:38:32Z</time>
      </trkpt>
      <trkpt lat="46.556844888255" lon="12.199722016230226">
        <ele>1807.9000000000001</ele>
        <time>2015-07-14T11:39:12Z</time>
      </trkpt>
      <trkpt lat="46.55686785466969" lon="12.199790999293327">
        <ele>1807.9000000000001</ele>
        <time>2015-07-14T11:39:50Z</time>
      </trkpt>
      <trkpt lat="46.556899873539805" lon="12.199694607406855">
        <ele>1807.9000000000001</ele>
        <time>2015-07-14T11:40:23Z</time>
      </trkpt>
      <trkpt lat="46.556856036186218" lon="12.199620930477977">
        <ele>1808.3800000000001</ele>
        <time>2015-07-14T11:41:03Z</time>
      </trkpt>
      <trkpt lat="46.556739863008261" lon="12.199710868299007">
        <ele>1808.3800000000001</ele>
        <time>2015-07-14T11:41:36Z</time>
      </trkpt>
      <trkpt lat="46.55674179084599" lon="12.199708102270961">
        <ele>1808.3800000000001</ele>
        <time>2015-07-14T11:42:03Z</time>
      </trkpt>
      <trkpt lat="46.556882690638304" lon="12.199720088392496">
        <ele>1808.8599999999999</ele>
        <time>2015-07-14T11:42:36Z</time>
      </trkpt>
      <trkpt lat="46.556961312890053" lon="12.199732912704349">
        <ele>1808.8599999999999</ele>
        <time>2015-07-14T11:43:08Z</time>
      </trkpt>
      <trkpt lat="46.556984279304743" lon="12.199758226051927">
        <ele>1809.3399999999999</ele>
        <time>2015-07-14T11:43:42Z</time>
      </trkpt>
      <trkpt lat="46.55688545666635" lon="12.199765350669622">
        <ele>1809.3399999999999</ele>
        <time>2015-07-14T11:44:19Z</time>
      </trkpt>
      <trkpt lat="46.556872548535466" lon="12.199726291000843">
        <ele>1809.8199999999999</ele>
        <time>2015-07-14T11:44:58Z</time>
      </trkpt>
      <trkpt lat="46.556883193552494" lon="12.199709108099341">
        <ele>1809.8199999999999</ele>
        <time>2015-07-14T11:45:35Z</time>
      </trkpt>
      <trkpt lat="46.556892078369856" lon="12.199811451137066">
        <ele>1810.3</ele>
        <time>2015-07-14T11:46:10Z</time>
      </trkpt>
      <trkpt lat="46.556867016479373" lon="12.199782701209188">
        <ele>1810.3</ele>
        <time>2015-07-14T11:46:45Z</time>
      </trkpt>
      <trkpt lat="46.556855030357838" lon="12.199761159718037">
        <ele>1810.3</ele>
        <time>2015-07-14T11:47:15Z</time>
      </trkpt>
      <trkpt lat="46.556858802214265" lon="12.199750179424882">
        <ele>1810.3</ele>
        <time>2015-07-14T11:47:44Z</time>
      </trkpt>
      <trkpt lat="46.556875146925449" lon="12.199776330962777">
        <ele>1810.78</ele>
        <time>2015-07-14T11:48:15Z</time>
      </trkpt>
      <trkpt lat="46.5568639151752" lon="12.199761997908354">
        <ele>1810.78</ele>
        <time>2015-07-14T11:48:48Z</time>
      </trkpt>
      <trkpt lat="46.556891743093729" lon="12.199760321527719">
        <ele>1810.78</ele>
        <time>2015-07-14T11:49:23Z</time>
      </trkpt>
      <trkpt lat="46.556863328441978" lon="12.19975596293807">
        <ele>1810.78</ele>
        <time>2015-07-14T11:49:55Z</time>
      </trkpt>
      <trkpt lat="46.556882690638304" lon="12.199721178039908">
        <ele>1810.78</ele>
        <time>2015-07-14T11:50:26Z</time>
      </trkpt>
      <trkpt lat="46.556877326220274" lon="12.199733918532729">
        <ele>1810.78</ele>
        <time>2015-07-14T11:51:00Z</time>
      </trkpt>
      <trkpt lat="46.556935077533126" lon="12.199771553277969">
        <ele>1810.78</ele>
        <time>2015-07-14T11:51:26Z</time>
      </trkpt>
      <trkpt lat="46.55690691433847" lon="12.199732325971127">
        <ele>1810.78</ele>
        <time>2015-07-14T11:51:57Z</time>
      </trkpt>
      <trkpt lat="46.556883612647653" lon="12.199735008180141">
        <ele>1810.78</ele>
        <time>2015-07-14T11:52:29Z</time>
      </trkpt>
      <trkpt lat="46.556862657889724" lon="12.199714556336403">
        <ele>1810.78</ele>
        <time>2015-07-14T11:53:05Z</time>
      </trkpt>
      <trkpt lat="46.556897778064013" lon="12.199761243537068">
        <ele>1810.3</ele>
        <time>2015-07-14T11:53:40Z</time>
      </trkpt>
      <trkpt lat="46.55690792016685" lon="12.199755543842912">
        <ele>1810.3</ele>
        <time>2015-07-14T11:54:12Z</time>
      </trkpt>
      <trkpt lat="46.556932227686048" lon="12.199757220223546">
        <ele>1810.78</ele>
        <time>2015-07-14T11:54:43Z</time>
      </trkpt>
      <trkpt lat="46.55693331733346" lon="12.199753532186151">
        <ele>1810.78</ele>
        <time>2015-07-14T11:55:12Z</time>
      </trkpt>
      <trkpt lat="46.556967347860336" lon="12.199798291549087">
        <ele>1810.78</ele>
        <time>2015-07-14T11:55:44Z</time>
      </trkpt>
      <trkpt lat="46.556912865489721" lon="12.199815306812525">
        <ele>1810.78</ele>
        <time>2015-07-14T11:56:19Z</time>
      </trkpt>
      <trkpt lat="46.556895179674029" lon="12.199745401740074">
        <ele>1810.78</ele>
        <time>2015-07-14T11:56:49Z</time>
      </trkpt>
      <trkpt lat="46.556950248777866" lon="12.199715059250593">
        <ele>1810.78</ele>
        <time>2015-07-14T11:57:24Z</time>
      </trkpt>
      <trkpt lat="46.556935245171189" lon="12.199728135019541">
        <ele>1810.3</ele>
        <time>2015-07-14T11:57:54Z</time>
      </trkpt>
      <trkpt lat="46.556895766407251" lon="12.199744060635567">
        <ele>1810.3</ele>
        <time>2015-07-14T11:58:29Z</time>
      </trkpt>
      <trkpt lat="46.556897023692727" lon="12.199772978201509">
        <ele>1810.3</ele>
        <time>2015-07-14T11:59:04Z</time>
      </trkpt>
      <trkpt lat="46.556879840791225" lon="12.199831232428551">
        <ele>1810.3</ele>
        <time>2015-07-14T11:59:40Z</time>
      </trkpt>
      <trkpt lat="46.556900041177869" lon="12.199842799454927">
        <ele>1810.3</ele>
        <time>2015-07-14T12:00:18Z</time>
      </trkpt>
      <trkpt lat="46.556875817477703" lon="12.199795609340072">
        <ele>1810.3</ele>
        <time>2015-07-14T12:00:59Z</time>
      </trkpt>
      <trkpt lat="46.55687372200191" lon="12.199734337627888">
        <ele>1810.78</ele>
        <time>2015-07-14T12:01:33Z</time>
      </trkpt>
      <trkpt lat="46.556895598769188" lon="12.199735008180141">
        <ele>1810.3</ele>
        <time>2015-07-14T12:02:04Z</time>
      </trkpt>
      <trkpt lat="46.556900544092059" lon="12.199779683724046">
        <ele>1810.3</ele>
        <time>2015-07-14T12:02:36Z</time>
      </trkpt>
      <trkpt lat="46.556877745315433" lon="12.199765769764781">
        <ele>1810.3</ele>
        <time>2015-07-14T12:03:14Z</time>
      </trkpt>
      <trkpt lat="46.556893168017268" lon="12.19975202344358">
        <ele>1811.26</ele>
        <time>2015-07-14T12:03:23Z</time>
      </trkpt>
      <trkpt lat="46.556892665103078" lon="12.199776498600841">
        <ele>1810.3</ele>
        <time>2015-07-14T12:04:00Z</time>
      </trkpt>
      <trkpt lat="46.556884115561843" lon="12.199768368154764">
        <ele>1810.3</ele>
        <time>2015-07-14T12:04:30Z</time>
      </trkpt>
      <trkpt lat="46.556873554363847" lon="12.199744312092662">
        <ele>1810.3</ele>
        <time>2015-07-14T12:05:01Z</time>
      </trkpt>
      <trkpt lat="46.556922923773527" lon="12.199759231880307">
        <ele>1810.3</ele>
        <time>2015-07-14T12:05:32Z</time>
      </trkpt>
      <trkpt lat="46.556918900460005" lon="12.199783958494663">
        <ele>1810.3</ele>
        <time>2015-07-14T12:06:06Z</time>
      </trkpt>
      <trkpt lat="46.556905154138803" lon="12.199766105040908">
        <ele>1810.3</ele>
        <time>2015-07-14T12:06:39Z</time>
      </trkpt>
      <trkpt lat="46.55689861625433" lon="12.199725704267621">
        <ele>1810.3</ele>
        <time>2015-07-14T12:07:14Z</time>
      </trkpt>
      <trkpt lat="46.556900627911091" lon="12.199668623507023">
        <ele>1809.8199999999999</ele>
        <time>2015-07-14T12:07:48Z</time>
      </trkpt>
      <trkpt lat="46.556877074763179" lon="12.199618499726057">
        <ele>1809.8199999999999</ele>
        <time>2015-07-14T12:08:25Z</time>
      </trkpt>
      <trkpt lat="46.556876571848989" lon="12.199646243825555">
        <ele>1810.3</ele>
        <time>2015-07-14T12:09:03Z</time>
      </trkpt>
      <trkpt lat="46.55690154992044" lon="12.199678933247924">
        <ele>1810.78</ele>
        <time>2015-07-14T12:09:36Z</time>
      </trkpt>
      <trkpt lat="46.556910770013928" lon="12.199731571599841">
        <ele>1809.8199999999999</ele>
        <time>2015-07-14T12:09:53Z</time>
      </trkpt>
      <trkpt lat="46.556896353140473" lon="12.199715143069625">
        <ele>1809.8199999999999</ele>
        <time>2015-07-14T12:10:17Z</time>
      </trkpt>
      <trkpt lat="46.556900711730123" lon="12.199689913541079">
        <ele>1809.8199999999999</ele>
        <time>2015-07-14T12:10:43Z</time>
      </trkpt>
      <trkpt lat="46.556889815256" lon="12.199673652648926">
        <ele>1809.8199999999999</ele>
        <time>2015-07-14T12:11:02Z</time>
      </trkpt>
      <trkpt lat="46.556875985115767" lon="12.199681363999844">
        <ele>1809.8199999999999</ele>
        <time>2015-07-14T12:11:21Z</time>
      </trkpt>
      <trkpt lat="46.556878415867686" lon="12.199672311544418">
        <ele>1809.8199999999999</ele>
        <time>2015-07-14T12:11:42Z</time>
      </trkpt>
      <trkpt lat="46.556882103905082" lon="12.199677508324385">
        <ele>1809.8199999999999</ele>
        <time>2015-07-14T12:12:06Z</time>
      </trkpt>
      <trkpt lat="46.556873051449656" lon="12.199669294059277">
        <ele>1809.8199999999999</ele>
        <time>2015-07-14T12:12:24Z</time>
      </trkpt>
      <trkpt lat="46.556884115561843" lon="12.19967189244926">
        <ele>1809.8199999999999</ele>
        <time>2015-07-14T12:12:51Z</time>
      </trkpt>
      <trkpt lat="46.556880595162511" lon="12.199662085622549">
        <ele>1809.8199999999999</ele>
        <time>2015-07-14T12:13:09Z</time>
      </trkpt>
      <trkpt lat="46.5568673517555" lon="12.199649764224887">
        <ele>1809.8199999999999</ele>
        <time>2015-07-14T12:13:24Z</time>
      </trkpt>
      <trkpt lat="46.55687908641994" lon="12.199632413685322">
        <ele>1810.3</ele>
        <time>2015-07-14T12:13:41Z</time>
      </trkpt>
      <trkpt lat="46.55691085383296" lon="12.199672646820545">
        <ele>1810.3</ele>
        <time>2015-07-14T12:13:58Z</time>
      </trkpt>
      <trkpt lat="46.556947398930788" lon="12.199727296829224">
        <ele>1811.26</ele>
        <time>2015-07-14T12:14:17Z</time>
      </trkpt>
      <trkpt lat="46.556920576840639" lon="12.19975546002388">
        <ele>1811.26</ele>
        <time>2015-07-14T12:14:26Z</time>
      </trkpt>
      <trkpt lat="46.556909261271358" lon="12.199754118919373">
        <ele>1810.78</ele>
        <time>2015-07-14T12:14:40Z</time>
      </trkpt>
      <trkpt lat="46.556895179674029" lon="12.199784545227885">
        <ele>1811.26</ele>
        <time>2015-07-14T12:15:00Z</time>
      </trkpt>
      <trkpt lat="46.55690255574882" lon="12.199770798906684">
        <ele>1811.26</ele>
        <time>2015-07-14T12:15:14Z</time>
      </trkpt>
      <trkpt lat="46.556910686194897" lon="12.199768871068954">
        <ele>1810.78</ele>
        <time>2015-07-14T12:15:29Z</time>
      </trkpt>
      <trkpt lat="46.55691621825099" lon="12.199756298214197">
        <ele>1811.26</ele>
        <time>2015-07-14T12:15:45Z</time>
      </trkpt>
      <trkpt lat="46.556916385889053" lon="12.199771720916033">
        <ele>1811.26</ele>
        <time>2015-07-14T12:16:01Z</time>
      </trkpt>
      <trkpt lat="46.556911272928119" lon="12.199761746451259">
        <ele>1811.26</ele>
        <time>2015-07-14T12:16:21Z</time>
      </trkpt>
      <trkpt lat="46.556920912116766" lon="12.199844475835562">
        <ele>1811.26</ele>
        <time>2015-07-14T12:16:33Z</time>
      </trkpt>
      <trkpt lat="46.556934826076031" lon="12.199854785576463">
        <ele>1811.74</ele>
        <time>2015-07-14T12:16:43Z</time>
      </trkpt>
      <trkpt lat="46.556935999542475" lon="12.199863083660603">
        <ele>1811.74</ele>
        <time>2015-07-14T12:16:55Z</time>
      </trkpt>
      <trkpt lat="46.556931557133794" lon="12.199829388409853">
        <ele>1811.26</ele>
        <time>2015-07-14T12:17:03Z</time>
      </trkpt>
      <trkpt lat="46.55692745000124" lon="12.199839195236564">
        <ele>1811.26</ele>
        <time>2015-07-14T12:17:12Z</time>
      </trkpt>
      <trkpt lat="46.556959133595228" lon="12.199980011209846">
        <ele>1812.22</ele>
        <time>2015-07-14T12:17:27Z</time>
      </trkpt>
      <trkpt lat="46.556946393102407" lon="12.200107919052243">
        <ele>1812.22</ele>
        <time>2015-07-14T12:17:38Z</time>
      </trkpt>
      <trkpt lat="46.556950332596898" lon="12.200222415849566">
        <ele>1812.22</ele>
        <time>2015-07-14T12:17:49Z</time>
      </trkpt>
      <trkpt lat="46.556958630681038" lon="12.200306737795472">
        <ele>1812.22</ele>
        <time>2015-07-14T12:17:59Z</time>
      </trkpt>
      <trkpt lat="46.556954439729452" lon="12.200324088335037">
        <ele>1811.74</ele>
        <time>2015-07-14T12:18:08Z</time>
      </trkpt>
      <trkpt lat="46.556955697014928" lon="12.200429029762745">
        <ele>1812.22</ele>
        <time>2015-07-14T12:18:17Z</time>
      </trkpt>
      <trkpt lat="46.556966258212924" lon="12.200601696968079">
        <ele>1811.74</ele>
        <time>2015-07-14T12:18:29Z</time>
      </trkpt>
      <trkpt lat="46.556975394487381" lon="12.200772017240524">
        <ele>1810.3</ele>
        <time>2015-07-14T12:18:41Z</time>
      </trkpt>
      <trkpt lat="46.556986458599567" lon="12.200974440202117">
        <ele>1809.8199999999999</ele>
        <time>2015-07-14T12:18:54Z</time>
      </trkpt>
      <trkpt lat="46.556979333981872" lon="12.201141910627484">
        <ele>1810.3</ele>
        <time>2015-07-14T12:19:05Z</time>
      </trkpt>
      <trkpt lat="46.556958965957165" lon="12.201304100453854">
        <ele>1810.3</ele>
        <time>2015-07-14T12:19:16Z</time>
      </trkpt>
      <trkpt lat="46.55697145499289" lon="12.201421447098255">
        <ele>1811.74</ele>
        <time>2015-07-14T12:19:27Z</time>
      </trkpt>
      <trkpt lat="46.556999702006578" lon="12.201542817056179">
        <ele>1812.7</ele>
        <time>2015-07-14T12:19:37Z</time>
      </trkpt>
      <trkpt lat="46.557021075859666" lon="12.201726213097572">
        <ele>1814.6300000000001</ele>
        <time>2015-07-14T12:19:51Z</time>
      </trkpt>
      <trkpt lat="46.557013196870685" lon="12.201812630519271">
        <ele>1815.5899999999999</ele>
        <time>2015-07-14T12:19:59Z</time>
      </trkpt>
      <trkpt lat="46.55695628374815" lon="12.201984375715256">
        <ele>1815.5899999999999</ele>
        <time>2015-07-14T12:20:11Z</time>
      </trkpt>
      <trkpt lat="46.556881433352828" lon="12.202154360711575">
        <ele>1815.1099999999999</ele>
        <time>2015-07-14T12:20:24Z</time>
      </trkpt>
      <trkpt lat="46.556859891861677" lon="12.202217811718583">
        <ele>1815.1099999999999</ele>
        <time>2015-07-14T12:20:30Z</time>
      </trkpt>
      <trkpt lat="46.556854862719774" lon="12.202309845015407">
        <ele>1813.6600000000001</ele>
        <time>2015-07-14T12:20:36Z</time>
      </trkpt>
      <trkpt lat="46.556786047294736" lon="12.202455271035433">
        <ele>1813.1800000000001</ele>
        <time>2015-07-14T12:20:48Z</time>
      </trkpt>
      <trkpt lat="46.556728128343821" lon="12.202639505267143">
        <ele>1811.74</ele>
        <time>2015-07-14T12:21:01Z</time>
      </trkpt>
      <trkpt lat="46.556668281555176" lon="12.202838659286499">
        <ele>1810.3</ele>
        <time>2015-07-14T12:21:14Z</time>
      </trkpt>
      <trkpt lat="46.556662414222956" lon="12.202852657064795">
        <ele>1810.3</ele>
        <time>2015-07-14T12:21:15Z</time>
      </trkpt>
      <trkpt lat="46.556656043976545" lon="12.202899260446429">
        <ele>1809.8199999999999</ele>
        <time>2015-07-14T12:21:18Z</time>
      </trkpt>
      <trkpt lat="46.556636849418283" lon="12.202944857999682">
        <ele>1809.8199999999999</ele>
        <time>2015-07-14T12:21:21Z</time>
      </trkpt>
      <trkpt lat="46.556594353169203" lon="12.203113585710526">
        <ele>1809.8199999999999</ele>
        <time>2015-07-14T12:21:33Z</time>
      </trkpt>
      <trkpt lat="46.556567195802927" lon="12.203177623450756">
        <ele>1807.9000000000001</ele>
        <time>2015-07-14T12:21:38Z</time>
      </trkpt>
      <trkpt lat="46.556534506380558" lon="12.203344171866775">
        <ele>1806.9400000000001</ele>
        <time>2015-07-14T12:21:49Z</time>
      </trkpt>
      <trkpt lat="46.556488154456019" lon="12.203523041680455">
        <ele>1805.97</ele>
        <time>2015-07-14T12:22:01Z</time>
      </trkpt>
      <trkpt lat="46.556484969332814" lon="12.203536201268435">
        <ele>1805.97</ele>
        <time>2015-07-14T12:22:02Z</time>
      </trkpt>
      <trkpt lat="46.556467786431313" lon="12.203612979501486">
        <ele>1805.49</ele>
        <time>2015-07-14T12:22:07Z</time>
      </trkpt>
      <trkpt lat="46.556421183049679" lon="12.203778773546219">
        <ele>1804.53</ele>
        <time>2015-07-14T12:22:18Z</time>
      </trkpt>
      <trkpt lat="46.556379022076726" lon="12.203922690823674">
        <ele>1803.5699999999999</ele>
        <time>2015-07-14T12:22:28Z</time>
      </trkpt>
      <trkpt lat="46.556357564404607" lon="12.203987315297127">
        <ele>1803.0899999999999</ele>
        <time>2015-07-14T12:22:32Z</time>
      </trkpt>
      <trkpt lat="46.556300651282072" lon="12.204190492630005">
        <ele>1802.1300000000001</ele>
        <time>2015-07-14T12:22:46Z</time>
      </trkpt>
      <trkpt lat="46.556242480874062" lon="12.204317143186927">
        <ele>1800.6900000000001</ele>
        <time>2015-07-14T12:22:55Z</time>
      </trkpt>
      <trkpt lat="46.556193362921476" lon="12.204513866454363">
        <ele>1800.6900000000001</ele>
        <time>2015-07-14T12:23:08Z</time>
      </trkpt>
      <trkpt lat="46.556097893044353" lon="12.204661052674055">
        <ele>1800.6900000000001</ele>
        <time>2015-07-14T12:23:20Z</time>
      </trkpt>
      <trkpt lat="46.555979205295444" lon="12.204771609976888">
        <ele>1800.6900000000001</ele>
        <time>2015-07-14T12:23:32Z</time>
      </trkpt>
      <trkpt lat="46.555947689339519" lon="12.204803377389908">
        <ele>1796.8399999999999</ele>
        <time>2015-07-14T12:23:35Z</time>
      </trkpt>
      <trkpt lat="46.555936876684427" lon="12.20481276512146">
        <ele>1796.8399999999999</ele>
        <time>2015-07-14T12:23:36Z</time>
      </trkpt>
      <trkpt lat="46.555787762627006" lon="12.204950982704759">
        <ele>1795.4000000000001</ele>
        <time>2015-07-14T12:23:51Z</time>
      </trkpt>
      <trkpt lat="46.555667482316494" lon="12.205068245530128">
        <ele>1794.4400000000001</ele>
        <time>2015-07-14T12:24:04Z</time>
      </trkpt>
      <trkpt lat="46.555534629151225" lon="12.205189364030957">
        <ele>1793.48</ele>
        <time>2015-07-14T12:24:17Z</time>
      </trkpt>
      <trkpt lat="46.555411331355572" lon="12.205303693190217">
        <ele>1792.03</ele>
        <time>2015-07-14T12:24:30Z</time>
      </trkpt>
      <trkpt lat="46.555265570059419" lon="12.205330515280366">
        <ele>1790.5899999999999</ele>
        <time>2015-07-14T12:24:42Z</time>
      </trkpt>
      <trkpt lat="46.555073708295822" lon="12.205332526937127">
        <ele>1788.6700000000001</ele>
        <time>2015-07-14T12:24:56Z</time>
      </trkpt>
      <trkpt lat="46.554905064404011" lon="12.205315930768847">
        <ele>1787.23</ele>
        <time>2015-07-14T12:25:09Z</time>
      </trkpt>
      <trkpt lat="46.554748071357608" lon="12.205332359299064">
        <ele>1786.27</ele>
        <time>2015-07-14T12:25:22Z</time>
      </trkpt>
      <trkpt lat="46.554644471034408" lon="12.205454567447305">
        <ele>1786.75</ele>
        <time>2015-07-14T12:25:33Z</time>
      </trkpt>
      <trkpt lat="46.554586049169302" lon="12.205617930740118">
        <ele>1786.27</ele>
        <time>2015-07-14T12:25:44Z</time>
      </trkpt>
      <trkpt lat="46.554555455222726" lon="12.205836111679673">
        <ele>1785.79</ele>
        <time>2015-07-14T12:25:57Z</time>
      </trkpt>
      <trkpt lat="46.554553946480155" lon="12.205849355086684">
        <ele>1785.79</ele>
        <time>2015-07-14T12:25:58Z</time>
      </trkpt>
      <trkpt lat="46.5545360930264" lon="12.205881541594863">
        <ele>1785.79</ele>
        <time>2015-07-14T12:26:00Z</time>
      </trkpt>
      <trkpt lat="46.554532572627068" lon="12.206074744462967">
        <ele>1785.3099999999999</ele>
        <time>2015-07-14T12:26:12Z</time>
      </trkpt>
      <trkpt lat="46.554530141875148" lon="12.206084048375487">
        <ele>1785.3099999999999</ele>
        <time>2015-07-14T12:26:13Z</time>
      </trkpt>
      <trkpt lat="46.554414890706539" lon="12.206304408609867">
        <ele>1784.8199999999999</ele>
        <time>2015-07-14T12:26:27Z</time>
      </trkpt>
      <trkpt lat="46.554314978420734" lon="12.206405745819211">
        <ele>1784.3399999999999</ele>
        <time>2015-07-14T12:26:38Z</time>
      </trkpt>
      <trkpt lat="46.554250689223409" lon="12.206559972837567">
        <ele>1784.3399999999999</ele>
        <time>2015-07-14T12:26:50Z</time>
      </trkpt>
      <trkpt lat="46.554149938747287" lon="12.206744961440563">
        <ele>1784.3399999999999</ele>
        <time>2015-07-14T12:27:02Z</time>
      </trkpt>
      <trkpt lat="46.554060084745288" lon="12.206893153488636">
        <ele>1783.8599999999999</ele>
        <time>2015-07-14T12:27:13Z</time>
      </trkpt>
      <trkpt lat="46.5539541374892" lon="12.207063809037209">
        <ele>1783.3800000000001</ele>
        <time>2015-07-14T12:27:26Z</time>
      </trkpt>
      <trkpt lat="46.553940894082189" lon="12.207109071314335">
        <ele>1783.3800000000001</ele>
        <time>2015-07-14T12:27:29Z</time>
      </trkpt>
      <trkpt lat="46.553817763924599" lon="12.20732968300581">
        <ele>1782.9000000000001</ele>
        <time>2015-07-14T12:27:44Z</time>
      </trkpt>
      <trkpt lat="46.553680971264839" lon="12.207497907802463">
        <ele>1781.9400000000001</ele>
        <time>2015-07-14T12:27:58Z</time>
      </trkpt>
      <trkpt lat="46.5535759460181" lon="12.207639897242188">
        <ele>1781.9400000000001</ele>
        <time>2015-07-14T12:28:11Z</time>
      </trkpt>
      <trkpt lat="46.553489109501243" lon="12.20775481313467">
        <ele>1781.46</ele>
        <time>2015-07-14T12:28:21Z</time>
      </trkpt>
      <trkpt lat="46.553398165851831" lon="12.207873500883579">
        <ele>1781.46</ele>
        <time>2015-07-14T12:28:30Z</time>
      </trkpt>
      <trkpt lat="46.553288865834475" lon="12.207900239154696">
        <ele>1781.46</ele>
        <time>2015-07-14T12:28:40Z</time>
      </trkpt>
      <trkpt lat="46.553239077329636" lon="12.207666970789433">
        <ele>1780.98</ele>
        <time>2015-07-14T12:28:52Z</time>
      </trkpt>
      <trkpt lat="46.553189875558019" lon="12.207391122356057">
        <ele>1780.5</ele>
        <time>2015-07-14T12:29:08Z</time>
      </trkpt>
      <trkpt lat="46.553166825324297" lon="12.207179479300976">
        <ele>1780.5</ele>
        <time>2015-07-14T12:29:20Z</time>
      </trkpt>
      <trkpt lat="46.553139165043831" lon="12.207077722996473">
        <ele>1780.5</ele>
        <time>2015-07-14T12:29:26Z</time>
      </trkpt>
      <trkpt lat="46.55303112231195" lon="12.206881670281291">
        <ele>1779.54</ele>
        <time>2015-07-14T12:29:41Z</time>
      </trkpt>
      <trkpt lat="46.552934814244509" lon="12.206858452409506">
        <ele>1779.0599999999999</ele>
        <time>2015-07-14T12:29:51Z</time>
      </trkpt>
      <trkpt lat="46.552784694358706" lon="12.20703556202352">
        <ele>1778.5799999999999</ele>
        <time>2015-07-14T12:30:05Z</time>
      </trkpt>
      <trkpt lat="46.552723590284586" lon="12.207072610035539">
        <ele>1778.5799999999999</ele>
        <time>2015-07-14T12:30:10Z</time>
      </trkpt>
      <trkpt lat="46.552694505080581" lon="12.207101779058576">
        <ele>1778.0999999999999</ele>
        <time>2015-07-14T12:30:13Z</time>
      </trkpt>
      <trkpt lat="46.55255570076406" lon="12.20724368467927">
        <ele>1777.6099999999999</ele>
        <time>2015-07-14T12:30:28Z</time>
      </trkpt>
      <trkpt lat="46.552473474293947" lon="12.207431020215154">
        <ele>1777.1300000000001</ele>
        <time>2015-07-14T12:30:40Z</time>
      </trkpt>
      <trkpt lat="46.552464086562395" lon="12.207446023821831">
        <ele>1777.1300000000001</ele>
        <time>2015-07-14T12:30:41Z</time>
      </trkpt>
      <trkpt lat="46.552414717152715" lon="12.207540906965733">
        <ele>1776.6500000000001</ele>
        <time>2015-07-14T12:30:46Z</time>
      </trkpt>
      <trkpt lat="46.552313799038529" lon="12.207735283300281">
        <ele>1776.1700000000001</ele>
        <time>2015-07-14T12:30:59Z</time>
      </trkpt>
      <trkpt lat="46.552283624187112" lon="12.207801248878241">
        <ele>1776.1700000000001</ele>
        <time>2015-07-14T12:31:03Z</time>
      </trkpt>
      <trkpt lat="46.55218530446291" lon="12.208033008500934">
        <ele>1775.6900000000001</ele>
        <time>2015-07-14T12:31:18Z</time>
      </trkpt>
      <trkpt lat="46.552180275321007" lon="12.208061758428812">
        <ele>1775.6900000000001</ele>
        <time>2015-07-14T12:31:20Z</time>
      </trkpt>
      <trkpt lat="46.552104502916336" lon="12.208244819194078">
        <ele>1775.21</ele>
        <time>2015-07-14T12:31:33Z</time>
      </trkpt>
      <trkpt lat="46.552038621157408" lon="12.208396196365356">
        <ele>1774.73</ele>
        <time>2015-07-14T12:31:43Z</time>
      </trkpt>
      <trkpt lat="46.552028143778443" lon="12.208410697057843">
        <ele>1774.73</ele>
        <time>2015-07-14T12:31:44Z</time>
      </trkpt>
      <trkpt lat="46.551996879279613" lon="12.208472136408091">
        <ele>1774.73</ele>
        <time>2015-07-14T12:31:48Z</time>
      </trkpt>
      <trkpt lat="46.551977684721351" lon="12.208529636263847">
        <ele>1774.73</ele>
        <time>2015-07-14T12:31:51Z</time>
      </trkpt>
      <trkpt lat="46.551874503493309" lon="12.208723342046142">
        <ele>1774.25</ele>
        <time>2015-07-14T12:32:04Z</time>
      </trkpt>
      <trkpt lat="46.551773920655251" lon="12.208904726430774">
        <ele>1774.25</ele>
        <time>2015-07-14T12:32:16Z</time>
      </trkpt>
      <trkpt lat="46.551700411364436" lon="12.20908242277801">
        <ele>1773.77</ele>
        <time>2015-07-14T12:32:27Z</time>
      </trkpt>
      <trkpt lat="46.551676522940397" lon="12.209168672561646">
        <ele>1773.29</ele>
        <time>2015-07-14T12:32:33Z</time>
      </trkpt>
      <trkpt lat="46.551621118560433" lon="12.209296664223075">
        <ele>1773.29</ele>
        <time>2015-07-14T12:32:43Z</time>
      </trkpt>
      <trkpt lat="46.551574598997831" lon="12.209474444389343">
        <ele>1772.3299999999999</ele>
        <time>2015-07-14T12:32:55Z</time>
      </trkpt>
      <trkpt lat="46.551535706967115" lon="12.209504032507539">
        <ele>1771.8499999999999</ele>
        <time>2015-07-14T12:33:06Z</time>
      </trkpt>
      <trkpt lat="46.551541155204177" lon="12.209487603977323">
        <ele>1771.8499999999999</ele>
        <time>2015-07-14T12:33:16Z</time>
      </trkpt>
      <trkpt lat="46.55149145051837" lon="12.20972640439868">
        <ele>1770.4100000000001</ele>
        <time>2015-07-14T12:33:29Z</time>
      </trkpt>
      <trkpt lat="46.551430933177471" lon="12.209916170686483">
        <ele>1769.9200000000001</ele>
        <time>2015-07-14T12:33:40Z</time>
      </trkpt>
      <trkpt lat="46.551357172429562" lon="12.210057573392987">
        <ele>1768.96</ele>
        <time>2015-07-14T12:33:50Z</time>
      </trkpt>
      <trkpt lat="46.551258517429233" lon="12.210290171205997">
        <ele>1767.04</ele>
        <time>2015-07-14T12:34:05Z</time>
      </trkpt>
      <trkpt lat="46.551246447488666" lon="12.210350604727864">
        <ele>1768</ele>
        <time>2015-07-14T12:34:10Z</time>
      </trkpt>
      <trkpt lat="46.551209734752774" lon="12.210598038509488">
        <ele>1767.04</ele>
        <time>2015-07-14T12:34:25Z</time>
      </trkpt>
      <trkpt lat="46.551177212968469" lon="12.210874725133181">
        <ele>1765.5999999999999</ele>
        <time>2015-07-14T12:34:40Z</time>
      </trkpt>
      <trkpt lat="46.551100267097354" lon="12.211112435907125">
        <ele>1765.5999999999999</ele>
        <time>2015-07-14T12:34:53Z</time>
      </trkpt>
      <trkpt lat="46.55098962597549" lon="12.211315780878067">
        <ele>1765.1199999999999</ele>
        <time>2015-07-14T12:35:06Z</time>
      </trkpt>
      <trkpt lat="46.550922989845276" lon="12.211413597688079">
        <ele>1765.5999999999999</ele>
        <time>2015-07-14T12:35:14Z</time>
      </trkpt>
      <trkpt lat="46.550841769203544" lon="12.211543349549174">
        <ele>1765.5999999999999</ele>
        <time>2015-07-14T12:35:25Z</time>
      </trkpt>
      <trkpt lat="46.550826681777835" lon="12.211575536057353">
        <ele>1765.5999999999999</ele>
        <time>2015-07-14T12:35:28Z</time>
      </trkpt>
      <trkpt lat="46.550807822495699" lon="12.21173319965601">
        <ele>1762.71</ele>
        <time>2015-07-14T12:35:41Z</time>
      </trkpt>
      <trkpt lat="46.550789466127753" lon="12.211852474138141">
        <ele>1759.3499999999999</ele>
        <time>2015-07-14T12:35:49Z</time>
      </trkpt>
      <trkpt lat="46.55078443698585" lon="12.2118822298944">
        <ele>1758.3900000000001</ele>
        <time>2015-07-14T12:35:51Z</time>
      </trkpt>
      <trkpt lat="46.55075803399086" lon="12.211969150230289">
        <ele>1756.47</ele>
        <time>2015-07-14T12:35:58Z</time>
      </trkpt>
      <trkpt lat="46.550675220787525" lon="12.212137542665005">
        <ele>1754.54</ele>
        <time>2015-07-14T12:36:10Z</time>
      </trkpt>
      <trkpt lat="46.550627695396543" lon="12.212270144373178">
        <ele>1752.6199999999999</ele>
        <time>2015-07-14T12:36:21Z</time>
      </trkpt>
      <trkpt lat="46.55057824216783" lon="12.212387323379517">
        <ele>1750.22</ele>
        <time>2015-07-14T12:36:32Z</time>
      </trkpt>
      <trkpt lat="46.550512528046966" lon="12.212492013350129">
        <ele>1748.29</ele>
        <time>2015-07-14T12:36:42Z</time>
      </trkpt>
      <trkpt lat="46.550484616309404" lon="12.212555129081011">
        <ele>1747.3299999999999</ele>
        <time>2015-07-14T12:36:46Z</time>
      </trkpt>
      <trkpt lat="46.550408257171512" lon="12.212651604786515">
        <ele>1747.3299999999999</ele>
        <time>2015-07-14T12:36:57Z</time>
      </trkpt>
      <trkpt lat="46.550380010157824" lon="12.212721090763807">
        <ele>1745.4100000000001</ele>
        <time>2015-07-14T12:37:02Z</time>
      </trkpt>
      <trkpt lat="46.550280684605241" lon="12.212870540097356">
        <ele>1743.49</ele>
        <time>2015-07-14T12:37:14Z</time>
      </trkpt>
      <trkpt lat="46.550183957442641" lon="12.212946731597185">
        <ele>1744.45</ele>
        <time>2015-07-14T12:37:26Z</time>
      </trkpt>
      <trkpt lat="46.550078680738807" lon="12.212979672476649">
        <ele>1745.4100000000001</ele>
        <time>2015-07-14T12:37:39Z</time>
      </trkpt>
      <trkpt lat="46.550014056265354" lon="12.213025605306029">
        <ele>1746.3699999999999</ele>
        <time>2015-07-14T12:37:47Z</time>
      </trkpt>
      <trkpt lat="46.549965692684054" lon="12.213043626397848">
        <ele>1746.3699999999999</ele>
        <time>2015-07-14T12:37:52Z</time>
      </trkpt>
      <trkpt lat="46.549883298575878" lon="12.213082602247596">
        <ele>1746.8499999999999</ele>
        <time>2015-07-14T12:38:01Z</time>
      </trkpt>
      <trkpt lat="46.54980031773448" lon="12.213116632774472">
        <ele>1747.8099999999999</ele>
        <time>2015-07-14T12:38:10Z</time>
      </trkpt>
      <trkpt lat="46.549724210053682" lon="12.213135324418545">
        <ele>1747.3299999999999</ele>
        <time>2015-07-14T12:38:21Z</time>
      </trkpt>
      <trkpt lat="46.549660675227642" lon="12.21317027695477">
        <ele>1746.3699999999999</ele>
        <time>2015-07-14T12:38:31Z</time>
      </trkpt>
      <trkpt lat="46.549557577818632" lon="12.213146388530731">
        <ele>1746.8499999999999</ele>
        <time>2015-07-14T12:38:42Z</time>
      </trkpt>
      <trkpt lat="46.549472250044346" lon="12.213207576423883">
        <ele>1746.8499999999999</ele>
        <time>2015-07-14T12:38:50Z</time>
      </trkpt>
      <trkpt lat="46.549380719661713" lon="12.213232051581144">
        <ele>1747.8099999999999</ele>
        <time>2015-07-14T12:38:59Z</time>
      </trkpt>
      <trkpt lat="46.54924669303" lon="12.213274883106351">
        <ele>1747.8099999999999</ele>
        <time>2015-07-14T12:39:11Z</time>
      </trkpt>
      <trkpt lat="46.549095315858722" lon="12.213321570307016">
        <ele>1746.3699999999999</ele>
        <time>2015-07-14T12:39:24Z</time>
      </trkpt>
      <trkpt lat="46.548902029171586" lon="12.213397845625877">
        <ele>1745.4100000000001</ele>
        <time>2015-07-14T12:39:40Z</time>
      </trkpt>
      <trkpt lat="46.54877076856792" lon="12.21345417201519">
        <ele>1745.8900000000001</ele>
        <time>2015-07-14T12:39:52Z</time>
      </trkpt>
      <trkpt lat="46.54866867698729" lon="12.213426344096661">
        <ele>1747.3299999999999</ele>
        <time>2015-07-14T12:40:03Z</time>
      </trkpt>
      <trkpt lat="46.548563400283456" lon="12.21347764134407">
        <ele>1748.78</ele>
        <time>2015-07-14T12:40:16Z</time>
      </trkpt>
      <trkpt lat="46.548458207398653" lon="12.213478898629546">
        <ele>1749.74</ele>
        <time>2015-07-14T12:40:26Z</time>
      </trkpt>
      <trkpt lat="46.548338681459427" lon="12.213465822860599">
        <ele>1750.22</ele>
        <time>2015-07-14T12:40:38Z</time>
      </trkpt>
      <trkpt lat="46.548219658434391" lon="12.213439587503672">
        <ele>1750.22</ele>
        <time>2015-07-14T12:40:49Z</time>
      </trkpt>
      <trkpt lat="46.548131480813026" lon="12.21342483535409">
        <ele>1750.22</ele>
        <time>2015-07-14T12:40:57Z</time>
      </trkpt>
      <trkpt lat="46.548019330948591" lon="12.213387787342072">
        <ele>1749.74</ele>
        <time>2015-07-14T12:41:08Z</time>
      </trkpt>
      <trkpt lat="46.54796258546412" lon="12.213352667167783">
        <ele>1750.22</ele>
        <time>2015-07-14T12:41:13Z</time>
      </trkpt>
      <trkpt lat="46.547849178314209" lon="12.213303549215198">
        <ele>1749.26</ele>
        <time>2015-07-14T12:41:24Z</time>
      </trkpt>
      <trkpt lat="46.547717917710543" lon="12.213242780417204">
        <ele>1748.78</ele>
        <time>2015-07-14T12:41:34Z</time>
      </trkpt>
      <trkpt lat="46.547682210803032" lon="12.213213024660945">
        <ele>1748.78</ele>
        <time>2015-07-14T12:41:37Z</time>
      </trkpt>
      <trkpt lat="46.547579700127244" lon="12.213128618896008">
        <ele>1749.74</ele>
        <time>2015-07-14T12:41:50Z</time>
      </trkpt>
      <trkpt lat="46.547456989064813" lon="12.213018983602524">
        <ele>1749.26</ele>
        <time>2015-07-14T12:42:01Z</time>
      </trkpt>
      <trkpt lat="46.54736990109086" lon="12.212947318330407">
        <ele>1749.26</ele>
        <time>2015-07-14T12:42:12Z</time>
      </trkpt>
      <trkpt lat="46.547297313809395" lon="12.212940780445933">
        <ele>1749.74</ele>
        <time>2015-07-14T12:42:18Z</time>
      </trkpt>
      <trkpt lat="46.547150295227766" lon="12.212803568691015">
        <ele>1749.26</ele>
        <time>2015-07-14T12:42:32Z</time>
      </trkpt>
      <trkpt lat="46.547084664925933" lon="12.212741291150451">
        <ele>1749.26</ele>
        <time>2015-07-14T12:42:40Z</time>
      </trkpt>
      <trkpt lat="46.546990871429443" lon="12.21256485208869">
        <ele>1749.26</ele>
        <time>2015-07-14T12:42:54Z</time>
      </trkpt>
      <trkpt lat="46.546940160915256" lon="12.212456641718745">
        <ele>1749.74</ele>
        <time>2015-07-14T12:43:01Z</time>
      </trkpt>
      <trkpt lat="46.546796327456832" lon="12.212385563179851">
        <ele>1748.78</ele>
        <time>2015-07-14T12:43:13Z</time>
      </trkpt>
      <trkpt lat="46.546645034104586" lon="12.212409451603889">
        <ele>1748.78</ele>
        <time>2015-07-14T12:43:26Z</time>
      </trkpt>
      <trkpt lat="46.546619720757008" lon="12.212435100227594">
        <ele>1749.26</ele>
        <time>2015-07-14T12:43:29Z</time>
      </trkpt>
      <trkpt lat="46.546613518148661" lon="12.212602905929089">
        <ele>1749.26</ele>
        <time>2015-07-14T12:43:40Z</time>
      </trkpt>
      <trkpt lat="46.546616032719612" lon="12.212614975869656">
        <ele>1749.26</ele>
        <time>2015-07-14T12:43:41Z</time>
      </trkpt>
      <trkpt lat="46.546623492613435" lon="12.212673649191856">
        <ele>1749.26</ele>
        <time>2015-07-14T12:43:44Z</time>
      </trkpt>
      <trkpt lat="46.546583259478211" lon="12.21288881264627">
        <ele>1748.29</ele>
        <time>2015-07-14T12:43:58Z</time>
      </trkpt>
      <trkpt lat="46.546547217294574" lon="12.212987383827567">
        <ele>1747.8099999999999</ele>
        <time>2015-07-14T12:44:05Z</time>
      </trkpt>
      <trkpt lat="46.546546630561352" lon="12.213194835931063">
        <ele>1747.8099999999999</ele>
        <time>2015-07-14T12:44:17Z</time>
      </trkpt>
      <trkpt lat="46.546528190374374" lon="12.213348811492324">
        <ele>1749.26</ele>
        <time>2015-07-14T12:44:27Z</time>
      </trkpt>
      <trkpt lat="46.546528693288565" lon="12.213530112057924">
        <ele>1749.74</ele>
        <time>2015-07-14T12:44:37Z</time>
      </trkpt>
      <trkpt lat="46.546528860926628" lon="12.213564477860928">
        <ele>1749.74</ele>
        <time>2015-07-14T12:44:39Z</time>
      </trkpt>
      <trkpt lat="46.546504888683558" lon="12.21363396383822">
        <ele>1749.74</ele>
        <time>2015-07-14T12:44:50Z</time>
      </trkpt>
      <trkpt lat="46.546511258929968" lon="12.213650643825531">
        <ele>1749.74</ele>
        <time>2015-07-14T12:44:54Z</time>
      </trkpt>
      <trkpt lat="46.546482006087899" lon="12.213800931349397">
        <ele>1750.22</ele>
        <time>2015-07-14T12:45:04Z</time>
      </trkpt>
      <trkpt lat="46.546475384384394" lon="12.213814593851566">
        <ele>1750.22</ele>
        <time>2015-07-14T12:45:05Z</time>
      </trkpt>
      <trkpt lat="46.546420147642493" lon="12.213900005444884">
        <ele>1750.22</ele>
        <time>2015-07-14T12:45:11Z</time>
      </trkpt>
      <trkpt lat="46.546375136822462" lon="12.214041575789452">
        <ele>1751.1800000000001</ele>
        <time>2015-07-14T12:45:21Z</time>
      </trkpt>
      <trkpt lat="46.546326773241162" lon="12.214235281571746">
        <ele>1752.6199999999999</ele>
        <time>2015-07-14T12:45:33Z</time>
      </trkpt>
      <trkpt lat="46.546290144324303" lon="12.214333517476916">
        <ele>1753.0999999999999</ele>
        <time>2015-07-14T12:45:40Z</time>
      </trkpt>
      <trkpt lat="46.546181933954358" lon="12.214443320408463">
        <ele>1755.02</ele>
        <time>2015-07-14T12:45:54Z</time>
      </trkpt>
      <trkpt lat="46.546088391914964" lon="12.214595032855868">
        <ele>1755.02</ele>
        <time>2015-07-14T12:46:07Z</time>
      </trkpt>
      <trkpt lat="46.546037849038839" lon="12.214772226288915">
        <ele>1754.0599999999999</ele>
        <time>2015-07-14T12:46:21Z</time>
      </trkpt>
      <trkpt lat="46.546042542904615" lon="12.214805250987411">
        <ele>1753.0999999999999</ele>
        <time>2015-07-14T12:46:31Z</time>
      </trkpt>
      <trkpt lat="46.546072298660874" lon="12.214802484959364">
        <ele>1753.0999999999999</ele>
        <time>2015-07-14T12:46:44Z</time>
      </trkpt>
      <trkpt lat="46.546083278954029" lon="12.214804328978062">
        <ele>1752.6199999999999</ele>
        <time>2015-07-14T12:46:47Z</time>
      </trkpt>
      <trkpt lat="46.546101216226816" lon="12.214865935966372">
        <ele>1753.5799999999999</ele>
        <time>2015-07-14T12:46:57Z</time>
      </trkpt>
      <trkpt lat="46.546136504039168" lon="12.21494983881712">
        <ele>1754.54</ele>
        <time>2015-07-14T12:47:08Z</time>
      </trkpt>
      <trkpt lat="46.546180928125978" lon="12.215021168813109">
        <ele>1754.54</ele>
        <time>2015-07-14T12:47:19Z</time>
      </trkpt>
      <trkpt lat="46.546209007501602" lon="12.215093420818448">
        <ele>1756.95</ele>
        <time>2015-07-14T12:47:31Z</time>
      </trkpt>
      <trkpt lat="46.546255275607109" lon="12.215196853503585">
        <ele>1758.3900000000001</ele>
        <time>2015-07-14T12:47:42Z</time>
      </trkpt>
      <trkpt lat="46.546263573691249" lon="12.215308751910925">
        <ele>1759.3499999999999</ele>
        <time>2015-07-14T12:47:53Z</time>
      </trkpt>
      <trkpt lat="46.546269189566374" lon="12.215398773550987">
        <ele>1760.79</ele>
        <time>2015-07-14T12:48:06Z</time>
      </trkpt>
      <trkpt lat="46.546286288648844" lon="12.215384943410754">
        <ele>1760.3099999999999</ele>
        <time>2015-07-14T12:48:13Z</time>
      </trkpt>
      <trkpt lat="46.546297101303935" lon="12.215389302000403">
        <ele>1759.8299999999999</ele>
        <time>2015-07-14T12:48:27Z</time>
      </trkpt>
      <trkpt lat="46.546303890645504" lon="12.215406065806746">
        <ele>1760.3099999999999</ele>
        <time>2015-07-14T12:48:44Z</time>
      </trkpt>
      <trkpt lat="46.546311182901263" lon="12.215402545407414">
        <ele>1760.79</ele>
        <time>2015-07-14T12:49:07Z</time>
      </trkpt>
      <trkpt lat="46.546267429366708" lon="12.215395336970687">
        <ele>1760.79</ele>
        <time>2015-07-14T12:49:28Z</time>
      </trkpt>
      <trkpt lat="46.546211019158363" lon="12.215387122705579">
        <ele>1760.79</ele>
        <time>2015-07-14T12:49:52Z</time>
      </trkpt>
      <trkpt lat="46.546236667782068" lon="12.215398941189051">
        <ele>1761.27</ele>
        <time>2015-07-14T12:50:12Z</time>
      </trkpt>
      <trkpt lat="46.546269860118628" lon="12.215337166562676">
        <ele>1761.27</ele>
        <time>2015-07-14T12:50:40Z</time>
      </trkpt>
      <trkpt lat="46.546232728287578" lon="12.215362563729286">
        <ele>1761.75</ele>
        <time>2015-07-14T12:51:05Z</time>
      </trkpt>
      <trkpt lat="46.546261142939329" lon="12.21532853320241">
        <ele>1762.23</ele>
        <time>2015-07-14T12:51:23Z</time>
      </trkpt>
      <trkpt lat="46.546260640025139" lon="12.215358205139637">
        <ele>1762.71</ele>
        <time>2015-07-14T12:51:29Z</time>
      </trkpt>
      <trkpt lat="46.546219401061535" lon="12.215356947854161">
        <ele>1763.6800000000001</ele>
        <time>2015-07-14T12:51:39Z</time>
      </trkpt>
      <trkpt lat="46.546188052743673" lon="12.215329371392727">
        <ele>1765.1199999999999</ele>
        <time>2015-07-14T12:51:49Z</time>
      </trkpt>
      <trkpt lat="46.546221496537328" lon="12.215429786592722">
        <ele>1766.0799999999999</ele>
        <time>2015-07-14T12:51:59Z</time>
      </trkpt>
      <trkpt lat="46.546201882883906" lon="12.215549731627107">
        <ele>1768.48</ele>
        <time>2015-07-14T12:52:11Z</time>
      </trkpt>
      <trkpt lat="46.546221245080233" lon="12.215663474053144">
        <ele>1770.4100000000001</ele>
        <time>2015-07-14T12:52:23Z</time>
      </trkpt>
      <trkpt lat="46.546253766864538" lon="12.215778473764658">
        <ele>1772.3299999999999</ele>
        <time>2015-07-14T12:52:35Z</time>
      </trkpt>
      <trkpt lat="46.546279080212116" lon="12.215899592265487">
        <ele>1773.77</ele>
        <time>2015-07-14T12:52:45Z</time>
      </trkpt>
      <trkpt lat="46.54625971801579" lon="12.216029008850455">
        <ele>1775.6900000000001</ele>
        <time>2015-07-14T12:52:56Z</time>
      </trkpt>
      <trkpt lat="46.54628268443048" lon="12.216177117079496">
        <ele>1777.1300000000001</ele>
        <time>2015-07-14T12:53:07Z</time>
      </trkpt>
      <trkpt lat="46.54636868275702" lon="12.216251380741596">
        <ele>1778.5799999999999</ele>
        <time>2015-07-14T12:53:20Z</time>
      </trkpt>
      <trkpt lat="46.546439593657851" lon="12.216367302462459">
        <ele>1780.98</ele>
        <time>2015-07-14T12:53:31Z</time>
      </trkpt>
      <trkpt lat="46.546439426019788" lon="12.216474590823054">
        <ele>1781.46</ele>
        <time>2015-07-14T12:53:38Z</time>
      </trkpt>
      <trkpt lat="46.546387625858188" lon="12.216645916923881">
        <ele>1781.9400000000001</ele>
        <time>2015-07-14T12:53:49Z</time>
      </trkpt>
      <trkpt lat="46.546343117952347" lon="12.216801401227713">
        <ele>1782.4200000000001</ele>
        <time>2015-07-14T12:54:00Z</time>
      </trkpt>
      <trkpt lat="46.54633398167789" lon="12.216888321563601">
        <ele>1782.9000000000001</ele>
        <time>2015-07-14T12:54:06Z</time>
      </trkpt>
      <trkpt lat="46.546294670552015" lon="12.21703777089715">
        <ele>1783.8599999999999</ele>
        <time>2015-07-14T12:54:19Z</time>
      </trkpt>
      <trkpt lat="46.546265250071883" lon="12.217171546071768">
        <ele>1785.3099999999999</ele>
        <time>2015-07-14T12:54:31Z</time>
      </trkpt>
      <trkpt lat="46.546238763257861" lon="12.217268524691463">
        <ele>1786.75</ele>
        <time>2015-07-14T12:54:42Z</time>
      </trkpt>
      <trkpt lat="46.546198949217796" lon="12.21741596236825">
        <ele>1788.6700000000001</ele>
        <time>2015-07-14T12:54:54Z</time>
      </trkpt>
      <trkpt lat="46.546227866783738" lon="12.217541774734855">
        <ele>1790.1099999999999</ele>
        <time>2015-07-14T12:55:07Z</time>
      </trkpt>
      <trkpt lat="46.546213114634156" lon="12.217698348686099">
        <ele>1791.0699999999999</ele>
        <time>2015-07-14T12:55:19Z</time>
      </trkpt>
      <trkpt lat="46.54617665335536" lon="12.217850396409631">
        <ele>1791.55</ele>
        <time>2015-07-14T12:55:31Z</time>
      </trkpt>
      <trkpt lat="46.546173300594091" lon="12.217953829094768">
        <ele>1791.55</ele>
        <time>2015-07-14T12:55:37Z</time>
      </trkpt>
      <trkpt lat="46.546163577586412" lon="12.21812104806304">
        <ele>1791.0699999999999</ele>
        <time>2015-07-14T12:55:46Z</time>
      </trkpt>
      <trkpt lat="46.546055870130658" lon="12.218262366950512">
        <ele>1791.55</ele>
        <time>2015-07-14T12:56:00Z</time>
      </trkpt>
      <trkpt lat="46.54592645354569" lon="12.218426819890738">
        <ele>1791.0699999999999</ele>
        <time>2015-07-14T12:56:16Z</time>
      </trkpt>
      <trkpt lat="46.545919412747025" lon="12.21843184903264">
        <ele>1791.0699999999999</ele>
        <time>2015-07-14T12:56:17Z</time>
      </trkpt>
      <trkpt lat="46.545850513502955" lon="12.218528157100081">
        <ele>1790.5899999999999</ele>
        <time>2015-07-14T12:56:29Z</time>
      </trkpt>
      <trkpt lat="46.545750349760056" lon="12.218597810715437">
        <ele>1790.1099999999999</ele>
        <time>2015-07-14T12:56:39Z</time>
      </trkpt>
      <trkpt lat="46.545737022534013" lon="12.218623291701078">
        <ele>1789.6300000000001</ele>
        <time>2015-07-14T12:56:42Z</time>
      </trkpt>
      <trkpt lat="46.545668793842196" lon="12.218763940036297">
        <ele>1788.6700000000001</ele>
        <time>2015-07-14T12:56:53Z</time>
      </trkpt>
      <trkpt lat="46.545595871284604" lon="12.218908276408911">
        <ele>1787.71</ele>
        <time>2015-07-14T12:57:05Z</time>
      </trkpt>
      <trkpt lat="46.545566534623504" lon="12.219056133180857">
        <ele>1787.23</ele>
        <time>2015-07-14T12:57:16Z</time>
      </trkpt>
      <trkpt lat="46.545507777482271" lon="12.219233494251966">
        <ele>1786.75</ele>
        <time>2015-07-14T12:57:29Z</time>
      </trkpt>
      <trkpt lat="46.545446421951056" lon="12.219394845888019">
        <ele>1785.79</ele>
        <time>2015-07-14T12:57:41Z</time>
      </trkpt>
      <trkpt lat="46.545359753072262" lon="12.219574470072985">
        <ele>1785.79</ele>
        <time>2015-07-14T12:57:54Z</time>
      </trkpt>
      <trkpt lat="46.54530837200582" lon="12.219744538888335">
        <ele>1784.8199999999999</ele>
        <time>2015-07-14T12:58:07Z</time>
      </trkpt>
      <trkpt lat="46.545253554359078" lon="12.219937490299344">
        <ele>1784.8199999999999</ele>
        <time>2015-07-14T12:58:20Z</time>
      </trkpt>
      <trkpt lat="46.545180799439549" lon="12.220076294615865">
        <ele>1784.3399999999999</ele>
        <time>2015-07-14T12:58:30Z</time>
      </trkpt>
      <trkpt lat="46.545128664001822" lon="12.220276035368443">
        <ele>1783.8599999999999</ele>
        <time>2015-07-14T12:58:42Z</time>
      </trkpt>
      <trkpt lat="46.545081809163094" lon="12.220420623198152">
        <ele>1783.3800000000001</ele>
        <time>2015-07-14T12:58:53Z</time>
      </trkpt>
      <trkpt lat="46.54502984136343" lon="12.220569485798478">
        <ele>1782.9000000000001</ele>
        <time>2015-07-14T12:59:05Z</time>
      </trkpt>
      <trkpt lat="46.545018777251244" lon="12.220595134422183">
        <ele>1782.9000000000001</ele>
        <time>2015-07-14T12:59:07Z</time>
      </trkpt>
      <trkpt lat="46.544948117807508" lon="12.220754977315664">
        <ele>1782.9000000000001</ele>
        <time>2015-07-14T12:59:18Z</time>
      </trkpt>
      <trkpt lat="46.544898496940732" lon="12.220859499648213">
        <ele>1782.4200000000001</ele>
        <time>2015-07-14T12:59:26Z</time>
      </trkpt>
      <trkpt lat="46.544836722314358" lon="12.221037279814482">
        <ele>1782.4200000000001</ele>
        <time>2015-07-14T12:59:38Z</time>
      </trkpt>
      <trkpt lat="46.544786347076297" lon="12.221182202920318">
        <ele>1782.4200000000001</ele>
        <time>2015-07-14T12:59:50Z</time>
      </trkpt>
      <trkpt lat="46.544720716774464" lon="12.221342800185084">
        <ele>1782.4200000000001</ele>
        <time>2015-07-14T13:00:02Z</time>
      </trkpt>
      <trkpt lat="46.544642010703683" lon="12.221487388014793">
        <ele>1782.9000000000001</ele>
        <time>2015-07-14T13:00:14Z</time>
      </trkpt>
      <trkpt lat="46.544578727334738" lon="12.221540110185742">
        <ele>1782.4200000000001</ele>
        <time>2015-07-14T13:00:20Z</time>
      </trkpt>
      <trkpt lat="46.544469511136413" lon="12.221617307513952">
        <ele>1782.9000000000001</ele>
        <time>2015-07-14T13:00:30Z</time>
      </trkpt>
      <trkpt lat="46.544399773702025" lon="12.221698025241494">
        <ele>1782.4200000000001</ele>
        <time>2015-07-14T13:00:38Z</time>
      </trkpt>
      <trkpt lat="46.544403713196516" lon="12.221825765445828">
        <ele>1782.4200000000001</ele>
        <time>2015-07-14T13:00:49Z</time>
      </trkpt>
      <trkpt lat="46.544381584972143" lon="12.222023578360677">
        <ele>1781.46</ele>
        <time>2015-07-14T13:01:01Z</time>
      </trkpt>
      <trkpt lat="46.544337244704366" lon="12.222090046852827">
        <ele>1780.98</ele>
        <time>2015-07-14T13:01:06Z</time>
      </trkpt>
      <trkpt lat="46.544273961335421" lon="12.222202112898231">
        <ele>1780.5</ele>
        <time>2015-07-14T13:01:15Z</time>
      </trkpt>
      <trkpt lat="46.544172707945108" lon="12.22237654030323">
        <ele>1779.54</ele>
        <time>2015-07-14T13:01:27Z</time>
      </trkpt>
      <trkpt lat="46.544074052944779" lon="12.222441751509905">
        <ele>1779.54</ele>
        <time>2015-07-14T13:01:39Z</time>
      </trkpt>
      <trkpt lat="46.544063156470656" lon="12.222436722368002">
        <ele>1779.54</ele>
        <time>2015-07-14T13:01:40Z</time>
      </trkpt>
      <trkpt lat="46.543943462893367" lon="12.222392298281193">
        <ele>1779.54</ele>
        <time>2015-07-14T13:01:52Z</time>
      </trkpt>
      <trkpt lat="46.54390943236649" lon="12.222434878349304">
        <ele>1780.02</ele>
        <time>2015-07-14T13:01:56Z</time>
      </trkpt>
      <trkpt lat="46.543857799842954" lon="12.222453318536282">
        <ele>1779.0599999999999</ele>
        <time>2015-07-14T13:02:00Z</time>
      </trkpt>
      <trkpt lat="46.543761743232608" lon="12.222463041543961">
        <ele>1779.0599999999999</ele>
        <time>2015-07-14T13:02:10Z</time>
      </trkpt>
      <trkpt lat="46.543756797909737" lon="12.222466394305229">
        <ele>1779.0599999999999</ele>
        <time>2015-07-14T13:02:11Z</time>
      </trkpt>
      <trkpt lat="46.543758055195212" lon="12.222511237487197">
        <ele>1778.5799999999999</ele>
        <time>2015-07-14T13:02:16Z</time>
      </trkpt>
      <trkpt lat="46.543766520917416" lon="12.222542418166995">
        <ele>1779.0599999999999</ele>
        <time>2015-07-14T13:02:18Z</time>
      </trkpt>
      <trkpt lat="46.543814716860652" lon="12.222669571638107">
        <ele>1779.0599999999999</ele>
        <time>2015-07-14T13:02:27Z</time>
      </trkpt>
      <trkpt lat="46.543899122625589" lon="12.222835784777999">
        <ele>1777.1300000000001</ele>
        <time>2015-07-14T13:02:41Z</time>
      </trkpt>
      <trkpt lat="46.543842125684023" lon="12.222932511940598">
        <ele>1776.6500000000001</ele>
        <time>2015-07-14T13:02:50Z</time>
      </trkpt>
      <trkpt lat="46.543767442926764" lon="12.223036279901862">
        <ele>1777.6099999999999</ele>
        <time>2015-07-14T13:03:01Z</time>
      </trkpt>
      <trkpt lat="46.543657639995217" lon="12.22314708866179">
        <ele>1776.6500000000001</ele>
        <time>2015-07-14T13:03:12Z</time>
      </trkpt>
      <trkpt lat="46.543554374948144" lon="12.223198218271136">
        <ele>1777.1300000000001</ele>
        <time>2015-07-14T13:03:25Z</time>
      </trkpt>
      <trkpt lat="46.543500982224941" lon="12.223215401172638">
        <ele>1776.6500000000001</ele>
        <time>2015-07-14T13:03:30Z</time>
      </trkpt>
      <trkpt lat="46.543377013877034" lon="12.223262088373303">
        <ele>1777.1300000000001</ele>
        <time>2015-07-14T13:03:41Z</time>
      </trkpt>
      <trkpt lat="46.543208453804255" lon="12.223292849957943">
        <ele>1776.1700000000001</ele>
        <time>2015-07-14T13:03:56Z</time>
      </trkpt>
      <trkpt lat="46.543180122971535" lon="12.223308188840747">
        <ele>1777.6099999999999</ele>
        <time>2015-07-14T13:03:59Z</time>
      </trkpt>
      <trkpt lat="46.543029164895415" lon="12.223380608484149">
        <ele>1776.1700000000001</ele>
        <time>2015-07-14T13:04:13Z</time>
      </trkpt>
      <trkpt lat="46.542926654219627" lon="12.223408855497837">
        <ele>1775.6900000000001</ele>
        <time>2015-07-14T13:04:23Z</time>
      </trkpt>
      <trkpt lat="46.542793130502105" lon="12.223544558510184">
        <ele>1776.1700000000001</ele>
        <time>2015-07-14T13:04:36Z</time>
      </trkpt>
      <trkpt lat="46.542744347825646" lon="12.223572470247746">
        <ele>1775.21</ele>
        <time>2015-07-14T13:04:41Z</time>
      </trkpt>
      <trkpt lat="46.542722890153527" lon="12.223594430834055">
        <ele>1775.21</ele>
        <time>2015-07-14T13:04:43Z</time>
      </trkpt>
      <trkpt lat="46.542649213224649" lon="12.223630640655756">
        <ele>1775.21</ele>
        <time>2015-07-14T13:04:50Z</time>
      </trkpt>
      <trkpt lat="46.542627085000277" lon="12.223650841042399">
        <ele>1774.73</ele>
        <time>2015-07-14T13:04:52Z</time>
      </trkpt>
      <trkpt lat="46.542500518262386" lon="12.223818730562925">
        <ele>1773.29</ele>
        <time>2015-07-14T13:05:04Z</time>
      </trkpt>
      <trkpt lat="46.542481239885092" lon="12.223834153264761">
        <ele>1773.29</ele>
        <time>2015-07-14T13:05:06Z</time>
      </trkpt>
      <trkpt lat="46.542396247386932" lon="12.223903723061085">
        <ele>1772.3299999999999</ele>
        <time>2015-07-14T13:05:17Z</time>
      </trkpt>
      <trkpt lat="46.542388116940856" lon="12.223910093307495">
        <ele>1772.3299999999999</ele>
        <time>2015-07-14T13:05:18Z</time>
      </trkpt>
      <trkpt lat="46.54222902841866" lon="12.22395870834589">
        <ele>1770.8900000000001</ele>
        <time>2015-07-14T13:05:30Z</time>
      </trkpt>
      <trkpt lat="46.542083434760571" lon="12.224068092182279">
        <ele>1770.4100000000001</ele>
        <time>2015-07-14T13:05:44Z</time>
      </trkpt>
      <trkpt lat="46.541951252147555" lon="12.224143948405981">
        <ele>1770.4100000000001</ele>
        <time>2015-07-14T13:05:55Z</time>
      </trkpt>
      <trkpt lat="46.541823428124189" lon="12.224189126864076">
        <ele>1769.9200000000001</ele>
        <time>2015-07-14T13:06:06Z</time>
      </trkpt>
      <trkpt lat="46.54168713837862" lon="12.224177978932858">
        <ele>1770.4100000000001</ele>
        <time>2015-07-14T13:06:17Z</time>
      </trkpt>
      <trkpt lat="46.541600804775953" lon="12.224158030003309">
        <ele>1769.9200000000001</ele>
        <time>2015-07-14T13:06:23Z</time>
      </trkpt>
      <trkpt lat="46.541470130905509" lon="12.224145624786615">
        <ele>1769.9200000000001</ele>
        <time>2015-07-14T13:06:34Z</time>
      </trkpt>
      <trkpt lat="46.541351275518537" lon="12.22415073774755">
        <ele>1768.96</ele>
        <time>2015-07-14T13:06:44Z</time>
      </trkpt>
      <trkpt lat="46.541231581941247" lon="12.224116120487452">
        <ele>1768</ele>
        <time>2015-07-14T13:06:55Z</time>
      </trkpt>
      <trkpt lat="46.541088167577982" lon="12.224101535975933">
        <ele>1767.04</ele>
        <time>2015-07-14T13:07:07Z</time>
      </trkpt>
      <trkpt lat="46.541079534217715" lon="12.224107990041375">
        <ele>1766.5599999999999</ele>
        <time>2015-07-14T13:07:08Z</time>
      </trkpt>
      <trkpt lat="46.540957242250443" lon="12.224149899557233">
        <ele>1765.5999999999999</ele>
        <time>2015-07-14T13:07:21Z</time>
      </trkpt>
      <trkpt lat="46.540904520079494" lon="12.224175967276096">
        <ele>1764.6400000000001</ele>
        <time>2015-07-14T13:07:26Z</time>
      </trkpt>
      <trkpt lat="46.540868561714888" lon="12.224178062751889">
        <ele>1764.1600000000001</ele>
        <time>2015-07-14T13:07:29Z</time>
      </trkpt>
      <trkpt lat="46.540759261697531" lon="12.224222654476762">
        <ele>1762.71</ele>
        <time>2015-07-14T13:07:38Z</time>
      </trkpt>
      <trkpt lat="46.540658930316567" lon="12.224286524578929">
        <ele>1761.75</ele>
        <time>2015-07-14T13:07:48Z</time>
      </trkpt>
      <trkpt lat="46.540564214810729" lon="12.224407559260726">
        <ele>1759.3499999999999</ele>
        <time>2015-07-14T13:07:59Z</time>
      </trkpt>
      <trkpt lat="46.540427841246128" lon="12.224544687196612">
        <ele>1759.3499999999999</ele>
        <time>2015-07-14T13:08:12Z</time>
      </trkpt>
      <trkpt lat="46.540323235094547" lon="12.224642504006624">
        <ele>1759.8299999999999</ele>
        <time>2015-07-14T13:08:23Z</time>
      </trkpt>
      <trkpt lat="46.540241679176688" lon="12.224693549796939">
        <ele>1759.8299999999999</ele>
        <time>2015-07-14T13:08:34Z</time>
      </trkpt>
      <trkpt lat="46.540186358615756" lon="12.224755994975567">
        <ele>1759.8299999999999</ele>
        <time>2015-07-14T13:08:43Z</time>
      </trkpt>
      <trkpt lat="46.540107484906912" lon="12.224746439605951">
        <ele>1758.3900000000001</ele>
        <time>2015-07-14T13:08:50Z</time>
      </trkpt>
      <trkpt lat="46.540027689188719" lon="12.224737470969558">
        <ele>1760.3099999999999</ele>
        <time>2015-07-14T13:09:00Z</time>
      </trkpt>
      <trkpt lat="46.540021235123277" lon="12.224735040217638">
        <ele>1760.3099999999999</ele>
        <time>2015-07-14T13:09:01Z</time>
      </trkpt>
      <trkpt lat="46.539887962862849" lon="12.224671253934503">
        <ele>1760.3099999999999</ele>
        <time>2015-07-14T13:09:13Z</time>
      </trkpt>
      <trkpt lat="46.539803724735975" lon="12.224681982770562">
        <ele>1758.3900000000001</ele>
        <time>2015-07-14T13:09:23Z</time>
      </trkpt>
      <trkpt lat="46.539640445262194" lon="12.224734034389257">
        <ele>1756.95</ele>
        <time>2015-07-14T13:09:39Z</time>
      </trkpt>
      <trkpt lat="46.539574563503265" lon="12.22476395778358">
        <ele>1756.95</ele>
        <time>2015-07-14T13:09:48Z</time>
      </trkpt>
      <trkpt lat="46.539457635954022" lon="12.224801341071725">
        <ele>1754.54</ele>
        <time>2015-07-14T13:10:00Z</time>
      </trkpt>
      <trkpt lat="46.539377085864544" lon="12.22478206269443">
        <ele>1754.54</ele>
        <time>2015-07-14T13:10:09Z</time>
      </trkpt>
      <trkpt lat="46.539340373128653" lon="12.224782733246684">
        <ele>1754.54</ele>
        <time>2015-07-14T13:10:18Z</time>
      </trkpt>
      <trkpt lat="46.539282370358706" lon="12.224812991917133">
        <ele>1753.0999999999999</ele>
        <time>2015-07-14T13:10:28Z</time>
      </trkpt>
      <trkpt lat="46.539274072274566" lon="12.2248181886971">
        <ele>1752.6199999999999</ele>
        <time>2015-07-14T13:10:29Z</time>
      </trkpt>
      <trkpt lat="46.539234174415469" lon="12.224845932796597">
        <ele>1751.6600000000001</ele>
        <time>2015-07-14T13:10:32Z</time>
      </trkpt>
      <trkpt lat="46.539140297099948" lon="12.224911563098431">
        <ele>1750.7</ele>
        <time>2015-07-14T13:10:43Z</time>
      </trkpt>
      <trkpt lat="46.539091682061553" lon="12.224995465949178">
        <ele>1751.6600000000001</ele>
        <time>2015-07-14T13:10:51Z</time>
      </trkpt>
      <trkpt lat="46.538981879130006" lon="12.225127397105098">
        <ele>1750.7</ele>
        <time>2015-07-14T13:11:03Z</time>
      </trkpt>
      <trkpt lat="46.538871992379427" lon="12.225219514220953">
        <ele>1750.22</ele>
        <time>2015-07-14T13:11:15Z</time>
      </trkpt>
      <trkpt lat="46.538849277421832" lon="12.225234685465693">
        <ele>1750.22</ele>
        <time>2015-07-14T13:11:17Z</time>
      </trkpt>
      <trkpt lat="46.538722794502974" lon="12.225333340466022">
        <ele>1749.74</ele>
        <time>2015-07-14T13:11:29Z</time>
      </trkpt>
      <trkpt lat="46.538628833368421" lon="12.225443227216601">
        <ele>1748.78</ele>
        <time>2015-07-14T13:11:41Z</time>
      </trkpt>
      <trkpt lat="46.538507547229528" lon="12.225520089268684">
        <ele>1749.26</ele>
        <time>2015-07-14T13:11:53Z</time>
      </trkpt>
      <trkpt lat="46.538383830338717" lon="12.225596532225609">
        <ele>1749.26</ele>
        <time>2015-07-14T13:12:06Z</time>
      </trkpt>
      <trkpt lat="46.538282996043563" lon="12.225609524175525">
        <ele>1750.22</ele>
        <time>2015-07-14T13:12:16Z</time>
      </trkpt>
      <trkpt lat="46.538185263052583" lon="12.225641207769513">
        <ele>1751.1800000000001</ele>
        <time>2015-07-14T13:12:27Z</time>
      </trkpt>
      <trkpt lat="46.538177384063601" lon="12.225640704855323">
        <ele>1751.6600000000001</ele>
        <time>2015-07-14T13:12:28Z</time>
      </trkpt>
      <trkpt lat="46.538090463727713" lon="12.225713795050979">
        <ele>1751.6600000000001</ele>
        <time>2015-07-14T13:12:38Z</time>
      </trkpt>
      <trkpt lat="46.537991473451257" lon="12.225789399817586">
        <ele>1751.6600000000001</ele>
        <time>2015-07-14T13:12:49Z</time>
      </trkpt>
      <trkpt lat="46.537951156497002" lon="12.225877325981855">
        <ele>1752.6199999999999</ele>
        <time>2015-07-14T13:12:58Z</time>
      </trkpt>
      <trkpt lat="46.537930704653263" lon="12.225895263254642">
        <ele>1752.6199999999999</ele>
        <time>2015-07-14T13:13:00Z</time>
      </trkpt>
      <trkpt lat="46.537901954725385" lon="12.225891491398215">
        <ele>1754.0599999999999</ele>
        <time>2015-07-14T13:13:03Z</time>
      </trkpt>
      <trkpt lat="46.537828361615539" lon="12.22594496794045">
        <ele>1754.54</ele>
        <time>2015-07-14T13:13:13Z</time>
      </trkpt>
      <trkpt lat="46.53779910877347" lon="12.225971538573503">
        <ele>1755.99</ele>
        <time>2015-07-14T13:13:22Z</time>
      </trkpt>
      <trkpt lat="46.537805395200849" lon="12.226007245481014">
        <ele>1755.5</ele>
        <time>2015-07-14T13:13:32Z</time>
      </trkpt>
      <trkpt lat="46.537775387987494" lon="12.226032894104719">
        <ele>1755.99</ele>
        <time>2015-07-14T13:13:35Z</time>
      </trkpt>
      <trkpt lat="46.537743285298347" lon="12.226044125854969">
        <ele>1755.99</ele>
        <time>2015-07-14T13:13:38Z</time>
      </trkpt>
      <trkpt lat="46.537653850391507" lon="12.22604270093143">
        <ele>1756.95</ele>
        <time>2015-07-14T13:13:47Z</time>
      </trkpt>
      <trkpt lat="46.537608755752444" lon="12.226015040650964">
        <ele>1756.95</ele>
        <time>2015-07-14T13:13:51Z</time>
      </trkpt>
      <trkpt lat="46.537524182349443" lon="12.225950919091702">
        <ele>1758.3900000000001</ele>
        <time>2015-07-14T13:14:01Z</time>
      </trkpt>
      <trkpt lat="46.537481434643269" lon="12.2259561996907">
        <ele>1759.8299999999999</ele>
        <time>2015-07-14T13:14:05Z</time>
      </trkpt>
      <trkpt lat="46.537450924515724" lon="12.225967515259981">
        <ele>1758.8699999999999</ele>
        <time>2015-07-14T13:14:08Z</time>
      </trkpt>
      <trkpt lat="46.537377666682005" lon="12.226124340668321">
        <ele>1757.9100000000001</ele>
        <time>2015-07-14T13:14:19Z</time>
      </trkpt>
      <trkpt lat="46.537347910925746" lon="12.226288039237261">
        <ele>1756.47</ele>
        <time>2015-07-14T13:14:28Z</time>
      </trkpt>
      <trkpt lat="46.5372967813164" lon="12.226344533264637">
        <ele>1756.95</ele>
        <time>2015-07-14T13:14:37Z</time>
      </trkpt>
      <trkpt lat="46.537229558452964" lon="12.226400524377823">
        <ele>1758.3900000000001</ele>
        <time>2015-07-14T13:14:48Z</time>
      </trkpt>
      <trkpt lat="46.53721078298986" lon="12.226443272083998">
        <ele>1759.8299999999999</ele>
        <time>2015-07-14T13:14:58Z</time>
      </trkpt>
      <trkpt lat="46.537190079689026" lon="12.226531533524394">
        <ele>1761.27</ele>
        <time>2015-07-14T13:15:08Z</time>
      </trkpt>
      <trkpt lat="46.537154875695705" lon="12.226591464132071">
        <ele>1763.2</ele>
        <time>2015-07-14T13:15:20Z</time>
      </trkpt>
      <trkpt lat="46.537130400538445" lon="12.226682659238577">
        <ele>1765.5999999999999</ele>
        <time>2015-07-14T13:15:33Z</time>
      </trkpt>
      <trkpt lat="46.5370964538306" lon="12.226724987849593">
        <ele>1766.5599999999999</ele>
        <time>2015-07-14T13:15:43Z</time>
      </trkpt>
      <trkpt lat="46.537040043622255" lon="12.226812159642577">
        <ele>1768</ele>
        <time>2015-07-14T13:15:53Z</time>
      </trkpt>
      <trkpt lat="46.53695329092443" lon="12.226894972845912">
        <ele>1771.3699999999999</ele>
        <time>2015-07-14T13:16:06Z</time>
      </trkpt>
      <trkpt lat="46.5369220264256" lon="12.226970996707678">
        <ele>1771.3699999999999</ele>
        <time>2015-07-14T13:16:15Z</time>
      </trkpt>
      <trkpt lat="46.536854719743133" lon="12.226998154073954">
        <ele>1773.29</ele>
        <time>2015-07-14T13:16:29Z</time>
      </trkpt>
      <trkpt lat="46.53681255877018" lon="12.227055737748742">
        <ele>1775.21</ele>
        <time>2015-07-14T13:16:40Z</time>
      </trkpt>
      <trkpt lat="46.536747934296727" lon="12.227148357778788">
        <ele>1777.6099999999999</ele>
        <time>2015-07-14T13:16:52Z</time>
      </trkpt>
      <trkpt lat="46.536719268187881" lon="12.227196469902992">
        <ele>1778.5799999999999</ele>
        <time>2015-07-14T13:17:04Z</time>
      </trkpt>
      <trkpt lat="46.536695715039968" lon="12.22720761783421">
        <ele>1778.5799999999999</ele>
        <time>2015-07-14T13:17:16Z</time>
      </trkpt>
      <trkpt lat="46.536689093336463" lon="12.227224297821522">
        <ele>1779.54</ele>
        <time>2015-07-14T13:17:24Z</time>
      </trkpt>
      <trkpt lat="46.536649111658335" lon="12.227258244529366">
        <ele>1779.54</ele>
        <time>2015-07-14T13:17:36Z</time>
      </trkpt>
      <trkpt lat="46.536543751135468" lon="12.227263189852238">
        <ele>1781.46</ele>
        <time>2015-07-14T13:17:48Z</time>
      </trkpt>
      <trkpt lat="46.536455238237977" lon="12.227269141003489">
        <ele>1784.3399999999999</ele>
        <time>2015-07-14T13:17:59Z</time>
      </trkpt>
      <trkpt lat="46.536437468603253" lon="12.227178951725364">
        <ele>1787.23</ele>
        <time>2015-07-14T13:18:07Z</time>
      </trkpt>
      <trkpt lat="46.536513660103083" lon="12.227123212069273">
        <ele>1786.75</ele>
        <time>2015-07-14T13:18:18Z</time>
      </trkpt>
      <trkpt lat="46.536491196602583" lon="12.227104268968105">
        <ele>1788.1900000000001</ele>
        <time>2015-07-14T13:18:28Z</time>
      </trkpt>
      <trkpt lat="46.536405868828297" lon="12.227143412455916">
        <ele>1790.1099999999999</ele>
        <time>2015-07-14T13:18:39Z</time>
      </trkpt>
      <trkpt lat="46.536315260455012" lon="12.227201918140054">
        <ele>1793</ele>
        <time>2015-07-14T13:18:52Z</time>
      </trkpt>
      <trkpt lat="46.536233369261026" lon="12.22729311324656">
        <ele>1795.4000000000001</ele>
        <time>2015-07-14T13:19:04Z</time>
      </trkpt>
      <trkpt lat="46.536186682060361" lon="12.227371064946055">
        <ele>1796.8399999999999</ele>
        <time>2015-07-14T13:19:13Z</time>
      </trkpt>
      <trkpt lat="46.536105880513787" lon="12.227377519011497">
        <ele>1798.76</ele>
        <time>2015-07-14T13:19:26Z</time>
      </trkpt>
      <trkpt lat="46.536040585488081" lon="12.227383051067591">
        <ele>1799.73</ele>
        <time>2015-07-14T13:19:36Z</time>
      </trkpt>
      <trkpt lat="46.535997251048684" lon="12.22738548181951">
        <ele>1800.6900000000001</ele>
        <time>2015-07-14T13:19:43Z</time>
      </trkpt>
      <trkpt lat="46.5359291061759" lon="12.227410795167089">
        <ele>1802.6099999999999</ele>
        <time>2015-07-14T13:19:54Z</time>
      </trkpt>
      <trkpt lat="46.535857943817973" lon="12.227446334436536">
        <ele>1804.53</ele>
        <time>2015-07-14T13:20:05Z</time>
      </trkpt>
      <trkpt lat="46.535833887755871" lon="12.227434683591127">
        <ele>1805.97</ele>
        <time>2015-07-14T13:20:09Z</time>
      </trkpt>
      <trkpt lat="46.535768257454038" lon="12.227473240345716">
        <ele>1807.4200000000001</ele>
        <time>2015-07-14T13:20:21Z</time>
      </trkpt>
      <trkpt lat="46.53570388443768" lon="12.227515233680606">
        <ele>1809.8199999999999</ele>
        <time>2015-07-14T13:20:33Z</time>
      </trkpt>
      <trkpt lat="46.535656526684761" lon="12.227523531764746">
        <ele>1811.74</ele>
        <time>2015-07-14T13:20:43Z</time>
      </trkpt>
      <trkpt lat="46.535594500601292" lon="12.227572817355394">
        <ele>1813.6600000000001</ele>
        <time>2015-07-14T13:20:54Z</time>
      </trkpt>
      <trkpt lat="46.535536414012313" lon="12.227610871195793">
        <ele>1815.5899999999999</ele>
        <time>2015-07-14T13:21:04Z</time>
      </trkpt>
      <trkpt lat="46.535492073744535" lon="12.227679267525673">
        <ele>1817.51</ele>
        <time>2015-07-14T13:21:18Z</time>
      </trkpt>
      <trkpt lat="46.535476986318827" lon="12.227722015231848">
        <ele>1818.95</ele>
        <time>2015-07-14T13:21:26Z</time>
      </trkpt>
      <trkpt lat="46.53542191721499" lon="12.227761326357722">
        <ele>1821.3499999999999</ele>
        <time>2015-07-14T13:21:37Z</time>
      </trkpt>
      <trkpt lat="46.535372966900468" lon="12.227853694930673">
        <ele>1823.28</ele>
        <time>2015-07-14T13:21:49Z</time>
      </trkpt>
      <trkpt lat="46.535328878089786" lon="12.227910021319985">
        <ele>1825.2</ele>
        <time>2015-07-14T13:21:59Z</time>
      </trkpt>
      <trkpt lat="46.535321921110153" lon="12.227928377687931">
        <ele>1825.6800000000001</ele>
        <time>2015-07-14T13:22:01Z</time>
      </trkpt>
      <trkpt lat="46.535258051007986" lon="12.227999875321984">
        <ele>1826.6400000000001</ele>
        <time>2015-07-14T13:22:10Z</time>
      </trkpt>
      <trkpt lat="46.535225864499807" lon="12.228035666048527">
        <ele>1826.1600000000001</ele>
        <time>2015-07-14T13:22:13Z</time>
      </trkpt>
      <trkpt lat="46.535179512575269" lon="12.228104313835502">
        <ele>1824.72</ele>
        <time>2015-07-14T13:22:21Z</time>
      </trkpt>
      <trkpt lat="46.535103572532535" lon="12.228191485628486">
        <ele>1824.72</ele>
        <time>2015-07-14T13:22:32Z</time>
      </trkpt>
      <trkpt lat="46.5350725594908" lon="12.228201208636165">
        <ele>1824.72</ele>
        <time>2015-07-14T13:22:43Z</time>
      </trkpt>
      <trkpt lat="46.53507306240499" lon="12.228206153959036">
        <ele>1824.72</ele>
        <time>2015-07-14T13:22:56Z</time>
      </trkpt>
      <trkpt lat="46.535076247528195" lon="12.228205902501941">
        <ele>1824.24</ele>
        <time>2015-07-14T13:22:57Z</time>
      </trkpt>
      <trkpt lat="46.535067446529865" lon="12.228202717378736">
        <ele>1824.72</ele>
        <time>2015-07-14T13:23:08Z</time>
      </trkpt>
      <trkpt lat="46.535068284720182" lon="12.228232054039836">
        <ele>1824.24</ele>
        <time>2015-07-14T13:23:32Z</time>
      </trkpt>
      <trkpt lat="46.535074822604656" lon="12.228229707106948">
        <ele>1824.24</ele>
        <time>2015-07-14T13:23:54Z</time>
      </trkpt>
      <trkpt lat="46.535089910030365" lon="12.22822249867022">
        <ele>1824.24</ele>
        <time>2015-07-14T13:24:13Z</time>
      </trkpt>
      <trkpt lat="46.535086976364255" lon="12.228246303275228">
        <ele>1824.72</ele>
        <time>2015-07-14T13:24:36Z</time>
      </trkpt>
      <trkpt lat="46.535067111253738" lon="12.228240435943007">
        <ele>1824.24</ele>
        <time>2015-07-14T13:25:01Z</time>
      </trkpt>
      <trkpt lat="46.535074152052402" lon="12.228233143687248">
        <ele>1824.24</ele>
        <time>2015-07-14T13:25:16Z</time>
      </trkpt>
      <trkpt lat="46.53507549315691" lon="12.228234652429819">
        <ele>1824.72</ele>
        <time>2015-07-14T13:25:30Z</time>
      </trkpt>
      <trkpt lat="46.535072391852736" lon="12.228233646601439">
        <ele>1824.72</ele>
        <time>2015-07-14T13:25:48Z</time>
      </trkpt>
      <trkpt lat="46.535072810947895" lon="12.228219648823142">
        <ele>1824.72</ele>
        <time>2015-07-14T13:26:06Z</time>
      </trkpt>
      <trkpt lat="46.535066356882453" lon="12.228242363780737">
        <ele>1824.72</ele>
        <time>2015-07-14T13:26:26Z</time>
      </trkpt>
      <trkpt lat="46.535071721300483" lon="12.228267593309283">
        <ele>1824.72</ele>
        <time>2015-07-14T13:26:48Z</time>
      </trkpt>
      <trkpt lat="46.535068033263087" lon="12.228251667693257">
        <ele>1825.2</ele>
        <time>2015-07-14T13:27:04Z</time>
      </trkpt>
      <trkpt lat="46.535078007727861" lon="12.22825669683516">
        <ele>1825.2</ele>
        <time>2015-07-14T13:27:23Z</time>
      </trkpt>
      <trkpt lat="46.53508379124105" lon="12.228280166164041">
        <ele>1825.2</ele>
        <time>2015-07-14T13:27:39Z</time>
      </trkpt>
      <trkpt lat="46.535077420994639" lon="12.228284105658531">
        <ele>1825.6800000000001</ele>
        <time>2015-07-14T13:27:47Z</time>
      </trkpt>
      <trkpt lat="46.534964265301824" lon="12.228333726525307">
        <ele>1826.1600000000001</ele>
        <time>2015-07-14T13:27:59Z</time>
      </trkpt>
      <trkpt lat="46.534954877570271" lon="12.228337246924639">
        <ele>1826.6400000000001</ele>
        <time>2015-07-14T13:28:01Z</time>
      </trkpt>
      <trkpt lat="46.534868460148573" lon="12.228373875841498">
        <ele>1828.5599999999999</ele>
        <time>2015-07-14T13:28:14Z</time>
      </trkpt>
      <trkpt lat="46.53483702801168" lon="12.228397512808442">
        <ele>1829.53</ele>
        <time>2015-07-14T13:28:19Z</time>
      </trkpt>
      <trkpt lat="46.53480869717896" lon="12.228418216109276">
        <ele>1829.53</ele>
        <time>2015-07-14T13:28:22Z</time>
      </trkpt>
      <trkpt lat="46.534692607820034" lon="12.228391813114285">
        <ele>1830.49</ele>
        <time>2015-07-14T13:28:34Z</time>
      </trkpt>
      <trkpt lat="46.534657152369618" lon="12.228412432596087">
        <ele>1830.49</ele>
        <time>2015-07-14T13:28:48Z</time>
      </trkpt>
      <trkpt lat="46.534585068002343" lon="12.228434979915619">
        <ele>1830.49</ele>
        <time>2015-07-14T13:28:56Z</time>
      </trkpt>
      <trkpt lat="46.534535363316536" lon="12.228484768420458">
        <ele>1830.49</ele>
        <time>2015-07-14T13:29:01Z</time>
      </trkpt>
      <trkpt lat="46.534471577033401" lon="12.22856355831027">
        <ele>1830.49</ele>
        <time>2015-07-14T13:29:08Z</time>
      </trkpt>
      <trkpt lat="46.534337047487497" lon="12.228589793667197">
        <ele>1830.97</ele>
        <time>2015-07-14T13:29:20Z</time>
      </trkpt>
      <trkpt lat="46.534196818247437" lon="12.228609323501587">
        <ele>1830.97</ele>
        <time>2015-07-14T13:29:32Z</time>
      </trkpt>
      <trkpt lat="46.534124650061131" lon="12.228608401492238">
        <ele>1831.45</ele>
        <time>2015-07-14T13:29:43Z</time>
      </trkpt>
      <trkpt lat="46.534058516845107" lon="12.228639665991068">
        <ele>1831.45</ele>
        <time>2015-07-14T13:29:55Z</time>
      </trkpt>
      <trkpt lat="46.534038400277495" lon="12.228641677647829">
        <ele>1831.45</ele>
        <time>2015-07-14T13:30:06Z</time>
      </trkpt>
      <trkpt lat="46.534032868221402" lon="12.228616615757346">
        <ele>1831.9300000000001</ele>
        <time>2015-07-14T13:30:14Z</time>
      </trkpt>
      <trkpt lat="46.533962208777666" lon="12.228640336543322">
        <ele>1830.97</ele>
        <time>2015-07-14T13:30:24Z</time>
      </trkpt>
      <trkpt lat="46.533892471343279" lon="12.228666907176375">
        <ele>1829.53</ele>
        <time>2015-07-14T13:30:33Z</time>
      </trkpt>
      <trkpt lat="46.533877048641443" lon="12.228662883862853">
        <ele>1829.05</ele>
        <time>2015-07-14T13:30:37Z</time>
      </trkpt>
      <trkpt lat="46.533801192417741" lon="12.228689370676875">
        <ele>1827.1199999999999</ele>
        <time>2015-07-14T13:30:48Z</time>
      </trkpt>
      <trkpt lat="46.533733550459146" lon="12.228750810027122">
        <ele>1824.72</ele>
        <time>2015-07-14T13:30:58Z</time>
      </trkpt>
      <trkpt lat="46.533690635114908" lon="12.228777380660176">
        <ele>1823.76</ele>
        <time>2015-07-14T13:31:03Z</time>
      </trkpt>
      <trkpt lat="46.533625926822424" lon="12.228796994313598">
        <ele>1822.3199999999999</ele>
        <time>2015-07-14T13:31:09Z</time>
      </trkpt>
      <trkpt lat="46.533468011766672" lon="12.228840328752995">
        <ele>1820.3900000000001</ele>
        <time>2015-07-14T13:31:23Z</time>
      </trkpt>
      <trkpt lat="46.533436831086874" lon="12.228855080902576">
        <ele>1820.3900000000001</ele>
        <time>2015-07-14T13:31:26Z</time>
      </trkpt>
      <trkpt lat="46.533324094489217" lon="12.228825408965349">
        <ele>1820.3900000000001</ele>
        <time>2015-07-14T13:31:37Z</time>
      </trkpt>
      <trkpt lat="46.533184368163347" lon="12.228775285184383">
        <ele>1821.3499999999999</ele>
        <time>2015-07-14T13:31:50Z</time>
      </trkpt>
      <trkpt lat="46.53313709422946" lon="12.228764053434134">
        <ele>1821.8399999999999</ele>
        <time>2015-07-14T13:31:55Z</time>
      </trkpt>
      <trkpt lat="46.533014634624124" lon="12.22879565320909">
        <ele>1822.3199999999999</ele>
        <time>2015-07-14T13:32:09Z</time>
      </trkpt>
      <trkpt lat="46.532966606318951" lon="12.228863043710589">
        <ele>1823.76</ele>
        <time>2015-07-14T13:32:18Z</time>
      </trkpt>
      <trkpt lat="46.532959481701255" lon="12.228882908821106">
        <ele>1824.24</ele>
        <time>2015-07-14T13:32:26Z</time>
      </trkpt>
      <trkpt lat="46.532886056229472" lon="12.228903444483876">
        <ele>1826.1600000000001</ele>
        <time>2015-07-14T13:32:38Z</time>
      </trkpt>
      <trkpt lat="46.532834842801094" lon="12.228924566879869">
        <ele>1827.5999999999999</ele>
        <time>2015-07-14T13:32:48Z</time>
      </trkpt>
      <trkpt lat="46.532795280218124" lon="12.228898499161005">
        <ele>1828.0799999999999</ele>
        <time>2015-07-14T13:33:01Z</time>
      </trkpt>
      <trkpt lat="46.532750688493252" lon="12.228865725919604">
        <ele>1830.49</ele>
        <time>2015-07-14T13:33:10Z</time>
      </trkpt>
      <trkpt lat="46.532705677673221" lon="12.228832030668855">
        <ele>1831.9300000000001</ele>
        <time>2015-07-14T13:33:22Z</time>
      </trkpt>
      <trkpt lat="46.532622864469886" lon="12.228796491399407">
        <ele>1833.8499999999999</ele>
        <time>2015-07-14T13:33:36Z</time>
      </trkpt>
      <trkpt lat="46.532560419291258" lon="12.228781823068857">
        <ele>1835.77</ele>
        <time>2015-07-14T13:33:48Z</time>
      </trkpt>
      <trkpt lat="46.532530076801777" lon="12.228776039555669">
        <ele>1836.74</ele>
        <time>2015-07-14T13:34:00Z</time>
      </trkpt>
      <trkpt lat="46.532502584159374" lon="12.228758689016104">
        <ele>1836.74</ele>
        <time>2015-07-14T13:34:13Z</time>
      </trkpt>
      <trkpt lat="46.53248674236238" lon="12.228708732873201">
        <ele>1839.1400000000001</ele>
        <time>2015-07-14T13:34:23Z</time>
      </trkpt>
      <trkpt lat="46.532467715442181" lon="12.228699261322618">
        <ele>1840.0999999999999</ele>
        <time>2015-07-14T13:34:33Z</time>
      </trkpt>
      <trkpt lat="46.532439300790429" lon="12.228671601042151">
        <ele>1841.0599999999999</ele>
        <time>2015-07-14T13:34:43Z</time>
      </trkpt>
      <trkpt lat="46.532447347417474" lon="12.228661961853504">
        <ele>1842.02</ele>
        <time>2015-07-14T13:34:51Z</time>
      </trkpt>
      <trkpt lat="46.532458495348692" lon="12.228660117834806">
        <ele>1842.02</ele>
        <time>2015-07-14T13:35:07Z</time>
      </trkpt>
      <trkpt lat="46.53250627219677" lon="12.228653412312269">
        <ele>1842.98</ele>
        <time>2015-07-14T13:35:17Z</time>
      </trkpt>
      <trkpt lat="46.5325409732759" lon="12.228602953255177">
        <ele>1844.4300000000001</ele>
        <time>2015-07-14T13:35:28Z</time>
      </trkpt>
      <trkpt lat="46.532576680183411" lon="12.228592140600085">
        <ele>1846.3499999999999</ele>
        <time>2015-07-14T13:35:40Z</time>
      </trkpt>
      <trkpt lat="46.532621188089252" lon="12.228554002940655">
        <ele>1848.27</ele>
        <time>2015-07-14T13:35:52Z</time>
      </trkpt>
      <trkpt lat="46.532679609954357" lon="12.228541681542993">
        <ele>1850.1900000000001</ele>
        <time>2015-07-14T13:36:06Z</time>
      </trkpt>
      <trkpt lat="46.532719256356359" lon="12.228512512519956">
        <ele>1852.1199999999999</ele>
        <time>2015-07-14T13:36:18Z</time>
      </trkpt>
      <trkpt lat="46.532735768705606" lon="12.228529108688235">
        <ele>1853.5599999999999</ele>
        <time>2015-07-14T13:36:30Z</time>
      </trkpt>
      <trkpt lat="46.532730823382735" lon="12.228531958535314">
        <ele>1853.5599999999999</ele>
        <time>2015-07-14T13:36:42Z</time>
      </trkpt>
      <trkpt lat="46.532799219712615" lon="12.228487366810441">
        <ele>1855.96</ele>
        <time>2015-07-14T13:36:54Z</time>
      </trkpt>
      <trkpt lat="46.532856971025467" lon="12.228461969643831">
        <ele>1857.8900000000001</ele>
        <time>2015-07-14T13:37:06Z</time>
      </trkpt>
      <trkpt lat="46.532838195562363" lon="12.228467334061861">
        <ele>1860.29</ele>
        <time>2015-07-14T13:37:19Z</time>
      </trkpt>
      <trkpt lat="46.532808439806104" lon="12.228463143110275">
        <ele>1861.25</ele>
        <time>2015-07-14T13:37:30Z</time>
      </trkpt>
      <trkpt lat="46.532837776467204" lon="12.228415617719293">
        <ele>1863.1700000000001</ele>
        <time>2015-07-14T13:37:42Z</time>
      </trkpt>
      <trkpt lat="46.53288303874433" lon="12.228389885276556">
        <ele>1866.54</ele>
        <time>2015-07-14T13:37:57Z</time>
      </trkpt>
      <trkpt lat="46.532843895256519" lon="12.228401703760028">
        <ele>1867.5</ele>
        <time>2015-07-14T13:38:09Z</time>
      </trkpt>
      <trkpt lat="46.532846828922629" lon="12.228398350998759">
        <ele>1867.98</ele>
        <time>2015-07-14T13:38:23Z</time>
      </trkpt>
      <trkpt lat="46.53283660300076" lon="12.228406062349677">
        <ele>1867.98</ele>
        <time>2015-07-14T13:38:25Z</time>
      </trkpt>
      <trkpt lat="46.532795783132315" lon="12.2284135222435">
        <ele>1867.98</ele>
        <time>2015-07-14T13:38:33Z</time>
      </trkpt>
      <trkpt lat="46.532842637971044" lon="12.228383431211114">
        <ele>1867.98</ele>
        <time>2015-07-14T13:38:46Z</time>
      </trkpt>
      <trkpt lat="46.532856049016118" lon="12.228386364877224">
        <ele>1867.98</ele>
        <time>2015-07-14T13:38:57Z</time>
      </trkpt>
      <trkpt lat="46.532842135056853" lon="12.22839742898941">
        <ele>1867.98</ele>
        <time>2015-07-14T13:39:15Z</time>
      </trkpt>
      <trkpt lat="46.532824449241161" lon="12.22840765491128">
        <ele>1867.98</ele>
        <time>2015-07-14T13:39:28Z</time>
      </trkpt>
      <trkpt lat="46.532771978527308" lon="12.228407487273216">
        <ele>1868.46</ele>
        <time>2015-07-14T13:39:33Z</time>
      </trkpt>
      <trkpt lat="46.532722860574722" lon="12.228360380977392">
        <ele>1869.4200000000001</ele>
        <time>2015-07-14T13:39:39Z</time>
      </trkpt>
      <trkpt lat="46.532637281343341" lon="12.228338420391083">
        <ele>1869.9000000000001</ele>
        <time>2015-07-14T13:39:48Z</time>
      </trkpt>
      <trkpt lat="46.532538877800107" lon="12.228330122306943">
        <ele>1871.3399999999999</ele>
        <time>2015-07-14T13:39:59Z</time>
      </trkpt>
      <trkpt lat="46.532473750412464" lon="12.228284776210785">
        <ele>1873.27</ele>
        <time>2015-07-14T13:40:10Z</time>
      </trkpt>
      <trkpt lat="46.532421950250864" lon="12.228256361559033">
        <ele>1875.1900000000001</ele>
        <time>2015-07-14T13:40:21Z</time>
      </trkpt>
      <trkpt lat="46.532381130382419" lon="12.228221157565713">
        <ele>1877.1099999999999</ele>
        <time>2015-07-14T13:40:31Z</time>
      </trkpt>
      <trkpt lat="46.532333353534341" lon="12.228187713772058">
        <ele>1878.55</ele>
        <time>2015-07-14T13:40:40Z</time>
      </trkpt>
      <trkpt lat="46.532294880598783" lon="12.228149157017469">
        <ele>1879.51</ele>
        <time>2015-07-14T13:40:49Z</time>
      </trkpt>
      <trkpt lat="46.532244170084596" lon="12.228131806477904">
        <ele>1881.4400000000001</ele>
        <time>2015-07-14T13:41:00Z</time>
      </trkpt>
      <trkpt lat="46.532202931120992" lon="12.22815359942615">
        <ele>1883.3599999999999</ele>
        <time>2015-07-14T13:41:10Z</time>
      </trkpt>
      <trkpt lat="46.532150292769074" lon="12.228168854489923">
        <ele>1885.28</ele>
        <time>2015-07-14T13:41:19Z</time>
      </trkpt>
      <trkpt lat="46.532059097662568" lon="12.22813599742949">
        <ele>1886.24</ele>
        <time>2015-07-14T13:41:31Z</time>
      </trkpt>
      <trkpt lat="46.531977877020836" lon="12.228033319115639">
        <ele>1887.21</ele>
        <time>2015-07-14T13:41:43Z</time>
      </trkpt>
      <trkpt lat="46.531973266974092" lon="12.228026781231165">
        <ele>1887.21</ele>
        <time>2015-07-14T13:41:44Z</time>
      </trkpt>
      <trkpt lat="46.531953988596797" lon="12.228003395721316">
        <ele>1887.6900000000001</ele>
        <time>2015-07-14T13:41:47Z</time>
      </trkpt>
      <trkpt lat="46.531814010813832" lon="12.227910021319985">
        <ele>1887.21</ele>
        <time>2015-07-14T13:42:01Z</time>
      </trkpt>
      <trkpt lat="46.531725581735373" lon="12.227875990793109">
        <ele>1885.76</ele>
        <time>2015-07-14T13:42:12Z</time>
      </trkpt>
      <trkpt lat="46.531652491539717" lon="12.227951847016811">
        <ele>1886.24</ele>
        <time>2015-07-14T13:42:23Z</time>
      </trkpt>
      <trkpt lat="46.531625920906663" lon="12.227947739884257">
        <ele>1886.24</ele>
        <time>2015-07-14T13:42:37Z</time>
      </trkpt>
      <trkpt lat="46.53151829726994" lon="12.227904656901956">
        <ele>1887.6900000000001</ele>
        <time>2015-07-14T13:42:49Z</time>
      </trkpt>
      <trkpt lat="46.531435316428542" lon="12.22783550620079">
        <ele>1889.1300000000001</ele>
        <time>2015-07-14T13:43:00Z</time>
      </trkpt>
      <trkpt lat="46.531402375549078" lon="12.227792255580425">
        <ele>1890.0899999999999</ele>
        <time>2015-07-14T13:43:09Z</time>
      </trkpt>
      <trkpt lat="46.531415954232216" lon="12.227787058800459">
        <ele>1889.6099999999999</ele>
        <time>2015-07-14T13:43:21Z</time>
      </trkpt>
      <trkpt lat="46.531409667804837" lon="12.227800721302629">
        <ele>1889.6099999999999</ele>
        <time>2015-07-14T13:43:47Z</time>
      </trkpt>
      <trkpt lat="46.531412601470947" lon="12.227789908647537">
        <ele>1889.6099999999999</ele>
        <time>2015-07-14T13:44:04Z</time>
      </trkpt>
      <trkpt lat="46.531416540965438" lon="12.227783035486937">
        <ele>1889.6099999999999</ele>
        <time>2015-07-14T13:44:17Z</time>
      </trkpt>
      <trkpt lat="46.531406063586473" lon="12.227787729352713">
        <ele>1890.0899999999999</ele>
        <time>2015-07-14T13:44:20Z</time>
      </trkpt>
      <trkpt lat="46.531326519325376" lon="12.227824945002794">
        <ele>1888.1700000000001</ele>
        <time>2015-07-14T13:44:31Z</time>
      </trkpt>
      <trkpt lat="46.531285531818867" lon="12.227905075997114">
        <ele>1886.72</ele>
        <time>2015-07-14T13:44:43Z</time>
      </trkpt>
      <trkpt lat="46.531259212642908" lon="12.227963414043188">
        <ele>1885.28</ele>
        <time>2015-07-14T13:44:52Z</time>
      </trkpt>
      <trkpt lat="46.531237838789821" lon="12.227970035746694">
        <ele>1884.8</ele>
        <time>2015-07-14T13:44:55Z</time>
      </trkpt>
      <trkpt lat="46.531200287863612" lon="12.227983949705958">
        <ele>1884.3199999999999</ele>
        <time>2015-07-14T13:44:58Z</time>
      </trkpt>
      <trkpt lat="46.531143877655268" lon="12.22809542901814">
        <ele>1884.8</ele>
        <time>2015-07-14T13:45:09Z</time>
      </trkpt>
      <trkpt lat="46.531072715297341" lon="12.228157874196768">
        <ele>1884.3199999999999</ele>
        <time>2015-07-14T13:45:18Z</time>
      </trkpt>
      <trkpt lat="46.530978418886662" lon="12.228180672973394">
        <ele>1884.3199999999999</ele>
        <time>2015-07-14T13:45:28Z</time>
      </trkpt>
      <trkpt lat="46.530965678393841" lon="12.22818486392498">
        <ele>1884.3199999999999</ele>
        <time>2015-07-14T13:45:29Z</time>
      </trkpt>
      <trkpt lat="46.530897868797183" lon="12.228193245828152">
        <ele>1882.8800000000001</ele>
        <time>2015-07-14T13:45:34Z</time>
      </trkpt>
      <trkpt lat="46.530822599306703" lon="12.228200538083911">
        <ele>1882.8800000000001</ele>
        <time>2015-07-14T13:45:43Z</time>
      </trkpt>
      <trkpt lat="46.530787562951446" lon="12.228213781490922">
        <ele>1882.8800000000001</ele>
        <time>2015-07-14T13:45:46Z</time>
      </trkpt>
      <trkpt lat="46.530666695907712" lon="12.22815946675837">
        <ele>1881.9200000000001</ele>
        <time>2015-07-14T13:45:59Z</time>
      </trkpt>
      <trkpt lat="46.530624367296696" lon="12.228136835619807">
        <ele>1881.4400000000001</ele>
        <time>2015-07-14T13:46:10Z</time>
      </trkpt>
      <trkpt lat="46.530555719509721" lon="12.22811889834702">
        <ele>1880.96</ele>
        <time>2015-07-14T13:46:19Z</time>
      </trkpt>
      <trkpt lat="46.530511127784848" lon="12.228124933317304">
        <ele>1880.96</ele>
        <time>2015-07-14T13:46:23Z</time>
      </trkpt>
      <trkpt lat="46.530417585745454" lon="12.228154353797436">
        <ele>1880.48</ele>
        <time>2015-07-14T13:46:32Z</time>
      </trkpt>
      <trkpt lat="46.530382130295038" lon="12.22815016284585">
        <ele>1880.48</ele>
        <time>2015-07-14T13:46:35Z</time>
      </trkpt>
      <trkpt lat="46.530344411730766" lon="12.228157790377736">
        <ele>1880.96</ele>
        <time>2015-07-14T13:46:39Z</time>
      </trkpt>
      <trkpt lat="46.530264196917415" lon="12.22834219224751">
        <ele>1880</ele>
        <time>2015-07-14T13:46:52Z</time>
      </trkpt>
      <trkpt lat="46.530147520825267" lon="12.228413438424468">
        <ele>1878.55</ele>
        <time>2015-07-14T13:47:02Z</time>
      </trkpt>
      <trkpt lat="46.52999471873045" lon="12.228433890268207">
        <ele>1878.0699999999999</ele>
        <time>2015-07-14T13:47:15Z</time>
      </trkpt>
      <trkpt lat="46.529947025701404" lon="12.228443529456854">
        <ele>1878.55</ele>
        <time>2015-07-14T13:47:25Z</time>
      </trkpt>
      <trkpt lat="46.529822973534465" lon="12.228423915803432">
        <ele>1878.55</ele>
        <time>2015-07-14T13:47:36Z</time>
      </trkpt>
      <trkpt lat="46.529813334345818" lon="12.228414360433817">
        <ele>1878.55</ele>
        <time>2015-07-14T13:47:37Z</time>
      </trkpt>
      <trkpt lat="46.529787434265018" lon="12.228382593020797">
        <ele>1878.55</ele>
        <time>2015-07-14T13:47:40Z</time>
      </trkpt>
      <trkpt lat="46.529687438160181" lon="12.228380497545004">
        <ele>1878.0699999999999</ele>
        <time>2015-07-14T13:47:49Z</time>
      </trkpt>
      <trkpt lat="46.529529690742493" lon="12.228419808670878">
        <ele>1877.1099999999999</ele>
        <time>2015-07-14T13:48:02Z</time>
      </trkpt>
      <trkpt lat="46.529366914182901" lon="12.228367086499929">
        <ele>1877.5899999999999</ele>
        <time>2015-07-14T13:48:16Z</time>
      </trkpt>
      <trkpt lat="46.529314275830984" lon="12.228358620777726">
        <ele>1877.5899999999999</ele>
        <time>2015-07-14T13:48:28Z</time>
      </trkpt>
      <trkpt lat="46.529194163158536" lon="12.228386113420129">
        <ele>1876.6300000000001</ele>
        <time>2015-07-14T13:48:39Z</time>
      </trkpt>
      <trkpt lat="46.52914403937757" lon="12.228396171703935">
        <ele>1877.5899999999999</ele>
        <time>2015-07-14T13:48:46Z</time>
      </trkpt>
      <trkpt lat="46.529087880626321" lon="12.228435399010777">
        <ele>1877.5899999999999</ele>
        <time>2015-07-14T13:48:52Z</time>
      </trkpt>
      <trkpt lat="46.528981765732169" lon="12.228401619940996">
        <ele>1878.55</ele>
        <time>2015-07-14T13:49:04Z</time>
      </trkpt>
      <trkpt lat="46.5289456397295" lon="12.228398015722632">
        <ele>1879.03</ele>
        <time>2015-07-14T13:49:08Z</time>
      </trkpt>
      <trkpt lat="46.528809349983931" lon="12.228449229151011">
        <ele>1879.03</ele>
        <time>2015-07-14T13:49:22Z</time>
      </trkpt>
      <trkpt lat="46.528686219826341" lon="12.228440931066871">
        <ele>1880</ele>
        <time>2015-07-14T13:49:33Z</time>
      </trkpt>
      <trkpt lat="46.528665013611317" lon="12.22843749448657">
        <ele>1880</ele>
        <time>2015-07-14T13:49:35Z</time>
      </trkpt>
      <trkpt lat="46.528583960607648" lon="12.228501196950674">
        <ele>1880</ele>
        <time>2015-07-14T13:49:46Z</time>
      </trkpt>
      <trkpt lat="46.528547164052725" lon="12.228492982685566">
        <ele>1879.51</ele>
        <time>2015-07-14T13:49:49Z</time>
      </trkpt>
      <trkpt lat="46.528459070250392" lon="12.228512512519956">
        <ele>1878.55</ele>
        <time>2015-07-14T13:49:56Z</time>
      </trkpt>
      <trkpt lat="46.528409281745553" lon="12.228501113131642">
        <ele>1878.0699999999999</ele>
        <time>2015-07-14T13:50:05Z</time>
      </trkpt>
      <trkpt lat="46.528409197926521" lon="12.228502705693245">
        <ele>1878.0699999999999</ele>
        <time>2015-07-14T13:50:06Z</time>
      </trkpt>
      <trkpt lat="46.528302747756243" lon="12.228518379852176">
        <ele>1876.1500000000001</ele>
        <time>2015-07-14T13:50:16Z</time>
      </trkpt>
      <trkpt lat="46.528268717229366" lon="12.22853179089725">
        <ele>1875.6700000000001</ele>
        <time>2015-07-14T13:50:20Z</time>
      </trkpt>
      <trkpt lat="46.528216162696481" lon="12.228514440357685">
        <ele>1875.1900000000001</ele>
        <time>2015-07-14T13:50:27Z</time>
      </trkpt>
      <trkpt lat="46.528101498261094" lon="12.228518379852176">
        <ele>1874.23</ele>
        <time>2015-07-14T13:50:36Z</time>
      </trkpt>
      <trkpt lat="46.527990940958261" lon="12.228494239971042">
        <ele>1873.27</ele>
        <time>2015-07-14T13:50:45Z</time>
      </trkpt>
      <trkpt lat="46.527890441939235" lon="12.22848879173398">
        <ele>1873.27</ele>
        <time>2015-07-14T13:50:54Z</time>
      </trkpt>
      <trkpt lat="46.52774803340435" lon="12.228456102311611">
        <ele>1873.27</ele>
        <time>2015-07-14T13:51:06Z</time>
      </trkpt>
      <trkpt lat="46.527685504406691" lon="12.228452665731311">
        <ele>1873.75</ele>
        <time>2015-07-14T13:51:12Z</time>
      </trkpt>
      <trkpt lat="46.527624651789665" lon="12.228488121181726">
        <ele>1874.71</ele>
        <time>2015-07-14T13:51:18Z</time>
      </trkpt>
      <trkpt lat="46.52749733068049" lon="12.228571269661188">
        <ele>1874.71</ele>
        <time>2015-07-14T13:51:30Z</time>
      </trkpt>
      <trkpt lat="46.527477381750941" lon="12.228584513068199">
        <ele>1874.71</ele>
        <time>2015-07-14T13:51:32Z</time>
      </trkpt>
      <trkpt lat="46.527399513870478" lon="12.22862021997571">
        <ele>1874.23</ele>
        <time>2015-07-14T13:51:44Z</time>
      </trkpt>
      <trkpt lat="46.527349390089512" lon="12.228631870821118">
        <ele>1874.23</ele>
        <time>2015-07-14T13:51:48Z</time>
      </trkpt>
      <trkpt lat="46.527289459481835" lon="12.228664392605424">
        <ele>1872.79</ele>
        <time>2015-07-14T13:51:54Z</time>
      </trkpt>
      <trkpt lat="46.52716901153326" lon="12.228586105629802">
        <ele>1872.3</ele>
        <time>2015-07-14T13:52:07Z</time>
      </trkpt>
      <trkpt lat="46.527112768962979" lon="12.228502538055182">
        <ele>1873.27</ele>
        <time>2015-07-14T13:52:18Z</time>
      </trkpt>
      <trkpt lat="46.527084521949291" lon="12.228516787290573">
        <ele>1872.79</ele>
        <time>2015-07-14T13:52:21Z</time>
      </trkpt>
      <trkpt lat="46.527027022093534" lon="12.228541513904929">
        <ele>1872.3</ele>
        <time>2015-07-14T13:52:25Z</time>
      </trkpt>
      <trkpt lat="46.526913195848465" lon="12.228464232757688">
        <ele>1872.79</ele>
        <time>2015-07-14T13:52:36Z</time>
      </trkpt>
      <trkpt lat="46.526828370988369" lon="12.228341354057193">
        <ele>1873.75</ele>
        <time>2015-07-14T13:52:48Z</time>
      </trkpt>
      <trkpt lat="46.526812864467502" lon="12.228329032659531">
        <ele>1874.23</ele>
        <time>2015-07-14T13:52:50Z</time>
      </trkpt>
      <trkpt lat="46.526735750958323" lon="12.228280752897263">
        <ele>1873.75</ele>
        <time>2015-07-14T13:52:58Z</time>
      </trkpt>
      <trkpt lat="46.526615554466844" lon="12.228309083729982">
        <ele>1871.8199999999999</ele>
        <time>2015-07-14T13:53:10Z</time>
      </trkpt>
      <trkpt lat="46.526608346030116" lon="12.228324171155691">
        <ele>1871.8199999999999</ele>
        <time>2015-07-14T13:53:19Z</time>
      </trkpt>
      <trkpt lat="46.526485718786716" lon="12.228346383199096">
        <ele>1870.8599999999999</ele>
        <time>2015-07-14T13:53:31Z</time>
      </trkpt>
      <trkpt lat="46.526430062949657" lon="12.22836809232831">
        <ele>1871.3399999999999</ele>
        <time>2015-07-14T13:53:41Z</time>
      </trkpt>
      <trkpt lat="46.526401229202747" lon="12.228401200845838">
        <ele>1870.8599999999999</ele>
        <time>2015-07-14T13:53:51Z</time>
      </trkpt>
      <trkpt lat="46.52634808793664" lon="12.228434979915619">
        <ele>1870.3800000000001</ele>
        <time>2015-07-14T13:53:57Z</time>
      </trkpt>
      <trkpt lat="46.526297377422452" lon="12.22847999073565">
        <ele>1870.3800000000001</ele>
        <time>2015-07-14T13:54:03Z</time>
      </trkpt>
      <trkpt lat="46.526262424886227" lon="12.228465238586068">
        <ele>1870.8599999999999</ele>
        <time>2015-07-14T13:54:07Z</time>
      </trkpt>
      <trkpt lat="46.526216324418783" lon="12.228507986292243">
        <ele>1870.8599999999999</ele>
        <time>2015-07-14T13:54:13Z</time>
      </trkpt>
      <trkpt lat="46.526111634448171" lon="12.228611838072538">
        <ele>1868.9400000000001</ele>
        <time>2015-07-14T13:54:26Z</time>
      </trkpt>
      <trkpt lat="46.526049692183733" lon="12.228646203875542">
        <ele>1867.98</ele>
        <time>2015-07-14T13:54:35Z</time>
      </trkpt>
      <trkpt lat="46.525942990556359" lon="12.228616699576378">
        <ele>1867.98</ele>
        <time>2015-07-14T13:54:45Z</time>
      </trkpt>
      <trkpt lat="46.525879874825478" lon="12.228587530553341">
        <ele>1868.9400000000001</ele>
        <time>2015-07-14T13:54:55Z</time>
      </trkpt>
      <trkpt lat="46.52582379989326" lon="12.22858258523047">
        <ele>1870.8599999999999</ele>
        <time>2015-07-14T13:55:06Z</time>
      </trkpt>
      <trkpt lat="46.525808125734329" lon="12.228558696806431">
        <ele>1871.3399999999999</ele>
        <time>2015-07-14T13:55:16Z</time>
      </trkpt>
      <trkpt lat="46.52578909881413" lon="12.228536987677217">
        <ele>1871.8199999999999</ele>
        <time>2015-07-14T13:55:31Z</time>
      </trkpt>
      <trkpt lat="46.525753224268556" lon="12.228510919958353">
        <ele>1874.23</ele>
        <time>2015-07-14T13:55:43Z</time>
      </trkpt>
      <trkpt lat="46.52573000639677" lon="12.228487534448504">
        <ele>1874.71</ele>
        <time>2015-07-14T13:55:48Z</time>
      </trkpt>
      <trkpt lat="46.525677368044853" lon="12.22845995798707">
        <ele>1876.1500000000001</ele>
        <time>2015-07-14T13:55:58Z</time>
      </trkpt>
      <trkpt lat="46.525632608681917" lon="12.228423999622464">
        <ele>1877.1099999999999</ele>
        <time>2015-07-14T13:56:08Z</time>
      </trkpt>
      <trkpt lat="46.525556584820151" lon="12.228357531130314">
        <ele>1878.0699999999999</ele>
        <time>2015-07-14T13:56:20Z</time>
      </trkpt>
      <trkpt lat="46.525483494624496" lon="12.228259211406112">
        <ele>1879.51</ele>
        <time>2015-07-14T13:56:33Z</time>
      </trkpt>
      <trkpt lat="46.525408644229174" lon="12.228181511163712">
        <ele>1879.51</ele>
        <time>2015-07-14T13:56:46Z</time>
      </trkpt>
      <trkpt lat="46.525344103574753" lon="12.228118479251862">
        <ele>1880.96</ele>
        <time>2015-07-14T13:56:57Z</time>
      </trkpt>
      <trkpt lat="46.525302110239863" lon="12.228024015203118">
        <ele>1882.8800000000001</ele>
        <time>2015-07-14T13:57:07Z</time>
      </trkpt>
      <trkpt lat="46.525219799950719" lon="12.227989062666893">
        <ele>1883.8399999999999</ele>
        <time>2015-07-14T13:57:19Z</time>
      </trkpt>
      <trkpt lat="46.525158192962408" lon="12.2279645036906">
        <ele>1884.3199999999999</ele>
        <time>2015-07-14T13:57:29Z</time>
      </trkpt>
      <trkpt lat="46.525096334517002" lon="12.227960145100951">
        <ele>1884.3199999999999</ele>
        <time>2015-07-14T13:57:39Z</time>
      </trkpt>
      <trkpt lat="46.525033470243216" lon="12.227921923622489">
        <ele>1885.76</ele>
        <time>2015-07-14T13:57:48Z</time>
      </trkpt>
      <trkpt lat="46.524999020621181" lon="12.227847827598453">
        <ele>1886.24</ele>
        <time>2015-07-14T13:57:56Z</time>
      </trkpt>
      <trkpt lat="46.524939509108663" lon="12.227727379649878">
        <ele>1886.72</ele>
        <time>2015-07-14T13:58:08Z</time>
      </trkpt>
      <trkpt lat="46.524887625128031" lon="12.227665353566408">
        <ele>1887.21</ele>
        <time>2015-07-14T13:58:16Z</time>
      </trkpt>
      <trkpt lat="46.524865161627531" lon="12.227652361616492">
        <ele>1887.21</ele>
        <time>2015-07-14T13:58:18Z</time>
      </trkpt>
      <trkpt lat="46.524847056716681" lon="12.227630903944373">
        <ele>1887.21</ele>
        <time>2015-07-14T13:58:20Z</time>
      </trkpt>
      <trkpt lat="46.524750581011176" lon="12.227536272257566">
        <ele>1887.6900000000001</ele>
        <time>2015-07-14T13:58:31Z</time>
      </trkpt>
      <trkpt lat="46.524702049791813" lon="12.227451112121344">
        <ele>1888.6500000000001</ele>
        <time>2015-07-14T13:58:40Z</time>
      </trkpt>
      <trkpt lat="46.524658547714353" lon="12.227414399385452">
        <ele>1888.6500000000001</ele>
        <time>2015-07-14T13:58:45Z</time>
      </trkpt>
      <trkpt lat="46.524542793631554" lon="12.227346086874604">
        <ele>1889.1300000000001</ele>
        <time>2015-07-14T13:58:57Z</time>
      </trkpt>
      <trkpt lat="46.524436762556434" lon="12.227293951436877">
        <ele>1889.6099999999999</ele>
        <time>2015-07-14T13:59:08Z</time>
      </trkpt>
      <trkpt lat="46.524346489459276" lon="12.227259669452906">
        <ele>1889.6099999999999</ele>
        <time>2015-07-14T13:59:17Z</time>
      </trkpt>
      <trkpt lat="46.524209780618548" lon="12.227162858471274">
        <ele>1890.0899999999999</ele>
        <time>2015-07-14T13:59:29Z</time>
      </trkpt>
      <trkpt lat="46.524113388732076" lon="12.227106783539057">
        <ele>1891.05</ele>
        <time>2015-07-14T13:59:40Z</time>
      </trkpt>
      <trkpt lat="46.524029402062297" lon="12.227079207077622">
        <ele>1892.01</ele>
        <time>2015-07-14T13:59:52Z</time>
      </trkpt>
      <trkpt lat="46.524002244696021" lon="12.227036627009511">
        <ele>1893.45</ele>
        <time>2015-07-14T14:00:04Z</time>
      </trkpt>
      <trkpt lat="46.524035101756454" lon="12.226958256214857">
        <ele>1895.8599999999999</ele>
        <time>2015-07-14T14:00:17Z</time>
      </trkpt>
      <trkpt lat="46.524037951603532" lon="12.226903270930052">
        <ele>1898.74</ele>
        <time>2015-07-14T14:00:27Z</time>
      </trkpt>
      <trkpt lat="46.523994784802198" lon="12.226888183504343">
        <ele>1899.22</ele>
        <time>2015-07-14T14:00:37Z</time>
      </trkpt>
      <trkpt lat="46.523899063467979" lon="12.226908467710018">
        <ele>1900.6600000000001</ele>
        <time>2015-07-14T14:00:50Z</time>
      </trkpt>
      <trkpt lat="46.523829074576497" lon="12.22692028619349">
        <ele>1901.6300000000001</ele>
        <time>2015-07-14T14:00:59Z</time>
      </trkpt>
      <trkpt lat="46.523696556687355" lon="12.226915843784809">
        <ele>1902.1099999999999</ele>
        <time>2015-07-14T14:01:11Z</time>
      </trkpt>
      <trkpt lat="46.52367384172976" lon="12.226912658661604">
        <ele>1902.1099999999999</ele>
        <time>2015-07-14T14:01:13Z</time>
      </trkpt>
      <trkpt lat="46.523582311347127" lon="12.226839484646916">
        <ele>1901.6300000000001</ele>
        <time>2015-07-14T14:01:24Z</time>
      </trkpt>
      <trkpt lat="46.523571331053972" lon="12.226831940934062">
        <ele>1901.6300000000001</ele>
        <time>2015-07-14T14:01:25Z</time>
      </trkpt>
      <trkpt lat="46.523490697145462" lon="12.226804615929723">
        <ele>1904.03</ele>
        <time>2015-07-14T14:01:35Z</time>
      </trkpt>
      <trkpt lat="46.523424480110407" lon="12.22677712328732">
        <ele>1904.51</ele>
        <time>2015-07-14T14:01:42Z</time>
      </trkpt>
      <trkpt lat="46.523343175649643" lon="12.226752396672964">
        <ele>1904.99</ele>
        <time>2015-07-14T14:01:53Z</time>
      </trkpt>
      <trkpt lat="46.523294141516089" lon="12.226751307025552">
        <ele>1904.51</ele>
        <time>2015-07-14T14:01:58Z</time>
      </trkpt>
      <trkpt lat="46.523193893954158" lon="12.226688107475638">
        <ele>1904.51</ele>
        <time>2015-07-14T14:02:09Z</time>
      </trkpt>
      <trkpt lat="46.523118456825614" lon="12.226640414446592">
        <ele>1905.47</ele>
        <time>2015-07-14T14:02:19Z</time>
      </trkpt>
      <trkpt lat="46.523112086579204" lon="12.226636474952102">
        <ele>1904.99</ele>
        <time>2015-07-14T14:02:20Z</time>
      </trkpt>
      <trkpt lat="46.523059448227286" lon="12.226663799956441">
        <ele>1906.9100000000001</ele>
        <time>2015-07-14T14:02:28Z</time>
      </trkpt>
      <trkpt lat="46.522986777126789" lon="12.226705709472299">
        <ele>1905.95</ele>
        <time>2015-07-14T14:02:41Z</time>
      </trkpt>
      <trkpt lat="46.522922404110432" lon="12.226640665903687">
        <ele>1905.95</ele>
        <time>2015-07-14T14:02:48Z</time>
      </trkpt>
      <trkpt lat="46.522776056081057" lon="12.226560618728399">
        <ele>1906.4300000000001</ele>
        <time>2015-07-14T14:03:04Z</time>
      </trkpt>
      <trkpt lat="46.522692991420627" lon="12.226514769718051">
        <ele>1907.3900000000001</ele>
        <time>2015-07-14T14:03:16Z</time>
      </trkpt>
      <trkpt lat="46.522610513493419" lon="12.226445116102695">
        <ele>1908.8299999999999</ele>
        <time>2015-07-14T14:03:30Z</time>
      </trkpt>
      <trkpt lat="46.522538512945175" lon="12.226368170231581">
        <ele>1909.8</ele>
        <time>2015-07-14T14:03:41Z</time>
      </trkpt>
      <trkpt lat="46.522485455498099" lon="12.226290386170149">
        <ele>1911.24</ele>
        <time>2015-07-14T14:03:52Z</time>
      </trkpt>
      <trkpt lat="46.522390572354198" lon="12.22618343308568">
        <ele>1912.2</ele>
        <time>2015-07-14T14:04:05Z</time>
      </trkpt>
      <trkpt lat="46.522319074720144" lon="12.226094584912062">
        <ele>1913.6400000000001</ele>
        <time>2015-07-14T14:04:17Z</time>
      </trkpt>
      <trkpt lat="46.522252354770899" lon="12.226034486666322">
        <ele>1916.04</ele>
        <time>2015-07-14T14:04:28Z</time>
      </trkpt>
      <trkpt lat="46.522245816886425" lon="12.226031217724085">
        <ele>1916.53</ele>
        <time>2015-07-14T14:04:29Z</time>
      </trkpt>
      <trkpt lat="46.522157387807965" lon="12.225949913263321">
        <ele>1916.04</ele>
        <time>2015-07-14T14:04:41Z</time>
      </trkpt>
      <trkpt lat="46.522092092782259" lon="12.225863412022591">
        <ele>1917.97</ele>
        <time>2015-07-14T14:04:52Z</time>
      </trkpt>
      <trkpt lat="46.522026546299458" lon="12.225748663768172">
        <ele>1917.97</ele>
        <time>2015-07-14T14:05:04Z</time>
      </trkpt>
      <trkpt lat="46.521956054493785" lon="12.225687727332115">
        <ele>1917.97</ele>
        <time>2015-07-14T14:05:15Z</time>
      </trkpt>
      <trkpt lat="46.521882209926844" lon="12.225647661834955">
        <ele>1917.49</ele>
        <time>2015-07-14T14:05:26Z</time>
      </trkpt>
    </trkseg>
  </trk>

  <trk>
    <name>5tappa2015-07-15</name>
    <extensions>
      <gpxx:TrackExtension>
        <gpxx:DisplayColor>Yellow</gpxx:DisplayColor>
      </gpxx:TrackExtension>
      <gpxtrkx:TrackStatsExtension xmlns:gpxtrkx="http://www.garmin.com/xmlschemas/TrackStatsExtension/v1">
        <gpxtrkx:Distance>15579</gpxtrkx:Distance>
        <gpxtrkx:TotalElapsedTime>28028</gpxtrkx:TotalElapsedTime>
        <gpxtrkx:MovingTime>15968</gpxtrkx:MovingTime>
        <gpxtrkx:StoppedTime>12048</gpxtrkx:StoppedTime>
        <gpxtrkx:MovingSpeed>1</gpxtrkx:MovingSpeed>
        <gpxtrkx:MaxSpeed>3</gpxtrkx:MaxSpeed>
        <gpxtrkx:MaxElevation>2388</gpxtrkx:MaxElevation>
        <gpxtrkx:MinElevation>1206</gpxtrkx:MinElevation>
        <gpxtrkx:Ascent>725</gpxtrkx:Ascent>
        <gpxtrkx:Descent>1464</gpxtrkx:Descent>
        <gpxtrkx:AvgAscentRate>0</gpxtrkx:AvgAscentRate>
        <gpxtrkx:MaxAscentRate>0</gpxtrkx:MaxAscentRate>
        <gpxtrkx:AvgDescentRate>0</gpxtrkx:AvgDescentRate>
        <gpxtrkx:MaxDescentRate>-1</gpxtrkx:MaxDescentRate>
      </gpxtrkx:TrackStatsExtension>
    </extensions>
    <trkseg>
      <trkpt lat="46.521702669560909" lon="12.226661955937743">
        <ele>1948.73</ele>
        <time>2015-07-15T06:03:43Z</time>
      </trkpt>
      <trkpt lat="46.521707782521844" lon="12.226661620661616">
        <ele>1948.73</ele>
        <time>2015-07-15T06:03:44Z</time>
      </trkpt>
      <trkpt lat="46.521713230758905" lon="12.226665811613202">
        <ele>1944.4000000000001</ele>
        <time>2015-07-15T06:03:47Z</time>
      </trkpt>
      <trkpt lat="46.521718427538872" lon="12.226666314527392">
        <ele>1944.4000000000001</ele>
        <time>2015-07-15T06:03:48Z</time>
      </trkpt>
      <trkpt lat="46.52173887938261" lon="12.226688358932734">
        <ele>1944.8800000000001</ele>
        <time>2015-07-15T06:04:01Z</time>
      </trkpt>
      <trkpt lat="46.521741561591625" lon="12.22667695954442">
        <ele>1944.8800000000001</ele>
        <time>2015-07-15T06:04:11Z</time>
      </trkpt>
      <trkpt lat="46.521714236587286" lon="12.226664135232568">
        <ele>1945.3599999999999</ele>
        <time>2015-07-15T06:04:23Z</time>
      </trkpt>
      <trkpt lat="46.521713482216001" lon="12.226661117747426">
        <ele>1945.3599999999999</ele>
        <time>2015-07-15T06:04:37Z</time>
      </trkpt>
      <trkpt lat="46.521727396175265" lon="12.22665105946362">
        <ele>1945.3599999999999</ele>
        <time>2015-07-15T06:04:50Z</time>
      </trkpt>
      <trkpt lat="46.521753799170256" lon="12.226493312045932">
        <ele>1945.3599999999999</ele>
        <time>2015-07-15T06:05:02Z</time>
      </trkpt>
      <trkpt lat="46.521741477772593" lon="12.226430112496018">
        <ele>1945.3599999999999</ele>
        <time>2015-07-15T06:05:10Z</time>
      </trkpt>
      <trkpt lat="46.521754553541541" lon="12.226477134972811">
        <ele>1945.3599999999999</ele>
        <time>2015-07-15T06:05:23Z</time>
      </trkpt>
      <trkpt lat="46.521743154153228" lon="12.226485768333077">
        <ele>1945.3599999999999</ele>
        <time>2015-07-15T06:05:43Z</time>
      </trkpt>
      <trkpt lat="46.521734856069088" lon="12.226429022848606">
        <ele>1945.3599999999999</ele>
        <time>2015-07-15T06:05:49Z</time>
      </trkpt>
      <trkpt lat="46.521728737279773" lon="12.226258115842938">
        <ele>1943.9200000000001</ele>
        <time>2015-07-15T06:05:59Z</time>
      </trkpt>
      <trkpt lat="46.521704010665417" lon="12.226199526339769">
        <ele>1943.4400000000001</ele>
        <time>2015-07-15T06:06:04Z</time>
      </trkpt>
      <trkpt lat="46.521689929068089" lon="12.226174967363477">
        <ele>1943.4400000000001</ele>
        <time>2015-07-15T06:06:06Z</time>
      </trkpt>
      <trkpt lat="46.521687330678105" lon="12.226139008998871">
        <ele>1942.96</ele>
        <time>2015-07-15T06:06:08Z</time>
      </trkpt>
      <trkpt lat="46.521779447793961" lon="12.226063320413232">
        <ele>1942</ele>
        <time>2015-07-15T06:06:18Z</time>
      </trkpt>
      <trkpt lat="46.521800486370921" lon="12.226017890498042">
        <ele>1942</ele>
        <time>2015-07-15T06:06:21Z</time>
      </trkpt>
      <trkpt lat="46.521812472492456" lon="12.225951422005892">
        <ele>1941.04</ele>
        <time>2015-07-15T06:06:26Z</time>
      </trkpt>
      <trkpt lat="46.521816831082106" lon="12.22581010311842">
        <ele>1938.1600000000001</ele>
        <time>2015-07-15T06:06:38Z</time>
      </trkpt>
      <trkpt lat="46.521819680929184" lon="12.225784873589873">
        <ele>1937.6700000000001</ele>
        <time>2015-07-15T06:06:40Z</time>
      </trkpt>
      <trkpt lat="46.521798055619001" lon="12.225727122277021">
        <ele>1937.1900000000001</ele>
        <time>2015-07-15T06:06:44Z</time>
      </trkpt>
      <trkpt lat="46.521777017042041" lon="12.22563374787569">
        <ele>1935.27</ele>
        <time>2015-07-15T06:06:51Z</time>
      </trkpt>
      <trkpt lat="46.521863685920835" lon="12.225596448406577">
        <ele>1934.3099999999999</ele>
        <time>2015-07-15T06:07:01Z</time>
      </trkpt>
      <trkpt lat="46.521906601265073" lon="12.225633496418595">
        <ele>1934.79</ele>
        <time>2015-07-15T06:07:06Z</time>
      </trkpt>
      <trkpt lat="46.522003831341863" lon="12.225741455331445">
        <ele>1935.27</ele>
        <time>2015-07-15T06:07:19Z</time>
      </trkpt>
      <trkpt lat="46.522017577663064" lon="12.225781688466668">
        <ele>1935.27</ele>
        <time>2015-07-15T06:07:23Z</time>
      </trkpt>
      <trkpt lat="46.522122351452708" lon="12.225922336801887">
        <ele>1933.8299999999999</ele>
        <time>2015-07-15T06:07:36Z</time>
      </trkpt>
      <trkpt lat="46.522218827158213" lon="12.226006994023919">
        <ele>1931.4300000000001</ele>
        <time>2015-07-15T06:07:48Z</time>
      </trkpt>
      <trkpt lat="46.522301556542516" lon="12.226104643195868">
        <ele>1928.54</ele>
        <time>2015-07-15T06:08:01Z</time>
      </trkpt>
      <trkpt lat="46.522343885153532" lon="12.226156024262309">
        <ele>1928.0599999999999</ele>
        <time>2015-07-15T06:08:07Z</time>
      </trkpt>
      <trkpt lat="46.522412365302444" lon="12.226271778345108">
        <ele>1926.6199999999999</ele>
        <time>2015-07-15T06:08:17Z</time>
      </trkpt>
      <trkpt lat="46.522498866543174" lon="12.226372612640262">
        <ele>1925.1800000000001</ele>
        <time>2015-07-15T06:08:27Z</time>
      </trkpt>
      <trkpt lat="46.522582350298762" lon="12.226415947079659">
        <ele>1924.22</ele>
        <time>2015-07-15T06:08:35Z</time>
      </trkpt>
      <trkpt lat="46.522677401080728" lon="12.226502448320389">
        <ele>1922.29</ele>
        <time>2015-07-15T06:08:46Z</time>
      </trkpt>
      <trkpt lat="46.522791143506765" lon="12.226559026166797">
        <ele>1921.8099999999999</ele>
        <time>2015-07-15T06:08:57Z</time>
      </trkpt>
      <trkpt lat="46.522817127406597" lon="12.226576544344425">
        <ele>1921.3299999999999</ele>
        <time>2015-07-15T06:09:00Z</time>
      </trkpt>
      <trkpt lat="46.522912010550499" lon="12.226669834926724">
        <ele>1921.3299999999999</ele>
        <time>2015-07-15T06:09:10Z</time>
      </trkpt>
      <trkpt lat="46.523018041625619" lon="12.226591547951102">
        <ele>1920.3699999999999</ele>
        <time>2015-07-15T06:09:19Z</time>
      </trkpt>
      <trkpt lat="46.523062130436301" lon="12.226583166047931">
        <ele>1920.8499999999999</ele>
        <time>2015-07-15T06:09:23Z</time>
      </trkpt>
      <trkpt lat="46.523185260593891" lon="12.226670756936073">
        <ele>1919.4100000000001</ele>
        <time>2015-07-15T06:09:35Z</time>
      </trkpt>
      <trkpt lat="46.523270923644304" lon="12.226744517683983">
        <ele>1920.3699999999999</ele>
        <time>2015-07-15T06:09:46Z</time>
      </trkpt>
      <trkpt lat="46.523313336074352" lon="12.226788438856602">
        <ele>1920.3699999999999</ele>
        <time>2015-07-15T06:09:52Z</time>
      </trkpt>
      <trkpt lat="46.523477369919419" lon="12.226847698912024">
        <ele>1918.45</ele>
        <time>2015-07-15T06:10:06Z</time>
      </trkpt>
      <trkpt lat="46.523563284426928" lon="12.226865468546748">
        <ele>1917.97</ele>
        <time>2015-07-15T06:10:12Z</time>
      </trkpt>
      <trkpt lat="46.523598069325089" lon="12.226879466325045">
        <ele>1917.49</ele>
        <time>2015-07-15T06:10:15Z</time>
      </trkpt>
      <trkpt lat="46.523621873930097" lon="12.226887345314026">
        <ele>1917.01</ele>
        <time>2015-07-15T06:10:17Z</time>
      </trkpt>
      <trkpt lat="46.523769395425916" lon="12.226884579285979">
        <ele>1916.53</ele>
        <time>2015-07-15T06:10:29Z</time>
      </trkpt>
      <trkpt lat="46.523866793140769" lon="12.226883824914694">
        <ele>1915.5599999999999</ele>
        <time>2015-07-15T06:10:40Z</time>
      </trkpt>
      <trkpt lat="46.523931585252285" lon="12.226865384727716">
        <ele>1914.5999999999999</ele>
        <time>2015-07-15T06:10:46Z</time>
      </trkpt>
      <trkpt lat="46.524019259959459" lon="12.226913077756763">
        <ele>1912.6800000000001</ele>
        <time>2015-07-15T06:10:54Z</time>
      </trkpt>
      <trkpt lat="46.524006435647607" lon="12.22702388651669">
        <ele>1908.8299999999999</ele>
        <time>2015-07-15T06:11:07Z</time>
      </trkpt>
      <trkpt lat="46.524042561650276" lon="12.227079542353749">
        <ele>1907.3900000000001</ele>
        <time>2015-07-15T06:11:17Z</time>
      </trkpt>
      <trkpt lat="46.524052452296019" lon="12.22708004526794">
        <ele>1906.9100000000001</ele>
        <time>2015-07-15T06:11:18Z</time>
      </trkpt>
      <trkpt lat="46.524195028468966" lon="12.227148693054914">
        <ele>1905.47</ele>
        <time>2015-07-15T06:11:31Z</time>
      </trkpt>
      <trkpt lat="46.524313045665622" lon="12.227241396903992">
        <ele>1904.51</ele>
        <time>2015-07-15T06:11:43Z</time>
      </trkpt>
      <trkpt lat="46.524362415075302" lon="12.227259920910001">
        <ele>1904.99</ele>
        <time>2015-07-15T06:11:48Z</time>
      </trkpt>
      <trkpt lat="46.524506499990821" lon="12.227310547605157">
        <ele>1904.51</ele>
        <time>2015-07-15T06:12:02Z</time>
      </trkpt>
      <trkpt lat="46.524591408669949" lon="12.227357653900981">
        <ele>1904.03</ele>
        <time>2015-07-15T06:12:11Z</time>
      </trkpt>
      <trkpt lat="46.52471118606627" lon="12.227503079921007">
        <ele>1903.55</ele>
        <time>2015-07-15T06:12:23Z</time>
      </trkpt>
      <trkpt lat="46.524721495807171" lon="12.227513808757067">
        <ele>1903.0699999999999</ele>
        <time>2015-07-15T06:12:24Z</time>
      </trkpt>
      <trkpt lat="46.524834232404828" lon="12.227607602253556">
        <ele>1902.5899999999999</ele>
        <time>2015-07-15T06:12:35Z</time>
      </trkpt>
      <trkpt lat="46.524942442774773" lon="12.227739784866571">
        <ele>1902.1099999999999</ele>
        <time>2015-07-15T06:12:46Z</time>
      </trkpt>
      <trkpt lat="46.524956356734037" lon="12.227780353277922">
        <ele>1901.1400000000001</ele>
        <time>2015-07-15T06:12:54Z</time>
      </trkpt>
      <trkpt lat="46.525003043934703" lon="12.227806337177753">
        <ele>1901.1400000000001</ele>
        <time>2015-07-15T06:13:12Z</time>
      </trkpt>
      <trkpt lat="46.525047300383449" lon="12.227842295542359">
        <ele>1901.1400000000001</ele>
        <time>2015-07-15T06:13:31Z</time>
      </trkpt>
      <trkpt lat="46.524991896003485" lon="12.227789405733347">
        <ele>1902.5899999999999</ele>
        <time>2015-07-15T06:13:51Z</time>
      </trkpt>
      <trkpt lat="46.525001116096973" lon="12.227733414620161">
        <ele>1902.5899999999999</ele>
        <time>2015-07-15T06:14:05Z</time>
      </trkpt>
      <trkpt lat="46.524997176602483" lon="12.227726122364402">
        <ele>1903.55</ele>
        <time>2015-07-15T06:14:21Z</time>
      </trkpt>
      <trkpt lat="46.52500337921083" lon="12.227704748511314">
        <ele>1903.55</ele>
        <time>2015-07-15T06:14:32Z</time>
      </trkpt>
      <trkpt lat="46.52503464370966" lon="12.227665772661567">
        <ele>1904.03</ele>
        <time>2015-07-15T06:14:43Z</time>
      </trkpt>
      <trkpt lat="46.525060962885618" lon="12.227637860924006">
        <ele>1904.99</ele>
        <time>2015-07-15T06:14:48Z</time>
      </trkpt>
      <trkpt lat="46.525131035596132" lon="12.227603914216161">
        <ele>1906.4300000000001</ele>
        <time>2015-07-15T06:14:59Z</time>
      </trkpt>
      <trkpt lat="46.52523254044354" lon="12.227641716599464">
        <ele>1907.3900000000001</ele>
        <time>2015-07-15T06:15:11Z</time>
      </trkpt>
      <trkpt lat="46.525257602334023" lon="12.227651607245207">
        <ele>1908.8299999999999</ele>
        <time>2015-07-15T06:15:14Z</time>
      </trkpt>
      <trkpt lat="46.525330189615488" lon="12.227751603350043">
        <ele>1910.76</ele>
        <time>2015-07-15T06:15:27Z</time>
      </trkpt>
      <trkpt lat="46.525429934263229" lon="12.227744981646538">
        <ele>1911.24</ele>
        <time>2015-07-15T06:15:40Z</time>
      </trkpt>
      <trkpt lat="46.525460695847869" lon="12.227700389921665">
        <ele>1912.6800000000001</ele>
        <time>2015-07-15T06:15:47Z</time>
      </trkpt>
      <trkpt lat="46.525454493239522" lon="12.227642722427845">
        <ele>1914.1199999999999</ele>
        <time>2015-07-15T06:15:55Z</time>
      </trkpt>
      <trkpt lat="46.525486093014479" lon="12.227696115151048">
        <ele>1915.5599999999999</ele>
        <time>2015-07-15T06:16:04Z</time>
      </trkpt>
      <trkpt lat="46.525498749688268" lon="12.22761070355773">
        <ele>1916.53</ele>
        <time>2015-07-15T06:16:17Z</time>
      </trkpt>
      <trkpt lat="46.525543509051204" lon="12.227533925324678">
        <ele>1916.53</ele>
        <time>2015-07-15T06:16:27Z</time>
      </trkpt>
      <trkpt lat="46.525586759671569" lon="12.227470306679606">
        <ele>1917.97</ele>
        <time>2015-07-15T06:16:36Z</time>
      </trkpt>
      <trkpt lat="46.525661358609796" lon="12.227456141263247">
        <ele>1917.97</ele>
        <time>2015-07-15T06:16:47Z</time>
      </trkpt>
      <trkpt lat="46.525723719969392" lon="12.227461338043213">
        <ele>1919.4100000000001</ele>
        <time>2015-07-15T06:17:00Z</time>
      </trkpt>
      <trkpt lat="46.52582916431129" lon="12.227461757138371">
        <ele>1919.8900000000001</ele>
        <time>2015-07-15T06:17:12Z</time>
      </trkpt>
      <trkpt lat="46.52593326754868" lon="12.22737961448729">
        <ele>1919.4100000000001</ele>
        <time>2015-07-15T06:17:23Z</time>
      </trkpt>
      <trkpt lat="46.525986911728978" lon="12.227305267006159">
        <ele>1919.8900000000001</ele>
        <time>2015-07-15T06:17:33Z</time>
      </trkpt>
      <trkpt lat="46.526066288352013" lon="12.227253885939717">
        <ele>1920.8499999999999</ele>
        <time>2015-07-15T06:17:44Z</time>
      </trkpt>
      <trkpt lat="46.526120100170374" lon="12.227211808785796">
        <ele>1921.3299999999999</ele>
        <time>2015-07-15T06:17:55Z</time>
      </trkpt>
      <trkpt lat="46.526142312213778" lon="12.227199068292975">
        <ele>1920.8499999999999</ele>
        <time>2015-07-15T06:18:01Z</time>
      </trkpt>
      <trkpt lat="46.526187239214778" lon="12.227126732468605">
        <ele>1922.77</ele>
        <time>2015-07-15T06:18:13Z</time>
      </trkpt>
      <trkpt lat="46.526240631937981" lon="12.227102844044566">
        <ele>1923.74</ele>
        <time>2015-07-15T06:18:23Z</time>
      </trkpt>
      <trkpt lat="46.526296203956008" lon="12.227047104388475">
        <ele>1926.1400000000001</ele>
        <time>2015-07-15T06:18:35Z</time>
      </trkpt>
      <trkpt lat="46.526357475668192" lon="12.227006619796157">
        <ele>1927.5799999999999</ele>
        <time>2015-07-15T06:18:46Z</time>
      </trkpt>
      <trkpt lat="46.526426877826452" lon="12.227006452158093">
        <ele>1928.54</ele>
        <time>2015-07-15T06:18:57Z</time>
      </trkpt>
      <trkpt lat="46.526516061276197" lon="12.226940151304007">
        <ele>1929.98</ele>
        <time>2015-07-15T06:19:11Z</time>
      </trkpt>
      <trkpt lat="46.526590660214424" lon="12.226935625076294">
        <ele>1930.95</ele>
        <time>2015-07-15T06:19:21Z</time>
      </trkpt>
      <trkpt lat="46.526610776782036" lon="12.226883992552757">
        <ele>1931.9100000000001</ele>
        <time>2015-07-15T06:19:30Z</time>
      </trkpt>
      <trkpt lat="46.52664908207953" lon="12.226827749982476">
        <ele>1933.3499999999999</ele>
        <time>2015-07-15T06:19:41Z</time>
      </trkpt>
      <trkpt lat="46.526698200032115" lon="12.226764382794499">
        <ele>1935.27</ele>
        <time>2015-07-15T06:19:53Z</time>
      </trkpt>
      <trkpt lat="46.526720076799393" lon="12.22672238945961">
        <ele>1936.71</ele>
        <time>2015-07-15T06:20:03Z</time>
      </trkpt>
      <trkpt lat="46.526709515601397" lon="12.226706463843584">
        <ele>1937.6700000000001</ele>
        <time>2015-07-15T06:20:08Z</time>
      </trkpt>
      <trkpt lat="46.526646986603737" lon="12.226683916524053">
        <ele>1939.5999999999999</ele>
        <time>2015-07-15T06:20:18Z</time>
      </trkpt>
      <trkpt lat="46.526622092351317" lon="12.226681066676974">
        <ele>1940.5599999999999</ele>
        <time>2015-07-15T06:20:23Z</time>
      </trkpt>
      <trkpt lat="46.526587642729282" lon="12.226607138291001">
        <ele>1941.52</ele>
        <time>2015-07-15T06:20:36Z</time>
      </trkpt>
      <trkpt lat="46.526576746255159" lon="12.226579813286662">
        <ele>1942.48</ele>
        <time>2015-07-15T06:20:47Z</time>
      </trkpt>
      <trkpt lat="46.526574986055493" lon="12.226526755839586">
        <ele>1942.96</ele>
        <time>2015-07-15T06:20:56Z</time>
      </trkpt>
      <trkpt lat="46.526552522554994" lon="12.226463640108705">
        <ele>1944.8800000000001</ele>
        <time>2015-07-15T06:21:06Z</time>
      </trkpt>
      <trkpt lat="46.526548163965344" lon="12.226363895460963">
        <ele>1945.8499999999999</ele>
        <time>2015-07-15T06:21:17Z</time>
      </trkpt>
      <trkpt lat="46.526572471484542" lon="12.226310083642602">
        <ele>1947.29</ele>
        <time>2015-07-15T06:21:28Z</time>
      </trkpt>
      <trkpt lat="46.526638939976692" lon="12.226317124441266">
        <ele>1949.21</ele>
        <time>2015-07-15T06:21:39Z</time>
      </trkpt>
      <trkpt lat="46.526682609692216" lon="12.226292816922069">
        <ele>1950.6500000000001</ele>
        <time>2015-07-15T06:21:50Z</time>
      </trkpt>
      <trkpt lat="46.526728374883533" lon="12.226301115006208">
        <ele>1953.0599999999999</ele>
        <time>2015-07-15T06:22:03Z</time>
      </trkpt>
      <trkpt lat="46.526787718757987" lon="12.226290637627244">
        <ele>1954.02</ele>
        <time>2015-07-15T06:22:12Z</time>
      </trkpt>
      <trkpt lat="46.526823174208403" lon="12.226268844678998">
        <ele>1955.9400000000001</ele>
        <time>2015-07-15T06:22:23Z</time>
      </trkpt>
      <trkpt lat="46.526842452585697" lon="12.226194581016898">
        <ele>1958.3399999999999</ele>
        <time>2015-07-15T06:22:35Z</time>
      </trkpt>
      <trkpt lat="46.526891067624092" lon="12.226156862452626">
        <ele>1960.27</ele>
        <time>2015-07-15T06:22:47Z</time>
      </trkpt>
      <trkpt lat="46.526939095929265" lon="12.226146468892694">
        <ele>1962.1900000000001</ele>
        <time>2015-07-15T06:22:57Z</time>
      </trkpt>
      <trkpt lat="46.526985112577677" lon="12.226104224100709">
        <ele>1963.1500000000001</ele>
        <time>2015-07-15T06:23:07Z</time>
      </trkpt>
      <trkpt lat="46.526949908584356" lon="12.226063907146454">
        <ele>1965.0699999999999</ele>
        <time>2015-07-15T06:23:18Z</time>
      </trkpt>
      <trkpt lat="46.526909926906228" lon="12.226000623777509">
        <ele>1966.03</ele>
        <time>2015-07-15T06:23:28Z</time>
      </trkpt>
      <trkpt lat="46.526842368766665" lon="12.225915966555476">
        <ele>1967.96</ele>
        <time>2015-07-15T06:23:41Z</time>
      </trkpt>
      <trkpt lat="46.526740696281195" lon="12.225888054817915">
        <ele>1967.96</ele>
        <time>2015-07-15T06:23:53Z</time>
      </trkpt>
      <trkpt lat="46.526699205860496" lon="12.225850839167833">
        <ele>1969.4000000000001</ele>
        <time>2015-07-15T06:24:02Z</time>
      </trkpt>
      <trkpt lat="46.526654111221433" lon="12.22579937428236">
        <ele>1970.8399999999999</ele>
        <time>2015-07-15T06:24:12Z</time>
      </trkpt>
      <trkpt lat="46.526605496183038" lon="12.225765762850642">
        <ele>1971.3199999999999</ele>
        <time>2015-07-15T06:24:24Z</time>
      </trkpt>
      <trkpt lat="46.52657825499773" lon="12.225706083700061">
        <ele>1973.24</ele>
        <time>2015-07-15T06:24:34Z</time>
      </trkpt>
      <trkpt lat="46.52653525583446" lon="12.225702311843634">
        <ele>1975.1700000000001</ele>
        <time>2015-07-15T06:24:44Z</time>
      </trkpt>
      <trkpt lat="46.526500638574362" lon="12.225710777565837">
        <ele>1975.1700000000001</ele>
        <time>2015-07-15T06:24:55Z</time>
      </trkpt>
      <trkpt lat="46.526457387953997" lon="12.22566157579422">
        <ele>1976.1300000000001</ele>
        <time>2015-07-15T06:25:05Z</time>
      </trkpt>
      <trkpt lat="46.526441210880876" lon="12.225639531388879">
        <ele>1976.1300000000001</ele>
        <time>2015-07-15T06:25:20Z</time>
      </trkpt>
      <trkpt lat="46.52642629109323" lon="12.225642716512084">
        <ele>1976.1300000000001</ele>
        <time>2015-07-15T06:25:31Z</time>
      </trkpt>
      <trkpt lat="46.526422435417771" lon="12.225619247183204">
        <ele>1977.0899999999999</ele>
        <time>2015-07-15T06:25:46Z</time>
      </trkpt>
      <trkpt lat="46.52643408626318" lon="12.225613128393888">
        <ele>1978.05</ele>
        <time>2015-07-15T06:25:57Z</time>
      </trkpt>
      <trkpt lat="46.526427380740643" lon="12.225648080930114">
        <ele>1978.05</ele>
        <time>2015-07-15T06:26:16Z</time>
      </trkpt>
      <trkpt lat="46.526410952210426" lon="12.225636010989547">
        <ele>1978.05</ele>
        <time>2015-07-15T06:26:29Z</time>
      </trkpt>
      <trkpt lat="46.526427464559674" lon="12.225679261609912">
        <ele>1978.05</ele>
        <time>2015-07-15T06:26:44Z</time>
      </trkpt>
      <trkpt lat="46.526423189789057" lon="12.225689738988876">
        <ele>1977.0899999999999</ele>
        <time>2015-07-15T06:26:55Z</time>
      </trkpt>
      <trkpt lat="46.526422519236803" lon="12.225704155862331">
        <ele>1977.0899999999999</ele>
        <time>2015-07-15T06:27:15Z</time>
      </trkpt>
      <trkpt lat="46.526419166475534" lon="12.225707089528441">
        <ele>1977.0899999999999</ele>
        <time>2015-07-15T06:27:34Z</time>
      </trkpt>
      <trkpt lat="46.526421345770359" lon="12.225711364299059">
        <ele>1977.5699999999999</ele>
        <time>2015-07-15T06:27:50Z</time>
      </trkpt>
      <trkpt lat="46.526420004665852" lon="12.225708430632949">
        <ele>1977.5699999999999</ele>
        <time>2015-07-15T06:28:07Z</time>
      </trkpt>
      <trkpt lat="46.526422603055835" lon="12.225739695131779">
        <ele>1977.5699999999999</ele>
        <time>2015-07-15T06:28:27Z</time>
      </trkpt>
      <trkpt lat="46.52642578817904" lon="12.225734749808908">
        <ele>1977.5699999999999</ele>
        <time>2015-07-15T06:28:44Z</time>
      </trkpt>
      <trkpt lat="46.526429811492562" lon="12.225731145590544">
        <ele>1977.5699999999999</ele>
        <time>2015-07-15T06:28:59Z</time>
      </trkpt>
      <trkpt lat="46.526427799835801" lon="12.225736258551478">
        <ele>1977.5699999999999</ele>
        <time>2015-07-15T06:29:19Z</time>
      </trkpt>
      <trkpt lat="46.526429140940309" lon="12.225748244673014">
        <ele>1977.5699999999999</ele>
        <time>2015-07-15T06:29:35Z</time>
      </trkpt>
      <trkpt lat="46.526428135111928" lon="12.225747741758823">
        <ele>1977.5699999999999</ele>
        <time>2015-07-15T06:29:50Z</time>
      </trkpt>
      <trkpt lat="46.526427296921611" lon="12.225748999044299">
        <ele>1978.05</ele>
        <time>2015-07-15T06:30:04Z</time>
      </trkpt>
      <trkpt lat="46.526418831199408" lon="12.225741790607572">
        <ele>1978.05</ele>
        <time>2015-07-15T06:30:22Z</time>
      </trkpt>
      <trkpt lat="46.526423105970025" lon="12.225710693746805">
        <ele>1978.53</ele>
        <time>2015-07-15T06:30:32Z</time>
      </trkpt>
      <trkpt lat="46.526403995230794" lon="12.225710861384869">
        <ele>1979.97</ele>
        <time>2015-07-15T06:30:43Z</time>
      </trkpt>
      <trkpt lat="46.526403157040477" lon="12.225690660998225">
        <ele>1980.9300000000001</ele>
        <time>2015-07-15T06:30:56Z</time>
      </trkpt>
      <trkpt lat="46.526394942775369" lon="12.225699881091714">
        <ele>1981.9000000000001</ele>
        <time>2015-07-15T06:31:06Z</time>
      </trkpt>
      <trkpt lat="46.526358230039477" lon="12.225601058453321">
        <ele>1983.3399999999999</ele>
        <time>2015-07-15T06:31:18Z</time>
      </trkpt>
      <trkpt lat="46.526331407949328" lon="12.225592341274023">
        <ele>1984.78</ele>
        <time>2015-07-15T06:31:29Z</time>
      </trkpt>
      <trkpt lat="46.526321014389396" lon="12.225563675165176">
        <ele>1985.26</ele>
        <time>2015-07-15T06:31:32Z</time>
      </trkpt>
      <trkpt lat="46.526362840086222" lon="12.22552084363997">
        <ele>1988.1400000000001</ele>
        <time>2015-07-15T06:31:42Z</time>
      </trkpt>
      <trkpt lat="46.526398714631796" lon="12.225449262186885">
        <ele>1989.5899999999999</ele>
        <time>2015-07-15T06:31:52Z</time>
      </trkpt>
      <trkpt lat="46.526442216709256" lon="12.225365359336138">
        <ele>1991.51</ele>
        <time>2015-07-15T06:32:04Z</time>
      </trkpt>
      <trkpt lat="46.526475744321942" lon="12.225295705720782">
        <ele>1992.47</ele>
        <time>2015-07-15T06:32:15Z</time>
      </trkpt>
      <trkpt lat="46.526489993557334" lon="12.225266033783555">
        <ele>1992.95</ele>
        <time>2015-07-15T06:32:19Z</time>
      </trkpt>
      <trkpt lat="46.526511115953326" lon="12.225214065983891">
        <ele>1993.9100000000001</ele>
        <time>2015-07-15T06:32:27Z</time>
      </trkpt>
      <trkpt lat="46.526556881144643" lon="12.225162265822291">
        <ele>1995.8299999999999</ele>
        <time>2015-07-15T06:32:39Z</time>
      </trkpt>
      <trkpt lat="46.526616895571351" lon="12.225171234458685">
        <ele>1997.28</ele>
        <time>2015-07-15T06:32:49Z</time>
      </trkpt>
      <trkpt lat="46.526672467589378" lon="12.225143238902092">
        <ele>1999.2</ele>
        <time>2015-07-15T06:33:01Z</time>
      </trkpt>
      <trkpt lat="46.526708677411079" lon="12.225062353536487">
        <ele>2001.1199999999999</ele>
        <time>2015-07-15T06:33:12Z</time>
      </trkpt>
      <trkpt lat="46.526682022958994" lon="12.225018683820963">
        <ele>2003.04</ele>
        <time>2015-07-15T06:33:23Z</time>
      </trkpt>
      <trkpt lat="46.526685375720263" lon="12.225009882822633">
        <ele>2003.04</ele>
        <time>2015-07-15T06:33:25Z</time>
      </trkpt>
      <trkpt lat="46.526676574721932" lon="12.224979791790247">
        <ele>2005.45</ele>
        <time>2015-07-15T06:33:34Z</time>
      </trkpt>
      <trkpt lat="46.526667606085539" lon="12.224923381581903">
        <ele>2006.8900000000001</ele>
        <time>2015-07-15T06:33:45Z</time>
      </trkpt>
      <trkpt lat="46.526689818128943" lon="12.224867893382907">
        <ele>2008.8099999999999</ele>
        <time>2015-07-15T06:33:56Z</time>
      </trkpt>
      <trkpt lat="46.526685459539294" lon="12.224797820672393">
        <ele>2010.73</ele>
        <time>2015-07-15T06:34:06Z</time>
      </trkpt>
      <trkpt lat="46.526696104556322" lon="12.224748702719808">
        <ele>2013.1400000000001</ele>
        <time>2015-07-15T06:34:19Z</time>
      </trkpt>
      <trkpt lat="46.526717059314251" lon="12.224721880629659">
        <ele>2014.5799999999999</ele>
        <time>2015-07-15T06:34:30Z</time>
      </trkpt>
      <trkpt lat="46.526717562228441" lon="12.224717773497105">
        <ele>2016.02</ele>
        <time>2015-07-15T06:34:33Z</time>
      </trkpt>
      <trkpt lat="46.526758633553982" lon="12.224632864817977">
        <ele>2016.5</ele>
        <time>2015-07-15T06:34:43Z</time>
      </trkpt>
      <trkpt lat="46.526784785091877" lon="12.224634038284421">
        <ele>2017.46</ele>
        <time>2015-07-15T06:34:54Z</time>
      </trkpt>
      <trkpt lat="46.526825856417418" lon="12.22461886703968">
        <ele>2018.9100000000001</ele>
        <time>2015-07-15T06:35:04Z</time>
      </trkpt>
      <trkpt lat="46.526897354051471" lon="12.224630434066057">
        <ele>2020.8299999999999</ele>
        <time>2015-07-15T06:35:16Z</time>
      </trkpt>
      <trkpt lat="46.526944460347295" lon="12.22463889978826">
        <ele>2022.27</ele>
        <time>2015-07-15T06:35:26Z</time>
      </trkpt>
      <trkpt lat="46.526987124234438" lon="12.224615346640348">
        <ele>2023.71</ele>
        <time>2015-07-15T06:35:38Z</time>
      </trkpt>
      <trkpt lat="46.527033476158977" lon="12.224613502621651">
        <ele>2026.1199999999999</ele>
        <time>2015-07-15T06:35:50Z</time>
      </trkpt>
      <trkpt lat="46.527053005993366" lon="12.224616352468729">
        <ele>2028.04</ele>
        <time>2015-07-15T06:36:01Z</time>
      </trkpt>
      <trkpt lat="46.527100279927254" lon="12.22463303245604">
        <ele>2029.96</ele>
        <time>2015-07-15T06:36:11Z</time>
      </trkpt>
      <trkpt lat="46.527172280475497" lon="12.224619872868061">
        <ele>2031.8800000000001</ele>
        <time>2015-07-15T06:36:25Z</time>
      </trkpt>
      <trkpt lat="46.527209663763642" lon="12.224613837897778">
        <ele>2033.8099999999999</ele>
        <time>2015-07-15T06:36:38Z</time>
      </trkpt>
      <trkpt lat="46.527222571894526" lon="12.224656082689762">
        <ele>2034.29</ele>
        <time>2015-07-15T06:36:50Z</time>
      </trkpt>
      <trkpt lat="46.527234893292189" lon="12.224616184830666">
        <ele>2035.25</ele>
        <time>2015-07-15T06:37:03Z</time>
      </trkpt>
      <trkpt lat="46.527300523594022" lon="12.224601516500115">
        <ele>2037.1700000000001</ele>
        <time>2015-07-15T06:37:16Z</time>
      </trkpt>
      <trkpt lat="46.527343774214387" lon="12.224608389660716">
        <ele>2039.0899999999999</ele>
        <time>2015-07-15T06:37:30Z</time>
      </trkpt>
      <trkpt lat="46.5273810736835" lon="12.224613167345524">
        <ele>2041.02</ele>
        <time>2015-07-15T06:37:44Z</time>
      </trkpt>
      <trkpt lat="46.527394317090511" lon="12.22461886703968">
        <ele>2042.9400000000001</ele>
        <time>2015-07-15T06:37:59Z</time>
      </trkpt>
      <trkpt lat="46.527420887723565" lon="12.224630936980247">
        <ele>2043.9000000000001</ele>
        <time>2015-07-15T06:38:11Z</time>
      </trkpt>
      <trkpt lat="46.527426252141595" lon="12.224642755463719">
        <ele>2045.8199999999999</ele>
        <time>2015-07-15T06:38:25Z</time>
      </trkpt>
      <trkpt lat="46.527413260191679" lon="12.22461249679327">
        <ele>2045.3399999999999</ele>
        <time>2015-07-15T06:38:43Z</time>
      </trkpt>
      <trkpt lat="46.527435723692179" lon="12.22461149096489">
        <ele>2045.3399999999999</ele>
        <time>2015-07-15T06:38:57Z</time>
      </trkpt>
      <trkpt lat="46.527424743399024" lon="12.224615681916475">
        <ele>2045.3399999999999</ele>
        <time>2015-07-15T06:39:14Z</time>
      </trkpt>
      <trkpt lat="46.527437819167972" lon="12.224636301398277">
        <ele>2045.3399999999999</ele>
        <time>2015-07-15T06:39:31Z</time>
      </trkpt>
      <trkpt lat="46.527460366487503" lon="12.224638648331165">
        <ele>2045.3399999999999</ele>
        <time>2015-07-15T06:39:47Z</time>
      </trkpt>
      <trkpt lat="46.527402028441429" lon="12.224631607532501">
        <ele>2044.8599999999999</ele>
        <time>2015-07-15T06:40:08Z</time>
      </trkpt>
      <trkpt lat="46.527434466406703" lon="12.224654071033001">
        <ele>2045.3399999999999</ele>
        <time>2015-07-15T06:40:30Z</time>
      </trkpt>
      <trkpt lat="46.527402615174651" lon="12.224630853161216">
        <ele>2044.3800000000001</ele>
        <time>2015-07-15T06:40:46Z</time>
      </trkpt>
      <trkpt lat="46.527401609346271" lon="12.224642587825656">
        <ele>2044.8599999999999</ele>
        <time>2015-07-15T06:40:58Z</time>
      </trkpt>
      <trkpt lat="46.527420887723565" lon="12.224641498178244">
        <ele>2044.8599999999999</ele>
        <time>2015-07-15T06:41:10Z</time>
      </trkpt>
      <trkpt lat="46.527442680671811" lon="12.224652646109462">
        <ele>2046.3</ele>
        <time>2015-07-15T06:41:21Z</time>
      </trkpt>
      <trkpt lat="46.527452236041427" lon="12.224679971113801">
        <ele>2047.26</ele>
        <time>2015-07-15T06:41:37Z</time>
      </trkpt>
      <trkpt lat="46.527478219941258" lon="12.224689945578575">
        <ele>2048.71</ele>
        <time>2015-07-15T06:41:52Z</time>
      </trkpt>
      <trkpt lat="46.527517279610038" lon="12.224676869809628">
        <ele>2050.6300000000001</ele>
        <time>2015-07-15T06:42:01Z</time>
      </trkpt>
      <trkpt lat="46.527554327622056" lon="12.224651724100113">
        <ele>2053.0300000000002</ele>
        <time>2015-07-15T06:42:13Z</time>
      </trkpt>
      <trkpt lat="46.527586849406362" lon="12.224634205922484">
        <ele>2054.96</ele>
        <time>2015-07-15T06:42:23Z</time>
      </trkpt>
      <trkpt lat="46.52763613499701" lon="12.224638732150197">
        <ele>2056.8800000000001</ele>
        <time>2015-07-15T06:42:36Z</time>
      </trkpt>
      <trkpt lat="46.527686845511198" lon="12.224620962515473">
        <ele>2059.7600000000002</ele>
        <time>2015-07-15T06:42:48Z</time>
      </trkpt>
      <trkpt lat="46.527726156637073" lon="12.224636636674404">
        <ele>2062.1700000000001</ele>
        <time>2015-07-15T06:43:00Z</time>
      </trkpt>
      <trkpt lat="46.527756750583649" lon="12.224705200642347">
        <ele>2062.6500000000001</ele>
        <time>2015-07-15T06:43:10Z</time>
      </trkpt>
      <trkpt lat="46.527815675362945" lon="12.224735962226987">
        <ele>2064.0900000000001</ele>
        <time>2015-07-15T06:43:23Z</time>
      </trkpt>
      <trkpt lat="46.527854902669787" lon="12.224758509546518">
        <ele>2066.4899999999998</ele>
        <time>2015-07-15T06:43:35Z</time>
      </trkpt>
      <trkpt lat="46.527907038107514" lon="12.224756078794599">
        <ele>2068.4099999999999</ele>
        <time>2015-07-15T06:43:46Z</time>
      </trkpt>
      <trkpt lat="46.527923801913857" lon="12.224666643887758">
        <ele>2070.3400000000001</ele>
        <time>2015-07-15T06:43:58Z</time>
      </trkpt>
      <trkpt lat="46.527950959280133" lon="12.224623309448361">
        <ele>2071.7800000000002</ele>
        <time>2015-07-15T06:44:08Z</time>
      </trkpt>
      <trkpt lat="46.527982978150249" lon="12.224573269486427">
        <ele>2074.1799999999998</ele>
        <time>2015-07-15T06:44:20Z</time>
      </trkpt>
      <trkpt lat="46.528012482449412" lon="12.224552063271403">
        <ele>2076.0999999999999</ele>
        <time>2015-07-15T06:44:31Z</time>
      </trkpt>
      <trkpt lat="46.528027486056089" lon="12.224543765187263">
        <ele>2078.0300000000002</ele>
        <time>2015-07-15T06:44:42Z</time>
      </trkpt>
      <trkpt lat="46.528023378923535" lon="12.224469166249037">
        <ele>2079.9499999999998</ele>
        <time>2015-07-15T06:44:56Z</time>
      </trkpt>
      <trkpt lat="46.528061768040061" lon="12.224398506805301">
        <ele>2081.8699999999999</ele>
        <time>2015-07-15T06:45:07Z</time>
      </trkpt>
      <trkpt lat="46.528083812445402" lon="12.224451564252377">
        <ele>2084.2800000000002</ele>
        <time>2015-07-15T06:45:18Z</time>
      </trkpt>
      <trkpt lat="46.528087835758924" lon="12.224469250068069">
        <ele>2084.2800000000002</ele>
        <time>2015-07-15T06:45:29Z</time>
      </trkpt>
      <trkpt lat="46.528127314522862" lon="12.224428681656718">
        <ele>2085.2399999999998</ele>
        <time>2015-07-15T06:45:39Z</time>
      </trkpt>
      <trkpt lat="46.52810376137495" lon="12.224361961707473">
        <ele>2086.6799999999998</ele>
        <time>2015-07-15T06:45:49Z</time>
      </trkpt>
      <trkpt lat="46.528106778860092" lon="12.224280070513487">
        <ele>2089.0799999999999</ele>
        <time>2015-07-15T06:46:02Z</time>
      </trkpt>
      <trkpt lat="46.5280890930444" lon="12.224233383312821">
        <ele>2091</ele>
        <time>2015-07-15T06:46:10Z</time>
      </trkpt>
      <trkpt lat="46.52810082770884" lon="12.224167753010988">
        <ele>2092.9299999999998</ele>
        <time>2015-07-15T06:46:21Z</time>
      </trkpt>
      <trkpt lat="46.528121279552579" lon="12.224176470190287">
        <ele>2094.3699999999999</ele>
        <time>2015-07-15T06:46:30Z</time>
      </trkpt>
      <trkpt lat="46.528145838528872" lon="12.224157443270087">
        <ele>2097.25</ele>
        <time>2015-07-15T06:46:40Z</time>
      </trkpt>
      <trkpt lat="46.528205769136548" lon="12.224115282297134">
        <ele>2098.21</ele>
        <time>2015-07-15T06:46:52Z</time>
      </trkpt>
      <trkpt lat="46.528239380568266" lon="12.224122826009989">
        <ele>2099.1799999999998</ele>
        <time>2015-07-15T06:47:03Z</time>
      </trkpt>
      <trkpt lat="46.528224963694811" lon="12.224072869867086">
        <ele>2100.6199999999999</ele>
        <time>2015-07-15T06:47:14Z</time>
      </trkpt>
      <trkpt lat="46.528210714459419" lon="12.224019477143884">
        <ele>2102.54</ele>
        <time>2015-07-15T06:47:29Z</time>
      </trkpt>
      <trkpt lat="46.528248600661755" lon="12.223962312564254">
        <ele>2104.46</ele>
        <time>2015-07-15T06:47:40Z</time>
      </trkpt>
      <trkpt lat="46.528291096910834" lon="12.223964408040047">
        <ele>2106.3899999999999</ele>
        <time>2015-07-15T06:47:52Z</time>
      </trkpt>
      <trkpt lat="46.528302663937211" lon="12.223977567628026">
        <ele>2108.3099999999999</ele>
        <time>2015-07-15T06:48:08Z</time>
      </trkpt>
      <trkpt lat="46.528359996154904" lon="12.223952589556575">
        <ele>2110.71</ele>
        <time>2015-07-15T06:48:20Z</time>
      </trkpt>
      <trkpt lat="46.528408443555236" lon="12.223898023366928">
        <ele>2112.1500000000001</ele>
        <time>2015-07-15T06:48:33Z</time>
      </trkpt>
      <trkpt lat="46.528430907055736" lon="12.2238873783499">
        <ele>2115.04</ele>
        <time>2015-07-15T06:48:42Z</time>
      </trkpt>
      <trkpt lat="46.528477342799306" lon="12.223833985626698">
        <ele>2115.04</ele>
        <time>2015-07-15T06:48:54Z</time>
      </trkpt>
      <trkpt lat="46.528500393033028" lon="12.223806409165263">
        <ele>2116.48</ele>
        <time>2015-07-15T06:49:06Z</time>
      </trkpt>
      <trkpt lat="46.528487233445048" lon="12.223830549046397">
        <ele>2116.48</ele>
        <time>2015-07-15T06:49:22Z</time>
      </trkpt>
      <trkpt lat="46.528516234830022" lon="12.223793249577284">
        <ele>2116.96</ele>
        <time>2015-07-15T06:49:31Z</time>
      </trkpt>
      <trkpt lat="46.528556132689118" lon="12.223769696429372">
        <ele>2118.8800000000001</ele>
        <time>2015-07-15T06:49:45Z</time>
      </trkpt>
      <trkpt lat="46.528584212064743" lon="12.223717560991645">
        <ele>2120.8099999999999</ele>
        <time>2015-07-15T06:49:54Z</time>
      </trkpt>
      <trkpt lat="46.52860458008945" lon="12.223722087219357">
        <ele>2122.73</ele>
        <time>2015-07-15T06:50:07Z</time>
      </trkpt>
      <trkpt lat="46.528568873181939" lon="12.22366257570684">
        <ele>2125.1300000000001</ele>
        <time>2015-07-15T06:50:18Z</time>
      </trkpt>
      <trkpt lat="46.528618494048715" lon="12.223604824393988">
        <ele>2127.5300000000002</ele>
        <time>2015-07-15T06:50:31Z</time>
      </trkpt>
      <trkpt lat="46.528666270896792" lon="12.223596191033721">
        <ele>2128.98</ele>
        <time>2015-07-15T06:50:41Z</time>
      </trkpt>
      <trkpt lat="46.528675742447376" lon="12.223597280681133">
        <ele>2130.9000000000001</ele>
        <time>2015-07-15T06:50:42Z</time>
      </trkpt>
      <trkpt lat="46.528705414384604" lon="12.22356241196394">
        <ele>2131.3800000000001</ele>
        <time>2015-07-15T06:50:53Z</time>
      </trkpt>
      <trkpt lat="46.528743300586939" lon="12.223547408357263">
        <ele>2133.3000000000002</ele>
        <time>2015-07-15T06:51:03Z</time>
      </trkpt>
      <trkpt lat="46.528810523450375" lon="12.223578756675124">
        <ele>2134.7399999999998</ele>
        <time>2015-07-15T06:51:16Z</time>
      </trkpt>
      <trkpt lat="46.528857629746199" lon="12.223600717261434">
        <ele>2135.71</ele>
        <time>2015-07-15T06:51:28Z</time>
      </trkpt>
      <trkpt lat="46.528928959742188" lon="12.223630221560597">
        <ele>2138.1100000000001</ele>
        <time>2015-07-15T06:51:41Z</time>
      </trkpt>
      <trkpt lat="46.528990231454372" lon="12.223640196025372">
        <ele>2140.0300000000002</ele>
        <time>2015-07-15T06:51:55Z</time>
      </trkpt>
      <trkpt lat="46.529029542580247" lon="12.223610691726208">
        <ele>2141.9499999999998</ele>
        <time>2015-07-15T06:52:09Z</time>
      </trkpt>
      <trkpt lat="46.529036667197943" lon="12.223506588488817">
        <ele>2143.8800000000001</ele>
        <time>2015-07-15T06:52:19Z</time>
      </trkpt>
      <trkpt lat="46.529106656089425" lon="12.223444143310189">
        <ele>2145.3200000000002</ele>
        <time>2015-07-15T06:52:29Z</time>
      </trkpt>
      <trkpt lat="46.529144207015634" lon="12.223567357286811">
        <ele>2147.7199999999998</ele>
        <time>2015-07-15T06:52:42Z</time>
      </trkpt>
      <trkpt lat="46.529192067682743" lon="12.223623264580965">
        <ele>2149.1599999999999</ele>
        <time>2015-07-15T06:52:55Z</time>
      </trkpt>
      <trkpt lat="46.529205394908786" lon="12.223629551008344">
        <ele>2150.6100000000001</ele>
        <time>2015-07-15T06:53:02Z</time>
      </trkpt>
      <trkpt lat="46.529237665235996" lon="12.223669281229377">
        <ele>2149.6500000000001</ele>
        <time>2015-07-15T06:53:11Z</time>
      </trkpt>
      <trkpt lat="46.529249651357532" lon="12.223687469959259">
        <ele>2149.6500000000001</ele>
        <time>2015-07-15T06:53:37Z</time>
      </trkpt>
      <trkpt lat="46.529244873672724" lon="12.223700881004333">
        <ele>2150.1300000000001</ele>
        <time>2015-07-15T06:53:50Z</time>
      </trkpt>
      <trkpt lat="46.529261721298099" lon="12.223713789135218">
        <ele>2151.0900000000001</ele>
        <time>2015-07-15T06:53:58Z</time>
      </trkpt>
      <trkpt lat="46.529323495924473" lon="12.223716219887137">
        <ele>2153.0100000000002</ele>
        <time>2015-07-15T06:54:10Z</time>
      </trkpt>
      <trkpt lat="46.529376469552517" lon="12.223712950944901">
        <ele>2154.9299999999998</ele>
        <time>2015-07-15T06:54:20Z</time>
      </trkpt>
      <trkpt lat="46.529454253613949" lon="12.223715633153915">
        <ele>2157.8200000000002</ele>
        <time>2015-07-15T06:54:34Z</time>
      </trkpt>
      <trkpt lat="46.529514603316784" lon="12.223675735294819">
        <ele>2160.2199999999998</ele>
        <time>2015-07-15T06:54:47Z</time>
      </trkpt>
      <trkpt lat="46.529571264982224" lon="12.223663832992315">
        <ele>2162.1399999999999</ele>
        <time>2015-07-15T06:54:59Z</time>
      </trkpt>
      <trkpt lat="46.52963362634182" lon="12.22365184687078">
        <ele>2164.5500000000002</ele>
        <time>2015-07-15T06:55:12Z</time>
      </trkpt>
      <trkpt lat="46.529671931639314" lon="12.223610607907176">
        <ele>2166.4699999999998</ele>
        <time>2015-07-15T06:55:24Z</time>
      </trkpt>
      <trkpt lat="46.529707303270698" lon="12.223626784980297">
        <ele>2167.4299999999998</ele>
        <time>2015-07-15T06:55:35Z</time>
      </trkpt>
      <trkpt lat="46.529723396524787" lon="12.223608093336225">
        <ele>2167.9099999999999</ele>
        <time>2015-07-15T06:55:56Z</time>
      </trkpt>
      <trkpt lat="46.529721301048994" lon="12.223602309823036">
        <ele>2167.9099999999999</ele>
        <time>2015-07-15T06:56:10Z</time>
      </trkpt>
      <trkpt lat="46.529776034876704" lon="12.223589736968279">
        <ele>2169.8299999999999</ele>
        <time>2015-07-15T06:56:22Z</time>
      </trkpt>
      <trkpt lat="46.529798749834299" lon="12.223572805523872">
        <ele>2170.79</ele>
        <time>2015-07-15T06:56:32Z</time>
      </trkpt>
      <trkpt lat="46.529844263568521" lon="12.223544474691153">
        <ele>2172.2399999999998</ele>
        <time>2015-07-15T06:56:42Z</time>
      </trkpt>
      <trkpt lat="46.529895393177867" lon="12.223506420850754">
        <ele>2174.6399999999999</ele>
        <time>2015-07-15T06:56:54Z</time>
      </trkpt>
      <trkpt lat="46.529957419261336" lon="12.223495356738567">
        <ele>2177.04</ele>
        <time>2015-07-15T06:57:07Z</time>
      </trkpt>
      <trkpt lat="46.53002162463963" lon="12.223507510498166">
        <ele>2179.4499999999998</ele>
        <time>2015-07-15T06:57:18Z</time>
      </trkpt>
      <trkpt lat="46.530084908008575" lon="12.223494350910187">
        <ele>2181.3699999999999</ele>
        <time>2015-07-15T06:57:30Z</time>
      </trkpt>
      <trkpt lat="46.530098486691713" lon="12.223499966785312">
        <ele>2181.8499999999999</ele>
        <time>2015-07-15T06:57:41Z</time>
      </trkpt>
      <trkpt lat="46.530121956020594" lon="12.223488735035062">
        <ele>2182.8099999999999</ele>
        <time>2015-07-15T06:57:58Z</time>
      </trkpt>
      <trkpt lat="46.530186915770173" lon="12.223457721993327">
        <ele>2185.21</ele>
        <time>2015-07-15T06:58:12Z</time>
      </trkpt>
      <trkpt lat="46.530239386484027" lon="12.223429474979639">
        <ele>2187.6199999999999</ele>
        <time>2015-07-15T06:58:24Z</time>
      </trkpt>
      <trkpt lat="46.530295796692371" lon="12.223412040621042">
        <ele>2190.02</ele>
        <time>2015-07-15T06:58:36Z</time>
      </trkpt>
      <trkpt lat="46.530361007899046" lon="12.223414722830057">
        <ele>2192.4200000000001</ele>
        <time>2015-07-15T06:58:49Z</time>
      </trkpt>
      <trkpt lat="46.530398558825254" lon="12.223369795829058">
        <ele>2194.8299999999999</ele>
        <time>2015-07-15T06:59:00Z</time>
      </trkpt>
      <trkpt lat="46.530452789738774" lon="12.223358564078808">
        <ele>2196.75</ele>
        <time>2015-07-15T06:59:10Z</time>
      </trkpt>
      <trkpt lat="46.53051758185029" lon="12.223350936546922">
        <ele>2197.71</ele>
        <time>2015-07-15T06:59:21Z</time>
      </trkpt>
      <trkpt lat="46.530574159696698" lon="12.223312128335238">
        <ele>2200.1100000000001</ele>
        <time>2015-07-15T06:59:35Z</time>
      </trkpt>
      <trkpt lat="46.530562005937099" lon="12.223294107243419">
        <ele>2202.04</ele>
        <time>2015-07-15T06:59:48Z</time>
      </trkpt>
      <trkpt lat="46.530539877712727" lon="12.223299974575639">
        <ele>2203</ele>
        <time>2015-07-15T07:00:01Z</time>
      </trkpt>
      <trkpt lat="46.53053174726665" lon="12.2232311591506">
        <ele>2203.96</ele>
        <time>2015-07-15T07:00:15Z</time>
      </trkpt>
      <trkpt lat="46.530562927946448" lon="12.223194949328899">
        <ele>2206.3600000000001</ele>
        <time>2015-07-15T07:00:26Z</time>
      </trkpt>
      <trkpt lat="46.530619421973825" lon="12.223159829154611">
        <ele>2208.29</ele>
        <time>2015-07-15T07:00:39Z</time>
      </trkpt>
      <trkpt lat="46.530678262934089" lon="12.223115488886833">
        <ele>2209.73</ele>
        <time>2015-07-15T07:00:53Z</time>
      </trkpt>
      <trkpt lat="46.530710700899363" lon="12.223084643483162">
        <ele>2211.6500000000001</ele>
        <time>2015-07-15T07:01:04Z</time>
      </trkpt>
      <trkpt lat="46.530737020075321" lon="12.223068466410041">
        <ele>2214.0500000000002</ele>
        <time>2015-07-15T07:01:15Z</time>
      </trkpt>
      <trkpt lat="46.530778259038925" lon="12.223023790866137">
        <ele>2215.98</ele>
        <time>2015-07-15T07:01:25Z</time>
      </trkpt>
      <trkpt lat="46.530816899612546" lon="12.22299856133759">
        <ele>2217.9000000000001</ele>
        <time>2015-07-15T07:01:37Z</time>
      </trkpt>
      <trkpt lat="46.530852355062962" lon="12.222958076745272">
        <ele>2219.8200000000002</ele>
        <time>2015-07-15T07:01:48Z</time>
      </trkpt>
      <trkpt lat="46.530897030606866" lon="12.222938546910882">
        <ele>2221.7399999999998</ele>
        <time>2015-07-15T07:01:59Z</time>
      </trkpt>
      <trkpt lat="46.53096467256546" lon="12.222953969612718">
        <ele>2224.1500000000001</ele>
        <time>2015-07-15T07:02:10Z</time>
      </trkpt>
      <trkpt lat="46.531039606779814" lon="12.222958244383335">
        <ele>2225.5900000000001</ele>
        <time>2015-07-15T07:02:22Z</time>
      </trkpt>
      <trkpt lat="46.531094340607524" lon="12.222911892458797">
        <ele>2227.9899999999998</ele>
        <time>2015-07-15T07:02:36Z</time>
      </trkpt>
      <trkpt lat="46.53116449713707" lon="12.222894206643105">
        <ele>2230.4000000000001</ele>
        <time>2015-07-15T07:02:49Z</time>
      </trkpt>
      <trkpt lat="46.531229624524713" lon="12.222879119217396">
        <ele>2232.8000000000002</ele>
        <time>2015-07-15T07:03:03Z</time>
      </trkpt>
      <trkpt lat="46.531296176835895" lon="12.222865791991353">
        <ele>2235.1999999999998</ele>
        <time>2015-07-15T07:03:18Z</time>
      </trkpt>
      <trkpt lat="46.531365076079965" lon="12.222869228571653">
        <ele>2236.6399999999999</ele>
        <time>2015-07-15T07:03:29Z</time>
      </trkpt>
      <trkpt lat="46.531424168497324" lon="12.222862606868148">
        <ele>2238.5700000000002</ele>
        <time>2015-07-15T07:03:41Z</time>
      </trkpt>
      <trkpt lat="46.531485021114349" lon="12.222874844446778">
        <ele>2240.4899999999998</ele>
        <time>2015-07-15T07:03:52Z</time>
      </trkpt>
      <trkpt lat="46.531533971428871" lon="12.222914071753621">
        <ele>2240.9699999999998</ele>
        <time>2015-07-15T07:04:06Z</time>
      </trkpt>
      <trkpt lat="46.531534641981125" lon="12.222944162786007">
        <ele>2241.4499999999998</ele>
        <time>2015-07-15T07:04:17Z</time>
      </trkpt>
      <trkpt lat="46.53160572052002" lon="12.222951874136925">
        <ele>2242.4099999999999</ele>
        <time>2015-07-15T07:04:29Z</time>
      </trkpt>
      <trkpt lat="46.531694233417511" lon="12.222936451435089">
        <ele>2243.8499999999999</ele>
        <time>2015-07-15T07:04:42Z</time>
      </trkpt>
      <trkpt lat="46.531723402440548" lon="12.222945420071483">
        <ele>2243.8499999999999</ele>
        <time>2015-07-15T07:04:46Z</time>
      </trkpt>
      <trkpt lat="46.531838066875935" lon="12.22294139675796">
        <ele>2245.3000000000002</ele>
        <time>2015-07-15T07:04:59Z</time>
      </trkpt>
      <trkpt lat="46.53193412348628" lon="12.222980037331581">
        <ele>2246.2600000000002</ele>
        <time>2015-07-15T07:05:10Z</time>
      </trkpt>
      <trkpt lat="46.532032527029514" lon="12.222989676520228">
        <ele>2246.2600000000002</ele>
        <time>2015-07-15T07:05:21Z</time>
      </trkpt>
      <trkpt lat="46.532131768763065" lon="12.22302345559001">
        <ele>2247.2199999999998</ele>
        <time>2015-07-15T07:05:32Z</time>
      </trkpt>
      <trkpt lat="46.532233357429504" lon="12.223016750067472">
        <ele>2248.6599999999999</ele>
        <time>2015-07-15T07:05:45Z</time>
      </trkpt>
      <trkpt lat="46.532314075157046" lon="12.223000153899193">
        <ele>2251.0599999999999</ele>
        <time>2015-07-15T07:05:58Z</time>
      </trkpt>
      <trkpt lat="46.53237534686923" lon="12.223003003746271">
        <ele>2252.5100000000002</ele>
        <time>2015-07-15T07:06:09Z</time>
      </trkpt>
      <trkpt lat="46.532430751249194" lon="12.223003087565303">
        <ele>2253.9499999999998</ele>
        <time>2015-07-15T07:06:19Z</time>
      </trkpt>
      <trkpt lat="46.532497722655535" lon="12.222997304052114">
        <ele>2256.8299999999999</ele>
        <time>2015-07-15T07:06:30Z</time>
      </trkpt>
      <trkpt lat="46.53255270794034" lon="12.222961010411382">
        <ele>2258.75</ele>
        <time>2015-07-15T07:06:41Z</time>
      </trkpt>
      <trkpt lat="46.532619846984744" lon="12.22293158993125">
        <ele>2260.1999999999998</ele>
        <time>2015-07-15T07:06:53Z</time>
      </trkpt>
      <trkpt lat="46.53270760551095" lon="12.222912898287177">
        <ele>2263.0799999999999</ele>
        <time>2015-07-15T07:07:06Z</time>
      </trkpt>
      <trkpt lat="46.532801985740662" lon="12.222899738699198">
        <ele>2263.5599999999999</ele>
        <time>2015-07-15T07:07:19Z</time>
      </trkpt>
      <trkpt lat="46.532887313514948" lon="12.222869396209717">
        <ele>2265</ele>
        <time>2015-07-15T07:07:31Z</time>
      </trkpt>
      <trkpt lat="46.532963588833809" lon="12.222848357632756">
        <ele>2266.9299999999998</ele>
        <time>2015-07-15T07:07:44Z</time>
      </trkpt>
      <trkpt lat="46.532984040677547" lon="12.222853051498532">
        <ele>2267.8899999999999</ele>
        <time>2015-07-15T07:07:51Z</time>
      </trkpt>
      <trkpt lat="46.533028213307261" lon="12.222874090075493">
        <ele>2268.8499999999999</ele>
        <time>2015-07-15T07:08:01Z</time>
      </trkpt>
      <trkpt lat="46.533027961850166" lon="12.222885405644774">
        <ele>2267.8899999999999</ele>
        <time>2015-07-15T07:08:11Z</time>
      </trkpt>
      <trkpt lat="46.533029889687896" lon="12.222843831405044">
        <ele>2269.3299999999999</ele>
        <time>2015-07-15T07:08:19Z</time>
      </trkpt>
      <trkpt lat="46.533031733706594" lon="12.222813153639436">
        <ele>2269.3299999999999</ele>
        <time>2015-07-15T07:08:27Z</time>
      </trkpt>
      <trkpt lat="46.533034918829799" lon="12.222826899960637">
        <ele>2270.29</ele>
        <time>2015-07-15T07:08:46Z</time>
      </trkpt>
      <trkpt lat="46.533059561625123" lon="12.222839053720236">
        <ele>2271.25</ele>
        <time>2015-07-15T07:09:06Z</time>
      </trkpt>
      <trkpt lat="46.533046653494239" lon="12.222851291298866">
        <ele>2270.77</ele>
        <time>2015-07-15T07:09:19Z</time>
      </trkpt>
      <trkpt lat="46.533026620745659" lon="12.222819607704878">
        <ele>2270.77</ele>
        <time>2015-07-15T07:09:33Z</time>
      </trkpt>
      <trkpt lat="46.533024357631803" lon="12.222807286307216">
        <ele>2270.29</ele>
        <time>2015-07-15T07:09:53Z</time>
      </trkpt>
      <trkpt lat="46.533033326268196" lon="12.222811812534928">
        <ele>2271.25</ele>
        <time>2015-07-15T07:10:13Z</time>
      </trkpt>
      <trkpt lat="46.533026620745659" lon="12.222835617139935">
        <ele>2270.77</ele>
        <time>2015-07-15T07:10:25Z</time>
      </trkpt>
      <trkpt lat="46.533036762848496" lon="12.222850034013391">
        <ele>2270.77</ele>
        <time>2015-07-15T07:10:41Z</time>
      </trkpt>
      <trkpt lat="46.533034667372704" lon="12.222869731485844">
        <ele>2270.29</ele>
        <time>2015-07-15T07:10:49Z</time>
      </trkpt>
      <trkpt lat="46.53302326798439" lon="12.222864031791687">
        <ele>2270.29</ele>
        <time>2015-07-15T07:11:01Z</time>
      </trkpt>
      <trkpt lat="46.533003654330969" lon="12.222864115610719">
        <ele>2269.8099999999999</ele>
        <time>2015-07-15T07:11:13Z</time>
      </trkpt>
      <trkpt lat="46.533006336539984" lon="12.222867384552956">
        <ele>2269.8099999999999</ele>
        <time>2015-07-15T07:11:27Z</time>
      </trkpt>
      <trkpt lat="46.533006001263857" lon="12.222874760627747">
        <ele>2269.8099999999999</ele>
        <time>2015-07-15T07:11:40Z</time>
      </trkpt>
      <trkpt lat="46.533005917444825" lon="12.222877191379666">
        <ele>2269.8099999999999</ele>
        <time>2015-07-15T07:11:55Z</time>
      </trkpt>
      <trkpt lat="46.53300616890192" lon="12.222901582717896">
        <ele>2269.8099999999999</ele>
        <time>2015-07-15T07:12:08Z</time>
      </trkpt>
      <trkpt lat="46.533020753413439" lon="12.22287735901773">
        <ele>2270.29</ele>
        <time>2015-07-15T07:12:21Z</time>
      </trkpt>
      <trkpt lat="46.533022681251168" lon="12.22285439260304">
        <ele>2270.29</ele>
        <time>2015-07-15T07:12:37Z</time>
      </trkpt>
      <trkpt lat="46.533047994598746" lon="12.22286906093359">
        <ele>2270.77</ele>
        <time>2015-07-15T07:12:55Z</time>
      </trkpt>
      <trkpt lat="46.533051012083888" lon="12.222885321825743">
        <ele>2269.8099999999999</ele>
        <time>2015-07-15T07:13:09Z</time>
      </trkpt>
      <trkpt lat="46.533041037619114" lon="12.222861433401704">
        <ele>2270.77</ele>
        <time>2015-07-15T07:13:29Z</time>
      </trkpt>
      <trkpt lat="46.533022178336978" lon="12.222843244671822">
        <ele>2271.25</ele>
        <time>2015-07-15T07:13:39Z</time>
      </trkpt>
      <trkpt lat="46.533029973506927" lon="12.222866797819734">
        <ele>2271.25</ele>
        <time>2015-07-15T07:13:52Z</time>
      </trkpt>
      <trkpt lat="46.533020669594407" lon="12.222842909395695">
        <ele>2271.25</ele>
        <time>2015-07-15T07:14:05Z</time>
      </trkpt>
      <trkpt lat="46.533037181943655" lon="12.222856404259801">
        <ele>2271.25</ele>
        <time>2015-07-15T07:14:27Z</time>
      </trkpt>
      <trkpt lat="46.533029302954674" lon="12.22286126576364">
        <ele>2271.73</ele>
        <time>2015-07-15T07:14:42Z</time>
      </trkpt>
      <trkpt lat="46.533035337924957" lon="12.222853889688849">
        <ele>2271.25</ele>
        <time>2015-07-15T07:14:58Z</time>
      </trkpt>
      <trkpt lat="46.533031230792403" lon="12.222863947972655">
        <ele>2271.25</ele>
        <time>2015-07-15T07:15:09Z</time>
      </trkpt>
      <trkpt lat="46.5330193284899" lon="12.222859170287848">
        <ele>2271.25</ele>
        <time>2015-07-15T07:15:17Z</time>
      </trkpt>
      <trkpt lat="46.533029470592737" lon="12.222859170287848">
        <ele>2270.77</ele>
        <time>2015-07-15T07:15:24Z</time>
      </trkpt>
      <trkpt lat="46.533022345975041" lon="12.222863277420402">
        <ele>2270.77</ele>
        <time>2015-07-15T07:15:43Z</time>
      </trkpt>
      <trkpt lat="46.53301790356636" lon="12.222863864153624">
        <ele>2271.25</ele>
        <time>2015-07-15T07:16:10Z</time>
      </trkpt>
      <trkpt lat="46.533009186387062" lon="12.222874509170651">
        <ele>2271.25</ele>
        <time>2015-07-15T07:16:30Z</time>
      </trkpt>
      <trkpt lat="46.533021926879883" lon="12.222863277420402">
        <ele>2271.73</ele>
        <time>2015-07-15T07:16:56Z</time>
      </trkpt>
      <trkpt lat="46.533021423965693" lon="12.222866965457797">
        <ele>2271.73</ele>
        <time>2015-07-15T07:17:20Z</time>
      </trkpt>
      <trkpt lat="46.533023351803422" lon="12.222856320440769">
        <ele>2271.73</ele>
        <time>2015-07-15T07:17:47Z</time>
      </trkpt>
      <trkpt lat="46.533022094517946" lon="12.222863780334592">
        <ele>2271.73</ele>
        <time>2015-07-15T07:18:11Z</time>
      </trkpt>
      <trkpt lat="46.53302226215601" lon="12.222872246056795">
        <ele>2271.73</ele>
        <time>2015-07-15T07:18:34Z</time>
      </trkpt>
      <trkpt lat="46.533024106174707" lon="12.222867384552956">
        <ele>2272.21</ele>
        <time>2015-07-15T07:19:01Z</time>
      </trkpt>
      <trkpt lat="46.533021591603756" lon="12.222869899123907">
        <ele>2272.21</ele>
        <time>2015-07-15T07:19:27Z</time>
      </trkpt>
      <trkpt lat="46.533020418137312" lon="12.222873838618398">
        <ele>2272.21</ele>
        <time>2015-07-15T07:19:56Z</time>
      </trkpt>
      <trkpt lat="46.533024022355676" lon="12.222871407866478">
        <ele>2272.6900000000001</ele>
        <time>2015-07-15T07:20:24Z</time>
      </trkpt>
      <trkpt lat="46.533021004870534" lon="12.222875263541937">
        <ele>2272.6900000000001</ele>
        <time>2015-07-15T07:20:53Z</time>
      </trkpt>
      <trkpt lat="46.533029889687896" lon="12.222866965457797">
        <ele>2272.6900000000001</ele>
        <time>2015-07-15T07:21:18Z</time>
      </trkpt>
      <trkpt lat="46.533031733706594" lon="12.222870402038097">
        <ele>2272.6900000000001</ele>
        <time>2015-07-15T07:21:43Z</time>
      </trkpt>
      <trkpt lat="46.533022010698915" lon="12.222853638231754">
        <ele>2273.6599999999999</ele>
        <time>2015-07-15T07:22:12Z</time>
      </trkpt>
      <trkpt lat="46.533030644059181" lon="12.222849279642105">
        <ele>2273.1700000000001</ele>
        <time>2015-07-15T07:22:28Z</time>
      </trkpt>
      <trkpt lat="46.533029638230801" lon="12.222845926880836">
        <ele>2273.1700000000001</ele>
        <time>2015-07-15T07:22:57Z</time>
      </trkpt>
      <trkpt lat="46.533023938536644" lon="12.222846010699868">
        <ele>2273.6599999999999</ele>
        <time>2015-07-15T07:23:17Z</time>
      </trkpt>
      <trkpt lat="46.533024860545993" lon="12.222847519442439">
        <ele>2273.6599999999999</ele>
        <time>2015-07-15T07:23:42Z</time>
      </trkpt>
      <trkpt lat="46.53302569873631" lon="12.222848776727915">
        <ele>2273.6599999999999</ele>
        <time>2015-07-15T07:24:15Z</time>
      </trkpt>
      <trkpt lat="46.533025614917278" lon="12.222845926880836">
        <ele>2274.1399999999999</ele>
        <time>2015-07-15T07:24:47Z</time>
      </trkpt>
      <trkpt lat="46.533029302954674" lon="12.222850788384676">
        <ele>2274.1399999999999</ele>
        <time>2015-07-15T07:25:16Z</time>
      </trkpt>
      <trkpt lat="46.533020669594407" lon="12.222842406481504">
        <ele>2274.1399999999999</ele>
        <time>2015-07-15T07:25:45Z</time>
      </trkpt>
      <trkpt lat="46.533023603260517" lon="12.22284073010087">
        <ele>2274.6199999999999</ele>
        <time>2015-07-15T07:26:11Z</time>
      </trkpt>
      <trkpt lat="46.533027542755008" lon="12.222850620746613">
        <ele>2274.6199999999999</ele>
        <time>2015-07-15T07:26:39Z</time>
      </trkpt>
      <trkpt lat="46.533039612695575" lon="12.222840311005712">
        <ele>2274.6199999999999</ele>
        <time>2015-07-15T07:27:08Z</time>
      </trkpt>
      <trkpt lat="46.53302913531661" lon="12.222845759242773">
        <ele>2274.6199999999999</ele>
        <time>2015-07-15T07:27:42Z</time>
      </trkpt>
      <trkpt lat="46.533025782555342" lon="12.222850704565644">
        <ele>2274.6199999999999</ele>
        <time>2015-07-15T07:28:06Z</time>
      </trkpt>
      <trkpt lat="46.533028297126293" lon="12.222846010699868">
        <ele>2275.0999999999999</ele>
        <time>2015-07-15T07:28:31Z</time>
      </trkpt>
      <trkpt lat="46.533038774505258" lon="12.222839640453458">
        <ele>2275.0999999999999</ele>
        <time>2015-07-15T07:28:54Z</time>
      </trkpt>
      <trkpt lat="46.533036762848496" lon="12.222845759242773">
        <ele>2275.5799999999999</ele>
        <time>2015-07-15T07:29:14Z</time>
      </trkpt>
      <trkpt lat="46.533037601038814" lon="12.222848776727915">
        <ele>2275.0999999999999</ele>
        <time>2015-07-15T07:29:49Z</time>
      </trkpt>
      <trkpt lat="46.533033745363355" lon="12.222853219136596">
        <ele>2275.0999999999999</ele>
        <time>2015-07-15T07:30:08Z</time>
      </trkpt>
      <trkpt lat="46.533021256327629" lon="12.222863947972655">
        <ele>2275.0999999999999</ele>
        <time>2015-07-15T07:30:29Z</time>
      </trkpt>
      <trkpt lat="46.533031901344657" lon="12.22285145893693">
        <ele>2275.0999999999999</ele>
        <time>2015-07-15T07:30:48Z</time>
      </trkpt>
      <trkpt lat="46.533028464764357" lon="12.222834276035428">
        <ele>2276.54</ele>
        <time>2015-07-15T07:30:58Z</time>
      </trkpt>
      <trkpt lat="46.533036008477211" lon="12.222816338762641">
        <ele>2276.0599999999999</ele>
        <time>2015-07-15T07:31:15Z</time>
      </trkpt>
      <trkpt lat="46.53303449973464" lon="12.222821116447449">
        <ele>2276.0599999999999</ele>
        <time>2015-07-15T07:31:28Z</time>
      </trkpt>
      <trkpt lat="46.533041205257177" lon="12.222831258550286">
        <ele>2276.0599999999999</ele>
        <time>2015-07-15T07:31:43Z</time>
      </trkpt>
      <trkpt lat="46.533061321824789" lon="12.222822457551956">
        <ele>2277.5</ele>
        <time>2015-07-15T07:31:56Z</time>
      </trkpt>
      <trkpt lat="46.533088395372033" lon="12.222793037071824">
        <ele>2277.02</ele>
        <time>2015-07-15T07:32:07Z</time>
      </trkpt>
      <trkpt lat="46.533105410635471" lon="12.222821870818734">
        <ele>2276.0599999999999</ele>
        <time>2015-07-15T07:32:17Z</time>
      </trkpt>
      <trkpt lat="46.533108092844486" lon="12.222880963236094">
        <ele>2274.6199999999999</ele>
        <time>2015-07-15T07:32:28Z</time>
      </trkpt>
      <trkpt lat="46.533097866922617" lon="12.222931422293186">
        <ele>2273.1700000000001</ele>
        <time>2015-07-15T07:32:38Z</time>
      </trkpt>
      <trkpt lat="46.533121084794402" lon="12.222875598818064">
        <ele>2272.21</ele>
        <time>2015-07-15T07:32:47Z</time>
      </trkpt>
      <trkpt lat="46.533146146684885" lon="12.222815165296197">
        <ele>2269.8099999999999</ele>
        <time>2015-07-15T07:32:58Z</time>
      </trkpt>
      <trkpt lat="46.533163664862514" lon="12.222797144204378">
        <ele>2268.8499999999999</ele>
        <time>2015-07-15T07:33:08Z</time>
      </trkpt>
      <trkpt lat="46.533164503052831" lon="12.222778955474496">
        <ele>2267.8899999999999</ele>
        <time>2015-07-15T07:33:23Z</time>
      </trkpt>
      <trkpt lat="46.533170118927956" lon="12.222754145041108">
        <ele>2266.9299999999998</ele>
        <time>2015-07-15T07:33:35Z</time>
      </trkpt>
      <trkpt lat="46.533219404518604" lon="12.222758252173662">
        <ele>2265.48</ele>
        <time>2015-07-15T07:33:48Z</time>
      </trkpt>
      <trkpt lat="46.533193504437804" lon="12.222778452560306">
        <ele>2265</ele>
        <time>2015-07-15T07:33:57Z</time>
      </trkpt>
      <trkpt lat="46.533180680125952" lon="12.222784822806716">
        <ele>2265.96</ele>
        <time>2015-07-15T07:34:08Z</time>
      </trkpt>
      <trkpt lat="46.533180009573698" lon="12.222784319892526">
        <ele>2266.4499999999998</ele>
        <time>2015-07-15T07:34:20Z</time>
      </trkpt>
      <trkpt lat="46.533183362334967" lon="12.222784655168653">
        <ele>2266.4499999999998</ele>
        <time>2015-07-15T07:34:34Z</time>
      </trkpt>
      <trkpt lat="46.53318403288722" lon="12.222785744816065">
        <ele>2266.4499999999998</ele>
        <time>2015-07-15T07:34:51Z</time>
      </trkpt>
      <trkpt lat="46.533177578821778" lon="12.222783984616399">
        <ele>2266.4499999999998</ele>
        <time>2015-07-15T07:35:13Z</time>
      </trkpt>
      <trkpt lat="46.533187469467521" lon="12.22280602902174">
        <ele>2265.96</ele>
        <time>2015-07-15T07:35:32Z</time>
      </trkpt>
      <trkpt lat="46.533175315707922" lon="12.222795132547617">
        <ele>2265.96</ele>
        <time>2015-07-15T07:35:50Z</time>
      </trkpt>
      <trkpt lat="46.533184703439474" lon="12.222792450338602">
        <ele>2265.96</ele>
        <time>2015-07-15T07:36:01Z</time>
      </trkpt>
      <trkpt lat="46.533172046765685" lon="12.222786918282509">
        <ele>2265.96</ele>
        <time>2015-07-15T07:36:13Z</time>
      </trkpt>
      <trkpt lat="46.533158468082547" lon="12.22278649918735">
        <ele>2265.96</ele>
        <time>2015-07-15T07:36:28Z</time>
      </trkpt>
      <trkpt lat="46.533195683732629" lon="12.222756491973996">
        <ele>2265.48</ele>
        <time>2015-07-15T07:36:45Z</time>
      </trkpt>
      <trkpt lat="46.533208591863513" lon="12.222781805321574">
        <ele>2265.48</ele>
        <time>2015-07-15T07:36:49Z</time>
      </trkpt>
      <trkpt lat="46.533234408125281" lon="12.222768561914563">
        <ele>2262.1199999999999</ele>
        <time>2015-07-15T07:36:56Z</time>
      </trkpt>
      <trkpt lat="46.533269276842475" lon="12.222802760079503">
        <ele>2259.2399999999998</ele>
        <time>2015-07-15T07:37:08Z</time>
      </trkpt>
      <trkpt lat="46.533300708979368" lon="12.222665045410395">
        <ele>2256.8299999999999</ele>
        <time>2015-07-15T07:37:20Z</time>
      </trkpt>
      <trkpt lat="46.533317137509584" lon="12.222632439807057">
        <ele>2255.8699999999999</ele>
        <time>2015-07-15T07:37:25Z</time>
      </trkpt>
      <trkpt lat="46.533351754769683" lon="12.222733525559306">
        <ele>2254.4299999999998</ele>
        <time>2015-07-15T07:37:32Z</time>
      </trkpt>
      <trkpt lat="46.53340389020741" lon="12.222862355411053">
        <ele>2252.0300000000002</ele>
        <time>2015-07-15T07:37:45Z</time>
      </trkpt>
      <trkpt lat="46.533449236303568" lon="12.222760934382677">
        <ele>2249.6199999999999</ele>
        <time>2015-07-15T07:37:57Z</time>
      </trkpt>
      <trkpt lat="46.533469185233116" lon="12.222689185291529">
        <ele>2248.1799999999998</ele>
        <time>2015-07-15T07:38:07Z</time>
      </trkpt>
      <trkpt lat="46.533480752259493" lon="12.222655573859811">
        <ele>2247.2199999999998</ele>
        <time>2015-07-15T07:38:18Z</time>
      </trkpt>
      <trkpt lat="46.533497013151646" lon="12.222629338502884">
        <ele>2246.2600000000002</ele>
        <time>2015-07-15T07:38:27Z</time>
      </trkpt>
      <trkpt lat="46.53357102535665" lon="12.222665129229426">
        <ele>2243.8499999999999</ele>
        <time>2015-07-15T07:38:38Z</time>
      </trkpt>
      <trkpt lat="46.533605391159654" lon="12.222680971026421">
        <ele>2242.4099999999999</ele>
        <time>2015-07-15T07:38:48Z</time>
      </trkpt>
      <trkpt lat="46.53362131677568" lon="12.222531018778682">
        <ele>2240.9699999999998</ele>
        <time>2015-07-15T07:39:00Z</time>
      </trkpt>
      <trkpt lat="46.533592566847801" lon="12.222414677962661">
        <ele>2240.0100000000002</ele>
        <time>2015-07-15T07:39:11Z</time>
      </trkpt>
      <trkpt lat="46.533546466380358" lon="12.222276125103235">
        <ele>2239.5300000000002</ele>
        <time>2015-07-15T07:39:24Z</time>
      </trkpt>
      <trkpt lat="46.53351872228086" lon="12.222202364355326">
        <ele>2240.0100000000002</ele>
        <time>2015-07-15T07:39:30Z</time>
      </trkpt>
      <trkpt lat="46.533471196889877" lon="12.222083173692226">
        <ele>2240.9699999999998</ele>
        <time>2015-07-15T07:39:42Z</time>
      </trkpt>
      <trkpt lat="46.533406572416425" lon="12.221953002735972">
        <ele>2242.4099999999999</ele>
        <time>2015-07-15T07:39:55Z</time>
      </trkpt>
      <trkpt lat="46.533324597403407" lon="12.221827358007431">
        <ele>2241.4499999999998</ele>
        <time>2015-07-15T07:40:09Z</time>
      </trkpt>
      <trkpt lat="46.533271539956331" lon="12.221755860373378">
        <ele>2241.4499999999998</ele>
        <time>2015-07-15T07:40:20Z</time>
      </trkpt>
      <trkpt lat="46.533270617946982" lon="12.221730966120958">
        <ele>2240.4899999999998</ele>
        <time>2015-07-15T07:40:34Z</time>
      </trkpt>
      <trkpt lat="46.533266343176365" lon="12.221707915887237">
        <ele>2241.9299999999998</ele>
        <time>2015-07-15T07:40:50Z</time>
      </trkpt>
      <trkpt lat="46.533207083120942" lon="12.221672208979726">
        <ele>2242.4099999999999</ele>
        <time>2015-07-15T07:41:05Z</time>
      </trkpt>
      <trkpt lat="46.533166514709592" lon="12.221540194004774">
        <ele>2243.3699999999999</ele>
        <time>2015-07-15T07:41:18Z</time>
      </trkpt>
      <trkpt lat="46.533172884956002" lon="12.221495350822806">
        <ele>2242.8899999999999</ele>
        <time>2015-07-15T07:41:30Z</time>
      </trkpt>
      <trkpt lat="46.533175064250827" lon="12.221488477662206">
        <ele>2242.4099999999999</ele>
        <time>2015-07-15T07:41:43Z</time>
      </trkpt>
      <trkpt lat="46.533165341243148" lon="12.22144715487957">
        <ele>2241.4499999999998</ele>
        <time>2015-07-15T07:41:49Z</time>
      </trkpt>
      <trkpt lat="46.533175483345985" lon="12.22146718762815">
        <ele>2240.9699999999998</ele>
        <time>2015-07-15T07:41:55Z</time>
      </trkpt>
      <trkpt lat="46.533142291009426" lon="12.221351685002446">
        <ele>2241.4499999999998</ele>
        <time>2015-07-15T07:42:04Z</time>
      </trkpt>
      <trkpt lat="46.533139776438475" lon="12.221210449934006">
        <ele>2240.9699999999998</ele>
        <time>2015-07-15T07:42:14Z</time>
      </trkpt>
      <trkpt lat="46.533140614628792" lon="12.221142556518316">
        <ele>2239.5300000000002</ele>
        <time>2015-07-15T07:42:29Z</time>
      </trkpt>
      <trkpt lat="46.533155115321279" lon="12.221111375838518">
        <ele>2239.0500000000002</ele>
        <time>2015-07-15T07:42:42Z</time>
      </trkpt>
      <trkpt lat="46.533154360949993" lon="12.22111732698977">
        <ele>2238.0900000000001</ele>
        <time>2015-07-15T07:42:51Z</time>
      </trkpt>
      <trkpt lat="46.533150756731629" lon="12.221012134104967">
        <ele>2237.1300000000001</ele>
        <time>2015-07-15T07:43:04Z</time>
      </trkpt>
      <trkpt lat="46.533138519152999" lon="12.220920771360397">
        <ele>2234.7199999999998</ele>
        <time>2015-07-15T07:43:11Z</time>
      </trkpt>
      <trkpt lat="46.533140446990728" lon="12.22088229842484">
        <ele>2234.2399999999998</ele>
        <time>2015-07-15T07:43:14Z</time>
      </trkpt>
      <trkpt lat="46.533156624063849" lon="12.220754725858569">
        <ele>2231.8400000000001</ele>
        <time>2015-07-15T07:43:25Z</time>
      </trkpt>
      <trkpt lat="46.533205155283213" lon="12.220655232667923">
        <ele>2229.9200000000001</ele>
        <time>2015-07-15T07:43:36Z</time>
      </trkpt>
      <trkpt lat="46.533209849148989" lon="12.2206443361938">
        <ele>2229.9200000000001</ele>
        <time>2015-07-15T07:43:37Z</time>
      </trkpt>
      <trkpt lat="46.533264331519604" lon="12.220615921542048">
        <ele>2228.9499999999998</ele>
        <time>2015-07-15T07:43:47Z</time>
      </trkpt>
      <trkpt lat="46.533312862738967" lon="12.220609048381448">
        <ele>2227.9899999999998</ele>
        <time>2015-07-15T07:43:58Z</time>
      </trkpt>
      <trkpt lat="46.533357622101903" lon="12.220587087795138">
        <ele>2227.5100000000002</ele>
        <time>2015-07-15T07:44:07Z</time>
      </trkpt>
      <trkpt lat="46.533368267118931" lon="12.220528330653906">
        <ele>2225.5900000000001</ele>
        <time>2015-07-15T07:44:12Z</time>
      </trkpt>
      <trkpt lat="46.533431969583035" lon="12.220365386456251">
        <ele>2223.6700000000001</ele>
        <time>2015-07-15T07:44:25Z</time>
      </trkpt>
      <trkpt lat="46.533445212990046" lon="12.220328422263265">
        <ele>2223.1900000000001</ele>
        <time>2015-07-15T07:44:29Z</time>
      </trkpt>
      <trkpt lat="46.533548310399055" lon="12.220335965976119">
        <ele>2221.2600000000002</ele>
        <time>2015-07-15T07:44:41Z</time>
      </trkpt>
      <trkpt lat="46.533594075590372" lon="12.220341414213181">
        <ele>2220.7800000000002</ele>
        <time>2015-07-15T07:44:45Z</time>
      </trkpt>
      <trkpt lat="46.533647552132607" lon="12.220292715355754">
        <ele>2220.7800000000002</ele>
        <time>2015-07-15T07:44:54Z</time>
      </trkpt>
      <trkpt lat="46.533666579052806" lon="12.220180481672287">
        <ele>2220.7800000000002</ele>
        <time>2015-07-15T07:45:05Z</time>
      </trkpt>
      <trkpt lat="46.533670350909233" lon="12.220110995694995">
        <ele>2220.3000000000002</ele>
        <time>2015-07-15T07:45:17Z</time>
      </trkpt>
      <trkpt lat="46.533648725599051" lon="12.220089035108685">
        <ele>2219.8200000000002</ele>
        <time>2015-07-15T07:45:28Z</time>
      </trkpt>
      <trkpt lat="46.53367999009788" lon="12.220011502504349">
        <ele>2219.3400000000001</ele>
        <time>2015-07-15T07:45:43Z</time>
      </trkpt>
      <trkpt lat="46.533676302060485" lon="12.219968670979142">
        <ele>2218.8600000000001</ele>
        <time>2015-07-15T07:45:48Z</time>
      </trkpt>
      <trkpt lat="46.533685773611069" lon="12.219846462830901">
        <ele>2219.8200000000002</ele>
        <time>2015-07-15T07:46:00Z</time>
      </trkpt>
      <trkpt lat="46.533709662035108" lon="12.219750490039587">
        <ele>2221.2600000000002</ele>
        <time>2015-07-15T07:46:12Z</time>
      </trkpt>
      <trkpt lat="46.533757857978344" lon="12.219731714576483">
        <ele>2222.71</ele>
        <time>2015-07-15T07:46:21Z</time>
      </trkpt>
      <trkpt lat="46.53381778858602" lon="12.21969198435545">
        <ele>2224.1500000000001</ele>
        <time>2015-07-15T07:46:32Z</time>
      </trkpt>
      <trkpt lat="46.533876545727253" lon="12.219674130901694">
        <ele>2225.1100000000001</ele>
        <time>2015-07-15T07:46:41Z</time>
      </trkpt>
      <trkpt lat="46.533946702256799" lon="12.219609590247273">
        <ele>2226.5500000000002</ele>
        <time>2015-07-15T07:46:52Z</time>
      </trkpt>
      <trkpt lat="46.534008979797363" lon="12.219546223059297">
        <ele>2227.5100000000002</ele>
        <time>2015-07-15T07:47:05Z</time>
      </trkpt>
      <trkpt lat="46.534070419147611" lon="12.219524178653955">
        <ele>2228.9499999999998</ele>
        <time>2015-07-15T07:47:15Z</time>
      </trkpt>
      <trkpt lat="46.534090787172318" lon="12.219424517825246">
        <ele>2230.8800000000001</ele>
        <time>2015-07-15T07:47:26Z</time>
      </trkpt>
      <trkpt lat="46.534069078043103" lon="12.219301387667656">
        <ele>2231.8400000000001</ele>
        <time>2015-07-15T07:47:37Z</time>
      </trkpt>
      <trkpt lat="46.534036807715893" lon="12.219153866171837">
        <ele>2232.3200000000002</ele>
        <time>2015-07-15T07:47:50Z</time>
      </trkpt>
      <trkpt lat="46.534039573743939" lon="12.219057641923428">
        <ele>2232.3200000000002</ele>
        <time>2015-07-15T07:47:57Z</time>
      </trkpt>
      <trkpt lat="46.534048290923238" lon="12.219017408788204">
        <ele>2232.3200000000002</ele>
        <time>2015-07-15T07:48:00Z</time>
      </trkpt>
      <trkpt lat="46.534072095528245" lon="12.2188207693398">
        <ele>2232.3200000000002</ele>
        <time>2015-07-15T07:48:12Z</time>
      </trkpt>
      <trkpt lat="46.534099588170648" lon="12.2186429053545">
        <ele>2233.2800000000002</ele>
        <time>2015-07-15T07:48:26Z</time>
      </trkpt>
      <trkpt lat="46.534111322835088" lon="12.218580460175872">
        <ele>2233.7600000000002</ele>
        <time>2015-07-15T07:48:31Z</time>
      </trkpt>
      <trkpt lat="46.534189777448773" lon="12.218472249805927">
        <ele>2234.7199999999998</ele>
        <time>2015-07-15T07:48:44Z</time>
      </trkpt>
      <trkpt lat="46.534250378608704" lon="12.218357836827636">
        <ele>2235.1999999999998</ele>
        <time>2015-07-15T07:48:56Z</time>
      </trkpt>
      <trkpt lat="46.534258928149939" lon="12.218201262876391">
        <ele>2236.1599999999999</ele>
        <time>2015-07-15T07:49:08Z</time>
      </trkpt>
      <trkpt lat="46.534242080524564" lon="12.218030607327819">
        <ele>2236.6399999999999</ele>
        <time>2015-07-15T07:49:21Z</time>
      </trkpt>
      <trkpt lat="46.534269154071808" lon="12.217928934842348">
        <ele>2236.6399999999999</ele>
        <time>2015-07-15T07:49:31Z</time>
      </trkpt>
      <trkpt lat="46.534269908443093" lon="12.217916529625654">
        <ele>2236.6399999999999</ele>
        <time>2015-07-15T07:49:32Z</time>
      </trkpt>
      <trkpt lat="46.534282146021724" lon="12.217762721702456">
        <ele>2237.6100000000001</ele>
        <time>2015-07-15T07:49:45Z</time>
      </trkpt>
      <trkpt lat="46.534294970333576" lon="12.21773749217391">
        <ele>2238.0900000000001</ele>
        <time>2015-07-15T07:49:47Z</time>
      </trkpt>
      <trkpt lat="46.534308297559619" lon="12.217640513554215">
        <ele>2239.0500000000002</ele>
        <time>2015-07-15T07:49:59Z</time>
      </trkpt>
      <trkpt lat="46.534312823787332" lon="12.217613523826003">
        <ele>2239.5300000000002</ele>
        <time>2015-07-15T07:50:01Z</time>
      </trkpt>
      <trkpt lat="46.534414999186993" lon="12.217541355639696">
        <ele>2238.5700000000002</ele>
        <time>2015-07-15T07:50:11Z</time>
      </trkpt>
      <trkpt lat="46.53445883654058" lon="12.217524340376258">
        <ele>2238.5700000000002</ele>
        <time>2015-07-15T07:50:15Z</time>
      </trkpt>
      <trkpt lat="46.534602837637067" lon="12.217585779726505">
        <ele>2239.5300000000002</ele>
        <time>2015-07-15T07:50:27Z</time>
      </trkpt>
      <trkpt lat="46.534641813486814" lon="12.217595335096121">
        <ele>2240.0100000000002</ele>
        <time>2015-07-15T07:50:30Z</time>
      </trkpt>
      <trkpt lat="46.534756645560265" lon="12.217527609318495">
        <ele>2241.4499999999998</ele>
        <time>2015-07-15T07:50:42Z</time>
      </trkpt>
      <trkpt lat="46.534799979999661" lon="12.217490812763572">
        <ele>2241.4499999999998</ele>
        <time>2015-07-15T07:50:47Z</time>
      </trkpt>
      <trkpt lat="46.534874914214015" lon="12.217486454173923">
        <ele>2243.3699999999999</ele>
        <time>2015-07-15T07:50:55Z</time>
      </trkpt>
      <trkpt lat="46.534930234774947" lon="12.217468013986945">
        <ele>2243.8499999999999</ele>
        <time>2015-07-15T07:51:02Z</time>
      </trkpt>
      <trkpt lat="46.535040624439716" lon="12.217412190511823">
        <ele>2245.3000000000002</ele>
        <time>2015-07-15T07:51:14Z</time>
      </trkpt>
      <trkpt lat="46.535088568925858" lon="12.217357791960239">
        <ele>2245.7800000000002</ele>
        <time>2015-07-15T07:51:26Z</time>
      </trkpt>
      <trkpt lat="46.53520742431283" lon="12.217291994020343">
        <ele>2246.7399999999998</ele>
        <time>2015-07-15T07:51:38Z</time>
      </trkpt>
      <trkpt lat="46.535299625247717" lon="12.217163080349565">
        <ele>2247.6999999999998</ele>
        <time>2015-07-15T07:51:50Z</time>
      </trkpt>
      <trkpt lat="46.535330638289452" lon="12.217115974053741">
        <ele>2248.1799999999998</ele>
        <time>2015-07-15T07:51:54Z</time>
      </trkpt>
      <trkpt lat="46.535337762907147" lon="12.216963842511177">
        <ele>2249.6199999999999</ele>
        <time>2015-07-15T07:52:06Z</time>
      </trkpt>
      <trkpt lat="46.535339606925845" lon="12.216926375404">
        <ele>2250.0999999999999</ele>
        <time>2015-07-15T07:52:09Z</time>
      </trkpt>
      <trkpt lat="46.535339774563909" lon="12.216901481151581">
        <ele>2250.0999999999999</ele>
        <time>2015-07-15T07:52:11Z</time>
      </trkpt>
      <trkpt lat="46.535362573340535" lon="12.216714480891824">
        <ele>2251.0599999999999</ele>
        <time>2015-07-15T07:52:24Z</time>
      </trkpt>
      <trkpt lat="46.535420576110482" lon="12.216590764001012">
        <ele>2250.5799999999999</ele>
        <time>2015-07-15T07:52:33Z</time>
      </trkpt>
      <trkpt lat="46.535491487011313" lon="12.216381970793009">
        <ele>2249.6199999999999</ele>
        <time>2015-07-15T07:52:46Z</time>
      </trkpt>
      <trkpt lat="46.535574467852712" lon="12.216222295537591">
        <ele>2249.1399999999999</ele>
        <time>2015-07-15T07:52:56Z</time>
      </trkpt>
      <trkpt lat="46.535681923851371" lon="12.216162700206041">
        <ele>2249.6199999999999</ele>
        <time>2015-07-15T07:53:06Z</time>
      </trkpt>
      <trkpt lat="46.535764234140515" lon="12.216055244207382">
        <ele>2250.0999999999999</ele>
        <time>2015-07-15T07:53:16Z</time>
      </trkpt>
      <trkpt lat="46.535786194726825" lon="12.215955499559641">
        <ele>2250.0999999999999</ele>
        <time>2015-07-15T07:53:23Z</time>
      </trkpt>
      <trkpt lat="46.535814693197608" lon="12.215921804308891">
        <ele>2250.5799999999999</ele>
        <time>2015-07-15T07:53:27Z</time>
      </trkpt>
      <trkpt lat="46.535791559144855" lon="12.215776797384024">
        <ele>2251.0599999999999</ele>
        <time>2015-07-15T07:53:37Z</time>
      </trkpt>
      <trkpt lat="46.535823158919811" lon="12.215652409940958">
        <ele>2252.5100000000002</ele>
        <time>2015-07-15T07:53:47Z</time>
      </trkpt>
      <trkpt lat="46.535827601328492" lon="12.21564419567585">
        <ele>2252.5100000000002</ele>
        <time>2015-07-15T07:53:48Z</time>
      </trkpt>
      <trkpt lat="46.535872612148523" lon="12.215548390522599">
        <ele>2254.9099999999999</ele>
        <time>2015-07-15T07:53:59Z</time>
      </trkpt>
      <trkpt lat="46.535886861383915" lon="12.215449986979365">
        <ele>2256.8299999999999</ele>
        <time>2015-07-15T07:54:11Z</time>
      </trkpt>
      <trkpt lat="46.535883340984583" lon="12.215373208746314">
        <ele>2258.27</ele>
        <time>2015-07-15T07:54:23Z</time>
      </trkpt>
      <trkpt lat="46.535899350419641" lon="12.215319816023111">
        <ele>2259.2399999999998</ele>
        <time>2015-07-15T07:54:33Z</time>
      </trkpt>
      <trkpt lat="46.535919299349189" lon="12.215261310338974">
        <ele>2261.1599999999999</ele>
        <time>2015-07-15T07:54:44Z</time>
      </trkpt>
      <trkpt lat="46.535960119217634" lon="12.215212443843484">
        <ele>2262.5999999999999</ele>
        <time>2015-07-15T07:54:55Z</time>
      </trkpt>
      <trkpt lat="46.53595601208508" lon="12.215169025585055">
        <ele>2263.5599999999999</ele>
        <time>2015-07-15T07:55:06Z</time>
      </trkpt>
      <trkpt lat="46.535974284633994" lon="12.215112531557679">
        <ele>2265.48</ele>
        <time>2015-07-15T07:55:19Z</time>
      </trkpt>
      <trkpt lat="46.535968668758869" lon="12.215082943439484">
        <ele>2266.9299999999998</ele>
        <time>2015-07-15T07:55:31Z</time>
      </trkpt>
      <trkpt lat="46.53597604483366" lon="12.215008260682225">
        <ele>2268.3699999999999</ele>
        <time>2015-07-15T07:55:41Z</time>
      </trkpt>
      <trkpt lat="46.535975458100438" lon="12.214951431378722">
        <ele>2269.8099999999999</ele>
        <time>2015-07-15T07:55:52Z</time>
      </trkpt>
      <trkpt lat="46.535963974893093" lon="12.214884040877223">
        <ele>2271.25</ele>
        <time>2015-07-15T07:56:01Z</time>
      </trkpt>
      <trkpt lat="46.535912593826652" lon="12.214827882125974">
        <ele>2272.6900000000001</ele>
        <time>2015-07-15T07:56:14Z</time>
      </trkpt>
      <trkpt lat="46.535877892747521" lon="12.214781446382403">
        <ele>2273.1700000000001</ele>
        <time>2015-07-15T07:56:25Z</time>
      </trkpt>
      <trkpt lat="46.535853501409292" lon="12.214675834402442">
        <ele>2274.6199999999999</ele>
        <time>2015-07-15T07:56:36Z</time>
      </trkpt>
      <trkpt lat="46.535829780623317" lon="12.214590841904283">
        <ele>2276.54</ele>
        <time>2015-07-15T07:56:46Z</time>
      </trkpt>
      <trkpt lat="46.535785775631666" lon="12.214524038136005">
        <ele>2277.98</ele>
        <time>2015-07-15T07:56:57Z</time>
      </trkpt>
      <trkpt lat="46.535756355151534" lon="12.214440051466227">
        <ele>2279.9000000000001</ele>
        <time>2015-07-15T07:57:11Z</time>
      </trkpt>
      <trkpt lat="46.535786362364888" lon="12.214414486661553">
        <ele>2281.3499999999999</ele>
        <time>2015-07-15T07:57:22Z</time>
      </trkpt>
      <trkpt lat="46.535878228023648" lon="12.214489504694939">
        <ele>2282.79</ele>
        <time>2015-07-15T07:57:36Z</time>
      </trkpt>
      <trkpt lat="46.535927094519138" lon="12.214550692588091">
        <ele>2283.27</ele>
        <time>2015-07-15T07:57:47Z</time>
      </trkpt>
      <trkpt lat="46.535969758406281" lon="12.21459704451263">
        <ele>2285.6700000000001</ele>
        <time>2015-07-15T07:57:59Z</time>
      </trkpt>
      <trkpt lat="46.536015020683408" lon="12.214603163301945">
        <ele>2286.1500000000001</ele>
        <time>2015-07-15T07:58:09Z</time>
      </trkpt>
      <trkpt lat="46.536045279353857" lon="12.214583046734333">
        <ele>2287.5900000000001</ele>
        <time>2015-07-15T07:58:22Z</time>
      </trkpt>
      <trkpt lat="46.536098420619965" lon="12.214588411152363">
        <ele>2290</ele>
        <time>2015-07-15T07:58:33Z</time>
      </trkpt>
      <trkpt lat="46.536146029829979" lon="12.214608527719975">
        <ele>2291.4400000000001</ele>
        <time>2015-07-15T07:58:44Z</time>
      </trkpt>
      <trkpt lat="46.536222388967872" lon="12.214651694521308">
        <ele>2293.3600000000001</ele>
        <time>2015-07-15T07:58:56Z</time>
      </trkpt>
      <trkpt lat="46.536296317353845" lon="12.214678265154362">
        <ele>2294.8000000000002</ele>
        <time>2015-07-15T07:59:07Z</time>
      </trkpt>
      <trkpt lat="46.536353901028633" lon="12.214715480804443">
        <ele>2296.73</ele>
        <time>2015-07-15T07:59:21Z</time>
      </trkpt>
      <trkpt lat="46.536385919898748" lon="12.214722018688917">
        <ele>2298.1700000000001</ele>
        <time>2015-07-15T07:59:32Z</time>
      </trkpt>
      <trkpt lat="46.536431852728128" lon="12.214716151356697">
        <ele>2299.6100000000001</ele>
        <time>2015-07-15T07:59:43Z</time>
      </trkpt>
      <trkpt lat="46.536486502736807" lon="12.214716486632824">
        <ele>2301.5300000000002</ele>
        <time>2015-07-15T07:59:54Z</time>
      </trkpt>
      <trkpt lat="46.536564789712429" lon="12.214751271530986">
        <ele>2303.9400000000001</ele>
        <time>2015-07-15T08:00:08Z</time>
      </trkpt>
      <trkpt lat="46.536602340638638" lon="12.214768873527646">
        <ele>2305.8600000000001</ele>
        <time>2015-07-15T08:00:18Z</time>
      </trkpt>
      <trkpt lat="46.536621116101742" lon="12.214845148846507">
        <ele>2307.7800000000002</ele>
        <time>2015-07-15T08:00:28Z</time>
      </trkpt>
      <trkpt lat="46.536660762503743" lon="12.214882951229811">
        <ele>2309.2199999999998</ele>
        <time>2015-07-15T08:00:38Z</time>
      </trkpt>
      <trkpt lat="46.53669630177319" lon="12.214799802750349">
        <ele>2311.6300000000001</ele>
        <time>2015-07-15T08:00:50Z</time>
      </trkpt>
      <trkpt lat="46.536704432219267" lon="12.214751103892922">
        <ele>2311.6300000000001</ele>
        <time>2015-07-15T08:00:58Z</time>
      </trkpt>
      <trkpt lat="46.536720441654325" lon="12.214630572125316">
        <ele>2312.5900000000001</ele>
        <time>2015-07-15T08:01:10Z</time>
      </trkpt>
      <trkpt lat="46.53671876527369" lon="12.214633673429489">
        <ele>2312.5900000000001</ele>
        <time>2015-07-15T08:01:20Z</time>
      </trkpt>
      <trkpt lat="46.53671633452177" lon="12.214616071432829">
        <ele>2313.0700000000002</ele>
        <time>2015-07-15T08:01:36Z</time>
      </trkpt>
      <trkpt lat="46.53670166619122" lon="12.214587740600109">
        <ele>2312.1100000000001</ele>
        <time>2015-07-15T08:01:47Z</time>
      </trkpt>
      <trkpt lat="46.536704767495394" lon="12.214580867439508">
        <ele>2312.5900000000001</ele>
        <time>2015-07-15T08:02:02Z</time>
      </trkpt>
      <trkpt lat="46.536696804687381" lon="12.214560583233833">
        <ele>2313.5500000000002</ele>
        <time>2015-07-15T08:02:23Z</time>
      </trkpt>
      <trkpt lat="46.536682136356831" lon="12.21459704451263">
        <ele>2313.5500000000002</ele>
        <time>2015-07-15T08:02:36Z</time>
      </trkpt>
      <trkpt lat="46.536670988425612" lon="12.2145467530936">
        <ele>2314.0300000000002</ele>
        <time>2015-07-15T08:02:46Z</time>
      </trkpt>
      <trkpt lat="46.536662690341473" lon="12.214523702859879">
        <ele>2314.9899999999998</ele>
        <time>2015-07-15T08:02:57Z</time>
      </trkpt>
      <trkpt lat="46.536645591259003" lon="12.214537365362048">
        <ele>2314.9899999999998</ele>
        <time>2015-07-15T08:03:10Z</time>
      </trkpt>
      <trkpt lat="46.536648022010922" lon="12.214522277936339">
        <ele>2314.9899999999998</ele>
        <time>2015-07-15T08:03:24Z</time>
      </trkpt>
      <trkpt lat="46.536656655371189" lon="12.214511884376407">
        <ele>2314.9899999999998</ele>
        <time>2015-07-15T08:03:37Z</time>
      </trkpt>
      <trkpt lat="46.536659672856331" lon="12.21450082026422">
        <ele>2314.5100000000002</ele>
        <time>2015-07-15T08:03:55Z</time>
      </trkpt>
      <trkpt lat="46.536654308438301" lon="12.21448564901948">
        <ele>2315.4699999999998</ele>
        <time>2015-07-15T08:04:18Z</time>
      </trkpt>
      <trkpt lat="46.536661516875029" lon="12.214492773637176">
        <ele>2315.4699999999998</ele>
        <time>2015-07-15T08:04:27Z</time>
      </trkpt>
      <trkpt lat="46.536680879071355" lon="12.214494869112968">
        <ele>2315.4699999999998</ele>
        <time>2015-07-15T08:04:45Z</time>
      </trkpt>
      <trkpt lat="46.536682136356831" lon="12.214498640969396">
        <ele>2315.4699999999998</ele>
        <time>2015-07-15T08:04:57Z</time>
      </trkpt>
      <trkpt lat="46.536666210740805" lon="12.214516410604119">
        <ele>2315.9499999999998</ele>
        <time>2015-07-15T08:05:14Z</time>
      </trkpt>
      <trkpt lat="46.536652883514762" lon="12.214512219652534">
        <ele>2315.9499999999998</ele>
        <time>2015-07-15T08:05:31Z</time>
      </trkpt>
      <trkpt lat="46.536655481904745" lon="12.214483385905623">
        <ele>2315.9499999999998</ele>
        <time>2015-07-15T08:05:42Z</time>
      </trkpt>
      <trkpt lat="46.536642741411924" lon="12.214487073943019">
        <ele>2315.9499999999998</ele>
        <time>2015-07-15T08:06:05Z</time>
      </trkpt>
      <trkpt lat="46.536661852151155" lon="12.21457508392632">
        <ele>2314.9899999999998</ele>
        <time>2015-07-15T08:06:18Z</time>
      </trkpt>
      <trkpt lat="46.536661516875029" lon="12.214590758085251">
        <ele>2313.5500000000002</ele>
        <time>2015-07-15T08:06:27Z</time>
      </trkpt>
      <trkpt lat="46.536675598472357" lon="12.21455404534936">
        <ele>2313.5500000000002</ele>
        <time>2015-07-15T08:06:41Z</time>
      </trkpt>
      <trkpt lat="46.536645255982876" lon="12.214507106691599">
        <ele>2315.4699999999998</ele>
        <time>2015-07-15T08:06:49Z</time>
      </trkpt>
      <trkpt lat="46.536596305668354" lon="12.214466705918312">
        <ele>2317.4000000000001</ele>
        <time>2015-07-15T08:07:02Z</time>
      </trkpt>
      <trkpt lat="46.536551462486386" lon="12.214440889656544">
        <ele>2319.3200000000002</ele>
        <time>2015-07-15T08:07:10Z</time>
      </trkpt>
      <trkpt lat="46.536512654274702" lon="12.214379869401455">
        <ele>2320.7600000000002</ele>
        <time>2015-07-15T08:07:20Z</time>
      </trkpt>
      <trkpt lat="46.536461021751165" lon="12.214310467243195">
        <ele>2322.1999999999998</ele>
        <time>2015-07-15T08:07:33Z</time>
      </trkpt>
      <trkpt lat="46.536422213539481" lon="12.214222121983767">
        <ele>2324.6100000000001</ele>
        <time>2015-07-15T08:07:46Z</time>
      </trkpt>
      <trkpt lat="46.536360019817948" lon="12.214134112000465">
        <ele>2326.5300000000002</ele>
        <time>2015-07-15T08:08:01Z</time>
      </trkpt>
      <trkpt lat="46.536304196342826" lon="12.214063117280602">
        <ele>2328.9299999999998</ele>
        <time>2015-07-15T08:08:15Z</time>
      </trkpt>
      <trkpt lat="46.536259185522795" lon="12.213983321562409">
        <ele>2330.8499999999999</ele>
        <time>2015-07-15T08:08:28Z</time>
      </trkpt>
      <trkpt lat="46.536218784749508" lon="12.213916182518005">
        <ele>2332.3000000000002</ele>
        <time>2015-07-15T08:08:41Z</time>
      </trkpt>
      <trkpt lat="46.536182407289743" lon="12.213856671005487">
        <ele>2334.2199999999998</ele>
        <time>2015-07-15T08:08:53Z</time>
      </trkpt>
      <trkpt lat="46.536125410348177" lon="12.213800009340048">
        <ele>2336.1399999999999</ele>
        <time>2015-07-15T08:09:07Z</time>
      </trkpt>
      <trkpt lat="46.536089368164539" lon="12.213726080954075">
        <ele>2336.6199999999999</ele>
        <time>2015-07-15T08:09:19Z</time>
      </trkpt>
      <trkpt lat="46.536112502217293" lon="12.213686183094978">
        <ele>2339.5100000000002</ele>
        <time>2015-07-15T08:09:31Z</time>
      </trkpt>
      <trkpt lat="46.536203194409609" lon="12.213728595525026">
        <ele>2341.4299999999998</ele>
        <time>2015-07-15T08:09:46Z</time>
      </trkpt>
      <trkpt lat="46.536287432536483" lon="12.213766733184457">
        <ele>2342.3899999999999</ele>
        <time>2015-07-15T08:09:58Z</time>
      </trkpt>
      <trkpt lat="46.536326995119452" lon="12.213788945227861">
        <ele>2343.3499999999999</ele>
        <time>2015-07-15T08:10:08Z</time>
      </trkpt>
      <trkpt lat="46.536339065060019" lon="12.213786095380783">
        <ele>2343.8299999999999</ele>
        <time>2015-07-15T08:10:10Z</time>
      </trkpt>
      <trkpt lat="46.536425817757845" lon="12.213782910257578">
        <ele>2345.27</ele>
        <time>2015-07-15T08:10:22Z</time>
      </trkpt>
      <trkpt lat="46.536503685638309" lon="12.213794225826859">
        <ele>2347.6799999999998</ele>
        <time>2015-07-15T08:10:35Z</time>
      </trkpt>
      <trkpt lat="46.536581553518772" lon="12.213755836710334">
        <ele>2350.0799999999999</ele>
        <time>2015-07-15T08:10:46Z</time>
      </trkpt>
      <trkpt lat="46.536599909886718" lon="12.213659528642893">
        <ele>2352</ele>
        <time>2015-07-15T08:10:58Z</time>
      </trkpt>
      <trkpt lat="46.536607453599572" lon="12.213548133149743">
        <ele>2354.4099999999999</ele>
        <time>2015-07-15T08:11:09Z</time>
      </trkpt>
      <trkpt lat="46.536610219627619" lon="12.213525585830212">
        <ele>2354.8899999999999</ele>
        <time>2015-07-15T08:11:23Z</time>
      </trkpt>
      <trkpt lat="46.5366146620363" lon="12.213520053774118">
        <ele>2354.8899999999999</ele>
        <time>2015-07-15T08:11:37Z</time>
      </trkpt>
      <trkpt lat="46.536625307053328" lon="12.213527681306005">
        <ele>2354.8899999999999</ele>
        <time>2015-07-15T08:11:57Z</time>
      </trkpt>
      <trkpt lat="46.53662396594882" lon="12.21353723667562">
        <ele>2354.8899999999999</ele>
        <time>2015-07-15T08:12:08Z</time>
      </trkpt>
      <trkpt lat="46.536570740863681" lon="12.213532794266939">
        <ele>2354.8899999999999</ele>
        <time>2015-07-15T08:12:18Z</time>
      </trkpt>
      <trkpt lat="46.536568142473698" lon="12.213509324938059">
        <ele>2354.8899999999999</ele>
        <time>2015-07-15T08:12:29Z</time>
      </trkpt>
      <trkpt lat="46.536574428901076" lon="12.213509995490313">
        <ele>2354.8899999999999</ele>
        <time>2015-07-15T08:12:46Z</time>
      </trkpt>
      <trkpt lat="46.53659513220191" lon="12.213513348251581">
        <ele>2354.8899999999999</ele>
        <time>2015-07-15T08:12:56Z</time>
      </trkpt>
      <trkpt lat="46.536574847996235" lon="12.213509576395154">
        <ele>2354.4099999999999</ele>
        <time>2015-07-15T08:13:09Z</time>
      </trkpt>
      <trkpt lat="46.536557245999575" lon="12.213488956913352">
        <ele>2354.4099999999999</ele>
        <time>2015-07-15T08:13:19Z</time>
      </trkpt>
      <trkpt lat="46.536437720060349" lon="12.213423997163773">
        <ele>2356.3299999999999</ele>
        <time>2015-07-15T08:13:34Z</time>
      </trkpt>
      <trkpt lat="46.536370245739818" lon="12.213384183123708">
        <ele>2357.77</ele>
        <time>2015-07-15T08:13:47Z</time>
      </trkpt>
      <trkpt lat="46.536324145272374" lon="12.213349314406514">
        <ele>2358.25</ele>
        <time>2015-07-15T08:13:58Z</time>
      </trkpt>
      <trkpt lat="46.536235883831978" lon="12.213285863399506">
        <ele>2360.6500000000001</ele>
        <time>2015-07-15T08:14:12Z</time>
      </trkpt>
      <trkpt lat="46.53615390881896" lon="12.21321227028966">
        <ele>2361.6199999999999</ele>
        <time>2015-07-15T08:14:24Z</time>
      </trkpt>
      <trkpt lat="46.536077884957194" lon="12.213138090446591">
        <ele>2363.0599999999999</ele>
        <time>2015-07-15T08:14:35Z</time>
      </trkpt>
      <trkpt lat="46.535998592153192" lon="12.213048571720719">
        <ele>2364.98</ele>
        <time>2015-07-15T08:14:48Z</time>
      </trkpt>
      <trkpt lat="46.535917706787586" lon="12.212976068258286">
        <ele>2365.9400000000001</ele>
        <time>2015-07-15T08:15:00Z</time>
      </trkpt>
      <trkpt lat="46.535851489752531" lon="12.212945725768805">
        <ele>2367.8600000000001</ele>
        <time>2015-07-15T08:15:12Z</time>
      </trkpt>
      <trkpt lat="46.535778567194939" lon="12.212874563410878">
        <ele>2368.8299999999999</ele>
        <time>2015-07-15T08:15:23Z</time>
      </trkpt>
      <trkpt lat="46.535755265504122" lon="12.212836090475321">
        <ele>2369.3099999999999</ele>
        <time>2015-07-15T08:15:32Z</time>
      </trkpt>
      <trkpt lat="46.535709165036678" lon="12.212789487093687">
        <ele>2369.79</ele>
        <time>2015-07-15T08:15:41Z</time>
      </trkpt>
      <trkpt lat="46.535665160045028" lon="12.212736262008548">
        <ele>2371.23</ele>
        <time>2015-07-15T08:15:54Z</time>
      </trkpt>
      <trkpt lat="46.535630626603961" lon="12.212701393291354">
        <ele>2373.1500000000001</ele>
        <time>2015-07-15T08:16:06Z</time>
      </trkpt>
      <trkpt lat="46.535597098991275" lon="12.212671721354127">
        <ele>2374.1100000000001</ele>
        <time>2015-07-15T08:16:17Z</time>
      </trkpt>
      <trkpt lat="46.535502886399627" lon="12.212587399408221">
        <ele>2376.04</ele>
        <time>2015-07-15T08:16:29Z</time>
      </trkpt>
      <trkpt lat="46.53543314896524" lon="12.212558230385184">
        <ele>2376.04</ele>
        <time>2015-07-15T08:16:36Z</time>
      </trkpt>
      <trkpt lat="46.535337092354894" lon="12.212525540962815">
        <ele>2377.96</ele>
        <time>2015-07-15T08:16:48Z</time>
      </trkpt>
      <trkpt lat="46.535302307456732" lon="12.212525624781847">
        <ele>2377.96</ele>
        <time>2015-07-15T08:16:58Z</time>
      </trkpt>
      <trkpt lat="46.535300882533193" lon="12.212557559832931">
        <ele>2377.96</ele>
        <time>2015-07-15T08:17:10Z</time>
      </trkpt>
      <trkpt lat="46.535269450396299" lon="12.212528139352798">
        <ele>2378.4400000000001</ele>
        <time>2015-07-15T08:17:17Z</time>
      </trkpt>
      <trkpt lat="46.535178842023015" lon="12.212423533201218">
        <ele>2380.3600000000001</ele>
        <time>2015-07-15T08:17:30Z</time>
      </trkpt>
      <trkpt lat="46.53518253006041" lon="12.212408697232604">
        <ele>2381.3200000000002</ele>
        <time>2015-07-15T08:17:43Z</time>
      </trkpt>
      <trkpt lat="46.53517372906208" lon="12.212390759959817">
        <ele>2381.3200000000002</ele>
        <time>2015-07-15T08:17:54Z</time>
      </trkpt>
      <trkpt lat="46.535149672999978" lon="12.212348515167832">
        <ele>2382.2800000000002</ele>
        <time>2015-07-15T08:18:13Z</time>
      </trkpt>
      <trkpt lat="46.535140788182616" lon="12.212307695299387">
        <ele>2382.7600000000002</ele>
        <time>2015-07-15T08:18:24Z</time>
      </trkpt>
      <trkpt lat="46.535083288326859" lon="12.21224038861692">
        <ele>2383.73</ele>
        <time>2015-07-15T08:18:38Z</time>
      </trkpt>
      <trkpt lat="46.534910788759589" lon="12.212203005328774">
        <ele>2381.8000000000002</ele>
        <time>2015-07-15T08:18:53Z</time>
      </trkpt>
      <trkpt lat="46.534763937816024" lon="12.212201664224267">
        <ele>2379.4000000000001</ele>
        <time>2015-07-15T08:19:08Z</time>
      </trkpt>
      <trkpt lat="46.534648854285479" lon="12.212165202945471">
        <ele>2378.9200000000001</ele>
        <time>2015-07-15T08:19:20Z</time>
      </trkpt>
      <trkpt lat="46.534529328346252" lon="12.212122455239296">
        <ele>2377</ele>
        <time>2015-07-15T08:19:33Z</time>
      </trkpt>
      <trkpt lat="46.53443100862205" lon="12.212106361985207">
        <ele>2377.48</ele>
        <time>2015-07-15T08:19:44Z</time>
      </trkpt>
      <trkpt lat="46.534379376098514" lon="12.212108122184873">
        <ele>2377</ele>
        <time>2015-07-15T08:19:53Z</time>
      </trkpt>
      <trkpt lat="46.534228920936584" lon="12.212067050859332">
        <ele>2376.04</ele>
        <time>2015-07-15T08:20:05Z</time>
      </trkpt>
      <trkpt lat="46.534122386947274" lon="12.212013825774193">
        <ele>2376.52</ele>
        <time>2015-07-15T08:20:16Z</time>
      </trkpt>
      <trkpt lat="46.53406891040504" lon="12.21200242638588">
        <ele>2376.52</ele>
        <time>2015-07-15T08:20:23Z</time>
      </trkpt>
      <trkpt lat="46.533978134393692" lon="12.212002845481038">
        <ele>2375.0700000000002</ele>
        <time>2015-07-15T08:20:33Z</time>
      </trkpt>
      <trkpt lat="46.533949049189687" lon="12.211973927915096">
        <ele>2375.5500000000002</ele>
        <time>2015-07-15T08:20:45Z</time>
      </trkpt>
      <trkpt lat="46.533935386687517" lon="12.21196873113513">
        <ele>2375.5500000000002</ele>
        <time>2015-07-15T08:21:04Z</time>
      </trkpt>
      <trkpt lat="46.533860703930259" lon="12.211970491334796">
        <ele>2375.5500000000002</ele>
        <time>2015-07-15T08:21:14Z</time>
      </trkpt>
      <trkpt lat="46.533794905990362" lon="12.211976023390889">
        <ele>2375.0700000000002</ele>
        <time>2015-07-15T08:21:25Z</time>
      </trkpt>
      <trkpt lat="46.533753499388695" lon="12.211958337575197">
        <ele>2375.5500000000002</ele>
        <time>2015-07-15T08:21:34Z</time>
      </trkpt>
      <trkpt lat="46.533760372549295" lon="12.211954481899738">
        <ele>2375.5500000000002</ele>
        <time>2015-07-15T08:21:39Z</time>
      </trkpt>
      <trkpt lat="46.533784344792366" lon="12.211928833276033">
        <ele>2375.5500000000002</ele>
        <time>2015-07-15T08:21:42Z</time>
      </trkpt>
      <trkpt lat="46.533749308437109" lon="12.211921457201242">
        <ele>2376.04</ele>
        <time>2015-07-15T08:21:50Z</time>
      </trkpt>
      <trkpt lat="46.533747129142284" lon="12.211913410574198">
        <ele>2376.52</ele>
        <time>2015-07-15T08:22:04Z</time>
      </trkpt>
      <trkpt lat="46.533674290403724" lon="12.211936125531793">
        <ele>2378.9200000000001</ele>
        <time>2015-07-15T08:22:13Z</time>
      </trkpt>
      <trkpt lat="46.533646630123258" lon="12.21188080497086">
        <ele>2381.8000000000002</ele>
        <time>2015-07-15T08:22:24Z</time>
      </trkpt>
      <trkpt lat="46.533698681741953" lon="12.211797572672367">
        <ele>2384.21</ele>
        <time>2015-07-15T08:22:35Z</time>
      </trkpt>
      <trkpt lat="46.53369608335197" lon="12.211718698963523">
        <ele>2386.1300000000001</ele>
        <time>2015-07-15T08:22:46Z</time>
      </trkpt>
      <trkpt lat="46.53368535451591" lon="12.211706126108766">
        <ele>2385.6500000000001</ele>
        <time>2015-07-15T08:22:58Z</time>
      </trkpt>
      <trkpt lat="46.533702285960317" lon="12.21182313747704">
        <ele>2386.1300000000001</ele>
        <time>2015-07-15T08:23:11Z</time>
      </trkpt>
      <trkpt lat="46.533718043938279" lon="12.211822383105755">
        <ele>2384.6900000000001</ele>
        <time>2015-07-15T08:23:24Z</time>
      </trkpt>
      <trkpt lat="46.53369122184813" lon="12.211818946525455">
        <ele>2384.21</ele>
        <time>2015-07-15T08:23:50Z</time>
      </trkpt>
      <trkpt lat="46.533721899613738" lon="12.211718112230301">
        <ele>2386.1300000000001</ele>
        <time>2015-07-15T08:24:02Z</time>
      </trkpt>
      <trkpt lat="46.53370195068419" lon="12.211723309010267">
        <ele>2386.1300000000001</ele>
        <time>2015-07-15T08:24:13Z</time>
      </trkpt>
      <trkpt lat="46.533709075301886" lon="12.211732864379883">
        <ele>2386.6100000000001</ele>
        <time>2015-07-15T08:24:31Z</time>
      </trkpt>
      <trkpt lat="46.533699855208397" lon="12.211747616529465">
        <ele>2386.1300000000001</ele>
        <time>2015-07-15T08:24:49Z</time>
      </trkpt>
      <trkpt lat="46.533697759732604" lon="12.211717190220952">
        <ele>2386.6100000000001</ele>
        <time>2015-07-15T08:24:59Z</time>
      </trkpt>
      <trkpt lat="46.533686444163322" lon="12.211756333708763">
        <ele>2386.6100000000001</ele>
        <time>2015-07-15T08:25:15Z</time>
      </trkpt>
      <trkpt lat="46.533672530204058" lon="12.211765721440315">
        <ele>2386.6100000000001</ele>
        <time>2015-07-15T08:25:30Z</time>
      </trkpt>
      <trkpt lat="46.533666076138616" lon="12.211792794987559">
        <ele>2386.1300000000001</ele>
        <time>2015-07-15T08:25:43Z</time>
      </trkpt>
      <trkpt lat="46.533688372001052" lon="12.211782485246658">
        <ele>2386.6100000000001</ele>
        <time>2015-07-15T08:26:01Z</time>
      </trkpt>
      <trkpt lat="46.533677224069834" lon="12.211746275424957">
        <ele>2386.1300000000001</ele>
        <time>2015-07-15T08:26:06Z</time>
      </trkpt>
      <trkpt lat="46.533545963466167" lon="12.211677962914109">
        <ele>2382.7600000000002</ele>
        <time>2015-07-15T08:26:18Z</time>
      </trkpt>
      <trkpt lat="46.533513106405735" lon="12.21168290823698">
        <ele>2381.3200000000002</ele>
        <time>2015-07-15T08:26:22Z</time>
      </trkpt>
      <trkpt lat="46.53343616053462" lon="12.211644602939487">
        <ele>2378.9200000000001</ele>
        <time>2015-07-15T08:26:29Z</time>
      </trkpt>
      <trkpt lat="46.533365333452821" lon="12.211623480543494">
        <ele>2376.04</ele>
        <time>2015-07-15T08:26:35Z</time>
      </trkpt>
      <trkpt lat="46.533274305984378" lon="12.211593138054013">
        <ele>2373.1500000000001</ele>
        <time>2015-07-15T08:26:42Z</time>
      </trkpt>
      <trkpt lat="46.533183697611094" lon="12.211558520793915">
        <ele>2370.27</ele>
        <time>2015-07-15T08:26:53Z</time>
      </trkpt>
      <trkpt lat="46.533091412857175" lon="12.211506385356188">
        <ele>2368.3499999999999</ele>
        <time>2015-07-15T08:27:03Z</time>
      </trkpt>
      <trkpt lat="46.533027291297913" lon="12.21150990575552">
        <ele>2366.4200000000001</ele>
        <time>2015-07-15T08:27:15Z</time>
      </trkpt>
      <trkpt lat="46.532971803098917" lon="12.21144737675786">
        <ele>2367.8600000000001</ele>
        <time>2015-07-15T08:27:26Z</time>
      </trkpt>
      <trkpt lat="46.532963337376714" lon="12.211410999298096">
        <ele>2367.8600000000001</ele>
        <time>2015-07-15T08:27:36Z</time>
      </trkpt>
      <trkpt lat="46.532902233302593" lon="12.211404629051685">
        <ele>2369.79</ele>
        <time>2015-07-15T08:27:47Z</time>
      </trkpt>
      <trkpt lat="46.532829226925969" lon="12.211362384259701">
        <ele>2371.71</ele>
        <time>2015-07-15T08:27:59Z</time>
      </trkpt>
      <trkpt lat="46.532780695706606" lon="12.211317038163543">
        <ele>2372.1900000000001</ele>
        <time>2015-07-15T08:28:11Z</time>
      </trkpt>
      <trkpt lat="46.532748341560364" lon="12.211306979879737">
        <ele>2373.1500000000001</ele>
        <time>2015-07-15T08:28:22Z</time>
      </trkpt>
      <trkpt lat="46.53271104209125" lon="12.211268087849021">
        <ele>2374.5900000000001</ele>
        <time>2015-07-15T08:28:33Z</time>
      </trkpt>
      <trkpt lat="46.532679693773389" lon="12.211215365678072">
        <ele>2374.5900000000001</ele>
        <time>2015-07-15T08:28:43Z</time>
      </trkpt>
      <trkpt lat="46.532622193917632" lon="12.21116641536355">
        <ele>2375.5500000000002</ele>
        <time>2015-07-15T08:28:53Z</time>
      </trkpt>
      <trkpt lat="46.53257810510695" lon="12.211122997105122">
        <ele>2375.5500000000002</ele>
        <time>2015-07-15T08:29:02Z</time>
      </trkpt>
      <trkpt lat="46.532547175884247" lon="12.211096761748195">
        <ele>2375.5500000000002</ele>
        <time>2015-07-15T08:29:11Z</time>
      </trkpt>
      <trkpt lat="46.532522030174732" lon="12.211075723171234">
        <ele>2376.52</ele>
        <time>2015-07-15T08:29:22Z</time>
      </trkpt>
      <trkpt lat="46.532465033233166" lon="12.211075639352202">
        <ele>2377.96</ele>
        <time>2015-07-15T08:29:34Z</time>
      </trkpt>
      <trkpt lat="46.532413065433502" lon="12.211068430915475">
        <ele>2379.4000000000001</ele>
        <time>2015-07-15T08:29:46Z</time>
      </trkpt>
      <trkpt lat="46.532406946644187" lon="12.21102031879127">
        <ele>2379.8800000000001</ele>
        <time>2015-07-15T08:29:55Z</time>
      </trkpt>
      <trkpt lat="46.532386159524322" lon="12.211000202223659">
        <ele>2379.4000000000001</ele>
        <time>2015-07-15T08:30:13Z</time>
      </trkpt>
      <trkpt lat="46.532317260280252" lon="12.21091722138226">
        <ele>2381.3200000000002</ele>
        <time>2015-07-15T08:30:25Z</time>
      </trkpt>
      <trkpt lat="46.532285492867231" lon="12.210854357108474">
        <ele>2382.2800000000002</ele>
        <time>2015-07-15T08:30:31Z</time>
      </trkpt>
      <trkpt lat="46.532257748767734" lon="12.21080482006073">
        <ele>2381.8000000000002</ele>
        <time>2015-07-15T08:30:36Z</time>
      </trkpt>
      <trkpt lat="46.532245092093945" lon="12.21074715256691">
        <ele>2382.2800000000002</ele>
        <time>2015-07-15T08:30:40Z</time>
      </trkpt>
      <trkpt lat="46.532246600836515" lon="12.210649251937866">
        <ele>2382.2800000000002</ele>
        <time>2015-07-15T08:30:50Z</time>
      </trkpt>
      <trkpt lat="46.532239392399788" lon="12.210500473156571">
        <ele>2380.8400000000001</ele>
        <time>2015-07-15T08:31:00Z</time>
      </trkpt>
      <trkpt lat="46.532205110415816" lon="12.21038606017828">
        <ele>2381.3200000000002</ele>
        <time>2015-07-15T08:31:12Z</time>
      </trkpt>
      <trkpt lat="46.532190525904298" lon="12.210299475118518">
        <ele>2382.2800000000002</ele>
        <time>2015-07-15T08:31:22Z</time>
      </trkpt>
      <trkpt lat="46.532195806503296" lon="12.21031716093421">
        <ele>2381.8000000000002</ele>
        <time>2015-07-15T08:31:25Z</time>
      </trkpt>
      <trkpt lat="46.532206451520324" lon="12.210228899493814">
        <ele>2382.2800000000002</ele>
        <time>2015-07-15T08:31:35Z</time>
      </trkpt>
      <trkpt lat="46.532193878665566" lon="12.210145331919193">
        <ele>2382.7600000000002</ele>
        <time>2015-07-15T08:31:49Z</time>
      </trkpt>
      <trkpt lat="46.53220628388226" lon="12.210108116269112">
        <ele>2382.7600000000002</ele>
        <time>2015-07-15T08:31:52Z</time>
      </trkpt>
      <trkpt lat="46.53225121088326" lon="12.20998540520668">
        <ele>2383.25</ele>
        <time>2015-07-15T08:32:03Z</time>
      </trkpt>
      <trkpt lat="46.532280966639519" lon="12.209884654730558">
        <ele>2383.25</ele>
        <time>2015-07-15T08:32:13Z</time>
      </trkpt>
      <trkpt lat="46.532302591949701" lon="12.209872668609023">
        <ele>2383.25</ele>
        <time>2015-07-15T08:32:21Z</time>
      </trkpt>
      <trkpt lat="46.53233184479177" lon="12.20984467305243">
        <ele>2383.25</ele>
        <time>2015-07-15T08:32:38Z</time>
      </trkpt>
      <trkpt lat="46.53237534686923" lon="12.209767894819379">
        <ele>2383.73</ele>
        <time>2015-07-15T08:32:52Z</time>
      </trkpt>
      <trkpt lat="46.532374424859881" lon="12.209675274789333">
        <ele>2384.6900000000001</ele>
        <time>2015-07-15T08:33:05Z</time>
      </trkpt>
      <trkpt lat="46.532376268878579" lon="12.20968147739768">
        <ele>2384.21</ele>
        <time>2015-07-15T08:33:12Z</time>
      </trkpt>
      <trkpt lat="46.532336203381419" lon="12.209533788263798">
        <ele>2384.21</ele>
        <time>2015-07-15T08:33:23Z</time>
      </trkpt>
      <trkpt lat="46.532321954146028" lon="12.209435300901532">
        <ele>2385.1700000000001</ele>
        <time>2015-07-15T08:33:34Z</time>
      </trkpt>
      <trkpt lat="46.532313236966729" lon="12.209437983110547">
        <ele>2385.1700000000001</ele>
        <time>2015-07-15T08:33:53Z</time>
      </trkpt>
      <trkpt lat="46.532317092642188" lon="12.209410658106208">
        <ele>2384.6900000000001</ele>
        <time>2015-07-15T08:34:04Z</time>
      </trkpt>
      <trkpt lat="46.532338298857212" lon="12.209391631186008">
        <ele>2384.21</ele>
        <time>2015-07-15T08:34:16Z</time>
      </trkpt>
      <trkpt lat="46.532308710739017" lon="12.209421973675489">
        <ele>2383.73</ele>
        <time>2015-07-15T08:34:28Z</time>
      </trkpt>
      <trkpt lat="46.532256072387099" lon="12.209489531815052">
        <ele>2382.7600000000002</ele>
        <time>2015-07-15T08:34:46Z</time>
      </trkpt>
      <trkpt lat="46.532231597229838" lon="12.209471091628075">
        <ele>2380.3600000000001</ele>
        <time>2015-07-15T08:34:55Z</time>
      </trkpt>
      <trkpt lat="46.532189352437854" lon="12.209414513781667">
        <ele>2380.3600000000001</ele>
        <time>2015-07-15T08:35:09Z</time>
      </trkpt>
      <trkpt lat="46.532189855352044" lon="12.209401186555624">
        <ele>2378.9200000000001</ele>
        <time>2015-07-15T08:35:21Z</time>
      </trkpt>
      <trkpt lat="46.532186083495617" lon="12.209386099129915">
        <ele>2379.4000000000001</ele>
        <time>2015-07-15T08:35:35Z</time>
      </trkpt>
      <trkpt lat="46.53215984813869" lon="12.209398336708546">
        <ele>2379.4000000000001</ele>
        <time>2015-07-15T08:35:57Z</time>
      </trkpt>
      <trkpt lat="46.532158674672246" lon="12.20940051600337">
        <ele>2379.8800000000001</ele>
        <time>2015-07-15T08:36:19Z</time>
      </trkpt>
      <trkpt lat="46.532158590853214" lon="12.209376040846109">
        <ele>2379.8800000000001</ele>
        <time>2015-07-15T08:36:35Z</time>
      </trkpt>
      <trkpt lat="46.532172840088606" lon="12.20936581492424">
        <ele>2378.9200000000001</ele>
        <time>2015-07-15T08:36:51Z</time>
      </trkpt>
      <trkpt lat="46.532158255577087" lon="12.209357265383005">
        <ele>2377.96</ele>
        <time>2015-07-15T08:37:02Z</time>
      </trkpt>
      <trkpt lat="46.53211735188961" lon="12.209361372515559">
        <ele>2377.48</ele>
        <time>2015-07-15T08:37:15Z</time>
      </trkpt>
      <trkpt lat="46.532088937237859" lon="12.209343519061804">
        <ele>2377</ele>
        <time>2015-07-15T08:37:26Z</time>
      </trkpt>
      <trkpt lat="46.532058846205473" lon="12.209363719448447">
        <ele>2377.48</ele>
        <time>2015-07-15T08:37:40Z</time>
      </trkpt>
      <trkpt lat="46.532058510929346" lon="12.209337316453457">
        <ele>2377.48</ele>
        <time>2015-07-15T08:37:56Z</time>
      </trkpt>
      <trkpt lat="46.532104695215821" lon="12.209342513233423">
        <ele>2378.4400000000001</ele>
        <time>2015-07-15T08:38:05Z</time>
      </trkpt>
      <trkpt lat="46.532126404345036" lon="12.209348380565643">
        <ele>2378.4400000000001</ele>
        <time>2015-07-15T08:38:17Z</time>
      </trkpt>
      <trkpt lat="46.532130930572748" lon="12.209358187392354">
        <ele>2378.4400000000001</ele>
        <time>2015-07-15T08:38:27Z</time>
      </trkpt>
      <trkpt lat="46.532067814841866" lon="12.209374783560634">
        <ele>2377.96</ele>
        <time>2015-07-15T08:38:38Z</time>
      </trkpt>
      <trkpt lat="46.532002687454224" lon="12.209376040846109">
        <ele>2375.5500000000002</ele>
        <time>2015-07-15T08:38:48Z</time>
      </trkpt>
      <trkpt lat="46.531934291124344" lon="12.209344524890184">
        <ele>2373.6300000000001</ele>
        <time>2015-07-15T08:38:59Z</time>
      </trkpt>
      <trkpt lat="46.531917359679937" lon="12.209334969520569">
        <ele>2373.1500000000001</ele>
        <time>2015-07-15T08:39:01Z</time>
      </trkpt>
      <trkpt lat="46.531818872317672" lon="12.209249725565314">
        <ele>2371.23</ele>
        <time>2015-07-15T08:39:11Z</time>
      </trkpt>
      <trkpt lat="46.531727677211165" lon="12.209139000624418">
        <ele>2370.75</ele>
        <time>2015-07-15T08:39:23Z</time>
      </trkpt>
      <trkpt lat="46.531676044687629" lon="12.209062892943621">
        <ele>2371.23</ele>
        <time>2015-07-15T08:39:34Z</time>
      </trkpt>
      <trkpt lat="46.531615611165762" lon="12.208945043385029">
        <ele>2368.3499999999999</ele>
        <time>2015-07-15T08:39:45Z</time>
      </trkpt>
      <trkpt lat="46.531558949500322" lon="12.208835575729609">
        <ele>2366.4200000000001</ele>
        <time>2015-07-15T08:39:56Z</time>
      </trkpt>
      <trkpt lat="46.531528858467937" lon="12.208866337314248">
        <ele>2366.4200000000001</ele>
        <time>2015-07-15T08:40:04Z</time>
      </trkpt>
      <trkpt lat="46.531444955617189" lon="12.208815291523933">
        <ele>2368.3499999999999</ele>
        <time>2015-07-15T08:40:16Z</time>
      </trkpt>
      <trkpt lat="46.531426515430212" lon="12.208790816366673">
        <ele>2369.3099999999999</ele>
        <time>2015-07-15T08:40:26Z</time>
      </trkpt>
      <trkpt lat="46.531446212902665" lon="12.208837000653148">
        <ele>2369.3099999999999</ele>
        <time>2015-07-15T08:40:35Z</time>
      </trkpt>
      <trkpt lat="46.531456606462598" lon="12.208815542981029">
        <ele>2369.3099999999999</ele>
        <time>2015-07-15T08:40:52Z</time>
      </trkpt>
      <trkpt lat="46.531460043042898" lon="12.208824176341295">
        <ele>2369.3099999999999</ele>
        <time>2015-07-15T08:41:08Z</time>
      </trkpt>
      <trkpt lat="46.53146892786026" lon="12.208816129714251">
        <ele>2369.3099999999999</ele>
        <time>2015-07-15T08:41:22Z</time>
      </trkpt>
      <trkpt lat="46.531462473794818" lon="12.208821997046471">
        <ele>2368.8299999999999</ele>
        <time>2015-07-15T08:41:48Z</time>
      </trkpt>
      <trkpt lat="46.531449146568775" lon="12.208836497738957">
        <ele>2368.8299999999999</ele>
        <time>2015-07-15T08:42:06Z</time>
      </trkpt>
      <trkpt lat="46.531461551785469" lon="12.208822080865502">
        <ele>2368.8299999999999</ele>
        <time>2015-07-15T08:42:28Z</time>
      </trkpt>
      <trkpt lat="46.531410505995154" lon="12.208864074200392">
        <ele>2368.8299999999999</ele>
        <time>2015-07-15T08:42:57Z</time>
      </trkpt>
      <trkpt lat="46.531433304771781" lon="12.208848064765334">
        <ele>2368.8299999999999</ele>
        <time>2015-07-15T08:43:18Z</time>
      </trkpt>
      <trkpt lat="46.531425844877958" lon="12.208860386162996">
        <ele>2370.27</ele>
        <time>2015-07-15T08:43:20Z</time>
      </trkpt>
      <trkpt lat="46.531451661139727" lon="12.208839347586036">
        <ele>2368.8299999999999</ele>
        <time>2015-07-15T08:43:39Z</time>
      </trkpt>
      <trkpt lat="46.5313736256212" lon="12.208791906014085">
        <ele>2369.79</ele>
        <time>2015-07-15T08:43:49Z</time>
      </trkpt>
      <trkpt lat="46.53126516379416" lon="12.208682019263506">
        <ele>2369.79</ele>
        <time>2015-07-15T08:44:00Z</time>
      </trkpt>
      <trkpt lat="46.531155612319708" lon="12.208598200231791">
        <ele>2369.3099999999999</ele>
        <time>2015-07-15T08:44:12Z</time>
      </trkpt>
      <trkpt lat="46.531091742217541" lon="12.208581101149321">
        <ele>2369.79</ele>
        <time>2015-07-15T08:44:20Z</time>
      </trkpt>
      <trkpt lat="46.531069194898009" lon="12.208541790023446">
        <ele>2369.3099999999999</ele>
        <time>2015-07-15T08:44:23Z</time>
      </trkpt>
      <trkpt lat="46.530957547947764" lon="12.208487810567021">
        <ele>2366.9000000000001</ele>
        <time>2015-07-15T08:44:34Z</time>
      </trkpt>
      <trkpt lat="46.530929552391171" lon="12.20839636400342">
        <ele>2366.9000000000001</ele>
        <time>2015-07-15T08:44:40Z</time>
      </trkpt>
      <trkpt lat="46.53085813857615" lon="12.208368787541986">
        <ele>2367.8600000000001</ele>
        <time>2015-07-15T08:44:51Z</time>
      </trkpt>
      <trkpt lat="46.530814468860626" lon="12.208335511386395">
        <ele>2368.3499999999999</ele>
        <time>2015-07-15T08:44:55Z</time>
      </trkpt>
      <trkpt lat="46.53074573725462" lon="12.20823316834867">
        <ele>2367.8600000000001</ele>
        <time>2015-07-15T08:45:08Z</time>
      </trkpt>
      <trkpt lat="46.530661918222904" lon="12.20811640843749">
        <ele>2366.4200000000001</ele>
        <time>2015-07-15T08:45:19Z</time>
      </trkpt>
      <trkpt lat="46.530586313456297" lon="12.20798590220511">
        <ele>2364.02</ele>
        <time>2015-07-15T08:45:29Z</time>
      </trkpt>
      <trkpt lat="46.530557898804545" lon="12.207866962999105">
        <ele>2363.54</ele>
        <time>2015-07-15T08:45:42Z</time>
      </trkpt>
      <trkpt lat="46.530551696196198" lon="12.207777025178075">
        <ele>2363.0599999999999</ele>
        <time>2015-07-15T08:45:52Z</time>
      </trkpt>
      <trkpt lat="46.530538788065314" lon="12.207659343257546">
        <ele>2360.6500000000001</ele>
        <time>2015-07-15T08:46:03Z</time>
      </trkpt>
      <trkpt lat="46.530541470274329" lon="12.207574937492609">
        <ele>2359.21</ele>
        <time>2015-07-15T08:46:13Z</time>
      </trkpt>
      <trkpt lat="46.530538452789187" lon="12.207512157037854">
        <ele>2358.25</ele>
        <time>2015-07-15T08:46:22Z</time>
      </trkpt>
      <trkpt lat="46.530525712296367" lon="12.207450214773417">
        <ele>2357.77</ele>
        <time>2015-07-15T08:46:32Z</time>
      </trkpt>
      <trkpt lat="46.530518587678671" lon="12.207372346892953">
        <ele>2355.3699999999999</ele>
        <time>2015-07-15T08:46:42Z</time>
      </trkpt>
      <trkpt lat="46.530518503859639" lon="12.207359690219164">
        <ele>2354.8899999999999</ele>
        <time>2015-07-15T08:46:43Z</time>
      </trkpt>
      <trkpt lat="46.530550606548786" lon="12.207276374101639">
        <ele>2352.96</ele>
        <time>2015-07-15T08:46:53Z</time>
      </trkpt>
      <trkpt lat="46.530523113906384" lon="12.207272183150053">
        <ele>2350.5599999999999</ele>
        <time>2015-07-15T08:47:01Z</time>
      </trkpt>
      <trkpt lat="46.530485479161143" lon="12.207271931692958">
        <ele>2350.5599999999999</ele>
        <time>2015-07-15T08:47:05Z</time>
      </trkpt>
      <trkpt lat="46.530365785583854" lon="12.207186268642545">
        <ele>2349.5999999999999</ele>
        <time>2015-07-15T08:47:15Z</time>
      </trkpt>
      <trkpt lat="46.530334269627929" lon="12.20715768635273">
        <ele>2348.6399999999999</ele>
        <time>2015-07-15T08:47:18Z</time>
      </trkpt>
      <trkpt lat="46.530275512486696" lon="12.207100186496973">
        <ele>2347.6799999999998</ele>
        <time>2015-07-15T08:47:25Z</time>
      </trkpt>
      <trkpt lat="46.530192531645298" lon="12.207079483196139">
        <ele>2346.23</ele>
        <time>2015-07-15T08:47:32Z</time>
      </trkpt>
      <trkpt lat="46.530098570510745" lon="12.206972194835544">
        <ele>2347.6799999999998</ele>
        <time>2015-07-15T08:47:44Z</time>
      </trkpt>
      <trkpt lat="46.530034532770514" lon="12.206949647516012">
        <ele>2350.0799999999999</ele>
        <time>2015-07-15T08:47:54Z</time>
      </trkpt>
      <trkpt lat="46.529976865276694" lon="12.206919556483626">
        <ele>2352.48</ele>
        <time>2015-07-15T08:48:06Z</time>
      </trkpt>
      <trkpt lat="46.529946103692055" lon="12.206889213994145">
        <ele>2354.4099999999999</ele>
        <time>2015-07-15T08:48:17Z</time>
      </trkpt>
      <trkpt lat="46.529883742332458" lon="12.206858536228538">
        <ele>2355.8499999999999</ele>
        <time>2015-07-15T08:48:27Z</time>
      </trkpt>
      <trkpt lat="46.529802856966853" lon="12.206786954775453">
        <ele>2356.8099999999999</ele>
        <time>2015-07-15T08:48:38Z</time>
      </trkpt>
      <trkpt lat="46.52974309399724" lon="12.206722414121032">
        <ele>2357.77</ele>
        <time>2015-07-15T08:48:47Z</time>
      </trkpt>
      <trkpt lat="46.529670003801584" lon="12.206665584817529">
        <ele>2358.73</ele>
        <time>2015-07-15T08:48:57Z</time>
      </trkpt>
      <trkpt lat="46.529624322429299" lon="12.206616550683975">
        <ele>2360.1700000000001</ele>
        <time>2015-07-15T08:49:08Z</time>
      </trkpt>
      <trkpt lat="46.529587777331471" lon="12.206599283963442">
        <ele>2362.0999999999999</ele>
        <time>2015-07-15T08:49:17Z</time>
      </trkpt>
      <trkpt lat="46.529555339366198" lon="12.206565672531724">
        <ele>2364.02</ele>
        <time>2015-07-15T08:49:23Z</time>
      </trkpt>
      <trkpt lat="46.529477052390575" lon="12.206427287310362">
        <ele>2362.0999999999999</ele>
        <time>2015-07-15T08:49:34Z</time>
      </trkpt>
      <trkpt lat="46.529387030750513" lon="12.206350089982152">
        <ele>2362.5799999999999</ele>
        <time>2015-07-15T08:49:44Z</time>
      </trkpt>
      <trkpt lat="46.529366243630648" lon="12.206324776634574">
        <ele>2362.0999999999999</ele>
        <time>2015-07-15T08:49:46Z</time>
      </trkpt>
      <trkpt lat="46.529276641085744" lon="12.206197790801525">
        <ele>2362.0999999999999</ele>
        <time>2015-07-15T08:49:56Z</time>
      </trkpt>
      <trkpt lat="46.529208580031991" lon="12.206124784424901">
        <ele>2361.1399999999999</ele>
        <time>2015-07-15T08:50:04Z</time>
      </trkpt>
      <trkpt lat="46.529134903103113" lon="12.206083461642265">
        <ele>2362.0999999999999</ele>
        <time>2015-07-15T08:50:12Z</time>
      </trkpt>
      <trkpt lat="46.529096849262714" lon="12.205897802487016">
        <ele>2360.1700000000001</ele>
        <time>2015-07-15T08:50:22Z</time>
      </trkpt>
      <trkpt lat="46.529026357457042" lon="12.205759836360812">
        <ele>2360.1700000000001</ele>
        <time>2015-07-15T08:50:34Z</time>
      </trkpt>
      <trkpt lat="46.528986627236009" lon="12.205720441415906">
        <ele>2361.6199999999999</ele>
        <time>2015-07-15T08:50:43Z</time>
      </trkpt>
      <trkpt lat="46.528948824852705" lon="12.20566495321691">
        <ele>2362.5799999999999</ele>
        <time>2015-07-15T08:50:53Z</time>
      </trkpt>
      <trkpt lat="46.528931390494108" lon="12.205624636262655">
        <ele>2361.6199999999999</ele>
        <time>2015-07-15T08:51:03Z</time>
      </trkpt>
      <trkpt lat="46.528916889801621" lon="12.205564873293042">
        <ele>2360.6500000000001</ele>
        <time>2015-07-15T08:51:14Z</time>
      </trkpt>
      <trkpt lat="46.528884787112474" lon="12.205465883016586">
        <ele>2359.21</ele>
        <time>2015-07-15T08:51:21Z</time>
      </trkpt>
      <trkpt lat="46.528884787112474" lon="12.205428080633283">
        <ele>2358.73</ele>
        <time>2015-07-15T08:51:23Z</time>
      </trkpt>
      <trkpt lat="46.528911860659719" lon="12.205331604927778">
        <ele>2357.29</ele>
        <time>2015-07-15T08:51:30Z</time>
      </trkpt>
      <trkpt lat="46.528877830132842" lon="12.205202775076032">
        <ele>2355.8499999999999</ele>
        <time>2015-07-15T08:51:39Z</time>
      </trkpt>
      <trkpt lat="46.528846481814981" lon="12.205058354884386">
        <ele>2356.3299999999999</ele>
        <time>2015-07-15T08:51:51Z</time>
      </trkpt>
      <trkpt lat="46.528834579512477" lon="12.205041507259011">
        <ele>2355.8499999999999</ele>
        <time>2015-07-15T08:51:53Z</time>
      </trkpt>
      <trkpt lat="46.528774984180927" lon="12.204960286617279">
        <ele>2356.3299999999999</ele>
        <time>2015-07-15T08:52:02Z</time>
      </trkpt>
      <trkpt lat="46.5287746489048" lon="12.204969339072704">
        <ele>2356.3299999999999</ele>
        <time>2015-07-15T08:52:03Z</time>
      </trkpt>
      <trkpt lat="46.528724860399961" lon="12.204812429845333">
        <ele>2353.9299999999998</ele>
        <time>2015-07-15T08:52:14Z</time>
      </trkpt>
      <trkpt lat="46.528629222884774" lon="12.204702794551849">
        <ele>2352</ele>
        <time>2015-07-15T08:52:25Z</time>
      </trkpt>
      <trkpt lat="46.528599802404642" lon="12.204683683812618">
        <ele>2350.5599999999999</ele>
        <time>2015-07-15T08:52:28Z</time>
      </trkpt>
      <trkpt lat="46.528564179316163" lon="12.204620148986578">
        <ele>2349.1199999999999</ele>
        <time>2015-07-15T08:52:32Z</time>
      </trkpt>
      <trkpt lat="46.528531154617667" lon="12.204570611938834">
        <ele>2347.6799999999998</ele>
        <time>2015-07-15T08:52:35Z</time>
      </trkpt>
      <trkpt lat="46.528528388589621" lon="12.204539347440004">
        <ele>2347.1999999999998</ele>
        <time>2015-07-15T08:52:44Z</time>
      </trkpt>
      <trkpt lat="46.528537860140204" lon="12.204550830647349">
        <ele>2346.7199999999998</ele>
        <time>2015-07-15T08:53:10Z</time>
      </trkpt>
      <trkpt lat="46.528568621724844" lon="12.204531049355865">
        <ele>2346.7199999999998</ele>
        <time>2015-07-15T08:53:29Z</time>
      </trkpt>
      <trkpt lat="46.528516737744212" lon="12.204485116526484">
        <ele>2346.23</ele>
        <time>2015-07-15T08:53:42Z</time>
      </trkpt>
      <trkpt lat="46.528408527374268" lon="12.20440624281764">
        <ele>2343.3499999999999</ele>
        <time>2015-07-15T08:53:54Z</time>
      </trkpt>
      <trkpt lat="46.528355637565255" lon="12.204387551173568">
        <ele>2341.9099999999999</ele>
        <time>2015-07-15T08:53:59Z</time>
      </trkpt>
      <trkpt lat="46.528222784399986" lon="12.204343797639012">
        <ele>2339.5100000000002</ele>
        <time>2015-07-15T08:54:09Z</time>
      </trkpt>
      <trkpt lat="46.528174839913845" lon="12.204310270026326">
        <ele>2337.5799999999999</ele>
        <time>2015-07-15T08:54:13Z</time>
      </trkpt>
      <trkpt lat="46.528106862679124" lon="12.204241706058383">
        <ele>2334.2199999999998</ele>
        <time>2015-07-15T08:54:21Z</time>
      </trkpt>
      <trkpt lat="46.528034610673785" lon="12.204199125990272">
        <ele>2332.3000000000002</ele>
        <time>2015-07-15T08:54:32Z</time>
      </trkpt>
      <trkpt lat="46.527944756671786" lon="12.204140452668071">
        <ele>2329.8899999999999</ele>
        <time>2015-07-15T08:54:44Z</time>
      </trkpt>
      <trkpt lat="46.527937045320868" lon="12.204136680811644">
        <ele>2329.8899999999999</ele>
        <time>2015-07-15T08:54:45Z</time>
      </trkpt>
      <trkpt lat="46.527821710333228" lon="12.20407105050981">
        <ele>2328.9299999999998</ele>
        <time>2015-07-15T08:54:50Z</time>
      </trkpt>
      <trkpt lat="46.527718780562282" lon="12.203944651409984">
        <ele>2325.5700000000002</ele>
        <time>2015-07-15T08:55:00Z</time>
      </trkpt>
      <trkpt lat="46.527687348425388" lon="12.203903831541538">
        <ele>2324.6100000000001</ele>
        <time>2015-07-15T08:55:04Z</time>
      </trkpt>
      <trkpt lat="46.527650384232402" lon="12.20385605469346">
        <ele>2323.6399999999999</ele>
        <time>2015-07-15T08:55:08Z</time>
      </trkpt>
      <trkpt lat="46.527745854109526" lon="12.203772906213999">
        <ele>2319.8000000000002</ele>
        <time>2015-07-15T08:55:18Z</time>
      </trkpt>
      <trkpt lat="46.527641331776977" lon="12.203710125759244">
        <ele>2316.4299999999998</ele>
        <time>2015-07-15T08:55:27Z</time>
      </trkpt>
      <trkpt lat="46.527528176084161" lon="12.203667210415006">
        <ele>2313.0700000000002</ele>
        <time>2015-07-15T08:55:33Z</time>
      </trkpt>
      <trkpt lat="46.52746707201004" lon="12.203624881803989">
        <ele>2309.6999999999998</ele>
        <time>2015-07-15T08:55:41Z</time>
      </trkpt>
      <trkpt lat="46.527431784197688" lon="12.203640136867762">
        <ele>2309.6999999999998</ele>
        <time>2015-07-15T08:55:52Z</time>
      </trkpt>
      <trkpt lat="46.527405465021729" lon="12.203629072755575">
        <ele>2309.2199999999998</ele>
        <time>2015-07-15T08:55:57Z</time>
      </trkpt>
      <trkpt lat="46.52729406952858" lon="12.203566543757915">
        <ele>2310.1900000000001</ele>
        <time>2015-07-15T08:56:05Z</time>
      </trkpt>
      <trkpt lat="46.527275796979666" lon="12.20355162397027">
        <ele>2310.1900000000001</ele>
        <time>2015-07-15T08:56:06Z</time>
      </trkpt>
      <trkpt lat="46.52708837762475" lon="12.20341038890183">
        <ele>2309.6999999999998</ele>
        <time>2015-07-15T08:56:19Z</time>
      </trkpt>
      <trkpt lat="46.527068009600043" lon="12.203392116352916">
        <ele>2309.6999999999998</ele>
        <time>2015-07-15T08:56:30Z</time>
      </trkpt>
      <trkpt lat="46.52725987136364" lon="12.20337862148881">
        <ele>2309.6999999999998</ele>
        <time>2015-07-15T08:56:50Z</time>
      </trkpt>
      <trkpt lat="46.527255848050117" lon="12.203385746106505">
        <ele>2309.2199999999998</ele>
        <time>2015-07-15T08:57:08Z</time>
      </trkpt>
      <trkpt lat="46.52723983861506" lon="12.203375520184636">
        <ele>2309.2199999999998</ele>
        <time>2015-07-15T08:57:30Z</time>
      </trkpt>
      <trkpt lat="46.527193654328585" lon="12.203389853239059">
        <ele>2309.6999999999998</ele>
        <time>2015-07-15T08:57:42Z</time>
      </trkpt>
      <trkpt lat="46.527081085368991" lon="12.203339729458094">
        <ele>2310.1900000000001</ele>
        <time>2015-07-15T08:57:53Z</time>
      </trkpt>
      <trkpt lat="46.527139088138938" lon="12.203327659517527">
        <ele>2310.1900000000001</ele>
        <time>2015-07-15T08:58:05Z</time>
      </trkpt>
      <trkpt lat="46.527109164744616" lon="12.203323803842068">
        <ele>2309.6999999999998</ele>
        <time>2015-07-15T08:58:16Z</time>
      </trkpt>
      <trkpt lat="46.527044791728258" lon="12.203301675617695">
        <ele>2309.6999999999998</ele>
        <time>2015-07-15T08:58:29Z</time>
      </trkpt>
      <trkpt lat="46.52701998129487" lon="12.203259095549583">
        <ele>2310.1900000000001</ele>
        <time>2015-07-15T08:58:41Z</time>
      </trkpt>
      <trkpt lat="46.526976814493537" lon="12.203224897384644">
        <ele>2310.1900000000001</ele>
        <time>2015-07-15T08:58:53Z</time>
      </trkpt>
      <trkpt lat="46.52691981755197" lon="12.203198242932558">
        <ele>2309.6999999999998</ele>
        <time>2015-07-15T08:59:03Z</time>
      </trkpt>
      <trkpt lat="46.526958625763655" lon="12.203186759725213">
        <ele>2309.6999999999998</ele>
        <time>2015-07-15T08:59:15Z</time>
      </trkpt>
      <trkpt lat="46.526950914412737" lon="12.203106209635735">
        <ele>2308.2600000000002</ele>
        <time>2015-07-15T08:59:25Z</time>
      </trkpt>
      <trkpt lat="46.52696474455297" lon="12.203070754185319">
        <ele>2308.7399999999998</ele>
        <time>2015-07-15T08:59:36Z</time>
      </trkpt>
      <trkpt lat="46.527037164196372" lon="12.203158596530557">
        <ele>2308.7399999999998</ele>
        <time>2015-07-15T08:59:57Z</time>
      </trkpt>
      <trkpt lat="46.52702827937901" lon="12.203176198527217">
        <ele>2308.7399999999998</ele>
        <time>2015-07-15T09:00:14Z</time>
      </trkpt>
      <trkpt lat="46.527024675160646" lon="12.203161781653762">
        <ele>2308.7399999999998</ele>
        <time>2015-07-15T09:00:29Z</time>
      </trkpt>
      <trkpt lat="46.527030039578676" lon="12.203188939020038">
        <ele>2309.2199999999998</ele>
        <time>2015-07-15T09:00:47Z</time>
      </trkpt>
      <trkpt lat="46.527059124782681" lon="12.203267561271787">
        <ele>2309.6999999999998</ele>
        <time>2015-07-15T09:01:02Z</time>
      </trkpt>
      <trkpt lat="46.527098435908556" lon="12.203259682282805">
        <ele>2311.1500000000001</ele>
        <time>2015-07-15T09:01:15Z</time>
      </trkpt>
      <trkpt lat="46.527075553312898" lon="12.203249288722873">
        <ele>2310.6700000000001</ele>
        <time>2015-07-15T09:01:34Z</time>
      </trkpt>
      <trkpt lat="46.526947729289532" lon="12.203204277902842">
        <ele>2310.6700000000001</ele>
        <time>2015-07-15T09:01:46Z</time>
      </trkpt>
      <trkpt lat="46.526905987411737" lon="12.203109646216035">
        <ele>2309.6999999999998</ele>
        <time>2015-07-15T09:01:59Z</time>
      </trkpt>
      <trkpt lat="46.527003720402718" lon="12.203111574053764">
        <ele>2309.6999999999998</ele>
        <time>2015-07-15T09:02:08Z</time>
      </trkpt>
      <trkpt lat="46.52703020721674" lon="12.203109562397003">
        <ele>2309.6999999999998</ele>
        <time>2015-07-15T09:02:21Z</time>
      </trkpt>
      <trkpt lat="46.527039092034101" lon="12.203165302053094">
        <ele>2309.2199999999998</ele>
        <time>2015-07-15T09:02:33Z</time>
      </trkpt>
      <trkpt lat="46.527064321562648" lon="12.203126829117537">
        <ele>2310.1900000000001</ele>
        <time>2015-07-15T09:02:47Z</time>
      </trkpt>
      <trkpt lat="46.527067003771663" lon="12.203141832724214">
        <ele>2309.6999999999998</ele>
        <time>2015-07-15T09:02:58Z</time>
      </trkpt>
      <trkpt lat="46.5271030459553" lon="12.203131942078471">
        <ele>2309.6999999999998</ele>
        <time>2015-07-15T09:03:16Z</time>
      </trkpt>
      <trkpt lat="46.527122324332595" lon="12.203167313709855">
        <ele>2310.1900000000001</ele>
        <time>2015-07-15T09:03:32Z</time>
      </trkpt>
      <trkpt lat="46.527104889973998" lon="12.203236045315862">
        <ele>2310.1900000000001</ele>
        <time>2015-07-15T09:03:46Z</time>
      </trkpt>
      <trkpt lat="46.527102794498205" lon="12.203269908204675">
        <ele>2310.6700000000001</ele>
        <time>2015-07-15T09:03:55Z</time>
      </trkpt>
      <trkpt lat="46.527049234136939" lon="12.203225316479802">
        <ele>2310.6700000000001</ele>
        <time>2015-07-15T09:04:07Z</time>
      </trkpt>
      <trkpt lat="46.526981927454472" lon="12.203174773603678">
        <ele>2310.1900000000001</ele>
        <time>2015-07-15T09:04:22Z</time>
      </trkpt>
      <trkpt lat="46.526998188346624" lon="12.203159183263779">
        <ele>2310.1900000000001</ele>
        <time>2015-07-15T09:04:29Z</time>
      </trkpt>
      <trkpt lat="46.52703607454896" lon="12.2031822334975">
        <ele>2310.1900000000001</ele>
        <time>2015-07-15T09:04:44Z</time>
      </trkpt>
      <trkpt lat="46.527031464502215" lon="12.203163793310523">
        <ele>2310.1900000000001</ele>
        <time>2015-07-15T09:05:03Z</time>
      </trkpt>
      <trkpt lat="46.526999864727259" lon="12.203183071687818">
        <ele>2310.1900000000001</ele>
        <time>2015-07-15T09:05:22Z</time>
      </trkpt>
      <trkpt lat="46.526943789795041" lon="12.203117273747921">
        <ele>2310.1900000000001</ele>
        <time>2015-07-15T09:05:39Z</time>
      </trkpt>
      <trkpt lat="46.526960805058479" lon="12.203101934865117">
        <ele>2310.1900000000001</ele>
        <time>2015-07-15T09:05:57Z</time>
      </trkpt>
      <trkpt lat="46.526941442862153" lon="12.203120123594999">
        <ele>2310.1900000000001</ele>
        <time>2015-07-15T09:06:13Z</time>
      </trkpt>
      <trkpt lat="46.526953848078847" lon="12.203169409185648">
        <ele>2310.1900000000001</ele>
        <time>2015-07-15T09:06:30Z</time>
      </trkpt>
      <trkpt lat="46.526943286880851" lon="12.203232189640403">
        <ele>2310.6700000000001</ele>
        <time>2015-07-15T09:06:46Z</time>
      </trkpt>
      <trkpt lat="46.52698477730155" lon="12.203234117478132">
        <ele>2310.6700000000001</ele>
        <time>2015-07-15T09:06:57Z</time>
      </trkpt>
      <trkpt lat="46.526995170861483" lon="12.203271500766277">
        <ele>2310.6700000000001</ele>
        <time>2015-07-15T09:07:18Z</time>
      </trkpt>
      <trkpt lat="46.527017718181014" lon="12.203339813277125">
        <ele>2310.1900000000001</ele>
        <time>2015-07-15T09:07:42Z</time>
      </trkpt>
      <trkpt lat="46.527120480313897" lon="12.203332185745239">
        <ele>2310.6700000000001</ele>
        <time>2015-07-15T09:07:59Z</time>
      </trkpt>
      <trkpt lat="46.527117295190692" lon="12.203313997015357">
        <ele>2310.6700000000001</ele>
        <time>2015-07-15T09:08:18Z</time>
      </trkpt>
      <trkpt lat="46.527170184999704" lon="12.203423213213682">
        <ele>2310.6700000000001</ele>
        <time>2015-07-15T09:08:39Z</time>
      </trkpt>
      <trkpt lat="46.527447709813714" lon="12.203742563724518">
        <ele>2310.6700000000001</ele>
        <time>2015-07-15T09:08:56Z</time>
      </trkpt>
      <trkpt lat="46.527161551639438" lon="12.203478785231709">
        <ele>2310.1900000000001</ele>
        <time>2015-07-15T09:09:09Z</time>
      </trkpt>
      <trkpt lat="46.526915458962321" lon="12.203104868531227">
        <ele>2310.6700000000001</ele>
        <time>2015-07-15T09:09:18Z</time>
      </trkpt>
      <trkpt lat="46.526916213333607" lon="12.202961537986994">
        <ele>2311.6300000000001</ele>
        <time>2015-07-15T09:09:29Z</time>
      </trkpt>
      <trkpt lat="46.526881596073508" lon="12.202857518568635">
        <ele>2311.6300000000001</ele>
        <time>2015-07-15T09:09:38Z</time>
      </trkpt>
      <trkpt lat="46.526871789246798" lon="12.202848382294178">
        <ele>2311.6300000000001</ele>
        <time>2015-07-15T09:09:39Z</time>
      </trkpt>
      <trkpt lat="46.526817893609405" lon="12.202770011499524">
        <ele>2312.5900000000001</ele>
        <time>2015-07-15T09:09:49Z</time>
      </trkpt>
      <trkpt lat="46.526812445372343" lon="12.202748386189342">
        <ele>2312.1100000000001</ele>
        <time>2015-07-15T09:09:50Z</time>
      </trkpt>
      <trkpt lat="46.52680397965014" lon="12.202739669010043">
        <ele>2312.5900000000001</ele>
        <time>2015-07-15T09:09:51Z</time>
      </trkpt>
      <trkpt lat="46.526795513927937" lon="12.202676553279161">
        <ele>2312.1100000000001</ele>
        <time>2015-07-15T09:10:00Z</time>
      </trkpt>
      <trkpt lat="46.526782773435116" lon="12.202639253810048">
        <ele>2311.6300000000001</ele>
        <time>2015-07-15T09:10:03Z</time>
      </trkpt>
      <trkpt lat="46.526746731251478" lon="12.202553423121572">
        <ele>2310.6700000000001</ele>
        <time>2015-07-15T09:10:12Z</time>
      </trkpt>
      <trkpt lat="46.526760226115584" lon="12.202491732314229">
        <ele>2311.6300000000001</ele>
        <time>2015-07-15T09:10:25Z</time>
      </trkpt>
      <trkpt lat="46.526753352954984" lon="12.202441859990358">
        <ele>2312.5900000000001</ele>
        <time>2015-07-15T09:10:35Z</time>
      </trkpt>
      <trkpt lat="46.526744551956654" lon="12.20241654664278">
        <ele>2314.0300000000002</ele>
        <time>2015-07-15T09:10:39Z</time>
      </trkpt>
      <trkpt lat="46.52672678232193" lon="12.202374301850796">
        <ele>2315.4699999999998</ele>
        <time>2015-07-15T09:10:49Z</time>
      </trkpt>
      <trkpt lat="46.526714125648141" lon="12.202342702075839">
        <ele>2314.9899999999998</ele>
        <time>2015-07-15T09:10:56Z</time>
      </trkpt>
      <trkpt lat="46.52669258415699" lon="12.202246394008398">
        <ele>2316.4299999999998</ele>
        <time>2015-07-15T09:11:04Z</time>
      </trkpt>
      <trkpt lat="46.526655284687877" lon="12.202226361259818">
        <ele>2317.8800000000001</ele>
        <time>2015-07-15T09:11:16Z</time>
      </trkpt>
      <trkpt lat="46.52663592249155" lon="12.202125191688538">
        <ele>2318.3600000000001</ele>
        <time>2015-07-15T09:11:27Z</time>
      </trkpt>
      <trkpt lat="46.526604825630784" lon="12.202047491446137">
        <ele>2318.3600000000001</ele>
        <time>2015-07-15T09:11:39Z</time>
      </trkpt>
      <trkpt lat="46.526622762903571" lon="12.202025111764669">
        <ele>2317.4000000000001</ele>
        <time>2015-07-15T09:11:49Z</time>
      </trkpt>
      <trkpt lat="46.526627540588379" lon="12.202003821730614">
        <ele>2316.9099999999999</ele>
        <time>2015-07-15T09:11:58Z</time>
      </trkpt>
      <trkpt lat="46.526633575558662" lon="12.201973143965006">
        <ele>2315.9499999999998</ele>
        <time>2015-07-15T09:12:06Z</time>
      </trkpt>
      <trkpt lat="46.52661245316267" lon="12.201932156458497">
        <ele>2314.0300000000002</ele>
        <time>2015-07-15T09:12:16Z</time>
      </trkpt>
      <trkpt lat="46.526565179228783" lon="12.201846074312925">
        <ele>2313.5500000000002</ele>
        <time>2015-07-15T09:12:28Z</time>
      </trkpt>
      <trkpt lat="46.526538105681539" lon="12.201786898076534">
        <ele>2312.1100000000001</ele>
        <time>2015-07-15T09:12:38Z</time>
      </trkpt>
      <trkpt lat="46.526497034355998" lon="12.201746329665184">
        <ele>2311.1500000000001</ele>
        <time>2015-07-15T09:12:49Z</time>
      </trkpt>
      <trkpt lat="46.52646535076201" lon="12.201684890314937">
        <ele>2310.1900000000001</ele>
        <time>2015-07-15T09:13:03Z</time>
      </trkpt>
      <trkpt lat="46.526450514793396" lon="12.201662762090564">
        <ele>2308.7399999999998</ele>
        <time>2015-07-15T09:13:14Z</time>
      </trkpt>
      <trkpt lat="46.526440540328622" lon="12.201585648581386">
        <ele>2306.3400000000001</ele>
        <time>2015-07-15T09:13:23Z</time>
      </trkpt>
      <trkpt lat="46.526439618319273" lon="12.201575255021453">
        <ele>2306.3400000000001</ele>
        <time>2015-07-15T09:13:24Z</time>
      </trkpt>
      <trkpt lat="46.526441378518939" lon="12.201508786529303">
        <ele>2305.3800000000001</ele>
        <time>2015-07-15T09:13:33Z</time>
      </trkpt>
      <trkpt lat="46.526422603055835" lon="12.201481880620122">
        <ele>2306.3400000000001</ele>
        <time>2015-07-15T09:13:43Z</time>
      </trkpt>
      <trkpt lat="46.526411874219775" lon="12.201428068801761">
        <ele>2306.8200000000002</ele>
        <time>2015-07-15T09:13:53Z</time>
      </trkpt>
      <trkpt lat="46.526390416547656" lon="12.201395379379392">
        <ele>2307.3000000000002</ele>
        <time>2015-07-15T09:14:04Z</time>
      </trkpt>
      <trkpt lat="46.526364348828793" lon="12.201371323317289">
        <ele>2307.3000000000002</ele>
        <time>2015-07-15T09:14:14Z</time>
      </trkpt>
      <trkpt lat="46.526355966925621" lon="12.201317679136992">
        <ele>2307.3000000000002</ele>
        <time>2015-07-15T09:14:22Z</time>
      </trkpt>
      <trkpt lat="46.526284469291568" lon="12.201185328885913">
        <ele>2305.8600000000001</ele>
        <time>2015-07-15T09:14:32Z</time>
      </trkpt>
      <trkpt lat="46.526253037154675" lon="12.201091786846519">
        <ele>2306.3400000000001</ele>
        <time>2015-07-15T09:14:43Z</time>
      </trkpt>
      <trkpt lat="46.526200231164694" lon="12.201013835147023">
        <ele>2306.3400000000001</ele>
        <time>2015-07-15T09:14:54Z</time>
      </trkpt>
      <trkpt lat="46.526180282235146" lon="12.200858937576413">
        <ele>2306.3400000000001</ele>
        <time>2015-07-15T09:15:06Z</time>
      </trkpt>
      <trkpt lat="46.526158740743995" lon="12.200731281191111">
        <ele>2304.9000000000001</ele>
        <time>2015-07-15T09:15:18Z</time>
      </trkpt>
      <trkpt lat="46.526139797642827" lon="12.200596332550049">
        <ele>2303.46</ele>
        <time>2015-07-15T09:15:32Z</time>
      </trkpt>
      <trkpt lat="46.526114149019122" lon="12.200484350323677">
        <ele>2302.0100000000002</ele>
        <time>2015-07-15T09:15:42Z</time>
      </trkpt>
      <trkpt lat="46.526097804307938" lon="12.200401369482279">
        <ele>2301.0500000000002</ele>
        <time>2015-07-15T09:15:52Z</time>
      </trkpt>
      <trkpt lat="46.526071401312947" lon="12.200351161882281">
        <ele>2300.0900000000001</ele>
        <time>2015-07-15T09:15:59Z</time>
      </trkpt>
      <trkpt lat="46.526022953912616" lon="12.200269857421517">
        <ele>2299.6100000000001</ele>
        <time>2015-07-15T09:16:08Z</time>
      </trkpt>
      <trkpt lat="46.525948522612453" lon="12.200210345908999">
        <ele>2300.5700000000002</ele>
        <time>2015-07-15T09:16:19Z</time>
      </trkpt>
      <trkpt lat="46.52595916762948" lon="12.200072798877954">
        <ele>2299.6100000000001</ele>
        <time>2015-07-15T09:16:30Z</time>
      </trkpt>
      <trkpt lat="46.525975009426475" lon="12.199960816651583">
        <ele>2299.6100000000001</ele>
        <time>2015-07-15T09:16:41Z</time>
      </trkpt>
      <trkpt lat="46.526001999154687" lon="12.199868699535728">
        <ele>2299.6100000000001</ele>
        <time>2015-07-15T09:16:50Z</time>
      </trkpt>
      <trkpt lat="46.525991689413786" lon="12.199722938239574">
        <ele>2300.0900000000001</ele>
        <time>2015-07-15T09:17:03Z</time>
      </trkpt>
      <trkpt lat="46.525992024689913" lon="12.199614141136408">
        <ele>2301.5300000000002</ele>
        <time>2015-07-15T09:17:14Z</time>
      </trkpt>
      <trkpt lat="46.525997892022133" lon="12.199527975171804">
        <ele>2302.0100000000002</ele>
        <time>2015-07-15T09:17:23Z</time>
      </trkpt>
      <trkpt lat="46.52601926587522" lon="12.199391853064299">
        <ele>2301.5300000000002</ele>
        <time>2015-07-15T09:17:35Z</time>
      </trkpt>
      <trkpt lat="46.526028485968709" lon="12.199378442019224">
        <ele>2301.5300000000002</ele>
        <time>2015-07-15T09:17:39Z</time>
      </trkpt>
      <trkpt lat="46.526037622243166" lon="12.199263442307711">
        <ele>2301.5300000000002</ele>
        <time>2015-07-15T09:17:48Z</time>
      </trkpt>
      <trkpt lat="46.526053547859192" lon="12.199132349342108">
        <ele>2301.5300000000002</ele>
        <time>2015-07-15T09:17:59Z</time>
      </trkpt>
      <trkpt lat="46.526052542030811" lon="12.199115417897701">
        <ele>2301.5300000000002</ele>
        <time>2015-07-15T09:18:00Z</time>
      </trkpt>
      <trkpt lat="46.526040136814117" lon="12.198982145637274">
        <ele>2301.0500000000002</ele>
        <time>2015-07-15T09:18:09Z</time>
      </trkpt>
      <trkpt lat="46.526058074086905" lon="12.198934201151133">
        <ele>2301.0500000000002</ele>
        <time>2015-07-15T09:18:13Z</time>
      </trkpt>
      <trkpt lat="46.526039214804769" lon="12.198835713788867">
        <ele>2300.5700000000002</ele>
        <time>2015-07-15T09:18:20Z</time>
      </trkpt>
      <trkpt lat="46.52600166387856" lon="12.198743177577853">
        <ele>2300.0900000000001</ele>
        <time>2015-07-15T09:18:31Z</time>
      </trkpt>
      <trkpt lat="46.526040472090244" lon="12.198566067963839">
        <ele>2298.1700000000001</ele>
        <time>2015-07-15T09:18:41Z</time>
      </trkpt>
      <trkpt lat="46.526082381606102" lon="12.198549723252654">
        <ele>2296.73</ele>
        <time>2015-07-15T09:18:48Z</time>
      </trkpt>
      <trkpt lat="46.52609302662313" lon="12.19850261695683">
        <ele>2297.21</ele>
        <time>2015-07-15T09:18:51Z</time>
      </trkpt>
      <trkpt lat="46.526126973330975" lon="12.198424329981208">
        <ele>2297.6900000000001</ele>
        <time>2015-07-15T09:18:57Z</time>
      </trkpt>
      <trkpt lat="46.526124207302928" lon="12.198234228417277">
        <ele>2299.6100000000001</ele>
        <time>2015-07-15T09:19:10Z</time>
      </trkpt>
      <trkpt lat="46.526109371334314" lon="12.198107577860355">
        <ele>2300.5700000000002</ele>
        <time>2015-07-15T09:19:19Z</time>
      </trkpt>
      <trkpt lat="46.52611062861979" lon="12.198081677779555">
        <ele>2300.5700000000002</ele>
        <time>2015-07-15T09:19:21Z</time>
      </trkpt>
      <trkpt lat="46.526117417961359" lon="12.198037756606936">
        <ele>2301.0500000000002</ele>
        <time>2015-07-15T09:19:24Z</time>
      </trkpt>
      <trkpt lat="46.52613359503448" lon="12.197872968390584">
        <ele>2302.0100000000002</ele>
        <time>2015-07-15T09:19:36Z</time>
      </trkpt>
      <trkpt lat="46.526171648874879" lon="12.197727542370558">
        <ele>2303.46</ele>
        <time>2015-07-15T09:19:47Z</time>
      </trkpt>
      <trkpt lat="46.526188077405095" lon="12.19758496619761">
        <ele>2303.9400000000001</ele>
        <time>2015-07-15T09:19:57Z</time>
      </trkpt>
      <trkpt lat="46.526233842596412" lon="12.197401151061058">
        <ele>2304.9000000000001</ele>
        <time>2015-07-15T09:20:09Z</time>
      </trkpt>
      <trkpt lat="46.526275081560016" lon="12.197201577946544">
        <ele>2304.9000000000001</ele>
        <time>2015-07-15T09:20:21Z</time>
      </trkpt>
      <trkpt lat="46.526296539232135" lon="12.197134103626013">
        <ele>2305.3800000000001</ele>
        <time>2015-07-15T09:20:25Z</time>
      </trkpt>
      <trkpt lat="46.526300562545657" lon="12.197106946259737">
        <ele>2305.3800000000001</ele>
        <time>2015-07-15T09:20:27Z</time>
      </trkpt>
      <trkpt lat="46.526340879499912" lon="12.19685984775424">
        <ele>2305.3800000000001</ele>
        <time>2015-07-15T09:20:41Z</time>
      </trkpt>
      <trkpt lat="46.52637155726552" lon="12.196646528318524">
        <ele>2305.3800000000001</ele>
        <time>2015-07-15T09:20:53Z</time>
      </trkpt>
      <trkpt lat="46.526374155655503" lon="12.196613755077124">
        <ele>2305.3800000000001</ele>
        <time>2015-07-15T09:20:55Z</time>
      </trkpt>
      <trkpt lat="46.5263881534338" lon="12.196415523067117">
        <ele>2306.3400000000001</ele>
        <time>2015-07-15T09:21:07Z</time>
      </trkpt>
      <trkpt lat="46.526478258892894" lon="12.196249309927225">
        <ele>2306.8200000000002</ele>
        <time>2015-07-15T09:21:18Z</time>
      </trkpt>
      <trkpt lat="46.526501392945647" lon="12.196192899718881">
        <ele>2306.3400000000001</ele>
        <time>2015-07-15T09:21:21Z</time>
      </trkpt>
      <trkpt lat="46.52652695775032" lon="12.195937084034085">
        <ele>2306.3400000000001</ele>
        <time>2015-07-15T09:21:35Z</time>
      </trkpt>
      <trkpt lat="46.526540536433458" lon="12.195774642750621">
        <ele>2308.2600000000002</ele>
        <time>2015-07-15T09:21:46Z</time>
      </trkpt>
      <trkpt lat="46.526528550311923" lon="12.195660145953298">
        <ele>2308.7399999999998</ele>
        <time>2015-07-15T09:21:52Z</time>
      </trkpt>
      <trkpt lat="46.526537854224443" lon="12.19561823643744">
        <ele>2308.7399999999998</ele>
        <time>2015-07-15T09:21:55Z</time>
      </trkpt>
      <trkpt lat="46.526521174237132" lon="12.195453448221087">
        <ele>2308.7399999999998</ele>
        <time>2015-07-15T09:22:05Z</time>
      </trkpt>
      <trkpt lat="46.526569621637464" lon="12.195247756317258">
        <ele>2307.7800000000002</ele>
        <time>2015-07-15T09:22:16Z</time>
      </trkpt>
      <trkpt lat="46.526588145643473" lon="12.195196291431785">
        <ele>2307.7800000000002</ele>
        <time>2015-07-15T09:22:19Z</time>
      </trkpt>
      <trkpt lat="46.526652351021767" lon="12.194984061643481">
        <ele>2307.7800000000002</ele>
        <time>2015-07-15T09:22:32Z</time>
      </trkpt>
      <trkpt lat="46.52672678232193" lon="12.194830924272537">
        <ele>2309.6999999999998</ele>
        <time>2015-07-15T09:22:44Z</time>
      </trkpt>
      <trkpt lat="46.52675268240273" lon="12.19471575692296">
        <ele>2310.1900000000001</ele>
        <time>2015-07-15T09:22:54Z</time>
      </trkpt>
      <trkpt lat="46.52675804682076" lon="12.194579215720296">
        <ele>2311.6300000000001</ele>
        <time>2015-07-15T09:23:05Z</time>
      </trkpt>
      <trkpt lat="46.52676047757268" lon="12.194562284275889">
        <ele>2312.1100000000001</ele>
        <time>2015-07-15T09:23:06Z</time>
      </trkpt>
      <trkpt lat="46.526767266914248" lon="12.194504449144006">
        <ele>2312.5900000000001</ele>
        <time>2015-07-15T09:23:10Z</time>
      </trkpt>
      <trkpt lat="46.526771290227771" lon="12.194428090006113">
        <ele>2312.1100000000001</ele>
        <time>2015-07-15T09:23:14Z</time>
      </trkpt>
      <trkpt lat="46.526802554726601" lon="12.19433756545186">
        <ele>2313.0700000000002</ele>
        <time>2015-07-15T09:23:27Z</time>
      </trkpt>
      <trkpt lat="46.526802722364664" lon="12.194328177720308">
        <ele>2313.0700000000002</ele>
        <time>2015-07-15T09:23:29Z</time>
      </trkpt>
      <trkpt lat="46.526795094832778" lon="12.194120809435844">
        <ele>2309.6999999999998</ele>
        <time>2015-07-15T09:23:40Z</time>
      </trkpt>
      <trkpt lat="46.526792077347636" lon="12.194101950153708">
        <ele>2309.6999999999998</ele>
        <time>2015-07-15T09:23:41Z</time>
      </trkpt>
      <trkpt lat="46.526797944679856" lon="12.193887792527676">
        <ele>2306.3400000000001</ele>
        <time>2015-07-15T09:23:52Z</time>
      </trkpt>
      <trkpt lat="46.526790568605065" lon="12.193853259086609">
        <ele>2305.8600000000001</ele>
        <time>2015-07-15T09:23:54Z</time>
      </trkpt>
      <trkpt lat="46.526795765385032" lon="12.193676065653563">
        <ele>2303.9400000000001</ele>
        <time>2015-07-15T09:24:06Z</time>
      </trkpt>
      <trkpt lat="46.526766931638122" lon="12.193523179739714">
        <ele>2301.0500000000002</ele>
        <time>2015-07-15T09:24:15Z</time>
      </trkpt>
      <trkpt lat="46.526767099276185" lon="12.193381860852242">
        <ele>2301.5300000000002</ele>
        <time>2015-07-15T09:24:24Z</time>
      </trkpt>
      <trkpt lat="46.526793753728271" lon="12.19318631105125">
        <ele>2300.5700000000002</ele>
        <time>2015-07-15T09:24:35Z</time>
      </trkpt>
      <trkpt lat="46.526818228885531" lon="12.192938961088657">
        <ele>2300.0900000000001</ele>
        <time>2015-07-15T09:24:50Z</time>
      </trkpt>
      <trkpt lat="46.526868771761656" lon="12.19286235049367">
        <ele>2301.5300000000002</ele>
        <time>2015-07-15T09:24:59Z</time>
      </trkpt>
      <trkpt lat="46.526907328516245" lon="12.192779872566462">
        <ele>2303.46</ele>
        <time>2015-07-15T09:25:09Z</time>
      </trkpt>
      <trkpt lat="46.526907747611403" lon="12.192672668024898">
        <ele>2304.9000000000001</ele>
        <time>2015-07-15T09:25:19Z</time>
      </trkpt>
      <trkpt lat="46.526924595236778" lon="12.192540820688009">
        <ele>2306.3400000000001</ele>
        <time>2015-07-15T09:25:30Z</time>
      </trkpt>
      <trkpt lat="46.526963822543621" lon="12.19244166277349">
        <ele>2308.2600000000002</ele>
        <time>2015-07-15T09:25:40Z</time>
      </trkpt>
      <trkpt lat="46.526981173083186" lon="12.192329680547118">
        <ele>2310.1900000000001</ele>
        <time>2015-07-15T09:25:52Z</time>
      </trkpt>
      <trkpt lat="46.526986705139279" lon="12.192261451855302">
        <ele>2311.6300000000001</ele>
        <time>2015-07-15T09:26:00Z</time>
      </trkpt>
      <trkpt lat="46.526960134506226" lon="12.192198755219579">
        <ele>2312.5900000000001</ele>
        <time>2015-07-15T09:26:11Z</time>
      </trkpt>
      <trkpt lat="46.526922080665827" lon="12.192096579819918">
        <ele>2313.0700000000002</ele>
        <time>2015-07-15T09:26:21Z</time>
      </trkpt>
      <trkpt lat="46.526896180585027" lon="12.192040337249637">
        <ele>2313.0700000000002</ele>
        <time>2015-07-15T09:26:27Z</time>
      </trkpt>
      <trkpt lat="46.526879416778684" lon="12.192021897062659">
        <ele>2313.0700000000002</ele>
        <time>2015-07-15T09:26:29Z</time>
      </trkpt>
      <trkpt lat="46.526872292160988" lon="12.192005049437284">
        <ele>2313.0700000000002</ele>
        <time>2015-07-15T09:26:30Z</time>
      </trkpt>
      <trkpt lat="46.526841195300221" lon="12.191894995048642">
        <ele>2311.6300000000001</ele>
        <time>2015-07-15T09:26:39Z</time>
      </trkpt>
      <trkpt lat="46.526831639930606" lon="12.191891055554152">
        <ele>2311.1500000000001</ele>
        <time>2015-07-15T09:26:40Z</time>
      </trkpt>
      <trkpt lat="46.526817893609405" lon="12.19188560731709">
        <ele>2311.1500000000001</ele>
        <time>2015-07-15T09:26:41Z</time>
      </trkpt>
      <trkpt lat="46.526800207793713" lon="12.191873788833618">
        <ele>2311.1500000000001</ele>
        <time>2015-07-15T09:26:43Z</time>
      </trkpt>
      <trkpt lat="46.526737427338958" lon="12.191824167966843">
        <ele>2311.1500000000001</ele>
        <time>2015-07-15T09:26:53Z</time>
      </trkpt>
      <trkpt lat="46.52672192081809" lon="12.191793657839298">
        <ele>2312.1100000000001</ele>
        <time>2015-07-15T09:26:56Z</time>
      </trkpt>
      <trkpt lat="46.526715802028775" lon="12.191785359755158">
        <ele>2311.6300000000001</ele>
        <time>2015-07-15T09:26:57Z</time>
      </trkpt>
      <trkpt lat="46.52667498216033" lon="12.191722327843308">
        <ele>2310.6700000000001</ele>
        <time>2015-07-15T09:27:02Z</time>
      </trkpt>
      <trkpt lat="46.526656039059162" lon="12.191663067787886">
        <ele>2311.6300000000001</ele>
        <time>2015-07-15T09:27:12Z</time>
      </trkpt>
      <trkpt lat="46.526688728481531" lon="12.191643118858337">
        <ele>2311.1500000000001</ele>
        <time>2015-07-15T09:27:19Z</time>
      </trkpt>
      <trkpt lat="46.526682525873184" lon="12.191623421385884">
        <ele>2311.1500000000001</ele>
        <time>2015-07-15T09:27:20Z</time>
      </trkpt>
      <trkpt lat="46.526616308838129" lon="12.191452011466026">
        <ele>2310.6700000000001</ele>
        <time>2015-07-15T09:27:30Z</time>
      </trkpt>
      <trkpt lat="46.526607675477862" lon="12.191426530480385">
        <ele>2311.1500000000001</ele>
        <time>2015-07-15T09:27:32Z</time>
      </trkpt>
      <trkpt lat="46.526601305231452" lon="12.191413622349501">
        <ele>2311.6300000000001</ele>
        <time>2015-07-15T09:27:33Z</time>
      </trkpt>
      <trkpt lat="46.526572052389383" lon="12.19134715385735">
        <ele>2312.5900000000001</ele>
        <time>2015-07-15T09:27:38Z</time>
      </trkpt>
      <trkpt lat="46.526564508676529" lon="12.191325696185231">
        <ele>2311.6300000000001</ele>
        <time>2015-07-15T09:27:39Z</time>
      </trkpt>
      <trkpt lat="46.526562748476863" lon="12.191305160522461">
        <ele>2311.1500000000001</ele>
        <time>2015-07-15T09:27:40Z</time>
      </trkpt>
      <trkpt lat="46.526563335210085" lon="12.191286133602262">
        <ele>2311.1500000000001</ele>
        <time>2015-07-15T09:27:41Z</time>
      </trkpt>
      <trkpt lat="46.526555623859167" lon="12.19126065261662">
        <ele>2311.6300000000001</ele>
        <time>2015-07-15T09:27:43Z</time>
      </trkpt>
      <trkpt lat="46.526542045176029" lon="12.191227711737156">
        <ele>2312.1100000000001</ele>
        <time>2015-07-15T09:27:46Z</time>
      </trkpt>
      <trkpt lat="46.526538273319602" lon="12.19121228903532">
        <ele>2312.1100000000001</ele>
        <time>2015-07-15T09:27:47Z</time>
      </trkpt>
      <trkpt lat="46.526470044627786" lon="12.191070802509785">
        <ele>2312.5900000000001</ele>
        <time>2015-07-15T09:27:58Z</time>
      </trkpt>
      <trkpt lat="46.526470044627786" lon="12.191048758104444">
        <ele>2312.5900000000001</ele>
        <time>2015-07-15T09:27:59Z</time>
      </trkpt>
      <trkpt lat="46.526476331055164" lon="12.191024953499436">
        <ele>2312.1100000000001</ele>
        <time>2015-07-15T09:28:00Z</time>
      </trkpt>
      <trkpt lat="46.52647758834064" lon="12.19099385663867">
        <ele>2312.5900000000001</ele>
        <time>2015-07-15T09:28:02Z</time>
      </trkpt>
      <trkpt lat="46.526437271386385" lon="12.190916072577238">
        <ele>2314.0300000000002</ele>
        <time>2015-07-15T09:28:10Z</time>
      </trkpt>
      <trkpt lat="46.526423608884215" lon="12.190911211073399">
        <ele>2314.5100000000002</ele>
        <time>2015-07-15T09:28:11Z</time>
      </trkpt>
      <trkpt lat="46.526418412104249" lon="12.190895872190595">
        <ele>2314.9899999999998</ele>
        <time>2015-07-15T09:28:12Z</time>
      </trkpt>
      <trkpt lat="46.526415981352329" lon="12.190872738137841">
        <ele>2314.9899999999998</ele>
        <time>2015-07-15T09:28:13Z</time>
      </trkpt>
      <trkpt lat="46.526414472609758" lon="12.190853040665388">
        <ele>2314.5100000000002</ele>
        <time>2015-07-15T09:28:14Z</time>
      </trkpt>
      <trkpt lat="46.526412293314934" lon="12.190776513889432">
        <ele>2314.9899999999998</ele>
        <time>2015-07-15T09:28:23Z</time>
      </trkpt>
      <trkpt lat="46.526397876441479" lon="12.190744495019317">
        <ele>2315.9499999999998</ele>
        <time>2015-07-15T09:28:26Z</time>
      </trkpt>
      <trkpt lat="46.526392009109259" lon="12.190728737041354">
        <ele>2315.9499999999998</ele>
        <time>2015-07-15T09:28:27Z</time>
      </trkpt>
      <trkpt lat="46.526386477053165" lon="12.190710548311472">
        <ele>2315.9499999999998</ele>
        <time>2015-07-15T09:28:28Z</time>
      </trkpt>
      <trkpt lat="46.526382118463516" lon="12.190690934658051">
        <ele>2315.9499999999998</ele>
        <time>2015-07-15T09:28:29Z</time>
      </trkpt>
      <trkpt lat="46.526380693539977" lon="12.190671740099788">
        <ele>2315.9499999999998</ele>
        <time>2015-07-15T09:28:30Z</time>
      </trkpt>
      <trkpt lat="46.526310369372368" lon="12.190514244139194">
        <ele>2315.9499999999998</ele>
        <time>2015-07-15T09:28:42Z</time>
      </trkpt>
      <trkpt lat="46.526275081560016" lon="12.190466970205307">
        <ele>2314.9899999999998</ele>
        <time>2015-07-15T09:28:51Z</time>
      </trkpt>
      <trkpt lat="46.526270052418113" lon="12.190392287448049">
        <ele>2314.5100000000002</ele>
        <time>2015-07-15T09:29:00Z</time>
      </trkpt>
      <trkpt lat="46.526207607239485" lon="12.19033369794488">
        <ele>2316.9099999999999</ele>
        <time>2015-07-15T09:29:10Z</time>
      </trkpt>
      <trkpt lat="46.526179695501924" lon="12.190302098169923">
        <ele>2317.4000000000001</ele>
        <time>2015-07-15T09:29:14Z</time>
      </trkpt>
      <trkpt lat="46.526170978322625" lon="12.190287010744214">
        <ele>2317.8800000000001</ele>
        <time>2015-07-15T09:29:15Z</time>
      </trkpt>
      <trkpt lat="46.526164943352342" lon="12.190272007137537">
        <ele>2317.8800000000001</ele>
        <time>2015-07-15T09:29:16Z</time>
      </trkpt>
      <trkpt lat="46.526156896725297" lon="12.19025943428278">
        <ele>2317.8800000000001</ele>
        <time>2015-07-15T09:29:17Z</time>
      </trkpt>
      <trkpt lat="46.526150861755013" lon="12.190243592485785">
        <ele>2317.8800000000001</ele>
        <time>2015-07-15T09:29:18Z</time>
      </trkpt>
      <trkpt lat="46.526147592812777" lon="12.190226493403316">
        <ele>2317.8800000000001</ele>
        <time>2015-07-15T09:29:19Z</time>
      </trkpt>
      <trkpt lat="46.526126218959689" lon="12.19018517062068">
        <ele>2318.3600000000001</ele>
        <time>2015-07-15T09:29:30Z</time>
      </trkpt>
      <trkpt lat="46.526098726317286" lon="12.190027171745896">
        <ele>2318.8400000000001</ele>
        <time>2015-07-15T09:29:43Z</time>
      </trkpt>
      <trkpt lat="46.526092858985066" lon="12.189998086541891">
        <ele>2318.8400000000001</ele>
        <time>2015-07-15T09:29:45Z</time>
      </trkpt>
      <trkpt lat="46.526059163734317" lon="12.189864981919527">
        <ele>2319.8000000000002</ele>
        <time>2015-07-15T09:29:58Z</time>
      </trkpt>
      <trkpt lat="46.526042819023132" lon="12.189790550619364">
        <ele>2321.2399999999998</ele>
        <time>2015-07-15T09:30:10Z</time>
      </trkpt>
      <trkpt lat="46.526022953912616" lon="12.189770182594657">
        <ele>2321.2399999999998</ele>
        <time>2015-07-15T09:30:30Z</time>
      </trkpt>
      <trkpt lat="46.526007866486907" lon="12.189782084897161">
        <ele>2321.7199999999998</ele>
        <time>2015-07-15T09:30:44Z</time>
      </trkpt>
      <trkpt lat="46.525994958356023" lon="12.18977915123105">
        <ele>2321.7199999999998</ele>
        <time>2015-07-15T09:31:02Z</time>
      </trkpt>
      <trkpt lat="46.526002921164036" lon="12.189763812348247">
        <ele>2321.7199999999998</ele>
        <time>2015-07-15T09:31:18Z</time>
      </trkpt>
      <trkpt lat="46.525999568402767" lon="12.189764399081469">
        <ele>2321.2399999999998</ele>
        <time>2015-07-15T09:31:32Z</time>
      </trkpt>
      <trkpt lat="46.526003926992416" lon="12.189760711044073">
        <ele>2321.7199999999998</ele>
        <time>2015-07-15T09:31:48Z</time>
      </trkpt>
      <trkpt lat="46.526016751304269" lon="12.189769092947245">
        <ele>2321.2399999999998</ele>
        <time>2015-07-15T09:32:03Z</time>
      </trkpt>
      <trkpt lat="46.526017338037491" lon="12.189773116260767">
        <ele>2320.7600000000002</ele>
        <time>2015-07-15T09:32:21Z</time>
      </trkpt>
      <trkpt lat="46.52601096779108" lon="12.189796417951584">
        <ele>2320.7600000000002</ele>
        <time>2015-07-15T09:32:30Z</time>
      </trkpt>
      <trkpt lat="46.526011470705271" lon="12.189805302768946">
        <ele>2320.2800000000002</ele>
        <time>2015-07-15T09:33:03Z</time>
      </trkpt>
      <trkpt lat="46.526025803759694" lon="12.189794993028045">
        <ele>2320.2800000000002</ele>
        <time>2015-07-15T09:33:30Z</time>
      </trkpt>
      <trkpt lat="46.526025636121631" lon="12.189798261970282">
        <ele>2320.2800000000002</ele>
        <time>2015-07-15T09:33:59Z</time>
      </trkpt>
      <trkpt lat="46.526022115722299" lon="12.189788203686476">
        <ele>2320.2800000000002</ele>
        <time>2015-07-15T09:34:26Z</time>
      </trkpt>
      <trkpt lat="46.526018595322967" lon="12.189787197858095">
        <ele>2320.2800000000002</ele>
        <time>2015-07-15T09:34:48Z</time>
      </trkpt>
      <trkpt lat="46.526018092408776" lon="12.189794657751918">
        <ele>2320.2800000000002</ele>
        <time>2015-07-15T09:35:12Z</time>
      </trkpt>
      <trkpt lat="46.526026809588075" lon="12.189783174544573">
        <ele>2320.2800000000002</ele>
        <time>2015-07-15T09:35:40Z</time>
      </trkpt>
      <trkpt lat="46.526023205369711" lon="12.189806140959263">
        <ele>2319.8000000000002</ele>
        <time>2015-07-15T09:36:08Z</time>
      </trkpt>
      <trkpt lat="46.526036197319627" lon="12.189789209514856">
        <ele>2320.2800000000002</ele>
        <time>2015-07-15T09:36:25Z</time>
      </trkpt>
      <trkpt lat="46.526026055216789" lon="12.189782671630383">
        <ele>2320.2800000000002</ele>
        <time>2015-07-15T09:36:48Z</time>
      </trkpt>
      <trkpt lat="46.526033096015453" lon="12.189790634438396">
        <ele>2320.2800000000002</ele>
        <time>2015-07-15T09:37:11Z</time>
      </trkpt>
      <trkpt lat="46.526033179834485" lon="12.189790718257427">
        <ele>2319.3200000000002</ele>
        <time>2015-07-15T09:37:37Z</time>
      </trkpt>
      <trkpt lat="46.526036867871881" lon="12.189783761277795">
        <ele>2320.7600000000002</ele>
        <time>2015-07-15T09:37:45Z</time>
      </trkpt>
      <trkpt lat="46.526043908670545" lon="12.189786359667778">
        <ele>2320.7600000000002</ele>
        <time>2015-07-15T09:37:57Z</time>
      </trkpt>
      <trkpt lat="46.52603879570961" lon="12.189790466800332">
        <ele>2320.7600000000002</ele>
        <time>2015-07-15T09:38:15Z</time>
      </trkpt>
      <trkpt lat="46.526040304452181" lon="12.189778899773955">
        <ele>2320.2800000000002</ele>
        <time>2015-07-15T09:38:19Z</time>
      </trkpt>
      <trkpt lat="46.526022115722299" lon="12.18976691365242">
        <ele>2321.2399999999998</ele>
        <time>2015-07-15T09:38:32Z</time>
      </trkpt>
      <trkpt lat="46.526012225076556" lon="12.189767835661769">
        <ele>2320.7600000000002</ele>
        <time>2015-07-15T09:38:48Z</time>
      </trkpt>
      <trkpt lat="46.526014991104603" lon="12.189748976379633">
        <ele>2320.2800000000002</ele>
        <time>2015-07-15T09:39:08Z</time>
      </trkpt>
      <trkpt lat="46.526027815416455" lon="12.189758531749249">
        <ele>2320.2800000000002</ele>
        <time>2015-07-15T09:39:21Z</time>
      </trkpt>
      <trkpt lat="46.526026390492916" lon="12.189747635275126">
        <ele>2320.2800000000002</ele>
        <time>2015-07-15T09:39:44Z</time>
      </trkpt>
      <trkpt lat="46.526026977226138" lon="12.189748724922538">
        <ele>2320.2800000000002</ele>
        <time>2015-07-15T09:40:00Z</time>
      </trkpt>
      <trkpt lat="46.526025552302599" lon="12.189695332199335">
        <ele>2320.2800000000002</ele>
        <time>2015-07-15T09:40:12Z</time>
      </trkpt>
      <trkpt lat="46.526052039116621" lon="12.189640933647752">
        <ele>2318.8400000000001</ele>
        <time>2015-07-15T09:40:25Z</time>
      </trkpt>
      <trkpt lat="46.526076514273882" lon="12.189566502347589">
        <ele>2320.2800000000002</ele>
        <time>2015-07-15T09:40:35Z</time>
      </trkpt>
      <trkpt lat="46.526089422404766" lon="12.189473044127226">
        <ele>2321.7199999999998</ele>
        <time>2015-07-15T09:40:45Z</time>
      </trkpt>
      <trkpt lat="46.526108616963029" lon="12.18938335776329">
        <ele>2323.1599999999999</ele>
        <time>2015-07-15T09:40:54Z</time>
      </trkpt>
      <trkpt lat="46.526143234223127" lon="12.189268190413713">
        <ele>2325.5700000000002</ele>
        <time>2015-07-15T09:41:08Z</time>
      </trkpt>
      <trkpt lat="46.526194615289569" lon="12.189204907044768">
        <ele>2327.0100000000002</ele>
        <time>2015-07-15T09:41:21Z</time>
      </trkpt>
      <trkpt lat="46.526224035769701" lon="12.189157046377659">
        <ele>2327.9699999999998</ele>
        <time>2015-07-15T09:41:31Z</time>
      </trkpt>
      <trkpt lat="46.526264185085893" lon="12.189102731645107">
        <ele>2329.4099999999999</ele>
        <time>2015-07-15T09:41:42Z</time>
      </trkpt>
      <trkpt lat="46.526298634707928" lon="12.189034083858132">
        <ele>2331.3299999999999</ele>
        <time>2015-07-15T09:41:57Z</time>
      </trkpt>
      <trkpt lat="46.526341382414103" lon="12.188951438292861">
        <ele>2333.2600000000002</ele>
        <time>2015-07-15T09:42:09Z</time>
      </trkpt>
      <trkpt lat="46.526405587792397" lon="12.188896620646119">
        <ele>2333.7399999999998</ele>
        <time>2015-07-15T09:42:22Z</time>
      </trkpt>
      <trkpt lat="46.526432577520609" lon="12.188855381682515">
        <ele>2334.2199999999998</ele>
        <time>2015-07-15T09:42:33Z</time>
      </trkpt>
      <trkpt lat="46.526473397389054" lon="12.188804419711232">
        <ele>2334.6999999999998</ele>
        <time>2015-07-15T09:42:44Z</time>
      </trkpt>
      <trkpt lat="46.52649812400341" lon="12.188767287880182">
        <ele>2335.6599999999999</ele>
        <time>2015-07-15T09:42:56Z</time>
      </trkpt>
      <trkpt lat="46.526506170630455" lon="12.188744070008397">
        <ele>2337.0999999999999</ele>
        <time>2015-07-15T09:43:07Z</time>
      </trkpt>
      <trkpt lat="46.526512373238802" lon="12.18871439807117">
        <ele>2338.54</ele>
        <time>2015-07-15T09:43:20Z</time>
      </trkpt>
      <trkpt lat="46.526529807597399" lon="12.188699478283525">
        <ele>2338.54</ele>
        <time>2015-07-15T09:43:29Z</time>
      </trkpt>
      <trkpt lat="46.526523856446147" lon="12.188653545454144">
        <ele>2339.5100000000002</ele>
        <time>2015-07-15T09:43:42Z</time>
      </trkpt>
      <trkpt lat="46.526498710736632" lon="12.188660083338618">
        <ele>2340.9499999999998</ele>
        <time>2015-07-15T09:43:51Z</time>
      </trkpt>
      <trkpt lat="46.526510445401073" lon="12.188653210178018">
        <ele>2340.9499999999998</ele>
        <time>2015-07-15T09:44:02Z</time>
      </trkpt>
      <trkpt lat="46.526506673544645" lon="12.18865136615932">
        <ele>2341.4299999999998</ele>
        <time>2015-07-15T09:44:20Z</time>
      </trkpt>
      <trkpt lat="46.526520419865847" lon="12.188623705878854">
        <ele>2342.8699999999999</ele>
        <time>2015-07-15T09:44:31Z</time>
      </trkpt>
      <trkpt lat="46.526517570018768" lon="12.188593111932278">
        <ele>2343.8299999999999</ele>
        <time>2015-07-15T09:44:43Z</time>
      </trkpt>
      <trkpt lat="46.52650005184114" lon="12.188552794978023">
        <ele>2345.75</ele>
        <time>2015-07-15T09:44:52Z</time>
      </trkpt>
      <trkpt lat="46.526508014649153" lon="12.188514908775687">
        <ele>2347.6799999999998</ele>
        <time>2015-07-15T09:45:01Z</time>
      </trkpt>
      <trkpt lat="46.526522599160671" lon="12.188461599871516">
        <ele>2348.6399999999999</ele>
        <time>2015-07-15T09:45:09Z</time>
      </trkpt>
      <trkpt lat="46.526555707678199" lon="12.188430083915591">
        <ele>2351.52</ele>
        <time>2015-07-15T09:45:19Z</time>
      </trkpt>
      <trkpt lat="46.526609687134624" lon="12.188384989276528">
        <ele>2350.5599999999999</ele>
        <time>2015-07-15T09:45:31Z</time>
      </trkpt>
      <trkpt lat="46.526619829237461" lon="12.188370153307915">
        <ele>2350.5599999999999</ele>
        <time>2015-07-15T09:45:33Z</time>
      </trkpt>
      <trkpt lat="46.526629216969013" lon="12.188357328996062">
        <ele>2350.5599999999999</ele>
        <time>2015-07-15T09:45:34Z</time>
      </trkpt>
      <trkpt lat="46.526714293286204" lon="12.188226319849491">
        <ele>2351.04</ele>
        <time>2015-07-15T09:45:45Z</time>
      </trkpt>
      <trkpt lat="46.526727620512247" lon="12.188200084492564">
        <ele>2351.04</ele>
        <time>2015-07-15T09:45:48Z</time>
      </trkpt>
      <trkpt lat="46.526735331863165" lon="12.188186338171363">
        <ele>2351.04</ele>
        <time>2015-07-15T09:45:49Z</time>
      </trkpt>
      <trkpt lat="46.526747569441795" lon="12.188171083107591">
        <ele>2350.5599999999999</ele>
        <time>2015-07-15T09:45:50Z</time>
      </trkpt>
      <trkpt lat="46.526797693222761" lon="12.188066057860851">
        <ele>2349.5999999999999</ele>
        <time>2015-07-15T09:46:03Z</time>
      </trkpt>
      <trkpt lat="46.526798279955983" lon="12.188046779483557">
        <ele>2349.5999999999999</ele>
        <time>2015-07-15T09:46:15Z</time>
      </trkpt>
      <trkpt lat="46.526839016005397" lon="12.187965642660856">
        <ele>2350.5599999999999</ele>
        <time>2015-07-15T09:46:25Z</time>
      </trkpt>
      <trkpt lat="46.526863574981689" lon="12.18791551887989">
        <ele>2351.52</ele>
        <time>2015-07-15T09:46:38Z</time>
      </trkpt>
      <trkpt lat="46.526855444535613" lon="12.187900934368372">
        <ele>2352.48</ele>
        <time>2015-07-15T09:47:00Z</time>
      </trkpt>
      <trkpt lat="46.526904227212071" lon="12.187854833900928">
        <ele>2353.4400000000001</ele>
        <time>2015-07-15T09:47:13Z</time>
      </trkpt>
      <trkpt lat="46.526920320466161" lon="12.187774870544672">
        <ele>2355.3699999999999</ele>
        <time>2015-07-15T09:47:25Z</time>
      </trkpt>
      <trkpt lat="46.526943286880851" lon="12.187699768692255">
        <ele>2356.3299999999999</ele>
        <time>2015-07-15T09:47:36Z</time>
      </trkpt>
      <trkpt lat="46.527007408440113" lon="12.187598263844848">
        <ele>2356.8099999999999</ele>
        <time>2015-07-15T09:47:46Z</time>
      </trkpt>
      <trkpt lat="46.527048144489527" lon="12.187428865581751">
        <ele>2356.8099999999999</ele>
        <time>2015-07-15T09:47:57Z</time>
      </trkpt>
      <trkpt lat="46.527101201936603" lon="12.187300454825163">
        <ele>2356.3299999999999</ele>
        <time>2015-07-15T09:48:06Z</time>
      </trkpt>
      <trkpt lat="46.527100531384349" lon="12.187286373227835">
        <ele>2356.3299999999999</ele>
        <time>2015-07-15T09:48:07Z</time>
      </trkpt>
      <trkpt lat="46.527101453393698" lon="12.187273465096951">
        <ele>2356.3299999999999</ele>
        <time>2015-07-15T09:48:08Z</time>
      </trkpt>
      <trkpt lat="46.527096088975668" lon="12.187106162309647">
        <ele>2355.3699999999999</ele>
        <time>2015-07-15T09:48:21Z</time>
      </trkpt>
      <trkpt lat="46.527109164744616" lon="12.187068611383438">
        <ele>2355.8499999999999</ele>
        <time>2015-07-15T09:48:24Z</time>
      </trkpt>
      <trkpt lat="46.527151158079505" lon="12.186975656077266">
        <ele>2355.3699999999999</ele>
        <time>2015-07-15T09:48:32Z</time>
      </trkpt>
      <trkpt lat="46.527156941592693" lon="12.186961658298969">
        <ele>2355.3699999999999</ele>
        <time>2015-07-15T09:48:33Z</time>
      </trkpt>
      <trkpt lat="46.527164988219738" lon="12.186946235597134">
        <ele>2355.3699999999999</ele>
        <time>2015-07-15T09:48:34Z</time>
      </trkpt>
      <trkpt lat="46.527201533317566" lon="12.186847161501646">
        <ele>2354.4099999999999</ele>
        <time>2015-07-15T09:48:45Z</time>
      </trkpt>
      <trkpt lat="46.527203628793359" lon="12.1868288051337">
        <ele>2354.4099999999999</ele>
        <time>2015-07-15T09:48:46Z</time>
      </trkpt>
      <trkpt lat="46.527220476418734" lon="12.186733335256577">
        <ele>2354.4099999999999</ele>
        <time>2015-07-15T09:48:54Z</time>
      </trkpt>
      <trkpt lat="46.527226846665144" lon="12.186618335545063">
        <ele>2354.8899999999999</ele>
        <time>2015-07-15T09:49:04Z</time>
      </trkpt>
      <trkpt lat="46.527282921597362" lon="12.186511047184467">
        <ele>2355.8499999999999</ele>
        <time>2015-07-15T09:49:14Z</time>
      </trkpt>
      <trkpt lat="46.527356430888176" lon="12.186368219554424">
        <ele>2354.4099999999999</ele>
        <time>2015-07-15T09:49:26Z</time>
      </trkpt>
      <trkpt lat="46.527355760335922" lon="12.186303175985813">
        <ele>2354.4099999999999</ele>
        <time>2015-07-15T09:49:32Z</time>
      </trkpt>
      <trkpt lat="46.527322567999363" lon="12.186200078576803">
        <ele>2352.96</ele>
        <time>2015-07-15T09:49:40Z</time>
      </trkpt>
      <trkpt lat="46.527357688173652" lon="12.186030931770802">
        <ele>2350.5599999999999</ele>
        <time>2015-07-15T09:49:50Z</time>
      </trkpt>
      <trkpt lat="46.527369674295187" lon="12.185920793563128">
        <ele>2352</ele>
        <time>2015-07-15T09:49:58Z</time>
      </trkpt>
      <trkpt lat="46.527387695387006" lon="12.185829095542431">
        <ele>2352.96</ele>
        <time>2015-07-15T09:50:06Z</time>
      </trkpt>
      <trkpt lat="46.527429772540927" lon="12.185715017840266">
        <ele>2352.96</ele>
        <time>2015-07-15T09:50:16Z</time>
      </trkpt>
      <trkpt lat="46.527469251304865" lon="12.185536650940776">
        <ele>2352.96</ele>
        <time>2015-07-15T09:50:27Z</time>
      </trkpt>
      <trkpt lat="46.527471514418721" lon="12.185520809143782">
        <ele>2352.96</ele>
        <time>2015-07-15T09:50:28Z</time>
      </trkpt>
      <trkpt lat="46.527471682056785" lon="12.185504548251629">
        <ele>2353.4400000000001</ele>
        <time>2015-07-15T09:50:29Z</time>
      </trkpt>
      <trkpt lat="46.527496073395014" lon="12.185246553272009">
        <ele>2352.48</ele>
        <time>2015-07-15T09:50:43Z</time>
      </trkpt>
      <trkpt lat="46.527526918798685" lon="12.185037592425942">
        <ele>2350.5599999999999</ele>
        <time>2015-07-15T09:50:55Z</time>
      </trkpt>
      <trkpt lat="46.527513340115547" lon="12.185008926317096">
        <ele>2350.5599999999999</ele>
        <time>2015-07-15T09:50:57Z</time>
      </trkpt>
      <trkpt lat="46.52750613167882" lon="12.184992665424943">
        <ele>2350.0799999999999</ele>
        <time>2015-07-15T09:50:58Z</time>
      </trkpt>
      <trkpt lat="46.527498001232743" lon="12.18497690744698">
        <ele>2350.0799999999999</ele>
        <time>2015-07-15T09:50:59Z</time>
      </trkpt>
      <trkpt lat="46.527466736733913" lon="12.184813963249326">
        <ele>2347.6799999999998</ele>
        <time>2015-07-15T09:51:10Z</time>
      </trkpt>
      <trkpt lat="46.527471346780658" lon="12.184797031804919">
        <ele>2347.1999999999998</ele>
        <time>2015-07-15T09:51:11Z</time>
      </trkpt>
      <trkpt lat="46.527506299316883" lon="12.184723522514105">
        <ele>2346.7199999999998</ele>
        <time>2015-07-15T09:51:19Z</time>
      </trkpt>
      <trkpt lat="46.527545610442758" lon="12.184479609131813">
        <ele>2346.7199999999998</ele>
        <time>2015-07-15T09:51:33Z</time>
      </trkpt>
      <trkpt lat="46.527538653463125" lon="12.184431748464704">
        <ele>2349.1199999999999</ele>
        <time>2015-07-15T09:51:40Z</time>
      </trkpt>
      <trkpt lat="46.527545694261789" lon="12.184338290244341">
        <ele>2350.5599999999999</ele>
        <time>2015-07-15T09:51:52Z</time>
      </trkpt>
      <trkpt lat="46.527567990124226" lon="12.184279533103108">
        <ele>2351.52</ele>
        <time>2015-07-15T09:52:02Z</time>
      </trkpt>
      <trkpt lat="46.527562960982323" lon="12.184163611382246">
        <ele>2353.4400000000001</ele>
        <time>2015-07-15T09:52:15Z</time>
      </trkpt>
      <trkpt lat="46.527559775859118" lon="12.184079037979245">
        <ele>2355.3699999999999</ele>
        <time>2015-07-15T09:52:26Z</time>
      </trkpt>
      <trkpt lat="46.527547370642424" lon="12.183981724083424">
        <ele>2358.25</ele>
        <time>2015-07-15T09:52:39Z</time>
      </trkpt>
      <trkpt lat="46.527523985132575" lon="12.183885583654046">
        <ele>2359.6900000000001</ele>
        <time>2015-07-15T09:52:52Z</time>
      </trkpt>
      <trkpt lat="46.527491211891174" lon="12.183768823742867">
        <ele>2361.1399999999999</ele>
        <time>2015-07-15T09:53:04Z</time>
      </trkpt>
      <trkpt lat="46.527511915192008" lon="12.183582494035363">
        <ele>2361.1399999999999</ele>
        <time>2015-07-15T09:53:16Z</time>
      </trkpt>
      <trkpt lat="46.527561452239752" lon="12.18339566141367">
        <ele>2360.1700000000001</ele>
        <time>2015-07-15T09:53:28Z</time>
      </trkpt>
      <trkpt lat="46.527626747265458" lon="12.183221066370606">
        <ele>2358.73</ele>
        <time>2015-07-15T09:53:40Z</time>
      </trkpt>
      <trkpt lat="46.527620125561953" lon="12.183019313961267">
        <ele>2357.29</ele>
        <time>2015-07-15T09:53:53Z</time>
      </trkpt>
      <trkpt lat="46.52758089825511" lon="12.182912277057767">
        <ele>2356.8099999999999</ele>
        <time>2015-07-15T09:54:01Z</time>
      </trkpt>
      <trkpt lat="46.527573522180319" lon="12.182899620383978">
        <ele>2356.8099999999999</ele>
        <time>2015-07-15T09:54:02Z</time>
      </trkpt>
      <trkpt lat="46.527566900476813" lon="12.182887466624379">
        <ele>2356.8099999999999</ele>
        <time>2015-07-15T09:54:03Z</time>
      </trkpt>
      <trkpt lat="46.52756136842072" lon="12.182874893769622">
        <ele>2356.8099999999999</ele>
        <time>2015-07-15T09:54:04Z</time>
      </trkpt>
      <trkpt lat="46.52755600400269" lon="12.182860979810357">
        <ele>2356.8099999999999</ele>
        <time>2015-07-15T09:54:05Z</time>
      </trkpt>
      <trkpt lat="46.527551142498851" lon="12.182849496603012">
        <ele>2356.8099999999999</ele>
        <time>2015-07-15T09:54:06Z</time>
      </trkpt>
      <trkpt lat="46.527545107528567" lon="12.182829715311527">
        <ele>2356.3299999999999</ele>
        <time>2015-07-15T09:54:17Z</time>
      </trkpt>
      <trkpt lat="46.527540916576982" lon="12.182825105264783">
        <ele>2356.8099999999999</ele>
        <time>2015-07-15T09:54:40Z</time>
      </trkpt>
      <trkpt lat="46.527545358985662" lon="12.182803060859442">
        <ele>2356.8099999999999</ele>
        <time>2015-07-15T09:54:57Z</time>
      </trkpt>
      <trkpt lat="46.527542844414711" lon="12.182768108323216">
        <ele>2356.3299999999999</ele>
        <time>2015-07-15T09:54:59Z</time>
      </trkpt>
      <trkpt lat="46.527474112808704" lon="12.182508520781994">
        <ele>2356.3299999999999</ele>
        <time>2015-07-15T09:55:13Z</time>
      </trkpt>
      <trkpt lat="46.527446284890175" lon="12.182252369821072">
        <ele>2354.8899999999999</ele>
        <time>2015-07-15T09:55:27Z</time>
      </trkpt>
      <trkpt lat="46.527473526075482" lon="12.181918602436781">
        <ele>2352.96</ele>
        <time>2015-07-15T09:55:44Z</time>
      </trkpt>
      <trkpt lat="46.527492385357618" lon="12.181664379313588">
        <ele>2350.5599999999999</ele>
        <time>2015-07-15T09:55:57Z</time>
      </trkpt>
      <trkpt lat="46.527504371479154" lon="12.181456172838807">
        <ele>2348.1599999999999</ele>
        <time>2015-07-15T09:56:08Z</time>
      </trkpt>
      <trkpt lat="46.527474699541926" lon="12.181366151198745">
        <ele>2347.6799999999998</ele>
        <time>2015-07-15T09:56:14Z</time>
      </trkpt>
      <trkpt lat="46.527471346780658" lon="12.181351147592068">
        <ele>2347.6799999999998</ele>
        <time>2015-07-15T09:56:15Z</time>
      </trkpt>
      <trkpt lat="46.527466736733913" lon="12.181337736546993">
        <ele>2347.6799999999998</ele>
        <time>2015-07-15T09:56:16Z</time>
      </trkpt>
      <trkpt lat="46.52746363542974" lon="12.181322984397411">
        <ele>2347.1999999999998</ele>
        <time>2015-07-15T09:56:17Z</time>
      </trkpt>
      <trkpt lat="46.527462797239423" lon="12.181305633857846">
        <ele>2347.1999999999998</ele>
        <time>2015-07-15T09:56:18Z</time>
      </trkpt>
      <trkpt lat="46.527464725077152" lon="12.181286523118615">
        <ele>2346.23</ele>
        <time>2015-07-15T09:56:19Z</time>
      </trkpt>
      <trkpt lat="46.527465563267469" lon="12.18126674182713">
        <ele>2346.23</ele>
        <time>2015-07-15T09:56:20Z</time>
      </trkpt>
      <trkpt lat="46.527464473620057" lon="12.181247463449836">
        <ele>2346.23</ele>
        <time>2015-07-15T09:56:21Z</time>
      </trkpt>
      <trkpt lat="46.527462545782328" lon="12.18122960999608">
        <ele>2346.23</ele>
        <time>2015-07-15T09:56:22Z</time>
      </trkpt>
      <trkpt lat="46.527458690106869" lon="12.181213516741991">
        <ele>2346.23</ele>
        <time>2015-07-15T09:56:23Z</time>
      </trkpt>
      <trkpt lat="46.527456007897854" lon="12.181196501478553">
        <ele>2346.23</ele>
        <time>2015-07-15T09:56:24Z</time>
      </trkpt>
      <trkpt lat="46.527434466406703" lon="12.181106982752681">
        <ele>2342.8699999999999</ele>
        <time>2015-07-15T09:56:30Z</time>
      </trkpt>
      <trkpt lat="46.527425665408373" lon="12.18100824393332">
        <ele>2340.9499999999998</ele>
        <time>2015-07-15T09:56:36Z</time>
      </trkpt>
      <trkpt lat="46.527398256585002" lon="12.18089978210628">
        <ele>2339.5100000000002</ele>
        <time>2015-07-15T09:56:43Z</time>
      </trkpt>
      <trkpt lat="46.527396999299526" lon="12.180880419909954">
        <ele>2339.5100000000002</ele>
        <time>2015-07-15T09:56:44Z</time>
      </trkpt>
      <trkpt lat="46.527394903823733" lon="12.180796349421144">
        <ele>2337.5799999999999</ele>
        <time>2015-07-15T09:56:49Z</time>
      </trkpt>
      <trkpt lat="46.527408314868808" lon="12.180587472394109">
        <ele>2335.1799999999998</ele>
        <time>2015-07-15T09:57:02Z</time>
      </trkpt>
      <trkpt lat="46.527429353445768" lon="12.180517567321658">
        <ele>2335.6599999999999</ele>
        <time>2015-07-15T09:57:12Z</time>
      </trkpt>
      <trkpt lat="46.527439830824733" lon="12.180493846535683">
        <ele>2336.1399999999999</ele>
        <time>2015-07-15T09:57:24Z</time>
      </trkpt>
      <trkpt lat="46.527443937957287" lon="12.180478004738688">
        <ele>2335.1799999999998</ele>
        <time>2015-07-15T09:57:32Z</time>
      </trkpt>
      <trkpt lat="46.527448883280158" lon="12.180428383871913">
        <ele>2335.1799999999998</ele>
        <time>2015-07-15T09:57:40Z</time>
      </trkpt>
      <trkpt lat="46.527444943785667" lon="12.180400053039193">
        <ele>2334.2199999999998</ele>
        <time>2015-07-15T09:57:50Z</time>
      </trkpt>
      <trkpt lat="46.527448212727904" lon="12.180423019453883">
        <ele>2334.2199999999998</ele>
        <time>2015-07-15T09:58:06Z</time>
      </trkpt>
      <trkpt lat="46.527439076453447" lon="12.180411703884602">
        <ele>2334.2199999999998</ele>
        <time>2015-07-15T09:58:31Z</time>
      </trkpt>
      <trkpt lat="46.527437483891845" lon="12.180415978655219">
        <ele>2334.2199999999998</ele>
        <time>2015-07-15T09:58:49Z</time>
      </trkpt>
      <trkpt lat="46.527439076453447" lon="12.180412374436855">
        <ele>2334.6999999999998</ele>
        <time>2015-07-15T09:59:15Z</time>
      </trkpt>
      <trkpt lat="46.527438573539257" lon="12.180418074131012">
        <ele>2334.2199999999998</ele>
        <time>2015-07-15T09:59:35Z</time>
      </trkpt>
      <trkpt lat="46.527448464184999" lon="12.180419834330678">
        <ele>2334.6999999999998</ele>
        <time>2015-07-15T09:59:59Z</time>
      </trkpt>
      <trkpt lat="46.527449302375317" lon="12.180422265082598">
        <ele>2334.6999999999998</ele>
        <time>2015-07-15T10:00:23Z</time>
      </trkpt>
      <trkpt lat="46.52743580751121" lon="12.180420588701963">
        <ele>2334.6999999999998</ele>
        <time>2015-07-15T10:00:43Z</time>
      </trkpt>
      <trkpt lat="46.527434047311544" lon="12.180419666692615">
        <ele>2334.6999999999998</ele>
        <time>2015-07-15T10:01:06Z</time>
      </trkpt>
      <trkpt lat="46.527439830824733" lon="12.180418325588107">
        <ele>2334.6999999999998</ele>
        <time>2015-07-15T10:01:25Z</time>
      </trkpt>
      <trkpt lat="46.527462797239423" lon="12.180400053039193">
        <ele>2335.1799999999998</ele>
        <time>2015-07-15T10:01:30Z</time>
      </trkpt>
      <trkpt lat="46.527463300153613" lon="12.180402064695954">
        <ele>2334.6999999999998</ele>
        <time>2015-07-15T10:01:42Z</time>
      </trkpt>
      <trkpt lat="46.527474783360958" lon="12.180407345294952">
        <ele>2334.6999999999998</ele>
        <time>2015-07-15T10:02:06Z</time>
      </trkpt>
      <trkpt lat="46.527477633208036" lon="12.18041991814971">
        <ele>2334.6999999999998</ele>
        <time>2015-07-15T10:02:27Z</time>
      </trkpt>
      <trkpt lat="46.527475118637085" lon="12.180396029725671">
        <ele>2334.6999999999998</ele>
        <time>2015-07-15T10:02:45Z</time>
      </trkpt>
      <trkpt lat="46.527479477226734" lon="12.180389743298292">
        <ele>2334.6999999999998</ele>
        <time>2015-07-15T10:03:04Z</time>
      </trkpt>
      <trkpt lat="46.527477214112878" lon="12.180404998362064">
        <ele>2335.1799999999998</ele>
        <time>2015-07-15T10:03:29Z</time>
      </trkpt>
      <trkpt lat="46.52746606618166" lon="12.180400639772415">
        <ele>2335.1799999999998</ele>
        <time>2015-07-15T10:04:00Z</time>
      </trkpt>
      <trkpt lat="46.527460534125566" lon="12.180386558175087">
        <ele>2334.6999999999998</ele>
        <time>2015-07-15T10:04:27Z</time>
      </trkpt>
      <trkpt lat="46.527457935735583" lon="12.180379601195455">
        <ele>2335.1799999999998</ele>
        <time>2015-07-15T10:04:54Z</time>
      </trkpt>
      <trkpt lat="46.527452152222395" lon="12.180377086624503">
        <ele>2335.6599999999999</ele>
        <time>2015-07-15T10:05:30Z</time>
      </trkpt>
      <trkpt lat="46.527443435043097" lon="12.180370213463902">
        <ele>2335.1799999999998</ele>
        <time>2015-07-15T10:05:51Z</time>
      </trkpt>
      <trkpt lat="46.527448631823063" lon="12.180373314768076">
        <ele>2335.1799999999998</ele>
        <time>2015-07-15T10:06:26Z</time>
      </trkpt>
      <trkpt lat="46.527457684278488" lon="12.180372392758727">
        <ele>2335.6599999999999</ele>
        <time>2015-07-15T10:06:54Z</time>
      </trkpt>
      <trkpt lat="46.527458019554615" lon="12.180372811853886">
        <ele>2335.6599999999999</ele>
        <time>2015-07-15T10:07:18Z</time>
      </trkpt>
      <trkpt lat="46.52745726518333" lon="12.180374739691615">
        <ele>2335.6599999999999</ele>
        <time>2015-07-15T10:07:52Z</time>
      </trkpt>
      <trkpt lat="46.527461875230074" lon="12.180374655872583">
        <ele>2335.6599999999999</ele>
        <time>2015-07-15T10:08:21Z</time>
      </trkpt>
      <trkpt lat="46.527458690106869" lon="12.180383624508977">
        <ele>2336.1399999999999</ele>
        <time>2015-07-15T10:08:49Z</time>
      </trkpt>
      <trkpt lat="46.527462881058455" lon="12.180386809632182">
        <ele>2336.1399999999999</ele>
        <time>2015-07-15T10:09:19Z</time>
      </trkpt>
      <trkpt lat="46.527466317638755" lon="12.180380607023835">
        <ele>2336.1399999999999</ele>
        <time>2015-07-15T10:09:52Z</time>
      </trkpt>
      <trkpt lat="46.527463719248772" lon="12.180384127423167">
        <ele>2336.6199999999999</ele>
        <time>2015-07-15T10:10:15Z</time>
      </trkpt>
      <trkpt lat="46.527464976534247" lon="12.180395191535354">
        <ele>2336.6199999999999</ele>
        <time>2015-07-15T10:10:39Z</time>
      </trkpt>
      <trkpt lat="46.527466652914882" lon="12.180389408022165">
        <ele>2336.6199999999999</ele>
        <time>2015-07-15T10:11:13Z</time>
      </trkpt>
      <trkpt lat="46.527463970705867" lon="12.180387564003468">
        <ele>2336.6199999999999</ele>
        <time>2015-07-15T10:11:44Z</time>
      </trkpt>
      <trkpt lat="46.527460953220725" lon="12.180384462699294">
        <ele>2337.5799999999999</ele>
        <time>2015-07-15T10:12:13Z</time>
      </trkpt>
      <trkpt lat="46.527457432821393" lon="12.18038328923285">
        <ele>2336.6199999999999</ele>
        <time>2015-07-15T10:12:45Z</time>
      </trkpt>
      <trkpt lat="46.527452319860458" lon="12.180376080796123">
        <ele>2336.6199999999999</ele>
        <time>2015-07-15T10:13:15Z</time>
      </trkpt>
      <trkpt lat="46.527444608509541" lon="12.180368369445205">
        <ele>2336.6199999999999</ele>
        <time>2015-07-15T10:13:44Z</time>
      </trkpt>
      <trkpt lat="46.527437400072813" lon="12.18036811798811">
        <ele>2337.5799999999999</ele>
        <time>2015-07-15T10:14:20Z</time>
      </trkpt>
      <trkpt lat="46.52743580751121" lon="12.180368369445205">
        <ele>2337.0999999999999</ele>
        <time>2015-07-15T10:14:48Z</time>
      </trkpt>
      <trkpt lat="46.527436813339591" lon="12.180368453264236">
        <ele>2337.5799999999999</ele>
        <time>2015-07-15T10:15:14Z</time>
      </trkpt>
      <trkpt lat="46.527437064796686" lon="12.180372560396791">
        <ele>2337.5799999999999</ele>
        <time>2015-07-15T10:15:40Z</time>
      </trkpt>
      <trkpt lat="46.527450559660792" lon="12.180364429950714">
        <ele>2337.5799999999999</ele>
        <time>2015-07-15T10:16:09Z</time>
      </trkpt>
      <trkpt lat="46.527456091716886" lon="12.180375913158059">
        <ele>2338.54</ele>
        <time>2015-07-15T10:16:35Z</time>
      </trkpt>
      <trkpt lat="46.527462545782328" lon="12.180375913158059">
        <ele>2338.0599999999999</ele>
        <time>2015-07-15T10:17:04Z</time>
      </trkpt>
      <trkpt lat="46.527469418942928" lon="12.180381696671247">
        <ele>2338.0599999999999</ele>
        <time>2015-07-15T10:17:36Z</time>
      </trkpt>
      <trkpt lat="46.527478471398354" lon="12.180385468527675">
        <ele>2337.5799999999999</ele>
        <time>2015-07-15T10:18:04Z</time>
      </trkpt>
      <trkpt lat="46.527491714805365" lon="12.180402483791113">
        <ele>2337.5799999999999</ele>
        <time>2015-07-15T10:18:34Z</time>
      </trkpt>
      <trkpt lat="46.5274812374264" lon="12.18039745464921">
        <ele>2337.5799999999999</ele>
        <time>2015-07-15T10:19:03Z</time>
      </trkpt>
      <trkpt lat="46.527473190799356" lon="12.180402651429176">
        <ele>2337.5799999999999</ele>
        <time>2015-07-15T10:19:33Z</time>
      </trkpt>
      <trkpt lat="46.527468916028738" lon="12.180403489619493">
        <ele>2338.0599999999999</ele>
        <time>2015-07-15T10:20:03Z</time>
      </trkpt>
      <trkpt lat="46.527472855523229" lon="12.180410781875253">
        <ele>2338.0599999999999</ele>
        <time>2015-07-15T10:20:27Z</time>
      </trkpt>
      <trkpt lat="46.527480985969305" lon="12.180412458255887">
        <ele>2337.5799999999999</ele>
        <time>2015-07-15T10:20:52Z</time>
      </trkpt>
      <trkpt lat="46.527478974312544" lon="12.1803979575634">
        <ele>2337.5799999999999</ele>
        <time>2015-07-15T10:21:17Z</time>
      </trkpt>
      <trkpt lat="46.527477214112878" lon="12.180404830724001">
        <ele>2337.5799999999999</ele>
        <time>2015-07-15T10:21:43Z</time>
      </trkpt>
      <trkpt lat="46.527484841644764" lon="12.180406926199794">
        <ele>2337.5799999999999</ele>
        <time>2015-07-15T10:22:19Z</time>
      </trkpt>
      <trkpt lat="46.527488697320223" lon="12.180405333638191">
        <ele>2337.5799999999999</ele>
        <time>2015-07-15T10:22:43Z</time>
      </trkpt>
      <trkpt lat="46.527476627379656" lon="12.180401310324669">
        <ele>2337.0999999999999</ele>
        <time>2015-07-15T10:23:14Z</time>
      </trkpt>
      <trkpt lat="46.527464222162962" lon="12.180386474356055">
        <ele>2337.0999999999999</ele>
        <time>2015-07-15T10:23:49Z</time>
      </trkpt>
      <trkpt lat="46.527461539953947" lon="12.18039158731699">
        <ele>2336.6199999999999</ele>
        <time>2015-07-15T10:24:18Z</time>
      </trkpt>
      <trkpt lat="46.5274587739259" lon="12.180393850430846">
        <ele>2337.5799999999999</ele>
        <time>2015-07-15T10:24:38Z</time>
      </trkpt>
      <trkpt lat="46.527470843866467" lon="12.180387899279594">
        <ele>2337.5799999999999</ele>
        <time>2015-07-15T10:25:05Z</time>
      </trkpt>
      <trkpt lat="46.527470424771309" lon="12.180390832945704">
        <ele>2337.5799999999999</ele>
        <time>2015-07-15T10:25:25Z</time>
      </trkpt>
      <trkpt lat="46.527470257133245" lon="12.180391503497958">
        <ele>2337.5799999999999</ele>
        <time>2015-07-15T10:25:44Z</time>
      </trkpt>
      <trkpt lat="46.527476292103529" lon="12.180392257869244">
        <ele>2336.6199999999999</ele>
        <time>2015-07-15T10:26:16Z</time>
      </trkpt>
      <trkpt lat="46.52747486717999" lon="12.180388737469912">
        <ele>2337.5799999999999</ele>
        <time>2015-07-15T10:26:34Z</time>
      </trkpt>
      <trkpt lat="46.527482243254781" lon="12.180397203192115">
        <ele>2337.5799999999999</ele>
        <time>2015-07-15T10:27:06Z</time>
      </trkpt>
      <trkpt lat="46.527483584359288" lon="12.180394353345037">
        <ele>2337.0999999999999</ele>
        <time>2015-07-15T10:27:22Z</time>
      </trkpt>
      <trkpt lat="46.527485344558954" lon="12.180394772440195">
        <ele>2337.5799999999999</ele>
        <time>2015-07-15T10:27:41Z</time>
      </trkpt>
      <trkpt lat="46.527480399236083" lon="12.180395191535354">
        <ele>2337.0999999999999</ele>
        <time>2015-07-15T10:28:14Z</time>
      </trkpt>
      <trkpt lat="46.527467742562294" lon="12.180402986705303">
        <ele>2337.0999999999999</ele>
        <time>2015-07-15T10:28:47Z</time>
      </trkpt>
      <trkpt lat="46.52746170759201" lon="12.180393263697624">
        <ele>2338.0599999999999</ele>
        <time>2015-07-15T10:29:13Z</time>
      </trkpt>
      <trkpt lat="46.527454247698188" lon="12.180401561781764">
        <ele>2336.6199999999999</ele>
        <time>2015-07-15T10:29:33Z</time>
      </trkpt>
      <trkpt lat="46.527455924078822" lon="12.180401897057891">
        <ele>2336.6199999999999</ele>
        <time>2015-07-15T10:29:55Z</time>
      </trkpt>
      <trkpt lat="46.527457600459456" lon="12.180402567610145">
        <ele>2337.0999999999999</ele>
        <time>2015-07-15T10:30:17Z</time>
      </trkpt>
      <trkpt lat="46.527452822774649" lon="12.180400472134352">
        <ele>2337.0999999999999</ele>
        <time>2015-07-15T10:30:37Z</time>
      </trkpt>
      <trkpt lat="46.527457097545266" lon="12.180395359173417">
        <ele>2337.5799999999999</ele>
        <time>2015-07-15T10:30:59Z</time>
      </trkpt>
      <trkpt lat="46.527464054524899" lon="12.180398963391781">
        <ele>2337.5799999999999</ele>
        <time>2015-07-15T10:31:19Z</time>
      </trkpt>
      <trkpt lat="46.527475286275148" lon="12.18038328923285">
        <ele>2338.54</ele>
        <time>2015-07-15T10:31:41Z</time>
      </trkpt>
      <trkpt lat="46.527481907978654" lon="12.180381780490279">
        <ele>2337.0999999999999</ele>
        <time>2015-07-15T10:32:01Z</time>
      </trkpt>
      <trkpt lat="46.527488948777318" lon="12.180377673357725">
        <ele>2337.5799999999999</ele>
        <time>2015-07-15T10:32:20Z</time>
      </trkpt>
      <trkpt lat="46.52749196626246" lon="12.180375242605805">
        <ele>2337.5799999999999</ele>
        <time>2015-07-15T10:32:41Z</time>
      </trkpt>
      <trkpt lat="46.527487356215715" lon="12.180380020290613">
        <ele>2338.54</ele>
        <time>2015-07-15T10:33:09Z</time>
      </trkpt>
      <trkpt lat="46.527483584359288" lon="12.180385049432516">
        <ele>2337.5799999999999</ele>
        <time>2015-07-15T10:33:31Z</time>
      </trkpt>
      <trkpt lat="46.527492133900523" lon="12.18038085848093">
        <ele>2338.0599999999999</ele>
        <time>2015-07-15T10:33:53Z</time>
      </trkpt>
      <trkpt lat="46.527499007061124" lon="12.180379098281264">
        <ele>2336.6199999999999</ele>
        <time>2015-07-15T10:34:07Z</time>
      </trkpt>
      <trkpt lat="46.527497917413712" lon="12.180390413850546">
        <ele>2337.5799999999999</ele>
        <time>2015-07-15T10:34:31Z</time>
      </trkpt>
      <trkpt lat="46.52749439701438" lon="12.180389324203134">
        <ele>2337.5799999999999</ele>
        <time>2015-07-15T10:34:55Z</time>
      </trkpt>
      <trkpt lat="46.527501856908202" lon="12.180384211242199">
        <ele>2337.5799999999999</ele>
        <time>2015-07-15T10:35:19Z</time>
      </trkpt>
      <trkpt lat="46.527502695098519" lon="12.180387228727341">
        <ele>2338.0599999999999</ele>
        <time>2015-07-15T10:35:39Z</time>
      </trkpt>
      <trkpt lat="46.527496492490172" lon="12.180387396365404">
        <ele>2337.0999999999999</ele>
        <time>2015-07-15T10:35:56Z</time>
      </trkpt>
      <trkpt lat="46.527503617107868" lon="12.180387061089277">
        <ele>2338.0599999999999</ele>
        <time>2015-07-15T10:36:13Z</time>
      </trkpt>
      <trkpt lat="46.527501689270139" lon="12.180385803803802">
        <ele>2337.5799999999999</ele>
        <time>2015-07-15T10:36:30Z</time>
      </trkpt>
      <trkpt lat="46.52749003842473" lon="12.180387228727341">
        <ele>2337.0999999999999</ele>
        <time>2015-07-15T10:36:53Z</time>
      </trkpt>
      <trkpt lat="46.527495738118887" lon="12.180387312546372">
        <ele>2338.0599999999999</ele>
        <time>2015-07-15T10:37:14Z</time>
      </trkpt>
      <trkpt lat="46.527491211891174" lon="12.180384546518326">
        <ele>2338.0599999999999</ele>
        <time>2015-07-15T10:37:30Z</time>
      </trkpt>
      <trkpt lat="46.527492385357618" lon="12.180389324203134">
        <ele>2338.0599999999999</ele>
        <time>2015-07-15T10:37:55Z</time>
      </trkpt>
      <trkpt lat="46.527485679835081" lon="12.180384043604136">
        <ele>2337.0999999999999</ele>
        <time>2015-07-15T10:38:20Z</time>
      </trkpt>
      <trkpt lat="46.527487440034747" lon="12.180384546518326">
        <ele>2337.5799999999999</ele>
        <time>2015-07-15T10:38:39Z</time>
      </trkpt>
      <trkpt lat="46.527493139728904" lon="12.180384965613484">
        <ele>2337.0999999999999</ele>
        <time>2015-07-15T10:38:59Z</time>
      </trkpt>
      <trkpt lat="46.527484254911542" lon="12.180381193757057">
        <ele>2337.5799999999999</ele>
        <time>2015-07-15T10:39:26Z</time>
      </trkpt>
      <trkpt lat="46.527473861351609" lon="12.180386306717992">
        <ele>2337.5799999999999</ele>
        <time>2015-07-15T10:39:53Z</time>
      </trkpt>
      <trkpt lat="46.527484841644764" lon="12.180384295061231">
        <ele>2337.5799999999999</ele>
        <time>2015-07-15T10:40:19Z</time>
      </trkpt>
      <trkpt lat="46.52748073451221" lon="12.180390916764736">
        <ele>2337.5799999999999</ele>
        <time>2015-07-15T10:40:39Z</time>
      </trkpt>
      <trkpt lat="46.527475034818053" lon="12.180393598973751">
        <ele>2336.1399999999999</ele>
        <time>2015-07-15T10:40:58Z</time>
      </trkpt>
      <trkpt lat="46.527465311810374" lon="12.180394437164068">
        <ele>2337.0999999999999</ele>
        <time>2015-07-15T10:41:15Z</time>
      </trkpt>
      <trkpt lat="46.52747293934226" lon="12.18038915656507">
        <ele>2336.6199999999999</ele>
        <time>2015-07-15T10:41:38Z</time>
      </trkpt>
      <trkpt lat="46.527465227991343" lon="12.180388234555721">
        <ele>2336.6199999999999</ele>
        <time>2015-07-15T10:42:04Z</time>
      </trkpt>
      <trkpt lat="46.527471849694848" lon="12.18038521707058">
        <ele>2336.6199999999999</ele>
        <time>2015-07-15T10:42:23Z</time>
      </trkpt>
      <trkpt lat="46.52749246917665" lon="12.180382199585438">
        <ele>2337.0999999999999</ele>
        <time>2015-07-15T10:42:52Z</time>
      </trkpt>
      <trkpt lat="46.52748417109251" lon="12.180386474356055">
        <ele>2337.5799999999999</ele>
        <time>2015-07-15T10:43:16Z</time>
      </trkpt>
      <trkpt lat="46.527476962655783" lon="12.180387228727341">
        <ele>2337.0999999999999</ele>
        <time>2015-07-15T10:43:37Z</time>
      </trkpt>
      <trkpt lat="46.527470340952277" lon="12.180384797975421">
        <ele>2337.0999999999999</ele>
        <time>2015-07-15T10:44:01Z</time>
      </trkpt>
      <trkpt lat="46.527482075616717" lon="12.180383959785104">
        <ele>2337.5799999999999</ele>
        <time>2015-07-15T10:44:30Z</time>
      </trkpt>
      <trkpt lat="46.527495235204697" lon="12.180378427729011">
        <ele>2337.0999999999999</ele>
        <time>2015-07-15T10:44:53Z</time>
      </trkpt>
      <trkpt lat="46.527493894100189" lon="12.180384797975421">
        <ele>2337.5799999999999</ele>
        <time>2015-07-15T10:45:18Z</time>
      </trkpt>
      <trkpt lat="46.527485009282827" lon="12.18038328923285">
        <ele>2337.5799999999999</ele>
        <time>2015-07-15T10:45:46Z</time>
      </trkpt>
      <trkpt lat="46.527491295710206" lon="12.180386306717992">
        <ele>2337.0999999999999</ele>
        <time>2015-07-15T10:46:07Z</time>
      </trkpt>
      <trkpt lat="46.527493558824062" lon="12.180384295061231">
        <ele>2337.0999999999999</ele>
        <time>2015-07-15T10:46:25Z</time>
      </trkpt>
      <trkpt lat="46.52750319801271" lon="12.180379601195455">
        <ele>2337.5799999999999</ele>
        <time>2015-07-15T10:46:56Z</time>
      </trkpt>
      <trkpt lat="46.527508730068803" lon="12.180388402193785">
        <ele>2337.0999999999999</ele>
        <time>2015-07-15T10:47:19Z</time>
      </trkpt>
      <trkpt lat="46.52751543559134" lon="12.180383540689945">
        <ele>2337.5799999999999</ele>
        <time>2015-07-15T10:47:44Z</time>
      </trkpt>
      <trkpt lat="46.527523566037416" lon="12.180386055260897">
        <ele>2337.0999999999999</ele>
        <time>2015-07-15T10:48:12Z</time>
      </trkpt>
      <trkpt lat="46.527513926848769" lon="12.180382870137691">
        <ele>2337.0999999999999</ele>
        <time>2015-07-15T10:48:30Z</time>
      </trkpt>
      <trkpt lat="46.527507975697517" lon="12.180392257869244">
        <ele>2337.0999999999999</ele>
        <time>2015-07-15T10:48:58Z</time>
      </trkpt>
      <trkpt lat="46.527510909363627" lon="12.18038672581315">
        <ele>2337.0999999999999</ele>
        <time>2015-07-15T10:49:18Z</time>
      </trkpt>
      <trkpt lat="46.527515854686499" lon="12.180380271747708">
        <ele>2337.0999999999999</ele>
        <time>2015-07-15T10:49:35Z</time>
      </trkpt>
      <trkpt lat="46.527509400621057" lon="12.180381277576089">
        <ele>2337.0999999999999</ele>
        <time>2015-07-15T10:49:55Z</time>
      </trkpt>
      <trkpt lat="46.527502527460456" lon="12.180387228727341">
        <ele>2337.5799999999999</ele>
        <time>2015-07-15T10:50:17Z</time>
      </trkpt>
      <trkpt lat="46.527505377307534" lon="12.180390665307641">
        <ele>2337.5799999999999</ele>
        <time>2015-07-15T10:50:36Z</time>
      </trkpt>
      <trkpt lat="46.527517111971974" lon="12.180381696671247">
        <ele>2337.0999999999999</ele>
        <time>2015-07-15T10:50:59Z</time>
      </trkpt>
      <trkpt lat="46.527518453076482" lon="12.180382283404469">
        <ele>2336.1399999999999</ele>
        <time>2015-07-15T10:51:26Z</time>
      </trkpt>
      <trkpt lat="46.527497163042426" lon="12.180382115766406">
        <ele>2338.0599999999999</ele>
        <time>2015-07-15T10:51:51Z</time>
      </trkpt>
      <trkpt lat="46.527490541338921" lon="12.180383121594787">
        <ele>2337.0999999999999</ele>
        <time>2015-07-15T10:51:54Z</time>
      </trkpt>
      <trkpt lat="46.527466317638755" lon="12.180392174050212">
        <ele>2337.0999999999999</ele>
        <time>2015-07-15T10:52:22Z</time>
      </trkpt>
      <trkpt lat="46.527472855523229" lon="12.180384043604136">
        <ele>2337.0999999999999</ele>
        <time>2015-07-15T10:52:46Z</time>
      </trkpt>
      <trkpt lat="46.527464976534247" lon="12.180389072746038">
        <ele>2337.0999999999999</ele>
        <time>2015-07-15T10:53:17Z</time>
      </trkpt>
      <trkpt lat="46.527460450306535" lon="12.180374823510647">
        <ele>2337.5799999999999</ele>
        <time>2015-07-15T10:53:53Z</time>
      </trkpt>
      <trkpt lat="46.527462210506201" lon="12.180365268141031">
        <ele>2337.5799999999999</ele>
        <time>2015-07-15T10:54:26Z</time>
      </trkpt>
      <trkpt lat="46.527484674006701" lon="12.180355545133352">
        <ele>2337.5799999999999</ele>
        <time>2015-07-15T10:54:45Z</time>
      </trkpt>
      <trkpt lat="46.527462964877486" lon="12.180372308939695">
        <ele>2337.0999999999999</ele>
        <time>2015-07-15T10:55:15Z</time>
      </trkpt>
      <trkpt lat="46.527474196627736" lon="12.1803720574826">
        <ele>2337.0999999999999</ele>
        <time>2015-07-15T10:55:41Z</time>
      </trkpt>
      <trkpt lat="46.527464305981994" lon="12.180379433557391">
        <ele>2337.5799999999999</ele>
        <time>2015-07-15T10:55:54Z</time>
      </trkpt>
      <trkpt lat="46.527477717027068" lon="12.180393179878592">
        <ele>2337.0999999999999</ele>
        <time>2015-07-15T10:56:12Z</time>
      </trkpt>
      <trkpt lat="46.527478052303195" lon="12.18038915656507">
        <ele>2337.0999999999999</ele>
        <time>2015-07-15T10:56:45Z</time>
      </trkpt>
      <trkpt lat="46.52747537009418" lon="12.180396700277925">
        <ele>2337.0999999999999</ele>
        <time>2015-07-15T10:56:58Z</time>
      </trkpt>
      <trkpt lat="46.527485009282827" lon="12.1803910844028">
        <ele>2337.0999999999999</ele>
        <time>2015-07-15T10:57:19Z</time>
      </trkpt>
      <trkpt lat="46.52750127017498" lon="12.180386893451214">
        <ele>2336.1399999999999</ele>
        <time>2015-07-15T10:57:38Z</time>
      </trkpt>
      <trkpt lat="46.527500180527568" lon="12.180384043604136">
        <ele>2336.6199999999999</ele>
        <time>2015-07-15T10:57:57Z</time>
      </trkpt>
      <trkpt lat="46.527489367872477" lon="12.180378092452884">
        <ele>2337.0999999999999</ele>
        <time>2015-07-15T10:58:22Z</time>
      </trkpt>
      <trkpt lat="46.527465730905533" lon="12.18038815073669">
        <ele>2337.0999999999999</ele>
        <time>2015-07-15T10:58:41Z</time>
      </trkpt>
      <trkpt lat="46.527455253526568" lon="12.180385971441865">
        <ele>2337.0999999999999</ele>
        <time>2015-07-15T10:59:05Z</time>
      </trkpt>
      <trkpt lat="46.527452571317554" lon="12.180391754955053">
        <ele>2337.0999999999999</ele>
        <time>2015-07-15T10:59:27Z</time>
      </trkpt>
      <trkpt lat="46.527467239648104" lon="12.18038085848093">
        <ele>2337.0999999999999</ele>
        <time>2015-07-15T10:59:47Z</time>
      </trkpt>
      <trkpt lat="46.527481991797686" lon="12.180368285626173">
        <ele>2337.0999999999999</ele>
        <time>2015-07-15T11:00:04Z</time>
      </trkpt>
      <trkpt lat="46.52746606618166" lon="12.180378763005137">
        <ele>2336.6199999999999</ele>
        <time>2015-07-15T11:00:30Z</time>
      </trkpt>
      <trkpt lat="46.527470927685499" lon="12.180380690842867">
        <ele>2337.5799999999999</ele>
        <time>2015-07-15T11:00:59Z</time>
      </trkpt>
      <trkpt lat="46.52746170759201" lon="12.18038278631866">
        <ele>2337.5799999999999</ele>
        <time>2015-07-15T11:01:28Z</time>
      </trkpt>
      <trkpt lat="46.527456929907203" lon="12.180379517376423">
        <ele>2337.5799999999999</ele>
        <time>2015-07-15T11:02:04Z</time>
      </trkpt>
      <trkpt lat="46.527460534125566" lon="12.180376332253218">
        <ele>2338.0599999999999</ele>
        <time>2015-07-15T11:02:27Z</time>
      </trkpt>
      <trkpt lat="46.527461456134915" lon="12.18037792481482">
        <ele>2337.0999999999999</ele>
        <time>2015-07-15T11:02:57Z</time>
      </trkpt>
      <trkpt lat="46.527480315417051" lon="12.180370967835188">
        <ele>2336.6199999999999</ele>
        <time>2015-07-15T11:03:25Z</time>
      </trkpt>
      <trkpt lat="46.527478974312544" lon="12.180379601195455">
        <ele>2337.0999999999999</ele>
        <time>2015-07-15T11:03:51Z</time>
      </trkpt>
      <trkpt lat="46.527482578530908" lon="12.180382031947374">
        <ele>2336.6199999999999</ele>
        <time>2015-07-15T11:04:19Z</time>
      </trkpt>
      <trkpt lat="46.527477884665132" lon="12.180381445214152">
        <ele>2337.5799999999999</ele>
        <time>2015-07-15T11:04:46Z</time>
      </trkpt>
      <trkpt lat="46.527462210506201" lon="12.180394437164068">
        <ele>2337.5799999999999</ele>
        <time>2015-07-15T11:05:11Z</time>
      </trkpt>
      <trkpt lat="46.527460450306535" lon="12.180384211242199">
        <ele>2337.0999999999999</ele>
        <time>2015-07-15T11:05:46Z</time>
      </trkpt>
      <trkpt lat="46.527459947392344" lon="12.180389994755387">
        <ele>2338.0599999999999</ele>
        <time>2015-07-15T11:05:58Z</time>
      </trkpt>
      <trkpt lat="46.527456846088171" lon="12.180394856259227">
        <ele>2335.6599999999999</ele>
        <time>2015-07-15T11:06:02Z</time>
      </trkpt>
      <trkpt lat="46.527454750612378" lon="12.180392844602466">
        <ele>2337.0999999999999</ele>
        <time>2015-07-15T11:06:05Z</time>
      </trkpt>
      <trkpt lat="46.527463803067803" lon="12.180385887622833">
        <ele>2337.0999999999999</ele>
        <time>2015-07-15T11:06:32Z</time>
      </trkpt>
      <trkpt lat="46.527467574924231" lon="12.180386055260897">
        <ele>2337.0999999999999</ele>
        <time>2015-07-15T11:07:01Z</time>
      </trkpt>
      <trkpt lat="46.527460031211376" lon="12.180397287011147">
        <ele>2337.5799999999999</ele>
        <time>2015-07-15T11:07:27Z</time>
      </trkpt>
      <trkpt lat="46.527456846088171" lon="12.180396365001798">
        <ele>2337.5799999999999</ele>
        <time>2015-07-15T11:07:48Z</time>
      </trkpt>
      <trkpt lat="46.527457097545266" lon="12.180397035554051">
        <ele>2338.0599999999999</ele>
        <time>2015-07-15T11:07:49Z</time>
      </trkpt>
      <trkpt lat="46.527456594631076" lon="12.180395778268576">
        <ele>2336.1399999999999</ele>
        <time>2015-07-15T11:07:52Z</time>
      </trkpt>
      <trkpt lat="46.527456259354949" lon="12.180392425507307">
        <ele>2336.6199999999999</ele>
        <time>2015-07-15T11:08:23Z</time>
      </trkpt>
      <trkpt lat="46.52745290659368" lon="12.18038521707058">
        <ele>2337.0999999999999</ele>
        <time>2015-07-15T11:08:51Z</time>
      </trkpt>
      <trkpt lat="46.527463383972645" lon="12.180387480184436">
        <ele>2336.6199999999999</ele>
        <time>2015-07-15T11:09:26Z</time>
      </trkpt>
      <trkpt lat="46.527443183586001" lon="12.180397538468242">
        <ele>2337.0999999999999</ele>
        <time>2015-07-15T11:09:57Z</time>
      </trkpt>
      <trkpt lat="46.527452571317554" lon="12.18038622289896">
        <ele>2336.6199999999999</ele>
        <time>2015-07-15T11:10:27Z</time>
      </trkpt>
      <trkpt lat="46.527461120858788" lon="12.180366609245539">
        <ele>2337.5799999999999</ele>
        <time>2015-07-15T11:10:47Z</time>
      </trkpt>
      <trkpt lat="46.527460282668471" lon="12.180376667529345">
        <ele>2336.6199999999999</ele>
        <time>2015-07-15T11:10:56Z</time>
      </trkpt>
      <trkpt lat="46.527458606287837" lon="12.180399382486939">
        <ele>2337.0999999999999</ele>
        <time>2015-07-15T11:11:14Z</time>
      </trkpt>
      <trkpt lat="46.527454666793346" lon="12.180403154343367">
        <ele>2338.0599999999999</ele>
        <time>2015-07-15T11:11:35Z</time>
      </trkpt>
      <trkpt lat="46.527442764490843" lon="12.180390330031514">
        <ele>2339.5100000000002</ele>
        <time>2015-07-15T11:11:42Z</time>
      </trkpt>
      <trkpt lat="46.527397250756621" lon="12.180427126586437">
        <ele>2338.0599999999999</ele>
        <time>2015-07-15T11:11:54Z</time>
      </trkpt>
      <trkpt lat="46.527399513870478" lon="12.180443722754717">
        <ele>2338.54</ele>
        <time>2015-07-15T11:12:08Z</time>
      </trkpt>
      <trkpt lat="46.527414014562964" lon="12.180433329194784">
        <ele>2339.02</ele>
        <time>2015-07-15T11:12:24Z</time>
      </trkpt>
      <trkpt lat="46.527427509427071" lon="12.180425282567739">
        <ele>2338.0599999999999</ele>
        <time>2015-07-15T11:12:38Z</time>
      </trkpt>
      <trkpt lat="46.527434466406703" lon="12.180443722754717">
        <ele>2338.54</ele>
        <time>2015-07-15T11:12:50Z</time>
      </trkpt>
      <trkpt lat="46.527449134737253" lon="12.180424192920327">
        <ele>2338.54</ele>
        <time>2015-07-15T11:13:06Z</time>
      </trkpt>
      <trkpt lat="46.527439747005701" lon="12.180414134636521">
        <ele>2338.0599999999999</ele>
        <time>2015-07-15T11:13:18Z</time>
      </trkpt>
      <trkpt lat="46.527416445314884" lon="12.180447159335017">
        <ele>2338.0599999999999</ele>
        <time>2015-07-15T11:13:28Z</time>
      </trkpt>
      <trkpt lat="46.527405297383666" lon="12.180481106042862">
        <ele>2338.54</ele>
        <time>2015-07-15T11:13:32Z</time>
      </trkpt>
      <trkpt lat="46.527416445314884" lon="12.180495606735349">
        <ele>2337.5799999999999</ele>
        <time>2015-07-15T11:13:41Z</time>
      </trkpt>
      <trkpt lat="46.527383085340261" lon="12.180529553443193">
        <ele>2336.6199999999999</ele>
        <time>2015-07-15T11:13:50Z</time>
      </trkpt>
      <trkpt lat="46.527376882731915" lon="12.180510610342026">
        <ele>2337.5799999999999</ele>
        <time>2015-07-15T11:14:02Z</time>
      </trkpt>
      <trkpt lat="46.527350731194019" lon="12.180539444088936">
        <ele>2336.1399999999999</ele>
        <time>2015-07-15T11:14:08Z</time>
      </trkpt>
      <trkpt lat="46.527321310713887" lon="12.180528799071908">
        <ele>2335.6599999999999</ele>
        <time>2015-07-15T11:14:21Z</time>
      </trkpt>
      <trkpt lat="46.527333967387676" lon="12.180520836263895">
        <ele>2336.1399999999999</ele>
        <time>2015-07-15T11:14:37Z</time>
      </trkpt>
      <trkpt lat="46.527324831113219" lon="12.180520417168736">
        <ele>2338.54</ele>
        <time>2015-07-15T11:14:52Z</time>
      </trkpt>
      <trkpt lat="46.527303038164973" lon="12.180542210116982">
        <ele>2337.0999999999999</ele>
        <time>2015-07-15T11:15:06Z</time>
      </trkpt>
      <trkpt lat="46.527264565229416" lon="12.180536175146699">
        <ele>2336.6199999999999</ele>
        <time>2015-07-15T11:15:16Z</time>
      </trkpt>
      <trkpt lat="46.52723497711122" lon="12.18050985597074">
        <ele>2336.1399999999999</ele>
        <time>2015-07-15T11:15:33Z</time>
      </trkpt>
      <trkpt lat="46.527224164456129" lon="12.180484794080257">
        <ele>2335.6599999999999</ele>
        <time>2015-07-15T11:15:45Z</time>
      </trkpt>
      <trkpt lat="46.527201114222407" lon="12.1804722212255">
        <ele>2334.2199999999998</ele>
        <time>2015-07-15T11:15:48Z</time>
      </trkpt>
      <trkpt lat="46.527194324880838" lon="12.180451937019825">
        <ele>2333.2600000000002</ele>
        <time>2015-07-15T11:15:50Z</time>
      </trkpt>
      <trkpt lat="46.527184518054128" lon="12.180427880957723">
        <ele>2333.2600000000002</ele>
        <time>2015-07-15T11:15:52Z</time>
      </trkpt>
      <trkpt lat="46.527181919664145" lon="12.180353365838528">
        <ele>2331.8099999999999</ele>
        <time>2015-07-15T11:15:57Z</time>
      </trkpt>
      <trkpt lat="46.527178734540939" lon="12.18033199198544">
        <ele>2333.2600000000002</ele>
        <time>2015-07-15T11:15:59Z</time>
      </trkpt>
      <trkpt lat="46.527174627408385" lon="12.180310031399131">
        <ele>2332.3000000000002</ele>
        <time>2015-07-15T11:16:01Z</time>
      </trkpt>
      <trkpt lat="46.527138920500875" lon="12.180154211819172">
        <ele>2329.8899999999999</ele>
        <time>2015-07-15T11:16:13Z</time>
      </trkpt>
      <trkpt lat="46.527111260220408" lon="12.18004172667861">
        <ele>2329.4099999999999</ele>
        <time>2015-07-15T11:16:22Z</time>
      </trkpt>
      <trkpt lat="46.527087790891528" lon="12.179893283173442">
        <ele>2329.4099999999999</ele>
        <time>2015-07-15T11:16:34Z</time>
      </trkpt>
      <trkpt lat="46.527066668495536" lon="12.179799741134048">
        <ele>2326.5300000000002</ele>
        <time>2015-07-15T11:16:41Z</time>
      </trkpt>
      <trkpt lat="46.527057616040111" lon="12.179604778066278">
        <ele>2324.1199999999999</ele>
        <time>2015-07-15T11:16:54Z</time>
      </trkpt>
      <trkpt lat="46.527087120339274" lon="12.179491454735398">
        <ele>2321.7199999999998</ele>
        <time>2015-07-15T11:17:05Z</time>
      </trkpt>
      <trkpt lat="46.5270961727947" lon="12.179398415610194">
        <ele>2321.2399999999998</ele>
        <time>2015-07-15T11:17:15Z</time>
      </trkpt>
      <trkpt lat="46.52714604511857" lon="12.179278638213873">
        <ele>2318.3600000000001</ele>
        <time>2015-07-15T11:17:28Z</time>
      </trkpt>
      <trkpt lat="46.527197090908885" lon="12.17917587608099">
        <ele>2315.4699999999998</ele>
        <time>2015-07-15T11:17:39Z</time>
      </trkpt>
      <trkpt lat="46.52721201069653" lon="12.179154250770807">
        <ele>2313.5500000000002</ele>
        <time>2015-07-15T11:17:51Z</time>
      </trkpt>
      <trkpt lat="46.527250986546278" lon="12.179045202210546">
        <ele>2310.1900000000001</ele>
        <time>2015-07-15T11:18:01Z</time>
      </trkpt>
      <trkpt lat="46.52727403678" lon="12.17895551584661">
        <ele>2306.8200000000002</ele>
        <time>2015-07-15T11:18:11Z</time>
      </trkpt>
      <trkpt lat="46.527295997366309" lon="12.178838001564145">
        <ele>2303.46</ele>
        <time>2015-07-15T11:18:22Z</time>
      </trkpt>
      <trkpt lat="46.527319215238094" lon="12.178773963823915">
        <ele>2301.5300000000002</ele>
        <time>2015-07-15T11:18:29Z</time>
      </trkpt>
      <trkpt lat="46.527327429503202" lon="12.17868528328836">
        <ele>2298.1700000000001</ele>
        <time>2015-07-15T11:18:37Z</time>
      </trkpt>
      <trkpt lat="46.527329524978995" lon="12.178675141185522">
        <ele>2298.1700000000001</ele>
        <time>2015-07-15T11:18:38Z</time>
      </trkpt>
      <trkpt lat="46.527344612404704" lon="12.178630298003554">
        <ele>2296.73</ele>
        <time>2015-07-15T11:18:50Z</time>
      </trkpt>
      <trkpt lat="46.52734880335629" lon="12.17860565520823">
        <ele>2296.25</ele>
        <time>2015-07-15T11:19:03Z</time>
      </trkpt>
      <trkpt lat="46.527352156117558" lon="12.178485207259655">
        <ele>2293.3600000000001</ele>
        <time>2015-07-15T11:19:15Z</time>
      </trkpt>
      <trkpt lat="46.527356095612049" lon="12.178389234468341">
        <ele>2290</ele>
        <time>2015-07-15T11:19:23Z</time>
      </trkpt>
      <trkpt lat="46.52736690826714" lon="12.178329806774855">
        <ele>2288.5599999999999</ele>
        <time>2015-07-15T11:19:29Z</time>
      </trkpt>
      <trkpt lat="46.527410326525569" lon="12.178184296935797">
        <ele>2284.71</ele>
        <time>2015-07-15T11:19:42Z</time>
      </trkpt>
      <trkpt lat="46.527430526912212" lon="12.178125875070691">
        <ele>2280.8699999999999</ele>
        <time>2015-07-15T11:19:47Z</time>
      </trkpt>
      <trkpt lat="46.527435136958957" lon="12.178118079900742">
        <ele>2280.8699999999999</ele>
        <time>2015-07-15T11:19:48Z</time>
      </trkpt>
      <trkpt lat="46.527471011504531" lon="12.178013892844319">
        <ele>2280.3800000000001</ele>
        <time>2015-07-15T11:19:57Z</time>
      </trkpt>
      <trkpt lat="46.527523314580321" lon="12.177797136828303">
        <ele>2278.46</ele>
        <time>2015-07-15T11:20:12Z</time>
      </trkpt>
      <trkpt lat="46.527556674554944" lon="12.177672833204269">
        <ele>2277.5</ele>
        <time>2015-07-15T11:20:23Z</time>
      </trkpt>
      <trkpt lat="46.527584753930569" lon="12.177566969767213">
        <ele>2275.0999999999999</ele>
        <time>2015-07-15T11:20:35Z</time>
      </trkpt>
      <trkpt lat="46.527623059228063" lon="12.177444929257035">
        <ele>2272.6900000000001</ele>
        <time>2015-07-15T11:20:48Z</time>
      </trkpt>
      <trkpt lat="46.527649462223053" lon="12.177300341427326">
        <ele>2269.8099999999999</ele>
        <time>2015-07-15T11:20:59Z</time>
      </trkpt>
      <trkpt lat="46.527655329555273" lon="12.177254995331168">
        <ele>2269.3299999999999</ele>
        <time>2015-07-15T11:21:02Z</time>
      </trkpt>
      <trkpt lat="46.527705704793334" lon="12.177054919302464">
        <ele>2265.96</ele>
        <time>2015-07-15T11:21:16Z</time>
      </trkpt>
      <trkpt lat="46.527765719220042" lon="12.176864231005311">
        <ele>2262.5999999999999</ele>
        <time>2015-07-15T11:21:29Z</time>
      </trkpt>
      <trkpt lat="46.527820201590657" lon="12.176701789721847">
        <ele>2259.7199999999998</ele>
        <time>2015-07-15T11:21:39Z</time>
      </trkpt>
      <trkpt lat="46.527870241552591" lon="12.176509005948901">
        <ele>2256.8299999999999</ele>
        <time>2015-07-15T11:21:51Z</time>
      </trkpt>
      <trkpt lat="46.527892621234059" lon="12.176444800570607">
        <ele>2255.3899999999999</ele>
        <time>2015-07-15T11:21:55Z</time>
      </trkpt>
      <trkpt lat="46.527906786650419" lon="12.176344804465771">
        <ele>2255.3899999999999</ele>
        <time>2015-07-15T11:22:02Z</time>
      </trkpt>
      <trkpt lat="46.527922376990318" lon="12.176153864711523">
        <ele>2252.9899999999998</ele>
        <time>2015-07-15T11:22:14Z</time>
      </trkpt>
      <trkpt lat="46.527923718094826" lon="12.175958147272468">
        <ele>2250.5799999999999</ele>
        <time>2015-07-15T11:22:26Z</time>
      </trkpt>
      <trkpt lat="46.527933524921536" lon="12.17576234601438">
        <ele>2247.2199999999998</ele>
        <time>2015-07-15T11:22:38Z</time>
      </trkpt>
      <trkpt lat="46.527949785813689" lon="12.175654722377658">
        <ele>2246.2600000000002</ele>
        <time>2015-07-15T11:22:50Z</time>
      </trkpt>
      <trkpt lat="46.52796202339232" lon="12.175628487020731">
        <ele>2245.3000000000002</ele>
        <time>2015-07-15T11:22:59Z</time>
      </trkpt>
      <trkpt lat="46.527890944853425" lon="12.175529664382339">
        <ele>2245.7800000000002</ele>
        <time>2015-07-15T11:23:09Z</time>
      </trkpt>
      <trkpt lat="46.527879796922207" lon="12.175497813150287">
        <ele>2246.2600000000002</ele>
        <time>2015-07-15T11:23:11Z</time>
      </trkpt>
      <trkpt lat="46.527874432504177" lon="12.175363451242447">
        <ele>2245.3000000000002</ele>
        <time>2015-07-15T11:23:19Z</time>
      </trkpt>
      <trkpt lat="46.52790586464107" lon="12.175311734899879">
        <ele>2242.8899999999999</ele>
        <time>2015-07-15T11:23:27Z</time>
      </trkpt>
      <trkpt lat="46.527853477746248" lon="12.175279464572668">
        <ele>2243.8499999999999</ele>
        <time>2015-07-15T11:23:33Z</time>
      </trkpt>
      <trkpt lat="46.527740405872464" lon="12.175152646377683">
        <ele>2246.2600000000002</ele>
        <time>2015-07-15T11:23:48Z</time>
      </trkpt>
      <trkpt lat="46.527727749198675" lon="12.175116604194045">
        <ele>2246.7399999999998</ele>
        <time>2015-07-15T11:23:52Z</time>
      </trkpt>
      <trkpt lat="46.527687851339579" lon="12.17499908991158">
        <ele>2247.6999999999998</ele>
        <time>2015-07-15T11:24:03Z</time>
      </trkpt>
      <trkpt lat="46.527641331776977" lon="12.174838492646813">
        <ele>2249.6199999999999</ele>
        <time>2015-07-15T11:24:15Z</time>
      </trkpt>
      <trkpt lat="46.527594476938248" lon="12.174727264791727">
        <ele>2250.0999999999999</ele>
        <time>2015-07-15T11:24:27Z</time>
      </trkpt>
      <trkpt lat="46.527550891041756" lon="12.17471175827086">
        <ele>2249.6199999999999</ele>
        <time>2015-07-15T11:24:32Z</time>
      </trkpt>
      <trkpt lat="46.527464557439089" lon="12.174684600904584">
        <ele>2250.0999999999999</ele>
        <time>2015-07-15T11:24:40Z</time>
      </trkpt>
      <trkpt lat="46.527321981266141" lon="12.174605978652835">
        <ele>2247.6999999999998</ele>
        <time>2015-07-15T11:24:53Z</time>
      </trkpt>
      <trkpt lat="46.527196420356631" lon="12.174505982547998">
        <ele>2245.7800000000002</ele>
        <time>2015-07-15T11:25:06Z</time>
      </trkpt>
      <trkpt lat="46.527131544426084" lon="12.174453428015113">
        <ele>2244.3299999999999</ele>
        <time>2015-07-15T11:25:13Z</time>
      </trkpt>
      <trkpt lat="46.527119893580675" lon="12.174460552632809">
        <ele>2244.8200000000002</ele>
        <time>2015-07-15T11:25:18Z</time>
      </trkpt>
      <trkpt lat="46.526993662118912" lon="12.174541940912604">
        <ele>2242.8899999999999</ele>
        <time>2015-07-15T11:25:29Z</time>
      </trkpt>
      <trkpt lat="46.526886625215411" lon="12.174486117437482">
        <ele>2240.9699999999998</ele>
        <time>2015-07-15T11:25:40Z</time>
      </trkpt>
      <trkpt lat="46.526819989085197" lon="12.174422079697251">
        <ele>2239.5300000000002</ele>
        <time>2015-07-15T11:25:51Z</time>
      </trkpt>
      <trkpt lat="46.526815965771675" lon="12.174442363902926">
        <ele>2240.9699999999998</ele>
        <time>2015-07-15T11:26:09Z</time>
      </trkpt>
      <trkpt lat="46.526797609403729" lon="12.174441106617451">
        <ele>2239.0500000000002</ele>
        <time>2015-07-15T11:26:19Z</time>
      </trkpt>
      <trkpt lat="46.52677271515131" lon="12.174461307004094">
        <ele>2238.5700000000002</ele>
        <time>2015-07-15T11:26:38Z</time>
      </trkpt>
      <trkpt lat="46.526626786217093" lon="12.174604805186391">
        <ele>2236.1599999999999</ele>
        <time>2015-07-15T11:26:53Z</time>
      </trkpt>
      <trkpt lat="46.526639107614756" lon="12.174742016941309">
        <ele>2234.2399999999998</ele>
        <time>2015-07-15T11:27:01Z</time>
      </trkpt>
      <trkpt lat="46.526620332151651" lon="12.174814436584711">
        <ele>2232.3200000000002</ele>
        <time>2015-07-15T11:27:05Z</time>
      </trkpt>
      <trkpt lat="46.526565430685878" lon="12.174932453781366">
        <ele>2230.8800000000001</ele>
        <time>2015-07-15T11:27:13Z</time>
      </trkpt>
      <trkpt lat="46.526518408209085" lon="12.174907559528947">
        <ele>2229.9200000000001</ele>
        <time>2015-07-15T11:27:18Z</time>
      </trkpt>
      <trkpt lat="46.526469457894564" lon="12.174722151830792">
        <ele>2227.5100000000002</ele>
        <time>2015-07-15T11:27:32Z</time>
      </trkpt>
      <trkpt lat="46.526464512571692" lon="12.174738999456167">
        <ele>2227.0300000000002</ele>
        <time>2015-07-15T11:27:33Z</time>
      </trkpt>
      <trkpt lat="46.526441210880876" lon="12.1748011931777">
        <ele>2226.0700000000002</ele>
        <time>2015-07-15T11:27:37Z</time>
      </trkpt>
      <trkpt lat="46.526395697146654" lon="12.174995234236121">
        <ele>2223.1900000000001</ele>
        <time>2015-07-15T11:27:49Z</time>
      </trkpt>
      <trkpt lat="46.526343896985054" lon="12.17523068189621">
        <ele>2223.1900000000001</ele>
        <time>2015-07-15T11:28:03Z</time>
      </trkpt>
      <trkpt lat="46.526257060468197" lon="12.17539731413126">
        <ele>2218.3800000000001</ele>
        <time>2015-07-15T11:28:15Z</time>
      </trkpt>
      <trkpt lat="46.526250103488564" lon="12.175410138443112">
        <ele>2218.3800000000001</ele>
        <time>2015-07-15T11:28:16Z</time>
      </trkpt>
      <trkpt lat="46.526152454316616" lon="12.175585571676493">
        <ele>2215.5</ele>
        <time>2015-07-15T11:28:28Z</time>
      </trkpt>
      <trkpt lat="46.526090009137988" lon="12.175772823393345">
        <ele>2214.0500000000002</ele>
        <time>2015-07-15T11:28:40Z</time>
      </trkpt>
      <trkpt lat="46.526040891185403" lon="12.1759098675102">
        <ele>2213.0900000000001</ele>
        <time>2015-07-15T11:28:48Z</time>
      </trkpt>
      <trkpt lat="46.525916587561369" lon="12.17613123357296">
        <ele>2212.1300000000001</ele>
        <time>2015-07-15T11:29:03Z</time>
      </trkpt>
      <trkpt lat="46.525776777416468" lon="12.176338266581297">
        <ele>2212.1300000000001</ele>
        <time>2015-07-15T11:29:19Z</time>
      </trkpt>
      <trkpt lat="46.525738053023815" lon="12.176356790587306">
        <ele>2213.0900000000001</ele>
        <time>2015-07-15T11:29:30Z</time>
      </trkpt>
      <trkpt lat="46.525734700262547" lon="12.176357544958591">
        <ele>2212.1300000000001</ele>
        <time>2015-07-15T11:29:50Z</time>
      </trkpt>
      <trkpt lat="46.525703435763717" lon="12.17643465846777">
        <ele>2212.1300000000001</ele>
        <time>2015-07-15T11:30:10Z</time>
      </trkpt>
      <trkpt lat="46.525663956999779" lon="12.176695838570595">
        <ele>2212.1300000000001</ele>
        <time>2015-07-15T11:30:24Z</time>
      </trkpt>
      <trkpt lat="46.525593465194106" lon="12.176920725032687">
        <ele>2211.1700000000001</ele>
        <time>2015-07-15T11:30:37Z</time>
      </trkpt>
      <trkpt lat="46.525564463809133" lon="12.177142845466733">
        <ele>2210.6900000000001</ele>
        <time>2015-07-15T11:30:49Z</time>
      </trkpt>
      <trkpt lat="46.5255575068295" lon="12.17739237472415">
        <ele>2208.29</ele>
        <time>2015-07-15T11:31:03Z</time>
      </trkpt>
      <trkpt lat="46.525592878460884" lon="12.177498824894428">
        <ele>2205.4000000000001</ele>
        <time>2015-07-15T11:31:11Z</time>
      </trkpt>
      <trkpt lat="46.525597404688597" lon="12.177515421062708">
        <ele>2204.9200000000001</ele>
        <time>2015-07-15T11:31:12Z</time>
      </trkpt>
      <trkpt lat="46.525616850703955" lon="12.177590858191252">
        <ele>2203</ele>
        <time>2015-07-15T11:31:16Z</time>
      </trkpt>
      <trkpt lat="46.525625567883253" lon="12.177626648917794">
        <ele>2202.52</ele>
        <time>2015-07-15T11:31:18Z</time>
      </trkpt>
      <trkpt lat="46.525592543184757" lon="12.177683897316456">
        <ele>2202.04</ele>
        <time>2015-07-15T11:31:23Z</time>
      </trkpt>
      <trkpt lat="46.525567481294274" lon="12.177934683859348">
        <ele>2199.6300000000001</ele>
        <time>2015-07-15T11:31:38Z</time>
      </trkpt>
      <trkpt lat="46.525608636438847" lon="12.178077343851328">
        <ele>2197.23</ele>
        <time>2015-07-15T11:31:47Z</time>
      </trkpt>
      <trkpt lat="46.525555662810802" lon="12.178245568647981">
        <ele>2195.79</ele>
        <time>2015-07-15T11:31:58Z</time>
      </trkpt>
      <trkpt lat="46.525536132976413" lon="12.178281862288713">
        <ele>2194.3499999999999</ele>
        <time>2015-07-15T11:32:02Z</time>
      </trkpt>
      <trkpt lat="46.52551107108593" lon="12.178451847285032">
        <ele>2191.46</ele>
        <time>2015-07-15T11:32:15Z</time>
      </trkpt>
      <trkpt lat="46.525505119934678" lon="12.17849425971508">
        <ele>2190.98</ele>
        <time>2015-07-15T11:32:18Z</time>
      </trkpt>
      <trkpt lat="46.525501767173409" lon="12.178569445386529">
        <ele>2189.54</ele>
        <time>2015-07-15T11:32:23Z</time>
      </trkpt>
      <trkpt lat="46.525485841557384" lon="12.178735490888357">
        <ele>2186.6599999999999</ele>
        <time>2015-07-15T11:32:36Z</time>
      </trkpt>
      <trkpt lat="46.525483578443527" lon="12.178795337677002">
        <ele>2185.6900000000001</ele>
        <time>2015-07-15T11:32:40Z</time>
      </trkpt>
      <trkpt lat="46.525425491854548" lon="12.17898728325963">
        <ele>2183.29</ele>
        <time>2015-07-15T11:32:52Z</time>
      </trkpt>
      <trkpt lat="46.525388192385435" lon="12.179097086191177">
        <ele>2181.3699999999999</ele>
        <time>2015-07-15T11:32:59Z</time>
      </trkpt>
      <trkpt lat="46.525349300354719" lon="12.179248379543424">
        <ele>2179.9299999999998</ele>
        <time>2015-07-15T11:33:10Z</time>
      </trkpt>
      <trkpt lat="46.525301858782768" lon="12.179329432547092">
        <ele>2176.5599999999999</ele>
        <time>2015-07-15T11:33:19Z</time>
      </trkpt>
      <trkpt lat="46.525298003107309" lon="12.179342843592167">
        <ele>2176.5599999999999</ele>
        <time>2015-07-15T11:33:20Z</time>
      </trkpt>
      <trkpt lat="46.525233378633857" lon="12.179362289607525">
        <ele>2174.6399999999999</ele>
        <time>2015-07-15T11:33:28Z</time>
      </trkpt>
      <trkpt lat="46.525160791352391" lon="12.179364468902349">
        <ele>2171.27</ele>
        <time>2015-07-15T11:33:37Z</time>
      </trkpt>
      <trkpt lat="46.525140004232526" lon="12.179357595741749">
        <ele>2170.79</ele>
        <time>2015-07-15T11:33:39Z</time>
      </trkpt>
      <trkpt lat="46.525112679228187" lon="12.179380813613534">
        <ele>2169.8299999999999</ele>
        <time>2015-07-15T11:33:43Z</time>
      </trkpt>
      <trkpt lat="46.525056269019842" lon="12.179486844688654">
        <ele>2166.4699999999998</ele>
        <time>2015-07-15T11:33:55Z</time>
      </trkpt>
      <trkpt lat="46.525045288726687" lon="12.179507547989488">
        <ele>2166.4699999999998</ele>
        <time>2015-07-15T11:33:57Z</time>
      </trkpt>
      <trkpt lat="46.52502341195941" lon="12.179557085037231">
        <ele>2165.0300000000002</ele>
        <time>2015-07-15T11:34:03Z</time>
      </trkpt>
      <trkpt lat="46.525041852146387" lon="12.179569154977798">
        <ele>2163.5799999999999</ele>
        <time>2015-07-15T11:34:06Z</time>
      </trkpt>
      <trkpt lat="46.525028357282281" lon="12.179562449455261">
        <ele>2164.5500000000002</ele>
        <time>2015-07-15T11:34:21Z</time>
      </trkpt>
      <trkpt lat="46.524965409189463" lon="12.179600168019533">
        <ele>2163.0999999999999</ele>
        <time>2015-07-15T11:34:31Z</time>
      </trkpt>
      <trkpt lat="46.524909418076277" lon="12.179556917399168">
        <ele>2161.1799999999998</ele>
        <time>2015-07-15T11:34:38Z</time>
      </trkpt>
      <trkpt lat="46.524799950420856" lon="12.179518779739738">
        <ele>2161.6599999999999</ele>
        <time>2015-07-15T11:34:49Z</time>
      </trkpt>
      <trkpt lat="46.52474882081151" lon="12.179682059213519">
        <ele>2161.6599999999999</ele>
        <time>2015-07-15T11:35:00Z</time>
      </trkpt>
      <trkpt lat="46.524728117510676" lon="12.179888756945729">
        <ele>2158.3000000000002</ele>
        <time>2015-07-15T11:35:13Z</time>
      </trkpt>
      <trkpt lat="46.52468235231936" lon="12.18007885850966">
        <ele>2155.4099999999999</ele>
        <time>2015-07-15T11:35:25Z</time>
      </trkpt>
      <trkpt lat="46.524677658453584" lon="12.18009646050632">
        <ele>2154.9299999999998</ele>
        <time>2015-07-15T11:35:26Z</time>
      </trkpt>
      <trkpt lat="46.524620074778795" lon="12.180153792724013">
        <ele>2153.9699999999998</ele>
        <time>2015-07-15T11:35:31Z</time>
      </trkpt>
      <trkpt lat="46.52448839507997" lon="12.180224368348718">
        <ele>2153.0100000000002</ele>
        <time>2015-07-15T11:35:44Z</time>
      </trkpt>
      <trkpt lat="46.524410275742412" lon="12.180229984223843">
        <ele>2151.0900000000001</ele>
        <time>2015-07-15T11:35:51Z</time>
      </trkpt>
      <trkpt lat="46.524298377335072" lon="12.180191595107317">
        <ele>2148.1999999999998</ele>
        <time>2015-07-15T11:36:03Z</time>
      </trkpt>
      <trkpt lat="46.524230903014541" lon="12.180102746933699">
        <ele>2147.2399999999998</ele>
        <time>2015-07-15T11:36:12Z</time>
      </trkpt>
      <trkpt lat="46.524220090359449" lon="12.180090928450227">
        <ele>2146.7600000000002</ele>
        <time>2015-07-15T11:36:13Z</time>
      </trkpt>
      <trkpt lat="46.524173067882657" lon="12.179996212944388">
        <ele>2146.7600000000002</ele>
        <time>2015-07-15T11:36:21Z</time>
      </trkpt>
      <trkpt lat="46.524149514734745" lon="12.179862270131707">
        <ele>2146.2800000000002</ele>
        <time>2015-07-15T11:36:30Z</time>
      </trkpt>
      <trkpt lat="46.524135014042258" lon="12.179833268746734">
        <ele>2145.3200000000002</ele>
        <time>2015-07-15T11:36:32Z</time>
      </trkpt>
      <trkpt lat="46.524081286042929" lon="12.179776187986135">
        <ele>2143.8800000000001</ele>
        <time>2015-07-15T11:36:38Z</time>
      </trkpt>
      <trkpt lat="46.524056810885668" lon="12.17968013137579">
        <ele>2142.4400000000001</ele>
        <time>2015-07-15T11:36:44Z</time>
      </trkpt>
      <trkpt lat="46.523993192240596" lon="12.179566640406847">
        <ele>2141.9499999999998</ele>
        <time>2015-07-15T11:36:52Z</time>
      </trkpt>
      <trkpt lat="46.523991012945771" lon="12.179455412551761">
        <ele>2140.9899999999998</ele>
        <time>2015-07-15T11:36:59Z</time>
      </trkpt>
      <trkpt lat="46.524005010724068" lon="12.179360613226891">
        <ele>2139.5500000000002</ele>
        <time>2015-07-15T11:37:05Z</time>
      </trkpt>
      <trkpt lat="46.52400953695178" lon="12.179230777546763">
        <ele>2137.1500000000001</ele>
        <time>2015-07-15T11:37:14Z</time>
      </trkpt>
      <trkpt lat="46.524021355435252" lon="12.179203703999519">
        <ele>2136.1900000000001</ele>
        <time>2015-07-15T11:37:16Z</time>
      </trkpt>
      <trkpt lat="46.524021187797189" lon="12.179155424237251">
        <ele>2135.23</ele>
        <time>2015-07-15T11:37:19Z</time>
      </trkpt>
      <trkpt lat="46.524046417325735" lon="12.178962640464306">
        <ele>2133.3000000000002</ele>
        <time>2015-07-15T11:37:31Z</time>
      </trkpt>
      <trkpt lat="46.524064522236586" lon="12.178873540833592">
        <ele>2133.3000000000002</ele>
        <time>2015-07-15T11:37:37Z</time>
      </trkpt>
      <trkpt lat="46.524102995172143" lon="12.178817465901375">
        <ele>2128.98</ele>
        <time>2015-07-15T11:37:42Z</time>
      </trkpt>
      <trkpt lat="46.524119172245264" lon="12.178787793964148">
        <ele>2128.02</ele>
        <time>2015-07-15T11:37:44Z</time>
      </trkpt>
      <trkpt lat="46.524147586897016" lon="12.178747896105051">
        <ele>2127.5300000000002</ele>
        <time>2015-07-15T11:37:48Z</time>
      </trkpt>
      <trkpt lat="46.524152448400855" lon="12.178696012124419">
        <ele>2126.0900000000001</ele>
        <time>2015-07-15T11:37:59Z</time>
      </trkpt>
      <trkpt lat="46.524081202223897" lon="12.17871461994946">
        <ele>2122.73</ele>
        <time>2015-07-15T11:38:08Z</time>
      </trkpt>
      <trkpt lat="46.524076005443931" lon="12.178709004074335">
        <ele>2122.73</ele>
        <time>2015-07-15T11:38:09Z</time>
      </trkpt>
      <trkpt lat="46.524073993787169" lon="12.178622083738446">
        <ele>2120.3200000000002</ele>
        <time>2015-07-15T11:38:17Z</time>
      </trkpt>
      <trkpt lat="46.524069299921393" lon="12.178613198921084">
        <ele>2119.8400000000001</ele>
        <time>2015-07-15T11:38:18Z</time>
      </trkpt>
      <trkpt lat="46.524051781743765" lon="12.178598530590534">
        <ele>2119.8400000000001</ele>
        <time>2015-07-15T11:38:22Z</time>
      </trkpt>
      <trkpt lat="46.52399679645896" lon="12.178523428738117">
        <ele>2116.48</ele>
        <time>2015-07-15T11:38:32Z</time>
      </trkpt>
      <trkpt lat="46.523924292996526" lon="12.178505659103394">
        <ele>2113.1199999999999</ele>
        <time>2015-07-15T11:38:43Z</time>
      </trkpt>
      <trkpt lat="46.523883221670985" lon="12.178480261936784">
        <ele>2110.23</ele>
        <time>2015-07-15T11:38:48Z</time>
      </trkpt>
      <trkpt lat="46.523876013234258" lon="12.178475819528103">
        <ele>2109.75</ele>
        <time>2015-07-15T11:38:49Z</time>
      </trkpt>
      <trkpt lat="46.523855896666646" lon="12.178466012701392">
        <ele>2108.79</ele>
        <time>2015-07-15T11:38:52Z</time>
      </trkpt>
      <trkpt lat="46.523833684623241" lon="12.178457211703062">
        <ele>2107.8299999999999</ele>
        <time>2015-07-15T11:38:54Z</time>
      </trkpt>
      <trkpt lat="46.523784901946783" lon="12.178458888083696">
        <ele>2105.4200000000001</ele>
        <time>2015-07-15T11:39:04Z</time>
      </trkpt>
      <trkpt lat="46.523760175332427" lon="12.178428880870342">
        <ele>2103.5</ele>
        <time>2015-07-15T11:39:09Z</time>
      </trkpt>
      <trkpt lat="46.523754224181175" lon="12.178351599723101">
        <ele>2102.0599999999999</ele>
        <time>2015-07-15T11:39:17Z</time>
      </trkpt>
      <trkpt lat="46.523717427626252" lon="12.17825529165566">
        <ele>2098.6999999999998</ele>
        <time>2015-07-15T11:39:28Z</time>
      </trkpt>
      <trkpt lat="46.523689767345786" lon="12.178185386583209">
        <ele>2096.29</ele>
        <time>2015-07-15T11:39:39Z</time>
      </trkpt>
      <trkpt lat="46.523685408756137" lon="12.178140794858336">
        <ele>2094.8499999999999</ele>
        <time>2015-07-15T11:39:47Z</time>
      </trkpt>
      <trkpt lat="46.523675518110394" lon="12.178101148456335">
        <ele>2093.4099999999999</ele>
        <time>2015-07-15T11:39:58Z</time>
      </trkpt>
      <trkpt lat="46.523664873093367" lon="12.178019592538476">
        <ele>2090.52</ele>
        <time>2015-07-15T11:40:05Z</time>
      </trkpt>
      <trkpt lat="46.523664034903049" lon="12.178004588931799">
        <ele>2090.52</ele>
        <time>2015-07-15T11:40:06Z</time>
      </trkpt>
      <trkpt lat="46.523654144257307" lon="12.17795773409307">
        <ele>2088.5999999999999</ele>
        <time>2015-07-15T11:40:14Z</time>
      </trkpt>
      <trkpt lat="46.523638973012567" lon="12.178056975826621">
        <ele>2087.1599999999999</ele>
        <time>2015-07-15T11:40:29Z</time>
      </trkpt>
      <trkpt lat="46.523616760969162" lon="12.178085055202246">
        <ele>2086.1999999999998</ele>
        <time>2015-07-15T11:40:33Z</time>
      </trkpt>
      <trkpt lat="46.523574935272336" lon="12.178111206740141">
        <ele>2083.79</ele>
        <time>2015-07-15T11:40:38Z</time>
      </trkpt>
      <trkpt lat="46.523529924452305" lon="12.17814733274281">
        <ele>2081.8699999999999</ele>
        <time>2015-07-15T11:40:44Z</time>
      </trkpt>
      <trkpt lat="46.523462785407901" lon="12.178190248087049">
        <ele>2078.9899999999998</ele>
        <time>2015-07-15T11:40:53Z</time>
      </trkpt>
      <trkpt lat="46.523409308865666" lon="12.178195361047983">
        <ele>2076.5900000000001</ele>
        <time>2015-07-15T11:41:01Z</time>
      </trkpt>
      <trkpt lat="46.523341415449977" lon="12.17814682982862">
        <ele>2073.2199999999998</ele>
        <time>2015-07-15T11:41:10Z</time>
      </trkpt>
      <trkpt lat="46.523329010233283" lon="12.178124785423279">
        <ele>2071.3000000000002</ele>
        <time>2015-07-15T11:41:19Z</time>
      </trkpt>
      <trkpt lat="46.523333704099059" lon="12.178120091557503">
        <ele>2071.3000000000002</ele>
        <time>2015-07-15T11:41:30Z</time>
      </trkpt>
      <trkpt lat="46.52333278208971" lon="12.178106680512428">
        <ele>2072.2600000000002</ele>
        <time>2015-07-15T11:41:51Z</time>
      </trkpt>
      <trkpt lat="46.523318784311414" lon="12.178115230053663">
        <ele>2071.7800000000002</ele>
        <time>2015-07-15T11:42:14Z</time>
      </trkpt>
      <trkpt lat="46.523317862302065" lon="12.178107602521777">
        <ele>2071.7800000000002</ele>
        <time>2015-07-15T11:42:27Z</time>
      </trkpt>
      <trkpt lat="46.52331761084497" lon="12.178086815401912">
        <ele>2071.3000000000002</ele>
        <time>2015-07-15T11:42:47Z</time>
      </trkpt>
      <trkpt lat="46.523312330245972" lon="12.178087150678039">
        <ele>2070.8200000000002</ele>
        <time>2015-07-15T11:43:08Z</time>
      </trkpt>
      <trkpt lat="46.523310989141464" lon="12.178097208961844">
        <ele>2070.3400000000001</ele>
        <time>2015-07-15T11:43:24Z</time>
      </trkpt>
      <trkpt lat="46.523299673572183" lon="12.178093856200576">
        <ele>2071.3000000000002</ele>
        <time>2015-07-15T11:43:39Z</time>
      </trkpt>
      <trkpt lat="46.523305792361498" lon="12.178079104050994">
        <ele>2071.3000000000002</ele>
        <time>2015-07-15T11:44:00Z</time>
      </trkpt>
      <trkpt lat="46.523324148729444" lon="12.17808430083096">
        <ele>2072.2600000000002</ele>
        <time>2015-07-15T11:44:20Z</time>
      </trkpt>
      <trkpt lat="46.523334039375186" lon="12.178079104050994">
        <ele>2070.8200000000002</ele>
        <time>2015-07-15T11:44:40Z</time>
      </trkpt>
      <trkpt lat="46.523334290832281" lon="12.178056808188558">
        <ele>2070.8200000000002</ele>
        <time>2015-07-15T11:44:43Z</time>
      </trkpt>
      <trkpt lat="46.523339655250311" lon="12.177938539534807">
        <ele>2067.9299999999998</ele>
        <time>2015-07-15T11:44:53Z</time>
      </trkpt>
      <trkpt lat="46.523351222276688" lon="12.177940886467695">
        <ele>2066.0100000000002</ele>
        <time>2015-07-15T11:45:04Z</time>
      </trkpt>
      <trkpt lat="46.523361029103398" lon="12.177912890911102">
        <ele>2066.0100000000002</ele>
        <time>2015-07-15T11:45:23Z</time>
      </trkpt>
      <trkpt lat="46.523379134014249" lon="12.177924709394574">
        <ele>2066.0100000000002</ele>
        <time>2015-07-15T11:45:40Z</time>
      </trkpt>
      <trkpt lat="46.523359185084701" lon="12.177983298897743">
        <ele>2066.9699999999998</ele>
        <time>2015-07-15T11:45:55Z</time>
      </trkpt>
      <trkpt lat="46.52332590892911" lon="12.178028812631965">
        <ele>2066.4899999999998</ele>
        <time>2015-07-15T11:46:08Z</time>
      </trkpt>
      <trkpt lat="46.523347953334451" lon="12.178012048825622">
        <ele>2067.9299999999998</ele>
        <time>2015-07-15T11:46:21Z</time>
      </trkpt>
      <trkpt lat="46.523339319974184" lon="12.177959745749831">
        <ele>2065.5300000000002</ele>
        <time>2015-07-15T11:46:35Z</time>
      </trkpt>
      <trkpt lat="46.523328758776188" lon="12.177921188995242">
        <ele>2064.0900000000001</ele>
        <time>2015-07-15T11:46:40Z</time>
      </trkpt>
      <trkpt lat="46.523314090445638" lon="12.177865700796247">
        <ele>2062.6500000000001</ele>
        <time>2015-07-15T11:46:44Z</time>
      </trkpt>
      <trkpt lat="46.523316018283367" lon="12.177762184292078">
        <ele>2059.2800000000002</ele>
        <time>2015-07-15T11:46:52Z</time>
      </trkpt>
      <trkpt lat="46.523318868130445" lon="12.177750868722796">
        <ele>2058.8000000000002</ele>
        <time>2015-07-15T11:46:53Z</time>
      </trkpt>
      <trkpt lat="46.523314258083701" lon="12.177688591182232">
        <ele>2055.9200000000001</ele>
        <time>2015-07-15T11:46:58Z</time>
      </trkpt>
      <trkpt lat="46.523311994969845" lon="12.177679287269711">
        <ele>2055.9200000000001</ele>
        <time>2015-07-15T11:46:59Z</time>
      </trkpt>
      <trkpt lat="46.523310821503401" lon="12.177624050527811">
        <ele>2054.4699999999998</ele>
        <time>2015-07-15T11:47:06Z</time>
      </trkpt>
      <trkpt lat="46.52328877709806" lon="12.177600162103772">
        <ele>2053.0300000000002</ele>
        <time>2015-07-15T11:47:09Z</time>
      </trkpt>
      <trkpt lat="46.523242173716426" lon="12.177648190408945">
        <ele>2052.0700000000002</ele>
        <time>2015-07-15T11:47:21Z</time>
      </trkpt>
      <trkpt lat="46.523196240887046" lon="12.1776401437819">
        <ele>2051.1100000000001</ele>
        <time>2015-07-15T11:47:30Z</time>
      </trkpt>
      <trkpt lat="46.523154666647315" lon="12.177557330578566">
        <ele>2048.23</ele>
        <time>2015-07-15T11:47:39Z</time>
      </trkpt>
      <trkpt lat="46.523109823465347" lon="12.177526652812958">
        <ele>2045.8199999999999</ele>
        <time>2015-07-15T11:47:49Z</time>
      </trkpt>
      <trkpt lat="46.52308945544064" lon="12.177510894834995">
        <ele>2044.8599999999999</ele>
        <time>2015-07-15T11:47:52Z</time>
      </trkpt>
      <trkpt lat="46.523021897301078" lon="12.177425315603614">
        <ele>2042.46</ele>
        <time>2015-07-15T11:48:03Z</time>
      </trkpt>
      <trkpt lat="46.522969678044319" lon="12.177390614524484">
        <ele>2039.0899999999999</ele>
        <time>2015-07-15T11:48:13Z</time>
      </trkpt>
      <trkpt lat="46.522943023592234" lon="12.177389189600945">
        <ele>2039.0899999999999</ele>
        <time>2015-07-15T11:48:22Z</time>
      </trkpt>
      <trkpt lat="46.522928941994905" lon="12.177392542362213">
        <ele>2037.6500000000001</ele>
        <time>2015-07-15T11:48:40Z</time>
      </trkpt>
      <trkpt lat="46.522871274501085" lon="12.177387261763215">
        <ele>2034.77</ele>
        <time>2015-07-15T11:48:48Z</time>
      </trkpt>
      <trkpt lat="46.522831209003925" lon="12.177405785769224">
        <ele>2032.3599999999999</ele>
        <time>2015-07-15T11:48:57Z</time>
      </trkpt>
      <trkpt lat="46.522798854857683" lon="12.17740754596889">
        <ele>2030.4400000000001</ele>
        <time>2015-07-15T11:49:02Z</time>
      </trkpt>
      <trkpt lat="46.522760968655348" lon="12.177351722493768">
        <ele>2027.5599999999999</ele>
        <time>2015-07-15T11:49:10Z</time>
      </trkpt>
      <trkpt lat="46.522753424942493" lon="12.177339233458042">
        <ele>2027.5599999999999</ele>
        <time>2015-07-15T11:49:11Z</time>
      </trkpt>
      <trkpt lat="46.522698942571878" lon="12.177239740267396">
        <ele>2024.1900000000001</ele>
        <time>2015-07-15T11:49:21Z</time>
      </trkpt>
      <trkpt lat="46.522674886509776" lon="12.177219288423657">
        <ele>2023.23</ele>
        <time>2015-07-15T11:49:25Z</time>
      </trkpt>
      <trkpt lat="46.522604059427977" lon="12.177158938720822">
        <ele>2019.8699999999999</ele>
        <time>2015-07-15T11:49:34Z</time>
      </trkpt>
      <trkpt lat="46.522606909275055" lon="12.177155166864395">
        <ele>2018.4300000000001</ele>
        <time>2015-07-15T11:49:44Z</time>
      </trkpt>
      <trkpt lat="46.522580506280065" lon="12.177149634808302">
        <ele>2018.4300000000001</ele>
        <time>2015-07-15T11:49:57Z</time>
      </trkpt>
      <trkpt lat="46.52250993065536" lon="12.177056008949876">
        <ele>2015.0599999999999</ele>
        <time>2015-07-15T11:50:06Z</time>
      </trkpt>
      <trkpt lat="46.522487383335829" lon="12.17716371640563">
        <ele>2012.1800000000001</ele>
        <time>2015-07-15T11:50:16Z</time>
      </trkpt>
      <trkpt lat="46.522475061938167" lon="12.177299922332168">
        <ele>2008.8099999999999</ele>
        <time>2015-07-15T11:50:26Z</time>
      </trkpt>
      <trkpt lat="46.522398618981242" lon="12.17742171138525">
        <ele>2005.45</ele>
        <time>2015-07-15T11:50:38Z</time>
      </trkpt>
      <trkpt lat="46.522366935387254" lon="12.177419532090425">
        <ele>2004.97</ele>
        <time>2015-07-15T11:50:41Z</time>
      </trkpt>
      <trkpt lat="46.522325612604618" lon="12.177413748577237">
        <ele>2003.52</ele>
        <time>2015-07-15T11:50:44Z</time>
      </trkpt>
      <trkpt lat="46.522310357540846" lon="12.177387848496437">
        <ele>2001.5999999999999</ele>
        <time>2015-07-15T11:50:54Z</time>
      </trkpt>
      <trkpt lat="46.522267106920481" lon="12.177385753020644">
        <ele>1999.6800000000001</ele>
        <time>2015-07-15T11:51:13Z</time>
      </trkpt>
      <trkpt lat="46.522204326465726" lon="12.177376113831997">
        <ele>1997.76</ele>
        <time>2015-07-15T11:51:19Z</time>
      </trkpt>
      <trkpt lat="46.522178845480084" lon="12.177383489906788">
        <ele>1995.8299999999999</ele>
        <time>2015-07-15T11:51:22Z</time>
      </trkpt>
      <trkpt lat="46.522117154672742" lon="12.177420873194933">
        <ele>1992.47</ele>
        <time>2015-07-15T11:51:31Z</time>
      </trkpt>
      <trkpt lat="46.522068874910474" lon="12.177445935085416">
        <ele>1989.5899999999999</ele>
        <time>2015-07-15T11:51:38Z</time>
      </trkpt>
      <trkpt lat="46.522020762786269" lon="12.177469069138169">
        <ele>1986.7</ele>
        <time>2015-07-15T11:51:44Z</time>
      </trkpt>
      <trkpt lat="46.52199100703001" lon="12.177479714155197">
        <ele>1985.74</ele>
        <time>2015-07-15T11:51:47Z</time>
      </trkpt>
      <trkpt lat="46.521948678418994" lon="12.177504943683743">
        <ele>1983.8199999999999</ele>
        <time>2015-07-15T11:51:52Z</time>
      </trkpt>
      <trkpt lat="46.521874750033021" lon="12.177479881793261">
        <ele>1980.9300000000001</ele>
        <time>2015-07-15T11:52:03Z</time>
      </trkpt>
      <trkpt lat="46.52185614220798" lon="12.177456663921475">
        <ele>1980.9300000000001</ele>
        <time>2015-07-15T11:52:13Z</time>
      </trkpt>
      <trkpt lat="46.521827140823007" lon="12.177439983934164">
        <ele>1980.45</ele>
        <time>2015-07-15T11:52:23Z</time>
      </trkpt>
      <trkpt lat="46.521782213822007" lon="12.177432188764215">
        <ele>1978.53</ele>
        <time>2015-07-15T11:52:27Z</time>
      </trkpt>
      <trkpt lat="46.521719349548221" lon="12.177336802706122">
        <ele>1976.6099999999999</ele>
        <time>2015-07-15T11:52:38Z</time>
      </trkpt>
      <trkpt lat="46.521682636812329" lon="12.177249798551202">
        <ele>1973.72</ele>
        <time>2015-07-15T11:52:47Z</time>
      </trkpt>
      <trkpt lat="46.521654473617673" lon="12.177219875156879">
        <ele>1972.28</ele>
        <time>2015-07-15T11:52:52Z</time>
      </trkpt>
      <trkpt lat="46.521641062572598" lon="12.177109401673079">
        <ele>1969.4000000000001</ele>
        <time>2015-07-15T11:53:02Z</time>
      </trkpt>
      <trkpt lat="46.521601751446724" lon="12.177078640088439">
        <ele>1966.03</ele>
        <time>2015-07-15T11:53:11Z</time>
      </trkpt>
      <trkpt lat="46.521561937406659" lon="12.176991300657392">
        <ele>1963.6300000000001</ele>
        <time>2015-07-15T11:53:20Z</time>
      </trkpt>
      <trkpt lat="46.521550957113504" lon="12.176984427496791">
        <ele>1963.1500000000001</ele>
        <time>2015-07-15T11:53:22Z</time>
      </trkpt>
      <trkpt lat="46.521533774212003" lon="12.176958275958896">
        <ele>1962.1900000000001</ele>
        <time>2015-07-15T11:53:25Z</time>
      </trkpt>
      <trkpt lat="46.521462695673108" lon="12.176898512989283">
        <ele>1959.3</ele>
        <time>2015-07-15T11:53:34Z</time>
      </trkpt>
      <trkpt lat="46.521457079797983" lon="12.176886023953557">
        <ele>1959.3</ele>
        <time>2015-07-15T11:53:35Z</time>
      </trkpt>
      <trkpt lat="46.521413577720523" lon="12.176753506064415">
        <ele>1955.9400000000001</ele>
        <time>2015-07-15T11:53:45Z</time>
      </trkpt>
      <trkpt lat="46.521412068977952" lon="12.176727689802647">
        <ele>1955.46</ele>
        <time>2015-07-15T11:53:47Z</time>
      </trkpt>
      <trkpt lat="46.521359011530876" lon="12.176674297079444">
        <ele>1954.02</ele>
        <time>2015-07-15T11:53:51Z</time>
      </trkpt>
      <trkpt lat="46.52131031267345" lon="12.176586538553238">
        <ele>1951.6099999999999</ele>
        <time>2015-07-15T11:53:55Z</time>
      </trkpt>
      <trkpt lat="46.521265301853418" lon="12.176564997062087">
        <ele>1950.1700000000001</ele>
        <time>2015-07-15T11:53:58Z</time>
      </trkpt>
      <trkpt lat="46.521198246628046" lon="12.176407668739557">
        <ele>1946.3299999999999</ele>
        <time>2015-07-15T11:54:05Z</time>
      </trkpt>
      <trkpt lat="46.521165557205677" lon="12.176393168047071">
        <ele>1944.8800000000001</ele>
        <time>2015-07-15T11:54:14Z</time>
      </trkpt>
      <trkpt lat="46.521130185574293" lon="12.176404986530542">
        <ele>1945.3599999999999</ele>
        <time>2015-07-15T11:54:39Z</time>
      </trkpt>
      <trkpt lat="46.52115885168314" lon="12.176341284066439">
        <ele>1944.8800000000001</ele>
        <time>2015-07-15T11:54:54Z</time>
      </trkpt>
      <trkpt lat="46.521105710417032" lon="12.176276324316859">
        <ele>1942.96</ele>
        <time>2015-07-15T11:55:03Z</time>
      </trkpt>
      <trkpt lat="46.521036894991994" lon="12.176159732043743">
        <ele>1939.5999999999999</ele>
        <time>2015-07-15T11:55:12Z</time>
      </trkpt>
      <trkpt lat="46.52103086002171" lon="12.176155457273126">
        <ele>1939.5999999999999</ele>
        <time>2015-07-15T11:55:13Z</time>
      </trkpt>
      <trkpt lat="46.520961290225387" lon="12.176102316007018">
        <ele>1936.71</ele>
        <time>2015-07-15T11:55:22Z</time>
      </trkpt>
      <trkpt lat="46.52095559053123" lon="12.176094437018037">
        <ele>1935.75</ele>
        <time>2015-07-15T11:55:23Z</time>
      </trkpt>
      <trkpt lat="46.52090379036963" lon="12.176058143377304">
        <ele>1932.3900000000001</ele>
        <time>2015-07-15T11:55:33Z</time>
      </trkpt>
      <trkpt lat="46.520856432616711" lon="12.175972312688828">
        <ele>1930.46</ele>
        <time>2015-07-15T11:55:43Z</time>
      </trkpt>
      <trkpt lat="46.520830783993006" lon="12.175963763147593">
        <ele>1928.54</ele>
        <time>2015-07-15T11:55:47Z</time>
      </trkpt>
      <trkpt lat="46.520793735980988" lon="12.175912968814373">
        <ele>1926.1400000000001</ele>
        <time>2015-07-15T11:55:54Z</time>
      </trkpt>
      <trkpt lat="46.520789125934243" lon="12.175901234149933">
        <ele>1926.1400000000001</ele>
        <time>2015-07-15T11:55:55Z</time>
      </trkpt>
      <trkpt lat="46.520705139264464" lon="12.17582831159234">
        <ele>1923.74</ele>
        <time>2015-07-15T11:56:05Z</time>
      </trkpt>
      <trkpt lat="46.520647387951612" lon="12.175808697938919">
        <ele>1921.8099999999999</ele>
        <time>2015-07-15T11:56:12Z</time>
      </trkpt>
      <trkpt lat="46.520616877824068" lon="12.17577793635428">
        <ele>1921.3299999999999</ele>
        <time>2015-07-15T11:56:17Z</time>
      </trkpt>
      <trkpt lat="46.520593408495188" lon="12.175739547237754">
        <ele>1920.3699999999999</ele>
        <time>2015-07-15T11:56:21Z</time>
      </trkpt>
      <trkpt lat="46.520525012165308" lon="12.175702499225736">
        <ele>1918.9300000000001</ele>
        <time>2015-07-15T11:56:28Z</time>
      </trkpt>
      <trkpt lat="46.520495004951954" lon="12.175683891400695">
        <ele>1917.49</ele>
        <time>2015-07-15T11:56:31Z</time>
      </trkpt>
      <trkpt lat="46.520436750724912" lon="12.175697553902864">
        <ele>1915.5599999999999</ele>
        <time>2015-07-15T11:56:37Z</time>
      </trkpt>
      <trkpt lat="46.520409341901541" lon="12.175694955512881">
        <ele>1914.5999999999999</ele>
        <time>2015-07-15T11:56:40Z</time>
      </trkpt>
      <trkpt lat="46.520386040210724" lon="12.175621278584003">
        <ele>1912.6800000000001</ele>
        <time>2015-07-15T11:56:48Z</time>
      </trkpt>
      <trkpt lat="46.520363073796034" lon="12.175506949424744">
        <ele>1908.8299999999999</ele>
        <time>2015-07-15T11:56:58Z</time>
      </trkpt>
      <trkpt lat="46.520299958065152" lon="12.175492197275162">
        <ele>1906.4300000000001</ele>
        <time>2015-07-15T11:57:08Z</time>
      </trkpt>
      <trkpt lat="46.520269447937608" lon="12.175500830635428">
        <ele>1904.51</ele>
        <time>2015-07-15T11:57:13Z</time>
      </trkpt>
      <trkpt lat="46.520199878141284" lon="12.175501585006714">
        <ele>1901.6300000000001</ele>
        <time>2015-07-15T11:57:22Z</time>
      </trkpt>
      <trkpt lat="46.520118322223425" lon="12.175489515066147">
        <ele>1898.74</ele>
        <time>2015-07-15T11:57:31Z</time>
      </trkpt>
      <trkpt lat="46.520103821530938" lon="12.175475601106882">
        <ele>1897.3</ele>
        <time>2015-07-15T11:57:40Z</time>
      </trkpt>
      <trkpt lat="46.520070042461157" lon="12.175470739603043">
        <ele>1896.8199999999999</ele>
        <time>2015-07-15T11:57:43Z</time>
      </trkpt>
      <trkpt lat="46.519995024427772" lon="12.175422124564648">
        <ele>1893.9300000000001</ele>
        <time>2015-07-15T11:57:52Z</time>
      </trkpt>
      <trkpt lat="46.519971303641796" lon="12.175399996340275">
        <ele>1892.01</ele>
        <time>2015-07-15T11:57:56Z</time>
      </trkpt>
      <trkpt lat="46.519917994737625" lon="12.175345262512565">
        <ele>1888.6500000000001</ele>
        <time>2015-07-15T11:58:05Z</time>
      </trkpt>
      <trkpt lat="46.519873905926943" lon="12.1752346213907">
        <ele>1885.28</ele>
        <time>2015-07-15T11:58:15Z</time>
      </trkpt>
      <trkpt lat="46.519813388586044" lon="12.175188772380352">
        <ele>1882.4000000000001</ele>
        <time>2015-07-15T11:58:22Z</time>
      </trkpt>
      <trkpt lat="46.519806263968349" lon="12.175178378820419">
        <ele>1881.4400000000001</ele>
        <time>2015-07-15T11:58:32Z</time>
      </trkpt>
      <trkpt lat="46.519768042489886" lon="12.175143174827099">
        <ele>1879.03</ele>
        <time>2015-07-15T11:58:43Z</time>
      </trkpt>
      <trkpt lat="46.519718337804079" lon="12.175068324431777">
        <ele>1876.1500000000001</ele>
        <time>2015-07-15T11:58:54Z</time>
      </trkpt>
      <trkpt lat="46.519662346690893" lon="12.175036137923598">
        <ele>1872.79</ele>
        <time>2015-07-15T11:59:02Z</time>
      </trkpt>
      <trkpt lat="46.519594704732299" lon="12.175009232014418">
        <ele>1869.9000000000001</ele>
        <time>2015-07-15T11:59:11Z</time>
      </trkpt>
      <trkpt lat="46.519558914005756" lon="12.175010656937957">
        <ele>1868.46</ele>
        <time>2015-07-15T11:59:20Z</time>
      </trkpt>
      <trkpt lat="46.519507700577378" lon="12.175051979720592">
        <ele>1865.5799999999999</ele>
        <time>2015-07-15T11:59:30Z</time>
      </trkpt>
      <trkpt lat="46.519445087760687" lon="12.1750015206635">
        <ele>1862.6900000000001</ele>
        <time>2015-07-15T11:59:41Z</time>
      </trkpt>
      <trkpt lat="46.519380714744329" lon="12.174978302791715">
        <ele>1859.8099999999999</ele>
        <time>2015-07-15T11:59:52Z</time>
      </trkpt>
      <trkpt lat="46.519389851018786" lon="12.17494779266417">
        <ele>1859.3299999999999</ele>
        <time>2015-07-15T12:00:03Z</time>
      </trkpt>
      <trkpt lat="46.519371578469872" lon="12.174907643347979">
        <ele>1858.3699999999999</ele>
        <time>2015-07-15T12:00:12Z</time>
      </trkpt>
      <trkpt lat="46.519310139119625" lon="12.17487495392561">
        <ele>1855</ele>
        <time>2015-07-15T12:00:22Z</time>
      </trkpt>
      <trkpt lat="46.519282897934318" lon="12.174841426312923">
        <ele>1852.5999999999999</ele>
        <time>2015-07-15T12:00:28Z</time>
      </trkpt>
      <trkpt lat="46.519220033660531" lon="12.174786608666182">
        <ele>1849.71</ele>
        <time>2015-07-15T12:00:37Z</time>
      </trkpt>
      <trkpt lat="46.519176363945007" lon="12.174787698313594">
        <ele>1847.3099999999999</ele>
        <time>2015-07-15T12:00:45Z</time>
      </trkpt>
      <trkpt lat="46.519151888787746" lon="12.174812844023108">
        <ele>1846.3499999999999</ele>
        <time>2015-07-15T12:00:48Z</time>
      </trkpt>
      <trkpt lat="46.519133280962706" lon="12.174814017489552">
        <ele>1845.8699999999999</ele>
        <time>2015-07-15T12:00:50Z</time>
      </trkpt>
      <trkpt lat="46.519124060869217" lon="12.174809407442808">
        <ele>1845.3900000000001</ele>
        <time>2015-07-15T12:00:51Z</time>
      </trkpt>
      <trkpt lat="46.519113751128316" lon="12.174747129902244">
        <ele>1843.47</ele>
        <time>2015-07-15T12:00:59Z</time>
      </trkpt>
      <trkpt lat="46.519094053655863" lon="12.174688875675201">
        <ele>1841.54</ele>
        <time>2015-07-15T12:01:04Z</time>
      </trkpt>
      <trkpt lat="46.519086007028818" lon="12.174661802127957">
        <ele>1840.5799999999999</ele>
        <time>2015-07-15T12:01:06Z</time>
      </trkpt>
      <trkpt lat="46.519067147746682" lon="12.174592819064856">
        <ele>1837.22</ele>
        <time>2015-07-15T12:01:14Z</time>
      </trkpt>
      <trkpt lat="46.519076870754361" lon="12.174569852650166">
        <ele>1835.77</ele>
        <time>2015-07-15T12:01:17Z</time>
      </trkpt>
      <trkpt lat="46.519049378111959" lon="12.174474382773042">
        <ele>1835.77</ele>
        <time>2015-07-15T12:01:28Z</time>
      </trkpt>
      <trkpt lat="46.519053652882576" lon="12.174515621736646">
        <ele>1834.8099999999999</ele>
        <time>2015-07-15T12:01:40Z</time>
      </trkpt>
      <trkpt lat="46.519044600427151" lon="12.174489721655846">
        <ele>1833.8499999999999</ele>
        <time>2015-07-15T12:01:55Z</time>
      </trkpt>
      <trkpt lat="46.519064633175731" lon="12.174465078860521">
        <ele>1834.8099999999999</ele>
        <time>2015-07-15T12:02:08Z</time>
      </trkpt>
      <trkpt lat="46.519076200202107" lon="12.174526685848832">
        <ele>1834.8099999999999</ele>
        <time>2015-07-15T12:02:28Z</time>
      </trkpt>
      <trkpt lat="46.519061028957367" lon="12.174542779102921">
        <ele>1834.8099999999999</ele>
        <time>2015-07-15T12:02:46Z</time>
      </trkpt>
      <trkpt lat="46.519078379496932" lon="12.174583515152335">
        <ele>1833.8499999999999</ele>
        <time>2015-07-15T12:03:01Z</time>
      </trkpt>
      <trkpt lat="46.519066644832492" lon="12.174583682790399">
        <ele>1834.3299999999999</ele>
        <time>2015-07-15T12:03:16Z</time>
      </trkpt>
      <trkpt lat="46.519079720601439" lon="12.174567254260182">
        <ele>1834.3299999999999</ele>
        <time>2015-07-15T12:03:33Z</time>
      </trkpt>
      <trkpt lat="46.519082989543676" lon="12.174588292837143">
        <ele>1834.3299999999999</ele>
        <time>2015-07-15T12:03:49Z</time>
      </trkpt>
      <trkpt lat="46.519026830792427" lon="12.174532385542989">
        <ele>1832.8900000000001</ele>
        <time>2015-07-15T12:04:00Z</time>
      </trkpt>
      <trkpt lat="46.519006295129657" lon="12.174487877637148">
        <ele>1830.01</ele>
        <time>2015-07-15T12:04:08Z</time>
      </trkpt>
      <trkpt lat="46.518958602100611" lon="12.174525428563356">
        <ele>1827.5999999999999</ele>
        <time>2015-07-15T12:04:16Z</time>
      </trkpt>
      <trkpt lat="46.518940413370728" lon="12.174525260925293">
        <ele>1827.5999999999999</ele>
        <time>2015-07-15T12:04:18Z</time>
      </trkpt>
      <trkpt lat="46.518910825252533" lon="12.174471700564027">
        <ele>1825.2</ele>
        <time>2015-07-15T12:04:24Z</time>
      </trkpt>
      <trkpt lat="46.518882745876908" lon="12.174447728320956">
        <ele>1824.24</ele>
        <time>2015-07-15T12:04:28Z</time>
      </trkpt>
      <trkpt lat="46.518821977078915" lon="12.174443621188402">
        <ele>1821.8399999999999</ele>
        <time>2015-07-15T12:04:34Z</time>
      </trkpt>
      <trkpt lat="46.518813259899616" lon="12.174438675865531">
        <ele>1821.3499999999999</ele>
        <time>2015-07-15T12:04:35Z</time>
      </trkpt>
      <trkpt lat="46.518747881054878" lon="12.174380170181394">
        <ele>1817.99</ele>
        <time>2015-07-15T12:04:45Z</time>
      </trkpt>
      <trkpt lat="46.518700523301959" lon="12.174385031685233">
        <ele>1815.5899999999999</ele>
        <time>2015-07-15T12:04:54Z</time>
      </trkpt>
      <trkpt lat="46.518677724525332" lon="12.174339098855853">
        <ele>1813.1800000000001</ele>
        <time>2015-07-15T12:05:01Z</time>
      </trkpt>
      <trkpt lat="46.518672276288271" lon="12.174292830750346">
        <ele>1811.74</ele>
        <time>2015-07-15T12:05:04Z</time>
      </trkpt>
      <trkpt lat="46.518621230497956" lon="12.174280676990747">
        <ele>1809.3399999999999</ele>
        <time>2015-07-15T12:05:13Z</time>
      </trkpt>
      <trkpt lat="46.518621984869242" lon="12.174257794395089">
        <ele>1808.3800000000001</ele>
        <time>2015-07-15T12:05:15Z</time>
      </trkpt>
      <trkpt lat="46.518594743683934" lon="12.174217225983739">
        <ele>1807.9000000000001</ele>
        <time>2015-07-15T12:05:20Z</time>
      </trkpt>
      <trkpt lat="46.51854956522584" lon="12.174175148829818">
        <ele>1805.97</ele>
        <time>2015-07-15T12:05:25Z</time>
      </trkpt>
      <trkpt lat="46.518541099503636" lon="12.174148662015796">
        <ele>1804.05</ele>
        <time>2015-07-15T12:05:27Z</time>
      </trkpt>
      <trkpt lat="46.518517294898629" lon="12.174050593748689">
        <ele>1802.1300000000001</ele>
        <time>2015-07-15T12:05:37Z</time>
      </trkpt>
      <trkpt lat="46.518471864983439" lon="12.174003571271896">
        <ele>1800.6900000000001</ele>
        <time>2015-07-15T12:05:43Z</time>
      </trkpt>
      <trkpt lat="46.518447389826179" lon="12.173956464976072">
        <ele>1799.24</ele>
        <time>2015-07-15T12:05:52Z</time>
      </trkpt>
      <trkpt lat="46.518444791436195" lon="12.173923188820481">
        <ele>1798.76</ele>
        <time>2015-07-15T12:06:06Z</time>
      </trkpt>
      <trkpt lat="46.518423166126013" lon="12.173891672864556">
        <ele>1797.8</ele>
        <time>2015-07-15T12:06:09Z</time>
      </trkpt>
      <trkpt lat="46.518400115892291" lon="12.173867616802454">
        <ele>1797.8</ele>
        <time>2015-07-15T12:06:12Z</time>
      </trkpt>
      <trkpt lat="46.518362648785114" lon="12.17383861541748">
        <ele>1796.8399999999999</ele>
        <time>2015-07-15T12:06:17Z</time>
      </trkpt>
      <trkpt lat="46.518300119787455" lon="12.173735518008471">
        <ele>1792.52</ele>
        <time>2015-07-15T12:06:28Z</time>
      </trkpt>
      <trkpt lat="46.518292492255569" lon="12.173724453896284">
        <ele>1792.52</ele>
        <time>2015-07-15T12:06:29Z</time>
      </trkpt>
      <trkpt lat="46.518271872773767" lon="12.173688495531678">
        <ele>1792.52</ele>
        <time>2015-07-15T12:06:32Z</time>
      </trkpt>
      <trkpt lat="46.518227197229862" lon="12.173676257953048">
        <ele>1791.0699999999999</ele>
        <time>2015-07-15T12:06:38Z</time>
      </trkpt>
      <trkpt lat="46.518198531121016" lon="12.173767704516649">
        <ele>1788.6700000000001</ele>
        <time>2015-07-15T12:06:45Z</time>
      </trkpt>
      <trkpt lat="46.518159722909331" lon="12.173728896304965">
        <ele>1785.79</ele>
        <time>2015-07-15T12:06:53Z</time>
      </trkpt>
      <trkpt lat="46.518078837543726" lon="12.173618255183101">
        <ele>1782.4200000000001</ele>
        <time>2015-07-15T12:07:03Z</time>
      </trkpt>
      <trkpt lat="46.518012955784798" lon="12.17345698736608">
        <ele>1779.0599999999999</ele>
        <time>2015-07-15T12:07:14Z</time>
      </trkpt>
      <trkpt lat="46.5180076751858" lon="12.173446929082274">
        <ele>1779.0599999999999</ele>
        <time>2015-07-15T12:07:15Z</time>
      </trkpt>
      <trkpt lat="46.517994096502662" lon="12.173432428389788">
        <ele>1778.0999999999999</ele>
        <time>2015-07-15T12:07:17Z</time>
      </trkpt>
      <trkpt lat="46.517972806468606" lon="12.173401499167085">
        <ele>1776.6500000000001</ele>
        <time>2015-07-15T12:07:28Z</time>
      </trkpt>
      <trkpt lat="46.517932405695319" lon="12.173493783921003">
        <ele>1774.73</ele>
        <time>2015-07-15T12:07:39Z</time>
      </trkpt>
      <trkpt lat="46.517911786213517" lon="12.173556061461568">
        <ele>1772.8099999999999</ele>
        <time>2015-07-15T12:07:46Z</time>
      </trkpt>
      <trkpt lat="46.517843054607511" lon="12.173587661236525">
        <ele>1769.4400000000001</ele>
        <time>2015-07-15T12:07:58Z</time>
      </trkpt>
      <trkpt lat="46.517806341871619" lon="12.173514738678932">
        <ele>1767.04</ele>
        <time>2015-07-15T12:08:06Z</time>
      </trkpt>
      <trkpt lat="46.517782956361771" lon="12.173473332077265">
        <ele>1766.0799999999999</ele>
        <time>2015-07-15T12:08:11Z</time>
      </trkpt>
      <trkpt lat="46.517766695469618" lon="12.173460675403476">
        <ele>1765.5999999999999</ele>
        <time>2015-07-15T12:08:13Z</time>
      </trkpt>
      <trkpt lat="46.517736269161105" lon="12.173394542187452">
        <ele>1762.71</ele>
        <time>2015-07-15T12:08:19Z</time>
      </trkpt>
      <trkpt lat="46.517666950821877" lon="12.173325894400477">
        <ele>1759.3499999999999</ele>
        <time>2015-07-15T12:08:27Z</time>
      </trkpt>
      <trkpt lat="46.51764172129333" lon="12.173287505283952">
        <ele>1756.95</ele>
        <time>2015-07-15T12:08:31Z</time>
      </trkpt>
      <trkpt lat="46.517585897818208" lon="12.173223132267594">
        <ele>1755.99</ele>
        <time>2015-07-15T12:08:40Z</time>
      </trkpt>
      <trkpt lat="46.517516579478979" lon="12.173191532492638">
        <ele>1753.0999999999999</ele>
        <time>2015-07-15T12:08:49Z</time>
      </trkpt>
      <trkpt lat="46.517460672184825" lon="12.173187676817179">
        <ele>1750.7</ele>
        <time>2015-07-15T12:09:00Z</time>
      </trkpt>
      <trkpt lat="46.517464108765125" lon="12.173247691243887">
        <ele>1749.26</ele>
        <time>2015-07-15T12:09:06Z</time>
      </trkpt>
      <trkpt lat="46.517398646101356" lon="12.17331524938345">
        <ele>1745.8900000000001</ele>
        <time>2015-07-15T12:09:19Z</time>
      </trkpt>
      <trkpt lat="46.517402166500688" lon="12.173288930207491">
        <ele>1745.8900000000001</ele>
        <time>2015-07-15T12:09:29Z</time>
      </trkpt>
      <trkpt lat="46.517388001084328" lon="12.173241404816508">
        <ele>1744.9300000000001</ele>
        <time>2015-07-15T12:09:35Z</time>
      </trkpt>
      <trkpt lat="46.517315832898021" lon="12.173213912174106">
        <ele>1741.5699999999999</ele>
        <time>2015-07-15T12:09:46Z</time>
      </trkpt>
      <trkpt lat="46.517269480973482" lon="12.173244003206491">
        <ele>1741.0799999999999</ele>
        <time>2015-07-15T12:09:53Z</time>
      </trkpt>
      <trkpt lat="46.517242910340428" lon="12.173304352909327">
        <ele>1739.1600000000001</ele>
        <time>2015-07-15T12:10:02Z</time>
      </trkpt>
      <trkpt lat="46.517201336100698" lon="12.173339137807488">
        <ele>1737.24</ele>
        <time>2015-07-15T12:10:08Z</time>
      </trkpt>
      <trkpt lat="46.517116511240602" lon="12.173343412578106">
        <ele>1734.8399999999999</ele>
        <time>2015-07-15T12:10:18Z</time>
      </trkpt>
      <trkpt lat="46.517087342217565" lon="12.173331174999475">
        <ele>1732.4300000000001</ele>
        <time>2015-07-15T12:10:27Z</time>
      </trkpt>
      <trkpt lat="46.517097316682339" lon="12.173330001533031">
        <ele>1732.9100000000001</ele>
        <time>2015-07-15T12:10:39Z</time>
      </trkpt>
      <trkpt lat="46.517107961699367" lon="12.17325615696609">
        <ele>1730.99</ele>
        <time>2015-07-15T12:10:53Z</time>
      </trkpt>
      <trkpt lat="46.517087342217565" lon="12.173141743987799">
        <ele>1728.5899999999999</ele>
        <time>2015-07-15T12:11:03Z</time>
      </trkpt>
      <trkpt lat="46.51707099750638" lon="12.173096733167768">
        <ele>1726.1800000000001</ele>
        <time>2015-07-15T12:11:08Z</time>
      </trkpt>
      <trkpt lat="46.517052976414561" lon="12.173116263002157">
        <ele>1725.7</ele>
        <time>2015-07-15T12:11:11Z</time>
      </trkpt>
      <trkpt lat="46.516973683610559" lon="12.173176947981119">
        <ele>1721.8599999999999</ele>
        <time>2015-07-15T12:11:20Z</time>
      </trkpt>
      <trkpt lat="46.516961781308055" lon="12.173179294914007">
        <ele>1721.3800000000001</ele>
        <time>2015-07-15T12:11:21Z</time>
      </trkpt>
      <trkpt lat="46.516950130462646" lon="12.173128081485629">
        <ele>1718.97</ele>
        <time>2015-07-15T12:11:32Z</time>
      </trkpt>
      <trkpt lat="46.516955243423581" lon="12.173091704025865">
        <ele>1716.5699999999999</ele>
        <time>2015-07-15T12:11:36Z</time>
      </trkpt>
      <trkpt lat="46.516911406069994" lon="12.173085333779454">
        <ele>1714.1700000000001</ele>
        <time>2015-07-15T12:11:44Z</time>
      </trkpt>
      <trkpt lat="46.516891121864319" lon="12.173040490597486">
        <ele>1711.28</ele>
        <time>2015-07-15T12:11:51Z</time>
      </trkpt>
      <trkpt lat="46.516823815181851" lon="12.172967568039894">
        <ele>1708.4000000000001</ele>
        <time>2015-07-15T12:12:02Z</time>
      </trkpt>
      <trkpt lat="46.516786264255643" lon="12.172940075397491">
        <ele>1706</ele>
        <time>2015-07-15T12:12:07Z</time>
      </trkpt>
      <trkpt lat="46.516764387488365" lon="12.172935549169779">
        <ele>1705.52</ele>
        <time>2015-07-15T12:12:09Z</time>
      </trkpt>
      <trkpt lat="46.516709486022592" lon="12.172941835597157">
        <ele>1702.1500000000001</ele>
        <time>2015-07-15T12:12:19Z</time>
      </trkpt>
      <trkpt lat="46.516688615083694" lon="12.172955079004169">
        <ele>1699.27</ele>
        <time>2015-07-15T12:12:28Z</time>
      </trkpt>
      <trkpt lat="46.516706300899386" lon="12.17295122332871">
        <ele>1699.27</ele>
        <time>2015-07-15T12:12:41Z</time>
      </trkpt>
      <trkpt lat="46.51670110411942" lon="12.17296882532537">
        <ele>1699.75</ele>
        <time>2015-07-15T12:12:54Z</time>
      </trkpt>
      <trkpt lat="46.516674114391208" lon="12.172950049862266">
        <ele>1698.79</ele>
        <time>2015-07-15T12:12:58Z</time>
      </trkpt>
      <trkpt lat="46.516654333099723" lon="12.172954743728042">
        <ele>1697.8299999999999</ele>
        <time>2015-07-15T12:13:00Z</time>
      </trkpt>
      <trkpt lat="46.516627175733447" lon="12.172946110367775">
        <ele>1696.8599999999999</ele>
        <time>2015-07-15T12:13:03Z</time>
      </trkpt>
      <trkpt lat="46.51660630479455" lon="12.172913085669279">
        <ele>1694.9400000000001</ele>
        <time>2015-07-15T12:13:06Z</time>
      </trkpt>
      <trkpt lat="46.516581494361162" lon="12.172813424840569">
        <ele>1691.0999999999999</ele>
        <time>2015-07-15T12:13:16Z</time>
      </trkpt>
      <trkpt lat="46.516603538766503" lon="12.17273329384625">
        <ele>1688.21</ele>
        <time>2015-07-15T12:13:27Z</time>
      </trkpt>
      <trkpt lat="46.516606137156487" lon="12.172664059326053">
        <ele>1685.8099999999999</ele>
        <time>2015-07-15T12:13:33Z</time>
      </trkpt>
      <trkpt lat="46.516569843515754" lon="12.172624245285988">
        <ele>1682.9300000000001</ele>
        <time>2015-07-15T12:13:43Z</time>
      </trkpt>
      <trkpt lat="46.51657453738153" lon="12.172559117898345">
        <ele>1679.0799999999999</ele>
        <time>2015-07-15T12:13:51Z</time>
      </trkpt>
      <trkpt lat="46.516549224033952" lon="12.172497091814876">
        <ele>1677.1600000000001</ele>
        <time>2015-07-15T12:14:01Z</time>
      </trkpt>
      <trkpt lat="46.516535393893719" lon="12.172452667728066">
        <ele>1674.27</ele>
        <time>2015-07-15T12:14:09Z</time>
      </trkpt>
      <trkpt lat="46.516514020040631" lon="12.172395335510373">
        <ele>1672.3499999999999</ele>
        <time>2015-07-15T12:14:19Z</time>
      </trkpt>
      <trkpt lat="46.516491556540132" lon="12.172309337183833">
        <ele>1669.95</ele>
        <time>2015-07-15T12:14:29Z</time>
      </trkpt>
      <trkpt lat="46.516455598175526" lon="12.172230547294021">
        <ele>1667.54</ele>
        <time>2015-07-15T12:14:40Z</time>
      </trkpt>
      <trkpt lat="46.516453083604574" lon="12.172233564779162">
        <ele>1666.0999999999999</ele>
        <time>2015-07-15T12:14:51Z</time>
      </trkpt>
      <trkpt lat="46.516450652852654" lon="12.172240940853953">
        <ele>1666.5799999999999</ele>
        <time>2015-07-15T12:15:09Z</time>
      </trkpt>
      <trkpt lat="46.516449311748147" lon="12.172252256423235">
        <ele>1666.5799999999999</ele>
        <time>2015-07-15T12:15:32Z</time>
      </trkpt>
      <trkpt lat="46.516452580690384" lon="12.172245131805539">
        <ele>1666.5799999999999</ele>
        <time>2015-07-15T12:15:54Z</time>
      </trkpt>
      <trkpt lat="46.516459872946143" lon="12.172199115157127">
        <ele>1666.5799999999999</ele>
        <time>2015-07-15T12:16:05Z</time>
      </trkpt>
      <trkpt lat="46.516456855461001" lon="12.172197103500366">
        <ele>1666.5799999999999</ele>
        <time>2015-07-15T12:16:18Z</time>
      </trkpt>
      <trkpt lat="46.516431458294392" lon="12.172244712710381">
        <ele>1668.02</ele>
        <time>2015-07-15T12:16:39Z</time>
      </trkpt>
      <trkpt lat="46.516446294263005" lon="12.172237085178494">
        <ele>1666.5799999999999</ele>
        <time>2015-07-15T12:17:02Z</time>
      </trkpt>
      <trkpt lat="46.516445875167847" lon="12.172232894226909">
        <ele>1665.6199999999999</ele>
        <time>2015-07-15T12:17:20Z</time>
      </trkpt>
      <trkpt lat="46.516455095261335" lon="12.172235827893019">
        <ele>1665.6199999999999</ele>
        <time>2015-07-15T12:17:40Z</time>
      </trkpt>
      <trkpt lat="46.516449144110084" lon="12.172243455424905">
        <ele>1666.5799999999999</ele>
        <time>2015-07-15T12:18:03Z</time>
      </trkpt>
      <trkpt lat="46.51644503697753" lon="12.172246389091015">
        <ele>1666.5799999999999</ele>
        <time>2015-07-15T12:18:26Z</time>
      </trkpt>
      <trkpt lat="46.516456520184875" lon="12.17223440296948">
        <ele>1668.02</ele>
        <time>2015-07-15T12:18:40Z</time>
      </trkpt>
      <trkpt lat="46.516434727236629" lon="12.172243958339095">
        <ele>1666.5799999999999</ele>
        <time>2015-07-15T12:19:09Z</time>
      </trkpt>
      <trkpt lat="46.516434643417597" lon="12.172241695225239">
        <ele>1666.5799999999999</ele>
        <time>2015-07-15T12:19:29Z</time>
      </trkpt>
      <trkpt lat="46.516421651467681" lon="12.172244712710381">
        <ele>1665.6199999999999</ele>
        <time>2015-07-15T12:19:47Z</time>
      </trkpt>
      <trkpt lat="46.516416789963841" lon="12.172252340242267">
        <ele>1666.0999999999999</ele>
        <time>2015-07-15T12:20:10Z</time>
      </trkpt>
      <trkpt lat="46.516423998400569" lon="12.172244042158127">
        <ele>1666.0999999999999</ele>
        <time>2015-07-15T12:20:30Z</time>
      </trkpt>
      <trkpt lat="46.516438079997897" lon="12.17223884537816">
        <ele>1666.5799999999999</ele>
        <time>2015-07-15T12:20:50Z</time>
      </trkpt>
      <trkpt lat="46.516438499093056" lon="12.172230882570148">
        <ele>1663.7</ele>
        <time>2015-07-15T12:21:06Z</time>
      </trkpt>
      <trkpt lat="46.516435565426946" lon="12.172235492616892">
        <ele>1667.54</ele>
        <time>2015-07-15T12:21:07Z</time>
      </trkpt>
      <trkpt lat="46.516429111361504" lon="12.172242533415556">
        <ele>1667.0599999999999</ele>
        <time>2015-07-15T12:21:24Z</time>
      </trkpt>
      <trkpt lat="46.51641771197319" lon="12.172284023836255">
        <ele>1668.02</ele>
        <time>2015-07-15T12:21:49Z</time>
      </trkpt>
      <trkpt lat="46.516404300928116" lon="12.172252256423235">
        <ele>1667.54</ele>
        <time>2015-07-15T12:22:17Z</time>
      </trkpt>
      <trkpt lat="46.516412682831287" lon="12.172249155119061">
        <ele>1666.5799999999999</ele>
        <time>2015-07-15T12:22:48Z</time>
      </trkpt>
      <trkpt lat="46.516400780528784" lon="12.172229122370481">
        <ele>1665.6199999999999</ele>
        <time>2015-07-15T12:23:15Z</time>
      </trkpt>
      <trkpt lat="46.516390470787883" lon="12.17223540879786">
        <ele>1667.0599999999999</ele>
        <time>2015-07-15T12:23:43Z</time>
      </trkpt>
      <trkpt lat="46.516401199623942" lon="12.172199198976159">
        <ele>1667.0599999999999</ele>
        <time>2015-07-15T12:24:07Z</time>
      </trkpt>
      <trkpt lat="46.516403295099735" lon="12.172188721597195">
        <ele>1666.5799999999999</ele>
        <time>2015-07-15T12:24:37Z</time>
      </trkpt>
      <trkpt lat="46.516396002843976" lon="12.172195091843605">
        <ele>1668.02</ele>
        <time>2015-07-15T12:24:43Z</time>
      </trkpt>
      <trkpt lat="46.51641477830708" lon="12.172208838164806">
        <ele>1667.0599999999999</ele>
        <time>2015-07-15T12:24:59Z</time>
      </trkpt>
      <trkpt lat="46.516410084441304" lon="12.172166761010885">
        <ele>1667.54</ele>
        <time>2015-07-15T12:25:26Z</time>
      </trkpt>
      <trkpt lat="46.516407318413258" lon="12.172125605866313">
        <ele>1667.54</ele>
        <time>2015-07-15T12:25:51Z</time>
      </trkpt>
      <trkpt lat="46.516404720023274" lon="12.172172544524074">
        <ele>1667.0599999999999</ele>
        <time>2015-07-15T12:26:20Z</time>
      </trkpt>
      <trkpt lat="46.516400026157498" lon="12.172196768224239">
        <ele>1668.02</ele>
        <time>2015-07-15T12:26:44Z</time>
      </trkpt>
      <trkpt lat="46.516399271786213" lon="12.172213196754456">
        <ele>1667.0599999999999</ele>
        <time>2015-07-15T12:27:12Z</time>
      </trkpt>
      <trkpt lat="46.516391392797232" lon="12.172205066308379">
        <ele>1667.0599999999999</ele>
        <time>2015-07-15T12:27:36Z</time>
      </trkpt>
      <trkpt lat="46.516395080834627" lon="12.172219231724739">
        <ele>1666.5799999999999</ele>
        <time>2015-07-15T12:27:54Z</time>
      </trkpt>
      <trkpt lat="46.516382759436965" lon="12.172220572829247">
        <ele>1666.5799999999999</ele>
        <time>2015-07-15T12:28:18Z</time>
      </trkpt>
      <trkpt lat="46.516378736123443" lon="12.172194002196193">
        <ele>1666.5799999999999</ele>
        <time>2015-07-15T12:28:45Z</time>
      </trkpt>
      <trkpt lat="46.51637664064765" lon="12.17216894030571">
        <ele>1666.5799999999999</ele>
        <time>2015-07-15T12:29:14Z</time>
      </trkpt>
      <trkpt lat="46.516357362270355" lon="12.172183692455292">
        <ele>1666.5799999999999</ele>
        <time>2015-07-15T12:29:45Z</time>
      </trkpt>
      <trkpt lat="46.516356356441975" lon="12.172203892841935">
        <ele>1667.0599999999999</ele>
        <time>2015-07-15T12:29:51Z</time>
      </trkpt>
      <trkpt lat="46.516382675617933" lon="12.172207748517394">
        <ele>1667.54</ele>
        <time>2015-07-15T12:29:59Z</time>
      </trkpt>
      <trkpt lat="46.516369767487049" lon="12.172194253653288">
        <ele>1667.54</ele>
        <time>2015-07-15T12:30:03Z</time>
      </trkpt>
      <trkpt lat="46.516383681446314" lon="12.172193834558129">
        <ele>1666.5799999999999</ele>
        <time>2015-07-15T12:30:14Z</time>
      </trkpt>
      <trkpt lat="46.516394661739469" lon="12.172200875356793">
        <ele>1666.5799999999999</ele>
        <time>2015-07-15T12:30:29Z</time>
      </trkpt>
      <trkpt lat="46.516351914033294" lon="12.172183021903038">
        <ele>1665.6199999999999</ele>
        <time>2015-07-15T12:30:40Z</time>
      </trkpt>
      <trkpt lat="46.516314866021276" lon="12.172170113772154">
        <ele>1664.1800000000001</ele>
        <time>2015-07-15T12:30:48Z</time>
      </trkpt>
      <trkpt lat="46.516304388642311" lon="12.172113955020905">
        <ele>1662.74</ele>
        <time>2015-07-15T12:30:53Z</time>
      </trkpt>
      <trkpt lat="46.51630581356585" lon="12.172015886753798">
        <ele>1659.3699999999999</ele>
        <time>2015-07-15T12:31:01Z</time>
      </trkpt>
      <trkpt lat="46.51627697981894" lon="12.171946987509727">
        <ele>1658.8900000000001</ele>
        <time>2015-07-15T12:31:12Z</time>
      </trkpt>
      <trkpt lat="46.516277398914099" lon="12.171950675547123">
        <ele>1656.49</ele>
        <time>2015-07-15T12:31:13Z</time>
      </trkpt>
      <trkpt lat="46.516246302053332" lon="12.171947071328759">
        <ele>1656.01</ele>
        <time>2015-07-15T12:31:17Z</time>
      </trkpt>
      <trkpt lat="46.516238255426288" lon="12.171939108520746">
        <ele>1656.01</ele>
        <time>2015-07-15T12:31:18Z</time>
      </trkpt>
      <trkpt lat="46.516201123595238" lon="12.171875406056643">
        <ele>1653.5999999999999</ele>
        <time>2015-07-15T12:31:29Z</time>
      </trkpt>
      <trkpt lat="46.516192322596908" lon="12.171788066625595">
        <ele>1650.72</ele>
        <time>2015-07-15T12:31:39Z</time>
      </trkpt>
      <trkpt lat="46.516157621517777" lon="12.171765938401222">
        <ele>1648.3199999999999</ele>
        <time>2015-07-15T12:31:47Z</time>
      </trkpt>
      <trkpt lat="46.516109425574541" lon="12.171715395525098">
        <ele>1645.9100000000001</ele>
        <time>2015-07-15T12:31:56Z</time>
      </trkpt>
      <trkpt lat="46.516050500795245" lon="12.171711623668671">
        <ele>1643.03</ele>
        <time>2015-07-15T12:32:03Z</time>
      </trkpt>
      <trkpt lat="46.515982858836651" lon="12.171746911481023">
        <ele>1639.1900000000001</ele>
        <time>2015-07-15T12:32:13Z</time>
      </trkpt>
      <trkpt lat="46.515975566580892" lon="12.171730818226933">
        <ele>1639.1900000000001</ele>
        <time>2015-07-15T12:32:15Z</time>
      </trkpt>
      <trkpt lat="46.515955701470375" lon="12.171631744131446">
        <ele>1636.3</ele>
        <time>2015-07-15T12:32:24Z</time>
      </trkpt>
      <trkpt lat="46.515927789732814" lon="12.171534094959497">
        <ele>1633.4200000000001</ele>
        <time>2015-07-15T12:32:34Z</time>
      </trkpt>
      <trkpt lat="46.515870792791247" lon="12.171496963128448">
        <ele>1630.53</ele>
        <time>2015-07-15T12:32:43Z</time>
      </trkpt>
      <trkpt lat="46.515845898538828" lon="12.171539878472686">
        <ele>1630.05</ele>
        <time>2015-07-15T12:32:53Z</time>
      </trkpt>
      <trkpt lat="46.515787392854691" lon="12.171473493799567">
        <ele>1627.6500000000001</ele>
        <time>2015-07-15T12:33:03Z</time>
      </trkpt>
      <trkpt lat="46.515776664018631" lon="12.171425633132458">
        <ele>1625.73</ele>
        <time>2015-07-15T12:33:07Z</time>
      </trkpt>
      <trkpt lat="46.515772892162204" lon="12.171406270936131">
        <ele>1625.25</ele>
        <time>2015-07-15T12:33:08Z</time>
      </trkpt>
      <trkpt lat="46.515752021223307" lon="12.171287918463349">
        <ele>1622.8399999999999</ele>
        <time>2015-07-15T12:33:16Z</time>
      </trkpt>
      <trkpt lat="46.515730479732156" lon="12.171255480498075">
        <ele>1622.3599999999999</ele>
        <time>2015-07-15T12:33:19Z</time>
      </trkpt>
      <trkpt lat="46.515718912705779" lon="12.171052554622293">
        <ele>1619.96</ele>
        <time>2015-07-15T12:33:32Z</time>
      </trkpt>
      <trkpt lat="46.515727378427982" lon="12.170870415866375">
        <ele>1618.52</ele>
        <time>2015-07-15T12:33:44Z</time>
      </trkpt>
      <trkpt lat="46.515934746712446" lon="12.170805037021637">
        <ele>1618.52</ele>
        <time>2015-07-15T12:33:55Z</time>
      </trkpt>
      <trkpt lat="46.5159354172647" lon="12.170728594064713">
        <ele>1617.0699999999999</ele>
        <time>2015-07-15T12:34:08Z</time>
      </trkpt>
      <trkpt lat="46.515949666500092" lon="12.170579060912132">
        <ele>1616.1099999999999</ele>
        <time>2015-07-15T12:34:18Z</time>
      </trkpt>
      <trkpt lat="46.515938770025969" lon="12.170429779216647">
        <ele>1616.1099999999999</ele>
        <time>2015-07-15T12:34:28Z</time>
      </trkpt>
      <trkpt lat="46.515930388122797" lon="12.170274462550879">
        <ele>1614.6700000000001</ele>
        <time>2015-07-15T12:34:40Z</time>
      </trkpt>
      <trkpt lat="46.515917982906103" lon="12.17007715255022">
        <ele>1611.79</ele>
        <time>2015-07-15T12:34:53Z</time>
      </trkpt>
      <trkpt lat="46.51591882109642" lon="12.170058796182275">
        <ele>1611.3099999999999</ele>
        <time>2015-07-15T12:34:54Z</time>
      </trkpt>
      <trkpt lat="46.515915552154183" lon="12.169930636882782">
        <ele>1610.3499999999999</ele>
        <time>2015-07-15T12:35:04Z</time>
      </trkpt>
      <trkpt lat="46.515897447243333" lon="12.169900042936206">
        <ele>1609.3800000000001</ele>
        <time>2015-07-15T12:35:08Z</time>
      </trkpt>
      <trkpt lat="46.515877079218626" lon="12.169770710170269">
        <ele>1607.46</ele>
        <time>2015-07-15T12:35:18Z</time>
      </trkpt>
      <trkpt lat="46.515861405059695" lon="12.169719161465764">
        <ele>1606.02</ele>
        <time>2015-07-15T12:35:21Z</time>
      </trkpt>
      <trkpt lat="46.515851262956858" lon="12.169536855071783">
        <ele>1605.54</ele>
        <time>2015-07-15T12:35:33Z</time>
      </trkpt>
      <trkpt lat="46.515840869396925" lon="12.169506261125207">
        <ele>1605.54</ele>
        <time>2015-07-15T12:35:35Z</time>
      </trkpt>
      <trkpt lat="46.515764342620969" lon="12.169370222836733">
        <ele>1603.6199999999999</ele>
        <time>2015-07-15T12:35:46Z</time>
      </trkpt>
      <trkpt lat="46.515734670683742" lon="12.169308699667454">
        <ele>1601.6900000000001</ele>
        <time>2015-07-15T12:35:51Z</time>
      </trkpt>
      <trkpt lat="46.515778005123138" lon="12.169071743264794">
        <ele>1598.3299999999999</ele>
        <time>2015-07-15T12:36:05Z</time>
      </trkpt>
      <trkpt lat="46.515771048143506" lon="12.16888583265245">
        <ele>1596.8900000000001</ele>
        <time>2015-07-15T12:36:17Z</time>
      </trkpt>
      <trkpt lat="46.515748668462038" lon="12.168726660311222">
        <ele>1594.96</ele>
        <time>2015-07-15T12:36:28Z</time>
      </trkpt>
      <trkpt lat="46.515704328194261" lon="12.168499929830432">
        <ele>1593.04</ele>
        <time>2015-07-15T12:36:41Z</time>
      </trkpt>
      <trkpt lat="46.515702567994595" lon="12.168462630361319">
        <ele>1593.04</ele>
        <time>2015-07-15T12:36:43Z</time>
      </trkpt>
      <trkpt lat="46.515711955726147" lon="12.168243275955319">
        <ele>1590.6400000000001</ele>
        <time>2015-07-15T12:36:55Z</time>
      </trkpt>
      <trkpt lat="46.51572042144835" lon="12.168060215190053">
        <ele>1590.1600000000001</ele>
        <time>2015-07-15T12:37:06Z</time>
      </trkpt>
      <trkpt lat="46.515772808343172" lon="12.167941527441144">
        <ele>1589.2</ele>
        <time>2015-07-15T12:37:14Z</time>
      </trkpt>
      <trkpt lat="46.515826117247343" lon="12.167887464165688">
        <ele>1587.75</ele>
        <time>2015-07-15T12:37:23Z</time>
      </trkpt>
      <trkpt lat="46.515896609053016" lon="12.167829545214772">
        <ele>1585.8299999999999</ele>
        <time>2015-07-15T12:37:34Z</time>
      </trkpt>
      <trkpt lat="46.515971794724464" lon="12.167763411998749">
        <ele>1583.4300000000001</ele>
        <time>2015-07-15T12:37:43Z</time>
      </trkpt>
      <trkpt lat="46.516044214367867" lon="12.167680179700255">
        <ele>1582.47</ele>
        <time>2015-07-15T12:37:53Z</time>
      </trkpt>
      <trkpt lat="46.516033820807934" lon="12.16766182333231">
        <ele>1581.99</ele>
        <time>2015-07-15T12:38:02Z</time>
      </trkpt>
      <trkpt lat="46.516088219359517" lon="12.167598120868206">
        <ele>1580.0599999999999</ele>
        <time>2015-07-15T12:38:12Z</time>
      </trkpt>
      <trkpt lat="46.51612157933414" lon="12.167574902996421">
        <ele>1579.5799999999999</ele>
        <time>2015-07-15T12:38:15Z</time>
      </trkpt>
      <trkpt lat="46.516197687014937" lon="12.167491586878896">
        <ele>1576.22</ele>
        <time>2015-07-15T12:38:23Z</time>
      </trkpt>
      <trkpt lat="46.516305981203914" lon="12.167443055659533">
        <ele>1573.8199999999999</ele>
        <time>2015-07-15T12:38:34Z</time>
      </trkpt>
      <trkpt lat="46.51639181189239" lon="12.167421597987413">
        <ele>1571.4100000000001</ele>
        <time>2015-07-15T12:38:45Z</time>
      </trkpt>
      <trkpt lat="46.516439337283373" lon="12.167399888858199">
        <ele>1569.97</ele>
        <time>2015-07-15T12:38:51Z</time>
      </trkpt>
      <trkpt lat="46.516515109688044" lon="12.167343311011791">
        <ele>1567.0899999999999</ele>
        <time>2015-07-15T12:38:59Z</time>
      </trkpt>
      <trkpt lat="46.516560958698392" lon="12.167307352647185">
        <ele>1566.1199999999999</ele>
        <time>2015-07-15T12:39:04Z</time>
      </trkpt>
      <trkpt lat="46.516585350036621" lon="12.167269047349691">
        <ele>1565.6400000000001</ele>
        <time>2015-07-15T12:39:08Z</time>
      </trkpt>
      <trkpt lat="46.516672689467669" lon="12.167256390675902">
        <ele>1563.72</ele>
        <time>2015-07-15T12:39:17Z</time>
      </trkpt>
      <trkpt lat="46.516760280355811" lon="12.167200818657875">
        <ele>1560.3599999999999</ele>
        <time>2015-07-15T12:39:28Z</time>
      </trkpt>
      <trkpt lat="46.516842758283019" lon="12.167104678228498">
        <ele>1558.9200000000001</ele>
        <time>2015-07-15T12:39:38Z</time>
      </trkpt>
      <trkpt lat="46.516920626163483" lon="12.166983392089605">
        <ele>1558.4300000000001</ele>
        <time>2015-07-15T12:39:50Z</time>
      </trkpt>
      <trkpt lat="46.517029423266649" lon="12.166855232790112">
        <ele>1558.4300000000001</ele>
        <time>2015-07-15T12:40:03Z</time>
      </trkpt>
      <trkpt lat="46.517126569524407" lon="12.166734114289284">
        <ele>1556.03</ele>
        <time>2015-07-15T12:40:15Z</time>
      </trkpt>
      <trkpt lat="46.517131850123405" lon="12.166724307462573">
        <ele>1556.03</ele>
        <time>2015-07-15T12:40:16Z</time>
      </trkpt>
      <trkpt lat="46.517253052443266" lon="12.166590699926019">
        <ele>1552.6700000000001</ele>
        <time>2015-07-15T12:40:30Z</time>
      </trkpt>
      <trkpt lat="46.517334021627903" lon="12.166480645537376">
        <ele>1552.1900000000001</ele>
        <time>2015-07-15T12:40:42Z</time>
      </trkpt>
      <trkpt lat="46.517430664971471" lon="12.166394395753741">
        <ele>1551.22</ele>
        <time>2015-07-15T12:40:52Z</time>
      </trkpt>
      <trkpt lat="46.517444662749767" lon="12.16637184843421">
        <ele>1550.26</ele>
        <time>2015-07-15T12:40:54Z</time>
      </trkpt>
      <trkpt lat="46.517559075728059" lon="12.166218794882298">
        <ele>1547.3800000000001</ele>
        <time>2015-07-15T12:41:07Z</time>
      </trkpt>
      <trkpt lat="46.517667202278972" lon="12.166098263114691">
        <ele>1544.5</ele>
        <time>2015-07-15T12:41:18Z</time>
      </trkpt>
      <trkpt lat="46.517762336879969" lon="12.165971947833896">
        <ele>1543.05</ele>
        <time>2015-07-15T12:41:29Z</time>
      </trkpt>
      <trkpt lat="46.517775915563107" lon="12.16594822704792">
        <ele>1543.05</ele>
        <time>2015-07-15T12:41:31Z</time>
      </trkpt>
      <trkpt lat="46.517862249165773" lon="12.165758796036243">
        <ele>1542.0899999999999</ele>
        <time>2015-07-15T12:41:45Z</time>
      </trkpt>
      <trkpt lat="46.517925029620528" lon="12.165688723325729">
        <ele>1541.1300000000001</ele>
        <time>2015-07-15T12:41:51Z</time>
      </trkpt>
      <trkpt lat="46.517995856702328" lon="12.165553020313382">
        <ele>1539.6900000000001</ele>
        <time>2015-07-15T12:42:02Z</time>
      </trkpt>
      <trkpt lat="46.518012536689639" lon="12.165537094697356">
        <ele>1539.6900000000001</ele>
        <time>2015-07-15T12:42:04Z</time>
      </trkpt>
      <trkpt lat="46.518094930797815" lon="12.165328469127417">
        <ele>1537.29</ele>
        <time>2015-07-15T12:42:19Z</time>
      </trkpt>
      <trkpt lat="46.518097529187799" lon="12.16531639918685">
        <ele>1537.77</ele>
        <time>2015-07-15T12:42:20Z</time>
      </trkpt>
      <trkpt lat="46.518184700980783" lon="12.165149180218577">
        <ele>1536.8</ele>
        <time>2015-07-15T12:42:33Z</time>
      </trkpt>
      <trkpt lat="46.518272962421179" lon="12.165058152750134">
        <ele>1536.3199999999999</ele>
        <time>2015-07-15T12:42:43Z</time>
      </trkpt>
      <trkpt lat="46.518284361809492" lon="12.165032252669334">
        <ele>1535.3599999999999</ele>
        <time>2015-07-15T12:42:45Z</time>
      </trkpt>
      <trkpt lat="46.518349573016167" lon="12.164904680103064">
        <ele>1532.48</ele>
        <time>2015-07-15T12:42:56Z</time>
      </trkpt>
      <trkpt lat="46.518420064821839" lon="12.164795296266675">
        <ele>1529.5899999999999</ele>
        <time>2015-07-15T12:43:05Z</time>
      </trkpt>
      <trkpt lat="46.518515031784773" lon="12.164701335132122">
        <ele>1526.71</ele>
        <time>2015-07-15T12:43:15Z</time>
      </trkpt>
      <trkpt lat="46.518621649593115" lon="12.164617013186216">
        <ele>1523.8299999999999</ele>
        <time>2015-07-15T12:43:26Z</time>
      </trkpt>
      <trkpt lat="46.518753245472908" lon="12.164496565237641">
        <ele>1520.9400000000001</ele>
        <time>2015-07-15T12:43:40Z</time>
      </trkpt>
      <trkpt lat="46.518854163587093" lon="12.164426743984222">
        <ele>1517.0999999999999</ele>
        <time>2015-07-15T12:43:51Z</time>
      </trkpt>
      <trkpt lat="46.518946699798107" lon="12.164380894973874">
        <ele>1514.21</ele>
        <time>2015-07-15T12:44:01Z</time>
      </trkpt>
      <trkpt lat="46.519047953188419" lon="12.164316521957517">
        <ele>1510.8499999999999</ele>
        <time>2015-07-15T12:44:13Z</time>
      </trkpt>
      <trkpt lat="46.519126491621137" lon="12.164268661290407">
        <ele>1508.9300000000001</ele>
        <time>2015-07-15T12:44:21Z</time>
      </trkpt>
      <trkpt lat="46.519265966489911" lon="12.16418182477355">
        <ele>1505.5599999999999</ele>
        <time>2015-07-15T12:44:34Z</time>
      </trkpt>
      <trkpt lat="46.519349031150341" lon="12.164134718477726">
        <ele>1502.2</ele>
        <time>2015-07-15T12:44:43Z</time>
      </trkpt>
      <trkpt lat="46.519411560148001" lon="12.164042266085744">
        <ele>1498.8299999999999</ele>
        <time>2015-07-15T12:44:54Z</time>
      </trkpt>
      <trkpt lat="46.519431928172708" lon="12.164013599976897">
        <ele>1497.8699999999999</ele>
        <time>2015-07-15T12:44:57Z</time>
      </trkpt>
      <trkpt lat="46.519473837688565" lon="12.163951154798269">
        <ele>1495.95</ele>
        <time>2015-07-15T12:45:03Z</time>
      </trkpt>
      <trkpt lat="46.519525721669197" lon="12.163789300248027">
        <ele>1493.0599999999999</ele>
        <time>2015-07-15T12:45:16Z</time>
      </trkpt>
      <trkpt lat="46.519574755802751" lon="12.163643203675747">
        <ele>1489.7</ele>
        <time>2015-07-15T12:45:28Z</time>
      </trkpt>
      <trkpt lat="46.519605349749327" lon="12.163584362715483">
        <ele>1487.78</ele>
        <time>2015-07-15T12:45:33Z</time>
      </trkpt>
      <trkpt lat="46.51966511271894" lon="12.16344446875155">
        <ele>1484.4100000000001</ele>
        <time>2015-07-15T12:45:45Z</time>
      </trkpt>
      <trkpt lat="46.519712470471859" lon="12.163317482918501">
        <ele>1481.53</ele>
        <time>2015-07-15T12:45:56Z</time>
      </trkpt>
      <trkpt lat="46.519760834053159" lon="12.163120089098811">
        <ele>1478.1600000000001</ele>
        <time>2015-07-15T12:46:10Z</time>
      </trkpt>
      <trkpt lat="46.519794864580035" lon="12.163015650585294">
        <ele>1475.28</ele>
        <time>2015-07-15T12:46:19Z</time>
      </trkpt>
      <trkpt lat="46.519826129078865" lon="12.16284591704607">
        <ele>1472.4000000000001</ele>
        <time>2015-07-15T12:46:32Z</time>
      </trkpt>
      <trkpt lat="46.519831996411085" lon="12.162650283426046">
        <ele>1469.51</ele>
        <time>2015-07-15T12:46:45Z</time>
      </trkpt>
      <trkpt lat="46.519779190421104" lon="12.162595046684146">
        <ele>1467.1099999999999</ele>
        <time>2015-07-15T12:46:55Z</time>
      </trkpt>
      <trkpt lat="46.519732167944312" lon="12.162501588463783">
        <ele>1465.1900000000001</ele>
        <time>2015-07-15T12:47:06Z</time>
      </trkpt>
      <trkpt lat="46.51972915045917" lon="12.162483315914869">
        <ele>1463.74</ele>
        <time>2015-07-15T12:47:16Z</time>
      </trkpt>
      <trkpt lat="46.519804839044809" lon="12.162468479946256">
        <ele>1464.23</ele>
        <time>2015-07-15T12:47:41Z</time>
      </trkpt>
      <trkpt lat="46.519831828773022" lon="12.162408633157611">
        <ele>1463.74</ele>
        <time>2015-07-15T12:48:07Z</time>
      </trkpt>
      <trkpt lat="46.519830068573356" lon="12.162420284003019">
        <ele>1463.74</ele>
        <time>2015-07-15T12:48:33Z</time>
      </trkpt>
      <trkpt lat="46.519715907052159" lon="12.162462864071131">
        <ele>1463.26</ele>
        <time>2015-07-15T12:48:57Z</time>
      </trkpt>
      <trkpt lat="46.51966318488121" lon="12.162441490218043">
        <ele>1462.78</ele>
        <time>2015-07-15T12:49:18Z</time>
      </trkpt>
      <trkpt lat="46.519725797697902" lon="12.162410896271467">
        <ele>1462.78</ele>
        <time>2015-07-15T12:49:42Z</time>
      </trkpt>
      <trkpt lat="46.519752368330956" lon="12.162449285387993">
        <ele>1462.78</ele>
        <time>2015-07-15T12:50:00Z</time>
      </trkpt>
      <trkpt lat="46.51974331587553" lon="12.162442160770297">
        <ele>1462.78</ele>
        <time>2015-07-15T12:50:23Z</time>
      </trkpt>
      <trkpt lat="46.51974231004715" lon="12.162432270124555">
        <ele>1463.26</ele>
        <time>2015-07-15T12:50:39Z</time>
      </trkpt>
      <trkpt lat="46.519679445773363" lon="12.162400167435408">
        <ele>1463.26</ele>
        <time>2015-07-15T12:50:52Z</time>
      </trkpt>
      <trkpt lat="46.519682547077537" lon="12.162395305931568">
        <ele>1463.26</ele>
        <time>2015-07-15T12:51:14Z</time>
      </trkpt>
      <trkpt lat="46.519777849316597" lon="12.162397988140583">
        <ele>1463.26</ele>
        <time>2015-07-15T12:51:35Z</time>
      </trkpt>
      <trkpt lat="46.519758151844144" lon="12.162413997575641">
        <ele>1462.78</ele>
        <time>2015-07-15T12:51:50Z</time>
      </trkpt>
      <trkpt lat="46.519724372774363" lon="12.162406956776977">
        <ele>1462.78</ele>
        <time>2015-07-15T12:52:13Z</time>
      </trkpt>
      <trkpt lat="46.519719259813428" lon="12.162372590973973">
        <ele>1462.3</ele>
        <time>2015-07-15T12:52:38Z</time>
      </trkpt>
      <trkpt lat="46.519700819626451" lon="12.162344511598349">
        <ele>1462.3</ele>
        <time>2015-07-15T12:53:04Z</time>
      </trkpt>
      <trkpt lat="46.519706603139639" lon="12.162434449419379">
        <ele>1462.3</ele>
        <time>2015-07-15T12:53:26Z</time>
      </trkpt>
      <trkpt lat="46.519707273691893" lon="12.162456745281816">
        <ele>1462.3</ele>
        <time>2015-07-15T12:53:52Z</time>
      </trkpt>
      <trkpt lat="46.519692772999406" lon="12.16244425624609">
        <ele>1462.3</ele>
        <time>2015-07-15T12:54:12Z</time>
      </trkpt>
      <trkpt lat="46.519671818241477" lon="12.16245842166245">
        <ele>1462.78</ele>
        <time>2015-07-15T12:54:31Z</time>
      </trkpt>
      <trkpt lat="46.519682798534632" lon="12.162488512694836">
        <ele>1462.3</ele>
        <time>2015-07-15T12:54:54Z</time>
      </trkpt>
      <trkpt lat="46.519686905667186" lon="12.162519861012697">
        <ele>1462.78</ele>
        <time>2015-07-15T12:55:18Z</time>
      </trkpt>
      <trkpt lat="46.519649438560009" lon="12.162485830485821">
        <ele>1462.3</ele>
        <time>2015-07-15T12:55:39Z</time>
      </trkpt>
      <trkpt lat="46.519685564562678" lon="12.162408130243421">
        <ele>1462.78</ele>
        <time>2015-07-15T12:56:04Z</time>
      </trkpt>
      <trkpt lat="46.519687743857503" lon="12.16241592541337">
        <ele>1462.78</ele>
        <time>2015-07-15T12:56:23Z</time>
      </trkpt>
      <trkpt lat="46.519708782434464" lon="12.162386672571301">
        <ele>1463.26</ele>
        <time>2015-07-15T12:56:44Z</time>
      </trkpt>
      <trkpt lat="46.519707441329956" lon="12.1623919531703">
        <ele>1463.26</ele>
        <time>2015-07-15T12:57:11Z</time>
      </trkpt>
      <trkpt lat="46.519683049991727" lon="12.162442915141582">
        <ele>1463.26</ele>
        <time>2015-07-15T12:57:33Z</time>
      </trkpt>
      <trkpt lat="46.519676176831126" lon="12.162427492439747">
        <ele>1463.26</ele>
        <time>2015-07-15T12:57:56Z</time>
      </trkpt>
      <trkpt lat="46.519686821848154" lon="12.162430761381984">
        <ele>1463.26</ele>
        <time>2015-07-15T12:58:15Z</time>
      </trkpt>
      <trkpt lat="46.519732754677534" lon="12.16237485408783">
        <ele>1463.26</ele>
        <time>2015-07-15T12:58:43Z</time>
      </trkpt>
      <trkpt lat="46.519735269248486" lon="12.162394300103188">
        <ele>1463.26</ele>
        <time>2015-07-15T12:59:09Z</time>
      </trkpt>
      <trkpt lat="46.51971741579473" lon="12.162414751946926">
        <ele>1463.26</ele>
        <time>2015-07-15T12:59:30Z</time>
      </trkpt>
      <trkpt lat="46.519717834889889" lon="12.162415506318212">
        <ele>1463.26</ele>
        <time>2015-07-15T12:59:56Z</time>
      </trkpt>
      <trkpt lat="46.519711716100574" lon="12.162385582923889">
        <ele>1462.78</ele>
        <time>2015-07-15T13:00:16Z</time>
      </trkpt>
      <trkpt lat="46.519712302833796" lon="12.162375692278147">
        <ele>1463.26</ele>
        <time>2015-07-15T13:00:38Z</time>
      </trkpt>
      <trkpt lat="46.519738202914596" lon="12.162394048646092">
        <ele>1463.26</ele>
        <time>2015-07-15T13:00:55Z</time>
      </trkpt>
      <trkpt lat="46.519736694172025" lon="12.162418775260448">
        <ele>1463.26</ele>
        <time>2015-07-15T13:01:18Z</time>
      </trkpt>
      <trkpt lat="46.519709788262844" lon="12.162400837987661">
        <ele>1462.78</ele>
        <time>2015-07-15T13:01:46Z</time>
      </trkpt>
      <trkpt lat="46.519701909273863" lon="12.16236412525177">
        <ele>1463.74</ele>
        <time>2015-07-15T13:02:05Z</time>
      </trkpt>
      <trkpt lat="46.519715404137969" lon="12.162330849096179">
        <ele>1462.78</ele>
        <time>2015-07-15T13:02:22Z</time>
      </trkpt>
      <trkpt lat="46.519728563725948" lon="12.162325736135244">
        <ele>1462.78</ele>
        <time>2015-07-15T13:02:38Z</time>
      </trkpt>
      <trkpt lat="46.519725881516933" lon="12.162341997027397">
        <ele>1463.74</ele>
        <time>2015-07-15T13:02:50Z</time>
      </trkpt>
      <trkpt lat="46.519710626453161" lon="12.162319868803024">
        <ele>1464.71</ele>
        <time>2015-07-15T13:03:02Z</time>
      </trkpt>
      <trkpt lat="46.519786063581705" lon="12.162219202145934">
        <ele>1464.23</ele>
        <time>2015-07-15T13:03:16Z</time>
      </trkpt>
      <trkpt lat="46.519823027774692" lon="12.162168323993683">
        <ele>1464.23</ele>
        <time>2015-07-15T13:03:30Z</time>
      </trkpt>
      <trkpt lat="46.51972621679306" lon="12.16212666593492">
        <ele>1463.74</ele>
        <time>2015-07-15T13:03:41Z</time>
      </trkpt>
      <trkpt lat="46.519667878746986" lon="12.162028262391686">
        <ele>1462.3</ele>
        <time>2015-07-15T13:03:50Z</time>
      </trkpt>
      <trkpt lat="46.519591519609094" lon="12.161869425326586">
        <ele>1461.8199999999999</ele>
        <time>2015-07-15T13:04:04Z</time>
      </trkpt>
      <trkpt lat="46.519480710849166" lon="12.161737577989697">
        <ele>1460.3800000000001</ele>
        <time>2015-07-15T13:04:16Z</time>
      </trkpt>
      <trkpt lat="46.519357832148671" lon="12.161577986553311">
        <ele>1458.46</ele>
        <time>2015-07-15T13:04:28Z</time>
      </trkpt>
      <trkpt lat="46.519268313422799" lon="12.161337928846478">
        <ele>1457.98</ele>
        <time>2015-07-15T13:04:42Z</time>
      </trkpt>
      <trkpt lat="46.519232271239161" lon="12.161128129810095">
        <ele>1457.5</ele>
        <time>2015-07-15T13:04:54Z</time>
      </trkpt>
      <trkpt lat="46.519285077229142" lon="12.160898130387068">
        <ele>1454.1300000000001</ele>
        <time>2015-07-15T13:05:06Z</time>
      </trkpt>
      <trkpt lat="46.519263787195086" lon="12.160693360492587">
        <ele>1451.73</ele>
        <time>2015-07-15T13:05:17Z</time>
      </trkpt>
      <trkpt lat="46.519256578758359" lon="12.160666286945343">
        <ele>1450.29</ele>
        <time>2015-07-15T13:05:18Z</time>
      </trkpt>
      <trkpt lat="46.519198743626475" lon="12.160508539527655">
        <ele>1446.9200000000001</ele>
        <time>2015-07-15T13:05:28Z</time>
      </trkpt>
      <trkpt lat="46.519160522148013" lon="12.160406531766057">
        <ele>1445</ele>
        <time>2015-07-15T13:05:34Z</time>
      </trkpt>
      <trkpt lat="46.519111320376396" lon="12.160284072160721">
        <ele>1441.6300000000001</ele>
        <time>2015-07-15T13:05:42Z</time>
      </trkpt>
      <trkpt lat="46.519056251272559" lon="12.160185920074582">
        <ele>1438.75</ele>
        <time>2015-07-15T13:05:51Z</time>
      </trkpt>
      <trkpt lat="46.51904066093266" lon="12.160163037478924">
        <ele>1438.27</ele>
        <time>2015-07-15T13:05:53Z</time>
      </trkpt>
      <trkpt lat="46.518920380622149" lon="12.160113165155053">
        <ele>1434.9100000000001</ele>
        <time>2015-07-15T13:06:06Z</time>
      </trkpt>
      <trkpt lat="46.518826335668564" lon="12.160027837380767">
        <ele>1432.02</ele>
        <time>2015-07-15T13:06:14Z</time>
      </trkpt>
      <trkpt lat="46.518818791955709" lon="12.16002507135272">
        <ele>1431.0599999999999</ele>
        <time>2015-07-15T13:06:15Z</time>
      </trkpt>
      <trkpt lat="46.518751820549369" lon="12.159933373332024">
        <ele>1427.7</ele>
        <time>2015-07-15T13:06:24Z</time>
      </trkpt>
      <trkpt lat="46.518683927133679" lon="12.159797921776772">
        <ele>1425.29</ele>
        <time>2015-07-15T13:06:32Z</time>
      </trkpt>
      <trkpt lat="46.518658027052879" lon="12.15962877497077">
        <ele>1421.9300000000001</ele>
        <time>2015-07-15T13:06:38Z</time>
      </trkpt>
      <trkpt lat="46.518600778654218" lon="12.159493491053581">
        <ele>1419.04</ele>
        <time>2015-07-15T13:06:46Z</time>
      </trkpt>
      <trkpt lat="46.518543865531683" lon="12.15932535007596">
        <ele>1415.6800000000001</ele>
        <time>2015-07-15T13:06:57Z</time>
      </trkpt>
      <trkpt lat="46.518581584095955" lon="12.159264832735062">
        <ele>1414.24</ele>
        <time>2015-07-15T13:07:04Z</time>
      </trkpt>
      <trkpt lat="46.518592732027173" lon="12.159253852441907">
        <ele>1414.24</ele>
        <time>2015-07-15T13:07:05Z</time>
      </trkpt>
      <trkpt lat="46.518689878284931" lon="12.159116892144084">
        <ele>1412.3099999999999</ele>
        <time>2015-07-15T13:07:14Z</time>
      </trkpt>
      <trkpt lat="46.518703289330006" lon="12.159109096974134">
        <ele>1412.3099999999999</ele>
        <time>2015-07-15T13:07:15Z</time>
      </trkpt>
      <trkpt lat="46.518813762813807" lon="12.158958641812205">
        <ele>1410.8699999999999</ele>
        <time>2015-07-15T13:07:26Z</time>
      </trkpt>
      <trkpt lat="46.518829688429832" lon="12.158934501931071">
        <ele>1410.3900000000001</ele>
        <time>2015-07-15T13:07:28Z</time>
      </trkpt>
      <trkpt lat="46.518955752253532" lon="12.158765606582165">
        <ele>1407.51</ele>
        <time>2015-07-15T13:07:42Z</time>
      </trkpt>
      <trkpt lat="46.519001936540008" lon="12.158696288242936">
        <ele>1406.55</ele>
        <time>2015-07-15T13:07:46Z</time>
      </trkpt>
      <trkpt lat="46.519107632339001" lon="12.158549521118402">
        <ele>1403.6600000000001</ele>
        <time>2015-07-15T13:07:59Z</time>
      </trkpt>
      <trkpt lat="46.519127665087581" lon="12.158515574410558">
        <ele>1402.22</ele>
        <time>2015-07-15T13:08:02Z</time>
      </trkpt>
      <trkpt lat="46.519144177436829" lon="12.158473497256637">
        <ele>1401.26</ele>
        <time>2015-07-15T13:08:06Z</time>
      </trkpt>
      <trkpt lat="46.519191870465875" lon="12.158401496708393">
        <ele>1399.3399999999999</ele>
        <time>2015-07-15T13:08:12Z</time>
      </trkpt>
      <trkpt lat="46.519239144399762" lon="12.1583217009902">
        <ele>1397.4100000000001</ele>
        <time>2015-07-15T13:08:18Z</time>
      </trkpt>
      <trkpt lat="46.519276276230812" lon="12.158193541690707">
        <ele>1394.53</ele>
        <time>2015-07-15T13:08:27Z</time>
      </trkpt>
      <trkpt lat="46.519314665347338" lon="12.158034788444638">
        <ele>1391.6500000000001</ele>
        <time>2015-07-15T13:08:37Z</time>
      </trkpt>
      <trkpt lat="46.519383899867535" lon="12.157848291099072">
        <ele>1389.72</ele>
        <time>2015-07-15T13:08:47Z</time>
      </trkpt>
      <trkpt lat="46.519458582624793" lon="12.157711498439312">
        <ele>1387.3199999999999</ele>
        <time>2015-07-15T13:08:57Z</time>
      </trkpt>
      <trkpt lat="46.519566122442484" lon="12.157541429623961">
        <ele>1385.8800000000001</ele>
        <time>2015-07-15T13:09:07Z</time>
      </trkpt>
      <trkpt lat="46.519619263708591" lon="12.157465321943164">
        <ele>1384.4400000000001</ele>
        <time>2015-07-15T13:09:13Z</time>
      </trkpt>
      <trkpt lat="46.519626220688224" lon="12.157451407983899">
        <ele>1384.4400000000001</ele>
        <time>2015-07-15T13:09:14Z</time>
      </trkpt>
      <trkpt lat="46.519782040268183" lon="12.157329116016626">
        <ele>1382.03</ele>
        <time>2015-07-15T13:09:28Z</time>
      </trkpt>
      <trkpt lat="46.519901063293219" lon="12.157256947830319">
        <ele>1380.1099999999999</ele>
        <time>2015-07-15T13:09:38Z</time>
      </trkpt>
      <trkpt lat="46.519995108246803" lon="12.157197603955865">
        <ele>1378.1900000000001</ele>
        <time>2015-07-15T13:09:46Z</time>
      </trkpt>
      <trkpt lat="46.520082363858819" lon="12.157157370820642">
        <ele>1375.78</ele>
        <time>2015-07-15T13:09:54Z</time>
      </trkpt>
      <trkpt lat="46.520121591165662" lon="12.157150413841009">
        <ele>1375.3</ele>
        <time>2015-07-15T13:09:57Z</time>
      </trkpt>
      <trkpt lat="46.520135924220085" lon="12.157141361385584">
        <ele>1374.8199999999999</ele>
        <time>2015-07-15T13:09:58Z</time>
      </trkpt>
      <trkpt lat="46.520268023014069" lon="12.156968777999282">
        <ele>1373.3800000000001</ele>
        <time>2015-07-15T13:10:09Z</time>
      </trkpt>
      <trkpt lat="46.520344214513898" lon="12.156804827973247">
        <ele>1375.78</ele>
        <time>2015-07-15T13:10:21Z</time>
      </trkpt>
      <trkpt lat="46.520394589751959" lon="12.156754955649376">
        <ele>1376.75</ele>
        <time>2015-07-15T13:10:29Z</time>
      </trkpt>
      <trkpt lat="46.520449407398701" lon="12.156688654795289">
        <ele>1377.71</ele>
        <time>2015-07-15T13:10:37Z</time>
      </trkpt>
      <trkpt lat="46.520480085164309" lon="12.156654791906476">
        <ele>1377.23</ele>
        <time>2015-07-15T13:10:40Z</time>
      </trkpt>
      <trkpt lat="46.520609250292182" lon="12.156567955389619">
        <ele>1377.23</ele>
        <time>2015-07-15T13:10:51Z</time>
      </trkpt>
      <trkpt lat="46.520749144256115" lon="12.156492518261075">
        <ele>1378.1900000000001</ele>
        <time>2015-07-15T13:11:04Z</time>
      </trkpt>
      <trkpt lat="46.520857522264123" lon="12.156441556289792">
        <ele>1375.78</ele>
        <time>2015-07-15T13:11:14Z</time>
      </trkpt>
      <trkpt lat="46.520919045433402" lon="12.15644096955657">
        <ele>1375.78</ele>
        <time>2015-07-15T13:11:17Z</time>
      </trkpt>
      <trkpt lat="46.521075116470456" lon="12.156348181888461">
        <ele>1374.3399999999999</ele>
        <time>2015-07-15T13:11:30Z</time>
      </trkpt>
      <trkpt lat="46.521226158365607" lon="12.156324880197644">
        <ele>1374.8199999999999</ele>
        <time>2015-07-15T13:11:40Z</time>
      </trkpt>
      <trkpt lat="46.521301260218024" lon="12.156355557963252">
        <ele>1375.3</ele>
        <time>2015-07-15T13:11:49Z</time>
      </trkpt>
      <trkpt lat="46.521335039287806" lon="12.156328232958913">
        <ele>1375.78</ele>
        <time>2015-07-15T13:11:53Z</time>
      </trkpt>
      <trkpt lat="46.52142564766109" lon="12.156112482771277">
        <ele>1376.26</ele>
        <time>2015-07-15T13:12:06Z</time>
      </trkpt>
      <trkpt lat="46.52142564766109" lon="12.156078787520528">
        <ele>1376.26</ele>
        <time>2015-07-15T13:12:16Z</time>
      </trkpt>
      <trkpt lat="46.521420450881124" lon="12.156130084767938">
        <ele>1375.78</ele>
        <time>2015-07-15T13:12:28Z</time>
      </trkpt>
      <trkpt lat="46.521400585770607" lon="12.156083481386304">
        <ele>1375.3</ele>
        <time>2015-07-15T13:12:42Z</time>
      </trkpt>
      <trkpt lat="46.521340738981962" lon="12.15614047832787">
        <ele>1373.8599999999999</ele>
        <time>2015-07-15T13:12:54Z</time>
      </trkpt>
      <trkpt lat="46.521334452554584" lon="12.156095383688807">
        <ele>1373.8599999999999</ele>
        <time>2015-07-15T13:13:05Z</time>
      </trkpt>
      <trkpt lat="46.521321963518858" lon="12.15609697625041">
        <ele>1373.8599999999999</ele>
        <time>2015-07-15T13:13:14Z</time>
      </trkpt>
      <trkpt lat="46.521341493353248" lon="12.156116003170609">
        <ele>1372.4200000000001</ele>
        <time>2015-07-15T13:13:22Z</time>
      </trkpt>
      <trkpt lat="46.521330680698156" lon="12.15610577724874">
        <ele>1372.4200000000001</ele>
        <time>2015-07-15T13:13:44Z</time>
      </trkpt>
      <trkpt lat="46.52134015224874" lon="12.156144250184298">
        <ele>1372.4200000000001</ele>
        <time>2015-07-15T13:14:12Z</time>
      </trkpt>
      <trkpt lat="46.521318526938558" lon="12.15614533983171">
        <ele>1372.4200000000001</ele>
        <time>2015-07-15T13:14:19Z</time>
      </trkpt>
      <trkpt lat="46.521190535277128" lon="12.156120864674449">
        <ele>1370.02</ele>
        <time>2015-07-15T13:14:31Z</time>
      </trkpt>
      <trkpt lat="46.521084839478135" lon="12.155996561050415">
        <ele>1368.5699999999999</ele>
        <time>2015-07-15T13:14:42Z</time>
      </trkpt>
      <trkpt lat="46.521020885556936" lon="12.155745523050427">
        <ele>1368.5699999999999</ele>
        <time>2015-07-15T13:14:56Z</time>
      </trkpt>
      <trkpt lat="46.520962547510862" lon="12.155533125624061">
        <ele>1369.05</ele>
        <time>2015-07-15T13:15:07Z</time>
      </trkpt>
      <trkpt lat="46.520955674350262" lon="12.155513931065798">
        <ele>1368.5699999999999</ele>
        <time>2015-07-15T13:15:08Z</time>
      </trkpt>
      <trkpt lat="46.520877052098513" lon="12.155263479799032">
        <ele>1366.1700000000001</ele>
        <time>2015-07-15T13:15:22Z</time>
      </trkpt>
      <trkpt lat="46.520873447880149" lon="12.155231880024076">
        <ele>1366.1700000000001</ele>
        <time>2015-07-15T13:15:24Z</time>
      </trkpt>
      <trkpt lat="46.520796334370971" lon="12.155060134828091">
        <ele>1366.1700000000001</ele>
        <time>2015-07-15T13:15:37Z</time>
      </trkpt>
      <trkpt lat="46.520724920555949" lon="12.154959132894874">
        <ele>1365.6900000000001</ele>
        <time>2015-07-15T13:15:43Z</time>
      </trkpt>
      <trkpt lat="46.520714024081826" lon="12.154953936114907">
        <ele>1365.6900000000001</ele>
        <time>2015-07-15T13:15:44Z</time>
      </trkpt>
      <trkpt lat="46.520560383796692" lon="12.154989894479513">
        <ele>1364.73</ele>
        <time>2015-07-15T13:15:57Z</time>
      </trkpt>
      <trkpt lat="46.520553594455123" lon="12.154985619708896">
        <ele>1364.73</ele>
        <time>2015-07-15T13:15:58Z</time>
      </trkpt>
      <trkpt lat="46.520463656634092" lon="12.154901633039117">
        <ele>1364.25</ele>
        <time>2015-07-15T13:16:04Z</time>
      </trkpt>
      <trkpt lat="46.520374473184347" lon="12.154742879793048">
        <ele>1363.29</ele>
        <time>2015-07-15T13:16:15Z</time>
      </trkpt>
      <trkpt lat="46.52032183483243" lon="12.154497373849154">
        <ele>1361.3599999999999</ele>
        <time>2015-07-15T13:16:27Z</time>
      </trkpt>
      <trkpt lat="46.520254192873836" lon="12.154299896210432">
        <ele>1359.9200000000001</ele>
        <time>2015-07-15T13:16:40Z</time>
      </trkpt>
      <trkpt lat="46.520222844555974" lon="12.154174251481891">
        <ele>1358.96</ele>
        <time>2015-07-15T13:16:47Z</time>
      </trkpt>
      <trkpt lat="46.520256539806724" lon="12.153925560414791">
        <ele>1357.04</ele>
        <time>2015-07-15T13:16:58Z</time>
      </trkpt>
      <trkpt lat="46.520280344411731" lon="12.153885997831821">
        <ele>1356.5599999999999</ele>
        <time>2015-07-15T13:17:00Z</time>
      </trkpt>
      <trkpt lat="46.520352680236101" lon="12.153747780248523">
        <ele>1355.5999999999999</ele>
        <time>2015-07-15T13:17:09Z</time>
      </trkpt>
      <trkpt lat="46.520483437925577" lon="12.153595732524991">
        <ele>1354.1500000000001</ele>
        <time>2015-07-15T13:17:21Z</time>
      </trkpt>
      <trkpt lat="46.520532136783004" lon="12.153387777507305">
        <ele>1351.75</ele>
        <time>2015-07-15T13:17:33Z</time>
      </trkpt>
      <trkpt lat="46.52051093056798" lon="12.153365314006805">
        <ele>1351.27</ele>
        <time>2015-07-15T13:17:35Z</time>
      </trkpt>
      <trkpt lat="46.520391907542944" lon="12.153218714520335">
        <ele>1347.9100000000001</ele>
        <time>2015-07-15T13:17:48Z</time>
      </trkpt>
      <trkpt lat="46.520270286127925" lon="12.153152246028185">
        <ele>1345.5</ele>
        <time>2015-07-15T13:17:59Z</time>
      </trkpt>
      <trkpt lat="46.520180767402053" lon="12.15318912640214">
        <ele>1345.5</ele>
        <time>2015-07-15T13:18:05Z</time>
      </trkpt>
      <trkpt lat="46.520082615315914" lon="12.153307311236858">
        <ele>1345.5</ele>
        <time>2015-07-15T13:18:15Z</time>
      </trkpt>
      <trkpt lat="46.520060487091541" lon="12.153363134711981">
        <ele>1341.1800000000001</ele>
        <time>2015-07-15T13:18:18Z</time>
      </trkpt>
      <trkpt lat="46.520056547597051" lon="12.153377970680594">
        <ele>1341.1800000000001</ele>
        <time>2015-07-15T13:18:19Z</time>
      </trkpt>
      <trkpt lat="46.520007848739624" lon="12.15347696095705">
        <ele>1339.25</ele>
        <time>2015-07-15T13:18:27Z</time>
      </trkpt>
      <trkpt lat="46.519996533170342" lon="12.153494395315647">
        <ele>1338.77</ele>
        <time>2015-07-15T13:18:29Z</time>
      </trkpt>
      <trkpt lat="46.519836522638798" lon="12.153632696717978">
        <ele>1335.8900000000001</ele>
        <time>2015-07-15T13:18:42Z</time>
      </trkpt>
      <trkpt lat="46.519716074690223" lon="12.153657842427492">
        <ele>1333.49</ele>
        <time>2015-07-15T13:18:52Z</time>
      </trkpt>
      <trkpt lat="46.51959721930325" lon="12.153540160506964">
        <ele>1331.0799999999999</ele>
        <time>2015-07-15T13:19:03Z</time>
      </trkpt>
      <trkpt lat="46.519490852952003" lon="12.153451731428504">
        <ele>1329.6400000000001</ele>
        <time>2015-07-15T13:19:12Z</time>
      </trkpt>
      <trkpt lat="46.519426731392741" lon="12.153401440009475">
        <ele>1329.1600000000001</ele>
        <time>2015-07-15T13:19:16Z</time>
      </trkpt>
      <trkpt lat="46.519291615113616" lon="12.153301779180765">
        <ele>1328.6800000000001</ele>
        <time>2015-07-15T13:19:28Z</time>
      </trkpt>
      <trkpt lat="46.519143506884575" lon="12.153193233534694">
        <ele>1326.28</ele>
        <time>2015-07-15T13:19:42Z</time>
      </trkpt>
      <trkpt lat="46.518945945426822" lon="12.153117964044213">
        <ele>1323.3900000000001</ele>
        <time>2015-07-15T13:19:55Z</time>
      </trkpt>
      <trkpt lat="46.518861455842853" lon="12.153010675683618">
        <ele>1321.95</ele>
        <time>2015-07-15T13:20:04Z</time>
      </trkpt>
      <trkpt lat="46.518781743943691" lon="12.152846055105329">
        <ele>1320.99</ele>
        <time>2015-07-15T13:20:11Z</time>
      </trkpt>
      <trkpt lat="46.518684010952711" lon="12.152577331289649">
        <ele>1320.03</ele>
        <time>2015-07-15T13:20:25Z</time>
      </trkpt>
      <trkpt lat="46.518619889393449" lon="12.152476999908686">
        <ele>1319.55</ele>
        <time>2015-07-15T13:20:32Z</time>
      </trkpt>
      <trkpt lat="46.518565490841866" lon="12.152385050430894">
        <ele>1318.5899999999999</ele>
        <time>2015-07-15T13:20:38Z</time>
      </trkpt>
      <trkpt lat="46.518498938530684" lon="12.15220601297915">
        <ele>1317.1400000000001</ele>
        <time>2015-07-15T13:20:49Z</time>
      </trkpt>
      <trkpt lat="46.518454262986779" lon="12.152003925293684">
        <ele>1316.1800000000001</ele>
        <time>2015-07-15T13:21:00Z</time>
      </trkpt>
      <trkpt lat="46.518454430624843" lon="12.151900073513389">
        <ele>1315.22</ele>
        <time>2015-07-15T13:21:06Z</time>
      </trkpt>
      <trkpt lat="46.518519474193454" lon="12.151759676635265">
        <ele>1313.78</ele>
        <time>2015-07-15T13:21:14Z</time>
      </trkpt>
      <trkpt lat="46.518568089231849" lon="12.151625482365489">
        <ele>1312.8199999999999</ele>
        <time>2015-07-15T13:21:21Z</time>
      </trkpt>
      <trkpt lat="46.51858233846724" lon="12.151569994166493">
        <ele>1312.3399999999999</ele>
        <time>2015-07-15T13:21:24Z</time>
      </trkpt>
      <trkpt lat="46.518562054261565" lon="12.151344520971179">
        <ele>1310.4100000000001</ele>
        <time>2015-07-15T13:21:36Z</time>
      </trkpt>
      <trkpt lat="46.518532885238528" lon="12.151245782151818">
        <ele>1309.9300000000001</ele>
        <time>2015-07-15T13:21:40Z</time>
      </trkpt>
      <trkpt lat="46.518520060926676" lon="12.151228431612253">
        <ele>1309.45</ele>
        <time>2015-07-15T13:21:41Z</time>
      </trkpt>
      <trkpt lat="46.518428195267916" lon="12.15109683573246">
        <ele>1308.49</ele>
        <time>2015-07-15T13:21:51Z</time>
      </trkpt>
      <trkpt lat="46.518297269940376" lon="12.151112006977201">
        <ele>1307.53</ele>
        <time>2015-07-15T13:22:02Z</time>
      </trkpt>
      <trkpt lat="46.518238093703985" lon="12.151139751076698">
        <ele>1306.5699999999999</ele>
        <time>2015-07-15T13:22:07Z</time>
      </trkpt>
      <trkpt lat="46.518109012395144" lon="12.151189707219601">
        <ele>1305.1300000000001</ele>
        <time>2015-07-15T13:22:18Z</time>
      </trkpt>
      <trkpt lat="46.518045896664262" lon="12.15113983489573">
        <ele>1304.6500000000001</ele>
        <time>2015-07-15T13:22:25Z</time>
      </trkpt>
      <trkpt lat="46.518042040988803" lon="12.15112030506134">
        <ele>1304.1700000000001</ele>
        <time>2015-07-15T13:22:26Z</time>
      </trkpt>
      <trkpt lat="46.518033910542727" lon="12.150975046679378">
        <ele>1303.6900000000001</ele>
        <time>2015-07-15T13:22:37Z</time>
      </trkpt>
      <trkpt lat="46.518020499497652" lon="12.151002958416939">
        <ele>1303.6900000000001</ele>
        <time>2015-07-15T13:22:40Z</time>
      </trkpt>
      <trkpt lat="46.518011866137385" lon="12.151139080524445">
        <ele>1304.6500000000001</ele>
        <time>2015-07-15T13:22:50Z</time>
      </trkpt>
      <trkpt lat="46.518024355173111" lon="12.151054171845317">
        <ele>1304.1700000000001</ele>
        <time>2015-07-15T13:22:56Z</time>
      </trkpt>
      <trkpt lat="46.518136253580451" lon="12.150874631479383">
        <ele>1303.6900000000001</ele>
        <time>2015-07-15T13:23:08Z</time>
      </trkpt>
      <trkpt lat="46.518187047913671" lon="12.150789387524128">
        <ele>1302.24</ele>
        <time>2015-07-15T13:23:15Z</time>
      </trkpt>
      <trkpt lat="46.518212109804153" lon="12.150612780824304">
        <ele>1299.8399999999999</ele>
        <time>2015-07-15T13:23:25Z</time>
      </trkpt>
      <trkpt lat="46.518213115632534" lon="12.150591490790248">
        <ele>1299.8399999999999</ele>
        <time>2015-07-15T13:23:26Z</time>
      </trkpt>
      <trkpt lat="46.518239518627524" lon="12.150531644001603">
        <ele>1299.3599999999999</ele>
        <time>2015-07-15T13:23:30Z</time>
      </trkpt>
      <trkpt lat="46.518281679600477" lon="12.150371130555868">
        <ele>1297.9200000000001</ele>
        <time>2015-07-15T13:23:40Z</time>
      </trkpt>
      <trkpt lat="46.518285786733031" lon="12.150351097807288">
        <ele>1297.4400000000001</ele>
        <time>2015-07-15T13:23:41Z</time>
      </trkpt>
      <trkpt lat="46.518326522782445" lon="12.150198547169566">
        <ele>1296.48</ele>
        <time>2015-07-15T13:23:49Z</time>
      </trkpt>
      <trkpt lat="46.518285702914" lon="12.149995705112815">
        <ele>1295.51</ele>
        <time>2015-07-15T13:23:58Z</time>
      </trkpt>
      <trkpt lat="46.518217558041215" lon="12.149747936055064">
        <ele>1293.5899999999999</ele>
        <time>2015-07-15T13:24:11Z</time>
      </trkpt>
      <trkpt lat="46.518184114247561" lon="12.149562779814005">
        <ele>1292.1500000000001</ele>
        <time>2015-07-15T13:24:23Z</time>
      </trkpt>
      <trkpt lat="46.51818310841918" lon="12.149426573887467">
        <ele>1290.23</ele>
        <time>2015-07-15T13:24:30Z</time>
      </trkpt>
      <trkpt lat="46.51818361133337" lon="12.149249715730548">
        <ele>1287.8199999999999</ele>
        <time>2015-07-15T13:24:40Z</time>
      </trkpt>
      <trkpt lat="46.518160812556744" lon="12.149110827594995">
        <ele>1286.3800000000001</ele>
        <time>2015-07-15T13:24:49Z</time>
      </trkpt>
      <trkpt lat="46.518155699595809" lon="12.148907063528895">
        <ele>1283.98</ele>
        <time>2015-07-15T13:24:59Z</time>
      </trkpt>
      <trkpt lat="46.518224515020847" lon="12.148723248392344">
        <ele>1281.0899999999999</ele>
        <time>2015-07-15T13:25:12Z</time>
      </trkpt>
      <trkpt lat="46.518290732055902" lon="12.148609254509211">
        <ele>1278.21</ele>
        <time>2015-07-15T13:25:22Z</time>
      </trkpt>
      <trkpt lat="46.518309842795134" lon="12.148473467677832">
        <ele>1275.8099999999999</ele>
        <time>2015-07-15T13:25:34Z</time>
      </trkpt>
      <trkpt lat="46.518255947157741" lon="12.148305913433433">
        <ele>1272.9200000000001</ele>
        <time>2015-07-15T13:25:45Z</time>
      </trkpt>
      <trkpt lat="46.518243374302983" lon="12.148194015026093">
        <ele>1271</ele>
        <time>2015-07-15T13:25:52Z</time>
      </trkpt>
      <trkpt lat="46.518242619931698" lon="12.148149255663157">
        <ele>1270.52</ele>
        <time>2015-07-15T13:25:54Z</time>
      </trkpt>
      <trkpt lat="46.518244631588459" lon="12.148019419983029">
        <ele>1269.0799999999999</ele>
        <time>2015-07-15T13:26:05Z</time>
      </trkpt>
      <trkpt lat="46.51822904124856" lon="12.147986479103565">
        <ele>1268.5999999999999</ele>
        <time>2015-07-15T13:26:13Z</time>
      </trkpt>
      <trkpt lat="46.518230549991131" lon="12.147959657013416">
        <ele>1268.1199999999999</ele>
        <time>2015-07-15T13:26:22Z</time>
      </trkpt>
      <trkpt lat="46.518234824761748" lon="12.147977259010077">
        <ele>1268.1199999999999</ele>
        <time>2015-07-15T13:26:28Z</time>
      </trkpt>
      <trkpt lat="46.518257623538375" lon="12.148080943152308">
        <ele>1268.5999999999999</ele>
        <time>2015-07-15T13:26:47Z</time>
      </trkpt>
      <trkpt lat="46.518282517790794" lon="12.148021096363664">
        <ele>1268.5999999999999</ele>
        <time>2015-07-15T13:27:01Z</time>
      </trkpt>
      <trkpt lat="46.518301796168089" lon="12.147992430254817">
        <ele>1268.5999999999999</ele>
        <time>2015-07-15T13:27:14Z</time>
      </trkpt>
      <trkpt lat="46.518309088423848" lon="12.148022605106235">
        <ele>1267.1600000000001</ele>
        <time>2015-07-15T13:27:28Z</time>
      </trkpt>
      <trkpt lat="46.518284110352397" lon="12.147979019209743">
        <ele>1267.1600000000001</ele>
        <time>2015-07-15T13:27:44Z</time>
      </trkpt>
      <trkpt lat="46.518303137272596" lon="12.147983880713582">
        <ele>1268.5999999999999</ele>
        <time>2015-07-15T13:27:47Z</time>
      </trkpt>
      <trkpt lat="46.518304226920009" lon="12.147958818823099">
        <ele>1267.1600000000001</ele>
        <time>2015-07-15T13:27:56Z</time>
      </trkpt>
      <trkpt lat="46.518315123394132" lon="12.147840717807412">
        <ele>1264.27</ele>
        <time>2015-07-15T13:28:07Z</time>
      </trkpt>
      <trkpt lat="46.518229963257909" lon="12.147637205198407">
        <ele>1261.3900000000001</ele>
        <time>2015-07-15T13:28:19Z</time>
      </trkpt>
      <trkpt lat="46.518181515857577" lon="12.147549446672201">
        <ele>1261.3900000000001</ele>
        <time>2015-07-15T13:28:27Z</time>
      </trkpt>
      <trkpt lat="46.518144551664591" lon="12.147372085601091">
        <ele>1258.98</ele>
        <time>2015-07-15T13:28:38Z</time>
      </trkpt>
      <trkpt lat="46.518162991851568" lon="12.147237807512283">
        <ele>1257.54</ele>
        <time>2015-07-15T13:28:47Z</time>
      </trkpt>
      <trkpt lat="46.518235746771097" lon="12.147082071751356">
        <ele>1256.5799999999999</ele>
        <time>2015-07-15T13:28:59Z</time>
      </trkpt>
      <trkpt lat="46.518441773951054" lon="12.147076036781073">
        <ele>1259.9400000000001</ele>
        <time>2015-07-15T13:29:13Z</time>
      </trkpt>
      <trkpt lat="46.518560796976089" lon="12.147037647664547">
        <ele>1258.98</ele>
        <time>2015-07-15T13:29:22Z</time>
      </trkpt>
      <trkpt lat="46.518642101436853" lon="12.146893730387092">
        <ele>1258.5</ele>
        <time>2015-07-15T13:29:34Z</time>
      </trkpt>
      <trkpt lat="46.518670096993446" lon="12.146731624379754">
        <ele>1256.0999999999999</ele>
        <time>2015-07-15T13:29:43Z</time>
      </trkpt>
      <trkpt lat="46.518745282664895" lon="12.146519981324673">
        <ele>1255.6199999999999</ele>
        <time>2015-07-15T13:29:55Z</time>
      </trkpt>
      <trkpt lat="46.518855756148696" lon="12.146410513669252">
        <ele>1251.77</ele>
        <time>2015-07-15T13:30:06Z</time>
      </trkpt>
      <trkpt lat="46.518864724785089" lon="12.146401042118669">
        <ele>1251.77</ele>
        <time>2015-07-15T13:30:07Z</time>
      </trkpt>
      <trkpt lat="46.51888919994235" lon="12.146386876702309">
        <ele>1250.8099999999999</ele>
        <time>2015-07-15T13:30:09Z</time>
      </trkpt>
      <trkpt lat="46.518928930163383" lon="12.146248323842883">
        <ele>1250.8099999999999</ele>
        <time>2015-07-15T13:30:17Z</time>
      </trkpt>
      <trkpt lat="46.518972683697939" lon="12.146158721297979">
        <ele>1250.8099999999999</ele>
        <time>2015-07-15T13:30:22Z</time>
      </trkpt>
      <trkpt lat="46.519015179947019" lon="12.145928889513016">
        <ele>1248.4100000000001</ele>
        <time>2015-07-15T13:30:34Z</time>
      </trkpt>
      <trkpt lat="46.519043343141675" lon="12.145788073539734">
        <ele>1247.45</ele>
        <time>2015-07-15T13:30:41Z</time>
      </trkpt>
      <trkpt lat="46.519079888239503" lon="12.145694950595498">
        <ele>1246.97</ele>
        <time>2015-07-15T13:30:47Z</time>
      </trkpt>
      <trkpt lat="46.519061112776399" lon="12.145496215671301">
        <ele>1246.97</ele>
        <time>2015-07-15T13:30:57Z</time>
      </trkpt>
      <trkpt lat="46.519061783328652" lon="12.145369900390506">
        <ele>1246.01</ele>
        <time>2015-07-15T13:31:04Z</time>
      </trkpt>
      <trkpt lat="46.519081648439169" lon="12.145252889022231">
        <ele>1245.53</ele>
        <time>2015-07-15T13:31:10Z</time>
      </trkpt>
      <trkpt lat="46.519085923209786" lon="12.145221205428243">
        <ele>1245.53</ele>
        <time>2015-07-15T13:31:13Z</time>
      </trkpt>
      <trkpt lat="46.519096735864878" lon="12.145206620916724">
        <ele>1246.01</ele>
        <time>2015-07-15T13:31:14Z</time>
      </trkpt>
      <trkpt lat="46.519104111939669" lon="12.145187677815557">
        <ele>1245.04</ele>
        <time>2015-07-15T13:31:15Z</time>
      </trkpt>
      <trkpt lat="46.519090700894594" lon="12.14514140971005">
        <ele>1245.04</ele>
        <time>2015-07-15T13:31:17Z</time>
      </trkpt>
      <trkpt lat="46.519073937088251" lon="12.145055495202541">
        <ele>1244.0799999999999</ele>
        <time>2015-07-15T13:31:22Z</time>
      </trkpt>
      <trkpt lat="46.519036218523979" lon="12.144902106374502">
        <ele>1243.1199999999999</ele>
        <time>2015-07-15T13:31:32Z</time>
      </trkpt>
      <trkpt lat="46.51901719160378" lon="12.144728600978851">
        <ele>1242.6400000000001</ele>
        <time>2015-07-15T13:31:44Z</time>
      </trkpt>
      <trkpt lat="46.519023478031158" lon="12.14473245665431">
        <ele>1242.1600000000001</ele>
        <time>2015-07-15T13:31:55Z</time>
      </trkpt>
      <trkpt lat="46.519037391990423" lon="12.144742179661989">
        <ele>1241.6800000000001</ele>
        <time>2015-07-15T13:32:04Z</time>
      </trkpt>
      <trkpt lat="46.519029932096601" lon="12.144784424453974">
        <ele>1241.2</ele>
        <time>2015-07-15T13:32:27Z</time>
      </trkpt>
      <trkpt lat="46.519026579335332" lon="12.144788196310401">
        <ele>1241.2</ele>
        <time>2015-07-15T13:32:33Z</time>
      </trkpt>
      <trkpt lat="46.519032614305615" lon="12.144757686182857">
        <ele>1242.1600000000001</ele>
        <time>2015-07-15T13:32:42Z</time>
      </trkpt>
      <trkpt lat="46.51901182718575" lon="12.14472851715982">
        <ele>1241.6800000000001</ele>
        <time>2015-07-15T13:32:55Z</time>
      </trkpt>
      <trkpt lat="46.518987854942679" lon="12.144741844385862">
        <ele>1241.6800000000001</ele>
        <time>2015-07-15T13:33:03Z</time>
      </trkpt>
      <trkpt lat="46.518820384517312" lon="12.144772773608565">
        <ele>1239.76</ele>
        <time>2015-07-15T13:33:17Z</time>
      </trkpt>
      <trkpt lat="46.518621817231178" lon="12.144772270694375">
        <ele>1238.8</ele>
        <time>2015-07-15T13:33:33Z</time>
      </trkpt>
      <trkpt lat="46.51843280531466" lon="12.144805546849966">
        <ele>1236.3900000000001</ele>
        <time>2015-07-15T13:33:48Z</time>
      </trkpt>
      <trkpt lat="46.518352003768086" lon="12.144926246255636">
        <ele>1235.4300000000001</ele>
        <time>2015-07-15T13:33:58Z</time>
      </trkpt>
      <trkpt lat="46.518329456448555" lon="12.144944854080677">
        <ele>1234.47</ele>
        <time>2015-07-15T13:34:07Z</time>
      </trkpt>
      <trkpt lat="46.518354434520006" lon="12.144922725856304">
        <ele>1233.51</ele>
        <time>2015-07-15T13:34:18Z</time>
      </trkpt>
      <trkpt lat="46.518356613814831" lon="12.144912332296371">
        <ele>1233.99</ele>
        <time>2015-07-15T13:34:20Z</time>
      </trkpt>
      <trkpt lat="46.518454933539033" lon="12.144784759730101">
        <ele>1234.95</ele>
        <time>2015-07-15T13:34:32Z</time>
      </trkpt>
      <trkpt lat="46.518569765612483" lon="12.144767409190536">
        <ele>1235.9100000000001</ele>
        <time>2015-07-15T13:34:41Z</time>
      </trkpt>
      <trkpt lat="46.518722148612142" lon="12.144753579050303">
        <ele>1236.8699999999999</ele>
        <time>2015-07-15T13:34:53Z</time>
      </trkpt>
      <trkpt lat="46.518859611824155" lon="12.144739748910069">
        <ele>1237.3499999999999</ele>
        <time>2015-07-15T13:35:05Z</time>
      </trkpt>
      <trkpt lat="46.518968157470226" lon="12.144731534644961">
        <ele>1238.3199999999999</ele>
        <time>2015-07-15T13:35:16Z</time>
      </trkpt>
      <trkpt lat="46.519044432789087" lon="12.144563645124435">
        <ele>1237.8299999999999</ele>
        <time>2015-07-15T13:35:29Z</time>
      </trkpt>
      <trkpt lat="46.519055496901274" lon="12.144255610182881">
        <ele>1236.3900000000001</ele>
        <time>2015-07-15T13:35:42Z</time>
      </trkpt>
      <trkpt lat="46.519035883247852" lon="12.144063832238317">
        <ele>1235.4300000000001</ele>
        <time>2015-07-15T13:35:53Z</time>
      </trkpt>
      <trkpt lat="46.519049964845181" lon="12.14400046505034">
        <ele>1234.95</ele>
        <time>2015-07-15T13:35:57Z</time>
      </trkpt>
      <trkpt lat="46.519074942916632" lon="12.143843304365873">
        <ele>1233.99</ele>
        <time>2015-07-15T13:36:05Z</time>
      </trkpt>
      <trkpt lat="46.519138310104609" lon="12.143697962164879">
        <ele>1232.0699999999999</ele>
        <time>2015-07-15T13:36:16Z</time>
      </trkpt>
      <trkpt lat="46.519288262352347" lon="12.143564522266388">
        <ele>1230.1400000000001</ele>
        <time>2015-07-15T13:36:26Z</time>
      </trkpt>
      <trkpt lat="46.519493702799082" lon="12.143526133149862">
        <ele>1227.74</ele>
        <time>2015-07-15T13:36:37Z</time>
      </trkpt>
      <trkpt lat="46.519609373062849" lon="12.143520265817642">
        <ele>1226.78</ele>
        <time>2015-07-15T13:36:47Z</time>
      </trkpt>
      <trkpt lat="46.519653126597404" lon="12.143461592495441">
        <ele>1225.8199999999999</ele>
        <time>2015-07-15T13:36:52Z</time>
      </trkpt>
      <trkpt lat="46.519753206521273" lon="12.143303174525499">
        <ele>1224.3800000000001</ele>
        <time>2015-07-15T13:37:01Z</time>
      </trkpt>
      <trkpt lat="46.519818753004074" lon="12.143134698271751">
        <ele>1222.45</ele>
        <time>2015-07-15T13:37:12Z</time>
      </trkpt>
      <trkpt lat="46.519821351394057" lon="12.142979381605983">
        <ele>1221.49</ele>
        <time>2015-07-15T13:37:21Z</time>
      </trkpt>
      <trkpt lat="46.51976628229022" lon="12.142719542607665">
        <ele>1220.05</ele>
        <time>2015-07-15T13:37:34Z</time>
      </trkpt>
      <trkpt lat="46.519683636724949" lon="12.142571266740561">
        <ele>1219.0899999999999</ele>
        <time>2015-07-15T13:37:45Z</time>
      </trkpt>
      <trkpt lat="46.519647762179375" lon="12.142408909276128">
        <ele>1218.1300000000001</ele>
        <time>2015-07-15T13:37:54Z</time>
      </trkpt>
      <trkpt lat="46.519694533199072" lon="12.142366161569953">
        <ele>1218.6099999999999</ele>
        <time>2015-07-15T13:37:58Z</time>
      </trkpt>
      <trkpt lat="46.519761253148317" lon="12.142347637563944">
        <ele>1218.1300000000001</ele>
        <time>2015-07-15T13:38:03Z</time>
      </trkpt>
      <trkpt lat="46.519855130463839" lon="12.142200535163283">
        <ele>1218.1300000000001</ele>
        <time>2015-07-15T13:38:10Z</time>
      </trkpt>
      <trkpt lat="46.519909193739295" lon="12.142175221815705">
        <ele>1217.6500000000001</ele>
        <time>2015-07-15T13:38:22Z</time>
      </trkpt>
      <trkpt lat="46.519924281165004" lon="12.142183100804687">
        <ele>1217.6500000000001</ele>
        <time>2015-07-15T13:38:42Z</time>
      </trkpt>
      <trkpt lat="46.519892262294888" lon="12.142202546820045">
        <ele>1217.1700000000001</ele>
        <time>2015-07-15T13:39:02Z</time>
      </trkpt>
      <trkpt lat="46.519901817664504" lon="12.14219986461103">
        <ele>1217.1700000000001</ele>
        <time>2015-07-15T13:39:14Z</time>
      </trkpt>
      <trkpt lat="46.519905421882868" lon="12.142175892367959">
        <ele>1216.6900000000001</ele>
        <time>2015-07-15T13:39:26Z</time>
      </trkpt>
      <trkpt lat="46.519891591742635" lon="12.142211766913533">
        <ele>1214.76</ele>
        <time>2015-07-15T13:39:42Z</time>
      </trkpt>
      <trkpt lat="46.519910283386707" lon="12.142187962308526">
        <ele>1217.1700000000001</ele>
        <time>2015-07-15T13:39:51Z</time>
      </trkpt>
      <trkpt lat="46.51991430670023" lon="12.142221573740244">
        <ele>1216.21</ele>
        <time>2015-07-15T13:40:05Z</time>
      </trkpt>
      <trkpt lat="46.519916653633118" lon="12.142178826034069">
        <ele>1215.72</ele>
        <time>2015-07-15T13:40:19Z</time>
      </trkpt>
      <trkpt lat="46.51989771053195" lon="12.142182178795338">
        <ele>1215.24</ele>
        <time>2015-07-15T13:40:32Z</time>
      </trkpt>
      <trkpt lat="46.519895195960999" lon="12.142202043905854">
        <ele>1215.24</ele>
        <time>2015-07-15T13:40:46Z</time>
      </trkpt>
      <trkpt lat="46.51990014128387" lon="12.142197852954268">
        <ele>1214.28</ele>
        <time>2015-07-15T13:40:58Z</time>
      </trkpt>
      <trkpt lat="46.519868206232786" lon="12.14220279827714">
        <ele>1214.28</ele>
        <time>2015-07-15T13:41:09Z</time>
      </trkpt>
      <trkpt lat="46.519852699711919" lon="12.142173042520881">
        <ele>1213.8</ele>
        <time>2015-07-15T13:41:32Z</time>
      </trkpt>
      <trkpt lat="46.519866194576025" lon="12.142161978408694">
        <ele>1213.8</ele>
        <time>2015-07-15T13:41:54Z</time>
      </trkpt>
      <trkpt lat="46.519858818501234" lon="12.142185531556606">
        <ele>1212.8399999999999</ele>
        <time>2015-07-15T13:41:59Z</time>
      </trkpt>
      <trkpt lat="46.519866194576025" lon="12.142200786620378">
        <ele>1213.8</ele>
        <time>2015-07-15T13:42:15Z</time>
      </trkpt>
      <trkpt lat="46.519878348335624" lon="12.142220148816705">
        <ele>1213.8</ele>
        <time>2015-07-15T13:42:30Z</time>
      </trkpt>
      <trkpt lat="46.519889496266842" lon="12.14220279827714">
        <ele>1213.3199999999999</ele>
        <time>2015-07-15T13:42:42Z</time>
      </trkpt>
      <trkpt lat="46.519865104928613" lon="12.142230542376637">
        <ele>1212.8399999999999</ele>
        <time>2015-07-15T13:42:57Z</time>
      </trkpt>
      <trkpt lat="46.519866529852152" lon="12.142229368910193">
        <ele>1212.8399999999999</ele>
        <time>2015-07-15T13:43:13Z</time>
      </trkpt>
      <trkpt lat="46.519866110756993" lon="12.142229955643415">
        <ele>1212.8399999999999</ele>
        <time>2015-07-15T13:43:24Z</time>
      </trkpt>
      <trkpt lat="46.519879437983036" lon="12.142227021977305">
        <ele>1212.8399999999999</ele>
        <time>2015-07-15T13:43:38Z</time>
      </trkpt>
      <trkpt lat="46.519874492660165" lon="12.142239594832063">
        <ele>1212.3599999999999</ele>
        <time>2015-07-15T13:43:53Z</time>
      </trkpt>
      <trkpt lat="46.519844653084874" lon="12.14221553876996">
        <ele>1211.4000000000001</ele>
        <time>2015-07-15T13:44:11Z</time>
      </trkpt>
      <trkpt lat="46.51986351236701" lon="12.14221847243607">
        <ele>1211.4000000000001</ele>
        <time>2015-07-15T13:44:29Z</time>
      </trkpt>
      <trkpt lat="46.519865021109581" lon="12.142220987007022">
        <ele>1210.9200000000001</ele>
        <time>2015-07-15T13:44:46Z</time>
      </trkpt>
      <trkpt lat="46.519864602014422" lon="12.142199110239744">
        <ele>1210.9200000000001</ele>
        <time>2015-07-15T13:45:01Z</time>
      </trkpt>
      <trkpt lat="46.51987231336534" lon="12.142217801883817">
        <ele>1211.4000000000001</ele>
        <time>2015-07-15T13:45:15Z</time>
      </trkpt>
      <trkpt lat="46.519907768815756" lon="12.142189051955938">
        <ele>1210.9200000000001</ele>
        <time>2015-07-15T13:45:24Z</time>
      </trkpt>
      <trkpt lat="46.519914139062166" lon="12.142167342826724">
        <ele>1210.9200000000001</ele>
        <time>2015-07-15T13:45:36Z</time>
      </trkpt>
      <trkpt lat="46.519904248416424" lon="12.14219743385911">
        <ele>1210.4400000000001</ele>
        <time>2015-07-15T13:45:57Z</time>
      </trkpt>
      <trkpt lat="46.519884467124939" lon="12.142217131331563">
        <ele>1210.9200000000001</ele>
        <time>2015-07-15T13:46:05Z</time>
      </trkpt>
      <trkpt lat="46.519867954775691" lon="12.142238924279809">
        <ele>1210.4400000000001</ele>
        <time>2015-07-15T13:46:13Z</time>
      </trkpt>
      <trkpt lat="46.519884383305907" lon="12.142248982563615">
        <ele>1210.4400000000001</ele>
        <time>2015-07-15T13:46:26Z</time>
      </trkpt>
      <trkpt lat="46.519892094656825" lon="12.142238169908524">
        <ele>1209.96</ele>
        <time>2015-07-15T13:46:39Z</time>
      </trkpt>
      <trkpt lat="46.519909277558327" lon="12.142220064997673">
        <ele>1209.96</ele>
        <time>2015-07-15T13:46:54Z</time>
      </trkpt>
      <trkpt lat="46.519913552328944" lon="12.142200032249093">
        <ele>1209.48</ele>
        <time>2015-07-15T13:47:03Z</time>
      </trkpt>
      <trkpt lat="46.519897878170013" lon="12.142207073047757">
        <ele>1209.96</ele>
        <time>2015-07-15T13:47:13Z</time>
      </trkpt>
      <trkpt lat="46.51989821344614" lon="12.142201373353601">
        <ele>1209.48</ele>
        <time>2015-07-15T13:47:22Z</time>
      </trkpt>
      <trkpt lat="46.519919838756323" lon="12.142196595668793">
        <ele>1209.48</ele>
        <time>2015-07-15T13:47:32Z</time>
      </trkpt>
      <trkpt lat="46.519931657239795" lon="12.14218083769083">
        <ele>1209.48</ele>
        <time>2015-07-15T13:47:46Z</time>
      </trkpt>
      <trkpt lat="46.519933417439461" lon="12.142210844904184">
        <ele>1209.48</ele>
        <time>2015-07-15T13:48:11Z</time>
      </trkpt>
      <trkpt lat="46.519878683611751" lon="12.142216712236404">
        <ele>1208.51</ele>
        <time>2015-07-15T13:48:23Z</time>
      </trkpt>
      <trkpt lat="46.519871475175023" lon="12.142220735549927">
        <ele>1208.51</ele>
        <time>2015-07-15T13:48:35Z</time>
      </trkpt>
      <trkpt lat="46.519885640591383" lon="12.142230207100511">
        <ele>1208.51</ele>
        <time>2015-07-15T13:48:46Z</time>
      </trkpt>
      <trkpt lat="46.519833924248815" lon="12.142251078039408">
        <ele>1208.51</ele>
        <time>2015-07-15T13:48:58Z</time>
      </trkpt>
      <trkpt lat="46.519847083836794" lon="12.14223406277597">
        <ele>1208.51</ele>
        <time>2015-07-15T13:49:10Z</time>
      </trkpt>
      <trkpt lat="46.519869798794389" lon="12.142233476042747">
        <ele>1208.51</ele>
        <time>2015-07-15T13:49:20Z</time>
      </trkpt>
      <trkpt lat="46.519859572872519" lon="12.142193829640746">
        <ele>1208.03</ele>
        <time>2015-07-15T13:49:33Z</time>
      </trkpt>
      <trkpt lat="46.5198864787817" lon="12.142171449959278">
        <ele>1208.03</ele>
        <time>2015-07-15T13:49:47Z</time>
      </trkpt>
      <trkpt lat="46.519886059686542" lon="12.142185363918543">
        <ele>1208.03</ele>
        <time>2015-07-15T13:50:07Z</time>
      </trkpt>
      <trkpt lat="46.519916234537959" lon="12.142167929559946">
        <ele>1207.55</ele>
        <time>2015-07-15T13:50:17Z</time>
      </trkpt>
      <trkpt lat="46.519909109920263" lon="12.142173042520881">
        <ele>1206.5899999999999</ele>
        <time>2015-07-15T13:50:25Z</time>
      </trkpt>
      <trkpt lat="46.51991430670023" lon="12.142197517678142">
        <ele>1207.0699999999999</ele>
        <time>2015-07-15T13:50:47Z</time>
      </trkpt>
    </trkseg>
  </trk>

  <trk>
    <name>6tappa2015-07-16</name>
    <extensions>
      <gpxx:TrackExtension>
        <gpxx:DisplayColor>Yellow</gpxx:DisplayColor>
      </gpxx:TrackExtension>
      <gpxtrkx:TrackStatsExtension xmlns:gpxtrkx="http://www.garmin.com/xmlschemas/TrackStatsExtension/v1">
        <gpxtrkx:Distance>10467</gpxtrkx:Distance>
        <gpxtrkx:TotalElapsedTime>15182</gpxtrkx:TotalElapsedTime>
        <gpxtrkx:MovingTime>9913</gpxtrkx:MovingTime>
        <gpxtrkx:StoppedTime>4259</gpxtrkx:StoppedTime>
        <gpxtrkx:MovingSpeed>1</gpxtrkx:MovingSpeed>
        <gpxtrkx:MaxSpeed>2</gpxtrkx:MaxSpeed>
        <gpxtrkx:MaxElevation>1951</gpxtrkx:MaxElevation>
        <gpxtrkx:MinElevation>959</gpxtrkx:MinElevation>
        <gpxtrkx:Ascent>999</gpxtrkx:Ascent>
        <gpxtrkx:Descent>64</gpxtrkx:Descent>
        <gpxtrkx:AvgAscentRate>0</gpxtrkx:AvgAscentRate>
        <gpxtrkx:MaxAscentRate>0</gpxtrkx:MaxAscentRate>
        <gpxtrkx:AvgDescentRate>0</gpxtrkx:AvgDescentRate>
        <gpxtrkx:MaxDescentRate>-0</gpxtrkx:MaxDescentRate>
      </gpxtrkx:TrackStatsExtension>
    </extensions>
    <trkseg>
      <trkpt lat="46.4629758708179" lon="12.20413114875555">
        <ele>1017.21</ele>
        <time>2015-07-16T07:20:56Z</time>
      </trkpt>
      <trkpt lat="46.462977128103375" lon="12.204129891470075">
        <ele>1017.21</ele>
        <time>2015-07-16T07:20:57Z</time>
      </trkpt>
      <trkpt lat="46.46296857856214" lon="12.204146152362227">
        <ele>1016.73</ele>
        <time>2015-07-16T07:21:18Z</time>
      </trkpt>
      <trkpt lat="46.462955167517066" lon="12.204128885641694">
        <ele>1016.25</ele>
        <time>2015-07-16T07:21:48Z</time>
      </trkpt>
      <trkpt lat="46.462954832240939" lon="12.204151852056384">
        <ele>1016.25</ele>
        <time>2015-07-16T07:22:12Z</time>
      </trkpt>
      <trkpt lat="46.46296120248735" lon="12.204122180119157">
        <ele>1016.73</ele>
        <time>2015-07-16T07:22:27Z</time>
      </trkpt>
      <trkpt lat="46.462938236072659" lon="12.204272802919149">
        <ele>1017.21</ele>
        <time>2015-07-16T07:22:43Z</time>
      </trkpt>
      <trkpt lat="46.462968327105045" lon="12.204330386593938">
        <ele>1017.6900000000001</ele>
        <time>2015-07-16T07:22:46Z</time>
      </trkpt>
      <trkpt lat="46.462965728715062" lon="12.204231983050704">
        <ele>1017.6900000000001</ele>
        <time>2015-07-16T07:39:29Z</time>
      </trkpt>
      <trkpt lat="46.463037310168147" lon="12.204411271959543">
        <ele>1017.6900000000001</ele>
        <time>2015-07-16T07:39:30Z</time>
      </trkpt>
      <trkpt lat="46.463011996820569" lon="12.204420240595937">
        <ele>1015.77</ele>
        <time>2015-07-16T07:39:46Z</time>
      </trkpt>
      <trkpt lat="46.462995484471321" lon="12.204379756003618">
        <ele>1014.33</ele>
        <time>2015-07-16T07:40:01Z</time>
      </trkpt>
      <trkpt lat="46.463002441450953" lon="12.204381432384253">
        <ele>1013.85</ele>
        <time>2015-07-16T07:40:12Z</time>
      </trkpt>
      <trkpt lat="46.462965728715062" lon="12.204356789588928">
        <ele>1013.85</ele>
        <time>2015-07-16T07:40:24Z</time>
      </trkpt>
      <trkpt lat="46.462957933545113" lon="12.20432753674686">
        <ele>1012.41</ele>
        <time>2015-07-16T07:40:32Z</time>
      </trkpt>
      <trkpt lat="46.46292801015079" lon="12.204314880073071">
        <ele>1012.89</ele>
        <time>2015-07-16T07:40:52Z</time>
      </trkpt>
      <trkpt lat="46.4629309438169" lon="12.204375984147191">
        <ele>1013.85</ele>
        <time>2015-07-16T07:41:04Z</time>
      </trkpt>
      <trkpt lat="46.46289573982358" lon="12.204417642205954">
        <ele>1013.37</ele>
        <time>2015-07-16T07:41:16Z</time>
      </trkpt>
      <trkpt lat="46.462907642126083" lon="12.204433735460043">
        <ele>1013.85</ele>
        <time>2015-07-16T07:41:29Z</time>
      </trkpt>
      <trkpt lat="46.462899344041944" lon="12.204411439597607">
        <ele>1013.85</ele>
        <time>2015-07-16T07:41:46Z</time>
      </trkpt>
      <trkpt lat="46.462887274101377" lon="12.204384617507458">
        <ele>1013.85</ele>
        <time>2015-07-16T07:42:01Z</time>
      </trkpt>
      <trkpt lat="46.462838659062982" lon="12.204385623335838">
        <ele>1013.85</ele>
        <time>2015-07-16T07:42:19Z</time>
      </trkpt>
      <trkpt lat="46.462786439806223" lon="12.204346228390932">
        <ele>1013.85</ele>
        <time>2015-07-16T07:42:32Z</time>
      </trkpt>
      <trkpt lat="46.462805969640613" lon="12.204323764890432">
        <ele>1013.85</ele>
        <time>2015-07-16T07:42:51Z</time>
      </trkpt>
      <trkpt lat="46.462805634364486" lon="12.204340696334839">
        <ele>1014.33</ele>
        <time>2015-07-16T07:43:01Z</time>
      </trkpt>
      <trkpt lat="46.462791720405221" lon="12.204339522868395">
        <ele>1014.33</ele>
        <time>2015-07-16T07:43:12Z</time>
      </trkpt>
      <trkpt lat="46.46276674233377" lon="12.204368440434337">
        <ele>1014.33</ele>
        <time>2015-07-16T07:43:16Z</time>
      </trkpt>
      <trkpt lat="46.462682336568832" lon="12.204405907541513">
        <ele>1014.33</ele>
        <time>2015-07-16T07:43:28Z</time>
      </trkpt>
      <trkpt lat="46.462673200294375" lon="12.20437933690846">
        <ele>1014.33</ele>
        <time>2015-07-16T07:43:37Z</time>
      </trkpt>
      <trkpt lat="46.462641432881355" lon="12.204425353556871">
        <ele>1014.33</ele>
        <time>2015-07-16T07:43:45Z</time>
      </trkpt>
      <trkpt lat="46.46261477842927" lon="12.204457875341177">
        <ele>1014.33</ele>
        <time>2015-07-16T07:43:59Z</time>
      </trkpt>
      <trkpt lat="46.46260011009872" lon="12.204455696046352">
        <ele>1014.33</ele>
        <time>2015-07-16T07:44:21Z</time>
      </trkpt>
      <trkpt lat="46.462595332413912" lon="12.204357460141182">
        <ele>1013.85</ele>
        <time>2015-07-16T07:44:35Z</time>
      </trkpt>
      <trkpt lat="46.46257278509438" lon="12.204311275854707">
        <ele>1012.89</ele>
        <time>2015-07-16T07:44:39Z</time>
      </trkpt>
      <trkpt lat="46.462552417069674" lon="12.20408814959228">
        <ele>1010.48</ele>
        <time>2015-07-16T07:44:53Z</time>
      </trkpt>
      <trkpt lat="46.462413026019931" lon="12.204002821817994">
        <ele>1009.52</ele>
        <time>2015-07-16T07:45:07Z</time>
      </trkpt>
      <trkpt lat="46.462265755981207" lon="12.203982872888446">
        <ele>1009.04</ele>
        <time>2015-07-16T07:45:20Z</time>
      </trkpt>
      <trkpt lat="46.462091328576207" lon="12.203976586461067">
        <ele>1008.5599999999999</ele>
        <time>2015-07-16T07:45:36Z</time>
      </trkpt>
      <trkpt lat="46.461909441277385" lon="12.203989578410983">
        <ele>1007.6</ele>
        <time>2015-07-16T07:45:51Z</time>
      </trkpt>
      <trkpt lat="46.461743731051683" lon="12.204024447128177">
        <ele>1007.6</ele>
        <time>2015-07-16T07:46:04Z</time>
      </trkpt>
      <trkpt lat="46.461518341675401" lon="12.204121509566903">
        <ele>1007.12</ele>
        <time>2015-07-16T07:46:22Z</time>
      </trkpt>
      <trkpt lat="46.461364952847362" lon="12.204093933105469">
        <ele>1006.64</ele>
        <time>2015-07-16T07:46:36Z</time>
      </trkpt>
      <trkpt lat="46.461207792162895" lon="12.204115809872746">
        <ele>1005.6799999999999</ele>
        <time>2015-07-16T07:46:50Z</time>
      </trkpt>
      <trkpt lat="46.461000256240368" lon="12.204174064099789">
        <ele>1005.2</ele>
        <time>2015-07-16T07:47:05Z</time>
      </trkpt>
      <trkpt lat="46.460794229060411" lon="12.204172974452376">
        <ele>1004.72</ele>
        <time>2015-07-16T07:47:22Z</time>
      </trkpt>
      <trkpt lat="46.460612593218684" lon="12.204240951687098">
        <ele>1003.75</ele>
        <time>2015-07-16T07:47:35Z</time>
      </trkpt>
      <trkpt lat="46.460455348715186" lon="12.204292081296444">
        <ele>1003.27</ele>
        <time>2015-07-16T07:47:48Z</time>
      </trkpt>
      <trkpt lat="46.460323417559266" lon="12.204269198700786">
        <ele>1003.75</ele>
        <time>2015-07-16T07:47:58Z</time>
      </trkpt>
      <trkpt lat="46.460306402295828" lon="12.204284956678748">
        <ele>1003.75</ele>
        <time>2015-07-16T07:48:00Z</time>
      </trkpt>
      <trkpt lat="46.46014085970819" lon="12.204315215349197">
        <ele>1003.27</ele>
        <time>2015-07-16T07:48:13Z</time>
      </trkpt>
      <trkpt lat="46.460129041224718" lon="12.204312030225992">
        <ele>1002.79</ele>
        <time>2015-07-16T07:48:14Z</time>
      </trkpt>
      <trkpt lat="46.459970287978649" lon="12.2043945081532">
        <ele>1002.79</ele>
        <time>2015-07-16T07:48:27Z</time>
      </trkpt>
      <trkpt lat="46.459812708199024" lon="12.204461228102446">
        <ele>1002.79</ele>
        <time>2015-07-16T07:48:41Z</time>
      </trkpt>
      <trkpt lat="46.459674742072821" lon="12.204522751271725">
        <ele>1002.3099999999999</ele>
        <time>2015-07-16T07:48:53Z</time>
      </trkpt>
      <trkpt lat="46.459553120657802" lon="12.20464127138257">
        <ele>1001.83</ele>
        <time>2015-07-16T07:49:05Z</time>
      </trkpt>
      <trkpt lat="46.459375089034438" lon="12.204816788434982">
        <ele>1001.83</ele>
        <time>2015-07-16T07:49:21Z</time>
      </trkpt>
      <trkpt lat="46.45926671102643" lon="12.204988533630967">
        <ele>1001.83</ele>
        <time>2015-07-16T07:49:36Z</time>
      </trkpt>
      <trkpt lat="46.459130756556988" lon="12.205215515568852">
        <ele>1001.83</ele>
        <time>2015-07-16T07:49:50Z</time>
      </trkpt>
      <trkpt lat="46.458992706611753" lon="12.20538935624063">
        <ele>1001.83</ele>
        <time>2015-07-16T07:50:04Z</time>
      </trkpt>
      <trkpt lat="46.458887010812759" lon="12.205635281279683">
        <ele>1001.35</ele>
        <time>2015-07-16T07:50:19Z</time>
      </trkpt>
      <trkpt lat="46.458740998059511" lon="12.205741396173835">
        <ele>1001.35</ele>
        <time>2015-07-16T07:50:31Z</time>
      </trkpt>
      <trkpt lat="46.458594733849168" lon="12.205603932961822">
        <ele>999.90999999999997</ele>
        <time>2015-07-16T07:50:44Z</time>
      </trkpt>
      <trkpt lat="46.458482248708606" lon="12.205407796427608">
        <ele>997.50999999999999</ele>
        <time>2015-07-16T07:50:58Z</time>
      </trkpt>
      <trkpt lat="46.458390466868877" lon="12.205204199999571">
        <ele>995.58000000000004</ele>
        <time>2015-07-16T07:51:10Z</time>
      </trkpt>
      <trkpt lat="46.458285776898265" lon="12.204930111765862">
        <ele>993.65999999999997</ele>
        <time>2015-07-16T07:51:25Z</time>
      </trkpt>
      <trkpt lat="46.458193073049188" lon="12.204729365184903">
        <ele>991.74000000000001</ele>
        <time>2015-07-16T07:51:39Z</time>
      </trkpt>
      <trkpt lat="46.458095256239176" lon="12.204450918361545">
        <ele>989.80999999999995</ele>
        <time>2015-07-16T07:51:56Z</time>
      </trkpt>
      <trkpt lat="46.45803633145988" lon="12.204240364953876">
        <ele>987.88999999999999</ele>
        <time>2015-07-16T07:52:09Z</time>
      </trkpt>
      <trkpt lat="46.457870118319988" lon="12.204166771844029">
        <ele>985.97000000000003</ele>
        <time>2015-07-16T07:52:23Z</time>
      </trkpt>
      <trkpt lat="46.457744473591447" lon="12.204303732141852">
        <ele>983.57000000000005</ele>
        <time>2015-07-16T07:52:36Z</time>
      </trkpt>
      <trkpt lat="46.457567363977432" lon="12.204420072957873">
        <ele>980.67999999999995</ele>
        <time>2015-07-16T07:52:51Z</time>
      </trkpt>
      <trkpt lat="46.457405928522348" lon="12.204469693824649">
        <ele>979.24000000000001</ele>
        <time>2015-07-16T07:53:04Z</time>
      </trkpt>
      <trkpt lat="46.457305932417512" lon="12.204490816220641">
        <ele>977.79999999999995</ele>
        <time>2015-07-16T07:53:11Z</time>
      </trkpt>
      <trkpt lat="46.457122284919024" lon="12.204545298591256">
        <ele>976.84000000000003</ele>
        <time>2015-07-16T07:53:25Z</time>
      </trkpt>
      <trkpt lat="46.456965124234557" lon="12.204549992457032">
        <ele>973.47000000000003</ele>
        <time>2015-07-16T07:53:37Z</time>
      </trkpt>
      <trkpt lat="46.456798994913697" lon="12.2045430354774">
        <ele>972.02999999999997</ele>
        <time>2015-07-16T07:53:50Z</time>
      </trkpt>
      <trkpt lat="46.456610066816211" lon="12.204513363540173">
        <ele>970.59000000000003</ele>
        <time>2015-07-16T07:54:05Z</time>
      </trkpt>
      <trkpt lat="46.45645659416914" lon="12.204501545056701">
        <ele>968.66999999999996</ele>
        <time>2015-07-16T07:54:17Z</time>
      </trkpt>
      <trkpt lat="46.456288201734424" lon="12.204451588913798">
        <ele>966.74000000000001</ele>
        <time>2015-07-16T07:54:30Z</time>
      </trkpt>
      <trkpt lat="46.45614386536181" lon="12.204419150948524">
        <ele>965.77999999999997</ele>
        <time>2015-07-16T07:54:42Z</time>
      </trkpt>
      <trkpt lat="46.455963235348463" lon="12.204423677176237">
        <ele>964.34000000000003</ele>
        <time>2015-07-16T07:54:56Z</time>
      </trkpt>
      <trkpt lat="46.455784616991878" lon="12.204413870349526">
        <ele>962.89999999999998</ele>
        <time>2015-07-16T07:55:10Z</time>
      </trkpt>
      <trkpt lat="46.455605244264007" lon="12.204398950561881">
        <ele>960.98000000000002</ele>
        <time>2015-07-16T07:55:24Z</time>
      </trkpt>
      <trkpt lat="46.455533243715763" lon="12.204308593645692">
        <ele>960.98000000000002</ele>
        <time>2015-07-16T07:55:31Z</time>
      </trkpt>
      <trkpt lat="46.455515390262008" lon="12.204114720225334">
        <ele>960.49000000000001</ele>
        <time>2015-07-16T07:55:42Z</time>
      </trkpt>
      <trkpt lat="46.455509942024946" lon="12.204040540382266">
        <ele>960.98000000000002</ele>
        <time>2015-07-16T07:55:54Z</time>
      </trkpt>
      <trkpt lat="46.455495189875364" lon="12.204031487926841">
        <ele>960.49000000000001</ele>
        <time>2015-07-16T07:56:11Z</time>
      </trkpt>
      <trkpt lat="46.455476330593228" lon="12.203836524859071">
        <ele>960.49000000000001</ele>
        <time>2015-07-16T07:56:24Z</time>
      </trkpt>
      <trkpt lat="46.455384800210595" lon="12.203676179051399">
        <ele>960.49000000000001</ele>
        <time>2015-07-16T07:56:36Z</time>
      </trkpt>
      <trkpt lat="46.455303579568863" lon="12.203502589836717">
        <ele>960.98000000000002</ele>
        <time>2015-07-16T07:56:50Z</time>
      </trkpt>
      <trkpt lat="46.455284217372537" lon="12.203492950648069">
        <ele>960.98000000000002</ele>
        <time>2015-07-16T07:57:00Z</time>
      </trkpt>
      <trkpt lat="46.455268459394574" lon="12.203515833243728">
        <ele>960.98000000000002</ele>
        <time>2015-07-16T07:57:15Z</time>
      </trkpt>
      <trkpt lat="46.455274075269699" lon="12.203518850728869">
        <ele>959.04999999999995</ele>
        <time>2015-07-16T07:57:18Z</time>
      </trkpt>
      <trkpt lat="46.455261167138815" lon="12.203539973124862">
        <ele>960.98000000000002</ele>
        <time>2015-07-16T07:57:23Z</time>
      </trkpt>
      <trkpt lat="46.455254293978214" lon="12.20354625955224">
        <ele>960.49000000000001</ele>
        <time>2015-07-16T07:57:24Z</time>
      </trkpt>
      <trkpt lat="46.455181203782558" lon="12.203522454947233">
        <ele>960.49000000000001</ele>
        <time>2015-07-16T07:57:35Z</time>
      </trkpt>
      <trkpt lat="46.455195369198918" lon="12.203506277874112">
        <ele>960.98000000000002</ele>
        <time>2015-07-16T07:57:50Z</time>
      </trkpt>
      <trkpt lat="46.455201152712107" lon="12.203526645898819">
        <ele>960.49000000000001</ele>
        <time>2015-07-16T07:57:59Z</time>
      </trkpt>
      <trkpt lat="46.455163015052676" lon="12.203528238460422">
        <ele>960.49000000000001</ele>
        <time>2015-07-16T07:58:19Z</time>
      </trkpt>
      <trkpt lat="46.455158153548837" lon="12.203529998660088">
        <ele>960.49000000000001</ele>
        <time>2015-07-16T07:58:51Z</time>
      </trkpt>
      <trkpt lat="46.455181371420622" lon="12.203541146591306">
        <ele>960.49000000000001</ele>
        <time>2015-07-16T07:59:18Z</time>
      </trkpt>
      <trkpt lat="46.45518321543932" lon="12.203567214310169">
        <ele>960.49000000000001</ele>
        <time>2015-07-16T07:59:39Z</time>
      </trkpt>
      <trkpt lat="46.455165864899755" lon="12.203601999208331">
        <ele>961.46000000000004</ele>
        <time>2015-07-16T07:59:50Z</time>
      </trkpt>
      <trkpt lat="46.455116579309106" lon="12.203546343371272">
        <ele>961.46000000000004</ele>
        <time>2015-07-16T07:59:58Z</time>
      </trkpt>
      <trkpt lat="46.455015409737825" lon="12.20342799089849">
        <ele>961.46000000000004</ele>
        <time>2015-07-16T08:00:12Z</time>
      </trkpt>
      <trkpt lat="46.455014068633318" lon="12.203438216820359">
        <ele>961.94000000000005</ele>
        <time>2015-07-16T08:00:15Z</time>
      </trkpt>
      <trkpt lat="46.454995376989245" lon="12.20342606306076">
        <ele>961.94000000000005</ele>
        <time>2015-07-16T08:00:22Z</time>
      </trkpt>
      <trkpt lat="46.454926058650017" lon="12.20335029065609">
        <ele>961.94000000000005</ele>
        <time>2015-07-16T08:00:28Z</time>
      </trkpt>
      <trkpt lat="46.454786248505116" lon="12.203175108879805">
        <ele>961.94000000000005</ele>
        <time>2015-07-16T08:00:42Z</time>
      </trkpt>
      <trkpt lat="46.454722881317139" lon="12.203036053106189">
        <ele>962.41999999999996</ele>
        <time>2015-07-16T08:00:52Z</time>
      </trkpt>
      <trkpt lat="46.454594638198614" lon="12.202900182455778">
        <ele>962.89999999999998</ele>
        <time>2015-07-16T08:01:05Z</time>
      </trkpt>
      <trkpt lat="46.454484164714813" lon="12.202797420322895">
        <ele>963.38</ele>
        <time>2015-07-16T08:01:16Z</time>
      </trkpt>
      <trkpt lat="46.454305546358228" lon="12.202726677060127">
        <ele>963.38</ele>
        <time>2015-07-16T08:01:32Z</time>
      </trkpt>
      <trkpt lat="46.454264977946877" lon="12.20275073312223">
        <ele>963.38</ele>
        <time>2015-07-16T08:01:37Z</time>
      </trkpt>
      <trkpt lat="46.45421477034688" lon="12.202775543555617">
        <ele>963.38</ele>
        <time>2015-07-16T08:01:42Z</time>
      </trkpt>
      <trkpt lat="46.454087616875768" lon="12.202803120017052">
        <ele>963.86000000000001</ele>
        <time>2015-07-16T08:01:53Z</time>
      </trkpt>
      <trkpt lat="46.453944370150566" lon="12.202855423092842">
        <ele>964.82000000000005</ele>
        <time>2015-07-16T08:02:06Z</time>
      </trkpt>
      <trkpt lat="46.453811265528202" lon="12.202880987897515">
        <ele>965.29999999999995</ele>
        <time>2015-07-16T08:02:18Z</time>
      </trkpt>
      <trkpt lat="46.453669527545571" lon="12.202927675098181">
        <ele>965.77999999999997</ele>
        <time>2015-07-16T08:02:31Z</time>
      </trkpt>
      <trkpt lat="46.453547151759267" lon="12.202970255166292">
        <ele>966.25999999999999</ele>
        <time>2015-07-16T08:02:43Z</time>
      </trkpt>
      <trkpt lat="46.453400300815701" lon="12.203006381168962">
        <ele>966.74000000000001</ele>
        <time>2015-07-16T08:02:55Z</time>
      </trkpt>
      <trkpt lat="46.453250851482153" lon="12.203059103339911">
        <ele>967.70000000000005</ele>
        <time>2015-07-16T08:03:08Z</time>
      </trkpt>
      <trkpt lat="46.453153369948268" lon="12.203098833560944">
        <ele>968.66999999999996</ele>
        <time>2015-07-16T08:03:18Z</time>
      </trkpt>
      <trkpt lat="46.453063599765301" lon="12.203120039775968">
        <ele>969.63</ele>
        <time>2015-07-16T08:03:27Z</time>
      </trkpt>
      <trkpt lat="46.453004507347941" lon="12.20314065925777">
        <ele>970.11000000000001</ele>
        <time>2015-07-16T08:03:34Z</time>
      </trkpt>
      <trkpt lat="46.452946001663804" lon="12.203141329810023">
        <ele>970.59000000000003</ele>
        <time>2015-07-16T08:03:39Z</time>
      </trkpt>
      <trkpt lat="46.452928567305207" lon="12.203150801360607">
        <ele>970.59000000000003</ele>
        <time>2015-07-16T08:03:41Z</time>
      </trkpt>
      <trkpt lat="46.452779956161976" lon="12.203235542401671">
        <ele>972.02999999999997</ele>
        <time>2015-07-16T08:03:54Z</time>
      </trkpt>
      <trkpt lat="46.452642241492867" lon="12.203307626768947">
        <ele>973.47000000000003</ele>
        <time>2015-07-16T08:04:07Z</time>
      </trkpt>
      <trkpt lat="46.452511567622423" lon="12.203376609832048">
        <ele>974.42999999999995</ele>
        <time>2015-07-16T08:04:19Z</time>
      </trkpt>
      <trkpt lat="46.45238290540874" lon="12.203425895422697">
        <ele>975.38999999999999</ele>
        <time>2015-07-16T08:04:31Z</time>
      </trkpt>
      <trkpt lat="46.452247453853488" lon="12.203466463834047">
        <ele>975.88</ele>
        <time>2015-07-16T08:04:42Z</time>
      </trkpt>
      <trkpt lat="46.452112253755331" lon="12.203553048893809">
        <ele>977.32000000000005</ele>
        <time>2015-07-16T08:04:54Z</time>
      </trkpt>
      <trkpt lat="46.451989961788058" lon="12.203594539314508">
        <ele>977.79999999999995</ele>
        <time>2015-07-16T08:05:07Z</time>
      </trkpt>
      <trkpt lat="46.451889546588063" lon="12.203624965623021">
        <ele>978.75999999999999</ele>
        <time>2015-07-16T08:05:17Z</time>
      </trkpt>
      <trkpt lat="46.451776558533311" lon="12.203684309497476">
        <ele>979.72000000000003</ele>
        <time>2015-07-16T08:05:28Z</time>
      </trkpt>
      <trkpt lat="46.451661977916956" lon="12.203735522925854">
        <ele>980.67999999999995</ele>
        <time>2015-07-16T08:05:42Z</time>
      </trkpt>
      <trkpt lat="46.451545804738998" lon="12.203797046095133">
        <ele>982.12</ele>
        <time>2015-07-16T08:05:54Z</time>
      </trkpt>
      <trkpt lat="46.451439103111625" lon="12.203847086057067">
        <ele>983.57000000000005</ele>
        <time>2015-07-16T08:06:06Z</time>
      </trkpt>
      <trkpt lat="46.451316308230162" lon="12.203895449638367">
        <ele>985.00999999999999</ele>
        <time>2015-07-16T08:06:19Z</time>
      </trkpt>
      <trkpt lat="46.451307339593768" lon="12.203899472951889">
        <ele>985.00999999999999</ele>
        <time>2015-07-16T08:06:20Z</time>
      </trkpt>
      <trkpt lat="46.451290491968393" lon="12.203915482386947">
        <ele>985.49000000000001</ele>
        <time>2015-07-16T08:06:22Z</time>
      </trkpt>
      <trkpt lat="46.451267022639513" lon="12.20393811352551">
        <ele>985.49000000000001</ele>
        <time>2015-07-16T08:06:24Z</time>
      </trkpt>
      <trkpt lat="46.451178761199117" lon="12.203971557319164">
        <ele>986.45000000000005</ele>
        <time>2015-07-16T08:06:35Z</time>
      </trkpt>
      <trkpt lat="46.451044147834182" lon="12.204030565917492">
        <ele>988.37</ele>
        <time>2015-07-16T08:06:49Z</time>
      </trkpt>
      <trkpt lat="46.450932333245873" lon="12.204091502353549">
        <ele>989.33000000000004</ele>
        <time>2015-07-16T08:07:00Z</time>
      </trkpt>
      <trkpt lat="46.450787829235196" lon="12.204153528437018">
        <ele>991.25999999999999</ele>
        <time>2015-07-16T08:07:15Z</time>
      </trkpt>
      <trkpt lat="46.450646007433534" lon="12.204211866483092">
        <ele>993.17999999999995</ele>
        <time>2015-07-16T08:07:29Z</time>
      </trkpt>
      <trkpt lat="46.450530253350735" lon="12.204278502613306">
        <ele>994.13999999999999</ele>
        <time>2015-07-16T08:07:40Z</time>
      </trkpt>
      <trkpt lat="46.450376277789474" lon="12.204220751300454">
        <ele>996.05999999999995</ele>
        <time>2015-07-16T08:07:55Z</time>
      </trkpt>
      <trkpt lat="46.450280556455255" lon="12.204100219532847">
        <ele>997.01999999999998</ele>
        <time>2015-07-16T08:08:09Z</time>
      </trkpt>
      <trkpt lat="46.450217440724373" lon="12.203971892595291">
        <ele>997.99000000000001</ele>
        <time>2015-07-16T08:08:21Z</time>
      </trkpt>
      <trkpt lat="46.450231354683638" lon="12.20381741411984">
        <ele>999.42999999999995</ele>
        <time>2015-07-16T08:08:32Z</time>
      </trkpt>
      <trkpt lat="46.450272845104337" lon="12.203661594539881">
        <ele>1000.39</ele>
        <time>2015-07-16T08:08:44Z</time>
      </trkpt>
      <trkpt lat="46.450293380767107" lon="12.203603256493807">
        <ele>1000.39</ele>
        <time>2015-07-16T08:08:48Z</time>
      </trkpt>
      <trkpt lat="46.45034777931869" lon="12.203474594280124">
        <ele>1001.35</ele>
        <time>2015-07-16T08:08:58Z</time>
      </trkpt>
      <trkpt lat="46.450392873957753" lon="12.203300921246409">
        <ele>1002.3099999999999</ele>
        <time>2015-07-16T08:09:10Z</time>
      </trkpt>
      <trkpt lat="46.450407039374113" lon="12.203201930969954">
        <ele>1002.79</ele>
        <time>2015-07-16T08:09:19Z</time>
      </trkpt>
      <trkpt lat="46.45042447373271" lon="12.202972518280149">
        <ele>1004.72</ele>
        <time>2015-07-16T08:09:33Z</time>
      </trkpt>
      <trkpt lat="46.450470574200153" lon="12.202793648466468">
        <ele>1005.6799999999999</ele>
        <time>2015-07-16T08:09:45Z</time>
      </trkpt>
      <trkpt lat="46.450551124289632" lon="12.202597931027412">
        <ele>1006.64</ele>
        <time>2015-07-16T08:10:00Z</time>
      </trkpt>
      <trkpt lat="46.450580460950732" lon="12.202516878023744">
        <ele>1008.08</ele>
        <time>2015-07-16T08:10:09Z</time>
      </trkpt>
      <trkpt lat="46.450611390173435" lon="12.202366506680846">
        <ele>1008.08</ele>
        <time>2015-07-16T08:10:17Z</time>
      </trkpt>
      <trkpt lat="46.450619855895638" lon="12.202312108129263">
        <ele>1008.08</ele>
        <time>2015-07-16T08:10:20Z</time>
      </trkpt>
      <trkpt lat="46.45064483396709" lon="12.202153187245131">
        <ele>1009.04</ele>
        <time>2015-07-16T08:10:31Z</time>
      </trkpt>
      <trkpt lat="46.450646007433534" lon="12.20214388333261">
        <ele>1008.5599999999999</ele>
        <time>2015-07-16T08:10:32Z</time>
      </trkpt>
      <trkpt lat="46.450675763189793" lon="12.201887229457498">
        <ele>1009.52</ele>
        <time>2015-07-16T08:10:46Z</time>
      </trkpt>
      <trkpt lat="46.450741812586784" lon="12.201719675213099">
        <ele>1010</ele>
        <time>2015-07-16T08:10:59Z</time>
      </trkpt>
      <trkpt lat="46.45084273070097" lon="12.201505936682224">
        <ele>1010.96</ele>
        <time>2015-07-16T08:11:13Z</time>
      </trkpt>
      <trkpt lat="46.450951443985105" lon="12.201376268640161">
        <ele>1011.4400000000001</ele>
        <time>2015-07-16T08:11:25Z</time>
      </trkpt>
      <trkpt lat="46.451030066236854" lon="12.201225059106946">
        <ele>1011.4400000000001</ele>
        <time>2015-07-16T08:11:36Z</time>
      </trkpt>
      <trkpt lat="46.451094690710306" lon="12.20108357258141">
        <ele>1011.4400000000001</ele>
        <time>2015-07-16T08:11:49Z</time>
      </trkpt>
      <trkpt lat="46.451214468106627" lon="12.200901433825493">
        <ele>1010.96</ele>
        <time>2015-07-16T08:12:01Z</time>
      </trkpt>
      <trkpt lat="46.451310524716973" lon="12.200636565685272">
        <ele>1010.96</ele>
        <time>2015-07-16T08:12:16Z</time>
      </trkpt>
      <trkpt lat="46.451324271038175" lon="12.200500778853893">
        <ele>1011.4400000000001</ele>
        <time>2015-07-16T08:12:25Z</time>
      </trkpt>
      <trkpt lat="46.4513367600739" lon="12.200436573475599">
        <ele>1011.4400000000001</ele>
        <time>2015-07-16T08:12:29Z</time>
      </trkpt>
      <trkpt lat="46.451369784772396" lon="12.200126526877284">
        <ele>1010</ele>
        <time>2015-07-16T08:12:45Z</time>
      </trkpt>
      <trkpt lat="46.451356876641512" lon="12.199938353151083">
        <ele>1011.4400000000001</ele>
        <time>2015-07-16T08:12:57Z</time>
      </trkpt>
      <trkpt lat="46.451343381777406" lon="12.199713215231895">
        <ele>1011.9299999999999</ele>
        <time>2015-07-16T08:13:09Z</time>
      </trkpt>
      <trkpt lat="46.451354529708624" lon="12.199665606021881">
        <ele>1011.9299999999999</ele>
        <time>2015-07-16T08:13:12Z</time>
      </trkpt>
      <trkpt lat="46.45137146115303" lon="12.199615649878979">
        <ele>1011.9299999999999</ele>
        <time>2015-07-16T08:13:15Z</time>
      </trkpt>
      <trkpt lat="46.451315889135003" lon="12.199502661824226">
        <ele>1012.41</ele>
        <time>2015-07-16T08:13:27Z</time>
      </trkpt>
      <trkpt lat="46.451318571344018" lon="12.199512468650937">
        <ele>1012.41</ele>
        <time>2015-07-16T08:13:41Z</time>
      </trkpt>
      <trkpt lat="46.451351176947355" lon="12.1994573995471">
        <ele>1012.41</ele>
        <time>2015-07-16T08:13:50Z</time>
      </trkpt>
      <trkpt lat="46.451326534152031" lon="12.19941783696413">
        <ele>1012.41</ele>
        <time>2015-07-16T08:14:00Z</time>
      </trkpt>
      <trkpt lat="46.451294599100947" lon="12.199376681819558">
        <ele>1012.41</ele>
        <time>2015-07-16T08:14:10Z</time>
      </trkpt>
      <trkpt lat="46.451306752860546" lon="12.199358073994517">
        <ele>1012.41</ele>
        <time>2015-07-16T08:14:26Z</time>
      </trkpt>
      <trkpt lat="46.451295521110296" lon="12.199351787567139">
        <ele>1011.9299999999999</ele>
        <time>2015-07-16T08:14:35Z</time>
      </trkpt>
      <trkpt lat="46.45130692049861" lon="12.199348267167807">
        <ele>1012.41</ele>
        <time>2015-07-16T08:14:53Z</time>
      </trkpt>
      <trkpt lat="46.451339274644852" lon="12.19932303763926">
        <ele>1012.41</ele>
        <time>2015-07-16T08:15:10Z</time>
      </trkpt>
      <trkpt lat="46.451260652393103" lon="12.199338292703032">
        <ele>1011.9299999999999</ele>
        <time>2015-07-16T08:15:20Z</time>
      </trkpt>
      <trkpt lat="46.451172055676579" lon="12.199272662401199">
        <ele>1011.4400000000001</ele>
        <time>2015-07-16T08:15:30Z</time>
      </trkpt>
      <trkpt lat="46.451049679890275" lon="12.199191944673657">
        <ele>1011.4400000000001</ele>
        <time>2015-07-16T08:15:43Z</time>
      </trkpt>
      <trkpt lat="46.450954545289278" lon="12.199124889448285">
        <ele>1010.96</ele>
        <time>2015-07-16T08:15:53Z</time>
      </trkpt>
      <trkpt lat="46.450875839218497" lon="12.199053224176168">
        <ele>1011.4400000000001</ele>
        <time>2015-07-16T08:16:03Z</time>
      </trkpt>
      <trkpt lat="46.450835186988115" lon="12.199043082073331">
        <ele>1011.9299999999999</ele>
        <time>2015-07-16T08:16:06Z</time>
      </trkpt>
      <trkpt lat="46.45074256695807" lon="12.198931435123086">
        <ele>1011.9299999999999</ele>
        <time>2015-07-16T08:16:18Z</time>
      </trkpt>
      <trkpt lat="46.450658412650228" lon="12.198846945539117">
        <ele>1012.89</ele>
        <time>2015-07-16T08:16:30Z</time>
      </trkpt>
      <trkpt lat="46.450557829812169" lon="12.198797827586532">
        <ele>1014.33</ele>
        <time>2015-07-16T08:16:44Z</time>
      </trkpt>
      <trkpt lat="46.450464623048902" lon="12.198790367692709">
        <ele>1016.25</ele>
        <time>2015-07-16T08:16:57Z</time>
      </trkpt>
      <trkpt lat="46.450349790975451" lon="12.198810316622257">
        <ele>1017.6900000000001</ele>
        <time>2015-07-16T08:17:10Z</time>
      </trkpt>
      <trkpt lat="46.450142757967114" lon="12.198904361575842">
        <ele>1019.62</ele>
        <time>2015-07-16T08:17:24Z</time>
      </trkpt>
      <trkpt lat="46.450047036632895" lon="12.198949959129095">
        <ele>1022.02</ele>
        <time>2015-07-16T08:17:35Z</time>
      </trkpt>
      <trkpt lat="46.449941508471966" lon="12.198977200314403">
        <ele>1022.5</ele>
        <time>2015-07-16T08:17:46Z</time>
      </trkpt>
      <trkpt lat="46.449833046644926" lon="12.199026737362146">
        <ele>1023.9400000000001</ele>
        <time>2015-07-16T08:17:58Z</time>
      </trkpt>
      <trkpt lat="46.449723495170474" lon="12.19908406957984">
        <ele>1024.9000000000001</ele>
        <time>2015-07-16T08:18:11Z</time>
      </trkpt>
      <trkpt lat="46.449619559571147" lon="12.19913880340755">
        <ele>1026.3399999999999</ele>
        <time>2015-07-16T08:18:25Z</time>
      </trkpt>
      <trkpt lat="46.449445886537433" lon="12.199267130345106">
        <ele>1027.3099999999999</ele>
        <time>2015-07-16T08:18:38Z</time>
      </trkpt>
      <trkpt lat="46.449424345046282" lon="12.199286408722401">
        <ele>1027.79</ele>
        <time>2015-07-16T08:18:40Z</time>
      </trkpt>
      <trkpt lat="46.44927129149437" lon="12.199376178905368">
        <ele>1028.27</ele>
        <time>2015-07-16T08:18:54Z</time>
      </trkpt>
      <trkpt lat="46.44921462982893" lon="12.199398307129741">
        <ele>1028.27</ele>
        <time>2015-07-16T08:18:59Z</time>
      </trkpt>
      <trkpt lat="46.449086721986532" lon="12.199470726773143">
        <ele>1027.79</ele>
        <time>2015-07-16T08:19:11Z</time>
      </trkpt>
      <trkpt lat="46.448946241289377" lon="12.199585810303688">
        <ele>1027.79</ele>
        <time>2015-07-16T08:19:24Z</time>
      </trkpt>
      <trkpt lat="46.44880467094481" lon="12.199669880792499">
        <ele>1028.27</ele>
        <time>2015-07-16T08:19:36Z</time>
      </trkpt>
      <trkpt lat="46.448750859126449" lon="12.199682453647256">
        <ele>1027.3099999999999</ele>
        <time>2015-07-16T08:19:41Z</time>
      </trkpt>
      <trkpt lat="46.448578359559178" lon="12.199673820286989">
        <ele>1026.3399999999999</ele>
        <time>2015-07-16T08:19:55Z</time>
      </trkpt>
      <trkpt lat="46.448426898568869" lon="12.199525041505694">
        <ele>1026.3399999999999</ele>
        <time>2015-07-16T08:20:09Z</time>
      </trkpt>
      <trkpt lat="46.448299828916788" lon="12.1994349360466">
        <ele>1025.8599999999999</ele>
        <time>2015-07-16T08:20:21Z</time>
      </trkpt>
      <trkpt lat="46.44815431907773" lon="12.199369221925735">
        <ele>1025.8599999999999</ele>
        <time>2015-07-16T08:20:35Z</time>
      </trkpt>
      <trkpt lat="46.447996906936169" lon="12.199332676827908">
        <ele>1026.3399999999999</ele>
        <time>2015-07-16T08:20:47Z</time>
      </trkpt>
      <trkpt lat="46.447858521714807" lon="12.199269980192184">
        <ele>1026.8299999999999</ele>
        <time>2015-07-16T08:21:01Z</time>
      </trkpt>
      <trkpt lat="46.447792053222656" lon="12.199283475056291">
        <ele>1027.3099999999999</ele>
        <time>2015-07-16T08:21:07Z</time>
      </trkpt>
      <trkpt lat="46.447724997997284" lon="12.199255228042603">
        <ele>1027.79</ele>
        <time>2015-07-16T08:21:14Z</time>
      </trkpt>
      <trkpt lat="46.447557443752885" lon="12.199172498658299">
        <ele>1029.71</ele>
        <time>2015-07-16T08:21:28Z</time>
      </trkpt>
      <trkpt lat="46.447439342737198" lon="12.19906453974545">
        <ele>1030.1900000000001</ele>
        <time>2015-07-16T08:21:39Z</time>
      </trkpt>
      <trkpt lat="46.44739642739296" lon="12.199021121487021">
        <ele>1030.1900000000001</ele>
        <time>2015-07-16T08:21:43Z</time>
      </trkpt>
      <trkpt lat="46.447368683293462" lon="12.198998657986522">
        <ele>1030.1900000000001</ele>
        <time>2015-07-16T08:21:46Z</time>
      </trkpt>
      <trkpt lat="46.447306992486119" lon="12.198933279141784">
        <ele>1032.1099999999999</ele>
        <time>2015-07-16T08:21:53Z</time>
      </trkpt>
      <trkpt lat="46.447189226746559" lon="12.198820458725095">
        <ele>1031.6300000000001</ele>
        <time>2015-07-16T08:22:06Z</time>
      </trkpt>
      <trkpt lat="46.447086967527866" lon="12.198717277497053">
        <ele>1032.5899999999999</ele>
        <time>2015-07-16T08:22:16Z</time>
      </trkpt>
      <trkpt lat="46.446998119354248" lon="12.198625579476357">
        <ele>1033.55</ele>
        <time>2015-07-16T08:22:27Z</time>
      </trkpt>
      <trkpt lat="46.44686627201736" lon="12.198538156226277">
        <ele>1035</ele>
        <time>2015-07-16T08:22:40Z</time>
      </trkpt>
      <trkpt lat="46.446767784655094" lon="12.198458779603243">
        <ele>1036.4400000000001</ele>
        <time>2015-07-16T08:22:52Z</time>
      </trkpt>
      <trkpt lat="46.446696287021041" lon="12.198330452665687">
        <ele>1038.3599999999999</ele>
        <time>2015-07-16T08:23:05Z</time>
      </trkpt>
      <trkpt lat="46.446644067764282" lon="12.198194414377213">
        <ele>1040.28</ele>
        <time>2015-07-16T08:23:16Z</time>
      </trkpt>
      <trkpt lat="46.446587573736906" lon="12.198055107146502">
        <ele>1041.25</ele>
        <time>2015-07-16T08:23:27Z</time>
      </trkpt>
      <trkpt lat="46.44653107970953" lon="12.197830555960536">
        <ele>1042.6900000000001</ele>
        <time>2015-07-16T08:23:39Z</time>
      </trkpt>
      <trkpt lat="46.446494031697512" lon="12.197685549035668">
        <ele>1044.1300000000001</ele>
        <time>2015-07-16T08:23:50Z</time>
      </trkpt>
      <trkpt lat="46.446404932066798" lon="12.197484634816647">
        <ele>1045.5699999999999</ele>
        <time>2015-07-16T08:24:06Z</time>
      </trkpt>
      <trkpt lat="46.446397472172976" lon="12.197416657581925">
        <ele>1046.53</ele>
        <time>2015-07-16T08:24:12Z</time>
      </trkpt>
      <trkpt lat="46.446404680609703" lon="12.197381788864732">
        <ele>1046.53</ele>
        <time>2015-07-16T08:24:14Z</time>
      </trkpt>
      <trkpt lat="46.446388168260455" lon="12.197199985384941">
        <ele>1047.49</ele>
        <time>2015-07-16T08:24:26Z</time>
      </trkpt>
      <trkpt lat="46.446378277614713" lon="12.197026982903481">
        <ele>1047.97</ele>
        <time>2015-07-16T08:24:37Z</time>
      </trkpt>
      <trkpt lat="46.446304684504867" lon="12.196950204670429">
        <ele>1048.9400000000001</ele>
        <time>2015-07-16T08:24:48Z</time>
      </trkpt>
      <trkpt lat="46.44625841639936" lon="12.196797570213675">
        <ele>1050.3800000000001</ele>
        <time>2015-07-16T08:25:00Z</time>
      </trkpt>
      <trkpt lat="46.446227570995688" lon="12.196711068972945">
        <ele>1050.8599999999999</ele>
        <time>2015-07-16T08:25:05Z</time>
      </trkpt>
      <trkpt lat="46.446144338697195" lon="12.196580227464437">
        <ele>1051.3399999999999</ele>
        <time>2015-07-16T08:25:16Z</time>
      </trkpt>
      <trkpt lat="46.44606102257967" lon="12.196427257731557">
        <ele>1051.3399999999999</ele>
        <time>2015-07-16T08:25:29Z</time>
      </trkpt>
      <trkpt lat="46.446006875485182" lon="12.196237742900848">
        <ele>1051.8199999999999</ele>
        <time>2015-07-16T08:25:41Z</time>
      </trkpt>
      <trkpt lat="46.445987597107887" lon="12.196072451770306">
        <ele>1052.3</ele>
        <time>2015-07-16T08:25:52Z</time>
      </trkpt>
      <trkpt lat="46.445964798331261" lon="12.195897102355957">
        <ele>1051.8199999999999</ele>
        <time>2015-07-16T08:26:02Z</time>
      </trkpt>
      <trkpt lat="46.445959601551294" lon="12.1958586294204">
        <ele>1051.8199999999999</ele>
        <time>2015-07-16T08:26:04Z</time>
      </trkpt>
      <trkpt lat="46.446004528552294" lon="12.195665510371327">
        <ele>1051.3399999999999</ele>
        <time>2015-07-16T08:26:15Z</time>
      </trkpt>
      <trkpt lat="46.446031602099538" lon="12.195623097941279">
        <ele>1051.3399999999999</ele>
        <time>2015-07-16T08:26:26Z</time>
      </trkpt>
      <trkpt lat="46.446113577112556" lon="12.195618487894535">
        <ele>1051.3399999999999</ele>
        <time>2015-07-16T08:26:45Z</time>
      </trkpt>
      <trkpt lat="46.445956751704216" lon="12.195770787075162">
        <ele>1052.3</ele>
        <time>2015-07-16T08:26:57Z</time>
      </trkpt>
      <trkpt lat="46.445938982069492" lon="12.195804314687848">
        <ele>1051.8199999999999</ele>
        <time>2015-07-16T08:27:02Z</time>
      </trkpt>
      <trkpt lat="46.445903861895204" lon="12.195799369364977">
        <ele>1051.8199999999999</ele>
        <time>2015-07-16T08:27:12Z</time>
      </trkpt>
      <trkpt lat="46.445900090038776" lon="12.195768021047115">
        <ele>1052.3</ele>
        <time>2015-07-16T08:27:24Z</time>
      </trkpt>
      <trkpt lat="46.445926241576672" lon="12.195744384080172">
        <ele>1051.8199999999999</ele>
        <time>2015-07-16T08:27:37Z</time>
      </trkpt>
      <trkpt lat="46.445959098637104" lon="12.195643298327923">
        <ele>1051.8199999999999</ele>
        <time>2015-07-16T08:27:44Z</time>
      </trkpt>
      <trkpt lat="46.446025986224413" lon="12.195452777668834">
        <ele>1051.3399999999999</ele>
        <time>2015-07-16T08:27:57Z</time>
      </trkpt>
      <trkpt lat="46.446042247116566" lon="12.195303747430444">
        <ele>1051.3399999999999</ele>
        <time>2015-07-16T08:28:08Z</time>
      </trkpt>
      <trkpt lat="46.446052975952625" lon="12.195247169584036">
        <ele>1051.3399999999999</ele>
        <time>2015-07-16T08:28:11Z</time>
      </trkpt>
      <trkpt lat="46.446080803871155" lon="12.195053044706583">
        <ele>1051.3399999999999</ele>
        <time>2015-07-16T08:28:21Z</time>
      </trkpt>
      <trkpt lat="46.446062363684177" lon="12.19484131783247">
        <ele>1050.8599999999999</ele>
        <time>2015-07-16T08:28:33Z</time>
      </trkpt>
      <trkpt lat="46.44604685716331" lon="12.194706536829472">
        <ele>1050.3800000000001</ele>
        <time>2015-07-16T08:28:44Z</time>
      </trkpt>
      <trkpt lat="46.445998745039105" lon="12.194642247632146">
        <ele>1050.3800000000001</ele>
        <time>2015-07-16T08:28:59Z</time>
      </trkpt>
      <trkpt lat="46.445907298475504" lon="12.194425072520971">
        <ele>1050.8599999999999</ele>
        <time>2015-07-16T08:29:13Z</time>
      </trkpt>
      <trkpt lat="46.445853319019079" lon="12.194296326488256">
        <ele>1050.8599999999999</ele>
        <time>2015-07-16T08:29:23Z</time>
      </trkpt>
      <trkpt lat="46.445840075612068" lon="12.194260703399777">
        <ele>1050.3800000000001</ele>
        <time>2015-07-16T08:29:26Z</time>
      </trkpt>
      <trkpt lat="46.445792047306895" lon="12.194225247949362">
        <ele>1050.3800000000001</ele>
        <time>2015-07-16T08:29:31Z</time>
      </trkpt>
      <trkpt lat="46.445596497505903" lon="12.194165820255876">
        <ele>1050.3800000000001</ele>
        <time>2015-07-16T08:29:46Z</time>
      </trkpt>
      <trkpt lat="46.445528687909245" lon="12.19419289380312">
        <ele>1050.3800000000001</ele>
        <time>2015-07-16T08:29:51Z</time>
      </trkpt>
      <trkpt lat="46.445370018482208" lon="12.194177974015474">
        <ele>1050.8599999999999</ele>
        <time>2015-07-16T08:30:03Z</time>
      </trkpt>
      <trkpt lat="46.445275554433465" lon="12.193949315696955">
        <ele>1049.9000000000001</ele>
        <time>2015-07-16T08:30:14Z</time>
      </trkpt>
      <trkpt lat="46.44527044147253" lon="12.193650417029858">
        <ele>1048.9400000000001</ele>
        <time>2015-07-16T08:30:27Z</time>
      </trkpt>
      <trkpt lat="46.44530463963747" lon="12.193435588851571">
        <ele>1047.97</ele>
        <time>2015-07-16T08:30:38Z</time>
      </trkpt>
      <trkpt lat="46.44536079838872" lon="12.193199638277292">
        <ele>1047.01</ele>
        <time>2015-07-16T08:30:51Z</time>
      </trkpt>
      <trkpt lat="46.445444952696562" lon="12.192989084869623">
        <ele>1045.5699999999999</ele>
        <time>2015-07-16T08:31:03Z</time>
      </trkpt>
      <trkpt lat="46.445576380938292" lon="12.192789176478982">
        <ele>1045.5699999999999</ele>
        <time>2015-07-16T08:31:16Z</time>
      </trkpt>
      <trkpt lat="46.445668330416083" lon="12.192658670246601">
        <ele>1045.0899999999999</ele>
        <time>2015-07-16T08:31:29Z</time>
      </trkpt>
      <trkpt lat="46.445668833330274" lon="12.19253939576447">
        <ele>1046.05</ele>
        <time>2015-07-16T08:31:40Z</time>
      </trkpt>
      <trkpt lat="46.445654667913914" lon="12.192493630573153">
        <ele>1046.05</ele>
        <time>2015-07-16T08:31:52Z</time>
      </trkpt>
      <trkpt lat="46.445633880794048" lon="12.192487176507711">
        <ele>1046.05</ele>
        <time>2015-07-16T08:31:56Z</time>
      </trkpt>
      <trkpt lat="46.445580823346972" lon="12.192485416308045">
        <ele>1045.5699999999999</ele>
        <time>2015-07-16T08:32:09Z</time>
      </trkpt>
      <trkpt lat="46.445590294897556" lon="12.192431688308716">
        <ele>1045.5699999999999</ele>
        <time>2015-07-16T08:32:13Z</time>
      </trkpt>
      <trkpt lat="46.445603957399726" lon="12.192298667505383">
        <ele>1046.05</ele>
        <time>2015-07-16T08:32:23Z</time>
      </trkpt>
      <trkpt lat="46.44562222994864" lon="12.192203365266323">
        <ele>1046.05</ele>
        <time>2015-07-16T08:32:44Z</time>
      </trkpt>
      <trkpt lat="46.445684423670173" lon="12.192279724404216">
        <ele>1046.05</ele>
        <time>2015-07-16T08:33:05Z</time>
      </trkpt>
      <trkpt lat="46.445670677348971" lon="12.19237913377583">
        <ele>1045.5699999999999</ele>
        <time>2015-07-16T08:33:14Z</time>
      </trkpt>
      <trkpt lat="46.445651985704899" lon="12.19238449819386">
        <ele>1045.5699999999999</ele>
        <time>2015-07-16T08:33:15Z</time>
      </trkpt>
      <trkpt lat="46.445377394556999" lon="12.192424396052957">
        <ele>1046.05</ele>
        <time>2015-07-16T08:33:27Z</time>
      </trkpt>
      <trkpt lat="46.445445455610752" lon="12.192375864833593">
        <ele>1047.01</ele>
        <time>2015-07-16T08:33:43Z</time>
      </trkpt>
      <trkpt lat="46.445488538593054" lon="12.192332949489355">
        <ele>1047.49</ele>
        <time>2015-07-16T08:34:02Z</time>
      </trkpt>
      <trkpt lat="46.445684256032109" lon="12.192442836239934">
        <ele>1047.01</ele>
        <time>2015-07-16T08:34:22Z</time>
      </trkpt>
      <trkpt lat="46.445574034005404" lon="12.192409476265311">
        <ele>1048.9400000000001</ele>
        <time>2015-07-16T08:34:37Z</time>
      </trkpt>
      <trkpt lat="46.44529290497303" lon="12.192469323053956">
        <ele>1050.3800000000001</ele>
        <time>2015-07-16T08:34:48Z</time>
      </trkpt>
      <trkpt lat="46.445160722360015" lon="12.192529756575823">
        <ele>1053.26</ele>
        <time>2015-07-16T08:35:01Z</time>
      </trkpt>
      <trkpt lat="46.44512677565217" lon="12.192495055496693">
        <ele>1056.1500000000001</ele>
        <time>2015-07-16T08:35:15Z</time>
      </trkpt>
      <trkpt lat="46.445049410685897" lon="12.192497821524739">
        <ele>1059.03</ele>
        <time>2015-07-16T08:35:30Z</time>
      </trkpt>
      <trkpt lat="46.444986462593079" lon="12.192488769069314">
        <ele>1060.95</ele>
        <time>2015-07-16T08:35:43Z</time>
      </trkpt>
      <trkpt lat="46.444936757907271" lon="12.192457420751452">
        <ele>1063.8399999999999</ele>
        <time>2015-07-16T08:35:58Z</time>
      </trkpt>
      <trkpt lat="46.444895602762699" lon="12.192447697743773">
        <ele>1065.76</ele>
        <time>2015-07-16T08:36:09Z</time>
      </trkpt>
      <trkpt lat="46.44481647759676" lon="12.192419283092022">
        <ele>1067.6800000000001</ele>
        <time>2015-07-16T08:36:21Z</time>
      </trkpt>
      <trkpt lat="46.444776747375727" lon="12.192260781303048">
        <ele>1070.0799999999999</ele>
        <time>2015-07-16T08:36:35Z</time>
      </trkpt>
      <trkpt lat="46.444758977741003" lon="12.19210647046566">
        <ele>1072.01</ele>
        <time>2015-07-16T08:36:47Z</time>
      </trkpt>
      <trkpt lat="46.444709189236164" lon="12.192020304501057">
        <ele>1073.45</ele>
        <time>2015-07-16T08:36:59Z</time>
      </trkpt>
      <trkpt lat="46.444700639694929" lon="12.191920224577188">
        <ele>1075.3699999999999</ele>
        <time>2015-07-16T08:37:11Z</time>
      </trkpt>
      <trkpt lat="46.444679433479905" lon="12.191839087754488">
        <ele>1077.29</ele>
        <time>2015-07-16T08:37:22Z</time>
      </trkpt>
      <trkpt lat="46.444669961929321" lon="12.191712018102407">
        <ele>1080.1800000000001</ele>
        <time>2015-07-16T08:37:35Z</time>
      </trkpt>
      <trkpt lat="46.444675577804446" lon="12.191622667014599">
        <ele>1082.5799999999999</ele>
        <time>2015-07-16T08:37:47Z</time>
      </trkpt>
      <trkpt lat="46.444676332175732" lon="12.191522670909762">
        <ele>1084.5</ele>
        <time>2015-07-16T08:37:59Z</time>
      </trkpt>
      <trkpt lat="46.444661663845181" lon="12.191379088908434">
        <ele>1086.9100000000001</ele>
        <time>2015-07-16T08:38:12Z</time>
      </trkpt>
      <trkpt lat="46.444672057405114" lon="12.191248666495085">
        <ele>1088.3499999999999</ele>
        <time>2015-07-16T08:38:23Z</time>
      </trkpt>
      <trkpt lat="46.44464205019176" lon="12.191108353435993">
        <ele>1089.3099999999999</ele>
        <time>2015-07-16T08:38:34Z</time>
      </trkpt>
      <trkpt lat="46.444635763764381" lon="12.190973069518805">
        <ele>1090.75</ele>
        <time>2015-07-16T08:38:45Z</time>
      </trkpt>
      <trkpt lat="46.444665687158704" lon="12.190824542194605">
        <ele>1093.1600000000001</ele>
        <time>2015-07-16T08:38:58Z</time>
      </trkpt>
      <trkpt lat="46.444658143445849" lon="12.190708536654711">
        <ele>1094.5999999999999</ele>
        <time>2015-07-16T08:39:09Z</time>
      </trkpt>
      <trkpt lat="46.444618748500943" lon="12.190579287707806">
        <ele>1096.52</ele>
        <time>2015-07-16T08:39:20Z</time>
      </trkpt>
      <trkpt lat="46.44458144903183" lon="12.190475603565574">
        <ele>1097.96</ele>
        <time>2015-07-16T08:39:32Z</time>
      </trkpt>
      <trkpt lat="46.444545825943351" lon="12.190376110374928">
        <ele>1099.4000000000001</ele>
        <time>2015-07-16T08:39:42Z</time>
      </trkpt>
      <trkpt lat="46.444522859528661" lon="12.190215513110161">
        <ele>1100.8499999999999</ele>
        <time>2015-07-16T08:39:54Z</time>
      </trkpt>
      <trkpt lat="46.444507101550698" lon="12.190110487863421">
        <ele>1102.77</ele>
        <time>2015-07-16T08:40:05Z</time>
      </trkpt>
      <trkpt lat="46.444474747404456" lon="12.189975874498487">
        <ele>1105.1700000000001</ele>
        <time>2015-07-16T08:40:18Z</time>
      </trkpt>
      <trkpt lat="46.444469382986426" lon="12.189866155385971">
        <ele>1107.0999999999999</ele>
        <time>2015-07-16T08:40:30Z</time>
      </trkpt>
      <trkpt lat="46.444492684677243" lon="12.189771272242069">
        <ele>1109.02</ele>
        <time>2015-07-16T08:40:41Z</time>
      </trkpt>
      <trkpt lat="46.444507436826825" lon="12.189726512879133">
        <ele>1109.5</ele>
        <time>2015-07-16T08:40:44Z</time>
      </trkpt>
      <trkpt lat="46.444574994966388" lon="12.189619727432728">
        <ele>1111.4200000000001</ele>
        <time>2015-07-16T08:40:56Z</time>
      </trkpt>
      <trkpt lat="46.444622101262212" lon="12.189506152644753">
        <ele>1112.8599999999999</ele>
        <time>2015-07-16T08:41:08Z</time>
      </trkpt>
      <trkpt lat="46.444616736844182" lon="12.189420657232404">
        <ele>1114.79</ele>
        <time>2015-07-16T08:41:19Z</time>
      </trkpt>
      <trkpt lat="46.444595782086253" lon="12.18938872218132">
        <ele>1115.27</ele>
        <time>2015-07-16T08:41:29Z</time>
      </trkpt>
      <trkpt lat="46.444502742961049" lon="12.189334407448769">
        <ele>1115.27</ele>
        <time>2015-07-16T08:41:41Z</time>
      </trkpt>
      <trkpt lat="46.444491762667894" lon="12.189248744398355">
        <ele>1119.1099999999999</ele>
        <time>2015-07-16T08:41:48Z</time>
      </trkpt>
      <trkpt lat="46.444491008296609" lon="12.189237428829074">
        <ele>1119.1099999999999</ele>
        <time>2015-07-16T08:41:49Z</time>
      </trkpt>
      <trkpt lat="46.444537108764052" lon="12.189148664474487">
        <ele>1121.03</ele>
        <time>2015-07-16T08:42:01Z</time>
      </trkpt>
      <trkpt lat="46.444629644975066" lon="12.18918152153492">
        <ele>1122</ele>
        <time>2015-07-16T08:42:10Z</time>
      </trkpt>
      <trkpt lat="46.444727880880237" lon="12.189148664474487">
        <ele>1124.4000000000001</ele>
        <time>2015-07-16T08:42:25Z</time>
      </trkpt>
      <trkpt lat="46.444808347150683" lon="12.189153945073485">
        <ele>1125.3599999999999</ele>
        <time>2015-07-16T08:42:35Z</time>
      </trkpt>
      <trkpt lat="46.444885795935988" lon="12.189147574827075">
        <ele>1126.8</ele>
        <time>2015-07-16T08:42:46Z</time>
      </trkpt>
      <trkpt lat="46.444961316883564" lon="12.189110945910215">
        <ele>1128.24</ele>
        <time>2015-07-16T08:42:58Z</time>
      </trkpt>
      <trkpt lat="46.445072880014777" lon="12.188954036682844">
        <ele>1130.6500000000001</ele>
        <time>2015-07-16T08:43:14Z</time>
      </trkpt>
      <trkpt lat="46.445063911378384" lon="12.188769215717912">
        <ele>1132.5699999999999</ele>
        <time>2015-07-16T08:43:29Z</time>
      </trkpt>
      <trkpt lat="46.444995012134314" lon="12.188704507425427">
        <ele>1134.49</ele>
        <time>2015-07-16T08:43:41Z</time>
      </trkpt>
      <trkpt lat="46.445001047104597" lon="12.18861373141408">
        <ele>1136.4200000000001</ele>
        <time>2015-07-16T08:43:52Z</time>
      </trkpt>
      <trkpt lat="46.444960478693247" lon="12.188500240445137">
        <ele>1137.8599999999999</ele>
        <time>2015-07-16T08:44:03Z</time>
      </trkpt>
      <trkpt lat="46.444930471479893" lon="12.188384654000401">
        <ele>1139.78</ele>
        <time>2015-07-16T08:44:16Z</time>
      </trkpt>
      <trkpt lat="46.444932231679559" lon="12.188261356204748">
        <ele>1142.1800000000001</ele>
        <time>2015-07-16T08:44:28Z</time>
      </trkpt>
      <trkpt lat="46.444917060434818" lon="12.188108637928963">
        <ele>1143.6300000000001</ele>
        <time>2015-07-16T08:44:40Z</time>
      </trkpt>
      <trkpt lat="46.444911612197757" lon="12.187996152788401">
        <ele>1145.55</ele>
        <time>2015-07-16T08:44:52Z</time>
      </trkpt>
      <trkpt lat="46.444912115111947" lon="12.187918033450842">
        <ele>1146.51</ele>
        <time>2015-07-16T08:44:58Z</time>
      </trkpt>
      <trkpt lat="46.444894764572382" lon="12.187870591878891">
        <ele>1148.4300000000001</ele>
        <time>2015-07-16T08:45:08Z</time>
      </trkpt>
      <trkpt lat="46.444826871156693" lon="12.187839327380061">
        <ele>1150.3499999999999</ele>
        <time>2015-07-16T08:45:21Z</time>
      </trkpt>
      <trkpt lat="46.444737687706947" lon="12.187758442014456">
        <ele>1152.28</ele>
        <time>2015-07-16T08:45:35Z</time>
      </trkpt>
      <trkpt lat="46.444688653573394" lon="12.187593318521976">
        <ele>1154.6800000000001</ele>
        <time>2015-07-16T08:45:50Z</time>
      </trkpt>
      <trkpt lat="46.444689324125648" lon="12.187489047646523">
        <ele>1158.53</ele>
        <time>2015-07-16T08:46:05Z</time>
      </trkpt>
      <trkpt lat="46.444731401279569" lon="12.187398606911302">
        <ele>1157.0799999999999</ele>
        <time>2015-07-16T08:46:15Z</time>
      </trkpt>
      <trkpt lat="46.444711200892925" lon="12.187401708215475">
        <ele>1157.0799999999999</ele>
        <time>2015-07-16T08:46:36Z</time>
      </trkpt>
      <trkpt lat="46.444744141772389" lon="12.187395002692938">
        <ele>1157.5599999999999</ele>
        <time>2015-07-16T08:47:00Z</time>
      </trkpt>
      <trkpt lat="46.444734586402774" lon="12.187342531979084">
        <ele>1157.5599999999999</ele>
        <time>2015-07-16T08:47:18Z</time>
      </trkpt>
      <trkpt lat="46.444737100973725" lon="12.187374215573072">
        <ele>1157.5599999999999</ele>
        <time>2015-07-16T08:47:41Z</time>
      </trkpt>
      <trkpt lat="46.444819830358028" lon="12.187397852540016">
        <ele>1157.5599999999999</ele>
        <time>2015-07-16T08:48:01Z</time>
      </trkpt>
      <trkpt lat="46.444803150370717" lon="12.187404641881585">
        <ele>1158.53</ele>
        <time>2015-07-16T08:48:09Z</time>
      </trkpt>
      <trkpt lat="46.444751936942339" lon="12.187307579442859">
        <ele>1159.49</ele>
        <time>2015-07-16T08:48:24Z</time>
      </trkpt>
      <trkpt lat="46.444743471220136" lon="12.187380753457546">
        <ele>1159.01</ele>
        <time>2015-07-16T08:48:42Z</time>
      </trkpt>
      <trkpt lat="46.444759145379066" lon="12.187438756227493">
        <ele>1159.01</ele>
        <time>2015-07-16T08:49:05Z</time>
      </trkpt>
      <trkpt lat="46.444761659950018" lon="12.187424506992102">
        <ele>1159.97</ele>
        <time>2015-07-16T08:49:24Z</time>
      </trkpt>
      <trkpt lat="46.444741375744343" lon="12.187351835891604">
        <ele>1159.97</ele>
        <time>2015-07-16T08:49:54Z</time>
      </trkpt>
      <trkpt lat="46.444736765697598" lon="12.187350494787097">
        <ele>1159.97</ele>
        <time>2015-07-16T08:50:19Z</time>
      </trkpt>
      <trkpt lat="46.444778507575393" lon="12.187340939417481">
        <ele>1159.97</ele>
        <time>2015-07-16T08:50:39Z</time>
      </trkpt>
      <trkpt lat="46.444741794839501" lon="12.187337083742023">
        <ele>1160.45</ele>
        <time>2015-07-16T08:51:01Z</time>
      </trkpt>
      <trkpt lat="46.444772472605109" lon="12.187386956065893">
        <ele>1160.9300000000001</ele>
        <time>2015-07-16T08:51:20Z</time>
      </trkpt>
      <trkpt lat="46.444821087643504" lon="12.187428697943687">
        <ele>1160.9300000000001</ele>
        <time>2015-07-16T08:51:50Z</time>
      </trkpt>
      <trkpt lat="46.444793175905943" lon="12.187469936907291">
        <ele>1161.4100000000001</ele>
        <time>2015-07-16T08:52:18Z</time>
      </trkpt>
      <trkpt lat="46.444825613871217" lon="12.187465578317642">
        <ele>1161.8900000000001</ele>
        <time>2015-07-16T08:52:40Z</time>
      </trkpt>
      <trkpt lat="46.444842712953687" lon="12.187348483130336">
        <ele>1162.3699999999999</ele>
        <time>2015-07-16T08:53:00Z</time>
      </trkpt>
      <trkpt lat="46.444764761254191" lon="12.187064923346043">
        <ele>1163.3299999999999</ele>
        <time>2015-07-16T08:53:13Z</time>
      </trkpt>
      <trkpt lat="46.444781692698598" lon="12.186904158443213">
        <ele>1164.29</ele>
        <time>2015-07-16T08:53:25Z</time>
      </trkpt>
      <trkpt lat="46.444848831743002" lon="12.186826039105654">
        <ele>1164.77</ele>
        <time>2015-07-16T08:53:38Z</time>
      </trkpt>
      <trkpt lat="46.444867271929979" lon="12.186796367168427">
        <ele>1165.26</ele>
        <time>2015-07-16T08:53:53Z</time>
      </trkpt>
      <trkpt lat="46.444844724610448" lon="12.186795696616173">
        <ele>1165.26</ele>
        <time>2015-07-16T08:54:05Z</time>
      </trkpt>
      <trkpt lat="46.444866852834821" lon="12.186769628897309">
        <ele>1165.74</ele>
        <time>2015-07-16T08:54:22Z</time>
      </trkpt>
      <trkpt lat="46.444772891700268" lon="12.186727384105325">
        <ele>1165.74</ele>
        <time>2015-07-16T08:54:37Z</time>
      </trkpt>
      <trkpt lat="46.444871462881565" lon="12.186733083799481">
        <ele>1166.22</ele>
        <time>2015-07-16T08:54:50Z</time>
      </trkpt>
      <trkpt lat="46.445030635222793" lon="12.186663933098316">
        <ele>1167.1800000000001</ele>
        <time>2015-07-16T08:55:06Z</time>
      </trkpt>
      <trkpt lat="46.445033401250839" lon="12.186496797949076">
        <ele>1168.1400000000001</ele>
        <time>2015-07-16T08:55:19Z</time>
      </trkpt>
      <trkpt lat="46.44499241374433" lon="12.186331925913692">
        <ele>1168.6199999999999</ele>
        <time>2015-07-16T08:55:31Z</time>
      </trkpt>
      <trkpt lat="46.444960981607437" lon="12.186181303113699">
        <ele>1169.5799999999999</ele>
        <time>2015-07-16T08:55:42Z</time>
      </trkpt>
      <trkpt lat="46.44490297883749" lon="12.186099495738745">
        <ele>1170.54</ele>
        <time>2015-07-16T08:55:53Z</time>
      </trkpt>
      <trkpt lat="46.444816812872887" lon="12.18605917878449">
        <ele>1171.5</ele>
        <time>2015-07-16T08:56:04Z</time>
      </trkpt>
      <trkpt lat="46.444810107350349" lon="12.18605674803257">
        <ele>1171.5</ele>
        <time>2015-07-16T08:56:05Z</time>
      </trkpt>
      <trkpt lat="46.444710111245513" lon="12.185952644795179">
        <ele>1172.47</ele>
        <time>2015-07-16T08:56:19Z</time>
      </trkpt>
      <trkpt lat="46.444615395739675" lon="12.185841081663966">
        <ele>1173.4300000000001</ele>
        <time>2015-07-16T08:56:32Z</time>
      </trkpt>
      <trkpt lat="46.444545993581414" lon="12.185660703107715">
        <ele>1174.3900000000001</ele>
        <time>2015-07-16T08:56:44Z</time>
      </trkpt>
      <trkpt lat="46.444528978317976" lon="12.185588702559471">
        <ele>1174.8699999999999</ele>
        <time>2015-07-16T08:56:50Z</time>
      </trkpt>
      <trkpt lat="46.444472568109632" lon="12.185313776135445">
        <ele>1175.3499999999999</ele>
        <time>2015-07-16T08:57:07Z</time>
      </trkpt>
      <trkpt lat="46.44441825337708" lon="12.185129793360829">
        <ele>1177.27</ele>
        <time>2015-07-16T08:57:19Z</time>
      </trkpt>
      <trkpt lat="46.444370141252875" lon="12.18499350361526">
        <ele>1178.23</ele>
        <time>2015-07-16T08:57:30Z</time>
      </trkpt>
      <trkpt lat="46.444318424910307" lon="12.184848412871361">
        <ele>1179.1900000000001</ele>
        <time>2015-07-16T08:57:40Z</time>
      </trkpt>
      <trkpt lat="46.444264948368073" lon="12.184672895818949">
        <ele>1180.1600000000001</ele>
        <time>2015-07-16T08:57:52Z</time>
      </trkpt>
      <trkpt lat="46.444259500131011" lon="12.184518584981561">
        <ele>1181.1199999999999</ele>
        <time>2015-07-16T08:58:02Z</time>
      </trkpt>
      <trkpt lat="46.444256398826838" lon="12.184360418468714">
        <ele>1181.5999999999999</ele>
        <time>2015-07-16T08:58:13Z</time>
      </trkpt>
      <trkpt lat="46.444223122671247" lon="12.184175262227654">
        <ele>1182.5599999999999</ele>
        <time>2015-07-16T08:58:24Z</time>
      </trkpt>
      <trkpt lat="46.444252291694283" lon="12.184049282222986">
        <ele>1183.52</ele>
        <time>2015-07-16T08:58:34Z</time>
      </trkpt>
      <trkpt lat="46.444300739094615" lon="12.183931181207299">
        <ele>1184.48</ele>
        <time>2015-07-16T08:58:46Z</time>
      </trkpt>
      <trkpt lat="46.4443239569664" lon="12.183761363849044">
        <ele>1185.4400000000001</ele>
        <time>2015-07-16T08:58:57Z</time>
      </trkpt>
      <trkpt lat="46.444303756579757" lon="12.183592217043042">
        <ele>1185.9200000000001</ele>
        <time>2015-07-16T08:59:06Z</time>
      </trkpt>
      <trkpt lat="46.444391096010804" lon="12.183453915640712">
        <ele>1186.8800000000001</ele>
        <time>2015-07-16T08:59:18Z</time>
      </trkpt>
      <trkpt lat="46.444505844265223" lon="12.183321313932538">
        <ele>1187.8499999999999</ele>
        <time>2015-07-16T08:59:31Z</time>
      </trkpt>
      <trkpt lat="46.444653449580073" lon="12.183261718600988">
        <ele>1189.29</ele>
        <time>2015-07-16T08:59:44Z</time>
      </trkpt>
      <trkpt lat="46.444765347987413" lon="12.183232884854078">
        <ele>1190.25</ele>
        <time>2015-07-16T08:59:55Z</time>
      </trkpt>
      <trkpt lat="46.444885963574052" lon="12.183162728324533">
        <ele>1190.73</ele>
        <time>2015-07-16T09:00:06Z</time>
      </trkpt>
      <trkpt lat="46.444986630231142" lon="12.183095840737224">
        <ele>1192.1700000000001</ele>
        <time>2015-07-16T09:00:18Z</time>
      </trkpt>
      <trkpt lat="46.445119567215443" lon="12.183062983676791">
        <ele>1193.1300000000001</ele>
        <time>2015-07-16T09:00:31Z</time>
      </trkpt>
      <trkpt lat="46.445193747058511" lon="12.182953348383307">
        <ele>1194.5799999999999</ele>
        <time>2015-07-16T09:00:43Z</time>
      </trkpt>
      <trkpt lat="46.445248480886221" lon="12.182790404185653">
        <ele>1196.02</ele>
        <time>2015-07-16T09:00:56Z</time>
      </trkpt>
      <trkpt lat="46.4452582038939" lon="12.18265101313591">
        <ele>1196.98</ele>
        <time>2015-07-16T09:01:07Z</time>
      </trkpt>
      <trkpt lat="46.44525627605617" lon="12.182572055608034">
        <ele>1197.46</ele>
        <time>2015-07-16T09:01:14Z</time>
      </trkpt>
      <trkpt lat="46.445231046527624" lon="12.182435346767306">
        <ele>1198.4200000000001</ele>
        <time>2015-07-16T09:01:25Z</time>
      </trkpt>
      <trkpt lat="46.445226520299911" lon="12.182303247973323">
        <ele>1199.3800000000001</ele>
        <time>2015-07-16T09:01:36Z</time>
      </trkpt>
      <trkpt lat="46.445257952436805" lon="12.182136364281178">
        <ele>1200.3399999999999</ele>
        <time>2015-07-16T09:01:47Z</time>
      </trkpt>
      <trkpt lat="46.445304891094565" lon="12.181949196383357">
        <ele>1201.3</ele>
        <time>2015-07-16T09:02:00Z</time>
      </trkpt>
      <trkpt lat="46.445322493091226" lon="12.181818354874849">
        <ele>1202.27</ele>
        <time>2015-07-16T09:02:09Z</time>
      </trkpt>
      <trkpt lat="46.445322996005416" lon="12.181596988812089">
        <ele>1203.23</ele>
        <time>2015-07-16T09:02:23Z</time>
      </trkpt>
      <trkpt lat="46.445352584123611" lon="12.181406719610095">
        <ele>1204.1900000000001</ele>
        <time>2015-07-16T09:02:36Z</time>
      </trkpt>
      <trkpt lat="46.445384686812758" lon="12.181247547268867">
        <ele>1205.1500000000001</ele>
        <time>2015-07-16T09:02:47Z</time>
      </trkpt>
      <trkpt lat="46.445497423410416" lon="12.181127686053514">
        <ele>1206.5899999999999</ele>
        <time>2015-07-16T09:03:01Z</time>
      </trkpt>
      <trkpt lat="46.445655841380358" lon="12.180959209799767">
        <ele>1208.03</ele>
        <time>2015-07-16T09:03:17Z</time>
      </trkpt>
      <trkpt lat="46.445731865242124" lon="12.18079324811697">
        <ele>1209</ele>
        <time>2015-07-16T09:03:31Z</time>
      </trkpt>
      <trkpt lat="46.445788107812405" lon="12.180681265890598">
        <ele>1210.4400000000001</ele>
        <time>2015-07-16T09:03:42Z</time>
      </trkpt>
      <trkpt lat="46.445840494707227" lon="12.180563164874911">
        <ele>1211.4000000000001</ele>
        <time>2015-07-16T09:03:55Z</time>
      </trkpt>
      <trkpt lat="46.445954656228423" lon="12.180405501276255">
        <ele>1212.8399999999999</ele>
        <time>2015-07-16T09:04:09Z</time>
      </trkpt>
      <trkpt lat="46.446116678416729" lon="12.180318832397461">
        <ele>1214.28</ele>
        <time>2015-07-16T09:04:25Z</time>
      </trkpt>
      <trkpt lat="46.446147440001369" lon="12.180191595107317">
        <ele>1215.72</ele>
        <time>2015-07-16T09:04:38Z</time>
      </trkpt>
      <trkpt lat="46.446099998429418" lon="12.180174076929688">
        <ele>1216.6900000000001</ele>
        <time>2015-07-16T09:04:44Z</time>
      </trkpt>
      <trkpt lat="46.445989022031426" lon="12.180235097184777">
        <ele>1217.6500000000001</ele>
        <time>2015-07-16T09:04:54Z</time>
      </trkpt>
      <trkpt lat="46.445895060896873" lon="12.180351773276925">
        <ele>1219.0899999999999</ele>
        <time>2015-07-16T09:05:06Z</time>
      </trkpt>
      <trkpt lat="46.445836806669831" lon="12.180407093837857">
        <ele>1219.5699999999999</ele>
        <time>2015-07-16T09:05:13Z</time>
      </trkpt>
      <trkpt lat="46.445820881053805" lon="12.18043408356607">
        <ele>1220.05</ele>
        <time>2015-07-16T09:05:15Z</time>
      </trkpt>
      <trkpt lat="46.445765644311905" lon="12.180496780201793">
        <ele>1220.53</ele>
        <time>2015-07-16T09:05:21Z</time>
      </trkpt>
      <trkpt lat="46.445645028725266" lon="12.180533912032843">
        <ele>1221.97</ele>
        <time>2015-07-16T09:05:34Z</time>
      </trkpt>
      <trkpt lat="46.44551913253963" lon="12.180597949773073">
        <ele>1222.9300000000001</ele>
        <time>2015-07-16T09:05:48Z</time>
      </trkpt>
      <trkpt lat="46.445360463112593" lon="12.180648660287261">
        <ele>1223.9000000000001</ele>
        <time>2015-07-16T09:06:01Z</time>
      </trkpt>
      <trkpt lat="46.445236075669527" lon="12.180694928392768">
        <ele>1224.8599999999999</ele>
        <time>2015-07-16T09:06:12Z</time>
      </trkpt>
      <trkpt lat="46.445109425112605" lon="12.180737759917974">
        <ele>1226.3</ele>
        <time>2015-07-16T09:06:25Z</time>
      </trkpt>
      <trkpt lat="46.444961568340659" lon="12.180870026350021">
        <ele>1226.3</ele>
        <time>2015-07-16T09:06:38Z</time>
      </trkpt>
      <trkpt lat="46.444879006594419" lon="12.181034563109279">
        <ele>1227.26</ele>
        <time>2015-07-16T09:06:52Z</time>
      </trkpt>
      <trkpt lat="46.444775322452188" lon="12.181167416274548">
        <ele>1228.7</ele>
        <time>2015-07-16T09:07:06Z</time>
      </trkpt>
      <trkpt lat="46.444623107090592" lon="12.181295156478882">
        <ele>1229.6600000000001</ele>
        <time>2015-07-16T09:07:20Z</time>
      </trkpt>
      <trkpt lat="46.444477345794439" lon="12.18144896440208">
        <ele>1230.6199999999999</ele>
        <time>2015-07-16T09:07:35Z</time>
      </trkpt>
      <trkpt lat="46.444356981664896" lon="12.181569915264845">
        <ele>1231.5899999999999</ele>
        <time>2015-07-16T09:07:48Z</time>
      </trkpt>
      <trkpt lat="46.444250615313649" lon="12.181711820885539">
        <ele>1232.55</ele>
        <time>2015-07-16T09:08:01Z</time>
      </trkpt>
      <trkpt lat="46.44417786039412" lon="12.181860767304897">
        <ele>1233.51</ele>
        <time>2015-07-16T09:08:15Z</time>
      </trkpt>
      <trkpt lat="46.444088676944375" lon="12.181999906897545">
        <ele>1234.95</ele>
        <time>2015-07-16T09:08:28Z</time>
      </trkpt>
      <trkpt lat="46.444004019722342" lon="12.182131083682179">
        <ele>1236.3900000000001</ele>
        <time>2015-07-16T09:08:41Z</time>
      </trkpt>
      <trkpt lat="46.443945849314332" lon="12.182299392297864">
        <ele>1237.3499999999999</ele>
        <time>2015-07-16T09:08:54Z</time>
      </trkpt>
      <trkpt lat="46.443893378600478" lon="12.182406932115555">
        <ele>1238.8</ele>
        <time>2015-07-16T09:09:05Z</time>
      </trkpt>
      <trkpt lat="46.443882901221514" lon="12.18241648748517">
        <ele>1238.8</ele>
        <time>2015-07-16T09:09:06Z</time>
      </trkpt>
      <trkpt lat="46.443839063867927" lon="12.182427551597357">
        <ele>1239.28</ele>
        <time>2015-07-16T09:09:10Z</time>
      </trkpt>
      <trkpt lat="46.443721633404493" lon="12.182280113920569">
        <ele>1239.76</ele>
        <time>2015-07-16T09:09:24Z</time>
      </trkpt>
      <trkpt lat="46.443686932325363" lon="12.182188248261809">
        <ele>1240.72</ele>
        <time>2015-07-16T09:09:31Z</time>
      </trkpt>
      <trkpt lat="46.443598000332713" lon="12.182041229680181">
        <ele>1241.6800000000001</ele>
        <time>2015-07-16T09:09:42Z</time>
      </trkpt>
      <trkpt lat="46.443533794954419" lon="12.181931007653475">
        <ele>1242.1600000000001</ele>
        <time>2015-07-16T09:09:53Z</time>
      </trkpt>
      <trkpt lat="46.443481827154756" lon="12.181775607168674">
        <ele>1243.5999999999999</ele>
        <time>2015-07-16T09:10:05Z</time>
      </trkpt>
      <trkpt lat="46.44343170337379" lon="12.181663122028112">
        <ele>1244.5599999999999</ele>
        <time>2015-07-16T09:10:16Z</time>
      </trkpt>
      <trkpt lat="46.44335207529366" lon="12.181542087346315">
        <ele>1245.53</ele>
        <time>2015-07-16T09:10:27Z</time>
      </trkpt>
      <trkpt lat="46.443188795819879" lon="12.18142356723547">
        <ele>1246.01</ele>
        <time>2015-07-16T09:10:39Z</time>
      </trkpt>
      <trkpt lat="46.443170355632901" lon="12.181408312171698">
        <ele>1246.49</ele>
        <time>2015-07-16T09:10:42Z</time>
      </trkpt>
      <trkpt lat="46.443097181618214" lon="12.181326253339648">
        <ele>1247.45</ele>
        <time>2015-07-16T09:10:53Z</time>
      </trkpt>
      <trkpt lat="46.443007830530405" lon="12.181227011606097">
        <ele>1249.3699999999999</ele>
        <time>2015-07-16T09:11:06Z</time>
      </trkpt>
      <trkpt lat="46.442935662344098" lon="12.181137660518289">
        <ele>1250.8099999999999</ele>
        <time>2015-07-16T09:11:16Z</time>
      </trkpt>
      <trkpt lat="46.442887466400862" lon="12.181078651919961">
        <ele>1252.25</ele>
        <time>2015-07-16T09:11:26Z</time>
      </trkpt>
      <trkpt lat="46.442878916859627" lon="12.181069348007441">
        <ele>1252.74</ele>
        <time>2015-07-16T09:11:28Z</time>
      </trkpt>
      <trkpt lat="46.44280725158751" lon="12.181016458198428">
        <ele>1254.1800000000001</ele>
        <time>2015-07-16T09:11:38Z</time>
      </trkpt>
      <trkpt lat="46.442729467526078" lon="12.18095644377172">
        <ele>1256.0999999999999</ele>
        <time>2015-07-16T09:11:49Z</time>
      </trkpt>
      <trkpt lat="46.442618910223246" lon="12.18088218010962">
        <ele>1258.5</ele>
        <time>2015-07-16T09:12:03Z</time>
      </trkpt>
      <trkpt lat="46.442544395104051" lon="12.180877402424812">
        <ele>1260.4300000000001</ele>
        <time>2015-07-16T09:12:15Z</time>
      </trkpt>
      <trkpt lat="46.442479183897376" lon="12.180931717157364">
        <ele>1263.3099999999999</ele>
        <time>2015-07-16T09:12:29Z</time>
      </trkpt>
      <trkpt lat="46.442440710961819" lon="12.181020397692919">
        <ele>1265.71</ele>
        <time>2015-07-16T09:12:44Z</time>
      </trkpt>
      <trkpt lat="46.442408859729767" lon="12.181122405454516">
        <ele>1267.6400000000001</ele>
        <time>2015-07-16T09:12:55Z</time>
      </trkpt>
      <trkpt lat="46.442392515018582" lon="12.181233717128634">
        <ele>1269.5599999999999</ele>
        <time>2015-07-16T09:13:09Z</time>
      </trkpt>
      <trkpt lat="46.442386899143457" lon="12.181248385459185">
        <ele>1270.04</ele>
        <time>2015-07-16T09:13:11Z</time>
      </trkpt>
      <trkpt lat="46.442367453128099" lon="12.181337988004088">
        <ele>1272.4400000000001</ele>
        <time>2015-07-16T09:13:26Z</time>
      </trkpt>
      <trkpt lat="46.442320179194212" lon="12.181458938866854">
        <ele>1274.3599999999999</ele>
        <time>2015-07-16T09:13:39Z</time>
      </trkpt>
      <trkpt lat="46.442311545833945" lon="12.181625487282872">
        <ele>1275.8099999999999</ele>
        <time>2015-07-16T09:13:51Z</time>
      </trkpt>
      <trkpt lat="46.442266199737787" lon="12.18176462687552">
        <ele>1277.25</ele>
        <time>2015-07-16T09:14:03Z</time>
      </trkpt>
      <trkpt lat="46.442166287451982" lon="12.181856241077185">
        <ele>1279.1700000000001</ele>
        <time>2015-07-16T09:14:15Z</time>
      </trkpt>
      <trkpt lat="46.442066291347146" lon="12.181900916621089">
        <ele>1281.0899999999999</ele>
        <time>2015-07-16T09:14:28Z</time>
      </trkpt>
      <trkpt lat="46.441970570012927" lon="12.181883733719587">
        <ele>1282.54</ele>
        <time>2015-07-16T09:14:40Z</time>
      </trkpt>
      <trkpt lat="46.441963948309422" lon="12.181882811710238">
        <ele>1283.02</ele>
        <time>2015-07-16T09:14:41Z</time>
      </trkpt>
      <trkpt lat="46.441829837858677" lon="12.181841321289539">
        <ele>1284.9400000000001</ele>
        <time>2015-07-16T09:14:54Z</time>
      </trkpt>
      <trkpt lat="46.441760687157512" lon="12.181824306026101">
        <ele>1286.3800000000001</ele>
        <time>2015-07-16T09:15:06Z</time>
      </trkpt>
      <trkpt lat="46.441697990521789" lon="12.181798322126269">
        <ele>1288.3</ele>
        <time>2015-07-16T09:15:20Z</time>
      </trkpt>
      <trkpt lat="46.441585421562195" lon="12.181758088991046">
        <ele>1290.23</ele>
        <time>2015-07-16T09:15:34Z</time>
      </trkpt>
      <trkpt lat="46.441476875916123" lon="12.18165909871459">
        <ele>1292.6300000000001</ele>
        <time>2015-07-16T09:15:47Z</time>
      </trkpt>
      <trkpt lat="46.44140194170177" lon="12.181525407359004">
        <ele>1295.03</ele>
        <time>2015-07-16T09:16:00Z</time>
      </trkpt>
      <trkpt lat="46.441365899518132" lon="12.181416358798742">
        <ele>1296.96</ele>
        <time>2015-07-16T09:16:11Z</time>
      </trkpt>
      <trkpt lat="46.441348465159535" lon="12.181319380179048">
        <ele>1298.8800000000001</ele>
        <time>2015-07-16T09:16:22Z</time>
      </trkpt>
      <trkpt lat="46.441307980567217" lon="12.181221311911941">
        <ele>1300.8</ele>
        <time>2015-07-16T09:16:35Z</time>
      </trkpt>
      <trkpt lat="46.441274285316467" lon="12.181118801236153">
        <ele>1302.72</ele>
        <time>2015-07-16T09:16:48Z</time>
      </trkpt>
      <trkpt lat="46.441218378022313" lon="12.18099013902247">
        <ele>1304.6500000000001</ele>
        <time>2015-07-16T09:17:00Z</time>
      </trkpt>
      <trkpt lat="46.44115911796689" lon="12.180899195373058">
        <ele>1306.5699999999999</ele>
        <time>2015-07-16T09:17:12Z</time>
      </trkpt>
      <trkpt lat="46.441106228157878" lon="12.180801462382078">
        <ele>1308.49</ele>
        <time>2015-07-16T09:17:25Z</time>
      </trkpt>
      <trkpt lat="46.441052416339517" lon="12.180708590894938">
        <ele>1308.97</ele>
        <time>2015-07-16T09:17:35Z</time>
      </trkpt>
      <trkpt lat="46.440981673076749" lon="12.180588226765394">
        <ele>1309.45</ele>
        <time>2015-07-16T09:17:44Z</time>
      </trkpt>
      <trkpt lat="46.440972788259387" lon="12.180585209280252">
        <ele>1309.9300000000001</ele>
        <time>2015-07-16T09:17:46Z</time>
      </trkpt>
      <trkpt lat="46.440978907048702" lon="12.180570038035512">
        <ele>1309.45</ele>
        <time>2015-07-16T09:17:49Z</time>
      </trkpt>
      <trkpt lat="46.441027773544192" lon="12.180597363039851">
        <ele>1308.97</ele>
        <time>2015-07-16T09:18:03Z</time>
      </trkpt>
      <trkpt lat="46.440993156284094" lon="12.18056601472199">
        <ele>1308.97</ele>
        <time>2015-07-16T09:18:25Z</time>
      </trkpt>
      <trkpt lat="46.440939679741859" lon="12.180502898991108">
        <ele>1309.9300000000001</ele>
        <time>2015-07-16T09:18:39Z</time>
      </trkpt>
      <trkpt lat="46.440978655591607" lon="12.18054941855371">
        <ele>1309.45</ele>
        <time>2015-07-16T09:18:50Z</time>
      </trkpt>
      <trkpt lat="46.441002963110805" lon="12.180615467950702">
        <ele>1309.45</ele>
        <time>2015-07-16T09:19:13Z</time>
      </trkpt>
      <trkpt lat="46.441019978374243" lon="12.180557884275913">
        <ele>1310.4100000000001</ele>
        <time>2015-07-16T09:19:27Z</time>
      </trkpt>
      <trkpt lat="46.440924592316151" lon="12.180490745231509">
        <ele>1310.4100000000001</ele>
        <time>2015-07-16T09:19:43Z</time>
      </trkpt>
      <trkpt lat="46.440945630893111" lon="12.180521255359054">
        <ele>1309.9300000000001</ele>
        <time>2015-07-16T09:20:03Z</time>
      </trkpt>
      <trkpt lat="46.440982008352876" lon="12.180602308362722">
        <ele>1309.9300000000001</ele>
        <time>2015-07-16T09:20:31Z</time>
      </trkpt>
      <trkpt lat="46.440975554287434" lon="12.18055821955204">
        <ele>1310.4100000000001</ele>
        <time>2015-07-16T09:20:46Z</time>
      </trkpt>
      <trkpt lat="46.441008495166898" lon="12.180582359433174">
        <ele>1310.4100000000001</ele>
        <time>2015-07-16T09:21:11Z</time>
      </trkpt>
      <trkpt lat="46.441032802686095" lon="12.180651510134339">
        <ele>1310.4100000000001</ele>
        <time>2015-07-16T09:21:29Z</time>
      </trkpt>
      <trkpt lat="46.441026516258717" lon="12.180668441578746">
        <ele>1310.9000000000001</ele>
        <time>2015-07-16T09:21:53Z</time>
      </trkpt>
      <trkpt lat="46.440996676683426" lon="12.180667519569397">
        <ele>1310.9000000000001</ele>
        <time>2015-07-16T09:22:14Z</time>
      </trkpt>
      <trkpt lat="46.441063564270735" lon="12.180621335282922">
        <ele>1311.3800000000001</ele>
        <time>2015-07-16T09:22:46Z</time>
      </trkpt>
      <trkpt lat="46.44103012047708" lon="12.180582610890269">
        <ele>1311.3800000000001</ele>
        <time>2015-07-16T09:23:09Z</time>
      </trkpt>
      <trkpt lat="46.441019894555211" lon="12.180558135733008">
        <ele>1311.8599999999999</ele>
        <time>2015-07-16T09:23:36Z</time>
      </trkpt>
      <trkpt lat="46.441023079678416" lon="12.180671626701951">
        <ele>1311.8599999999999</ele>
        <time>2015-07-16T09:23:57Z</time>
      </trkpt>
      <trkpt lat="46.44100715406239" lon="12.180683864280581">
        <ele>1312.3399999999999</ele>
        <time>2015-07-16T09:24:22Z</time>
      </trkpt>
      <trkpt lat="46.440981589257717" lon="12.180676572024822">
        <ele>1312.3399999999999</ele>
        <time>2015-07-16T09:24:48Z</time>
      </trkpt>
      <trkpt lat="46.440984774380922" lon="12.180629633367062">
        <ele>1312.8199999999999</ele>
        <time>2015-07-16T09:25:17Z</time>
      </trkpt>
      <trkpt lat="46.441043531522155" lon="12.180702975019813">
        <ele>1312.8199999999999</ele>
        <time>2015-07-16T09:25:39Z</time>
      </trkpt>
      <trkpt lat="46.441008327528834" lon="12.180699873715639">
        <ele>1313.3</ele>
        <time>2015-07-16T09:26:10Z</time>
      </trkpt>
      <trkpt lat="46.440971028059721" lon="12.180698029696941">
        <ele>1313.3</ele>
        <time>2015-07-16T09:26:36Z</time>
      </trkpt>
      <trkpt lat="46.4410032145679" lon="12.180719990283251">
        <ele>1313.78</ele>
        <time>2015-07-16T09:27:04Z</time>
      </trkpt>
      <trkpt lat="46.440993240103126" lon="12.18070138245821">
        <ele>1314.26</ele>
        <time>2015-07-16T09:27:26Z</time>
      </trkpt>
      <trkpt lat="46.440990557894111" lon="12.180642206221819">
        <ele>1314.26</ele>
        <time>2015-07-16T09:27:49Z</time>
      </trkpt>
      <trkpt lat="46.440973794087768" lon="12.180594094097614">
        <ele>1314.26</ele>
        <time>2015-07-16T09:28:11Z</time>
      </trkpt>
      <trkpt lat="46.440984439104795" lon="12.180615970864892">
        <ele>1314.74</ele>
        <time>2015-07-16T09:28:34Z</time>
      </trkpt>
      <trkpt lat="46.440993156284094" lon="12.180584203451872">
        <ele>1314.74</ele>
        <time>2015-07-16T09:28:58Z</time>
      </trkpt>
      <trkpt lat="46.440979242324829" lon="12.180534414947033">
        <ele>1315.7</ele>
        <time>2015-07-16T09:29:22Z</time>
      </trkpt>
      <trkpt lat="46.4409548509866" lon="12.180507509037852">
        <ele>1315.7</ele>
        <time>2015-07-16T09:29:42Z</time>
      </trkpt>
      <trkpt lat="46.4409582875669" lon="12.180576575919986">
        <ele>1315.7</ele>
        <time>2015-07-16T09:30:02Z</time>
      </trkpt>
      <trkpt lat="46.440938170999289" lon="12.180629214271903">
        <ele>1315.7</ele>
        <time>2015-07-16T09:30:26Z</time>
      </trkpt>
      <trkpt lat="46.440966166555882" lon="12.180591663345695">
        <ele>1316.1800000000001</ele>
        <time>2015-07-16T09:30:49Z</time>
      </trkpt>
      <trkpt lat="46.440992821007967" lon="12.180651929229498">
        <ele>1316.1800000000001</ele>
        <time>2015-07-16T09:31:15Z</time>
      </trkpt>
      <trkpt lat="46.440986534580588" lon="12.180527877062559">
        <ele>1316.6600000000001</ele>
        <time>2015-07-16T09:31:35Z</time>
      </trkpt>
      <trkpt lat="46.440968681126833" lon="12.180568194016814">
        <ele>1316.6600000000001</ele>
        <time>2015-07-16T09:31:58Z</time>
      </trkpt>
      <trkpt lat="46.440976727753878" lon="12.180616306141019">
        <ele>1317.1400000000001</ele>
        <time>2015-07-16T09:32:26Z</time>
      </trkpt>
      <trkpt lat="46.440957700833678" lon="12.180593172088265">
        <ele>1317.1400000000001</ele>
        <time>2015-07-16T09:32:45Z</time>
      </trkpt>
      <trkpt lat="46.440983014181256" lon="12.180559057742357">
        <ele>1317.1400000000001</ele>
        <time>2015-07-16T09:33:06Z</time>
      </trkpt>
      <trkpt lat="46.440974632278085" lon="12.180529804900289">
        <ele>1317.1400000000001</ele>
        <time>2015-07-16T09:33:27Z</time>
      </trkpt>
      <trkpt lat="46.440980583429337" lon="12.18051471747458">
        <ele>1317.6199999999999</ele>
        <time>2015-07-16T09:33:51Z</time>
      </trkpt>
      <trkpt lat="46.440959041938186" lon="12.180506503209472">
        <ele>1318.5899999999999</ele>
        <time>2015-07-16T09:33:58Z</time>
      </trkpt>
      <trkpt lat="46.440955605357885" lon="12.180564003065228">
        <ele>1318.0999999999999</ele>
        <time>2015-07-16T09:34:11Z</time>
      </trkpt>
      <trkpt lat="46.44094604998827" lon="12.180527290329337">
        <ele>1318.5899999999999</ele>
        <time>2015-07-16T09:34:30Z</time>
      </trkpt>
      <trkpt lat="46.440949654206634" lon="12.180590070784092">
        <ele>1318.5899999999999</ele>
        <time>2015-07-16T09:34:41Z</time>
      </trkpt>
      <trkpt lat="46.440971195697784" lon="12.180576492100954">
        <ele>1318.5899999999999</ele>
        <time>2015-07-16T09:34:57Z</time>
      </trkpt>
      <trkpt lat="46.440969184041023" lon="12.180557800456882">
        <ele>1318.5899999999999</ele>
        <time>2015-07-16T09:35:13Z</time>
      </trkpt>
      <trkpt lat="46.440964238718152" lon="12.180550005286932">
        <ele>1318.5899999999999</ele>
        <time>2015-07-16T09:35:26Z</time>
      </trkpt>
      <trkpt lat="46.440961137413979" lon="12.1805430483073">
        <ele>1319.0699999999999</ele>
        <time>2015-07-16T09:35:39Z</time>
      </trkpt>
      <trkpt lat="46.440970860421658" lon="12.18045998364687">
        <ele>1319.0699999999999</ele>
        <time>2015-07-16T09:35:50Z</time>
      </trkpt>
      <trkpt lat="46.440992821007967" lon="12.180323861539364">
        <ele>1320.03</ele>
        <time>2015-07-16T09:36:01Z</time>
      </trkpt>
      <trkpt lat="46.441005058586597" lon="12.180284969508648">
        <ele>1320.51</ele>
        <time>2015-07-16T09:36:04Z</time>
      </trkpt>
      <trkpt lat="46.441011177375913" lon="12.180257393047214">
        <ele>1320.51</ele>
        <time>2015-07-16T09:36:06Z</time>
      </trkpt>
      <trkpt lat="46.441013272851706" lon="12.180168125778437">
        <ele>1320.99</ele>
        <time>2015-07-16T09:36:12Z</time>
      </trkpt>
      <trkpt lat="46.441063983365893" lon="12.180034602060914">
        <ele>1320.99</ele>
        <time>2015-07-16T09:36:23Z</time>
      </trkpt>
      <trkpt lat="46.441103210672736" lon="12.17998456209898">
        <ele>1322.4300000000001</ele>
        <time>2015-07-16T09:36:28Z</time>
      </trkpt>
      <trkpt lat="46.441137744113803" lon="12.179848942905664">
        <ele>1323.8699999999999</ele>
        <time>2015-07-16T09:36:41Z</time>
      </trkpt>
      <trkpt lat="46.441153082996607" lon="12.179737463593483">
        <ele>1325.3099999999999</ele>
        <time>2015-07-16T09:36:51Z</time>
      </trkpt>
      <trkpt lat="46.441132379695773" lon="12.179618859663606">
        <ele>1326.28</ele>
        <time>2015-07-16T09:37:01Z</time>
      </trkpt>
      <trkpt lat="46.441116705536842" lon="12.179490281268954">
        <ele>1328.2</ele>
        <time>2015-07-16T09:37:13Z</time>
      </trkpt>
      <trkpt lat="46.4410809148103" lon="12.179379304870963">
        <ele>1329.6400000000001</ele>
        <time>2015-07-16T09:37:25Z</time>
      </trkpt>
      <trkpt lat="46.44102718681097" lon="12.179282577708364">
        <ele>1331.0799999999999</ele>
        <time>2015-07-16T09:37:37Z</time>
      </trkpt>
      <trkpt lat="46.440993240103126" lon="12.179152239114046">
        <ele>1333.01</ele>
        <time>2015-07-16T09:37:51Z</time>
      </trkpt>
      <trkpt lat="46.440967004746199" lon="12.179062636569142">
        <ele>1334.45</ele>
        <time>2015-07-16T09:38:01Z</time>
      </trkpt>
      <trkpt lat="46.440921574831009" lon="12.178911762312055">
        <ele>1336.8499999999999</ele>
        <time>2015-07-16T09:38:15Z</time>
      </trkpt>
      <trkpt lat="46.440874552354217" lon="12.17881822027266">
        <ele>1337.8099999999999</ele>
        <time>2015-07-16T09:38:27Z</time>
      </trkpt>
      <trkpt lat="46.440748991444707" lon="12.178701795637608">
        <ele>1338.29</ele>
        <time>2015-07-16T09:38:40Z</time>
      </trkpt>
      <trkpt lat="46.440637679770589" lon="12.178630046546459">
        <ele>1339.25</ele>
        <time>2015-07-16T09:38:53Z</time>
      </trkpt>
      <trkpt lat="46.440541706979275" lon="12.17857925221324">
        <ele>1341.1800000000001</ele>
        <time>2015-07-16T09:39:07Z</time>
      </trkpt>
      <trkpt lat="46.440455876290798" lon="12.178487470373511">
        <ele>1342.6199999999999</ele>
        <time>2015-07-16T09:39:19Z</time>
      </trkpt>
      <trkpt lat="46.44035822711885" lon="12.178394263610244">
        <ele>1344.54</ele>
        <time>2015-07-16T09:39:33Z</time>
      </trkpt>
      <trkpt lat="46.440273066982627" lon="12.178264930844307">
        <ele>1346.9400000000001</ele>
        <time>2015-07-16T09:39:48Z</time>
      </trkpt>
      <trkpt lat="46.440231492742896" lon="12.178195444867015">
        <ele>1348.3900000000001</ele>
        <time>2015-07-16T09:39:58Z</time>
      </trkpt>
      <trkpt lat="46.44018723629415" lon="12.178105590865016">
        <ele>1349.8299999999999</ele>
        <time>2015-07-16T09:40:08Z</time>
      </trkpt>
      <trkpt lat="46.440100902691483" lon="12.177987573668361">
        <ele>1352.23</ele>
        <time>2015-07-16T09:40:22Z</time>
      </trkpt>
      <trkpt lat="46.44001230597496" lon="12.177913058549166">
        <ele>1355.5999999999999</ele>
        <time>2015-07-16T09:40:36Z</time>
      </trkpt>
      <trkpt lat="46.439894204959273" lon="12.177788084372878">
        <ele>1355.5999999999999</ele>
        <time>2015-07-16T09:40:50Z</time>
      </trkpt>
      <trkpt lat="46.439834693446755" lon="12.177660260349512">
        <ele>1357.04</ele>
        <time>2015-07-16T09:41:02Z</time>
      </trkpt>
      <trkpt lat="46.43973327241838" lon="12.177523216232657">
        <ele>1358.48</ele>
        <time>2015-07-16T09:41:15Z</time>
      </trkpt>
      <trkpt lat="46.439647190272808" lon="12.177362954244018">
        <ele>1359.9200000000001</ele>
        <time>2015-07-16T09:41:30Z</time>
      </trkpt>
      <trkpt lat="46.439571669325233" lon="12.177248373627663">
        <ele>1361.3599999999999</ele>
        <time>2015-07-16T09:41:43Z</time>
      </trkpt>
      <trkpt lat="46.439512912184" lon="12.177158603444695">
        <ele>1362.8099999999999</ele>
        <time>2015-07-16T09:41:53Z</time>
      </trkpt>
      <trkpt lat="46.439472176134586" lon="12.177091548219323">
        <ele>1363.29</ele>
        <time>2015-07-16T09:42:00Z</time>
      </trkpt>
      <trkpt lat="46.439379472285509" lon="12.176969340071082">
        <ele>1364.25</ele>
        <time>2015-07-16T09:42:11Z</time>
      </trkpt>
      <trkpt lat="46.439309483394027" lon="12.176885604858398">
        <ele>1365.21</ele>
        <time>2015-07-16T09:42:22Z</time>
      </trkpt>
      <trkpt lat="46.439224574714899" lon="12.176811089739203">
        <ele>1366.1700000000001</ele>
        <time>2015-07-16T09:42:33Z</time>
      </trkpt>
      <trkpt lat="46.439168080687523" lon="12.176726600155234">
        <ele>1368.0899999999999</ele>
        <time>2015-07-16T09:42:43Z</time>
      </trkpt>
      <trkpt lat="46.439060540869832" lon="12.176655689254403">
        <ele>1370.5</ele>
        <time>2015-07-16T09:42:56Z</time>
      </trkpt>
      <trkpt lat="46.438993904739618" lon="12.176568014547229">
        <ele>1370.5</ele>
        <time>2015-07-16T09:43:08Z</time>
      </trkpt>
      <trkpt lat="46.438969513401389" lon="12.176545467227697">
        <ele>1372.4200000000001</ele>
        <time>2015-07-16T09:43:12Z</time>
      </trkpt>
      <trkpt lat="46.438880832865834" lon="12.176493834704161">
        <ele>1372.4200000000001</ele>
        <time>2015-07-16T09:43:24Z</time>
      </trkpt>
      <trkpt lat="46.438819309696555" lon="12.176413033157587">
        <ele>1374.3399999999999</ele>
        <time>2015-07-16T09:43:36Z</time>
      </trkpt>
      <trkpt lat="46.438703052699566" lon="12.176323849707842">
        <ele>1376.26</ele>
        <time>2015-07-16T09:43:49Z</time>
      </trkpt>
      <trkpt lat="46.438630800694227" lon="12.176282778382301">
        <ele>1377.23</ele>
        <time>2015-07-16T09:43:59Z</time>
      </trkpt>
      <trkpt lat="46.438536420464516" lon="12.176231648772955">
        <ele>1378.6700000000001</ele>
        <time>2015-07-16T09:44:11Z</time>
      </trkpt>
      <trkpt lat="46.438472885638475" lon="12.176180519163609">
        <ele>1379.6300000000001</ele>
        <time>2015-07-16T09:44:20Z</time>
      </trkpt>
      <trkpt lat="46.438397951424122" lon="12.176147997379303">
        <ele>1381.55</ele>
        <time>2015-07-16T09:44:31Z</time>
      </trkpt>
      <trkpt lat="46.43832360394299" lon="12.176143052056432">
        <ele>1383.47</ele>
        <time>2015-07-16T09:44:43Z</time>
      </trkpt>
      <trkpt lat="46.438239365816116" lon="12.176128719002008">
        <ele>1384.9200000000001</ele>
        <time>2015-07-16T09:44:54Z</time>
      </trkpt>
      <trkpt lat="46.438203575089574" lon="12.176117151975632">
        <ele>1385.8800000000001</ele>
        <time>2015-07-16T09:44:59Z</time>
      </trkpt>
      <trkpt lat="46.438106428831816" lon="12.176062250509858">
        <ele>1387.8</ele>
        <time>2015-07-16T09:45:10Z</time>
      </trkpt>
      <trkpt lat="46.438025627285242" lon="12.175991842523217">
        <ele>1389.24</ele>
        <time>2015-07-16T09:45:23Z</time>
      </trkpt>
      <trkpt lat="46.437956811860204" lon="12.175907101482153">
        <ele>1391.1700000000001</ele>
        <time>2015-07-16T09:45:36Z</time>
      </trkpt>
      <trkpt lat="46.437884056940675" lon="12.175845159217715">
        <ele>1393.5699999999999</ele>
        <time>2015-07-16T09:45:50Z</time>
      </trkpt>
      <trkpt lat="46.437845248728991" lon="12.175796125084162">
        <ele>1395.01</ele>
        <time>2015-07-16T09:46:01Z</time>
      </trkpt>
      <trkpt lat="46.437765620648861" lon="12.175723286345601">
        <ele>1396.9300000000001</ele>
        <time>2015-07-16T09:46:14Z</time>
      </trkpt>
      <trkpt lat="46.437706528231502" lon="12.175668133422732">
        <ele>1398.3699999999999</ele>
        <time>2015-07-16T09:46:24Z</time>
      </trkpt>
      <trkpt lat="46.437626732513309" lon="12.175604598596692">
        <ele>1400.78</ele>
        <time>2015-07-16T09:46:38Z</time>
      </trkpt>
      <trkpt lat="46.437565376982093" lon="12.17551751062274">
        <ele>1402.7</ele>
        <time>2015-07-16T09:46:53Z</time>
      </trkpt>
      <trkpt lat="46.437528831884265" lon="12.175429416820407">
        <ele>1405.0999999999999</ele>
        <time>2015-07-16T09:47:06Z</time>
      </trkpt>
      <trkpt lat="46.437477953732014" lon="12.175323804840446">
        <ele>1406.55</ele>
        <time>2015-07-16T09:47:19Z</time>
      </trkpt>
      <trkpt lat="46.437426824122667" lon="12.175248954445124">
        <ele>1408.47</ele>
        <time>2015-07-16T09:47:31Z</time>
      </trkpt>
      <trkpt lat="46.437345771118999" lon="12.175130099058151">
        <ele>1410.3900000000001</ele>
        <time>2015-07-16T09:47:44Z</time>
      </trkpt>
      <trkpt lat="46.437272764742374" lon="12.175089698284864">
        <ele>1411.8299999999999</ele>
        <time>2015-07-16T09:47:55Z</time>
      </trkpt>
      <trkpt lat="46.437199423089623" lon="12.175052566453815">
        <ele>1413.28</ele>
        <time>2015-07-16T09:48:05Z</time>
      </trkpt>
      <trkpt lat="46.437136139720678" lon="12.174996072426438">
        <ele>1415.2</ele>
        <time>2015-07-16T09:48:17Z</time>
      </trkpt>
      <trkpt lat="46.437028432264924" lon="12.174992216750979">
        <ele>1418.5599999999999</ele>
        <time>2015-07-16T09:48:32Z</time>
      </trkpt>
      <trkpt lat="46.436987780034542" lon="12.175031695514917">
        <ele>1421.45</ele>
        <time>2015-07-16T09:48:41Z</time>
      </trkpt>
      <trkpt lat="46.436915025115013" lon="12.174985846504569">
        <ele>1421.45</ele>
        <time>2015-07-16T09:48:50Z</time>
      </trkpt>
      <trkpt lat="46.436826596036553" lon="12.174954162910581">
        <ele>1423.3699999999999</ele>
        <time>2015-07-16T09:49:01Z</time>
      </trkpt>
      <trkpt lat="46.436747303232551" lon="12.174883000552654">
        <ele>1425.29</ele>
        <time>2015-07-16T09:49:12Z</time>
      </trkpt>
      <trkpt lat="46.436709333211184" lon="12.174787782132626">
        <ele>1426.25</ele>
        <time>2015-07-16T09:49:22Z</time>
      </trkpt>
      <trkpt lat="46.436646971851587" lon="12.174661299213767">
        <ele>1427.21</ele>
        <time>2015-07-16T09:49:34Z</time>
      </trkpt>
      <trkpt lat="46.436555609107018" lon="12.174587035551667">
        <ele>1429.1400000000001</ele>
        <time>2015-07-16T09:49:49Z</time>
      </trkpt>
      <trkpt lat="46.436476316303015" lon="12.174538839608431">
        <ele>1431.0599999999999</ele>
        <time>2015-07-16T09:50:01Z</time>
      </trkpt>
      <trkpt lat="46.436405489221215" lon="12.174472538754344">
        <ele>1432.5</ele>
        <time>2015-07-16T09:50:12Z</time>
      </trkpt>
      <trkpt lat="46.436333572492003" lon="12.174393329769373">
        <ele>1434.9100000000001</ele>
        <time>2015-07-16T09:50:26Z</time>
      </trkpt>
      <trkpt lat="46.436272300779819" lon="12.17431060038507">
        <ele>1436.3499999999999</ele>
        <time>2015-07-16T09:50:37Z</time>
      </trkpt>
      <trkpt lat="46.436240701004863" lon="12.17421043664217">
        <ele>1438.27</ele>
        <time>2015-07-16T09:50:48Z</time>
      </trkpt>
      <trkpt lat="46.436175238341093" lon="12.17411513440311">
        <ele>1440.1900000000001</ele>
        <time>2015-07-16T09:51:00Z</time>
      </trkpt>
      <trkpt lat="46.436101896688342" lon="12.173980101943016">
        <ele>1442.1099999999999</ele>
        <time>2015-07-16T09:51:14Z</time>
      </trkpt>
      <trkpt lat="46.435993099585176" lon="12.173823192715645">
        <ele>1443.0799999999999</ele>
        <time>2015-07-16T09:51:29Z</time>
      </trkpt>
      <trkpt lat="46.435912800952792" lon="12.173701822757721">
        <ele>1444.04</ele>
        <time>2015-07-16T09:51:40Z</time>
      </trkpt>
      <trkpt lat="46.43588530831039" lon="12.173664942383766">
        <ele>1444.52</ele>
        <time>2015-07-16T09:51:43Z</time>
      </trkpt>
      <trkpt lat="46.435873154550791" lon="12.173651866614819">
        <ele>1444.52</ele>
        <time>2015-07-16T09:51:45Z</time>
      </trkpt>
      <trkpt lat="46.435783049091697" lon="12.173566035926342">
        <ele>1445.96</ele>
        <time>2015-07-16T09:51:57Z</time>
      </trkpt>
      <trkpt lat="46.435687076300383" lon="12.173495963215828">
        <ele>1446.9200000000001</ele>
        <time>2015-07-16T09:52:08Z</time>
      </trkpt>
      <trkpt lat="46.435595043003559" lon="12.173394374549389">
        <ele>1447.8800000000001</ele>
        <time>2015-07-16T09:52:20Z</time>
      </trkpt>
      <trkpt lat="46.43550518900156" lon="12.173298234120011">
        <ele>1448.8399999999999</ele>
        <time>2015-07-16T09:52:32Z</time>
      </trkpt>
      <trkpt lat="46.435416173189878" lon="12.173197232186794">
        <ele>1450.29</ele>
        <time>2015-07-16T09:52:45Z</time>
      </trkpt>
      <trkpt lat="46.435338472947478" lon="12.173114251345396">
        <ele>1451.25</ele>
        <time>2015-07-16T09:52:55Z</time>
      </trkpt>
      <trkpt lat="46.435281140729785" lon="12.173011740669608">
        <ele>1452.6900000000001</ele>
        <time>2015-07-16T09:53:06Z</time>
      </trkpt>
      <trkpt lat="46.435188017785549" lon="12.172921635210514">
        <ele>1454.6099999999999</ele>
        <time>2015-07-16T09:53:19Z</time>
      </trkpt>
      <trkpt lat="46.435104282572865" lon="12.17284619808197">
        <ele>1456.53</ele>
        <time>2015-07-16T09:53:30Z</time>
      </trkpt>
      <trkpt lat="46.435081819072366" lon="12.172812251374125">
        <ele>1457.5</ele>
        <time>2015-07-16T09:53:39Z</time>
      </trkpt>
      <trkpt lat="46.434995485469699" lon="12.172742765396833">
        <ele>1458.46</ele>
        <time>2015-07-16T09:53:50Z</time>
      </trkpt>
      <trkpt lat="46.434906050562859" lon="12.172663304954767">
        <ele>1459.9000000000001</ele>
        <time>2015-07-16T09:54:02Z</time>
      </trkpt>
      <trkpt lat="46.434826590120792" lon="12.172598848119378">
        <ele>1461.3399999999999</ele>
        <time>2015-07-16T09:54:13Z</time>
      </trkpt>
      <trkpt lat="46.434749728068709" lon="12.172514190897346">
        <ele>1462.78</ele>
        <time>2015-07-16T09:54:25Z</time>
      </trkpt>
      <trkpt lat="46.434740256518126" lon="12.172497594729066">
        <ele>1463.26</ele>
        <time>2015-07-16T09:54:34Z</time>
      </trkpt>
      <trkpt lat="46.434725504368544" lon="12.172497594729066">
        <ele>1463.74</ele>
        <time>2015-07-16T09:54:44Z</time>
      </trkpt>
      <trkpt lat="46.434711422771215" lon="12.172538079321384">
        <ele>1462.3</ele>
        <time>2015-07-16T09:55:06Z</time>
      </trkpt>
      <trkpt lat="46.434750566259027" lon="12.172448895871639">
        <ele>1462.78</ele>
        <time>2015-07-16T09:55:22Z</time>
      </trkpt>
      <trkpt lat="46.434751404449344" lon="12.172462642192841">
        <ele>1462.78</ele>
        <time>2015-07-16T09:55:30Z</time>
      </trkpt>
      <trkpt lat="46.434741849079728" lon="12.17245819978416">
        <ele>1463.26</ele>
        <time>2015-07-16T09:55:37Z</time>
      </trkpt>
      <trkpt lat="46.434679487720132" lon="12.172400783747435">
        <ele>1464.23</ele>
        <time>2015-07-16T09:55:49Z</time>
      </trkpt>
      <trkpt lat="46.434631962329149" lon="12.172343535348773">
        <ele>1465.6700000000001</ele>
        <time>2015-07-16T09:55:59Z</time>
      </trkpt>
      <trkpt lat="46.434593070298433" lon="12.172178830951452">
        <ele>1466.1500000000001</ele>
        <time>2015-07-16T09:56:15Z</time>
      </trkpt>
      <trkpt lat="46.434584017843008" lon="12.172145303338766">
        <ele>1467.5899999999999</ele>
        <time>2015-07-16T09:56:18Z</time>
      </trkpt>
      <trkpt lat="46.434583012014627" lon="12.172087132930756">
        <ele>1468.55</ele>
        <time>2015-07-16T09:56:27Z</time>
      </trkpt>
      <trkpt lat="46.434530122205615" lon="12.171999122947454">
        <ele>1470.47</ele>
        <time>2015-07-16T09:56:39Z</time>
      </trkpt>
      <trkpt lat="46.434494331479073" lon="12.171908263117075">
        <ele>1471.4400000000001</ele>
        <time>2015-07-16T09:56:51Z</time>
      </trkpt>
      <trkpt lat="46.434446638450027" lon="12.171788988634944">
        <ele>1471.9200000000001</ele>
        <time>2015-07-16T09:57:02Z</time>
      </trkpt>
      <trkpt lat="46.434409422799945" lon="12.171722687780857">
        <ele>1474.3199999999999</ele>
        <time>2015-07-16T09:57:10Z</time>
      </trkpt>
      <trkpt lat="46.434288388118148" lon="12.171649765223265">
        <ele>1475.76</ele>
        <time>2015-07-16T09:57:24Z</time>
      </trkpt>
      <trkpt lat="46.434210687875748" lon="12.171551696956158">
        <ele>1477.6800000000001</ele>
        <time>2015-07-16T09:57:37Z</time>
      </trkpt>
      <trkpt lat="46.4341492485255" lon="12.171437200158834">
        <ele>1479.6099999999999</ele>
        <time>2015-07-16T09:57:48Z</time>
      </trkpt>
      <trkpt lat="46.434089234098792" lon="12.171299317851663">
        <ele>1481.53</ele>
        <time>2015-07-16T09:58:00Z</time>
      </trkpt>
      <trkpt lat="46.434016060084105" lon="12.171194544062018">
        <ele>1482.97</ele>
        <time>2015-07-16T09:58:12Z</time>
      </trkpt>
      <trkpt lat="46.433952357620001" lon="12.171118687838316">
        <ele>1484.8900000000001</ele>
        <time>2015-07-16T09:58:23Z</time>
      </trkpt>
      <trkpt lat="46.433893265202641" lon="12.171010728925467">
        <ele>1486.8199999999999</ele>
        <time>2015-07-16T09:58:35Z</time>
      </trkpt>
      <trkpt lat="46.433834508061409" lon="12.17089656740427">
        <ele>1489.7</ele>
        <time>2015-07-16T09:58:46Z</time>
      </trkpt>
      <trkpt lat="46.433776840567589" lon="12.17080763541162">
        <ele>1489.7</ele>
        <time>2015-07-16T09:58:57Z</time>
      </trkpt>
      <trkpt lat="46.433743061497808" lon="12.170688444748521">
        <ele>1490.6600000000001</ele>
        <time>2015-07-16T09:59:08Z</time>
      </trkpt>
      <trkpt lat="46.433742055669427" lon="12.170628346502781">
        <ele>1492.0999999999999</ele>
        <time>2015-07-16T09:59:15Z</time>
      </trkpt>
      <trkpt lat="46.433704756200314" lon="12.170626251026988">
        <ele>1493.0599999999999</ele>
        <time>2015-07-16T09:59:26Z</time>
      </trkpt>
      <trkpt lat="46.433722944930196" lon="12.170693222433329">
        <ele>1493.0599999999999</ele>
        <time>2015-07-16T09:59:49Z</time>
      </trkpt>
      <trkpt lat="46.433726800605655" lon="12.170609151944518">
        <ele>1494.03</ele>
        <time>2015-07-16T10:00:01Z</time>
      </trkpt>
      <trkpt lat="46.433705175295472" lon="12.170499013736844">
        <ele>1495.95</ele>
        <time>2015-07-16T10:00:12Z</time>
      </trkpt>
      <trkpt lat="46.433680951595306" lon="12.170398011803627">
        <ele>1497.8699999999999</ele>
        <time>2015-07-16T10:00:22Z</time>
      </trkpt>
      <trkpt lat="46.433653710409999" lon="12.170295668765903">
        <ele>1499.79</ele>
        <time>2015-07-16T10:00:32Z</time>
      </trkpt>
      <trkpt lat="46.433608531951904" lon="12.17022861354053">
        <ele>1501.24</ele>
        <time>2015-07-16T10:00:42Z</time>
      </trkpt>
      <trkpt lat="46.433552959933877" lon="12.170169353485107">
        <ele>1503.6400000000001</ele>
        <time>2015-07-16T10:00:54Z</time>
      </trkpt>
      <trkpt lat="46.433502081781626" lon="12.170123672112823">
        <ele>1505.0799999999999</ele>
        <time>2015-07-16T10:01:05Z</time>
      </trkpt>
      <trkpt lat="46.433458495885134" lon="12.170099699869752">
        <ele>1507</ele>
        <time>2015-07-16T10:01:16Z</time>
      </trkpt>
      <trkpt lat="46.433387165889144" lon="12.17008838430047">
        <ele>1508.9300000000001</ele>
        <time>2015-07-16T10:01:26Z</time>
      </trkpt>
      <trkpt lat="46.433296054601669" lon="12.170057035982609">
        <ele>1510.3699999999999</ele>
        <time>2015-07-16T10:01:39Z</time>
      </trkpt>
      <trkpt lat="46.433198740705848" lon="12.170002888888121">
        <ele>1512.29</ele>
        <time>2015-07-16T10:01:52Z</time>
      </trkpt>
      <trkpt lat="46.433142917230725" lon="12.169896187260747">
        <ele>1514.6900000000001</ele>
        <time>2015-07-16T10:02:06Z</time>
      </trkpt>
      <trkpt lat="46.433091787621379" lon="12.169846231117845">
        <ele>1516.6199999999999</ele>
        <time>2015-07-16T10:02:17Z</time>
      </trkpt>
      <trkpt lat="46.433015093207359" lon="12.169813122600317">
        <ele>1518.54</ele>
        <time>2015-07-16T10:02:30Z</time>
      </trkpt>
      <trkpt lat="46.432940829545259" lon="12.169753946363926">
        <ele>1520.9400000000001</ele>
        <time>2015-07-16T10:02:42Z</time>
      </trkpt>
      <trkpt lat="46.43287536688149" lon="12.169738439843059">
        <ele>1522.8699999999999</ele>
        <time>2015-07-16T10:02:53Z</time>
      </trkpt>
      <trkpt lat="46.432872097939253" lon="12.169735422357917">
        <ele>1522.8699999999999</ele>
        <time>2015-07-16T10:03:04Z</time>
      </trkpt>
      <trkpt lat="46.432882659137249" lon="12.169718993827701">
        <ele>1522.8699999999999</ele>
        <time>2015-07-16T10:03:16Z</time>
      </trkpt>
      <trkpt lat="46.432863548398018" lon="12.169729806482792">
        <ele>1523.3499999999999</ele>
        <time>2015-07-16T10:03:34Z</time>
      </trkpt>
      <trkpt lat="46.432854579761624" lon="12.169738104566932">
        <ele>1522.8699999999999</ele>
        <time>2015-07-16T10:03:50Z</time>
      </trkpt>
      <trkpt lat="46.432841587811708" lon="12.16968135908246">
        <ele>1523.3499999999999</ele>
        <time>2015-07-16T10:04:07Z</time>
      </trkpt>
      <trkpt lat="46.432833205908537" lon="12.16961732134223">
        <ele>1525.27</ele>
        <time>2015-07-16T10:04:14Z</time>
      </trkpt>
      <trkpt lat="46.43281870521605" lon="12.169542051851749">
        <ele>1527.6700000000001</ele>
        <time>2015-07-16T10:04:24Z</time>
      </trkpt>
      <trkpt lat="46.43278693780303" lon="12.169455131515861">
        <ele>1529.5899999999999</ele>
        <time>2015-07-16T10:04:36Z</time>
      </trkpt>
      <trkpt lat="46.43275860697031" lon="12.16937349177897">
        <ele>1531.52</ele>
        <time>2015-07-16T10:04:46Z</time>
      </trkpt>
      <trkpt lat="46.432738658040762" lon="12.169274501502514">
        <ele>1532.96</ele>
        <time>2015-07-16T10:04:57Z</time>
      </trkpt>
      <trkpt lat="46.432708064094186" lon="12.169178193435073">
        <ele>1535.3599999999999</ele>
        <time>2015-07-16T10:05:10Z</time>
      </trkpt>
      <trkpt lat="46.432685516774654" lon="12.169104516506195">
        <ele>1537.29</ele>
        <time>2015-07-16T10:05:23Z</time>
      </trkpt>
      <trkpt lat="46.432673279196024" lon="12.169007789343596">
        <ele>1539.21</ele>
        <time>2015-07-16T10:05:35Z</time>
      </trkpt>
      <trkpt lat="46.432624077424407" lon="12.168940901756287">
        <ele>1540.6500000000001</ele>
        <time>2015-07-16T10:05:48Z</time>
      </trkpt>
      <trkpt lat="46.432575210928917" lon="12.168828919529915">
        <ele>1543.05</ele>
        <time>2015-07-16T10:06:02Z</time>
      </trkpt>
      <trkpt lat="46.432525003328919" lon="12.168723391368985">
        <ele>1545.46</ele>
        <time>2015-07-16T10:06:16Z</time>
      </trkpt>
      <trkpt lat="46.432483177632093" lon="12.168601099401712">
        <ele>1548.3399999999999</ele>
        <time>2015-07-16T10:06:31Z</time>
      </trkpt>
      <trkpt lat="46.432434059679508" lon="12.168512837961316">
        <ele>1550.74</ele>
        <time>2015-07-16T10:06:45Z</time>
      </trkpt>
      <trkpt lat="46.432406231760979" lon="12.168483249843121">
        <ele>1552.6700000000001</ele>
        <time>2015-07-16T10:06:51Z</time>
      </trkpt>
      <trkpt lat="46.432357868179679" lon="12.168425330892205">
        <ele>1553.6300000000001</ele>
        <time>2015-07-16T10:07:01Z</time>
      </trkpt>
      <trkpt lat="46.432310426607728" lon="12.168376799672842">
        <ele>1556.03</ele>
        <time>2015-07-16T10:07:12Z</time>
      </trkpt>
      <trkpt lat="46.432249657809734" lon="12.168337404727936">
        <ele>1557.47</ele>
        <time>2015-07-16T10:07:25Z</time>
      </trkpt>
      <trkpt lat="46.432186709716916" lon="12.168286107480526">
        <ele>1558.9200000000001</ele>
        <time>2015-07-16T10:07:36Z</time>
      </trkpt>
      <trkpt lat="46.432126611471176" lon="12.168211676180363">
        <ele>1560.8399999999999</ele>
        <time>2015-07-16T10:07:48Z</time>
      </trkpt>
      <trkpt lat="46.432062406092882" lon="12.168134311214089">
        <ele>1562.76</ele>
        <time>2015-07-16T10:08:00Z</time>
      </trkpt>
      <trkpt lat="46.431984873488545" lon="12.168019646778703">
        <ele>1565.6400000000001</ele>
        <time>2015-07-16T10:08:14Z</time>
      </trkpt>
      <trkpt lat="46.431934162974358" lon="12.167935324832797">
        <ele>1567.5699999999999</ele>
        <time>2015-07-16T10:08:25Z</time>
      </trkpt>
      <trkpt lat="46.431858306750655" lon="12.167847482487559">
        <ele>1569.49</ele>
        <time>2015-07-16T10:08:38Z</time>
      </trkpt>
      <trkpt lat="46.431789323687553" lon="12.167786713689566">
        <ele>1571.4100000000001</ele>
        <time>2015-07-16T10:08:50Z</time>
      </trkpt>
      <trkpt lat="46.431726291775703" lon="12.167750922963023">
        <ele>1572.8499999999999</ele>
        <time>2015-07-16T10:09:00Z</time>
      </trkpt>
      <trkpt lat="46.431642305105925" lon="12.167675150558352">
        <ele>1575.26</ele>
        <time>2015-07-16T10:09:13Z</time>
      </trkpt>
      <trkpt lat="46.431581871584058" lon="12.167597785592079">
        <ele>1576.7</ele>
        <time>2015-07-16T10:09:24Z</time>
      </trkpt>
      <trkpt lat="46.431523030623794" lon="12.167506255209446">
        <ele>1579.5799999999999</ele>
        <time>2015-07-16T10:09:38Z</time>
      </trkpt>
      <trkpt lat="46.431471230462193" lon="12.167394189164042">
        <ele>1582.47</ele>
        <time>2015-07-16T10:09:52Z</time>
      </trkpt>
      <trkpt lat="46.431449856609106" lon="12.16723283752799">
        <ele>1585.3499999999999</ele>
        <time>2015-07-16T10:10:07Z</time>
      </trkpt>
      <trkpt lat="46.431404175236821" lon="12.16712580062449">
        <ele>1587.75</ele>
        <time>2015-07-16T10:10:21Z</time>
      </trkpt>
      <trkpt lat="46.431396212428808" lon="12.167046759277582">
        <ele>1590.1600000000001</ele>
        <time>2015-07-16T10:10:33Z</time>
      </trkpt>
      <trkpt lat="46.431375928223133" lon="12.166960509493947">
        <ele>1592.5599999999999</ele>
        <time>2015-07-16T10:10:46Z</time>
      </trkpt>
      <trkpt lat="46.431341227144003" lon="12.166856154799461">
        <ele>1595.45</ele>
        <time>2015-07-16T10:11:01Z</time>
      </trkpt>
      <trkpt lat="46.431323541328311" lon="12.166788931936026">
        <ele>1597.3699999999999</ele>
        <time>2015-07-16T10:11:14Z</time>
      </trkpt>
      <trkpt lat="46.431292109191418" lon="12.166723972186446">
        <ele>1599.77</ele>
        <time>2015-07-16T10:11:26Z</time>
      </trkpt>
      <trkpt lat="46.43128682859242" lon="12.166670998558402">
        <ele>1601.21</ele>
        <time>2015-07-16T10:11:39Z</time>
      </trkpt>
      <trkpt lat="46.431290013715625" lon="12.166623724624515">
        <ele>1602.6600000000001</ele>
        <time>2015-07-16T10:11:51Z</time>
      </trkpt>
      <trkpt lat="46.431266292929649" lon="12.166568236425519">
        <ele>1604.0999999999999</ele>
        <time>2015-07-16T10:12:03Z</time>
      </trkpt>
      <trkpt lat="46.431235866621137" lon="12.166539151221514">
        <ele>1606.02</ele>
        <time>2015-07-16T10:12:14Z</time>
      </trkpt>
      <trkpt lat="46.431179875507951" lon="12.166530350223184">
        <ele>1608.9000000000001</ele>
        <time>2015-07-16T10:12:28Z</time>
      </trkpt>
      <trkpt lat="46.431118939071894" lon="12.166512664407492">
        <ele>1610.8299999999999</ele>
        <time>2015-07-16T10:12:39Z</time>
      </trkpt>
      <trkpt lat="46.431055907160044" lon="12.16645298525691">
        <ele>1612.75</ele>
        <time>2015-07-16T10:12:50Z</time>
      </trkpt>
      <trkpt lat="46.431025564670563" lon="12.166403699666262">
        <ele>1612.75</ele>
        <time>2015-07-16T10:13:01Z</time>
      </trkpt>
      <trkpt lat="46.431026486679912" lon="12.166393222287297">
        <ele>1612.75</ele>
        <time>2015-07-16T10:13:21Z</time>
      </trkpt>
      <trkpt lat="46.431012572720647" lon="12.166441418230534">
        <ele>1613.23</ele>
        <time>2015-07-16T10:13:46Z</time>
      </trkpt>
      <trkpt lat="46.43101173453033" lon="12.166436472907662">
        <ele>1612.75</ele>
        <time>2015-07-16T10:14:09Z</time>
      </trkpt>
      <trkpt lat="46.431052051484585" lon="12.16640361584723">
        <ele>1613.23</ele>
        <time>2015-07-16T10:14:31Z</time>
      </trkpt>
      <trkpt lat="46.431088848039508" lon="12.16639582067728">
        <ele>1613.23</ele>
        <time>2015-07-16T10:14:48Z</time>
      </trkpt>
      <trkpt lat="46.431037550792098" lon="12.166402526199818">
        <ele>1613.71</ele>
        <time>2015-07-16T10:15:10Z</time>
      </trkpt>
      <trkpt lat="46.431032186374068" lon="12.166400011628866">
        <ele>1613.71</ele>
        <time>2015-07-16T10:15:32Z</time>
      </trkpt>
      <trkpt lat="46.431059846654534" lon="12.166435299441218">
        <ele>1613.23</ele>
        <time>2015-07-16T10:15:49Z</time>
      </trkpt>
      <trkpt lat="46.431062109768391" lon="12.166501600295305">
        <ele>1613.23</ele>
        <time>2015-07-16T10:16:07Z</time>
      </trkpt>
      <trkpt lat="46.431092284619808" lon="12.166509898379445">
        <ele>1613.23</ele>
        <time>2015-07-16T10:16:33Z</time>
      </trkpt>
      <trkpt lat="46.431058086454868" lon="12.166476706042886">
        <ele>1613.71</ele>
        <time>2015-07-16T10:16:53Z</time>
      </trkpt>
      <trkpt lat="46.431041406467557" lon="12.166506126523018">
        <ele>1613.71</ele>
        <time>2015-07-16T10:17:19Z</time>
      </trkpt>
      <trkpt lat="46.431052973493934" lon="12.166533367708325">
        <ele>1613.71</ele>
        <time>2015-07-16T10:17:45Z</time>
      </trkpt>
      <trkpt lat="46.431048195809126" lon="12.166505623608828">
        <ele>1613.71</ele>
        <time>2015-07-16T10:18:14Z</time>
      </trkpt>
      <trkpt lat="46.431076275184751" lon="12.166410069912672">
        <ele>1613.71</ele>
        <time>2015-07-16T10:18:31Z</time>
      </trkpt>
      <trkpt lat="46.431077029556036" lon="12.166433706879616">
        <ele>1613.71</ele>
        <time>2015-07-16T10:18:56Z</time>
      </trkpt>
      <trkpt lat="46.431069234386086" lon="12.166481902822852">
        <ele>1614.1900000000001</ele>
        <time>2015-07-16T10:19:17Z</time>
      </trkpt>
      <trkpt lat="46.431067558005452" lon="12.166505623608828">
        <ele>1614.1900000000001</ele>
        <time>2015-07-16T10:19:35Z</time>
      </trkpt>
      <trkpt lat="46.431054230779409" lon="12.166563374921679">
        <ele>1614.1900000000001</ele>
        <time>2015-07-16T10:20:02Z</time>
      </trkpt>
      <trkpt lat="46.431071078404784" lon="12.166568990796804">
        <ele>1615.1500000000001</ele>
        <time>2015-07-16T10:20:24Z</time>
      </trkpt>
      <trkpt lat="46.431042412295938" lon="12.166488021612167">
        <ele>1614.6700000000001</ele>
        <time>2015-07-16T10:20:37Z</time>
      </trkpt>
      <trkpt lat="46.431026486679912" lon="12.166385930031538">
        <ele>1614.6700000000001</ele>
        <time>2015-07-16T10:21:04Z</time>
      </trkpt>
      <trkpt lat="46.431033024564385" lon="12.166389701887965">
        <ele>1615.1500000000001</ele>
        <time>2015-07-16T10:21:29Z</time>
      </trkpt>
      <trkpt lat="46.430998155847192" lon="12.166353324428201">
        <ele>1615.1500000000001</ele>
        <time>2015-07-16T10:21:52Z</time>
      </trkpt>
      <trkpt lat="46.431015087291598" lon="12.166378889232874">
        <ele>1615.6300000000001</ele>
        <time>2015-07-16T10:22:19Z</time>
      </trkpt>
      <trkpt lat="46.431009890511632" lon="12.166434545069933">
        <ele>1616.1099999999999</ele>
        <time>2015-07-16T10:22:47Z</time>
      </trkpt>
      <trkpt lat="46.431055320426822" lon="12.166448459029198">
        <ele>1616.5899999999999</ele>
        <time>2015-07-16T10:23:12Z</time>
      </trkpt>
      <trkpt lat="46.431059259921312" lon="12.166465893387794">
        <ele>1616.1099999999999</ele>
        <time>2015-07-16T10:23:38Z</time>
      </trkpt>
      <trkpt lat="46.431019445881248" lon="12.166476538404822">
        <ele>1616.5899999999999</ele>
        <time>2015-07-16T10:24:05Z</time>
      </trkpt>
      <trkpt lat="46.430987762287259" lon="12.166478633880615">
        <ele>1617.0699999999999</ele>
        <time>2015-07-16T10:24:33Z</time>
      </trkpt>
      <trkpt lat="46.430934453383088" lon="12.16645541600883">
        <ele>1617.5599999999999</ele>
        <time>2015-07-16T10:25:03Z</time>
      </trkpt>
      <trkpt lat="46.430954318493605" lon="12.166512832045555">
        <ele>1618.52</ele>
        <time>2015-07-16T10:25:32Z</time>
      </trkpt>
      <trkpt lat="46.430915426462889" lon="12.166437897831202">
        <ele>1619</ele>
        <time>2015-07-16T10:26:03Z</time>
      </trkpt>
      <trkpt lat="46.430902434512973" lon="12.166399676352739">
        <ele>1619.48</ele>
        <time>2015-07-16T10:26:31Z</time>
      </trkpt>
      <trkpt lat="46.430902015417814" lon="12.166371429339051">
        <ele>1621.4000000000001</ele>
        <time>2015-07-16T10:27:02Z</time>
      </trkpt>
      <trkpt lat="46.431012991815805" lon="12.166508389636874">
        <ele>1620.4400000000001</ele>
        <time>2015-07-16T10:27:31Z</time>
      </trkpt>
      <trkpt lat="46.430976781994104" lon="12.166426833719015">
        <ele>1620.4400000000001</ele>
        <time>2015-07-16T10:27:59Z</time>
      </trkpt>
      <trkpt lat="46.430968064814806" lon="12.166491961106658">
        <ele>1620.9200000000001</ele>
        <time>2015-07-16T10:28:27Z</time>
      </trkpt>
      <trkpt lat="46.430966053158045" lon="12.166485842317343">
        <ele>1620.9200000000001</ele>
        <time>2015-07-16T10:28:57Z</time>
      </trkpt>
      <trkpt lat="46.431016679853201" lon="12.166435969993472">
        <ele>1621.4000000000001</ele>
        <time>2015-07-16T10:29:33Z</time>
      </trkpt>
      <trkpt lat="46.430983655154705" lon="12.166459942236543">
        <ele>1620.9200000000001</ele>
        <time>2015-07-16T10:30:05Z</time>
      </trkpt>
      <trkpt lat="46.430983738973737" lon="12.166437394917011">
        <ele>1621.4000000000001</ele>
        <time>2015-07-16T10:30:37Z</time>
      </trkpt>
      <trkpt lat="46.430993713438511" lon="12.16641434468329">
        <ele>1621.4000000000001</ele>
        <time>2015-07-16T10:31:12Z</time>
      </trkpt>
      <trkpt lat="46.431009639054537" lon="12.166465139016509">
        <ele>1621.8800000000001</ele>
        <time>2015-07-16T10:31:43Z</time>
      </trkpt>
      <trkpt lat="46.431033527478576" lon="12.166347205638885">
        <ele>1621.8800000000001</ele>
        <time>2015-07-16T10:32:07Z</time>
      </trkpt>
      <trkpt lat="46.43099999986589" lon="12.166385343298316">
        <ele>1622.3599999999999</ele>
        <time>2015-07-16T10:32:38Z</time>
      </trkpt>
      <trkpt lat="46.43097854219377" lon="12.166414093226194">
        <ele>1622.3599999999999</ele>
        <time>2015-07-16T10:33:08Z</time>
      </trkpt>
      <trkpt lat="46.431008717045188" lon="12.166432533413172">
        <ele>1621.8800000000001</ele>
        <time>2015-07-16T10:33:35Z</time>
      </trkpt>
      <trkpt lat="46.431019529700279" lon="12.166423816233873">
        <ele>1622.8399999999999</ele>
        <time>2015-07-16T10:33:48Z</time>
      </trkpt>
      <trkpt lat="46.431012153625488" lon="12.166402861475945">
        <ele>1623.3199999999999</ele>
        <time>2015-07-16T10:34:05Z</time>
      </trkpt>
      <trkpt lat="46.431021708995104" lon="12.166382158175111">
        <ele>1623.3199999999999</ele>
        <time>2015-07-16T10:34:27Z</time>
      </trkpt>
      <trkpt lat="46.431040316820145" lon="12.166378051042557">
        <ele>1623.3199999999999</ele>
        <time>2015-07-16T10:34:45Z</time>
      </trkpt>
      <trkpt lat="46.431061523035169" lon="12.166326250880957">
        <ele>1623.8</ele>
        <time>2015-07-16T10:34:55Z</time>
      </trkpt>
      <trkpt lat="46.431120112538338" lon="12.16618811711669">
        <ele>1626.21</ele>
        <time>2015-07-16T10:35:09Z</time>
      </trkpt>
      <trkpt lat="46.431133104488254" lon="12.166109662503004">
        <ele>1627.6500000000001</ele>
        <time>2015-07-16T10:35:19Z</time>
      </trkpt>
      <trkpt lat="46.431095385923982" lon="12.166026597842574">
        <ele>1630.05</ele>
        <time>2015-07-16T10:35:31Z</time>
      </trkpt>
      <trkpt lat="46.431078454479575" lon="12.165945041924715">
        <ele>1631.49</ele>
        <time>2015-07-16T10:35:43Z</time>
      </trkpt>
      <trkpt lat="46.431023888289928" lon="12.165849655866623">
        <ele>1632.46</ele>
        <time>2015-07-16T10:35:55Z</time>
      </trkpt>
      <trkpt lat="46.430984074249864" lon="12.165740942582488">
        <ele>1634.3800000000001</ele>
        <time>2015-07-16T10:36:06Z</time>
      </trkpt>
      <trkpt lat="46.430949959903955" lon="12.16565259732306">
        <ele>1635.8199999999999</ele>
        <time>2015-07-16T10:36:18Z</time>
      </trkpt>
      <trkpt lat="46.430903021246195" lon="12.16559836640954">
        <ele>1636.78</ele>
        <time>2015-07-16T10:36:29Z</time>
      </trkpt>
      <trkpt lat="46.430866308510303" lon="12.165594846010208">
        <ele>1639.1900000000001</ele>
        <time>2015-07-16T10:36:43Z</time>
      </trkpt>
      <trkpt lat="46.430778466165066" lon="12.165563916787505">
        <ele>1641.1099999999999</ele>
        <time>2015-07-16T10:36:55Z</time>
      </trkpt>
      <trkpt lat="46.430716440081596" lon="12.165483450517058">
        <ele>1643.03</ele>
        <time>2015-07-16T10:37:07Z</time>
      </trkpt>
      <trkpt lat="46.430670758709311" lon="12.165370965376496">
        <ele>1644.47</ele>
        <time>2015-07-16T10:37:20Z</time>
      </trkpt>
      <trkpt lat="46.43063697963953" lon="12.165233502164483">
        <ele>1646.8800000000001</ele>
        <time>2015-07-16T10:37:34Z</time>
      </trkpt>
      <trkpt lat="46.43058224581182" lon="12.165102995932102">
        <ele>1648.8</ele>
        <time>2015-07-16T10:37:48Z</time>
      </trkpt>
      <trkpt lat="46.430537067353725" lon="12.165026636794209">
        <ele>1651.2</ele>
        <time>2015-07-16T10:38:02Z</time>
      </trkpt>
      <trkpt lat="46.430489625781775" lon="12.164886491373181">
        <ele>1652.1600000000001</ele>
        <time>2015-07-16T10:38:14Z</time>
      </trkpt>
      <trkpt lat="46.430395664647222" lon="12.164786076173186">
        <ele>1653.5999999999999</ele>
        <time>2015-07-16T10:38:26Z</time>
      </trkpt>
      <trkpt lat="46.430383259430528" lon="12.164774760603905">
        <ele>1654.0899999999999</ele>
        <time>2015-07-16T10:38:28Z</time>
      </trkpt>
      <trkpt lat="46.430296087637544" lon="12.164685996249318">
        <ele>1654.5699999999999</ele>
        <time>2015-07-16T10:38:40Z</time>
      </trkpt>
      <trkpt lat="46.430216375738382" lon="12.164549119770527">
        <ele>1655.53</ele>
        <time>2015-07-16T10:38:53Z</time>
      </trkpt>
      <trkpt lat="46.430169185623527" lon="12.164410650730133">
        <ele>1658.4100000000001</ele>
        <time>2015-07-16T10:39:07Z</time>
      </trkpt>
      <trkpt lat="46.430099615827203" lon="12.164256926625967">
        <ele>1658.8900000000001</ele>
        <time>2015-07-16T10:39:22Z</time>
      </trkpt>
      <trkpt lat="46.430021831765771" lon="12.164114098995924">
        <ele>1660.8099999999999</ele>
        <time>2015-07-16T10:39:35Z</time>
      </trkpt>
      <trkpt lat="46.429958464577794" lon="12.164033632725477">
        <ele>1663.22</ele>
        <time>2015-07-16T10:39:48Z</time>
      </trkpt>
      <trkpt lat="46.42989132553339" lon="12.163964482024312">
        <ele>1665.1400000000001</ele>
        <time>2015-07-16T10:40:00Z</time>
      </trkpt>
      <trkpt lat="46.429818067699671" lon="12.163864318281412">
        <ele>1667.0599999999999</ele>
        <time>2015-07-16T10:40:13Z</time>
      </trkpt>
      <trkpt lat="46.429791497066617" lon="12.163775218650699">
        <ele>1668.51</ele>
        <time>2015-07-16T10:40:23Z</time>
      </trkpt>
      <trkpt lat="46.42977942712605" lon="12.163665667176247">
        <ele>1669.95</ele>
        <time>2015-07-16T10:40:33Z</time>
      </trkpt>
      <trkpt lat="46.429738774895668" lon="12.163523929193616">
        <ele>1671.3900000000001</ele>
        <time>2015-07-16T10:40:45Z</time>
      </trkpt>
      <trkpt lat="46.42974522896111" lon="12.163402223959565">
        <ele>1673.3099999999999</ele>
        <time>2015-07-16T10:40:57Z</time>
      </trkpt>
      <trkpt lat="46.429717736318707" lon="12.163286050781608">
        <ele>1675.72</ele>
        <time>2015-07-16T10:41:09Z</time>
      </trkpt>
      <trkpt lat="46.429738942533731" lon="12.163126459345222">
        <ele>1677.1600000000001</ele>
        <time>2015-07-16T10:41:23Z</time>
      </trkpt>
      <trkpt lat="46.429727291688323" lon="12.162963850423694">
        <ele>1678.5999999999999</ele>
        <time>2015-07-16T10:41:37Z</time>
      </trkpt>
      <trkpt lat="46.429734416306019" lon="12.162858657538891">
        <ele>1679.5599999999999</ele>
        <time>2015-07-16T10:41:49Z</time>
      </trkpt>
      <trkpt lat="46.42968462780118" lon="12.162778358906507">
        <ele>1681.96</ele>
        <time>2015-07-16T10:41:59Z</time>
      </trkpt>
      <trkpt lat="46.429636515676975" lon="12.162666795775294">
        <ele>1683.4100000000001</ele>
        <time>2015-07-16T10:42:10Z</time>
      </trkpt>
      <trkpt lat="46.429611286148429" lon="12.162511227652431">
        <ele>1683.4100000000001</ele>
        <time>2015-07-16T10:42:23Z</time>
      </trkpt>
      <trkpt lat="46.429588068276644" lon="12.162465630099177">
        <ele>1686.77</ele>
        <time>2015-07-16T10:42:30Z</time>
      </trkpt>
      <trkpt lat="46.429513804614544" lon="12.162380469962955">
        <ele>1688.21</ele>
        <time>2015-07-16T10:42:44Z</time>
      </trkpt>
      <trkpt lat="46.42950726673007" lon="12.16237192042172">
        <ele>1689.6500000000001</ele>
        <time>2015-07-16T10:42:46Z</time>
      </trkpt>
      <trkpt lat="46.429442390799522" lon="12.162317940965295">
        <ele>1691.5799999999999</ele>
        <time>2015-07-16T10:42:58Z</time>
      </trkpt>
      <trkpt lat="46.429412551224232" lon="12.162251640111208">
        <ele>1694.9400000000001</ele>
        <time>2015-07-16T10:43:09Z</time>
      </trkpt>
      <trkpt lat="46.429396122694016" lon="12.16215449385345">
        <ele>1695.9000000000001</ele>
        <time>2015-07-16T10:43:22Z</time>
      </trkpt>
      <trkpt lat="46.429363265633583" lon="12.162071177735925">
        <ele>1698.3099999999999</ele>
        <time>2015-07-16T10:43:35Z</time>
      </trkpt>
      <trkpt lat="46.429355721920729" lon="12.161927092820406">
        <ele>1700.23</ele>
        <time>2015-07-16T10:43:49Z</time>
      </trkpt>
      <trkpt lat="46.429350273683667" lon="12.161814188584685">
        <ele>1703.1099999999999</ele>
        <time>2015-07-16T10:44:03Z</time>
      </trkpt>
      <trkpt lat="46.429300317540765" lon="12.161741852760315">
        <ele>1705.04</ele>
        <time>2015-07-16T10:44:16Z</time>
      </trkpt>
      <trkpt lat="46.429236447438598" lon="12.161705894395709">
        <ele>1707.4400000000001</ele>
        <time>2015-07-16T10:44:29Z</time>
      </trkpt>
      <trkpt lat="46.429158244282007" lon="12.161619141697884">
        <ele>1709.3599999999999</ele>
        <time>2015-07-16T10:44:42Z</time>
      </trkpt>
      <trkpt lat="46.429130500182509" lon="12.161519899964333">
        <ele>1710.8</ele>
        <time>2015-07-16T10:44:53Z</time>
      </trkpt>
      <trkpt lat="46.429062439128757" lon="12.161484779790044">
        <ele>1712.73</ele>
        <time>2015-07-16T10:45:05Z</time>
      </trkpt>
      <trkpt lat="46.429025139659643" lon="12.161420406773686">
        <ele>1715.1300000000001</ele>
        <time>2015-07-16T10:45:16Z</time>
      </trkpt>
      <trkpt lat="46.428944673389196" lon="12.161376401782036">
        <ele>1716.5699999999999</ele>
        <time>2015-07-16T10:45:29Z</time>
      </trkpt>
      <trkpt lat="46.4288564119488" lon="12.161330217495561">
        <ele>1718.49</ele>
        <time>2015-07-16T10:45:42Z</time>
      </trkpt>
      <trkpt lat="46.42879824154079" lon="12.161275735124946">
        <ele>1719.9400000000001</ele>
        <time>2015-07-16T10:45:53Z</time>
      </trkpt>
      <trkpt lat="46.428730599582195" lon="12.161208176985383">
        <ele>1721.8599999999999</ele>
        <time>2015-07-16T10:46:06Z</time>
      </trkpt>
      <trkpt lat="46.428704867139459" lon="12.161166267469525">
        <ele>1722.3399999999999</ele>
        <time>2015-07-16T10:46:19Z</time>
      </trkpt>
      <trkpt lat="46.428679302334785" lon="12.16113768517971">
        <ele>1723.3</ele>
        <time>2015-07-16T10:46:37Z</time>
      </trkpt>
      <trkpt lat="46.428688187152147" lon="12.161141373217106">
        <ele>1723.78</ele>
        <time>2015-07-16T10:46:47Z</time>
      </trkpt>
      <trkpt lat="46.428685337305069" lon="12.161096781492233">
        <ele>1723.78</ele>
        <time>2015-07-16T10:47:08Z</time>
      </trkpt>
      <trkpt lat="46.428644098341465" lon="12.161098541691899">
        <ele>1724.26</ele>
        <time>2015-07-16T10:47:19Z</time>
      </trkpt>
      <trkpt lat="46.428552148863673" lon="12.160983122885227">
        <ele>1726.6700000000001</ele>
        <time>2015-07-16T10:47:33Z</time>
      </trkpt>
      <trkpt lat="46.428497331216931" lon="12.160967784002423">
        <ele>1727.1500000000001</ele>
        <time>2015-07-16T10:47:40Z</time>
      </trkpt>
      <trkpt lat="46.42840538173914" lon="12.161101056262851">
        <ele>1726.1800000000001</ele>
        <time>2015-07-16T10:47:53Z</time>
      </trkpt>
      <trkpt lat="46.428381325677037" lon="12.161140702664852">
        <ele>1727.6300000000001</ele>
        <time>2015-07-16T10:47:57Z</time>
      </trkpt>
      <trkpt lat="46.428213603794575" lon="12.161260731518269">
        <ele>1727.1500000000001</ele>
        <time>2015-07-16T10:48:12Z</time>
      </trkpt>
      <trkpt lat="46.428056778386235" lon="12.161338599398732">
        <ele>1727.6300000000001</ele>
        <time>2015-07-16T10:48:26Z</time>
      </trkpt>
      <trkpt lat="46.427905233576894" lon="12.161408588290215">
        <ele>1728.5899999999999</ele>
        <time>2015-07-16T10:48:39Z</time>
      </trkpt>
      <trkpt lat="46.427769362926483" lon="12.161494670435786">
        <ele>1729.0699999999999</ele>
        <time>2015-07-16T10:48:52Z</time>
      </trkpt>
      <trkpt lat="46.4276441372931" lon="12.161521157249808">
        <ele>1730.99</ele>
        <time>2015-07-16T10:49:05Z</time>
      </trkpt>
      <trkpt lat="46.427555121481419" lon="12.161567592993379">
        <ele>1731.95</ele>
        <time>2015-07-16T10:49:16Z</time>
      </trkpt>
      <trkpt lat="46.427395027130842" lon="12.16165610589087">
        <ele>1733.8800000000001</ele>
        <time>2015-07-16T10:49:31Z</time>
      </trkpt>
      <trkpt lat="46.427354710176587" lon="12.161655519157648">
        <ele>1734.3599999999999</ele>
        <time>2015-07-16T10:49:35Z</time>
      </trkpt>
      <trkpt lat="46.4272072724998" lon="12.16172743588686">
        <ele>1735.3199999999999</ele>
        <time>2015-07-16T10:49:50Z</time>
      </trkpt>
      <trkpt lat="46.427069222554564" lon="12.161790048703551">
        <ele>1735.8</ele>
        <time>2015-07-16T10:50:03Z</time>
      </trkpt>
      <trkpt lat="46.427032593637705" lon="12.161818295717239">
        <ele>1736.28</ele>
        <time>2015-07-16T10:50:06Z</time>
      </trkpt>
      <trkpt lat="46.426911978051066" lon="12.161900606006384">
        <ele>1738.2</ele>
        <time>2015-07-16T10:50:19Z</time>
      </trkpt>
      <trkpt lat="46.426779795438051" lon="12.161982413381338">
        <ele>1739.1600000000001</ele>
        <time>2015-07-16T10:50:33Z</time>
      </trkpt>
      <trkpt lat="46.426654066890478" lon="12.161987023428082">
        <ele>1741.0799999999999</ele>
        <time>2015-07-16T10:50:45Z</time>
      </trkpt>
      <trkpt lat="46.426578462123871" lon="12.161945533007383">
        <ele>1742.05</ele>
        <time>2015-07-16T10:50:56Z</time>
      </trkpt>
      <trkpt lat="46.42646798864007" lon="12.161989118903875">
        <ele>1744.9300000000001</ele>
        <time>2015-07-16T10:51:10Z</time>
      </trkpt>
      <trkpt lat="46.426353910937905" lon="12.162022311240435">
        <ele>1746.3699999999999</ele>
        <time>2015-07-16T10:51:23Z</time>
      </trkpt>
      <trkpt lat="46.426254920661449" lon="12.16201770119369">
        <ele>1746.8499999999999</ele>
        <time>2015-07-16T10:51:35Z</time>
      </trkpt>
      <trkpt lat="46.426212508231401" lon="12.162016946822405">
        <ele>1748.29</ele>
        <time>2015-07-16T10:51:40Z</time>
      </trkpt>
      <trkpt lat="46.426127348095179" lon="12.162051480263472">
        <ele>1748.29</ele>
        <time>2015-07-16T10:51:50Z</time>
      </trkpt>
      <trkpt lat="46.426029363647103" lon="12.162105040624738">
        <ele>1748.29</ele>
        <time>2015-07-16T10:52:02Z</time>
      </trkpt>
      <trkpt lat="46.426012432202697" lon="12.162110069766641">
        <ele>1750.7</ele>
        <time>2015-07-16T10:52:04Z</time>
      </trkpt>
      <trkpt lat="46.425946215167642" lon="12.162139238789678">
        <ele>1751.6600000000001</ele>
        <time>2015-07-16T10:52:12Z</time>
      </trkpt>
      <trkpt lat="46.425843704491854" lon="12.162190452218056">
        <ele>1752.1400000000001</ele>
        <time>2015-07-16T10:52:24Z</time>
      </trkpt>
      <trkpt lat="46.425724178552628" lon="12.162288269028068">
        <ele>1754.0599999999999</ele>
        <time>2015-07-16T10:52:39Z</time>
      </trkpt>
      <trkpt lat="46.425715545192361" lon="12.16230109333992">
        <ele>1754.54</ele>
        <time>2015-07-16T10:52:40Z</time>
      </trkpt>
      <trkpt lat="46.42559140920639" lon="12.162449536845088">
        <ele>1754.54</ele>
        <time>2015-07-16T10:52:54Z</time>
      </trkpt>
      <trkpt lat="46.425489401444793" lon="12.162571828812361">
        <ele>1755.5</ele>
        <time>2015-07-16T10:53:06Z</time>
      </trkpt>
      <trkpt lat="46.425360320135951" lon="12.162622371688485">
        <ele>1755.5</ele>
        <time>2015-07-16T10:53:18Z</time>
      </trkpt>
      <trkpt lat="46.425292007625103" lon="12.162648439407349">
        <ele>1755.5</ele>
        <time>2015-07-16T10:53:24Z</time>
      </trkpt>
      <trkpt lat="46.425129985436797" lon="12.162768049165606">
        <ele>1755.99</ele>
        <time>2015-07-16T10:53:37Z</time>
      </trkpt>
      <trkpt lat="46.425026468932629" lon="12.162885395810008">
        <ele>1757.9100000000001</ele>
        <time>2015-07-16T10:53:49Z</time>
      </trkpt>
      <trkpt lat="46.424905937165022" lon="12.162980614230037">
        <ele>1759.3499999999999</ele>
        <time>2015-07-16T10:54:02Z</time>
      </trkpt>
      <trkpt lat="46.42479395493865" lon="12.162986397743225">
        <ele>1760.79</ele>
        <time>2015-07-16T10:54:13Z</time>
      </trkpt>
      <trkpt lat="46.424746429547668" lon="12.162985308095813">
        <ele>1761.75</ele>
        <time>2015-07-16T10:54:18Z</time>
      </trkpt>
      <trkpt lat="46.424713991582394" lon="12.162975082173944">
        <ele>1762.23</ele>
        <time>2015-07-16T10:54:21Z</time>
      </trkpt>
      <trkpt lat="46.424629334360361" lon="12.162937950342894">
        <ele>1763.2</ele>
        <time>2015-07-16T10:54:32Z</time>
      </trkpt>
      <trkpt lat="46.424518693238497" lon="12.162939039990306">
        <ele>1765.1199999999999</ele>
        <time>2015-07-16T10:54:45Z</time>
      </trkpt>
      <trkpt lat="46.424379050731659" lon="12.162978099659085">
        <ele>1766.5599999999999</ele>
        <time>2015-07-16T10:54:58Z</time>
      </trkpt>
      <trkpt lat="46.424230774864554" lon="12.163027888163924">
        <ele>1767.52</ele>
        <time>2015-07-16T10:55:14Z</time>
      </trkpt>
      <trkpt lat="46.424097418785095" lon="12.163102151826024">
        <ele>1769.4400000000001</ele>
        <time>2015-07-16T10:55:28Z</time>
      </trkpt>
      <trkpt lat="46.423981664702296" lon="12.163118496537209">
        <ele>1770.4100000000001</ele>
        <time>2015-07-16T10:55:40Z</time>
      </trkpt>
      <trkpt lat="46.423874711617827" lon="12.163156382739544">
        <ele>1772.3299999999999</ele>
        <time>2015-07-16T10:55:53Z</time>
      </trkpt>
      <trkpt lat="46.423800867050886" lon="12.16317038051784">
        <ele>1773.29</ele>
        <time>2015-07-16T10:55:59Z</time>
      </trkpt>
      <trkpt lat="46.423667762428522" lon="12.163133583962917">
        <ele>1773.77</ele>
        <time>2015-07-16T10:56:12Z</time>
      </trkpt>
      <trkpt lat="46.423575393855572" lon="12.16306728310883">
        <ele>1775.6900000000001</ele>
        <time>2015-07-16T10:56:25Z</time>
      </trkpt>
      <trkpt lat="46.423496017232537" lon="12.163046579807997">
        <ele>1778.0999999999999</ele>
        <time>2015-07-16T10:56:37Z</time>
      </trkpt>
      <trkpt lat="46.423439355567098" lon="12.163039790466428">
        <ele>1780.02</ele>
        <time>2015-07-16T10:56:47Z</time>
      </trkpt>
      <trkpt lat="46.423387639224529" lon="12.163003161549568">
        <ele>1780.98</ele>
        <time>2015-07-16T10:56:59Z</time>
      </trkpt>
      <trkpt lat="46.423388225957751" lon="12.162966951727867">
        <ele>1780.98</ele>
        <time>2015-07-16T10:57:14Z</time>
      </trkpt>
      <trkpt lat="46.423397110775113" lon="12.162967454642057">
        <ele>1780.98</ele>
        <time>2015-07-16T10:57:30Z</time>
      </trkpt>
      <trkpt lat="46.423387806862593" lon="12.16289478354156">
        <ele>1781.46</ele>
        <time>2015-07-16T10:57:45Z</time>
      </trkpt>
      <trkpt lat="46.423260401934385" lon="12.162930741906166">
        <ele>1781.9400000000001</ele>
        <time>2015-07-16T10:57:56Z</time>
      </trkpt>
      <trkpt lat="46.423192005604506" lon="12.162911631166935">
        <ele>1783.8599999999999</ele>
        <time>2015-07-16T10:58:07Z</time>
      </trkpt>
      <trkpt lat="46.423081448301673" lon="12.162909619510174">
        <ele>1786.27</ele>
        <time>2015-07-16T10:58:21Z</time>
      </trkpt>
      <trkpt lat="46.423015482723713" lon="12.162922276183963">
        <ele>1788.1900000000001</ele>
        <time>2015-07-16T10:58:32Z</time>
      </trkpt>
      <trkpt lat="46.422958066686988" lon="12.162922108545899">
        <ele>1788.6700000000001</ele>
        <time>2015-07-16T10:58:45Z</time>
      </trkpt>
      <trkpt lat="46.422886904329062" lon="12.162964688614011">
        <ele>1789.1500000000001</ele>
        <time>2015-07-16T10:58:56Z</time>
      </trkpt>
      <trkpt lat="46.422894196584821" lon="12.162961754947901">
        <ele>1789.6300000000001</ele>
        <time>2015-07-16T10:58:58Z</time>
      </trkpt>
      <trkpt lat="46.422815825790167" lon="12.162950607016683">
        <ele>1790.5899999999999</ele>
        <time>2015-07-16T10:59:08Z</time>
      </trkpt>
      <trkpt lat="46.422758158296347" lon="12.162963598966599">
        <ele>1792.03</ele>
        <time>2015-07-16T10:59:18Z</time>
      </trkpt>
      <trkpt lat="46.42270308919251" lon="12.16290945187211">
        <ele>1792.03</ele>
        <time>2015-07-16T10:59:27Z</time>
      </trkpt>
      <trkpt lat="46.422673501074314" lon="12.162888748571277">
        <ele>1793.48</ele>
        <time>2015-07-16T10:59:37Z</time>
      </trkpt>
      <trkpt lat="46.422617258504033" lon="12.162822196260095">
        <ele>1794.9200000000001</ele>
        <time>2015-07-16T10:59:47Z</time>
      </trkpt>
      <trkpt lat="46.422563530504704" lon="12.162771988660097">
        <ele>1796.3599999999999</ele>
        <time>2015-07-16T10:59:56Z</time>
      </trkpt>
      <trkpt lat="46.42254039645195" lon="12.162732342258096">
        <ele>1796.8399999999999</ele>
        <time>2015-07-16T11:00:05Z</time>
      </trkpt>
      <trkpt lat="46.422510892152786" lon="12.162692444398999">
        <ele>1798.28</ele>
        <time>2015-07-16T11:00:12Z</time>
      </trkpt>
      <trkpt lat="46.422487087547779" lon="12.162699149921536">
        <ele>1798.76</ele>
        <time>2015-07-16T11:00:21Z</time>
      </trkpt>
      <trkpt lat="46.422412488609552" lon="12.162704849615693">
        <ele>1798.76</ele>
        <time>2015-07-16T11:00:38Z</time>
      </trkpt>
      <trkpt lat="46.422384493052959" lon="12.162707950919867">
        <ele>1801.1700000000001</ele>
        <time>2015-07-16T11:00:44Z</time>
      </trkpt>
      <trkpt lat="46.422296985983849" lon="12.162658497691154">
        <ele>1801.1700000000001</ele>
        <time>2015-07-16T11:00:55Z</time>
      </trkpt>
      <trkpt lat="46.422244096174836" lon="12.162588508799672">
        <ele>1803.0899999999999</ele>
        <time>2015-07-16T11:01:07Z</time>
      </trkpt>
      <trkpt lat="46.422226075083017" lon="12.162581216543913">
        <ele>1803.5699999999999</ele>
        <time>2015-07-16T11:01:10Z</time>
      </trkpt>
      <trkpt lat="46.422124234959483" lon="12.162530589848757">
        <ele>1805.01</ele>
        <time>2015-07-16T11:01:23Z</time>
      </trkpt>
      <trkpt lat="46.422050055116415" lon="12.162510808557272">
        <ele>1806.45</ele>
        <time>2015-07-16T11:01:34Z</time>
      </trkpt>
      <trkpt lat="46.422022311016917" lon="12.162508210167289">
        <ele>1807.4200000000001</ele>
        <time>2015-07-16T11:01:45Z</time>
      </trkpt>
      <trkpt lat="46.421953160315752" lon="12.162485746666789">
        <ele>1808.3800000000001</ele>
        <time>2015-07-16T11:01:56Z</time>
      </trkpt>
      <trkpt lat="46.421860372647643" lon="12.162475856021047">
        <ele>1809.8199999999999</ele>
        <time>2015-07-16T11:02:07Z</time>
      </trkpt>
      <trkpt lat="46.421790886670351" lon="12.162503097206354">
        <ele>1810.3</ele>
        <time>2015-07-16T11:02:19Z</time>
      </trkpt>
      <trkpt lat="46.421747887507081" lon="12.162499325349927">
        <ele>1809.8199999999999</ele>
        <time>2015-07-16T11:02:35Z</time>
      </trkpt>
      <trkpt lat="46.42175710760057" lon="12.16248725540936">
        <ele>1809.8199999999999</ele>
        <time>2015-07-16T11:02:41Z</time>
      </trkpt>
      <trkpt lat="46.421774541959167" lon="12.162490943446755">
        <ele>1810.78</ele>
        <time>2015-07-16T11:02:47Z</time>
      </trkpt>
      <trkpt lat="46.421736991032958" lon="12.16246529482305">
        <ele>1810.78</ele>
        <time>2015-07-16T11:03:01Z</time>
      </trkpt>
      <trkpt lat="46.42166524194181" lon="12.162372674793005">
        <ele>1812.22</ele>
        <time>2015-07-16T11:03:14Z</time>
      </trkpt>
      <trkpt lat="46.421634228900075" lon="12.162356078624725">
        <ele>1813.1800000000001</ele>
        <time>2015-07-16T11:03:25Z</time>
      </trkpt>
      <trkpt lat="46.421565329656005" lon="12.162356581538916">
        <ele>1814.6300000000001</ele>
        <time>2015-07-16T11:03:36Z</time>
      </trkpt>
      <trkpt lat="46.421507662162185" lon="12.162419864907861">
        <ele>1816.55</ele>
        <time>2015-07-16T11:03:48Z</time>
      </trkpt>
      <trkpt lat="46.421449491754174" lon="12.162467055022717">
        <ele>1818.95</ele>
        <time>2015-07-16T11:03:58Z</time>
      </trkpt>
      <trkpt lat="46.421391237527132" lon="12.16248239390552">
        <ele>1819.4300000000001</ele>
        <time>2015-07-16T11:04:06Z</time>
      </trkpt>
      <trkpt lat="46.421292247250676" lon="12.162504773586988">
        <ele>1821.3499999999999</ele>
        <time>2015-07-16T11:04:19Z</time>
      </trkpt>
      <trkpt lat="46.421231897547841" lon="12.16251608915627">
        <ele>1821.8399999999999</ele>
        <time>2015-07-16T11:04:28Z</time>
      </trkpt>
      <trkpt lat="46.421115389093757" lon="12.16253075748682">
        <ele>1822.3199999999999</ele>
        <time>2015-07-16T11:04:38Z</time>
      </trkpt>
      <trkpt lat="46.42113458365202" lon="12.162452051416039">
        <ele>1822.3199999999999</ele>
        <time>2015-07-16T11:04:48Z</time>
      </trkpt>
      <trkpt lat="46.421037688851357" lon="12.162478538230062">
        <ele>1823.76</ele>
        <time>2015-07-16T11:04:59Z</time>
      </trkpt>
      <trkpt lat="46.42105596140027" lon="12.162497229874134">
        <ele>1824.24</ele>
        <time>2015-07-16T11:05:04Z</time>
      </trkpt>
      <trkpt lat="46.420984547585249" lon="12.162499995902181">
        <ele>1824.72</ele>
        <time>2015-07-16T11:05:14Z</time>
      </trkpt>
      <trkpt lat="46.420892765745521" lon="12.162533020600677">
        <ele>1825.2</ele>
        <time>2015-07-16T11:05:24Z</time>
      </trkpt>
      <trkpt lat="46.420772904530168" lon="12.162565374746919">
        <ele>1827.1199999999999</ele>
        <time>2015-07-16T11:05:35Z</time>
      </trkpt>
      <trkpt lat="46.420680619776249" lon="12.162549868226051">
        <ele>1828.0799999999999</ele>
        <time>2015-07-16T11:05:45Z</time>
      </trkpt>
      <trkpt lat="46.420603254809976" lon="12.162523968145251">
        <ele>1829.05</ele>
        <time>2015-07-16T11:05:58Z</time>
      </trkpt>
      <trkpt lat="46.420484818518162" lon="12.162546096369624">
        <ele>1830.01</ele>
        <time>2015-07-16T11:06:11Z</time>
      </trkpt>
      <trkpt lat="46.420391527935863" lon="12.162605440244079">
        <ele>1831.45</ele>
        <time>2015-07-16T11:06:23Z</time>
      </trkpt>
      <trkpt lat="46.420332519337535" lon="12.162673082202673">
        <ele>1832.4100000000001</ele>
        <time>2015-07-16T11:06:34Z</time>
      </trkpt>
      <trkpt lat="46.420317431911826" lon="12.162687918171287">
        <ele>1832.8900000000001</ele>
        <time>2015-07-16T11:06:36Z</time>
      </trkpt>
      <trkpt lat="46.420207126066089" lon="12.162736700847745">
        <ele>1833.8499999999999</ele>
        <time>2015-07-16T11:06:48Z</time>
      </trkpt>
      <trkpt lat="46.420198073610663" lon="12.162738041952252">
        <ele>1833.8499999999999</ele>
        <time>2015-07-16T11:06:49Z</time>
      </trkpt>
      <trkpt lat="46.420122133567929" lon="12.162706358358264">
        <ele>1835.77</ele>
        <time>2015-07-16T11:07:00Z</time>
      </trkpt>
      <trkpt lat="46.420098161324859" lon="12.162676770240068">
        <ele>1836.26</ele>
        <time>2015-07-16T11:07:04Z</time>
      </trkpt>
      <trkpt lat="46.420079050585628" lon="12.162673082202673">
        <ele>1835.77</ele>
        <time>2015-07-16T11:07:06Z</time>
      </trkpt>
      <trkpt lat="46.419987939298153" lon="12.162634441629052">
        <ele>1836.26</ele>
        <time>2015-07-16T11:07:16Z</time>
      </trkpt>
      <trkpt lat="46.419862294569612" lon="12.162655312567949">
        <ele>1837.7</ele>
        <time>2015-07-16T11:07:28Z</time>
      </trkpt>
      <trkpt lat="46.419766740873456" lon="12.162653133273125">
        <ele>1837.22</ele>
        <time>2015-07-16T11:07:39Z</time>
      </trkpt>
      <trkpt lat="46.419654507189989" lon="12.162676937878132">
        <ele>1839.1400000000001</ele>
        <time>2015-07-16T11:07:51Z</time>
      </trkpt>
      <trkpt lat="46.419558618217707" lon="12.162643913179636">
        <ele>1840.0999999999999</ele>
        <time>2015-07-16T11:08:03Z</time>
      </trkpt>
      <trkpt lat="46.419513272121549" lon="12.162607703357935">
        <ele>1842.02</ele>
        <time>2015-07-16T11:08:11Z</time>
      </trkpt>
      <trkpt lat="46.419447306543589" lon="12.162613989785314">
        <ele>1843.47</ele>
        <time>2015-07-16T11:08:20Z</time>
      </trkpt>
      <trkpt lat="46.419392824172974" lon="12.16260502114892">
        <ele>1844.4300000000001</ele>
        <time>2015-07-16T11:08:31Z</time>
      </trkpt>
      <trkpt lat="46.419422496110201" lon="12.162551544606686">
        <ele>1844.4300000000001</ele>
        <time>2015-07-16T11:08:45Z</time>
      </trkpt>
      <trkpt lat="46.419408833608031" lon="12.162562860175967">
        <ele>1844.4300000000001</ele>
        <time>2015-07-16T11:09:03Z</time>
      </trkpt>
      <trkpt lat="46.419350411742926" lon="12.162556909024715">
        <ele>1844.9100000000001</ele>
        <time>2015-07-16T11:09:23Z</time>
      </trkpt>
      <trkpt lat="46.419354937970638" lon="12.162594124674797">
        <ele>1844.4300000000001</ele>
        <time>2015-07-16T11:09:42Z</time>
      </trkpt>
      <trkpt lat="46.419305820018053" lon="12.162648774683475">
        <ele>1844.4300000000001</ele>
        <time>2015-07-16T11:10:03Z</time>
      </trkpt>
      <trkpt lat="46.419348400086164" lon="12.16260502114892">
        <ele>1844.4300000000001</ele>
        <time>2015-07-16T11:10:22Z</time>
      </trkpt>
      <trkpt lat="46.419324176385999" lon="12.162665538489819">
        <ele>1844.4300000000001</ele>
        <time>2015-07-16T11:10:29Z</time>
      </trkpt>
      <trkpt lat="46.419331803917885" lon="12.162618348374963">
        <ele>1845.3900000000001</ele>
        <time>2015-07-16T11:10:37Z</time>
      </trkpt>
      <trkpt lat="46.419214708730578" lon="12.162560848519206">
        <ele>1847.3099999999999</ele>
        <time>2015-07-16T11:10:51Z</time>
      </trkpt>
      <trkpt lat="46.419149162247777" lon="12.162496140226722">
        <ele>1849.23</ele>
        <time>2015-07-16T11:11:02Z</time>
      </trkpt>
      <trkpt lat="46.419077748432755" lon="12.162420284003019">
        <ele>1851.6400000000001</ele>
        <time>2015-07-16T11:11:13Z</time>
      </trkpt>
      <trkpt lat="46.419012621045113" lon="12.162326322868466">
        <ele>1853.0799999999999</ele>
        <time>2015-07-16T11:11:25Z</time>
      </trkpt>
      <trkpt lat="46.418914804235101" lon="12.162229511886835">
        <ele>1853.5599999999999</ele>
        <time>2015-07-16T11:11:38Z</time>
      </trkpt>
      <trkpt lat="46.418808856979012" lon="12.162108980119228">
        <ele>1853.5599999999999</ele>
        <time>2015-07-16T11:11:50Z</time>
      </trkpt>
      <trkpt lat="46.418689666315913" lon="12.161937318742275">
        <ele>1853.5599999999999</ele>
        <time>2015-07-16T11:12:03Z</time>
      </trkpt>
      <trkpt lat="46.418684720993042" lon="12.161918291822076">
        <ele>1853.5599999999999</ele>
        <time>2015-07-16T11:12:04Z</time>
      </trkpt>
      <trkpt lat="46.418572068214417" lon="12.161693489179015">
        <ele>1855</ele>
        <time>2015-07-16T11:12:20Z</time>
      </trkpt>
      <trkpt lat="46.418560333549976" lon="12.16166197322309">
        <ele>1855.48</ele>
        <time>2015-07-16T11:12:22Z</time>
      </trkpt>
      <trkpt lat="46.418499816209078" lon="12.161489808931947">
        <ele>1856.9200000000001</ele>
        <time>2015-07-16T11:12:34Z</time>
      </trkpt>
      <trkpt lat="46.418457152321935" lon="12.161309514194727">
        <ele>1858.8499999999999</ele>
        <time>2015-07-16T11:12:46Z</time>
      </trkpt>
      <trkpt lat="46.418407447636127" lon="12.161135505884886">
        <ele>1859.8099999999999</ele>
        <time>2015-07-16T11:12:57Z</time>
      </trkpt>
      <trkpt lat="46.418352797627449" lon="12.160957306623459">
        <ele>1860.77</ele>
        <time>2015-07-16T11:13:08Z</time>
      </trkpt>
      <trkpt lat="46.418253807350993" lon="12.160783214494586">
        <ele>1861.25</ele>
        <time>2015-07-16T11:13:22Z</time>
      </trkpt>
      <trkpt lat="46.418103603646159" lon="12.160706603899598">
        <ele>1862.6900000000001</ele>
        <time>2015-07-16T11:13:36Z</time>
      </trkpt>
      <trkpt lat="46.417952226474881" lon="12.160632256418467">
        <ele>1863.1700000000001</ele>
        <time>2015-07-16T11:13:49Z</time>
      </trkpt>
      <trkpt lat="46.417858600616455" lon="12.160523794591427">
        <ele>1864.1300000000001</ele>
        <time>2015-07-16T11:14:00Z</time>
      </trkpt>
      <trkpt lat="46.417745864018798" lon="12.160412818193436">
        <ele>1865.0899999999999</ele>
        <time>2015-07-16T11:14:12Z</time>
      </trkpt>
      <trkpt lat="46.417660620063543" lon="12.160288682207465">
        <ele>1866.0599999999999</ele>
        <time>2015-07-16T11:14:23Z</time>
      </trkpt>
      <trkpt lat="46.417592894285917" lon="12.160114925354719">
        <ele>1867.02</ele>
        <time>2015-07-16T11:14:36Z</time>
      </trkpt>
      <trkpt lat="46.417490299791098" lon="12.160001350566745">
        <ele>1867.98</ele>
        <time>2015-07-16T11:14:48Z</time>
      </trkpt>
      <trkpt lat="46.417364738881588" lon="12.159925159066916">
        <ele>1869.9000000000001</ele>
        <time>2015-07-16T11:15:00Z</time>
      </trkpt>
      <trkpt lat="46.417286368086934" lon="12.159841675311327">
        <ele>1872.3</ele>
        <time>2015-07-16T11:15:12Z</time>
      </trkpt>
      <trkpt lat="46.417240519076586" lon="12.159778978675604">
        <ele>1874.23</ele>
        <time>2015-07-16T11:15:19Z</time>
      </trkpt>
      <trkpt lat="46.417133565992117" lon="12.159690801054239">
        <ele>1875.6700000000001</ele>
        <time>2015-07-16T11:15:33Z</time>
      </trkpt>
      <trkpt lat="46.417037593200803" lon="12.159647298976779">
        <ele>1878.0699999999999</ele>
        <time>2015-07-16T11:15:46Z</time>
      </trkpt>
      <trkpt lat="46.416925108060241" lon="12.159622069448233">
        <ele>1880.48</ele>
        <time>2015-07-16T11:15:59Z</time>
      </trkpt>
      <trkpt lat="46.416816227138042" lon="12.15956230647862">
        <ele>1882.8800000000001</ele>
        <time>2015-07-16T11:16:14Z</time>
      </trkpt>
      <trkpt lat="46.416802061721683" lon="12.159557361155748">
        <ele>1882.8800000000001</ele>
        <time>2015-07-16T11:16:16Z</time>
      </trkpt>
      <trkpt lat="46.41668664291501" lon="12.159504974260926">
        <ele>1884.8</ele>
        <time>2015-07-16T11:16:29Z</time>
      </trkpt>
      <trkpt lat="46.41657910309732" lon="12.159418137744069">
        <ele>1886.72</ele>
        <time>2015-07-16T11:16:41Z</time>
      </trkpt>
      <trkpt lat="46.416486231610179" lon="12.15939081273973">
        <ele>1888.1700000000001</ele>
        <time>2015-07-16T11:16:51Z</time>
      </trkpt>
      <trkpt lat="46.416334100067616" lon="12.159311603754759">
        <ele>1888.6500000000001</ele>
        <time>2015-07-16T11:17:06Z</time>
      </trkpt>
      <trkpt lat="46.416281880810857" lon="12.159221079200506">
        <ele>1889.6099999999999</ele>
        <time>2015-07-16T11:17:17Z</time>
      </trkpt>
      <trkpt lat="46.416184650734067" lon="12.159084286540747">
        <ele>1891.53</ele>
        <time>2015-07-16T11:17:30Z</time>
      </trkpt>
      <trkpt lat="46.416083984076977" lon="12.158935172483325">
        <ele>1892.97</ele>
        <time>2015-07-16T11:17:44Z</time>
      </trkpt>
      <trkpt lat="46.41596982255578" lon="12.158797960728407">
        <ele>1894.9000000000001</ele>
        <time>2015-07-16T11:17:59Z</time>
      </trkpt>
      <trkpt lat="46.41590092331171" lon="12.158679021522403">
        <ele>1897.3</ele>
        <time>2015-07-16T11:18:12Z</time>
      </trkpt>
      <trkpt lat="46.415827162563801" lon="12.158581875264645">
        <ele>1899.22</ele>
        <time>2015-07-16T11:18:24Z</time>
      </trkpt>
      <trkpt lat="46.415786175057292" lon="12.15854499489069">
        <ele>1900.1800000000001</ele>
        <time>2015-07-16T11:18:30Z</time>
      </trkpt>
      <trkpt lat="46.415737057104707" lon="12.158476766198874">
        <ele>1901.6300000000001</ele>
        <time>2015-07-16T11:18:36Z</time>
      </trkpt>
      <trkpt lat="46.415690453723073" lon="12.158346343785524">
        <ele>1903.0699999999999</ele>
        <time>2015-07-16T11:18:48Z</time>
      </trkpt>
      <trkpt lat="46.415613675490022" lon="12.158254059031606">
        <ele>1905.47</ele>
        <time>2015-07-16T11:19:00Z</time>
      </trkpt>
      <trkpt lat="46.415598504245281" lon="12.158108884468675">
        <ele>1907.3900000000001</ele>
        <time>2015-07-16T11:19:12Z</time>
      </trkpt>
      <trkpt lat="46.415582662448287" lon="12.157991286367178">
        <ele>1909.3199999999999</ele>
        <time>2015-07-16T11:19:24Z</time>
      </trkpt>
      <trkpt lat="46.415516110137105" lon="12.157871592789888">
        <ele>1911.72</ele>
        <time>2015-07-16T11:19:38Z</time>
      </trkpt>
      <trkpt lat="46.415470009669662" lon="12.157788192853332">
        <ele>1913.6400000000001</ele>
        <time>2015-07-16T11:19:48Z</time>
      </trkpt>
      <trkpt lat="46.415454084053636" lon="12.15768157504499">
        <ele>1915.5599999999999</ele>
        <time>2015-07-16T11:20:00Z</time>
      </trkpt>
      <trkpt lat="46.415432961657643" lon="12.157545704394579">
        <ele>1917.97</ele>
        <time>2015-07-16T11:20:14Z</time>
      </trkpt>
      <trkpt lat="46.415420975536108" lon="12.157399859279394">
        <ele>1919.8900000000001</ele>
        <time>2015-07-16T11:20:26Z</time>
      </trkpt>
      <trkpt lat="46.415417371317744" lon="12.157265162095428">
        <ele>1921.3299999999999</ele>
        <time>2015-07-16T11:20:38Z</time>
      </trkpt>
      <trkpt lat="46.415401780977845" lon="12.157142031937838">
        <ele>1923.25</ele>
        <time>2015-07-16T11:20:51Z</time>
      </trkpt>
      <trkpt lat="46.415336737409234" lon="12.157070366665721">
        <ele>1925.1800000000001</ele>
        <time>2015-07-16T11:21:02Z</time>
      </trkpt>
      <trkpt lat="46.415251325815916" lon="12.157002557069063">
        <ele>1927.0999999999999</ele>
        <time>2015-07-16T11:21:14Z</time>
      </trkpt>
      <trkpt lat="46.415173877030611" lon="12.156926533207297">
        <ele>1929.5</ele>
        <time>2015-07-16T11:21:26Z</time>
      </trkpt>
      <trkpt lat="46.415112856775522" lon="12.156803403049707">
        <ele>1931.4300000000001</ele>
        <time>2015-07-16T11:21:41Z</time>
      </trkpt>
      <trkpt lat="46.415118807926774" lon="12.156755458563566">
        <ele>1931.9100000000001</ele>
        <time>2015-07-16T11:21:45Z</time>
      </trkpt>
      <trkpt lat="46.415164154022932" lon="12.156598633155227">
        <ele>1933.3499999999999</ele>
        <time>2015-07-16T11:21:57Z</time>
      </trkpt>
      <trkpt lat="46.415183767676353" lon="12.156520513817668">
        <ele>1934.79</ele>
        <time>2015-07-16T11:22:05Z</time>
      </trkpt>
      <trkpt lat="46.415214696899056" lon="12.156417164951563">
        <ele>1936.23</ele>
        <time>2015-07-16T11:22:15Z</time>
      </trkpt>
      <trkpt lat="46.415282841771841" lon="12.15640677139163">
        <ele>1938.1600000000001</ele>
        <time>2015-07-16T11:22:27Z</time>
      </trkpt>
      <trkpt lat="46.415320141240954" lon="12.156400987878442">
        <ele>1938.1600000000001</ele>
        <time>2015-07-16T11:22:37Z</time>
      </trkpt>
      <trkpt lat="46.415371689945459" lon="12.156464019790292">
        <ele>1940.0799999999999</ele>
        <time>2015-07-16T11:22:47Z</time>
      </trkpt>
      <trkpt lat="46.41539222560823" lon="12.15655923821032">
        <ele>1942.48</ele>
        <time>2015-07-16T11:22:56Z</time>
      </trkpt>
      <trkpt lat="46.415436733514071" lon="12.156617073342204">
        <ele>1944.4000000000001</ele>
        <time>2015-07-16T11:23:04Z</time>
      </trkpt>
      <trkpt lat="46.415500938892365" lon="12.156603327021003">
        <ele>1945.8499999999999</ele>
        <time>2015-07-16T11:23:14Z</time>
      </trkpt>
      <trkpt lat="46.415503285825253" lon="12.156584048643708">
        <ele>1947.29</ele>
        <time>2015-07-16T11:23:23Z</time>
      </trkpt>
      <trkpt lat="46.41548166051507" lon="12.156505342572927">
        <ele>1947.29</ele>
        <time>2015-07-16T11:23:35Z</time>
      </trkpt>
      <trkpt lat="46.415473446249962" lon="12.156520513817668">
        <ele>1947.29</ele>
        <time>2015-07-16T11:23:46Z</time>
      </trkpt>
      <trkpt lat="46.415489204227924" lon="12.156533841043711">
        <ele>1946.3299999999999</ele>
        <time>2015-07-16T11:23:53Z</time>
      </trkpt>
      <trkpt lat="46.415483839809895" lon="12.156514981761575">
        <ele>1946.3299999999999</ele>
        <time>2015-07-16T11:24:18Z</time>
      </trkpt>
      <trkpt lat="46.41550412401557" lon="12.15651866979897">
        <ele>1946.8099999999999</ele>
        <time>2015-07-16T11:24:38Z</time>
      </trkpt>
      <trkpt lat="46.415509069338441" lon="12.156522357836366">
        <ele>1946.8099999999999</ele>
        <time>2015-07-16T11:24:55Z</time>
      </trkpt>
      <trkpt lat="46.415501274168491" lon="12.156502576544881">
        <ele>1946.8099999999999</ele>
        <time>2015-07-16T11:25:12Z</time>
      </trkpt>
      <trkpt lat="46.415491551160812" lon="12.156497715041041">
        <ele>1946.8099999999999</ele>
        <time>2015-07-16T11:25:31Z</time>
      </trkpt>
      <trkpt lat="46.415469758212566" lon="12.156486315652728">
        <ele>1946.8099999999999</ele>
        <time>2015-07-16T11:25:51Z</time>
      </trkpt>
      <trkpt lat="46.415482079610229" lon="12.156492015346885">
        <ele>1946.8099999999999</ele>
        <time>2015-07-16T11:26:14Z</time>
      </trkpt>
      <trkpt lat="46.415468920022249" lon="12.156501151621342">
        <ele>1946.8099999999999</ele>
        <time>2015-07-16T11:26:34Z</time>
      </trkpt>
      <trkpt lat="46.415473613888025" lon="12.156524704769254">
        <ele>1946.8099999999999</ele>
        <time>2015-07-16T11:26:48Z</time>
      </trkpt>
      <trkpt lat="46.41547336243093" lon="12.156529063358903">
        <ele>1947.29</ele>
        <time>2015-07-16T11:27:08Z</time>
      </trkpt>
      <trkpt lat="46.415480403229594" lon="12.156544402241707">
        <ele>1947.29</ele>
        <time>2015-07-16T11:27:23Z</time>
      </trkpt>
      <trkpt lat="46.415462046861649" lon="12.156525962054729">
        <ele>1947.29</ele>
        <time>2015-07-16T11:27:42Z</time>
      </trkpt>
      <trkpt lat="46.415466405451298" lon="12.156521771103144">
        <ele>1947.29</ele>
        <time>2015-07-16T11:28:05Z</time>
      </trkpt>
      <trkpt lat="46.415464980527759" lon="12.156520849093795">
        <ele>1947.29</ele>
        <time>2015-07-16T11:28:29Z</time>
      </trkpt>
      <trkpt lat="46.4154679980129" lon="12.156541803851724">
        <ele>1947.29</ele>
        <time>2015-07-16T11:28:50Z</time>
      </trkpt>
      <trkpt lat="46.415459951385856" lon="12.156529230996966">
        <ele>1946.8099999999999</ele>
        <time>2015-07-16T11:29:15Z</time>
      </trkpt>
      <trkpt lat="46.41546699218452" lon="12.156525207683444">
        <ele>1947.29</ele>
        <time>2015-07-16T11:29:35Z</time>
      </trkpt>
      <trkpt lat="46.415468081831932" lon="12.156518837437034">
        <ele>1947.29</ele>
        <time>2015-07-16T11:29:54Z</time>
      </trkpt>
      <trkpt lat="46.415473194792867" lon="12.156497295945883">
        <ele>1947.77</ele>
        <time>2015-07-16T11:30:12Z</time>
      </trkpt>
      <trkpt lat="46.415468333289027" lon="12.156510539352894">
        <ele>1948.25</ele>
        <time>2015-07-16T11:30:36Z</time>
      </trkpt>
      <trkpt lat="46.415458358824253" lon="12.156528811901808">
        <ele>1947.77</ele>
        <time>2015-07-16T11:30:59Z</time>
      </trkpt>
      <trkpt lat="46.415468249469995" lon="12.156525794416666">
        <ele>1948.25</ele>
        <time>2015-07-16T11:31:20Z</time>
      </trkpt>
      <trkpt lat="46.415476882830262" lon="12.156517915427685">
        <ele>1948.73</ele>
        <time>2015-07-16T11:31:43Z</time>
      </trkpt>
      <trkpt lat="46.415468752384186" lon="12.156516071408987">
        <ele>1948.73</ele>
        <time>2015-07-16T11:32:07Z</time>
      </trkpt>
      <trkpt lat="46.415465315803885" lon="12.156501403078437">
        <ele>1948.73</ele>
        <time>2015-07-16T11:32:31Z</time>
      </trkpt>
      <trkpt lat="46.415483923628926" lon="12.156517244875431">
        <ele>1948.25</ele>
        <time>2015-07-16T11:32:50Z</time>
      </trkpt>
      <trkpt lat="46.415471518412232" lon="12.156533841043711">
        <ele>1949.21</ele>
        <time>2015-07-16T11:33:18Z</time>
      </trkpt>
      <trkpt lat="46.415477637201548" lon="12.156525459140539">
        <ele>1951.1300000000001</ele>
        <time>2015-07-16T11:33:32Z</time>
      </trkpt>
      <trkpt lat="46.415487108752131" lon="12.156470390036702">
        <ele>1949.6900000000001</ele>
        <time>2015-07-16T11:33:52Z</time>
      </trkpt>
    </trkseg>
  </trk>

  <trk>
    <name>7tappa2015-07-17</name>
    <extensions>
      <gpxx:TrackExtension>
        <gpxx:DisplayColor>Yellow</gpxx:DisplayColor>
      </gpxx:TrackExtension>
      <gpxtrkx:TrackStatsExtension xmlns:gpxtrkx="http://www.garmin.com/xmlschemas/TrackStatsExtension/v1">
        <gpxtrkx:Distance>20477</gpxtrkx:Distance>
        <gpxtrkx:TotalElapsedTime>34060</gpxtrkx:TotalElapsedTime>
        <gpxtrkx:MovingTime>18679</gpxtrkx:MovingTime>
        <gpxtrkx:StoppedTime>14952</gpxtrkx:StoppedTime>
        <gpxtrkx:MovingSpeed>1</gpxtrkx:MovingSpeed>
        <gpxtrkx:MaxSpeed>3</gpxtrkx:MaxSpeed>
        <gpxtrkx:MaxElevation>2162</gpxtrkx:MaxElevation>
        <gpxtrkx:MinElevation>1557</gpxtrkx:MinElevation>
        <gpxtrkx:Ascent>906</gpxtrkx:Ascent>
        <gpxtrkx:Descent>1304</gpxtrkx:Descent>
        <gpxtrkx:AvgAscentRate>0</gpxtrkx:AvgAscentRate>
        <gpxtrkx:MaxAscentRate>0</gpxtrkx:MaxAscentRate>
        <gpxtrkx:AvgDescentRate>0</gpxtrkx:AvgDescentRate>
        <gpxtrkx:MaxDescentRate>-1</gpxtrkx:MaxDescentRate>
      </gpxtrkx:TrackStatsExtension>
    </extensions>
    <trkseg>
      <trkpt lat="46.415489288046956" lon="12.156609278172255">
        <ele>1961.23</ele>
        <time>2015-07-17T06:04:54Z</time>
      </trkpt>
      <trkpt lat="46.415489120408893" lon="12.156607350334525">
        <ele>1961.23</ele>
        <time>2015-07-17T06:04:55Z</time>
      </trkpt>
      <trkpt lat="46.415479984134436" lon="12.15659880079329">
        <ele>1958.3399999999999</ele>
        <time>2015-07-17T06:04:59Z</time>
      </trkpt>
      <trkpt lat="46.415485264733434" lon="12.15658756904304">
        <ele>1957.8599999999999</ele>
        <time>2015-07-17T06:05:00Z</time>
      </trkpt>
      <trkpt lat="46.415516026318073" lon="12.156600225716829">
        <ele>1957.8599999999999</ele>
        <time>2015-07-17T06:05:14Z</time>
      </trkpt>
      <trkpt lat="46.415445199236274" lon="12.156619084998965">
        <ele>1956.4200000000001</ele>
        <time>2015-07-17T06:05:24Z</time>
      </trkpt>
      <trkpt lat="46.415389040485024" lon="12.156578432768583">
        <ele>1954.5</ele>
        <time>2015-07-17T06:05:32Z</time>
      </trkpt>
      <trkpt lat="46.415362218394876" lon="12.156518334522843">
        <ele>1952.5699999999999</ele>
        <time>2015-07-17T06:05:37Z</time>
      </trkpt>
      <trkpt lat="46.415282590314746" lon="12.156412303447723">
        <ele>1949.21</ele>
        <time>2015-07-17T06:05:51Z</time>
      </trkpt>
      <trkpt lat="46.415274124592543" lon="12.156415907666087">
        <ele>1949.21</ele>
        <time>2015-07-17T06:05:52Z</time>
      </trkpt>
      <trkpt lat="46.415151413530111" lon="12.156426385045052">
        <ele>1947.29</ele>
        <time>2015-07-17T06:06:05Z</time>
      </trkpt>
      <trkpt lat="46.415085531771183" lon="12.156388582661748">
        <ele>1947.77</ele>
        <time>2015-07-17T06:06:16Z</time>
      </trkpt>
      <trkpt lat="46.414986625313759" lon="12.156407944858074">
        <ele>1949.21</ele>
        <time>2015-07-17T06:06:28Z</time>
      </trkpt>
      <trkpt lat="46.414947398006916" lon="12.156415656208992">
        <ele>1949.6900000000001</ele>
        <time>2015-07-17T06:06:38Z</time>
      </trkpt>
      <trkpt lat="46.414833404123783" lon="12.156436694785953">
        <ele>1951.1300000000001</ele>
        <time>2015-07-17T06:06:51Z</time>
      </trkpt>
      <trkpt lat="46.414814796298742" lon="12.156441053375602">
        <ele>1951.1300000000001</ele>
        <time>2015-07-17T06:06:53Z</time>
      </trkpt>
      <trkpt lat="46.414720080792904" lon="12.156455721706152">
        <ele>1952.5699999999999</ele>
        <time>2015-07-17T06:07:04Z</time>
      </trkpt>
      <trkpt lat="46.414640285074711" lon="12.156447255983949">
        <ele>1954.02</ele>
        <time>2015-07-17T06:07:14Z</time>
      </trkpt>
      <trkpt lat="46.414606086909771" lon="12.156448345631361">
        <ele>1954.5</ele>
        <time>2015-07-17T06:07:18Z</time>
      </trkpt>
      <trkpt lat="46.41447750851512" lon="12.156486231833696">
        <ele>1954.5</ele>
        <time>2015-07-17T06:07:30Z</time>
      </trkpt>
      <trkpt lat="46.414378769695759" lon="12.15647860430181">
        <ele>1954.98</ele>
        <time>2015-07-17T06:07:42Z</time>
      </trkpt>
      <trkpt lat="46.414299476891756" lon="12.156456811353564">
        <ele>1955.46</ele>
        <time>2015-07-17T06:07:51Z</time>
      </trkpt>
      <trkpt lat="46.414276259019971" lon="12.156446166336536">
        <ele>1955.9400000000001</ele>
        <time>2015-07-17T06:07:54Z</time>
      </trkpt>
      <trkpt lat="46.414207359775901" lon="12.156459828838706">
        <ele>1956.4200000000001</ele>
        <time>2015-07-17T06:08:02Z</time>
      </trkpt>
      <trkpt lat="46.414186069741845" lon="12.156466785818338">
        <ele>1956.4200000000001</ele>
        <time>2015-07-17T06:08:04Z</time>
      </trkpt>
      <trkpt lat="46.414164863526821" lon="12.156470390036702">
        <ele>1956.4200000000001</ele>
        <time>2015-07-17T06:08:06Z</time>
      </trkpt>
      <trkpt lat="46.414047935977578" lon="12.156395791098475">
        <ele>1957.3800000000001</ele>
        <time>2015-07-17T06:08:18Z</time>
      </trkpt>
      <trkpt lat="46.413985574617982" lon="12.156375590711832">
        <ele>1957.8599999999999</ele>
        <time>2015-07-17T06:08:25Z</time>
      </trkpt>
      <trkpt lat="46.413961770012975" lon="12.15638623572886">
        <ele>1958.3399999999999</ele>
        <time>2015-07-17T06:08:27Z</time>
      </trkpt>
      <trkpt lat="46.413838220760226" lon="12.156381709501147">
        <ele>1958.3399999999999</ele>
        <time>2015-07-17T06:08:38Z</time>
      </trkpt>
      <trkpt lat="46.413702685385942" lon="12.156387660652399">
        <ele>1958.8199999999999</ele>
        <time>2015-07-17T06:08:50Z</time>
      </trkpt>
      <trkpt lat="46.413629176095128" lon="12.156364358961582">
        <ele>1959.78</ele>
        <time>2015-07-17T06:09:02Z</time>
      </trkpt>
      <trkpt lat="46.413574609905481" lon="12.156338458880782">
        <ele>1959.3</ele>
        <time>2015-07-17T06:09:11Z</time>
      </trkpt>
      <trkpt lat="46.413510739803314" lon="12.156373076140881">
        <ele>1959.3</ele>
        <time>2015-07-17T06:09:22Z</time>
      </trkpt>
      <trkpt lat="46.413516942411661" lon="12.156394114717841">
        <ele>1958.8199999999999</ele>
        <time>2015-07-17T06:09:31Z</time>
      </trkpt>
      <trkpt lat="46.413460448384285" lon="12.15639160014689">
        <ele>1959.3</ele>
        <time>2015-07-17T06:09:41Z</time>
      </trkpt>
      <trkpt lat="46.413404121994972" lon="12.156480196863413">
        <ele>1958.3399999999999</ele>
        <time>2015-07-17T06:09:52Z</time>
      </trkpt>
      <trkpt lat="46.413397584110498" lon="12.156485812738538">
        <ele>1958.3399999999999</ele>
        <time>2015-07-17T06:10:02Z</time>
      </trkpt>
      <trkpt lat="46.413397332653403" lon="12.156519340351224">
        <ele>1958.3399999999999</ele>
        <time>2015-07-17T06:10:05Z</time>
      </trkpt>
      <trkpt lat="46.413378641009331" lon="12.156590921804309">
        <ele>1957.8599999999999</ele>
        <time>2015-07-17T06:10:16Z</time>
      </trkpt>
      <trkpt lat="46.413361122831702" lon="12.156594274565578">
        <ele>1957.8599999999999</ele>
        <time>2015-07-17T06:10:34Z</time>
      </trkpt>
      <trkpt lat="46.413347544148564" lon="12.156593855470419">
        <ele>1957.8599999999999</ele>
        <time>2015-07-17T06:10:45Z</time>
      </trkpt>
      <trkpt lat="46.413344191387296" lon="12.156628472730517">
        <ele>1957.3800000000001</ele>
        <time>2015-07-17T06:11:02Z</time>
      </trkpt>
      <trkpt lat="46.413313848897815" lon="12.15669016353786">
        <ele>1956.9000000000001</ele>
        <time>2015-07-17T06:11:14Z</time>
      </trkpt>
      <trkpt lat="46.413279734551907" lon="12.156882276758552">
        <ele>1956.9000000000001</ele>
        <time>2015-07-17T06:11:26Z</time>
      </trkpt>
      <trkpt lat="46.413261126726866" lon="12.156955702230334">
        <ele>1955.46</ele>
        <time>2015-07-17T06:11:33Z</time>
      </trkpt>
      <trkpt lat="46.413265317678452" lon="12.157013956457376">
        <ele>1955.46</ele>
        <time>2015-07-17T06:11:37Z</time>
      </trkpt>
      <trkpt lat="46.413183342665434" lon="12.157188132405281">
        <ele>1954.5</ele>
        <time>2015-07-17T06:11:50Z</time>
      </trkpt>
      <trkpt lat="46.413144702091813" lon="12.157375132665038">
        <ele>1954.98</ele>
        <time>2015-07-17T06:12:02Z</time>
      </trkpt>
      <trkpt lat="46.413102373480797" lon="12.157561127096415">
        <ele>1955.46</ele>
        <time>2015-07-17T06:12:14Z</time>
      </trkpt>
      <trkpt lat="46.41307907178998" lon="12.157731950283051">
        <ele>1956.4200000000001</ele>
        <time>2015-07-17T06:12:25Z</time>
      </trkpt>
      <trkpt lat="46.413052249699831" lon="12.15788533911109">
        <ele>1957.3800000000001</ele>
        <time>2015-07-17T06:12:36Z</time>
      </trkpt>
      <trkpt lat="46.41302140429616" lon="12.158038895577192">
        <ele>1958.8199999999999</ele>
        <time>2015-07-17T06:12:47Z</time>
      </trkpt>
      <trkpt lat="46.412975052371621" lon="12.158178621903062">
        <ele>1960.27</ele>
        <time>2015-07-17T06:12:58Z</time>
      </trkpt>
      <trkpt lat="46.412966921925545" lon="12.158261518925428">
        <ele>1961.23</ele>
        <time>2015-07-17T06:13:05Z</time>
      </trkpt>
      <trkpt lat="46.412918390706182" lon="12.158426139503717">
        <ele>1962.1900000000001</ele>
        <time>2015-07-17T06:13:19Z</time>
      </trkpt>
      <trkpt lat="46.412912020459771" lon="12.15840719640255">
        <ele>1962.1900000000001</ele>
        <time>2015-07-17T06:13:31Z</time>
      </trkpt>
      <trkpt lat="46.412899699062109" lon="12.158451285213232">
        <ele>1961.71</ele>
        <time>2015-07-17T06:13:35Z</time>
      </trkpt>
      <trkpt lat="46.41284354031086" lon="12.158571230247617">
        <ele>1961.71</ele>
        <time>2015-07-17T06:13:43Z</time>
      </trkpt>
      <trkpt lat="46.412749411538243" lon="12.158772479742765">
        <ele>1961.23</ele>
        <time>2015-07-17T06:13:57Z</time>
      </trkpt>
      <trkpt lat="46.412669699639082" lon="12.158973226323724">
        <ele>1962.1900000000001</ele>
        <time>2015-07-17T06:14:12Z</time>
      </trkpt>
      <trkpt lat="46.412592250853777" lon="12.159026451408863">
        <ele>1963.1500000000001</ele>
        <time>2015-07-17T06:14:21Z</time>
      </trkpt>
      <trkpt lat="46.41256257891655" lon="12.159061403945088">
        <ele>1963.6300000000001</ele>
        <time>2015-07-17T06:14:27Z</time>
      </trkpt>
      <trkpt lat="46.412543216720223" lon="12.159126112237573">
        <ele>1964.1099999999999</ele>
        <time>2015-07-17T06:14:32Z</time>
      </trkpt>
      <trkpt lat="46.412537433207035" lon="12.159125776961446">
        <ele>1963.6300000000001</ele>
        <time>2015-07-17T06:14:40Z</time>
      </trkpt>
      <trkpt lat="46.412555957213044" lon="12.159216217696667">
        <ele>1964.5899999999999</ele>
        <time>2015-07-17T06:14:47Z</time>
      </trkpt>
      <trkpt lat="46.412589233368635" lon="12.15932191349566">
        <ele>1965.0699999999999</ele>
        <time>2015-07-17T06:14:55Z</time>
      </trkpt>
      <trkpt lat="46.41262661665678" lon="12.159399949014187">
        <ele>1965.0699999999999</ele>
        <time>2015-07-17T06:15:01Z</time>
      </trkpt>
      <trkpt lat="46.41262125223875" lon="12.159514781087637">
        <ele>1965.0699999999999</ele>
        <time>2015-07-17T06:15:08Z</time>
      </trkpt>
      <trkpt lat="46.412610020488501" lon="12.159675713628531">
        <ele>1965.55</ele>
        <time>2015-07-17T06:15:18Z</time>
      </trkpt>
      <trkpt lat="46.412596022710204" lon="12.159828850999475">
        <ele>1966.03</ele>
        <time>2015-07-17T06:15:28Z</time>
      </trkpt>
      <trkpt lat="46.412574565038085" lon="12.15995080769062">
        <ele>1966.51</ele>
        <time>2015-07-17T06:15:37Z</time>
      </trkpt>
      <trkpt lat="46.412550173699856" lon="12.160025238990784">
        <ele>1967.48</ele>
        <time>2015-07-17T06:15:43Z</time>
      </trkpt>
      <trkpt lat="46.412513963878155" lon="12.160163288936019">
        <ele>1968.4400000000001</ele>
        <time>2015-07-17T06:15:54Z</time>
      </trkpt>
      <trkpt lat="46.412485213950276" lon="12.160248532891273">
        <ele>1968.9200000000001</ele>
        <time>2015-07-17T06:16:03Z</time>
      </trkpt>
      <trkpt lat="46.412456128746271" lon="12.160322880372405">
        <ele>1969.8800000000001</ele>
        <time>2015-07-17T06:16:14Z</time>
      </trkpt>
      <trkpt lat="46.412433497607708" lon="12.160442406311631">
        <ele>1970.3599999999999</ele>
        <time>2015-07-17T06:16:23Z</time>
      </trkpt>
      <trkpt lat="46.412392510101199" lon="12.160571990534663">
        <ele>1971.3199999999999</ele>
        <time>2015-07-17T06:16:35Z</time>
      </trkpt>
      <trkpt lat="46.412352779880166" lon="12.16069495305419">
        <ele>1972.28</ele>
        <time>2015-07-17T06:16:45Z</time>
      </trkpt>
      <trkpt lat="46.412332160398364" lon="12.160798637196422">
        <ele>1972.76</ele>
        <time>2015-07-17T06:16:51Z</time>
      </trkpt>
      <trkpt lat="46.412304332479835" lon="12.160934675484896">
        <ele>1973.72</ele>
        <time>2015-07-17T06:17:00Z</time>
      </trkpt>
      <trkpt lat="46.412258567288518" lon="12.161020087078214">
        <ele>1974.6900000000001</ele>
        <time>2015-07-17T06:17:11Z</time>
      </trkpt>
      <trkpt lat="46.412244318053126" lon="12.160979099571705">
        <ele>1974.6900000000001</ele>
        <time>2015-07-17T06:17:26Z</time>
      </trkpt>
      <trkpt lat="46.412229482084513" lon="12.160975243896246">
        <ele>1974.6900000000001</ele>
        <time>2015-07-17T06:17:42Z</time>
      </trkpt>
      <trkpt lat="46.412230404093862" lon="12.16099058277905">
        <ele>1974.6900000000001</ele>
        <time>2015-07-17T06:17:54Z</time>
      </trkpt>
      <trkpt lat="46.412251694127917" lon="12.161011537536979">
        <ele>1974.6900000000001</ele>
        <time>2015-07-17T06:18:09Z</time>
      </trkpt>
      <trkpt lat="46.412239875644445" lon="12.161044394597411">
        <ele>1974.2</ele>
        <time>2015-07-17T06:18:13Z</time>
      </trkpt>
      <trkpt lat="46.412233840674162" lon="12.161222593858838">
        <ele>1975.1700000000001</ele>
        <time>2015-07-17T06:18:26Z</time>
      </trkpt>
      <trkpt lat="46.412215316668153" lon="12.161295264959335">
        <ele>1975.6500000000001</ele>
        <time>2015-07-17T06:18:31Z</time>
      </trkpt>
      <trkpt lat="46.412211460992694" lon="12.161398027092218">
        <ele>1975.6500000000001</ele>
        <time>2015-07-17T06:18:38Z</time>
      </trkpt>
      <trkpt lat="46.412200732156634" lon="12.161564994603395">
        <ele>1974.2</ele>
        <time>2015-07-17T06:18:49Z</time>
      </trkpt>
      <trkpt lat="46.412205174565315" lon="12.161666583269835">
        <ele>1972.28</ele>
        <time>2015-07-17T06:18:56Z</time>
      </trkpt>
      <trkpt lat="46.41220492310822" lon="12.161695417016745">
        <ele>1972.76</ele>
        <time>2015-07-17T06:18:58Z</time>
      </trkpt>
      <trkpt lat="46.412196038290858" lon="12.161708995699883">
        <ele>1971.8</ele>
        <time>2015-07-17T06:19:07Z</time>
      </trkpt>
      <trkpt lat="46.412215568125248" lon="12.161832796409726">
        <ele>1970.8399999999999</ele>
        <time>2015-07-17T06:19:16Z</time>
      </trkpt>
      <trkpt lat="46.412216993048787" lon="12.161998590454459">
        <ele>1971.3199999999999</ele>
        <time>2015-07-17T06:19:26Z</time>
      </trkpt>
      <trkpt lat="46.412241887301207" lon="12.162084504961967">
        <ele>1971.8</ele>
        <time>2015-07-17T06:19:33Z</time>
      </trkpt>
      <trkpt lat="46.412290753796697" lon="12.16225222684443">
        <ele>1971.8</ele>
        <time>2015-07-17T06:19:44Z</time>
      </trkpt>
      <trkpt lat="46.412344733253121" lon="12.16245305724442">
        <ele>1971.3199999999999</ele>
        <time>2015-07-17T06:19:56Z</time>
      </trkpt>
      <trkpt lat="46.412391420453787" lon="12.162555148825049">
        <ele>1970.8399999999999</ele>
        <time>2015-07-17T06:20:04Z</time>
      </trkpt>
      <trkpt lat="46.412467276677489" lon="12.162671238183975">
        <ele>1971.8</ele>
        <time>2015-07-17T06:20:15Z</time>
      </trkpt>
      <trkpt lat="46.41248244792223" lon="12.162757152691483">
        <ele>1971.8</ele>
        <time>2015-07-17T06:20:20Z</time>
      </trkpt>
      <trkpt lat="46.412580600008368" lon="12.162918085232377">
        <ele>1971.8</ele>
        <time>2015-07-17T06:20:32Z</time>
      </trkpt>
      <trkpt lat="46.412622844800353" lon="12.162974998354912">
        <ele>1972.28</ele>
        <time>2015-07-17T06:20:37Z</time>
      </trkpt>
      <trkpt lat="46.412651846185327" lon="12.163039706647396">
        <ele>1971.8</ele>
        <time>2015-07-17T06:20:48Z</time>
      </trkpt>
      <trkpt lat="46.412630556151271" lon="12.163030821830034">
        <ele>1971.8</ele>
        <time>2015-07-17T06:21:01Z</time>
      </trkpt>
      <trkpt lat="46.412625778466463" lon="12.163036102429032">
        <ele>1972.28</ele>
        <time>2015-07-17T06:21:24Z</time>
      </trkpt>
      <trkpt lat="46.41265251673758" lon="12.163042724132538">
        <ele>1971.8</ele>
        <time>2015-07-17T06:21:33Z</time>
      </trkpt>
      <trkpt lat="46.412723511457443" lon="12.163194352760911">
        <ele>1971.8</ele>
        <time>2015-07-17T06:21:43Z</time>
      </trkpt>
      <trkpt lat="46.41279517672956" lon="12.163413874804974">
        <ele>1971.3199999999999</ele>
        <time>2015-07-17T06:21:57Z</time>
      </trkpt>
      <trkpt lat="46.412828369066119" lon="12.163557875901461">
        <ele>1971.3199999999999</ele>
        <time>2015-07-17T06:22:06Z</time>
      </trkpt>
      <trkpt lat="46.412943201139569" lon="12.163686957210302">
        <ele>1968.4400000000001</ele>
        <time>2015-07-17T06:22:19Z</time>
      </trkpt>
      <trkpt lat="46.413096925243735" lon="12.163780080154538">
        <ele>1966.51</ele>
        <time>2015-07-17T06:22:33Z</time>
      </trkpt>
      <trkpt lat="46.413163561373949" lon="12.163748648017645">
        <ele>1966.99</ele>
        <time>2015-07-17T06:22:40Z</time>
      </trkpt>
      <trkpt lat="46.413227096199989" lon="12.163781421259046">
        <ele>1966.03</ele>
        <time>2015-07-17T06:22:45Z</time>
      </trkpt>
      <trkpt lat="46.41333119943738" lon="12.163863815367222">
        <ele>1964.1099999999999</ele>
        <time>2015-07-17T06:22:56Z</time>
      </trkpt>
      <trkpt lat="46.413336899131536" lon="12.163900192826986">
        <ele>1963.1500000000001</ele>
        <time>2015-07-17T06:22:59Z</time>
      </trkpt>
      <trkpt lat="46.413357937708497" lon="12.163963811472058">
        <ele>1963.1500000000001</ele>
        <time>2015-07-17T06:23:04Z</time>
      </trkpt>
      <trkpt lat="46.413379814475775" lon="12.163985520601273">
        <ele>1961.71</ele>
        <time>2015-07-17T06:23:06Z</time>
      </trkpt>
      <trkpt lat="46.413468075916171" lon="12.164044110104442">
        <ele>1958.8199999999999</ele>
        <time>2015-07-17T06:23:16Z</time>
      </trkpt>
      <trkpt lat="46.413457430899143" lon="12.164138574153185">
        <ele>1956.4200000000001</ele>
        <time>2015-07-17T06:23:26Z</time>
      </trkpt>
      <trkpt lat="46.413447037339211" lon="12.164148464798927">
        <ele>1955.46</ele>
        <time>2015-07-17T06:23:28Z</time>
      </trkpt>
      <trkpt lat="46.413385765627027" lon="12.164177130907774">
        <ele>1954.02</ele>
        <time>2015-07-17T06:23:33Z</time>
      </trkpt>
      <trkpt lat="46.413341928273439" lon="12.164251981303096">
        <ele>1953.0599999999999</ele>
        <time>2015-07-17T06:23:39Z</time>
      </trkpt>
      <trkpt lat="46.413292475044727" lon="12.164359604939818">
        <ele>1952.0899999999999</ele>
        <time>2015-07-17T06:23:47Z</time>
      </trkpt>
      <trkpt lat="46.413231203332543" lon="12.164600249379873">
        <ele>1950.6500000000001</ele>
        <time>2015-07-17T06:24:01Z</time>
      </trkpt>
      <trkpt lat="46.413117125630379" lon="12.164756152778864">
        <ele>1948.25</ele>
        <time>2015-07-17T06:24:14Z</time>
      </trkpt>
      <trkpt lat="46.413076808676124" lon="12.164866290986538">
        <ele>1948.25</ele>
        <time>2015-07-17T06:24:25Z</time>
      </trkpt>
      <trkpt lat="46.413058787584305" lon="12.16485807672143">
        <ele>1948.25</ele>
        <time>2015-07-17T06:24:34Z</time>
      </trkpt>
      <trkpt lat="46.413099691271782" lon="12.164952037855983">
        <ele>1946.8099999999999</ele>
        <time>2015-07-17T06:24:43Z</time>
      </trkpt>
      <trkpt lat="46.413088878616691" lon="12.165094362571836">
        <ele>1945.3599999999999</ele>
        <time>2015-07-17T06:24:53Z</time>
      </trkpt>
      <trkpt lat="46.413056356832385" lon="12.16522553935647">
        <ele>1942.96</ele>
        <time>2015-07-17T06:25:04Z</time>
      </trkpt>
      <trkpt lat="46.413049064576626" lon="12.165232161059976">
        <ele>1942.48</ele>
        <time>2015-07-17T06:25:05Z</time>
      </trkpt>
      <trkpt lat="46.412979075685143" lon="12.165342718362808">
        <ele>1940.5599999999999</ele>
        <time>2015-07-17T06:25:16Z</time>
      </trkpt>
      <trkpt lat="46.412961138412356" lon="12.165439696982503">
        <ele>1939.1199999999999</ele>
        <time>2015-07-17T06:25:22Z</time>
      </trkpt>
      <trkpt lat="46.412928281351924" lon="12.165484791621566">
        <ele>1938.1600000000001</ele>
        <time>2015-07-17T06:25:27Z</time>
      </trkpt>
      <trkpt lat="46.41287824138999" lon="12.165637593716383">
        <ele>1934.79</ele>
        <time>2015-07-17T06:25:39Z</time>
      </trkpt>
      <trkpt lat="46.41278151422739" lon="12.165743038058281">
        <ele>1932.8699999999999</ele>
        <time>2015-07-17T06:25:51Z</time>
      </trkpt>
      <trkpt lat="46.412774976342916" lon="12.165754353627563">
        <ele>1932.3900000000001</ele>
        <time>2015-07-17T06:25:52Z</time>
      </trkpt>
      <trkpt lat="46.412706077098846" lon="12.165917465463281">
        <ele>1930.95</ele>
        <time>2015-07-17T06:26:05Z</time>
      </trkpt>
      <trkpt lat="46.412701550871134" lon="12.165943868458271">
        <ele>1930.95</ele>
        <time>2015-07-17T06:26:07Z</time>
      </trkpt>
      <trkpt lat="46.412696018815041" lon="12.165990555658937">
        <ele>1929.5</ele>
        <time>2015-07-17T06:26:10Z</time>
      </trkpt>
      <trkpt lat="46.412682021036744" lon="12.166141513735056">
        <ele>1927.5799999999999</ele>
        <time>2015-07-17T06:26:21Z</time>
      </trkpt>
      <trkpt lat="46.412684116512537" lon="12.16629515402019">
        <ele>1925.1800000000001</ele>
        <time>2015-07-17T06:26:32Z</time>
      </trkpt>
      <trkpt lat="46.412692330777645" lon="12.166338823735714">
        <ele>1924.22</ele>
        <time>2015-07-17T06:26:35Z</time>
      </trkpt>
      <trkpt lat="46.412738934159279" lon="12.166501600295305">
        <ele>1923.25</ele>
        <time>2015-07-17T06:26:47Z</time>
      </trkpt>
      <trkpt lat="46.412791237235069" lon="12.16654971241951">
        <ele>1921.8099999999999</ele>
        <time>2015-07-17T06:26:53Z</time>
      </trkpt>
      <trkpt lat="46.412774138152599" lon="12.166708717122674">
        <ele>1918.9300000000001</ele>
        <time>2015-07-17T06:27:04Z</time>
      </trkpt>
      <trkpt lat="46.412769192829728" lon="12.166739897802472">
        <ele>1918.45</ele>
        <time>2015-07-17T06:27:06Z</time>
      </trkpt>
      <trkpt lat="46.412775479257107" lon="12.166768983006477">
        <ele>1917.97</ele>
        <time>2015-07-17T06:27:08Z</time>
      </trkpt>
      <trkpt lat="46.412867931649089" lon="12.166827572509646">
        <ele>1915.5599999999999</ele>
        <time>2015-07-17T06:27:19Z</time>
      </trkpt>
      <trkpt lat="46.412930125370622" lon="12.166911559179425">
        <ele>1914.5999999999999</ele>
        <time>2015-07-17T06:27:29Z</time>
      </trkpt>
      <trkpt lat="46.412937249988317" lon="12.16693427413702">
        <ele>1914.1199999999999</ele>
        <time>2015-07-17T06:27:36Z</time>
      </trkpt>
      <trkpt lat="46.41296130605042" lon="12.166938716545701">
        <ele>1913.6400000000001</ele>
        <time>2015-07-17T06:27:49Z</time>
      </trkpt>
      <trkpt lat="46.412974800914526" lon="12.166931508108974">
        <ele>1913.6400000000001</ele>
        <time>2015-07-17T06:28:05Z</time>
      </trkpt>
      <trkpt lat="46.412953259423375" lon="12.166942153126001">
        <ele>1914.5999999999999</ele>
        <time>2015-07-17T06:28:13Z</time>
      </trkpt>
      <trkpt lat="46.41300531104207" lon="12.167076347395778">
        <ele>1912.2</ele>
        <time>2015-07-17T06:28:25Z</time>
      </trkpt>
      <trkpt lat="46.413028696551919" lon="12.167176092043519">
        <ele>1911.24</ele>
        <time>2015-07-17T06:28:36Z</time>
      </trkpt>
      <trkpt lat="46.413029199466109" lon="12.167187910526991">
        <ele>1911.24</ele>
        <time>2015-07-17T06:28:37Z</time>
      </trkpt>
      <trkpt lat="46.413101619109511" lon="12.167261755093932">
        <ele>1909.8</ele>
        <time>2015-07-17T06:28:46Z</time>
      </trkpt>
      <trkpt lat="46.413146210834384" lon="12.167365942150354">
        <ele>1908.8299999999999</ele>
        <time>2015-07-17T06:28:54Z</time>
      </trkpt>
      <trkpt lat="46.413180157542229" lon="12.167508099228144">
        <ele>1907.8699999999999</ele>
        <time>2015-07-17T06:29:03Z</time>
      </trkpt>
      <trkpt lat="46.413255007937551" lon="12.167630726471543">
        <ele>1906.4300000000001</ele>
        <time>2015-07-17T06:29:13Z</time>
      </trkpt>
      <trkpt lat="46.413349974900484" lon="12.167729381471872">
        <ele>1905.95</ele>
        <time>2015-07-17T06:29:23Z</time>
      </trkpt>
      <trkpt lat="46.413380987942219" lon="12.167771374806762">
        <ele>1904.99</ele>
        <time>2015-07-17T06:29:27Z</time>
      </trkpt>
      <trkpt lat="46.413423819467425" lon="12.16779132373631">
        <ele>1904.03</ele>
        <time>2015-07-17T06:29:31Z</time>
      </trkpt>
      <trkpt lat="46.413482576608658" lon="12.167863827198744">
        <ele>1902.5899999999999</ele>
        <time>2015-07-17T06:29:37Z</time>
      </trkpt>
      <trkpt lat="46.413665134459734" lon="12.167999781668186">
        <ele>1900.6600000000001</ele>
        <time>2015-07-17T06:29:53Z</time>
      </trkpt>
      <trkpt lat="46.413780469447374" lon="12.168175550177693">
        <ele>1898.74</ele>
        <time>2015-07-17T06:30:06Z</time>
      </trkpt>
      <trkpt lat="46.413878705352545" lon="12.168279904872179">
        <ele>1895.3800000000001</ele>
        <time>2015-07-17T06:30:16Z</time>
      </trkpt>
      <trkpt lat="46.413926901295781" lon="12.168383253738284">
        <ele>1893.45</ele>
        <time>2015-07-17T06:30:23Z</time>
      </trkpt>
      <trkpt lat="46.414042906835675" lon="12.168432455509901">
        <ele>1891.53</ele>
        <time>2015-07-17T06:30:32Z</time>
      </trkpt>
      <trkpt lat="46.414154805243015" lon="12.16854871250689">
        <ele>1890.0899999999999</ele>
        <time>2015-07-17T06:30:44Z</time>
      </trkpt>
      <trkpt lat="46.414275672286749" lon="12.168652480468154">
        <ele>1889.6099999999999</ele>
        <time>2015-07-17T06:30:57Z</time>
      </trkpt>
      <trkpt lat="46.414388408884406" lon="12.16866840608418">
        <ele>1889.1300000000001</ele>
        <time>2015-07-17T06:31:07Z</time>
      </trkpt>
      <trkpt lat="46.414416907355189" lon="12.168675279244781">
        <ele>1886.24</ele>
        <time>2015-07-17T06:31:10Z</time>
      </trkpt>
      <trkpt lat="46.414424786344171" lon="12.168675949797034">
        <ele>1886.24</ele>
        <time>2015-07-17T06:31:11Z</time>
      </trkpt>
      <trkpt lat="46.414456050843" lon="12.168680978938937">
        <ele>1886.24</ele>
        <time>2015-07-17T06:31:14Z</time>
      </trkpt>
      <trkpt lat="46.414583623409271" lon="12.168807797133923">
        <ele>1883.8399999999999</ele>
        <time>2015-07-17T06:31:26Z</time>
      </trkpt>
      <trkpt lat="46.414679847657681" lon="12.168823471292853">
        <ele>1883.8399999999999</ele>
        <time>2015-07-17T06:31:36Z</time>
      </trkpt>
      <trkpt lat="46.414726199582219" lon="12.168820286169648">
        <ele>1883.3599999999999</ele>
        <time>2015-07-17T06:31:41Z</time>
      </trkpt>
      <trkpt lat="46.414814461022615" lon="12.1688780374825">
        <ele>1881.9200000000001</ele>
        <time>2015-07-17T06:31:51Z</time>
      </trkpt>
      <trkpt lat="46.414821334183216" lon="12.168879881501198">
        <ele>1881.9200000000001</ele>
        <time>2015-07-17T06:31:52Z</time>
      </trkpt>
      <trkpt lat="46.414961814880371" lon="12.16892397031188">
        <ele>1880</ele>
        <time>2015-07-17T06:32:05Z</time>
      </trkpt>
      <trkpt lat="46.415089387446642" lon="12.168996641412377">
        <ele>1877.1099999999999</ele>
        <time>2015-07-17T06:32:18Z</time>
      </trkpt>
      <trkpt lat="46.415138924494386" lon="12.169033270329237">
        <ele>1875.6700000000001</ele>
        <time>2015-07-17T06:32:25Z</time>
      </trkpt>
      <trkpt lat="46.415195418521762" lon="12.169078281149268">
        <ele>1873.75</ele>
        <time>2015-07-17T06:32:33Z</time>
      </trkpt>
      <trkpt lat="46.415233556181192" lon="12.169207781553268">
        <ele>1871.3399999999999</ele>
        <time>2015-07-17T06:32:43Z</time>
      </trkpt>
      <trkpt lat="46.41528083011508" lon="12.16923669911921">
        <ele>1869.9000000000001</ele>
        <time>2015-07-17T06:32:49Z</time>
      </trkpt>
      <trkpt lat="46.415365152060986" lon="12.169310292229056">
        <ele>1867.5</ele>
        <time>2015-07-17T06:32:59Z</time>
      </trkpt>
      <trkpt lat="46.415412090718746" lon="12.169343568384647">
        <ele>1866.54</ele>
        <time>2015-07-17T06:33:03Z</time>
      </trkpt>
      <trkpt lat="46.415535975247622" lon="12.169466698542237">
        <ele>1862.6900000000001</ele>
        <time>2015-07-17T06:33:15Z</time>
      </trkpt>
      <trkpt lat="46.415683412924409" lon="12.169632576406002">
        <ele>1861.25</ele>
        <time>2015-07-17T06:33:29Z</time>
      </trkpt>
      <trkpt lat="46.415718868374825" lon="12.169668367132545">
        <ele>1860.77</ele>
        <time>2015-07-17T06:33:33Z</time>
      </trkpt>
      <trkpt lat="46.415846776217222" lon="12.169770710170269">
        <ele>1858.3699999999999</ele>
        <time>2015-07-17T06:33:44Z</time>
      </trkpt>
      <trkpt lat="46.415943754836917" lon="12.169807339087129">
        <ele>1858.3699999999999</ele>
        <time>2015-07-17T06:33:53Z</time>
      </trkpt>
      <trkpt lat="46.415974348783493" lon="12.169848913326859">
        <ele>1858.8499999999999</ele>
        <time>2015-07-17T06:33:59Z</time>
      </trkpt>
      <trkpt lat="46.416063448414207" lon="12.170036248862743">
        <ele>1855.48</ele>
        <time>2015-07-17T06:34:13Z</time>
      </trkpt>
      <trkpt lat="46.416084906086326" lon="12.170224506407976">
        <ele>1853.0799999999999</ele>
        <time>2015-07-17T06:34:25Z</time>
      </trkpt>
      <trkpt lat="46.416120110079646" lon="12.170384852215648">
        <ele>1850.6800000000001</ele>
        <time>2015-07-17T06:34:37Z</time>
      </trkpt>
      <trkpt lat="46.416149698197842" lon="12.170497588813305">
        <ele>1847.79</ele>
        <time>2015-07-17T06:34:46Z</time>
      </trkpt>
      <trkpt lat="46.416240809485316" lon="12.170582078397274">
        <ele>1845.3900000000001</ele>
        <time>2015-07-17T06:34:54Z</time>
      </trkpt>
      <trkpt lat="46.416372237727046" lon="12.17070646584034">
        <ele>1844.4300000000001</ele>
        <time>2015-07-17T06:35:07Z</time>
      </trkpt>
      <trkpt lat="46.416380871087313" lon="12.170716188848019">
        <ele>1844.4300000000001</ele>
        <time>2015-07-17T06:35:08Z</time>
      </trkpt>
      <trkpt lat="46.416458236053586" lon="12.170820543542504">
        <ele>1843.47</ele>
        <time>2015-07-17T06:35:17Z</time>
      </trkpt>
      <trkpt lat="46.416472317650914" lon="12.17084820382297">
        <ele>1842.98</ele>
        <time>2015-07-17T06:35:19Z</time>
      </trkpt>
      <trkpt lat="46.416489416733384" lon="12.170889526605606">
        <ele>1842.98</ele>
        <time>2015-07-17T06:35:22Z</time>
      </trkpt>
      <trkpt lat="46.416526548564434" lon="12.170936465263367">
        <ele>1842.5</ele>
        <time>2015-07-17T06:35:26Z</time>
      </trkpt>
      <trkpt lat="46.416663005948067" lon="12.171091279014945">
        <ele>1840.0999999999999</ele>
        <time>2015-07-17T06:35:40Z</time>
      </trkpt>
      <trkpt lat="46.416702484712005" lon="12.171212397515774">
        <ele>1838.6600000000001</ele>
        <time>2015-07-17T06:35:51Z</time>
      </trkpt>
      <trkpt lat="46.416762499138713" lon="12.17133435420692">
        <ele>1838.1800000000001</ele>
        <time>2015-07-17T06:35:59Z</time>
      </trkpt>
      <trkpt lat="46.416776245459914" lon="12.171359583735466">
        <ele>1838.1800000000001</ele>
        <time>2015-07-17T06:36:01Z</time>
      </trkpt>
      <trkpt lat="46.416823854669929" lon="12.171473912894726">
        <ele>1837.7</ele>
        <time>2015-07-17T06:36:09Z</time>
      </trkpt>
      <trkpt lat="46.416829722002149" lon="12.171486904844642">
        <ele>1837.22</ele>
        <time>2015-07-17T06:36:10Z</time>
      </trkpt>
      <trkpt lat="46.41686886548996" lon="12.171588577330112">
        <ele>1835.77</ele>
        <time>2015-07-17T06:36:20Z</time>
      </trkpt>
      <trkpt lat="46.416866350919008" lon="12.171683041378856">
        <ele>1833.8499999999999</ele>
        <time>2015-07-17T06:36:30Z</time>
      </trkpt>
      <trkpt lat="46.416873810812831" lon="12.17171547934413">
        <ele>1832.4100000000001</ele>
        <time>2015-07-17T06:36:39Z</time>
      </trkpt>
      <trkpt lat="46.416870038956404" lon="12.17173358425498">
        <ele>1831.9300000000001</ele>
        <time>2015-07-17T06:36:49Z</time>
      </trkpt>
      <trkpt lat="46.416812371462584" lon="12.171749677509069">
        <ele>1829.05</ele>
        <time>2015-07-17T06:36:56Z</time>
      </trkpt>
      <trkpt lat="46.416768115013838" lon="12.171830227598548">
        <ele>1825.6800000000001</ele>
        <time>2015-07-17T06:37:03Z</time>
      </trkpt>
      <trkpt lat="46.416719499975443" lon="12.171879848465323">
        <ele>1824.24</ele>
        <time>2015-07-17T06:37:09Z</time>
      </trkpt>
      <trkpt lat="46.416633417829871" lon="12.172057209536433">
        <ele>1821.8399999999999</ele>
        <time>2015-07-17T06:37:23Z</time>
      </trkpt>
      <trkpt lat="46.416623946279287" lon="12.172064417973161">
        <ele>1821.8399999999999</ele>
        <time>2015-07-17T06:37:24Z</time>
      </trkpt>
      <trkpt lat="46.416595950722694" lon="12.172077409923077">
        <ele>1821.3499999999999</ele>
        <time>2015-07-17T06:37:27Z</time>
      </trkpt>
      <trkpt lat="46.41660206951201" lon="12.172192996367812">
        <ele>1821.8399999999999</ele>
        <time>2015-07-17T06:37:34Z</time>
      </trkpt>
      <trkpt lat="46.416595950722694" lon="12.172265248373151">
        <ele>1822.3199999999999</ele>
        <time>2015-07-17T06:37:39Z</time>
      </trkpt>
      <trkpt lat="46.416610702872276" lon="12.172290477901697">
        <ele>1821.8399999999999</ele>
        <time>2015-07-17T06:37:47Z</time>
      </trkpt>
      <trkpt lat="46.416633334010839" lon="12.172241946682334">
        <ele>1821.3499999999999</ele>
        <time>2015-07-17T06:37:51Z</time>
      </trkpt>
      <trkpt lat="46.416643895208836" lon="12.172167180106044">
        <ele>1820.3900000000001</ele>
        <time>2015-07-17T06:37:55Z</time>
      </trkpt>
      <trkpt lat="46.41671497374773" lon="12.17207171022892">
        <ele>1820.8699999999999</ele>
        <time>2015-07-17T06:38:03Z</time>
      </trkpt>
      <trkpt lat="46.416725870221853" lon="12.172069614753127">
        <ele>1821.3499999999999</ele>
        <time>2015-07-17T06:38:13Z</time>
      </trkpt>
      <trkpt lat="46.416712459176779" lon="12.172038517892361">
        <ele>1820.8699999999999</ele>
        <time>2015-07-17T06:38:24Z</time>
      </trkpt>
      <trkpt lat="46.416672645136714" lon="12.172015216201544">
        <ele>1822.3199999999999</ele>
        <time>2015-07-17T06:38:32Z</time>
      </trkpt>
      <trkpt lat="46.416661916300654" lon="12.171999961137772">
        <ele>1822.3199999999999</ele>
        <time>2015-07-17T06:38:41Z</time>
      </trkpt>
      <trkpt lat="46.416629981249571" lon="12.172042457386851">
        <ele>1821.3499999999999</ele>
        <time>2015-07-17T06:38:53Z</time>
      </trkpt>
      <trkpt lat="46.416622353717685" lon="12.172041870653629">
        <ele>1820.8699999999999</ele>
        <time>2015-07-17T06:38:54Z</time>
      </trkpt>
      <trkpt lat="46.416592346504331" lon="12.172058718279004">
        <ele>1821.8399999999999</ele>
        <time>2015-07-17T06:38:58Z</time>
      </trkpt>
      <trkpt lat="46.416545240208507" lon="12.172176400199533">
        <ele>1822.8</ele>
        <time>2015-07-17T06:39:09Z</time>
      </trkpt>
      <trkpt lat="46.416508862748742" lon="12.172253262251616">
        <ele>1822.3199999999999</ele>
        <time>2015-07-17T06:39:14Z</time>
      </trkpt>
      <trkpt lat="46.4164022449404" lon="12.172384271398187">
        <ele>1822.8</ele>
        <time>2015-07-17T06:39:27Z</time>
      </trkpt>
      <trkpt lat="46.416349187493324" lon="12.172461301088333">
        <ele>1822.3199999999999</ele>
        <time>2015-07-17T06:39:34Z</time>
      </trkpt>
      <trkpt lat="46.416405010968447" lon="12.172635309398174">
        <ele>1820.8699999999999</ele>
        <time>2015-07-17T06:39:43Z</time>
      </trkpt>
      <trkpt lat="46.416486147791147" lon="12.172755086794496">
        <ele>1817.99</ele>
        <time>2015-07-17T06:39:52Z</time>
      </trkpt>
      <trkpt lat="46.416495116427541" lon="12.172786016017199">
        <ele>1817.51</ele>
        <time>2015-07-17T06:39:54Z</time>
      </trkpt>
      <trkpt lat="46.416466534137726" lon="12.172859022393823">
        <ele>1817.03</ele>
        <time>2015-07-17T06:40:02Z</time>
      </trkpt>
      <trkpt lat="46.416461672633886" lon="12.172898501157761">
        <ele>1816.0699999999999</ele>
        <time>2015-07-17T06:40:04Z</time>
      </trkpt>
      <trkpt lat="46.416431833058596" lon="12.173008974641562">
        <ele>1814.6300000000001</ele>
        <time>2015-07-17T06:40:11Z</time>
      </trkpt>
      <trkpt lat="46.416454799473286" lon="12.173064881935716">
        <ele>1813.1800000000001</ele>
        <time>2015-07-17T06:40:15Z</time>
      </trkpt>
      <trkpt lat="46.416519926860929" lon="12.173111569136381">
        <ele>1813.1800000000001</ele>
        <time>2015-07-17T06:40:25Z</time>
      </trkpt>
      <trkpt lat="46.416544234380126" lon="12.173134870827198">
        <ele>1812.22</ele>
        <time>2015-07-17T06:40:38Z</time>
      </trkpt>
      <trkpt lat="46.41656544059515" lon="12.173154568299651">
        <ele>1805.01</ele>
        <time>2015-07-17T06:40:43Z</time>
      </trkpt>
      <trkpt lat="46.416563848033547" lon="12.173151886090636">
        <ele>1810.78</ele>
        <time>2015-07-17T06:40:44Z</time>
      </trkpt>
      <trkpt lat="46.416566697880626" lon="12.173151802271605">
        <ele>1807.4200000000001</ele>
        <time>2015-07-17T06:40:46Z</time>
      </trkpt>
      <trkpt lat="46.416570218279958" lon="12.173154819756746">
        <ele>1814.1500000000001</ele>
        <time>2015-07-17T06:40:47Z</time>
      </trkpt>
      <trkpt lat="46.416574493050575" lon="12.173155741766095">
        <ele>1809.3399999999999</ele>
        <time>2015-07-17T06:40:48Z</time>
      </trkpt>
      <trkpt lat="46.416598213836551" lon="12.173126740381122">
        <ele>1810.3</ele>
        <time>2015-07-17T06:40:53Z</time>
      </trkpt>
      <trkpt lat="46.416676584631205" lon="12.173069072887301">
        <ele>1810.3</ele>
        <time>2015-07-17T06:41:04Z</time>
      </trkpt>
      <trkpt lat="46.416755374521017" lon="12.173075275495648">
        <ele>1809.8199999999999</ele>
        <time>2015-07-17T06:41:12Z</time>
      </trkpt>
      <trkpt lat="46.416775994002819" lon="12.173037556931376">
        <ele>1810.3</ele>
        <time>2015-07-17T06:41:15Z</time>
      </trkpt>
      <trkpt lat="46.416818741708994" lon="12.172917444258928">
        <ele>1811.26</ele>
        <time>2015-07-17T06:41:26Z</time>
      </trkpt>
      <trkpt lat="46.416776496917009" lon="12.172845527529716">
        <ele>1812.22</ele>
        <time>2015-07-17T06:41:35Z</time>
      </trkpt>
      <trkpt lat="46.416765432804823" lon="12.172852568328381">
        <ele>1812.22</ele>
        <time>2015-07-17T06:41:37Z</time>
      </trkpt>
      <trkpt lat="46.416763085871935" lon="12.172822561115026">
        <ele>1813.1800000000001</ele>
        <time>2015-07-17T06:41:40Z</time>
      </trkpt>
      <trkpt lat="46.416758643463254" lon="12.172732204198837">
        <ele>1814.1500000000001</ele>
        <time>2015-07-17T06:41:47Z</time>
      </trkpt>
      <trkpt lat="46.416719080880284" lon="12.172638243064284">
        <ele>1815.5899999999999</ele>
        <time>2015-07-17T06:41:57Z</time>
      </trkpt>
      <trkpt lat="46.416701478883624" lon="12.172564398497343">
        <ele>1815.5899999999999</ele>
        <time>2015-07-17T06:42:09Z</time>
      </trkpt>
      <trkpt lat="46.41669200733304" lon="12.172565488144755">
        <ele>1816.0699999999999</ele>
        <time>2015-07-17T06:42:11Z</time>
      </trkpt>
      <trkpt lat="46.416641212999821" lon="12.172529362142086">
        <ele>1816.55</ele>
        <time>2015-07-17T06:42:18Z</time>
      </trkpt>
      <trkpt lat="46.416598884388804" lon="12.172439759597182">
        <ele>1817.99</ele>
        <time>2015-07-17T06:42:28Z</time>
      </trkpt>
      <trkpt lat="46.416583964601159" lon="12.172363316640258">
        <ele>1819.4300000000001</ele>
        <time>2015-07-17T06:42:37Z</time>
      </trkpt>
      <trkpt lat="46.416592262685299" lon="12.172218561172485">
        <ele>1820.8699999999999</ele>
        <time>2015-07-17T06:42:48Z</time>
      </trkpt>
      <trkpt lat="46.416581701487303" lon="12.17209710739553">
        <ele>1820.3900000000001</ele>
        <time>2015-07-17T06:42:57Z</time>
      </trkpt>
      <trkpt lat="46.416572146117687" lon="12.172059891745448">
        <ele>1820.3900000000001</ele>
        <time>2015-07-17T06:43:01Z</time>
      </trkpt>
      <trkpt lat="46.416582623496652" lon="12.171973641961813">
        <ele>1820.8699999999999</ele>
        <time>2015-07-17T06:43:10Z</time>
      </trkpt>
      <trkpt lat="46.41654884442687" lon="12.171885883435607">
        <ele>1821.3499999999999</ele>
        <time>2015-07-17T06:43:18Z</time>
      </trkpt>
      <trkpt lat="46.416478101164103" lon="12.171848164871335">
        <ele>1821.3499999999999</ele>
        <time>2015-07-17T06:43:27Z</time>
      </trkpt>
      <trkpt lat="46.416459325700998" lon="12.171854954212904">
        <ele>1821.3499999999999</ele>
        <time>2015-07-17T06:43:31Z</time>
      </trkpt>
      <trkpt lat="46.416499894112349" lon="12.171750012785196">
        <ele>1823.28</ele>
        <time>2015-07-17T06:43:43Z</time>
      </trkpt>
      <trkpt lat="46.416498050093651" lon="12.17173702083528">
        <ele>1822.3199999999999</ele>
        <time>2015-07-17T06:43:54Z</time>
      </trkpt>
      <trkpt lat="46.416520094498992" lon="12.171739619225264">
        <ele>1822.3199999999999</ele>
        <time>2015-07-17T06:44:18Z</time>
      </trkpt>
      <trkpt lat="46.416512886062264" lon="12.171709528192878">
        <ele>1822.3199999999999</ele>
        <time>2015-07-17T06:44:47Z</time>
      </trkpt>
      <trkpt lat="46.416515065357089" lon="12.171737272292376">
        <ele>1822.3199999999999</ele>
        <time>2015-07-17T06:45:06Z</time>
      </trkpt>
      <trkpt lat="46.41651414334774" lon="12.171762753278017">
        <ele>1822.3199999999999</ele>
        <time>2015-07-17T06:45:24Z</time>
      </trkpt>
      <trkpt lat="46.416525542736053" lon="12.171774404123425">
        <ele>1822.3199999999999</ele>
        <time>2015-07-17T06:45:42Z</time>
      </trkpt>
      <trkpt lat="46.416489249095321" lon="12.171691507101059">
        <ele>1824.72</ele>
        <time>2015-07-17T06:45:51Z</time>
      </trkpt>
      <trkpt lat="46.416445579379797" lon="12.171612214297056">
        <ele>1826.6400000000001</ele>
        <time>2015-07-17T06:46:00Z</time>
      </trkpt>
      <trkpt lat="46.416436610743403" lon="12.171495035290718">
        <ele>1828.5599999999999</ele>
        <time>2015-07-17T06:46:12Z</time>
      </trkpt>
      <trkpt lat="46.41646577976644" lon="12.171386405825615">
        <ele>1829.05</ele>
        <time>2015-07-17T06:46:22Z</time>
      </trkpt>
      <trkpt lat="46.416481956839561" lon="12.171281548216939">
        <ele>1830.97</ele>
        <time>2015-07-17T06:46:33Z</time>
      </trkpt>
      <trkpt lat="46.416506767272949" lon="12.171183479949832">
        <ele>1832.4100000000001</ele>
        <time>2015-07-17T06:46:44Z</time>
      </trkpt>
      <trkpt lat="46.416561249643564" lon="12.171159842982888">
        <ele>1833.3699999999999</ele>
        <time>2015-07-17T06:46:51Z</time>
      </trkpt>
      <trkpt lat="46.416650181636214" lon="12.171297054737806">
        <ele>1831.9300000000001</ele>
        <time>2015-07-17T06:47:04Z</time>
      </trkpt>
      <trkpt lat="46.416656719520688" lon="12.171307113021612">
        <ele>1831.45</ele>
        <time>2015-07-17T06:47:05Z</time>
      </trkpt>
      <trkpt lat="46.416675830259919" lon="12.171361930668354">
        <ele>1830.97</ele>
        <time>2015-07-17T06:47:09Z</time>
      </trkpt>
      <trkpt lat="46.416693013161421" lon="12.171371150761843">
        <ele>1831.45</ele>
        <time>2015-07-17T06:47:11Z</time>
      </trkpt>
      <trkpt lat="46.416768785566092" lon="12.171520264819264">
        <ele>1830.49</ele>
        <time>2015-07-17T06:47:24Z</time>
      </trkpt>
      <trkpt lat="46.416796948760748" lon="12.171581871807575">
        <ele>1831.45</ele>
        <time>2015-07-17T06:47:31Z</time>
      </trkpt>
      <trkpt lat="46.416847491636872" lon="12.171625206246972">
        <ele>1831.9300000000001</ele>
        <time>2015-07-17T06:47:43Z</time>
      </trkpt>
      <trkpt lat="46.416877331212163" lon="12.171616405248642">
        <ele>1831.9300000000001</ele>
        <time>2015-07-17T06:48:07Z</time>
      </trkpt>
      <trkpt lat="46.416854783892632" lon="12.171623865142465">
        <ele>1831.45</ele>
        <time>2015-07-17T06:48:26Z</time>
      </trkpt>
      <trkpt lat="46.416857214644551" lon="12.171630905941129">
        <ele>1831.45</ele>
        <time>2015-07-17T06:48:42Z</time>
      </trkpt>
      <trkpt lat="46.41683416441083" lon="12.171619171276689">
        <ele>1831.9300000000001</ele>
        <time>2015-07-17T06:48:59Z</time>
      </trkpt>
      <trkpt lat="46.416854783892632" lon="12.17162805609405">
        <ele>1831.45</ele>
        <time>2015-07-17T06:49:18Z</time>
      </trkpt>
      <trkpt lat="46.41685763373971" lon="12.171619506552815">
        <ele>1830.97</ele>
        <time>2015-07-17T06:49:29Z</time>
      </trkpt>
      <trkpt lat="46.416861824691296" lon="12.171621434390545">
        <ele>1831.45</ele>
        <time>2015-07-17T06:49:40Z</time>
      </trkpt>
      <trkpt lat="46.416880181059241" lon="12.171641131862998">
        <ele>1831.9300000000001</ele>
        <time>2015-07-17T06:49:49Z</time>
      </trkpt>
      <trkpt lat="46.416891915723681" lon="12.171695027500391">
        <ele>1830.49</ele>
        <time>2015-07-17T06:50:01Z</time>
      </trkpt>
      <trkpt lat="46.416922342032194" lon="12.171754874289036">
        <ele>1830.01</ele>
        <time>2015-07-17T06:50:13Z</time>
      </trkpt>
      <trkpt lat="46.416977914050221" lon="12.171841291710734">
        <ele>1828.0799999999999</ele>
        <time>2015-07-17T06:50:24Z</time>
      </trkpt>
      <trkpt lat="46.417111018672585" lon="12.171949418261647">
        <ele>1827.1199999999999</ele>
        <time>2015-07-17T06:50:38Z</time>
      </trkpt>
      <trkpt lat="46.417143875733018" lon="12.172027872875333">
        <ele>1825.6800000000001</ele>
        <time>2015-07-17T06:50:44Z</time>
      </trkpt>
      <trkpt lat="46.417164746671915" lon="12.17209467664361">
        <ele>1825.2</ele>
        <time>2015-07-17T06:50:48Z</time>
      </trkpt>
      <trkpt lat="46.41721872612834" lon="12.172265499830246">
        <ele>1823.76</ele>
        <time>2015-07-17T06:50:58Z</time>
      </trkpt>
      <trkpt lat="46.417226102203131" lon="12.172442357987165">
        <ele>1820.8699999999999</ele>
        <time>2015-07-17T06:51:08Z</time>
      </trkpt>
      <trkpt lat="46.417205482721329" lon="12.172607565298676">
        <ele>1817.99</ele>
        <time>2015-07-17T06:51:18Z</time>
      </trkpt>
      <trkpt lat="46.417184192687273" lon="12.172773107886314">
        <ele>1815.5899999999999</ele>
        <time>2015-07-17T06:51:31Z</time>
      </trkpt>
      <trkpt lat="46.417210763320327" lon="12.172918450087309">
        <ele>1812.7</ele>
        <time>2015-07-17T06:51:42Z</time>
      </trkpt>
      <trkpt lat="46.417212523519993" lon="12.17298349365592">
        <ele>1811.26</ele>
        <time>2015-07-17T06:51:51Z</time>
      </trkpt>
      <trkpt lat="46.417120657861233" lon="12.173022385686636">
        <ele>1811.26</ele>
        <time>2015-07-17T06:51:59Z</time>
      </trkpt>
      <trkpt lat="46.417073383927345" lon="12.17297175899148">
        <ele>1812.22</ele>
        <time>2015-07-17T06:52:05Z</time>
      </trkpt>
      <trkpt lat="46.41696366481483" lon="12.172859944403172">
        <ele>1812.22</ele>
        <time>2015-07-17T06:52:17Z</time>
      </trkpt>
      <trkpt lat="46.416977327316999" lon="12.172858435660601">
        <ele>1812.7</ele>
        <time>2015-07-17T06:52:22Z</time>
      </trkpt>
      <trkpt lat="46.417089812457561" lon="12.17295809648931">
        <ele>1812.22</ele>
        <time>2015-07-17T06:52:34Z</time>
      </trkpt>
      <trkpt lat="46.417216714471579" lon="12.172939740121365">
        <ele>1811.26</ele>
        <time>2015-07-17T06:52:45Z</time>
      </trkpt>
      <trkpt lat="46.41735308803618" lon="12.172968490049243">
        <ele>1809.8199999999999</ele>
        <time>2015-07-17T06:52:55Z</time>
      </trkpt>
      <trkpt lat="46.417410168796778" lon="12.173001514747739">
        <ele>1809.3399999999999</ele>
        <time>2015-07-17T06:52:59Z</time>
      </trkpt>
      <trkpt lat="46.417546039447188" lon="12.173078041523695">
        <ele>1808.3800000000001</ele>
        <time>2015-07-17T06:53:12Z</time>
      </trkpt>
      <trkpt lat="46.417608736082911" lon="12.173124644905329">
        <ele>1806.9400000000001</ele>
        <time>2015-07-17T06:53:19Z</time>
      </trkpt>
      <trkpt lat="46.417661542072892" lon="12.173214498907328">
        <ele>1804.53</ele>
        <time>2015-07-17T06:53:28Z</time>
      </trkpt>
      <trkpt lat="46.417696913704276" lon="12.173226485028863">
        <ele>1803.5699999999999</ele>
        <time>2015-07-17T06:53:31Z</time>
      </trkpt>
      <trkpt lat="46.41780168749392" lon="12.173354309052229">
        <ele>1801.6500000000001</ele>
        <time>2015-07-17T06:53:45Z</time>
      </trkpt>
      <trkpt lat="46.417913418263197" lon="12.173469392582774">
        <ele>1799.73</ele>
        <time>2015-07-17T06:53:58Z</time>
      </trkpt>
      <trkpt lat="46.417925739660859" lon="12.173493364825845">
        <ele>1799.24</ele>
        <time>2015-07-17T06:54:00Z</time>
      </trkpt>
      <trkpt lat="46.41794241964817" lon="12.173559833317995">
        <ele>1798.76</ele>
        <time>2015-07-17T06:54:05Z</time>
      </trkpt>
      <trkpt lat="46.417930601164699" lon="12.173660080879927">
        <ele>1797.8</ele>
        <time>2015-07-17T06:54:11Z</time>
      </trkpt>
      <trkpt lat="46.417937139049172" lon="12.173748090863228">
        <ele>1797.3199999999999</ele>
        <time>2015-07-17T06:54:17Z</time>
      </trkpt>
      <trkpt lat="46.417934289202094" lon="12.173821181058884">
        <ele>1795.8800000000001</ele>
        <time>2015-07-17T06:54:25Z</time>
      </trkpt>
      <trkpt lat="46.417941581457853" lon="12.173856385052204">
        <ele>1795.8800000000001</ele>
        <time>2015-07-17T06:54:37Z</time>
      </trkpt>
      <trkpt lat="46.417916854843497" lon="12.173852697014809">
        <ele>1795.8800000000001</ele>
        <time>2015-07-17T06:54:53Z</time>
      </trkpt>
      <trkpt lat="46.417920207604766" lon="12.173828976228833">
        <ele>1795.8800000000001</ele>
        <time>2015-07-17T06:55:08Z</time>
      </trkpt>
      <trkpt lat="46.417923308908939" lon="12.173827718943357">
        <ele>1795.8800000000001</ele>
        <time>2015-07-17T06:55:21Z</time>
      </trkpt>
      <trkpt lat="46.417935295030475" lon="12.173797627910972">
        <ele>1796.3599999999999</ele>
        <time>2015-07-17T06:55:33Z</time>
      </trkpt>
      <trkpt lat="46.417960189282894" lon="12.173799052834511">
        <ele>1796.3599999999999</ele>
        <time>2015-07-17T06:55:41Z</time>
      </trkpt>
      <trkpt lat="46.417932109907269" lon="12.173816822469234">
        <ele>1795.4000000000001</ele>
        <time>2015-07-17T06:56:00Z</time>
      </trkpt>
      <trkpt lat="46.417957842350006" lon="12.173772817477584">
        <ele>1795.4000000000001</ele>
        <time>2015-07-17T06:56:20Z</time>
      </trkpt>
      <trkpt lat="46.417935295030475" lon="12.173799639567733">
        <ele>1795.4000000000001</ele>
        <time>2015-07-17T06:56:48Z</time>
      </trkpt>
      <trkpt lat="46.417901096865535" lon="12.173824282363057">
        <ele>1795.8800000000001</ele>
        <time>2015-07-17T06:57:09Z</time>
      </trkpt>
      <trkpt lat="46.417916938662529" lon="12.173820845782757">
        <ele>1795.8800000000001</ele>
        <time>2015-07-17T06:57:18Z</time>
      </trkpt>
      <trkpt lat="46.417929930612445" lon="12.173798717558384">
        <ele>1795.8800000000001</ele>
        <time>2015-07-17T06:57:41Z</time>
      </trkpt>
      <trkpt lat="46.417934540659189" lon="12.173848086968064">
        <ele>1795.4000000000001</ele>
        <time>2015-07-17T06:57:59Z</time>
      </trkpt>
      <trkpt lat="46.417954405769706" lon="12.17382051050663">
        <ele>1795.4000000000001</ele>
        <time>2015-07-17T06:58:23Z</time>
      </trkpt>
      <trkpt lat="46.417945856228471" lon="12.173839453607798">
        <ele>1795.4000000000001</ele>
        <time>2015-07-17T06:58:44Z</time>
      </trkpt>
      <trkpt lat="46.417963542044163" lon="12.173804417252541">
        <ele>1795.4000000000001</ele>
        <time>2015-07-17T06:59:08Z</time>
      </trkpt>
      <trkpt lat="46.417909730225801" lon="12.173832915723324">
        <ele>1795.4000000000001</ele>
        <time>2015-07-17T06:59:37Z</time>
      </trkpt>
      <trkpt lat="46.417949544265866" lon="12.173860492184758">
        <ele>1795.4000000000001</ele>
        <time>2015-07-17T07:00:09Z</time>
      </trkpt>
      <trkpt lat="46.417928505688906" lon="12.173798801377416">
        <ele>1795.4000000000001</ele>
        <time>2015-07-17T07:00:34Z</time>
      </trkpt>
      <trkpt lat="46.417946359142661" lon="12.173820426687598">
        <ele>1795.4000000000001</ele>
        <time>2015-07-17T07:00:53Z</time>
      </trkpt>
      <trkpt lat="46.417937222868204" lon="12.173795951530337">
        <ele>1795.4000000000001</ele>
        <time>2015-07-17T07:01:30Z</time>
      </trkpt>
      <trkpt lat="46.417925991117954" lon="12.173799388110638">
        <ele>1795.4000000000001</ele>
        <time>2015-07-17T07:01:59Z</time>
      </trkpt>
      <trkpt lat="46.417899671941996" lon="12.17384691350162">
        <ele>1795.4000000000001</ele>
        <time>2015-07-17T07:02:20Z</time>
      </trkpt>
      <trkpt lat="46.417906964197755" lon="12.17382344417274">
        <ele>1795.8800000000001</ele>
        <time>2015-07-17T07:02:31Z</time>
      </trkpt>
      <trkpt lat="46.417928757146001" lon="12.173832915723324">
        <ele>1795.8800000000001</ele>
        <time>2015-07-17T07:02:41Z</time>
      </trkpt>
      <trkpt lat="46.417955495417118" lon="12.173835011199117">
        <ele>1796.3599999999999</ele>
        <time>2015-07-17T07:02:55Z</time>
      </trkpt>
      <trkpt lat="46.417949125170708" lon="12.173824617639184">
        <ele>1796.3599999999999</ele>
        <time>2015-07-17T07:03:10Z</time>
      </trkpt>
      <trkpt lat="46.417939402163029" lon="12.173820091411471">
        <ele>1795.8800000000001</ele>
        <time>2015-07-17T07:03:21Z</time>
      </trkpt>
      <trkpt lat="46.417952729389071" lon="12.173888990655541">
        <ele>1793.96</ele>
        <time>2015-07-17T07:03:30Z</time>
      </trkpt>
      <trkpt lat="46.417974270880222" lon="12.174005499109626">
        <ele>1793.48</ele>
        <time>2015-07-17T07:03:42Z</time>
      </trkpt>
      <trkpt lat="46.417992878705263" lon="12.174052018672228">
        <ele>1793.48</ele>
        <time>2015-07-17T07:03:47Z</time>
      </trkpt>
      <trkpt lat="46.41802255064249" lon="12.174093089997768">
        <ele>1792.03</ele>
        <time>2015-07-17T07:03:51Z</time>
      </trkpt>
      <trkpt lat="46.4180704113096" lon="12.174155116081238">
        <ele>1791.0699999999999</ele>
        <time>2015-07-17T07:03:57Z</time>
      </trkpt>
      <trkpt lat="46.418081559240818" lon="12.174243796616793">
        <ele>1791.0699999999999</ele>
        <time>2015-07-17T07:04:03Z</time>
      </trkpt>
      <trkpt lat="46.418144842609763" lon="12.174413613975048">
        <ele>1791.55</ele>
        <time>2015-07-17T07:04:15Z</time>
      </trkpt>
      <trkpt lat="46.418143836781383" lon="12.174449069425464">
        <ele>1791.55</ele>
        <time>2015-07-17T07:04:17Z</time>
      </trkpt>
      <trkpt lat="46.418202091008425" lon="12.174630956724286">
        <ele>1791.55</ele>
        <time>2015-07-17T07:04:29Z</time>
      </trkpt>
      <trkpt lat="46.418245760723948" lon="12.174865230917931">
        <ele>1790.1099999999999</ele>
        <time>2015-07-17T07:04:42Z</time>
      </trkpt>
      <trkpt lat="46.418238217011094" lon="12.174972267821431">
        <ele>1789.6300000000001</ele>
        <time>2015-07-17T07:04:49Z</time>
      </trkpt>
      <trkpt lat="46.418264117091894" lon="12.175043513998389">
        <ele>1786.75</ele>
        <time>2015-07-17T07:04:54Z</time>
      </trkpt>
      <trkpt lat="46.418279623612761" lon="12.175102271139622">
        <ele>1785.3099999999999</ele>
        <time>2015-07-17T07:04:58Z</time>
      </trkpt>
      <trkpt lat="46.418296890333295" lon="12.175142588093877">
        <ele>1784.8199999999999</ele>
        <time>2015-07-17T07:05:01Z</time>
      </trkpt>
      <trkpt lat="46.418283730745316" lon="12.175292037427425">
        <ele>1783.3800000000001</ele>
        <time>2015-07-17T07:05:09Z</time>
      </trkpt>
      <trkpt lat="46.418277863413095" lon="12.175388848409057">
        <ele>1782.9000000000001</ele>
        <time>2015-07-17T07:05:14Z</time>
      </trkpt>
      <trkpt lat="46.418285658583045" lon="12.175450706854463">
        <ele>1781.9400000000001</ele>
        <time>2015-07-17T07:05:26Z</time>
      </trkpt>
      <trkpt lat="46.418280880898237" lon="12.175438888370991">
        <ele>1782.4200000000001</ele>
        <time>2015-07-17T07:05:39Z</time>
      </trkpt>
      <trkpt lat="46.418273840099573" lon="12.175438888370991">
        <ele>1782.4200000000001</ele>
        <time>2015-07-17T07:05:47Z</time>
      </trkpt>
      <trkpt lat="46.418223045766354" lon="12.175514744594693">
        <ele>1781.46</ele>
        <time>2015-07-17T07:05:56Z</time>
      </trkpt>
      <trkpt lat="46.418202677741647" lon="12.175621781498194">
        <ele>1779.54</ele>
        <time>2015-07-17T07:06:04Z</time>
      </trkpt>
      <trkpt lat="46.41818524338305" lon="12.175636785104871">
        <ele>1779.0599999999999</ele>
        <time>2015-07-17T07:06:06Z</time>
      </trkpt>
      <trkpt lat="46.418146016076207" lon="12.175643825903535">
        <ele>1778.5799999999999</ele>
        <time>2015-07-17T07:06:10Z</time>
      </trkpt>
      <trkpt lat="46.418013665825129" lon="12.175625888630748">
        <ele>1775.21</ele>
        <time>2015-07-17T07:06:22Z</time>
      </trkpt>
      <trkpt lat="46.417910233139992" lon="12.17562991194427">
        <ele>1772.3299999999999</ele>
        <time>2015-07-17T07:06:30Z</time>
      </trkpt>
      <trkpt lat="46.417894810438156" lon="12.175635444000363">
        <ele>1771.8499999999999</ele>
        <time>2015-07-17T07:06:31Z</time>
      </trkpt>
      <trkpt lat="46.417822390794754" lon="12.175660505890846">
        <ele>1770.8900000000001</ele>
        <time>2015-07-17T07:06:37Z</time>
      </trkpt>
      <trkpt lat="46.417736811563373" lon="12.175769973546267">
        <ele>1768</ele>
        <time>2015-07-17T07:06:48Z</time>
      </trkpt>
      <trkpt lat="46.41771518625319" lon="12.175802076235414">
        <ele>1766.5599999999999</ele>
        <time>2015-07-17T07:06:51Z</time>
      </trkpt>
      <trkpt lat="46.417629271745682" lon="12.175944987684488">
        <ele>1764.6400000000001</ele>
        <time>2015-07-17T07:07:03Z</time>
      </trkpt>
      <trkpt lat="46.417606137692928" lon="12.175970552489161">
        <ele>1764.6400000000001</ele>
        <time>2015-07-17T07:07:06Z</time>
      </trkpt>
      <trkpt lat="46.417531287297606" lon="12.176114385947585">
        <ele>1762.23</ele>
        <time>2015-07-17T07:07:17Z</time>
      </trkpt>
      <trkpt lat="46.417511338368058" lon="12.176180351525545">
        <ele>1758.8699999999999</ele>
        <time>2015-07-17T07:07:23Z</time>
      </trkpt>
      <trkpt lat="46.41746842302382" lon="12.176254615187645">
        <ele>1757.9100000000001</ele>
        <time>2015-07-17T07:07:28Z</time>
      </trkpt>
      <trkpt lat="46.417446546256542" lon="12.176267690956593">
        <ele>1757.4300000000001</ele>
        <time>2015-07-17T07:07:30Z</time>
      </trkpt>
      <trkpt lat="46.417412683367729" lon="12.176308427006006">
        <ele>1756.47</ele>
        <time>2015-07-17T07:07:34Z</time>
      </trkpt>
      <trkpt lat="46.417378317564726" lon="12.176332483068109">
        <ele>1756.47</ele>
        <time>2015-07-17T07:07:37Z</time>
      </trkpt>
      <trkpt lat="46.417345544323325" lon="12.176445052027702">
        <ele>1754.54</ele>
        <time>2015-07-17T07:07:45Z</time>
      </trkpt>
      <trkpt lat="46.417298354208469" lon="12.176578743383288">
        <ele>1752.6199999999999</ele>
        <time>2015-07-17T07:07:55Z</time>
      </trkpt>
      <trkpt lat="46.417289972305298" lon="12.176733976230025">
        <ele>1749.74</ele>
        <time>2015-07-17T07:08:05Z</time>
      </trkpt>
      <trkpt lat="46.417242614552379" lon="12.176893567666411">
        <ele>1747.3299999999999</ele>
        <time>2015-07-17T07:08:14Z</time>
      </trkpt>
      <trkpt lat="46.417197268456221" lon="12.176953498274088">
        <ele>1746.3699999999999</ele>
        <time>2015-07-17T07:08:19Z</time>
      </trkpt>
      <trkpt lat="46.417157705873251" lon="12.176990462467074">
        <ele>1745.8900000000001</ele>
        <time>2015-07-17T07:08:23Z</time>
      </trkpt>
      <trkpt lat="46.41714102588594" lon="12.177019044756889">
        <ele>1745.4100000000001</ele>
        <time>2015-07-17T07:08:26Z</time>
      </trkpt>
      <trkpt lat="46.417139014229178" lon="12.17709674499929">
        <ele>1743.97</ele>
        <time>2015-07-17T07:08:30Z</time>
      </trkpt>
      <trkpt lat="46.417172290384769" lon="12.177246194332838">
        <ele>1742.53</ele>
        <time>2015-07-17T07:08:41Z</time>
      </trkpt>
      <trkpt lat="46.417155358940363" lon="12.177337892353535">
        <ele>1742.05</ele>
        <time>2015-07-17T07:08:49Z</time>
      </trkpt>
      <trkpt lat="46.417166842147708" lon="12.177413329482079">
        <ele>1739.6400000000001</ele>
        <time>2015-07-17T07:08:56Z</time>
      </trkpt>
      <trkpt lat="46.417155778035522" lon="12.17748180963099">
        <ele>1738.2</ele>
        <time>2015-07-17T07:09:05Z</time>
      </trkpt>
      <trkpt lat="46.417180337011814" lon="12.177490275353193">
        <ele>1738.2</ele>
        <time>2015-07-17T07:09:17Z</time>
      </trkpt>
      <trkpt lat="46.417163405567408" lon="12.177477953955531">
        <ele>1738.2</ele>
        <time>2015-07-17T07:09:25Z</time>
      </trkpt>
      <trkpt lat="46.41717036254704" lon="12.177517600357533">
        <ele>1737.72</ele>
        <time>2015-07-17T07:09:36Z</time>
      </trkpt>
      <trkpt lat="46.41716156154871" lon="12.177482396364212">
        <ele>1737.72</ele>
        <time>2015-07-17T07:09:52Z</time>
      </trkpt>
      <trkpt lat="46.417157957330346" lon="12.17747937887907">
        <ele>1737.72</ele>
        <time>2015-07-17T07:10:18Z</time>
      </trkpt>
      <trkpt lat="46.417212272062898" lon="12.177530759945512">
        <ele>1737.72</ele>
        <time>2015-07-17T07:10:42Z</time>
      </trkpt>
      <trkpt lat="46.417166171595454" lon="12.177556660026312">
        <ele>1737.72</ele>
        <time>2015-07-17T07:11:05Z</time>
      </trkpt>
      <trkpt lat="46.417134823277593" lon="12.177485749125481">
        <ele>1737.72</ele>
        <time>2015-07-17T07:11:30Z</time>
      </trkpt>
      <trkpt lat="46.417150078341365" lon="12.177531933411956">
        <ele>1737.72</ele>
        <time>2015-07-17T07:11:51Z</time>
      </trkpt>
      <trkpt lat="46.417141864076257" lon="12.177546098828316">
        <ele>1737.72</ele>
        <time>2015-07-17T07:12:12Z</time>
      </trkpt>
      <trkpt lat="46.41716256737709" lon="12.177508966997266">
        <ele>1738.2</ele>
        <time>2015-07-17T07:12:37Z</time>
      </trkpt>
      <trkpt lat="46.417127614840865" lon="12.177497064694762">
        <ele>1738.2</ele>
        <time>2015-07-17T07:12:59Z</time>
      </trkpt>
      <trkpt lat="46.417169691994786" lon="12.177545260637999">
        <ele>1738.2</ele>
        <time>2015-07-17T07:13:17Z</time>
      </trkpt>
      <trkpt lat="46.417139517143369" lon="12.177552133798599">
        <ele>1738.6800000000001</ele>
        <time>2015-07-17T07:13:39Z</time>
      </trkpt>
      <trkpt lat="46.417145803570747" lon="12.177537884563208">
        <ele>1738.6800000000001</ele>
        <time>2015-07-17T07:14:08Z</time>
      </trkpt>
      <trkpt lat="46.417125267907977" lon="12.177548864856362">
        <ele>1739.1600000000001</ele>
        <time>2015-07-17T07:14:32Z</time>
      </trkpt>
      <trkpt lat="46.417123759165406" lon="12.177584655582905">
        <ele>1739.1600000000001</ele>
        <time>2015-07-17T07:14:54Z</time>
      </trkpt>
      <trkpt lat="46.417139517143369" lon="12.177557582035661">
        <ele>1739.6400000000001</ele>
        <time>2015-07-17T07:15:17Z</time>
      </trkpt>
      <trkpt lat="46.417167093604803" lon="12.177557246759534">
        <ele>1740.1199999999999</ele>
        <time>2015-07-17T07:15:38Z</time>
      </trkpt>
      <trkpt lat="46.417144797742367" lon="12.177550289779902">
        <ele>1740.1199999999999</ele>
        <time>2015-07-17T07:16:00Z</time>
      </trkpt>
      <trkpt lat="46.417214618995786" lon="12.177548529580235">
        <ele>1740.5999999999999</ele>
        <time>2015-07-17T07:16:28Z</time>
      </trkpt>
      <trkpt lat="46.41719282604754" lon="12.17752430588007">
        <ele>1740.5999999999999</ele>
        <time>2015-07-17T07:16:50Z</time>
      </trkpt>
      <trkpt lat="46.417220234870911" lon="12.177497483789921">
        <ele>1740.5999999999999</ele>
        <time>2015-07-17T07:17:18Z</time>
      </trkpt>
      <trkpt lat="46.417242614552379" lon="12.177515421062708">
        <ele>1740.5999999999999</ele>
        <time>2015-07-17T07:17:44Z</time>
      </trkpt>
      <trkpt lat="46.417331211268902" lon="12.177477115765214">
        <ele>1741.5699999999999</ele>
        <time>2015-07-17T07:18:10Z</time>
      </trkpt>
      <trkpt lat="46.417300030589104" lon="12.177530340850353">
        <ele>1741.0799999999999</ele>
        <time>2015-07-17T07:18:17Z</time>
      </trkpt>
      <trkpt lat="46.417295839637518" lon="12.177627738565207">
        <ele>1741.5699999999999</ele>
        <time>2015-07-17T07:18:22Z</time>
      </trkpt>
      <trkpt lat="46.417230544611812" lon="12.177720190957189">
        <ele>1742.53</ele>
        <time>2015-07-17T07:18:32Z</time>
      </trkpt>
      <trkpt lat="46.417185952886939" lon="12.177768722176552">
        <ele>1743.97</ele>
        <time>2015-07-17T07:18:43Z</time>
      </trkpt>
      <trkpt lat="46.417204644531012" lon="12.177892103791237">
        <ele>1746.3699999999999</ele>
        <time>2015-07-17T07:18:57Z</time>
      </trkpt>
      <trkpt lat="46.417202549055219" lon="12.177920518442988">
        <ele>1746.8499999999999</ele>
        <time>2015-07-17T07:19:10Z</time>
      </trkpt>
      <trkpt lat="46.417192490771413" lon="12.177913393825293">
        <ele>1746.8499999999999</ele>
        <time>2015-07-17T07:19:22Z</time>
      </trkpt>
      <trkpt lat="46.417200956493616" lon="12.178051443770528">
        <ele>1748.78</ele>
        <time>2015-07-17T07:19:34Z</time>
      </trkpt>
      <trkpt lat="46.417220486328006" lon="12.178079858422279">
        <ele>1748.29</ele>
        <time>2015-07-17T07:19:37Z</time>
      </trkpt>
      <trkpt lat="46.417209003120661" lon="12.178145321086049">
        <ele>1749.26</ele>
        <time>2015-07-17T07:19:44Z</time>
      </trkpt>
      <trkpt lat="46.417169272899628" lon="12.178299631923437">
        <ele>1749.74</ele>
        <time>2015-07-17T07:19:57Z</time>
      </trkpt>
      <trkpt lat="46.417091153562069" lon="12.178420415148139">
        <ele>1751.1800000000001</ele>
        <time>2015-07-17T07:20:10Z</time>
      </trkpt>
      <trkpt lat="46.41700959764421" lon="12.178547903895378">
        <ele>1752.1400000000001</ele>
        <time>2015-07-17T07:20:21Z</time>
      </trkpt>
      <trkpt lat="46.416938435286283" lon="12.178658042103052">
        <ele>1752.6199999999999</ele>
        <time>2015-07-17T07:20:31Z</time>
      </trkpt>
      <trkpt lat="46.416844641789794" lon="12.178754517808557">
        <ele>1753.5799999999999</ele>
        <time>2015-07-17T07:20:43Z</time>
      </trkpt>
      <trkpt lat="46.416811952367425" lon="12.178831966593862">
        <ele>1753.5799999999999</ele>
        <time>2015-07-17T07:20:51Z</time>
      </trkpt>
      <trkpt lat="46.416785046458244" lon="12.178895166143775">
        <ele>1753.0999999999999</ele>
        <time>2015-07-17T07:20:55Z</time>
      </trkpt>
      <trkpt lat="46.416782280430198" lon="12.179094990715384">
        <ele>1750.7</ele>
        <time>2015-07-17T07:21:05Z</time>
      </trkpt>
      <trkpt lat="46.416768953204155" lon="12.179262712597847">
        <ele>1749.74</ele>
        <time>2015-07-17T07:21:17Z</time>
      </trkpt>
      <trkpt lat="46.416655546054244" lon="12.179404618218541">
        <ele>1752.1400000000001</ele>
        <time>2015-07-17T07:21:31Z</time>
      </trkpt>
      <trkpt lat="46.416575750336051" lon="12.179558426141739">
        <ele>1752.6199999999999</ele>
        <time>2015-07-17T07:21:43Z</time>
      </trkpt>
      <trkpt lat="46.416496876627207" lon="12.179695637896657">
        <ele>1753.5799999999999</ele>
        <time>2015-07-17T07:21:55Z</time>
      </trkpt>
      <trkpt lat="46.416403753682971" lon="12.179802171885967">
        <ele>1754.54</ele>
        <time>2015-07-17T07:22:07Z</time>
      </trkpt>
      <trkpt lat="46.416241312399507" lon="12.179923122748733">
        <ele>1755.02</ele>
        <time>2015-07-17T07:22:20Z</time>
      </trkpt>
      <trkpt lat="46.416017012670636" lon="12.180064022541046">
        <ele>1755.99</ele>
        <time>2015-07-17T07:22:33Z</time>
      </trkpt>
      <trkpt lat="46.415900504216552" lon="12.180133424699306">
        <ele>1756.47</ele>
        <time>2015-07-17T07:22:43Z</time>
      </trkpt>
      <trkpt lat="46.415850212797523" lon="12.180143650621176">
        <ele>1756.47</ele>
        <time>2015-07-17T07:22:47Z</time>
      </trkpt>
      <trkpt lat="46.415773602202535" lon="12.180170137435198">
        <ele>1756.95</ele>
        <time>2015-07-17T07:22:54Z</time>
      </trkpt>
      <trkpt lat="46.415652567520738" lon="12.180243646726012">
        <ele>1755.99</ele>
        <time>2015-07-17T07:23:06Z</time>
      </trkpt>
      <trkpt lat="46.415594564750791" lon="12.180235516279936">
        <ele>1755.02</ele>
        <time>2015-07-17T07:23:14Z</time>
      </trkpt>
      <trkpt lat="46.415502447634935" lon="12.180171562358737">
        <ele>1755.99</ele>
        <time>2015-07-17T07:23:24Z</time>
      </trkpt>
      <trkpt lat="46.415415946394205" lon="12.180133759975433">
        <ele>1755.99</ele>
        <time>2015-07-17T07:23:34Z</time>
      </trkpt>
      <trkpt lat="46.415299018844962" lon="12.180090760812163">
        <ele>1756.47</ele>
        <time>2015-07-17T07:23:45Z</time>
      </trkpt>
      <trkpt lat="46.415189886465669" lon="12.180094700306654">
        <ele>1756.47</ele>
        <time>2015-07-17T07:23:56Z</time>
      </trkpt>
      <trkpt lat="46.415094416588545" lon="12.180133424699306">
        <ele>1758.3900000000001</ele>
        <time>2015-07-17T07:24:03Z</time>
      </trkpt>
      <trkpt lat="46.414943793788552" lon="12.180224871262908">
        <ele>1755.99</ele>
        <time>2015-07-17T07:24:17Z</time>
      </trkpt>
      <trkpt lat="46.414859890937805" lon="12.180329728871584">
        <ele>1753.5799999999999</ele>
        <time>2015-07-17T07:24:26Z</time>
      </trkpt>
      <trkpt lat="46.414762660861015" lon="12.180453361943364">
        <ele>1750.7</ele>
        <time>2015-07-17T07:24:39Z</time>
      </trkpt>
      <trkpt lat="46.414667274802923" lon="12.180648408830166">
        <ele>1747.3299999999999</ele>
        <time>2015-07-17T07:24:53Z</time>
      </trkpt>
      <trkpt lat="46.414556130766869" lon="12.180680930614471">
        <ele>1745.8900000000001</ele>
        <time>2015-07-17T07:25:06Z</time>
      </trkpt>
      <trkpt lat="46.414512963965535" lon="12.180703310295939">
        <ele>1745.8900000000001</ele>
        <time>2015-07-17T07:25:13Z</time>
      </trkpt>
      <trkpt lat="46.414399640634656" lon="12.180740274488926">
        <ele>1745.4100000000001</ele>
        <time>2015-07-17T07:25:23Z</time>
      </trkpt>
      <trkpt lat="46.414261842146516" lon="12.180829960852861">
        <ele>1744.45</ele>
        <time>2015-07-17T07:25:36Z</time>
      </trkpt>
      <trkpt lat="46.414159331470728" lon="12.180917048826814">
        <ele>1743.01</ele>
        <time>2015-07-17T07:25:48Z</time>
      </trkpt>
      <trkpt lat="46.414133599027991" lon="12.180920820683241">
        <ele>1742.53</ele>
        <time>2015-07-17T07:25:53Z</time>
      </trkpt>
      <trkpt lat="46.414132760837674" lon="12.180959964171052">
        <ele>1742.53</ele>
        <time>2015-07-17T07:25:57Z</time>
      </trkpt>
      <trkpt lat="46.414061263203621" lon="12.181023079901934">
        <ele>1742.53</ele>
        <time>2015-07-17T07:26:05Z</time>
      </trkpt>
      <trkpt lat="46.414045840501785" lon="12.181037329137325">
        <ele>1743.01</ele>
        <time>2015-07-17T07:26:07Z</time>
      </trkpt>
      <trkpt lat="46.413988843560219" lon="12.181060211732984">
        <ele>1742.53</ele>
        <time>2015-07-17T07:26:17Z</time>
      </trkpt>
      <trkpt lat="46.413926482200623" lon="12.1810991037637">
        <ele>1743.01</ele>
        <time>2015-07-17T07:26:27Z</time>
      </trkpt>
      <trkpt lat="46.413852302357554" lon="12.18113481067121">
        <ele>1743.97</ele>
        <time>2015-07-17T07:26:37Z</time>
      </trkpt>
      <trkpt lat="46.413788348436356" lon="12.181164985522628">
        <ele>1745.4100000000001</ele>
        <time>2015-07-17T07:26:49Z</time>
      </trkpt>
      <trkpt lat="46.413763621822" lon="12.181243607774377">
        <ele>1746.3699999999999</ele>
        <time>2015-07-17T07:27:00Z</time>
      </trkpt>
      <trkpt lat="46.41370645724237" lon="12.181286355480552">
        <ele>1747.3299999999999</ele>
        <time>2015-07-17T07:27:10Z</time>
      </trkpt>
      <trkpt lat="46.413693632930517" lon="12.181372521445155">
        <ele>1747.3299999999999</ele>
        <time>2015-07-17T07:27:20Z</time>
      </trkpt>
      <trkpt lat="46.413628086447716" lon="12.181422142311931">
        <ele>1748.78</ele>
        <time>2015-07-17T07:27:31Z</time>
      </trkpt>
      <trkpt lat="46.41356723383069" lon="12.181518618017435">
        <ele>1751.1800000000001</ele>
        <time>2015-07-17T07:27:44Z</time>
      </trkpt>
      <trkpt lat="46.413492802530527" lon="12.181586176156998">
        <ele>1752.6199999999999</ele>
        <time>2015-07-17T07:27:56Z</time>
      </trkpt>
      <trkpt lat="46.413488779217005" lon="12.181591540575027">
        <ele>1753.5799999999999</ele>
        <time>2015-07-17T07:28:07Z</time>
      </trkpt>
      <trkpt lat="46.413436476141214" lon="12.181669156998396">
        <ele>1754.54</ele>
        <time>2015-07-17T07:28:18Z</time>
      </trkpt>
      <trkpt lat="46.413367744535208" lon="12.181701511144638">
        <ele>1755.5</ele>
        <time>2015-07-17T07:28:27Z</time>
      </trkpt>
      <trkpt lat="46.413269340991974" lon="12.181761190295219">
        <ele>1757.4300000000001</ele>
        <time>2015-07-17T07:28:40Z</time>
      </trkpt>
      <trkpt lat="46.413194574415684" lon="12.18181299045682">
        <ele>1759.3499999999999</ele>
        <time>2015-07-17T07:28:51Z</time>
      </trkpt>
      <trkpt lat="46.413138834759593" lon="12.181834615767002">
        <ele>1761.75</ele>
        <time>2015-07-17T07:29:03Z</time>
      </trkpt>
      <trkpt lat="46.413092063739896" lon="12.181921368464828">
        <ele>1763.2</ele>
        <time>2015-07-17T07:29:15Z</time>
      </trkpt>
      <trkpt lat="46.41302827745676" lon="12.181961936876178">
        <ele>1765.1199999999999</ele>
        <time>2015-07-17T07:29:27Z</time>
      </trkpt>
      <trkpt lat="46.412979913875461" lon="12.181990267708898">
        <ele>1766.5599999999999</ele>
        <time>2015-07-17T07:29:36Z</time>
      </trkpt>
      <trkpt lat="46.412926856428385" lon="12.182027650997043">
        <ele>1768.48</ele>
        <time>2015-07-17T07:29:50Z</time>
      </trkpt>
      <trkpt lat="46.412873212248087" lon="12.18199965544045">
        <ele>1770.4100000000001</ele>
        <time>2015-07-17T07:30:00Z</time>
      </trkpt>
      <trkpt lat="46.412840019911528" lon="12.182044917717576">
        <ele>1770.8900000000001</ele>
        <time>2015-07-17T07:30:09Z</time>
      </trkpt>
      <trkpt lat="46.41280054114759" lon="12.182100573554635">
        <ele>1773.29</ele>
        <time>2015-07-17T07:30:21Z</time>
      </trkpt>
      <trkpt lat="46.412751507014036" lon="12.1821403875947">
        <ele>1774.73</ele>
        <time>2015-07-17T07:30:30Z</time>
      </trkpt>
      <trkpt lat="46.412703059613705" lon="12.182167125865817">
        <ele>1776.1700000000001</ele>
        <time>2015-07-17T07:30:41Z</time>
      </trkpt>
      <trkpt lat="46.412635250017047" lon="12.182188164442778">
        <ele>1777.6099999999999</ele>
        <time>2015-07-17T07:30:53Z</time>
      </trkpt>
      <trkpt lat="46.412584288045764" lon="12.182202581316233">
        <ele>1779.0599999999999</ele>
        <time>2015-07-17T07:31:04Z</time>
      </trkpt>
      <trkpt lat="46.412512958049774" lon="12.182255303487182">
        <ele>1780.98</ele>
        <time>2015-07-17T07:31:16Z</time>
      </trkpt>
      <trkpt lat="46.412442717701197" lon="12.182272570207715">
        <ele>1782.4200000000001</ele>
        <time>2015-07-17T07:31:28Z</time>
      </trkpt>
      <trkpt lat="46.412366610020399" lon="12.182279443368316">
        <ele>1783.8599999999999</ele>
        <time>2015-07-17T07:31:40Z</time>
      </trkpt>
      <trkpt lat="46.412280024960637" lon="12.182301823049784">
        <ele>1785.3099999999999</ele>
        <time>2015-07-17T07:31:52Z</time>
      </trkpt>
      <trkpt lat="46.412237863987684" lon="12.1822923514992">
        <ele>1786.75</ele>
        <time>2015-07-17T07:32:03Z</time>
      </trkpt>
      <trkpt lat="46.41217608936131" lon="12.182314731180668">
        <ele>1787.71</ele>
        <time>2015-07-17T07:32:13Z</time>
      </trkpt>
      <trkpt lat="46.412123199552298" lon="12.182356221601367">
        <ele>1789.1500000000001</ele>
        <time>2015-07-17T07:32:25Z</time>
      </trkpt>
      <trkpt lat="46.412056144326925" lon="12.182395868003368">
        <ele>1790.5899999999999</ele>
        <time>2015-07-17T07:32:37Z</time>
      </trkpt>
      <trkpt lat="46.412053881213069" lon="12.182419337332249">
        <ele>1792.52</ele>
        <time>2015-07-17T07:32:49Z</time>
      </trkpt>
      <trkpt lat="46.411985317245126" lon="12.182444566860795">
        <ele>1793</ele>
        <time>2015-07-17T07:32:58Z</time>
      </trkpt>
      <trkpt lat="46.411933265626431" lon="12.182473400607705">
        <ele>1794.4400000000001</ele>
        <time>2015-07-17T07:33:07Z</time>
      </trkpt>
      <trkpt lat="46.411890601739287" lon="12.182499971240759">
        <ele>1796.8399999999999</ele>
        <time>2015-07-17T07:33:19Z</time>
      </trkpt>
      <trkpt lat="46.411797227337956" lon="12.182512544095516">
        <ele>1798.76</ele>
        <time>2015-07-17T07:33:32Z</time>
      </trkpt>
      <trkpt lat="46.411740817129612" lon="12.182460827752948">
        <ele>1799.24</ele>
        <time>2015-07-17T07:33:44Z</time>
      </trkpt>
      <trkpt lat="46.411712821573019" lon="12.182486476376653">
        <ele>1801.1700000000001</ele>
        <time>2015-07-17T07:33:57Z</time>
      </trkpt>
      <trkpt lat="46.411659931764007" lon="12.182573396712542">
        <ele>1803.0899999999999</ele>
        <time>2015-07-17T07:34:08Z</time>
      </trkpt>
      <trkpt lat="46.411589272320271" lon="12.18259141780436">
        <ele>1804.53</ele>
        <time>2015-07-17T07:34:18Z</time>
      </trkpt>
      <trkpt lat="46.41153990291059" lon="12.182599464431405">
        <ele>1805.97</ele>
        <time>2015-07-17T07:34:29Z</time>
      </trkpt>
      <trkpt lat="46.411489443853498" lon="12.182644559070468">
        <ele>1808.3800000000001</ele>
        <time>2015-07-17T07:34:44Z</time>
      </trkpt>
      <trkpt lat="46.411381820216775" lon="12.182677583768964">
        <ele>1810.3</ele>
        <time>2015-07-17T07:34:57Z</time>
      </trkpt>
      <trkpt lat="46.411292804405093" lon="12.182636680081487">
        <ele>1811.74</ele>
        <time>2015-07-17T07:35:08Z</time>
      </trkpt>
      <trkpt lat="46.411214852705598" lon="12.18263441696763">
        <ele>1813.6600000000001</ele>
        <time>2015-07-17T07:35:20Z</time>
      </trkpt>
      <trkpt lat="46.411140421405435" lon="12.182586556300521">
        <ele>1815.1099999999999</ele>
        <time>2015-07-17T07:35:32Z</time>
      </trkpt>
      <trkpt lat="46.41106934286654" lon="12.182639027014375">
        <ele>1816.55</ele>
        <time>2015-07-17T07:35:45Z</time>
      </trkpt>
      <trkpt lat="46.411025673151016" lon="12.18268177472055">
        <ele>1818.47</ele>
        <time>2015-07-17T07:35:59Z</time>
      </trkpt>
      <trkpt lat="46.410911595448852" lon="12.182774897664785">
        <ele>1820.3900000000001</ele>
        <time>2015-07-17T07:36:13Z</time>
      </trkpt>
      <trkpt lat="46.410855436697602" lon="12.182778585702181">
        <ele>1821.3499999999999</ele>
        <time>2015-07-17T07:36:24Z</time>
      </trkpt>
      <trkpt lat="46.410778071731329" lon="12.182776825502515">
        <ele>1823.28</ele>
        <time>2015-07-17T07:36:37Z</time>
      </trkpt>
      <trkpt lat="46.410719901323318" lon="12.182799205183983">
        <ele>1824.72</ele>
        <time>2015-07-17T07:36:50Z</time>
      </trkpt>
      <trkpt lat="46.410630466416478" lon="12.182773053646088">
        <ele>1826.1600000000001</ele>
        <time>2015-07-17T07:37:02Z</time>
      </trkpt>
      <trkpt lat="46.410554526373744" lon="12.182834325358272">
        <ele>1827.5999999999999</ele>
        <time>2015-07-17T07:37:14Z</time>
      </trkpt>
      <trkpt lat="46.410488896071911" lon="12.182848239317536">
        <ele>1830.01</ele>
        <time>2015-07-17T07:37:28Z</time>
      </trkpt>
      <trkpt lat="46.41043365933001" lon="12.182831726968288">
        <ele>1831.45</ele>
        <time>2015-07-17T07:37:39Z</time>
      </trkpt>
      <trkpt lat="46.41035495325923" lon="12.182840947061777">
        <ele>1832.8900000000001</ele>
        <time>2015-07-17T07:37:50Z</time>
      </trkpt>
      <trkpt lat="46.410260740667582" lon="12.182817310094833">
        <ele>1833.8499999999999</ele>
        <time>2015-07-17T07:38:02Z</time>
      </trkpt>
      <trkpt lat="46.410179771482944" lon="12.182806162163615">
        <ele>1835.77</ele>
        <time>2015-07-17T07:38:15Z</time>
      </trkpt>
      <trkpt lat="46.410105004906654" lon="12.18278051353991">
        <ele>1836.74</ele>
        <time>2015-07-17T07:38:26Z</time>
      </trkpt>
      <trkpt lat="46.410035099834204" lon="12.182757379487157">
        <ele>1838.1800000000001</ele>
        <time>2015-07-17T07:38:38Z</time>
      </trkpt>
      <trkpt lat="46.409953208640218" lon="12.182753775268793">
        <ele>1839.6199999999999</ele>
        <time>2015-07-17T07:38:48Z</time>
      </trkpt>
      <trkpt lat="46.409878022968769" lon="12.182674398645759">
        <ele>1840.5799999999999</ele>
        <time>2015-07-17T07:39:01Z</time>
      </trkpt>
      <trkpt lat="46.409810800105333" lon="12.18266031704843">
        <ele>1841.54</ele>
        <time>2015-07-17T07:39:13Z</time>
      </trkpt>
      <trkpt lat="46.40970753505826" lon="12.182641290128231">
        <ele>1842.98</ele>
        <time>2015-07-17T07:39:27Z</time>
      </trkpt>
      <trkpt lat="46.409637462347746" lon="12.182655707001686">
        <ele>1844.4300000000001</ele>
        <time>2015-07-17T07:39:38Z</time>
      </trkpt>
      <trkpt lat="46.409604605287313" lon="12.182626370340586">
        <ele>1845.8699999999999</ele>
        <time>2015-07-17T07:39:52Z</time>
      </trkpt>
      <trkpt lat="46.40955213457346" lon="12.182618156075478">
        <ele>1848.27</ele>
        <time>2015-07-17T07:40:05Z</time>
      </trkpt>
      <trkpt lat="46.409479295834899" lon="12.182641541585326">
        <ele>1849.71</ele>
        <time>2015-07-17T07:40:16Z</time>
      </trkpt>
      <trkpt lat="46.409348286688328" lon="12.182667022570968">
        <ele>1850.6800000000001</ele>
        <time>2015-07-17T07:40:29Z</time>
      </trkpt>
      <trkpt lat="46.40930101275444" lon="12.182699041441083">
        <ele>1851.6400000000001</ele>
        <time>2015-07-17T07:40:42Z</time>
      </trkpt>
      <trkpt lat="46.409252816811204" lon="12.182684121653438">
        <ele>1854.04</ele>
        <time>2015-07-17T07:40:49Z</time>
      </trkpt>
      <trkpt lat="46.409185342490673" lon="12.182658473029733">
        <ele>1854.52</ele>
        <time>2015-07-17T07:41:01Z</time>
      </trkpt>
      <trkpt lat="46.409169165417552" lon="12.182643553242087">
        <ele>1856.4400000000001</ele>
        <time>2015-07-17T07:41:05Z</time>
      </trkpt>
      <trkpt lat="46.40909775160253" lon="12.182624777778983">
        <ele>1859.3299999999999</ele>
        <time>2015-07-17T07:41:17Z</time>
      </trkpt>
      <trkpt lat="46.409081239253283" lon="12.182621592655778">
        <ele>1858.3699999999999</ele>
        <time>2015-07-17T07:41:19Z</time>
      </trkpt>
      <trkpt lat="46.40899021178484" lon="12.182619161903858">
        <ele>1859.3299999999999</ele>
        <time>2015-07-17T07:41:31Z</time>
      </trkpt>
      <trkpt lat="46.408893903717399" lon="12.182568954303861">
        <ele>1860.29</ele>
        <time>2015-07-17T07:41:43Z</time>
      </trkpt>
      <trkpt lat="46.408768845722079" lon="12.182579012587667">
        <ele>1860.77</ele>
        <time>2015-07-17T07:41:55Z</time>
      </trkpt>
      <trkpt lat="46.408666502684355" lon="12.182586221024394">
        <ele>1861.25</ele>
        <time>2015-07-17T07:42:06Z</time>
      </trkpt>
      <trkpt lat="46.408564411103725" lon="12.182618156075478">
        <ele>1861.73</ele>
        <time>2015-07-17T07:42:17Z</time>
      </trkpt>
      <trkpt lat="46.408480843529105" lon="12.182639027014375">
        <ele>1861.73</ele>
        <time>2015-07-17T07:42:27Z</time>
      </trkpt>
      <trkpt lat="46.408408926799893" lon="12.182651599869132">
        <ele>1863.1700000000001</ele>
        <time>2015-07-17T07:42:37Z</time>
      </trkpt>
      <trkpt lat="46.408326867967844" lon="12.182683032006025">
        <ele>1863.6500000000001</ele>
        <time>2015-07-17T07:42:48Z</time>
      </trkpt>
      <trkpt lat="46.408298956230283" lon="12.182690994814038">
        <ele>1864.1300000000001</ele>
        <time>2015-07-17T07:42:59Z</time>
      </trkpt>
      <trkpt lat="46.408273978158832" lon="12.182728964835405">
        <ele>1863.6500000000001</ele>
        <time>2015-07-17T07:43:10Z</time>
      </trkpt>
      <trkpt lat="46.408259058371186" lon="12.182744136080146">
        <ele>1865.0899999999999</ele>
        <time>2015-07-17T07:43:19Z</time>
      </trkpt>
      <trkpt lat="46.408217819407582" lon="12.182750506326556">
        <ele>1863.6500000000001</ele>
        <time>2015-07-17T07:43:30Z</time>
      </trkpt>
      <trkpt lat="46.408221172168851" lon="12.182734999805689">
        <ele>1863.1700000000001</ele>
        <time>2015-07-17T07:43:35Z</time>
      </trkpt>
      <trkpt lat="46.408216562122107" lon="12.182743800804019">
        <ele>1862.6900000000001</ele>
        <time>2015-07-17T07:43:37Z</time>
      </trkpt>
      <trkpt lat="46.408233996480703" lon="12.182694934308529">
        <ele>1862.6900000000001</ele>
        <time>2015-07-17T07:43:46Z</time>
      </trkpt>
      <trkpt lat="46.408211700618267" lon="12.182741537690163">
        <ele>1862.6900000000001</ele>
        <time>2015-07-17T07:44:08Z</time>
      </trkpt>
      <trkpt lat="46.408213544636965" lon="12.182741453871131">
        <ele>1862.6900000000001</ele>
        <time>2015-07-17T07:44:25Z</time>
      </trkpt>
      <trkpt lat="46.408236008137465" lon="12.182775065302849">
        <ele>1862.6900000000001</ele>
        <time>2015-07-17T07:44:53Z</time>
      </trkpt>
      <trkpt lat="46.408228715881705" lon="12.182779423892498">
        <ele>1862.6900000000001</ele>
        <time>2015-07-17T07:45:11Z</time>
      </trkpt>
      <trkpt lat="46.408198289573193" lon="12.182812113314867">
        <ele>1863.1700000000001</ele>
        <time>2015-07-17T07:45:27Z</time>
      </trkpt>
      <trkpt lat="46.408170461654663" lon="12.182866679504514">
        <ele>1863.6500000000001</ele>
        <time>2015-07-17T07:45:54Z</time>
      </trkpt>
      <trkpt lat="46.408205414190888" lon="12.182735083624721">
        <ele>1863.6500000000001</ele>
        <time>2015-07-17T07:46:27Z</time>
      </trkpt>
      <trkpt lat="46.408218489959836" lon="12.182727456092834">
        <ele>1864.1300000000001</ele>
        <time>2015-07-17T07:46:55Z</time>
      </trkpt>
      <trkpt lat="46.408230727538466" lon="12.182728545740247">
        <ele>1864.1300000000001</ele>
        <time>2015-07-17T07:47:23Z</time>
      </trkpt>
      <trkpt lat="46.408199379220605" lon="12.182730473577976">
        <ele>1864.1300000000001</ele>
        <time>2015-07-17T07:47:50Z</time>
      </trkpt>
      <trkpt lat="46.40820206142962" lon="12.182727875187993">
        <ele>1864.6099999999999</ele>
        <time>2015-07-17T07:48:14Z</time>
      </trkpt>
      <trkpt lat="46.408182447776198" lon="12.182808509096503">
        <ele>1864.1300000000001</ele>
        <time>2015-07-17T07:48:34Z</time>
      </trkpt>
      <trkpt lat="46.408178927376866" lon="12.182818232104182">
        <ele>1864.1300000000001</ele>
        <time>2015-07-17T07:48:59Z</time>
      </trkpt>
      <trkpt lat="46.408184543251991" lon="12.182805826887488">
        <ele>1866.0599999999999</ele>
        <time>2015-07-17T07:49:22Z</time>
      </trkpt>
      <trkpt lat="46.408179933205247" lon="12.182802390307188">
        <ele>1864.6099999999999</ele>
        <time>2015-07-17T07:49:46Z</time>
      </trkpt>
      <trkpt lat="46.408187812194228" lon="12.182785961776972">
        <ele>1865.5799999999999</ele>
        <time>2015-07-17T07:50:03Z</time>
      </trkpt>
      <trkpt lat="46.408149506896734" lon="12.182823261246085">
        <ele>1865.0899999999999</ele>
        <time>2015-07-17T07:50:16Z</time>
      </trkpt>
      <trkpt lat="46.408156882971525" lon="12.182862823829055">
        <ele>1864.1300000000001</ele>
        <time>2015-07-17T07:50:27Z</time>
      </trkpt>
      <trkpt lat="46.408149255439639" lon="12.182876486331224">
        <ele>1867.98</ele>
        <time>2015-07-17T07:50:38Z</time>
      </trkpt>
      <trkpt lat="46.40816249884665" lon="12.182827536016703">
        <ele>1865.5799999999999</ele>
        <time>2015-07-17T07:50:39Z</time>
      </trkpt>
      <trkpt lat="46.408200552687049" lon="12.182775735855103">
        <ele>1866.0599999999999</ele>
        <time>2015-07-17T07:50:46Z</time>
      </trkpt>
      <trkpt lat="46.408216981217265" lon="12.182782106101513">
        <ele>1866.0599999999999</ele>
        <time>2015-07-17T07:50:49Z</time>
      </trkpt>
      <trkpt lat="46.408308008685708" lon="12.182941529899836">
        <ele>1866.0599999999999</ele>
        <time>2015-07-17T07:51:00Z</time>
      </trkpt>
      <trkpt lat="46.40831345692277" lon="12.182945888489485">
        <ele>1866.0599999999999</ele>
        <time>2015-07-17T07:51:01Z</time>
      </trkpt>
      <trkpt lat="46.408319743350148" lon="12.183078909292817">
        <ele>1866.54</ele>
        <time>2015-07-17T07:51:13Z</time>
      </trkpt>
      <trkpt lat="46.408331980928779" lon="12.183105144649744">
        <ele>1867.02</ele>
        <time>2015-07-17T07:51:22Z</time>
      </trkpt>
      <trkpt lat="46.408340530470014" lon="12.183058625087142">
        <ele>1867.02</ele>
        <time>2015-07-17T07:51:31Z</time>
      </trkpt>
      <trkpt lat="46.408316642045975" lon="12.183076227083802">
        <ele>1866.54</ele>
        <time>2015-07-17T07:51:41Z</time>
      </trkpt>
      <trkpt lat="46.408366095274687" lon="12.183041526004672">
        <ele>1866.0599999999999</ele>
        <time>2015-07-17T07:52:02Z</time>
      </trkpt>
      <trkpt lat="46.408371543511748" lon="12.183084106072783">
        <ele>1866.54</ele>
        <time>2015-07-17T07:52:17Z</time>
      </trkpt>
      <trkpt lat="46.408337345346808" lon="12.183135990053415">
        <ele>1866.54</ele>
        <time>2015-07-17T07:52:47Z</time>
      </trkpt>
      <trkpt lat="46.408292921259999" lon="12.183156106621027">
        <ele>1867.02</ele>
        <time>2015-07-17T07:53:11Z</time>
      </trkpt>
      <trkpt lat="46.40833793208003" lon="12.183155855163932">
        <ele>1867.02</ele>
        <time>2015-07-17T07:53:32Z</time>
      </trkpt>
      <trkpt lat="46.408344721421599" lon="12.183121656998992">
        <ele>1867.02</ele>
        <time>2015-07-17T07:53:42Z</time>
      </trkpt>
      <trkpt lat="46.408349080011249" lon="12.183113107457757">
        <ele>1867.5</ele>
        <time>2015-07-17T07:53:43Z</time>
      </trkpt>
      <trkpt lat="46.40837162733078" lon="12.18310883268714">
        <ele>1867.5</ele>
        <time>2015-07-17T07:53:49Z</time>
      </trkpt>
      <trkpt lat="46.40835452824831" lon="12.183128865435719">
        <ele>1867.98</ele>
        <time>2015-07-17T07:54:00Z</time>
      </trkpt>
      <trkpt lat="46.408284287899733" lon="12.183316871523857">
        <ele>1868.46</ele>
        <time>2015-07-17T07:54:13Z</time>
      </trkpt>
      <trkpt lat="46.408252939581871" lon="12.183477720245719">
        <ele>1869.9000000000001</ele>
        <time>2015-07-17T07:54:26Z</time>
      </trkpt>
      <trkpt lat="46.408308679237962" lon="12.183654829859734">
        <ele>1869.4200000000001</ele>
        <time>2015-07-17T07:54:37Z</time>
      </trkpt>
      <trkpt lat="46.408321587368846" lon="12.183727752417326">
        <ele>1869.9000000000001</ele>
        <time>2015-07-17T07:54:42Z</time>
      </trkpt>
      <trkpt lat="46.408327538520098" lon="12.183741750195622">
        <ele>1869.9000000000001</ele>
        <time>2015-07-17T07:54:43Z</time>
      </trkpt>
      <trkpt lat="46.408416219055653" lon="12.183845182880759">
        <ele>1869.4200000000001</ele>
        <time>2015-07-17T07:54:53Z</time>
      </trkpt>
      <trkpt lat="46.408526357263327" lon="12.18387502245605">
        <ele>1868.9400000000001</ele>
        <time>2015-07-17T07:55:01Z</time>
      </trkpt>
      <trkpt lat="46.408588802441955" lon="12.183880554512143">
        <ele>1869.4200000000001</ele>
        <time>2015-07-17T07:55:11Z</time>
      </trkpt>
      <trkpt lat="46.40861545689404" lon="12.18388139270246">
        <ele>1869.4200000000001</ele>
        <time>2015-07-17T07:55:17Z</time>
      </trkpt>
      <trkpt lat="46.408642278984189" lon="12.18390142545104">
        <ele>1868.9400000000001</ele>
        <time>2015-07-17T07:55:19Z</time>
      </trkpt>
      <trkpt lat="46.408609170466661" lon="12.183936880901456">
        <ele>1868.46</ele>
        <time>2015-07-17T07:55:24Z</time>
      </trkpt>
      <trkpt lat="46.408570278435946" lon="12.183959260582924">
        <ele>1867.5</ele>
        <time>2015-07-17T07:55:34Z</time>
      </trkpt>
      <trkpt lat="46.408500708639622" lon="12.183991027995944">
        <ele>1867.02</ele>
        <time>2015-07-17T07:55:46Z</time>
      </trkpt>
      <trkpt lat="46.408405154943466" lon="12.18403235077858">
        <ele>1865.5799999999999</ele>
        <time>2015-07-17T07:55:57Z</time>
      </trkpt>
      <trkpt lat="46.408322006464005" lon="12.184080546721816">
        <ele>1864.6099999999999</ele>
        <time>2015-07-17T07:56:09Z</time>
      </trkpt>
      <trkpt lat="46.408317564055324" lon="12.18408465385437">
        <ele>1864.6099999999999</ele>
        <time>2015-07-17T07:56:10Z</time>
      </trkpt>
      <trkpt lat="46.408309852704406" lon="12.184093790128827">
        <ele>1864.1300000000001</ele>
        <time>2015-07-17T07:56:11Z</time>
      </trkpt>
      <trkpt lat="46.408227626234293" lon="12.184159923344851">
        <ele>1862.21</ele>
        <time>2015-07-17T07:56:21Z</time>
      </trkpt>
      <trkpt lat="46.40820792876184" lon="12.184181632474065">
        <ele>1861.73</ele>
        <time>2015-07-17T07:56:30Z</time>
      </trkpt>
      <trkpt lat="46.408181190490723" lon="12.184238042682409">
        <ele>1861.25</ele>
        <time>2015-07-17T07:56:41Z</time>
      </trkpt>
      <trkpt lat="46.40813852660358" lon="12.184290513396263">
        <ele>1859.8099999999999</ele>
        <time>2015-07-17T07:56:53Z</time>
      </trkpt>
      <trkpt lat="46.408112626522779" lon="12.184310294687748">
        <ele>1858.8499999999999</ele>
        <time>2015-07-17T07:57:01Z</time>
      </trkpt>
      <trkpt lat="46.408068453893065" lon="12.184350360184908">
        <ele>1857.4000000000001</ele>
        <time>2015-07-17T07:57:11Z</time>
      </trkpt>
      <trkpt lat="46.408000476658344" lon="12.184451781213284">
        <ele>1854.04</ele>
        <time>2015-07-17T07:57:20Z</time>
      </trkpt>
      <trkpt lat="46.407928895205259" lon="12.184564433991909">
        <ele>1851.6400000000001</ele>
        <time>2015-07-17T07:57:28Z</time>
      </trkpt>
      <trkpt lat="46.407901151105762" lon="12.184629393741488">
        <ele>1849.71</ele>
        <time>2015-07-17T07:57:35Z</time>
      </trkpt>
      <trkpt lat="46.4078404661268" lon="12.184736598283052">
        <ele>1846.8299999999999</ele>
        <time>2015-07-17T07:57:44Z</time>
      </trkpt>
      <trkpt lat="46.407798388972878" lon="12.184695191681385">
        <ele>1845.8699999999999</ele>
        <time>2015-07-17T07:57:51Z</time>
      </trkpt>
      <trkpt lat="46.407702416181564" lon="12.184687061235309">
        <ele>1842.98</ele>
        <time>2015-07-17T07:57:58Z</time>
      </trkpt>
      <trkpt lat="46.407600324600935" lon="12.184826284646988">
        <ele>1842.02</ele>
        <time>2015-07-17T07:58:11Z</time>
      </trkpt>
      <trkpt lat="46.407588170841336" lon="12.184842545539141">
        <ele>1841.54</ele>
        <time>2015-07-17T07:58:12Z</time>
      </trkpt>
      <trkpt lat="46.407538549974561" lon="12.184894010424614">
        <ele>1840.5799999999999</ele>
        <time>2015-07-17T07:58:17Z</time>
      </trkpt>
      <trkpt lat="46.407505357638001" lon="12.184936758130789">
        <ele>1840.0999999999999</ele>
        <time>2015-07-17T07:58:20Z</time>
      </trkpt>
      <trkpt lat="46.407471327111125" lon="12.1850760653615">
        <ele>1837.7</ele>
        <time>2015-07-17T07:58:30Z</time>
      </trkpt>
      <trkpt lat="46.407476188614964" lon="12.185091320425272">
        <ele>1837.22</ele>
        <time>2015-07-17T07:58:31Z</time>
      </trkpt>
      <trkpt lat="46.40743151307106" lon="12.185250073671341">
        <ele>1835.29</ele>
        <time>2015-07-17T07:58:41Z</time>
      </trkpt>
      <trkpt lat="46.407343419268727" lon="12.18535166233778">
        <ele>1833.8499999999999</ele>
        <time>2015-07-17T07:58:51Z</time>
      </trkpt>
      <trkpt lat="46.407290445640683" lon="12.18553245998919">
        <ele>1831.45</ele>
        <time>2015-07-17T07:59:03Z</time>
      </trkpt>
      <trkpt lat="46.407260270789266" lon="12.18559741973877">
        <ele>1830.01</ele>
        <time>2015-07-17T07:59:10Z</time>
      </trkpt>
      <trkpt lat="46.407228000462055" lon="12.185703366994858">
        <ele>1827.1199999999999</ele>
        <time>2015-07-17T07:59:19Z</time>
      </trkpt>
      <trkpt lat="46.407285165041685" lon="12.185747120529413">
        <ele>1826.1600000000001</ele>
        <time>2015-07-17T07:59:29Z</time>
      </trkpt>
      <trkpt lat="46.407397147268057" lon="12.185613680630922">
        <ele>1826.1600000000001</ele>
        <time>2015-07-17T07:59:40Z</time>
      </trkpt>
      <trkpt lat="46.407421957701445" lon="12.185652907937765">
        <ele>1819.9100000000001</ele>
        <time>2015-07-17T07:59:46Z</time>
      </trkpt>
      <trkpt lat="46.407422460615635" lon="12.18565852381289">
        <ele>1819.9100000000001</ele>
        <time>2015-07-17T07:59:47Z</time>
      </trkpt>
      <trkpt lat="46.407422460615635" lon="12.185720968991518">
        <ele>1818.95</ele>
        <time>2015-07-17T07:59:54Z</time>
      </trkpt>
      <trkpt lat="46.40736454166472" lon="12.185893636196852">
        <ele>1816.0699999999999</ele>
        <time>2015-07-17T08:00:06Z</time>
      </trkpt>
      <trkpt lat="46.407386669889092" lon="12.186032775789499">
        <ele>1814.1500000000001</ele>
        <time>2015-07-17T08:00:17Z</time>
      </trkpt>
      <trkpt lat="46.407407205551863" lon="12.186160683631897">
        <ele>1811.74</ele>
        <time>2015-07-17T08:00:28Z</time>
      </trkpt>
      <trkpt lat="46.407446432858706" lon="12.186342403292656">
        <ele>1810.3</ele>
        <time>2015-07-17T08:00:39Z</time>
      </trkpt>
      <trkpt lat="46.40747644007206" lon="12.186387246474624">
        <ele>1809.3399999999999</ele>
        <time>2015-07-17T08:00:46Z</time>
      </trkpt>
      <trkpt lat="46.407509129494429" lon="12.18636017292738">
        <ele>1808.3800000000001</ele>
        <time>2015-07-17T08:00:57Z</time>
      </trkpt>
      <trkpt lat="46.407596217468381" lon="12.186307618394494">
        <ele>1807.9000000000001</ele>
        <time>2015-07-17T08:01:11Z</time>
      </trkpt>
      <trkpt lat="46.407591607421637" lon="12.186426725238562">
        <ele>1805.01</ele>
        <time>2015-07-17T08:01:23Z</time>
      </trkpt>
      <trkpt lat="46.407548692077398" lon="12.186603164300323">
        <ele>1803.5699999999999</ele>
        <time>2015-07-17T08:01:36Z</time>
      </trkpt>
      <trkpt lat="46.407527402043343" lon="12.186707686632872">
        <ele>1802.1300000000001</ele>
        <time>2015-07-17T08:01:45Z</time>
      </trkpt>
      <trkpt lat="46.407495718449354" lon="12.186839450150728">
        <ele>1801.1700000000001</ele>
        <time>2015-07-17T08:01:55Z</time>
      </trkpt>
      <trkpt lat="46.407529748976231" lon="12.186916396021843">
        <ele>1798.76</ele>
        <time>2015-07-17T08:02:07Z</time>
      </trkpt>
      <trkpt lat="46.407509297132492" lon="12.187028210610151">
        <ele>1796.3599999999999</ele>
        <time>2015-07-17T08:02:19Z</time>
      </trkpt>
      <trkpt lat="46.407517762854695" lon="12.187297940254211">
        <ele>1794.4400000000001</ele>
        <time>2015-07-17T08:02:32Z</time>
      </trkpt>
      <trkpt lat="46.407455736771226" lon="12.187471697106957">
        <ele>1793</ele>
        <time>2015-07-17T08:02:44Z</time>
      </trkpt>
      <trkpt lat="46.407382478937507" lon="12.187648303806782">
        <ele>1791.0699999999999</ele>
        <time>2015-07-17T08:02:55Z</time>
      </trkpt>
      <trkpt lat="46.407329756766558" lon="12.187734134495258">
        <ele>1790.1099999999999</ele>
        <time>2015-07-17T08:03:02Z</time>
      </trkpt>
      <trkpt lat="46.407250631600618" lon="12.187904790043831">
        <ele>1790.1099999999999</ele>
        <time>2015-07-17T08:03:14Z</time>
      </trkpt>
      <trkpt lat="46.407226156443357" lon="12.188035128638148">
        <ele>1788.6700000000001</ele>
        <time>2015-07-17T08:03:25Z</time>
      </trkpt>
      <trkpt lat="46.407215092331171" lon="12.188105368986726">
        <ele>1786.75</ele>
        <time>2015-07-17T08:03:34Z</time>
      </trkpt>
      <trkpt lat="46.407182402908802" lon="12.188280550763011">
        <ele>1783.3800000000001</ele>
        <time>2015-07-17T08:03:44Z</time>
      </trkpt>
      <trkpt lat="46.407157173380256" lon="12.188478363677859">
        <ele>1782.9000000000001</ele>
        <time>2015-07-17T08:03:56Z</time>
      </trkpt>
      <trkpt lat="46.40717402100563" lon="12.188597554340959">
        <ele>1783.3800000000001</ele>
        <time>2015-07-17T08:04:06Z</time>
      </trkpt>
      <trkpt lat="46.407208470627666" lon="12.188698137179017">
        <ele>1783.3800000000001</ele>
        <time>2015-07-17T08:04:14Z</time>
      </trkpt>
      <trkpt lat="46.407192042097449" lon="12.188877006992698">
        <ele>1781.9400000000001</ele>
        <time>2015-07-17T08:04:28Z</time>
      </trkpt>
      <trkpt lat="46.407137308269739" lon="12.188981026411057">
        <ele>1780.02</ele>
        <time>2015-07-17T08:04:41Z</time>
      </trkpt>
      <trkpt lat="46.407086262479424" lon="12.189117819070816">
        <ele>1777.6099999999999</ele>
        <time>2015-07-17T08:04:52Z</time>
      </trkpt>
      <trkpt lat="46.407000599429011" lon="12.189203314483166">
        <ele>1775.6900000000001</ele>
        <time>2015-07-17T08:05:01Z</time>
      </trkpt>
      <trkpt lat="46.406967155635357" lon="12.189310099929571">
        <ele>1773.29</ele>
        <time>2015-07-17T08:05:13Z</time>
      </trkpt>
      <trkpt lat="46.406985428184271" lon="12.189408084377646">
        <ele>1770.4100000000001</ele>
        <time>2015-07-17T08:05:24Z</time>
      </trkpt>
      <trkpt lat="46.406987020745873" lon="12.189417723566294">
        <ele>1770.4100000000001</ele>
        <time>2015-07-17T08:05:25Z</time>
      </trkpt>
      <trkpt lat="46.406989200040698" lon="12.189470529556274">
        <ele>1769.4400000000001</ele>
        <time>2015-07-17T08:05:29Z</time>
      </trkpt>
      <trkpt lat="46.40689012594521" lon="12.189660966396332">
        <ele>1766.5599999999999</ele>
        <time>2015-07-17T08:05:41Z</time>
      </trkpt>
      <trkpt lat="46.406810078769922" lon="12.189799686893821">
        <ele>1764.6400000000001</ele>
        <time>2015-07-17T08:05:51Z</time>
      </trkpt>
      <trkpt lat="46.40669222921133" lon="12.189998170360923">
        <ele>1762.71</ele>
        <time>2015-07-17T08:06:04Z</time>
      </trkpt>
      <trkpt lat="46.406688122078776" lon="12.190066818147898">
        <ele>1762.23</ele>
        <time>2015-07-17T08:06:08Z</time>
      </trkpt>
      <trkpt lat="46.406560465693474" lon="12.190149379894137">
        <ele>1760.79</ele>
        <time>2015-07-17T08:06:18Z</time>
      </trkpt>
      <trkpt lat="46.406543785706162" lon="12.190151978284121">
        <ele>1760.79</ele>
        <time>2015-07-17T08:06:19Z</time>
      </trkpt>
      <trkpt lat="46.406432809308171" lon="12.190174106508493">
        <ele>1758.3900000000001</ele>
        <time>2015-07-17T08:06:33Z</time>
      </trkpt>
      <trkpt lat="46.406395426020026" lon="12.190217524766922">
        <ele>1757.4300000000001</ele>
        <time>2015-07-17T08:06:39Z</time>
      </trkpt>
      <trkpt lat="46.406322252005339" lon="12.190391281619668">
        <ele>1755.02</ele>
        <time>2015-07-17T08:06:53Z</time>
      </trkpt>
      <trkpt lat="46.406268272548914" lon="12.190525392070413">
        <ele>1752.6199999999999</ele>
        <time>2015-07-17T08:07:05Z</time>
      </trkpt>
      <trkpt lat="46.406211443245411" lon="12.190632931888103">
        <ele>1749.74</ele>
        <time>2015-07-17T08:07:16Z</time>
      </trkpt>
      <trkpt lat="46.406209850683808" lon="12.19070065766573">
        <ele>1748.29</ele>
        <time>2015-07-17T08:07:22Z</time>
      </trkpt>
      <trkpt lat="46.40612879768014" lon="12.19085555523634">
        <ele>1744.9300000000001</ele>
        <time>2015-07-17T08:07:36Z</time>
      </trkpt>
      <trkpt lat="46.406129635870457" lon="12.190892100334167">
        <ele>1744.9300000000001</ele>
        <time>2015-07-17T08:07:41Z</time>
      </trkpt>
      <trkpt lat="46.406115302816033" lon="12.190956389531493">
        <ele>1743.97</ele>
        <time>2015-07-17T08:07:51Z</time>
      </trkpt>
      <trkpt lat="46.406124522909522" lon="12.190860165283084">
        <ele>1743.97</ele>
        <time>2015-07-17T08:08:04Z</time>
      </trkpt>
      <trkpt lat="46.406117649748921" lon="12.190871983766556">
        <ele>1743.49</ele>
        <time>2015-07-17T08:08:05Z</time>
      </trkpt>
      <trkpt lat="46.406105160713196" lon="12.190948929637671">
        <ele>1743.01</ele>
        <time>2015-07-17T08:08:09Z</time>
      </trkpt>
      <trkpt lat="46.406088229268789" lon="12.191142216324806">
        <ele>1741.5699999999999</ele>
        <time>2015-07-17T08:08:21Z</time>
      </trkpt>
      <trkpt lat="46.406100802123547" lon="12.191228969022632">
        <ele>1740.1199999999999</ele>
        <time>2015-07-17T08:08:34Z</time>
      </trkpt>
      <trkpt lat="46.406087474897504" lon="12.191338101401925">
        <ele>1740.5999999999999</ele>
        <time>2015-07-17T08:08:43Z</time>
      </trkpt>
      <trkpt lat="46.40609267167747" lon="12.191378502175212">
        <ele>1741.0799999999999</ele>
        <time>2015-07-17T08:08:46Z</time>
      </trkpt>
      <trkpt lat="46.406083116307855" lon="12.191486293449998">
        <ele>1740.1199999999999</ele>
        <time>2015-07-17T08:08:56Z</time>
      </trkpt>
      <trkpt lat="46.406077248975635" lon="12.191495765000582">
        <ele>1740.1199999999999</ele>
        <time>2015-07-17T08:09:10Z</time>
      </trkpt>
      <trkpt lat="46.406078841537237" lon="12.191536333411932">
        <ele>1739.6400000000001</ele>
        <time>2015-07-17T08:09:21Z</time>
      </trkpt>
      <trkpt lat="46.40607850626111" lon="12.191571453586221">
        <ele>1739.6400000000001</ele>
        <time>2015-07-17T08:09:35Z</time>
      </trkpt>
      <trkpt lat="46.406072890385985" lon="12.19159534201026">
        <ele>1739.1600000000001</ele>
        <time>2015-07-17T08:09:42Z</time>
      </trkpt>
      <trkpt lat="46.406102813780308" lon="12.191664157435298">
        <ele>1738.6800000000001</ele>
        <time>2015-07-17T08:09:52Z</time>
      </trkpt>
      <trkpt lat="46.406108681112528" lon="12.191721238195896">
        <ele>1738.6800000000001</ele>
        <time>2015-07-17T08:09:58Z</time>
      </trkpt>
      <trkpt lat="46.406016480177641" lon="12.191773038357496">
        <ele>1738.6800000000001</ele>
        <time>2015-07-17T08:10:09Z</time>
      </trkpt>
      <trkpt lat="46.405959650874138" lon="12.191819893196225">
        <ele>1737.72</ele>
        <time>2015-07-17T08:10:18Z</time>
      </trkpt>
      <trkpt lat="46.405945150181651" lon="12.191869346424937">
        <ele>1736.76</ele>
        <time>2015-07-17T08:10:22Z</time>
      </trkpt>
      <trkpt lat="46.405893266201019" lon="12.192012509331107">
        <ele>1733.8800000000001</ele>
        <time>2015-07-17T08:10:34Z</time>
      </trkpt>
      <trkpt lat="46.405829060822725" lon="12.192124156281352">
        <ele>1730.99</ele>
        <time>2015-07-17T08:10:46Z</time>
      </trkpt>
      <trkpt lat="46.405777344480157" lon="12.192233456298709">
        <ele>1728.5899999999999</ele>
        <time>2015-07-17T08:10:57Z</time>
      </trkpt>
      <trkpt lat="46.405708445236087" lon="12.192377038300037">
        <ele>1725.7</ele>
        <time>2015-07-17T08:11:10Z</time>
      </trkpt>
      <trkpt lat="46.405667960643768" lon="12.192445853725076">
        <ele>1724.74</ele>
        <time>2015-07-17T08:11:19Z</time>
      </trkpt>
      <trkpt lat="46.405640635639429" lon="12.192491535097361">
        <ele>1723.3</ele>
        <time>2015-07-17T08:11:25Z</time>
      </trkpt>
      <trkpt lat="46.405569221824408" lon="12.192572001367807">
        <ele>1721.8599999999999</ele>
        <time>2015-07-17T08:11:37Z</time>
      </trkpt>
      <trkpt lat="46.405502837151289" lon="12.192612402141094">
        <ele>1721.3800000000001</ele>
        <time>2015-07-17T08:11:43Z</time>
      </trkpt>
      <trkpt lat="46.405435279011726" lon="12.192630842328072">
        <ele>1721.3800000000001</ele>
        <time>2015-07-17T08:11:49Z</time>
      </trkpt>
      <trkpt lat="46.405350789427757" lon="12.192706363275647">
        <ele>1718.97</ele>
        <time>2015-07-17T08:12:01Z</time>
      </trkpt>
      <trkpt lat="46.405279207974672" lon="12.192834187299013">
        <ele>1716.0899999999999</ele>
        <time>2015-07-17T08:12:14Z</time>
      </trkpt>
      <trkpt lat="46.405215254053473" lon="12.192871067672968">
        <ele>1714.6500000000001</ele>
        <time>2015-07-17T08:12:27Z</time>
      </trkpt>
      <trkpt lat="46.405101008713245" lon="12.192905601114035">
        <ele>1712.73</ele>
        <time>2015-07-17T08:12:39Z</time>
      </trkpt>
      <trkpt lat="46.405030600726604" lon="12.192825302481651">
        <ele>1710.8</ele>
        <time>2015-07-17T08:12:51Z</time>
      </trkpt>
      <trkpt lat="46.405009645968676" lon="12.192791691049933">
        <ele>1709.8399999999999</ele>
        <time>2015-07-17T08:13:01Z</time>
      </trkpt>
      <trkpt lat="46.405049711465836" lon="12.192785320803523">
        <ele>1709.3599999999999</ele>
        <time>2015-07-17T08:13:12Z</time>
      </trkpt>
      <trkpt lat="46.405046693980694" lon="12.192752128466964">
        <ele>1708.4000000000001</ele>
        <time>2015-07-17T08:13:22Z</time>
      </trkpt>
      <trkpt lat="46.405070666223764" lon="12.192731341347098">
        <ele>1708.4000000000001</ele>
        <time>2015-07-17T08:13:50Z</time>
      </trkpt>
      <trkpt lat="46.405040575191379" lon="12.192770484834909">
        <ele>1708.8800000000001</ele>
        <time>2015-07-17T08:14:06Z</time>
      </trkpt>
      <trkpt lat="46.404946614056826" lon="12.19276805408299">
        <ele>1708.4000000000001</ele>
        <time>2015-07-17T08:14:17Z</time>
      </trkpt>
      <trkpt lat="46.404900094494224" lon="12.192728826776147">
        <ele>1705.52</ele>
        <time>2015-07-17T08:14:26Z</time>
      </trkpt>
      <trkpt lat="46.40478459186852" lon="12.192777106538415">
        <ele>1704.55</ele>
        <time>2015-07-17T08:14:40Z</time>
      </trkpt>
      <trkpt lat="46.404664143919945" lon="12.192764952778816">
        <ele>1705.04</ele>
        <time>2015-07-17T08:14:49Z</time>
      </trkpt>
      <trkpt lat="46.404562806710601" lon="12.192765204235911">
        <ele>1705.52</ele>
        <time>2015-07-17T08:14:59Z</time>
      </trkpt>
      <trkpt lat="46.404421823099256" lon="12.192842066287994">
        <ele>1705.04</ele>
        <time>2015-07-17T08:15:10Z</time>
      </trkpt>
      <trkpt lat="46.404287293553352" lon="12.19282228499651">
        <ele>1704.55</ele>
        <time>2015-07-17T08:15:21Z</time>
      </trkpt>
      <trkpt lat="46.40415427275002" lon="12.192825386300683">
        <ele>1702.6300000000001</ele>
        <time>2015-07-17T08:15:32Z</time>
      </trkpt>
      <trkpt lat="46.404032064601779" lon="12.192844999954104">
        <ele>1699.75</ele>
        <time>2015-07-17T08:15:43Z</time>
      </trkpt>
      <trkpt lat="46.403939109295607" lon="12.192776435986161">
        <ele>1699.27</ele>
        <time>2015-07-17T08:15:53Z</time>
      </trkpt>
      <trkpt lat="46.403803573921323" lon="12.192808957770467">
        <ele>1699.27</ele>
        <time>2015-07-17T08:16:01Z</time>
      </trkpt>
      <trkpt lat="46.403722688555717" lon="12.192869642749429">
        <ele>1700.71</ele>
        <time>2015-07-17T08:16:12Z</time>
      </trkpt>
      <trkpt lat="46.403658902272582" lon="12.192933848127723">
        <ele>1701.1900000000001</ele>
        <time>2015-07-17T08:16:19Z</time>
      </trkpt>
      <trkpt lat="46.40353761613369" lon="12.193174660205841">
        <ele>1701.1900000000001</ele>
        <time>2015-07-17T08:16:35Z</time>
      </trkpt>
      <trkpt lat="46.40337735414505" lon="12.193323606625199">
        <ele>1698.79</ele>
        <time>2015-07-17T08:16:45Z</time>
      </trkpt>
      <trkpt lat="46.403340641409159" lon="12.19345897436142">
        <ele>1696.3800000000001</ele>
        <time>2015-07-17T08:16:55Z</time>
      </trkpt>
      <trkpt lat="46.403364278376102" lon="12.193523095920682">
        <ele>1695.4200000000001</ele>
        <time>2015-07-17T08:17:01Z</time>
      </trkpt>
      <trkpt lat="46.403344245627522" lon="12.193660475313663">
        <ele>1693.98</ele>
        <time>2015-07-17T08:17:09Z</time>
      </trkpt>
      <trkpt lat="46.403290769085288" lon="12.193828616291285">
        <ele>1690.6199999999999</ele>
        <time>2015-07-17T08:17:20Z</time>
      </trkpt>
      <trkpt lat="46.403141068294644" lon="12.193898689001799">
        <ele>1688.21</ele>
        <time>2015-07-17T08:17:32Z</time>
      </trkpt>
      <trkpt lat="46.403079712763429" lon="12.193904388695955">
        <ele>1687.25</ele>
        <time>2015-07-17T08:17:37Z</time>
      </trkpt>
      <trkpt lat="46.403019363060594" lon="12.194051742553711">
        <ele>1684.3699999999999</ele>
        <time>2015-07-17T08:17:49Z</time>
      </trkpt>
      <trkpt lat="46.402964796870947" lon="12.194268330931664">
        <ele>1682.9300000000001</ele>
        <time>2015-07-17T08:18:02Z</time>
      </trkpt>
      <trkpt lat="46.402949877083302" lon="12.194295488297939">
        <ele>1682.4400000000001</ele>
        <time>2015-07-17T08:18:05Z</time>
      </trkpt>
      <trkpt lat="46.402890784665942" lon="12.194495983421803">
        <ele>1682.4400000000001</ele>
        <time>2015-07-17T08:18:17Z</time>
      </trkpt>
      <trkpt lat="46.402909643948078" lon="12.194631602615118">
        <ele>1681.48</ele>
        <time>2015-07-17T08:18:25Z</time>
      </trkpt>
      <trkpt lat="46.402933532372117" lon="12.194741237908602">
        <ele>1682.9300000000001</ele>
        <time>2015-07-17T08:18:37Z</time>
      </trkpt>
      <trkpt lat="46.402922216802835" lon="12.19473285600543">
        <ele>1682.4400000000001</ele>
        <time>2015-07-17T08:18:48Z</time>
      </trkpt>
      <trkpt lat="46.402977369725704" lon="12.194707710295916">
        <ele>1682.9300000000001</ele>
        <time>2015-07-17T08:18:58Z</time>
      </trkpt>
      <trkpt lat="46.402966305613518" lon="12.19470108859241">
        <ele>1682.4400000000001</ele>
        <time>2015-07-17T08:19:10Z</time>
      </trkpt>
      <trkpt lat="46.402945434674621" lon="12.194757582619786">
        <ele>1682.4400000000001</ele>
        <time>2015-07-17T08:19:28Z</time>
      </trkpt>
      <trkpt lat="46.402942920103669" lon="12.194742746651173">
        <ele>1681.96</ele>
        <time>2015-07-17T08:19:42Z</time>
      </trkpt>
      <trkpt lat="46.402907380834222" lon="12.194727072492242">
        <ele>1682.4400000000001</ele>
        <time>2015-07-17T08:20:04Z</time>
      </trkpt>
      <trkpt lat="46.402905201539397" lon="12.194688683375716">
        <ele>1682.4400000000001</ele>
        <time>2015-07-17T08:20:26Z</time>
      </trkpt>
      <trkpt lat="46.402913080528378" lon="12.194742076098919">
        <ele>1681.96</ele>
        <time>2015-07-17T08:20:43Z</time>
      </trkpt>
      <trkpt lat="46.402882738038898" lon="12.194750038906932">
        <ele>1682.4400000000001</ele>
        <time>2015-07-17T08:21:01Z</time>
      </trkpt>
      <trkpt lat="46.402879385277629" lon="12.194694969803095">
        <ele>1682.4400000000001</ele>
        <time>2015-07-17T08:21:20Z</time>
      </trkpt>
      <trkpt lat="46.402924647554755" lon="12.194675356149673">
        <ele>1681.96</ele>
        <time>2015-07-17T08:21:30Z</time>
      </trkpt>
      <trkpt lat="46.402948116883636" lon="12.19469765201211">
        <ele>1681.48</ele>
        <time>2015-07-17T08:21:39Z</time>
      </trkpt>
      <trkpt lat="46.402960438281298" lon="12.194742914289236">
        <ele>1681</ele>
        <time>2015-07-17T08:21:55Z</time>
      </trkpt>
      <trkpt lat="46.402986673638225" lon="12.19468449242413">
        <ele>1681</ele>
        <time>2015-07-17T08:22:17Z</time>
      </trkpt>
      <trkpt lat="46.402968065813184" lon="12.194687258452177">
        <ele>1681</ele>
        <time>2015-07-17T08:22:42Z</time>
      </trkpt>
      <trkpt lat="46.402953313663602" lon="12.194605199620128">
        <ele>1681</ele>
        <time>2015-07-17T08:23:11Z</time>
      </trkpt>
      <trkpt lat="46.402959516271949" lon="12.194702345877886">
        <ele>1681.48</ele>
        <time>2015-07-17T08:23:36Z</time>
      </trkpt>
      <trkpt lat="46.402984410524368" lon="12.194712152704597">
        <ele>1681</ele>
        <time>2015-07-17T08:24:04Z</time>
      </trkpt>
      <trkpt lat="46.402994133532047" lon="12.194684408605099">
        <ele>1681.48</ele>
        <time>2015-07-17T08:24:26Z</time>
      </trkpt>
      <trkpt lat="46.40302799642086" lon="12.19466588459909">
        <ele>1681.48</ele>
        <time>2015-07-17T08:24:50Z</time>
      </trkpt>
      <trkpt lat="46.403088932856917" lon="12.194607630372047">
        <ele>1681.48</ele>
        <time>2015-07-17T08:25:11Z</time>
      </trkpt>
      <trkpt lat="46.403006706386805" lon="12.194612408056855">
        <ele>1681.48</ele>
        <time>2015-07-17T08:25:46Z</time>
      </trkpt>
      <trkpt lat="46.402951804921031" lon="12.194639397785068">
        <ele>1681.48</ele>
        <time>2015-07-17T08:26:14Z</time>
      </trkpt>
      <trkpt lat="46.402902435511351" lon="12.19470695592463">
        <ele>1681.48</ele>
        <time>2015-07-17T08:26:45Z</time>
      </trkpt>
      <trkpt lat="46.402981979772449" lon="12.194699160754681">
        <ele>1681.48</ele>
        <time>2015-07-17T08:27:19Z</time>
      </trkpt>
      <trkpt lat="46.402980135753751" lon="12.194635542109609">
        <ele>1681.48</ele>
        <time>2015-07-17T08:27:47Z</time>
      </trkpt>
      <trkpt lat="46.402979968115687" lon="12.194622717797756">
        <ele>1681.48</ele>
        <time>2015-07-17T08:28:15Z</time>
      </trkpt>
      <trkpt lat="46.40300109051168" lon="12.194683905690908">
        <ele>1683.4100000000001</ele>
        <time>2015-07-17T08:28:27Z</time>
      </trkpt>
      <trkpt lat="46.402963371947408" lon="12.194664040580392">
        <ele>1682.4400000000001</ele>
        <time>2015-07-17T08:28:42Z</time>
      </trkpt>
      <trkpt lat="46.402986422181129" lon="12.194680385291576">
        <ele>1681.96</ele>
        <time>2015-07-17T08:28:52Z</time>
      </trkpt>
      <trkpt lat="46.403003688901663" lon="12.194684911519289">
        <ele>1681.48</ele>
        <time>2015-07-17T08:29:04Z</time>
      </trkpt>
      <trkpt lat="46.40296496450901" lon="12.194661861285567">
        <ele>1681.48</ele>
        <time>2015-07-17T08:29:29Z</time>
      </trkpt>
      <trkpt lat="46.403003102168441" lon="12.194711063057184">
        <ele>1681.48</ele>
        <time>2015-07-17T08:30:02Z</time>
      </trkpt>
      <trkpt lat="46.40303093008697" lon="12.194712907075882">
        <ele>1681.48</ele>
        <time>2015-07-17T08:30:32Z</time>
      </trkpt>
      <trkpt lat="46.40305632725358" lon="12.194734448567033">
        <ele>1681.48</ele>
        <time>2015-07-17T08:31:03Z</time>
      </trkpt>
      <trkpt lat="46.403019027784467" lon="12.194747440516949">
        <ele>1681</ele>
        <time>2015-07-17T08:31:27Z</time>
      </trkpt>
      <trkpt lat="46.403032941743731" lon="12.194701507687569">
        <ele>1681</ele>
        <time>2015-07-17T08:31:54Z</time>
      </trkpt>
      <trkpt lat="46.403009388595819" lon="12.194707710295916">
        <ele>1681</ele>
        <time>2015-07-17T08:32:19Z</time>
      </trkpt>
      <trkpt lat="46.402968484908342" lon="12.19479194842279">
        <ele>1681</ele>
        <time>2015-07-17T08:32:47Z</time>
      </trkpt>
      <trkpt lat="46.402913415804505" lon="12.194729000329971">
        <ele>1680.52</ele>
        <time>2015-07-17T08:33:13Z</time>
      </trkpt>
      <trkpt lat="46.402898915112019" lon="12.194758085533977">
        <ele>1680.52</ele>
        <time>2015-07-17T08:33:38Z</time>
      </trkpt>
      <trkpt lat="46.402936968952417" lon="12.194666303694248">
        <ele>1680.52</ele>
        <time>2015-07-17T08:34:10Z</time>
      </trkpt>
      <trkpt lat="46.402945518493652" lon="12.194712907075882">
        <ele>1680.52</ele>
        <time>2015-07-17T08:34:38Z</time>
      </trkpt>
      <trkpt lat="46.402976950630546" lon="12.194697316735983">
        <ele>1680.04</ele>
        <time>2015-07-17T08:35:07Z</time>
      </trkpt>
      <trkpt lat="46.403015004470944" lon="12.194701172411442">
        <ele>1680.04</ele>
        <time>2015-07-17T08:35:26Z</time>
      </trkpt>
      <trkpt lat="46.403009304776788" lon="12.194730676710606">
        <ele>1680.04</ele>
        <time>2015-07-17T08:35:50Z</time>
      </trkpt>
      <trkpt lat="46.403021207079291" lon="12.194718439131975">
        <ele>1680.04</ele>
        <time>2015-07-17T08:36:25Z</time>
      </trkpt>
      <trkpt lat="46.403047190979123" lon="12.194733861833811">
        <ele>1680.04</ele>
        <time>2015-07-17T08:36:48Z</time>
      </trkpt>
      <trkpt lat="46.403005616739392" lon="12.194700920954347">
        <ele>1680.04</ele>
        <time>2015-07-17T08:37:15Z</time>
      </trkpt>
      <trkpt lat="46.403007209300995" lon="12.194707542657852">
        <ele>1680.04</ele>
        <time>2015-07-17T08:37:39Z</time>
      </trkpt>
      <trkpt lat="46.402991032227874" lon="12.194696310907602">
        <ele>1679.5599999999999</ele>
        <time>2015-07-17T08:38:08Z</time>
      </trkpt>
      <trkpt lat="46.402984661981463" lon="12.194713661447167">
        <ele>1679.5599999999999</ele>
        <time>2015-07-17T08:38:30Z</time>
      </trkpt>
      <trkpt lat="46.402985164895654" lon="12.194702597334981">
        <ele>1679.5599999999999</ele>
        <time>2015-07-17T08:38:55Z</time>
      </trkpt>
      <trkpt lat="46.402985416352749" lon="12.194701926782727">
        <ele>1679.5599999999999</ele>
        <time>2015-07-17T08:39:16Z</time>
      </trkpt>
      <trkpt lat="46.402965299785137" lon="12.194734951481223">
        <ele>1679.5599999999999</ele>
        <time>2015-07-17T08:39:44Z</time>
      </trkpt>
      <trkpt lat="46.402980638667941" lon="12.194703603163362">
        <ele>1679.0799999999999</ele>
        <time>2015-07-17T08:40:11Z</time>
      </trkpt>
      <trkpt lat="46.402974184602499" lon="12.194785159081221">
        <ele>1679.5599999999999</ele>
        <time>2015-07-17T08:40:40Z</time>
      </trkpt>
      <trkpt lat="46.402960186824203" lon="12.194754565134645">
        <ele>1680.04</ele>
        <time>2015-07-17T08:40:50Z</time>
      </trkpt>
      <trkpt lat="46.40297032892704" lon="12.194741405546665">
        <ele>1680.04</ele>
        <time>2015-07-17T08:41:03Z</time>
      </trkpt>
      <trkpt lat="46.402947781607509" lon="12.194757582619786">
        <ele>1680.04</ele>
        <time>2015-07-17T08:41:13Z</time>
      </trkpt>
      <trkpt lat="46.402939734980464" lon="12.194743501022458">
        <ele>1680.04</ele>
        <time>2015-07-17T08:41:25Z</time>
      </trkpt>
      <trkpt lat="46.402934873476624" lon="12.194774346426129">
        <ele>1679.5599999999999</ele>
        <time>2015-07-17T08:41:37Z</time>
      </trkpt>
      <trkpt lat="46.402909979224205" lon="12.194794546812773">
        <ele>1679.5599999999999</ele>
        <time>2015-07-17T08:41:56Z</time>
      </trkpt>
      <trkpt lat="46.402882905676961" lon="12.194807371124625">
        <ele>1680.04</ele>
        <time>2015-07-17T08:42:09Z</time>
      </trkpt>
      <trkpt lat="46.402759440243244" lon="12.194839892908931">
        <ele>1678.5999999999999</ele>
        <time>2015-07-17T08:42:18Z</time>
      </trkpt>
      <trkpt lat="46.402665646746755" lon="12.19499085098505">
        <ele>1677.6400000000001</ele>
        <time>2015-07-17T08:42:30Z</time>
      </trkpt>
      <trkpt lat="46.402570763602853" lon="12.195076765492558">
        <ele>1676.6800000000001</ele>
        <time>2015-07-17T08:42:42Z</time>
      </trkpt>
      <trkpt lat="46.402550479397178" lon="12.19507584348321">
        <ele>1676.6800000000001</ele>
        <time>2015-07-17T08:42:44Z</time>
      </trkpt>
      <trkpt lat="46.40240496955812" lon="12.194972494617105">
        <ele>1675.72</ele>
        <time>2015-07-17T08:42:57Z</time>
      </trkpt>
      <trkpt lat="46.402340093627572" lon="12.194946175441146">
        <ele>1673.79</ele>
        <time>2015-07-17T08:43:04Z</time>
      </trkpt>
      <trkpt lat="46.402222495526075" lon="12.194942235946655">
        <ele>1671.8699999999999</ele>
        <time>2015-07-17T08:43:16Z</time>
      </trkpt>
      <trkpt lat="46.402210844680667" lon="12.194943828508258">
        <ele>1671.8699999999999</ele>
        <time>2015-07-17T08:43:17Z</time>
      </trkpt>
      <trkpt lat="46.402184022590518" lon="12.194945337250829">
        <ele>1671.3900000000001</ele>
        <time>2015-07-17T08:43:19Z</time>
      </trkpt>
      <trkpt lat="46.402047481387854" lon="12.194970650598407">
        <ele>1670.4300000000001</ele>
        <time>2015-07-17T08:43:31Z</time>
      </trkpt>
      <trkpt lat="46.401900965720415" lon="12.19495564699173">
        <ele>1667.0599999999999</ele>
        <time>2015-07-17T08:43:46Z</time>
      </trkpt>
      <trkpt lat="46.401761490851641" lon="12.194920442998409">
        <ele>1664.6600000000001</ele>
        <time>2015-07-17T08:44:00Z</time>
      </trkpt>
      <trkpt lat="46.401686388999224" lon="12.194892531260848">
        <ele>1662.74</ele>
        <time>2015-07-17T08:44:09Z</time>
      </trkpt>
      <trkpt lat="46.401537610217929" lon="12.194797229021788">
        <ele>1659.8499999999999</ele>
        <time>2015-07-17T08:44:21Z</time>
      </trkpt>
      <trkpt lat="46.401446834206581" lon="12.194749535992742">
        <ele>1658.4100000000001</ele>
        <time>2015-07-17T08:44:32Z</time>
      </trkpt>
      <trkpt lat="46.401325212791562" lon="12.194773256778717">
        <ele>1656.01</ele>
        <time>2015-07-17T08:44:42Z</time>
      </trkpt>
      <trkpt lat="46.401243405416608" lon="12.194819524884224">
        <ele>1653.5999999999999</ele>
        <time>2015-07-17T08:44:53Z</time>
      </trkpt>
      <trkpt lat="46.401097308844328" lon="12.194815250113606">
        <ele>1651.6800000000001</ele>
        <time>2015-07-17T08:45:05Z</time>
      </trkpt>
      <trkpt lat="46.400990355759859" lon="12.194839557632804">
        <ele>1651.6800000000001</ele>
        <time>2015-07-17T08:45:17Z</time>
      </trkpt>
      <trkpt lat="46.400859262794256" lon="12.19479538500309">
        <ele>1652.1600000000001</ele>
        <time>2015-07-17T08:45:29Z</time>
      </trkpt>
      <trkpt lat="46.400829674676061" lon="12.194828912615776">
        <ele>1652.6400000000001</ele>
        <time>2015-07-17T08:45:43Z</time>
      </trkpt>
      <trkpt lat="46.400659773498774" lon="12.194794546812773">
        <ele>1653.1199999999999</ele>
        <time>2015-07-17T08:45:58Z</time>
      </trkpt>
      <trkpt lat="46.400522813200951" lon="12.194752302020788">
        <ele>1654.5699999999999</ele>
        <time>2015-07-17T08:46:12Z</time>
      </trkpt>
      <trkpt lat="46.400428181514144" lon="12.194746686145663">
        <ele>1655.53</ele>
        <time>2015-07-17T08:46:25Z</time>
      </trkpt>
      <trkpt lat="46.400402281433344" lon="12.194754984229803">
        <ele>1655.53</ele>
        <time>2015-07-17T08:46:27Z</time>
      </trkpt>
      <trkpt lat="46.400213772431016" lon="12.194805108010769">
        <ele>1652.6400000000001</ele>
        <time>2015-07-17T08:46:40Z</time>
      </trkpt>
      <trkpt lat="46.400123918429017" lon="12.194812400266528">
        <ele>1651.2</ele>
        <time>2015-07-17T08:46:47Z</time>
      </trkpt>
      <trkpt lat="46.399965668097138" lon="12.194764958694577">
        <ele>1649.76</ele>
        <time>2015-07-17T08:46:59Z</time>
      </trkpt>
      <trkpt lat="46.399867180734873" lon="12.194704944267869">
        <ele>1647.8399999999999</ele>
        <time>2015-07-17T08:47:11Z</time>
      </trkpt>
      <trkpt lat="46.399759808555245" lon="12.194582149386406">
        <ele>1645.9100000000001</ele>
        <time>2015-07-17T08:47:22Z</time>
      </trkpt>
      <trkpt lat="46.399653861299157" lon="12.194562200456858">
        <ele>1643.51</ele>
        <time>2015-07-17T08:47:32Z</time>
      </trkpt>
      <trkpt lat="46.399566270411015" lon="12.194588184356689">
        <ele>1641.5899999999999</ele>
        <time>2015-07-17T08:47:42Z</time>
      </trkpt>
      <trkpt lat="46.399482535198331" lon="12.19461559318006">
        <ele>1639.1900000000001</ele>
        <time>2015-07-17T08:47:53Z</time>
      </trkpt>
      <trkpt lat="46.399337528273463" lon="12.194688012823462">
        <ele>1636.78</ele>
        <time>2015-07-17T08:48:07Z</time>
      </trkpt>
      <trkpt lat="46.399200819432735" lon="12.194741489365697">
        <ele>1633.9000000000001</ele>
        <time>2015-07-17T08:48:17Z</time>
      </trkpt>
      <trkpt lat="46.399147007614374" lon="12.194804605096579">
        <ele>1633.4200000000001</ele>
        <time>2015-07-17T08:48:28Z</time>
      </trkpt>
      <trkpt lat="46.399007365107536" lon="12.194861602038145">
        <ele>1630.05</ele>
        <time>2015-07-17T08:48:41Z</time>
      </trkpt>
      <trkpt lat="46.398960845544934" lon="12.194871995598078">
        <ele>1628.6099999999999</ele>
        <time>2015-07-17T08:48:44Z</time>
      </trkpt>
      <trkpt lat="46.398909883573651" lon="12.194874593988061">
        <ele>1627.1700000000001</ele>
        <time>2015-07-17T08:48:48Z</time>
      </trkpt>
      <trkpt lat="46.398813659325242" lon="12.194869900122285">
        <ele>1623.8</ele>
        <time>2015-07-17T08:48:56Z</time>
      </trkpt>
      <trkpt lat="46.398777030408382" lon="12.194903595373034">
        <ele>1622.3599999999999</ele>
        <time>2015-07-17T08:49:00Z</time>
      </trkpt>
      <trkpt lat="46.398757416754961" lon="12.194940308108926">
        <ele>1620.9200000000001</ele>
        <time>2015-07-17T08:49:03Z</time>
      </trkpt>
      <trkpt lat="46.398664880543947" lon="12.19509101472795">
        <ele>1618.04</ele>
        <time>2015-07-17T08:49:15Z</time>
      </trkpt>
      <trkpt lat="46.398656247183681" lon="12.195103755220771">
        <ele>1617.5599999999999</ele>
        <time>2015-07-17T08:49:16Z</time>
      </trkpt>
      <trkpt lat="46.398553736507893" lon="12.19529083929956">
        <ele>1615.6300000000001</ele>
        <time>2015-07-17T08:49:28Z</time>
      </trkpt>
      <trkpt lat="46.398519622161984" lon="12.195532154291868">
        <ele>1614.1900000000001</ele>
        <time>2015-07-17T08:49:42Z</time>
      </trkpt>
      <trkpt lat="46.398470504209399" lon="12.195553025230765">
        <ele>1612.27</ele>
        <time>2015-07-17T08:49:46Z</time>
      </trkpt>
      <trkpt lat="46.398367322981358" lon="12.195534836500883">
        <ele>1608.9000000000001</ele>
        <time>2015-07-17T08:49:59Z</time>
      </trkpt>
      <trkpt lat="46.398360785096884" lon="12.195513043552637">
        <ele>1609.8599999999999</ele>
        <time>2015-07-17T08:50:12Z</time>
      </trkpt>
      <trkpt lat="46.39836790971458" lon="12.195468451827765">
        <ele>1609.3800000000001</ele>
        <time>2015-07-17T08:50:30Z</time>
      </trkpt>
      <trkpt lat="46.398430690169334" lon="12.195583116263151">
        <ele>1609.8599999999999</ele>
        <time>2015-07-17T08:50:43Z</time>
      </trkpt>
      <trkpt lat="46.398485591635108" lon="12.195618152618408">
        <ele>1609.3800000000001</ele>
        <time>2015-07-17T08:50:51Z</time>
      </trkpt>
      <trkpt lat="46.398622551932931" lon="12.195667354390025">
        <ele>1607.9400000000001</ele>
        <time>2015-07-17T08:51:04Z</time>
      </trkpt>
      <trkpt lat="46.398729002103209" lon="12.195749161764979">
        <ele>1606.98</ele>
        <time>2015-07-17T08:51:15Z</time>
      </trkpt>
      <trkpt lat="46.398835787549615" lon="12.195850079879165">
        <ele>1606.5</ele>
        <time>2015-07-17T08:51:22Z</time>
      </trkpt>
      <trkpt lat="46.398821622133255" lon="12.196018807590008">
        <ele>1607.46</ele>
        <time>2015-07-17T08:51:34Z</time>
      </trkpt>
      <trkpt lat="46.398780718445778" lon="12.196265235543251">
        <ele>1608.9000000000001</ele>
        <time>2015-07-17T08:51:48Z</time>
      </trkpt>
      <trkpt lat="46.398795219138265" lon="12.196333548054099">
        <ele>1609.3800000000001</ele>
        <time>2015-07-17T08:51:52Z</time>
      </trkpt>
      <trkpt lat="46.398799996823072" lon="12.196349976584315">
        <ele>1609.3800000000001</ele>
        <time>2015-07-17T08:51:53Z</time>
      </trkpt>
      <trkpt lat="46.398831848055124" lon="12.196495570242405">
        <ele>1609.3800000000001</ele>
        <time>2015-07-17T08:52:03Z</time>
      </trkpt>
      <trkpt lat="46.39883603900671" lon="12.196512836962938">
        <ele>1609.3800000000001</ele>
        <time>2015-07-17T08:52:04Z</time>
      </trkpt>
      <trkpt lat="46.398859256878495" lon="12.196677373722196">
        <ele>1609.8599999999999</ele>
        <time>2015-07-17T08:52:15Z</time>
      </trkpt>
      <trkpt lat="46.39890686608851" lon="12.196799917146564">
        <ele>1610.3499999999999</ele>
        <time>2015-07-17T08:52:21Z</time>
      </trkpt>
      <trkpt lat="46.398928575217724" lon="12.196866720914841">
        <ele>1610.8299999999999</ele>
        <time>2015-07-17T08:52:24Z</time>
      </trkpt>
      <trkpt lat="46.398931508883834" lon="12.196886334568262">
        <ele>1610.8299999999999</ele>
        <time>2015-07-17T08:52:25Z</time>
      </trkpt>
      <trkpt lat="46.398935029283166" lon="12.196921538561583">
        <ele>1610.8299999999999</ele>
        <time>2015-07-17T08:52:27Z</time>
      </trkpt>
      <trkpt lat="46.398936789482832" lon="12.197166122496128">
        <ele>1611.79</ele>
        <time>2015-07-17T08:52:40Z</time>
      </trkpt>
      <trkpt lat="46.398931173607707" lon="12.197272572666407">
        <ele>1611.79</ele>
        <time>2015-07-17T08:52:51Z</time>
      </trkpt>
      <trkpt lat="46.398938801139593" lon="12.197469128295779">
        <ele>1610.8299999999999</ele>
        <time>2015-07-17T08:53:03Z</time>
      </trkpt>
      <trkpt lat="46.398961683735251" lon="12.197717484086752">
        <ele>1608.9000000000001</ele>
        <time>2015-07-17T08:53:16Z</time>
      </trkpt>
      <trkpt lat="46.398968221619725" lon="12.197855031117797">
        <ele>1607.9400000000001</ele>
        <time>2015-07-17T08:53:26Z</time>
      </trkpt>
      <trkpt lat="46.398961516097188" lon="12.197882942855358">
        <ele>1607.9400000000001</ele>
        <time>2015-07-17T08:53:28Z</time>
      </trkpt>
      <trkpt lat="46.398955732584" lon="12.197967767715454">
        <ele>1606.98</ele>
        <time>2015-07-17T08:53:33Z</time>
      </trkpt>
      <trkpt lat="46.398955397307873" lon="12.1979861240834">
        <ele>1606.5</ele>
        <time>2015-07-17T08:53:34Z</time>
      </trkpt>
      <trkpt lat="46.398930670693517" lon="12.198239425197244">
        <ele>1605.0599999999999</ele>
        <time>2015-07-17T08:53:46Z</time>
      </trkpt>
      <trkpt lat="46.398886917158961" lon="12.198397424072027">
        <ele>1604.0999999999999</ele>
        <time>2015-07-17T08:53:55Z</time>
      </trkpt>
      <trkpt lat="46.398849869146943" lon="12.19845375046134">
        <ele>1603.1400000000001</ele>
        <time>2015-07-17T08:54:03Z</time>
      </trkpt>
      <trkpt lat="46.398844169452786" lon="12.198458528146148">
        <ele>1603.1400000000001</ele>
        <time>2015-07-17T08:54:04Z</time>
      </trkpt>
      <trkpt lat="46.398761859163642" lon="12.198418714106083">
        <ele>1604.0999999999999</ele>
        <time>2015-07-17T08:54:16Z</time>
      </trkpt>
      <trkpt lat="46.398738725110888" lon="12.198344869539142">
        <ele>1605.0599999999999</ele>
        <time>2015-07-17T08:54:22Z</time>
      </trkpt>
      <trkpt lat="46.398565219715238" lon="12.198231797665358">
        <ele>1605.54</ele>
        <time>2015-07-17T08:54:35Z</time>
      </trkpt>
      <trkpt lat="46.398432785645127" lon="12.19828762114048">
        <ele>1605.0599999999999</ele>
        <time>2015-07-17T08:54:44Z</time>
      </trkpt>
      <trkpt lat="46.398322395980358" lon="12.198412595316768">
        <ele>1604.0999999999999</ele>
        <time>2015-07-17T08:54:56Z</time>
      </trkpt>
      <trkpt lat="46.398296244442463" lon="12.198484176769853">
        <ele>1603.1400000000001</ele>
        <time>2015-07-17T08:55:06Z</time>
      </trkpt>
      <trkpt lat="46.398260621353984" lon="12.198535976931453">
        <ele>1602.6600000000001</ele>
        <time>2015-07-17T08:55:18Z</time>
      </trkpt>
      <trkpt lat="46.398154338821769" lon="12.198651228100061">
        <ele>1603.1400000000001</ele>
        <time>2015-07-17T08:55:29Z</time>
      </trkpt>
      <trkpt lat="46.398147717118263" lon="12.198668913915753">
        <ele>1602.1700000000001</ele>
        <time>2015-07-17T08:55:30Z</time>
      </trkpt>
      <trkpt lat="46.398050738498569" lon="12.1988270804286">
        <ele>1600.25</ele>
        <time>2015-07-17T08:55:43Z</time>
      </trkpt>
      <trkpt lat="46.398042105138302" lon="12.198768239468336">
        <ele>1600.25</ele>
        <time>2015-07-17T08:55:55Z</time>
      </trkpt>
      <trkpt lat="46.39801855199039" lon="12.198789110407233">
        <ele>1600.25</ele>
        <time>2015-07-17T08:56:06Z</time>
      </trkpt>
      <trkpt lat="46.397863235324621" lon="12.198796067386866">
        <ele>1599.29</ele>
        <time>2015-07-17T08:56:17Z</time>
      </trkpt>
      <trkpt lat="46.397768519818783" lon="12.198717528954148">
        <ele>1600.25</ele>
        <time>2015-07-17T08:56:27Z</time>
      </trkpt>
      <trkpt lat="46.397638181224465" lon="12.1986716799438">
        <ele>1597.8499999999999</ele>
        <time>2015-07-17T08:56:35Z</time>
      </trkpt>
      <trkpt lat="46.397467944771051" lon="12.198636559769511">
        <ele>1596.4100000000001</ele>
        <time>2015-07-17T08:56:46Z</time>
      </trkpt>
      <trkpt lat="46.397454366087914" lon="12.198657430708408">
        <ele>1596.8900000000001</ele>
        <time>2015-07-17T08:56:47Z</time>
      </trkpt>
      <trkpt lat="46.397436177358031" lon="12.19867997802794">
        <ele>1596.4100000000001</ele>
        <time>2015-07-17T08:56:48Z</time>
      </trkpt>
      <trkpt lat="46.397381778806448" lon="12.198865218088031">
        <ele>1595.45</ele>
        <time>2015-07-17T08:56:58Z</time>
      </trkpt>
      <trkpt lat="46.397273652255535" lon="12.199045093730092">
        <ele>1594</ele>
        <time>2015-07-17T08:57:11Z</time>
      </trkpt>
      <trkpt lat="46.397136356681585" lon="12.199178030714393">
        <ele>1593.04</ele>
        <time>2015-07-17T08:57:22Z</time>
      </trkpt>
      <trkpt lat="46.397033426910639" lon="12.199238380417228">
        <ele>1592.5599999999999</ele>
        <time>2015-07-17T08:57:33Z</time>
      </trkpt>
      <trkpt lat="46.396932173520327" lon="12.19941440038383">
        <ele>1591.1199999999999</ele>
        <time>2015-07-17T08:57:43Z</time>
      </trkpt>
      <trkpt lat="46.396920187398791" lon="12.199458321556449">
        <ele>1591.1199999999999</ele>
        <time>2015-07-17T08:57:45Z</time>
      </trkpt>
      <trkpt lat="46.396886995062232" lon="12.19952923245728">
        <ele>1590.6400000000001</ele>
        <time>2015-07-17T08:57:50Z</time>
      </trkpt>
      <trkpt lat="46.396880876272917" lon="12.199547505006194">
        <ele>1590.1600000000001</ele>
        <time>2015-07-17T08:57:51Z</time>
      </trkpt>
      <trkpt lat="46.396828908473253" lon="12.199721094220877">
        <ele>1589.2</ele>
        <time>2015-07-17T08:58:02Z</time>
      </trkpt>
      <trkpt lat="46.396743329241872" lon="12.199959391728044">
        <ele>1588.24</ele>
        <time>2015-07-17T08:58:15Z</time>
      </trkpt>
      <trkpt lat="46.396700916811824" lon="12.20005695708096">
        <ele>1587.75</ele>
        <time>2015-07-17T08:58:25Z</time>
      </trkpt>
      <trkpt lat="46.396728828549385" lon="12.200310425832868">
        <ele>1586.79</ele>
        <time>2015-07-17T08:58:36Z</time>
      </trkpt>
      <trkpt lat="46.396726313978434" lon="12.200330123305321">
        <ele>1586.3099999999999</ele>
        <time>2015-07-17T08:58:37Z</time>
      </trkpt>
      <trkpt lat="46.396704604849219" lon="12.200399106368423">
        <ele>1586.3099999999999</ele>
        <time>2015-07-17T08:58:41Z</time>
      </trkpt>
      <trkpt lat="46.396665712818503" lon="12.200522487983108">
        <ele>1585.3499999999999</ele>
        <time>2015-07-17T08:58:48Z</time>
      </trkpt>
      <trkpt lat="46.396641405299306" lon="12.200626926496625">
        <ele>1584.3900000000001</ele>
        <time>2015-07-17T08:58:56Z</time>
      </trkpt>
      <trkpt lat="46.396584492176771" lon="12.200827756896615">
        <ele>1582.95</ele>
        <time>2015-07-17T08:59:07Z</time>
      </trkpt>
      <trkpt lat="46.396485334262252" lon="12.200981983914971">
        <ele>1582.47</ele>
        <time>2015-07-17T08:59:19Z</time>
      </trkpt>
      <trkpt lat="46.396406376734376" lon="12.201220449060202">
        <ele>1581.03</ele>
        <time>2015-07-17T08:59:35Z</time>
      </trkpt>
      <trkpt lat="46.396331693977118" lon="12.201455477625132">
        <ele>1579.0999999999999</ele>
        <time>2015-07-17T08:59:50Z</time>
      </trkpt>
      <trkpt lat="46.396303111687303" lon="12.201708192005754">
        <ele>1577.6600000000001</ele>
        <time>2015-07-17T09:00:02Z</time>
      </trkpt>
      <trkpt lat="46.396270673722029" lon="12.20197482034564">
        <ele>1576.22</ele>
        <time>2015-07-17T09:00:14Z</time>
      </trkpt>
      <trkpt lat="46.396277546882629" lon="12.202276485040784">
        <ele>1575.74</ele>
        <time>2015-07-17T09:00:29Z</time>
      </trkpt>
      <trkpt lat="46.396341249346733" lon="12.202494163066149">
        <ele>1574.78</ele>
        <time>2015-07-17T09:00:42Z</time>
      </trkpt>
      <trkpt lat="46.396374944597483" lon="12.202531881630421">
        <ele>1574.78</ele>
        <time>2015-07-17T09:00:52Z</time>
      </trkpt>
      <trkpt lat="46.396415513008833" lon="12.202641516923904">
        <ele>1574.3</ele>
        <time>2015-07-17T09:01:03Z</time>
      </trkpt>
      <trkpt lat="46.396497236564755" lon="12.202882329002023">
        <ele>1572.8499999999999</ele>
        <time>2015-07-17T09:01:16Z</time>
      </trkpt>
      <trkpt lat="46.396516095846891" lon="12.203138563781977">
        <ele>1571.4100000000001</ele>
        <time>2015-07-17T09:01:30Z</time>
      </trkpt>
      <trkpt lat="46.396414171904325" lon="12.20333025790751">
        <ele>1570.9300000000001</ele>
        <time>2015-07-17T09:01:42Z</time>
      </trkpt>
      <trkpt lat="46.396352984011173" lon="12.203364204615355">
        <ele>1570.9300000000001</ele>
        <time>2015-07-17T09:01:50Z</time>
      </trkpt>
      <trkpt lat="46.396375196054578" lon="12.203354062512517">
        <ele>1570.45</ele>
        <time>2015-07-17T09:02:01Z</time>
      </trkpt>
      <trkpt lat="46.3963567558676" lon="12.203442072495818">
        <ele>1570.9300000000001</ele>
        <time>2015-07-17T09:02:15Z</time>
      </trkpt>
      <trkpt lat="46.39635625295341" lon="12.203488927334547">
        <ele>1570.9300000000001</ele>
        <time>2015-07-17T09:02:17Z</time>
      </trkpt>
      <trkpt lat="46.396362874656916" lon="12.203513570129871">
        <ele>1570.9300000000001</ele>
        <time>2015-07-17T09:02:18Z</time>
      </trkpt>
      <trkpt lat="46.396373687312007" lon="12.203646255657077">
        <ele>1570.9300000000001</ele>
        <time>2015-07-17T09:02:25Z</time>
      </trkpt>
      <trkpt lat="46.396377710625529" lon="12.203664528205991">
        <ele>1570.9300000000001</ele>
        <time>2015-07-17T09:02:26Z</time>
      </trkpt>
      <trkpt lat="46.396379638463259" lon="12.203681711107492">
        <ele>1570.9300000000001</ele>
        <time>2015-07-17T09:02:27Z</time>
      </trkpt>
      <trkpt lat="46.396380560472608" lon="12.203696798533201">
        <ele>1570.9300000000001</ele>
        <time>2015-07-17T09:02:28Z</time>
      </trkpt>
      <trkpt lat="46.396386595442891" lon="12.203714651986957">
        <ele>1570.9300000000001</ele>
        <time>2015-07-17T09:02:29Z</time>
      </trkpt>
      <trkpt lat="46.396393217146397" lon="12.203730326145887">
        <ele>1570.9300000000001</ele>
        <time>2015-07-17T09:02:30Z</time>
      </trkpt>
      <trkpt lat="46.396398665383458" lon="12.203746335580945">
        <ele>1570.9300000000001</ele>
        <time>2015-07-17T09:02:31Z</time>
      </trkpt>
      <trkpt lat="46.396403443068266" lon="12.203764356672764">
        <ele>1571.4100000000001</ele>
        <time>2015-07-17T09:02:32Z</time>
      </trkpt>
      <trkpt lat="46.396409226581454" lon="12.20378564670682">
        <ele>1571.4100000000001</ele>
        <time>2015-07-17T09:02:33Z</time>
      </trkpt>
      <trkpt lat="46.396444849669933" lon="12.203943058848381">
        <ele>1571.4100000000001</ele>
        <time>2015-07-17T09:02:42Z</time>
      </trkpt>
      <trkpt lat="46.396468235179782" lon="12.20418001525104">
        <ele>1571.8900000000001</ele>
        <time>2015-07-17T09:02:56Z</time>
      </trkpt>
      <trkpt lat="46.396464379504323" lon="12.204304486513138">
        <ele>1570.45</ele>
        <time>2015-07-17T09:03:04Z</time>
      </trkpt>
      <trkpt lat="46.39646178111434" lon="12.204321501776576">
        <ele>1570.45</ele>
        <time>2015-07-17T09:03:05Z</time>
      </trkpt>
      <trkpt lat="46.396460020914674" lon="12.204341869801283">
        <ele>1569.97</ele>
        <time>2015-07-17T09:03:06Z</time>
      </trkpt>
      <trkpt lat="46.396449627354741" lon="12.204450163990259">
        <ele>1569.97</ele>
        <time>2015-07-17T09:03:12Z</time>
      </trkpt>
      <trkpt lat="46.396454572677612" lon="12.204476986080408">
        <ele>1569.97</ele>
        <time>2015-07-17T09:03:13Z</time>
      </trkpt>
      <trkpt lat="46.396460272371769" lon="12.204751074314117">
        <ele>1569.49</ele>
        <time>2015-07-17T09:03:28Z</time>
      </trkpt>
      <trkpt lat="46.396568650379777" lon="12.204971434548497">
        <ele>1569.49</ele>
        <time>2015-07-17T09:03:43Z</time>
      </trkpt>
      <trkpt lat="46.396712148562074" lon="12.205099007114768">
        <ele>1569.97</ele>
        <time>2015-07-17T09:03:56Z</time>
      </trkpt>
      <trkpt lat="46.396778952330351" lon="12.205385835841298">
        <ele>1570.9300000000001</ele>
        <time>2015-07-17T09:04:11Z</time>
      </trkpt>
      <trkpt lat="46.396781383082271" lon="12.205639388412237">
        <ele>1571.8900000000001</ele>
        <time>2015-07-17T09:04:25Z</time>
      </trkpt>
      <trkpt lat="46.396771240979433" lon="12.205890510231256">
        <ele>1573.3299999999999</ele>
        <time>2015-07-17T09:04:40Z</time>
      </trkpt>
      <trkpt lat="46.396765373647213" lon="12.206128304824233">
        <ele>1573.8199999999999</ele>
        <time>2015-07-17T09:04:54Z</time>
      </trkpt>
      <trkpt lat="46.396733019500971" lon="12.206334080547094">
        <ele>1574.78</ele>
        <time>2015-07-17T09:05:08Z</time>
      </trkpt>
      <trkpt lat="46.39673100784421" lon="12.20652736723423">
        <ele>1576.22</ele>
        <time>2015-07-17T09:05:20Z</time>
      </trkpt>
      <trkpt lat="46.396773671731353" lon="12.206644713878632">
        <ele>1576.7</ele>
        <time>2015-07-17T09:05:25Z</time>
      </trkpt>
      <trkpt lat="46.396795883774757" lon="12.206707578152418">
        <ele>1576.7</ele>
        <time>2015-07-17T09:05:29Z</time>
      </trkpt>
      <trkpt lat="46.39679747633636" lon="12.206724928691983">
        <ele>1576.7</ele>
        <time>2015-07-17T09:05:30Z</time>
      </trkpt>
      <trkpt lat="46.396775683388114" lon="12.206911845132709">
        <ele>1577.6600000000001</ele>
        <time>2015-07-17T09:05:43Z</time>
      </trkpt>
      <trkpt lat="46.396767552942038" lon="12.207100857049227">
        <ele>1578.6199999999999</ele>
        <time>2015-07-17T09:05:55Z</time>
      </trkpt>
      <trkpt lat="46.396752214059234" lon="12.207162296399474">
        <ele>1578.6199999999999</ele>
        <time>2015-07-17T09:05:59Z</time>
      </trkpt>
      <trkpt lat="46.39667677693069" lon="12.207311578094959">
        <ele>1579.0999999999999</ele>
        <time>2015-07-17T09:06:09Z</time>
      </trkpt>
      <trkpt lat="46.396637801080942" lon="12.207526238635182">
        <ele>1580.0599999999999</ele>
        <time>2015-07-17T09:06:22Z</time>
      </trkpt>
      <trkpt lat="46.396635035052896" lon="12.207694966346025">
        <ele>1580.54</ele>
        <time>2015-07-17T09:06:28Z</time>
      </trkpt>
      <trkpt lat="46.396558173000813" lon="12.207862939685583">
        <ele>1581.51</ele>
        <time>2015-07-17T09:06:40Z</time>
      </trkpt>
      <trkpt lat="46.396534536033869" lon="12.207971401512623">
        <ele>1581.51</ele>
        <time>2015-07-17T09:06:47Z</time>
      </trkpt>
      <trkpt lat="46.396531770005822" lon="12.207988249137998">
        <ele>1581.51</ele>
        <time>2015-07-17T09:06:48Z</time>
      </trkpt>
      <trkpt lat="46.396523723378778" lon="12.208022950217128">
        <ele>1583.4300000000001</ele>
        <time>2015-07-17T09:06:50Z</time>
      </trkpt>
      <trkpt lat="46.396485501900315" lon="12.208207603543997">
        <ele>1582.95</ele>
        <time>2015-07-17T09:07:01Z</time>
      </trkpt>
      <trkpt lat="46.396488770842552" lon="12.208415223285556">
        <ele>1583.4300000000001</ele>
        <time>2015-07-17T09:07:12Z</time>
      </trkpt>
      <trkpt lat="46.396477539092302" lon="12.208595518022776">
        <ele>1583.9100000000001</ele>
        <time>2015-07-17T09:07:23Z</time>
      </trkpt>
      <trkpt lat="46.396442167460918" lon="12.208706997334957">
        <ele>1583.9100000000001</ele>
        <time>2015-07-17T09:07:31Z</time>
      </trkpt>
      <trkpt lat="46.396391037851572" lon="12.208801126107574">
        <ele>1583.9100000000001</ele>
        <time>2015-07-17T09:07:38Z</time>
      </trkpt>
      <trkpt lat="46.396328844130039" lon="12.208846975117922">
        <ele>1584.8699999999999</ele>
        <time>2015-07-17T09:07:47Z</time>
      </trkpt>
      <trkpt lat="46.396306380629539" lon="12.208819398656487">
        <ele>1584.8699999999999</ele>
        <time>2015-07-17T09:07:51Z</time>
      </trkpt>
      <trkpt lat="46.396295484155416" lon="12.208807999268174">
        <ele>1584.8699999999999</ele>
        <time>2015-07-17T09:07:52Z</time>
      </trkpt>
      <trkpt lat="46.396230021491647" lon="12.208697777241468">
        <ele>1584.8699999999999</ele>
        <time>2015-07-17T09:08:01Z</time>
      </trkpt>
      <trkpt lat="46.396208815276623" lon="12.208611024543643">
        <ele>1585.8299999999999</ele>
        <time>2015-07-17T09:08:11Z</time>
      </trkpt>
      <trkpt lat="46.396151147782803" lon="12.208493258804083">
        <ele>1587.27</ele>
        <time>2015-07-17T09:08:22Z</time>
      </trkpt>
      <trkpt lat="46.396068753674626" lon="12.2083645965904">
        <ele>1588.72</ele>
        <time>2015-07-17T09:08:30Z</time>
      </trkpt>
      <trkpt lat="46.396005302667618" lon="12.208168711513281">
        <ele>1590.1600000000001</ele>
        <time>2015-07-17T09:08:41Z</time>
      </trkpt>
      <trkpt lat="46.395983509719372" lon="12.208097632974386">
        <ele>1591.1199999999999</ele>
        <time>2015-07-17T09:08:45Z</time>
      </trkpt>
      <trkpt lat="46.395962303504348" lon="12.208074163645506">
        <ele>1591.5999999999999</ele>
        <time>2015-07-17T09:08:48Z</time>
      </trkpt>
      <trkpt lat="46.395838838070631" lon="12.208059076219797">
        <ele>1593.04</ele>
        <time>2015-07-17T09:09:00Z</time>
      </trkpt>
      <trkpt lat="46.395812854170799" lon="12.20807340927422">
        <ele>1593.52</ele>
        <time>2015-07-17T09:09:03Z</time>
      </trkpt>
      <trkpt lat="46.39573079533875" lon="12.208094196394086">
        <ele>1594.48</ele>
        <time>2015-07-17T09:09:12Z</time>
      </trkpt>
      <trkpt lat="46.395670529454947" lon="12.208078438416123">
        <ele>1595.9300000000001</ele>
        <time>2015-07-17T09:09:23Z</time>
      </trkpt>
      <trkpt lat="46.3955934997648" lon="12.208102243021131">
        <ele>1597.3699999999999</ele>
        <time>2015-07-17T09:09:34Z</time>
      </trkpt>
      <trkpt lat="46.395450001582503" lon="12.208145409822464">
        <ele>1599.29</ele>
        <time>2015-07-17T09:09:47Z</time>
      </trkpt>
      <trkpt lat="46.395306587219238" lon="12.208178769797087">
        <ele>1601.21</ele>
        <time>2015-07-17T09:10:00Z</time>
      </trkpt>
      <trkpt lat="46.395130231976509" lon="12.208131412044168">
        <ele>1603.1400000000001</ele>
        <time>2015-07-17T09:10:16Z</time>
      </trkpt>
      <trkpt lat="46.395092932507396" lon="12.208119006827474">
        <ele>1603.6199999999999</ele>
        <time>2015-07-17T09:10:20Z</time>
      </trkpt>
      <trkpt lat="46.394986398518085" lon="12.208083886653185">
        <ele>1604.5799999999999</ele>
        <time>2015-07-17T09:10:33Z</time>
      </trkpt>
      <trkpt lat="46.394936023280025" lon="12.208056561648846">
        <ele>1606.02</ele>
        <time>2015-07-17T09:10:39Z</time>
      </trkpt>
      <trkpt lat="46.394925378262997" lon="12.208056561648846">
        <ele>1606.02</ele>
        <time>2015-07-17T09:10:40Z</time>
      </trkpt>
      <trkpt lat="46.394806606695056" lon="12.208027560263872">
        <ele>1608.9000000000001</ele>
        <time>2015-07-17T09:10:52Z</time>
      </trkpt>
      <trkpt lat="46.394689260050654" lon="12.208065949380398">
        <ele>1609.3800000000001</ele>
        <time>2015-07-17T09:11:04Z</time>
      </trkpt>
      <trkpt lat="46.394565626978874" lon="12.208127556368709">
        <ele>1610.3499999999999</ele>
        <time>2015-07-17T09:11:14Z</time>
      </trkpt>
      <trkpt lat="46.394482897594571" lon="12.208240041509271">
        <ele>1610.3499999999999</ele>
        <time>2015-07-17T09:11:24Z</time>
      </trkpt>
      <trkpt lat="46.394475689157844" lon="12.208256470039487">
        <ele>1610.8299999999999</ele>
        <time>2015-07-17T09:11:25Z</time>
      </trkpt>
      <trkpt lat="46.394334118813276" lon="12.208441961556673">
        <ele>1610.8299999999999</ele>
        <time>2015-07-17T09:11:39Z</time>
      </trkpt>
      <trkpt lat="46.39418332837522" lon="12.208492252975702">
        <ele>1609.8599999999999</ele>
        <time>2015-07-17T09:11:50Z</time>
      </trkpt>
      <trkpt lat="46.39401619322598" lon="12.208461323752999">
        <ele>1608.4200000000001</ele>
        <time>2015-07-17T09:12:03Z</time>
      </trkpt>
      <trkpt lat="46.393899684771895" lon="12.208300810307264">
        <ele>1606.5</ele>
        <time>2015-07-17T09:12:14Z</time>
      </trkpt>
      <trkpt lat="46.393780913203955" lon="12.208380941301584">
        <ele>1604.5799999999999</ele>
        <time>2015-07-17T09:12:27Z</time>
      </trkpt>
      <trkpt lat="46.393647389486432" lon="12.208574060350657">
        <ele>1602.1700000000001</ele>
        <time>2015-07-17T09:12:41Z</time>
      </trkpt>
      <trkpt lat="46.393576478585601" lon="12.20873205922544">
        <ele>1600.25</ele>
        <time>2015-07-17T09:12:52Z</time>
      </trkpt>
      <trkpt lat="46.393549153581262" lon="12.208869606256485">
        <ele>1598.8099999999999</ele>
        <time>2015-07-17T09:13:00Z</time>
      </trkpt>
      <trkpt lat="46.393547644838691" lon="12.208889471367002">
        <ele>1598.3299999999999</ele>
        <time>2015-07-17T09:13:01Z</time>
      </trkpt>
      <trkpt lat="46.393547225743532" lon="12.208911012858152">
        <ele>1598.3299999999999</ele>
        <time>2015-07-17T09:13:02Z</time>
      </trkpt>
      <trkpt lat="46.393494000658393" lon="12.209138832986355">
        <ele>1595.9300000000001</ele>
        <time>2015-07-17T09:13:14Z</time>
      </trkpt>
      <trkpt lat="46.393336420878768" lon="12.209235392510891">
        <ele>1594</ele>
        <time>2015-07-17T09:13:27Z</time>
      </trkpt>
      <trkpt lat="46.393187390640378" lon="12.209224496036768">
        <ele>1596.4100000000001</ele>
        <time>2015-07-17T09:13:39Z</time>
      </trkpt>
      <trkpt lat="46.393150007352233" lon="12.20939951017499">
        <ele>1597.8499999999999</ele>
        <time>2015-07-17T09:13:51Z</time>
      </trkpt>
      <trkpt lat="46.393149588257074" lon="12.209449131041765">
        <ele>1598.8099999999999</ele>
        <time>2015-07-17T09:13:54Z</time>
      </trkpt>
      <trkpt lat="46.393154449760914" lon="12.209483832120895">
        <ele>1598.8099999999999</ele>
        <time>2015-07-17T09:13:56Z</time>
      </trkpt>
      <trkpt lat="46.39317431487143" lon="12.209509313106537">
        <ele>1599.29</ele>
        <time>2015-07-17T09:13:59Z</time>
      </trkpt>
      <trkpt lat="46.393210273236036" lon="12.209543427452445">
        <ele>1598.3299999999999</ele>
        <time>2015-07-17T09:14:07Z</time>
      </trkpt>
      <trkpt lat="46.393149169161916" lon="12.209549881517887">
        <ele>1597.8499999999999</ele>
        <time>2015-07-17T09:14:23Z</time>
      </trkpt>
      <trkpt lat="46.39314204454422" lon="12.209506714716554">
        <ele>1597.8499999999999</ele>
        <time>2015-07-17T09:14:36Z</time>
      </trkpt>
      <trkpt lat="46.393199041485786" lon="12.209518197923899">
        <ele>1598.3299999999999</ele>
        <time>2015-07-17T09:14:54Z</time>
      </trkpt>
      <trkpt lat="46.393243884667754" lon="12.209562035277486">
        <ele>1597.8499999999999</ele>
        <time>2015-07-17T09:15:25Z</time>
      </trkpt>
      <trkpt lat="46.393277328461409" lon="12.20956907607615">
        <ele>1597.8499999999999</ele>
        <time>2015-07-17T09:15:53Z</time>
      </trkpt>
      <trkpt lat="46.393271209672093" lon="12.209616517648101">
        <ele>1597.8499999999999</ele>
        <time>2015-07-17T09:16:21Z</time>
      </trkpt>
      <trkpt lat="46.393233742564917" lon="12.209599167108536">
        <ele>1597.8499999999999</ele>
        <time>2015-07-17T09:16:55Z</time>
      </trkpt>
      <trkpt lat="46.393248662352562" lon="12.209577290341258">
        <ele>1597.8499999999999</ele>
        <time>2015-07-17T09:17:20Z</time>
      </trkpt>
      <trkpt lat="46.393214045092463" lon="12.209586258977652">
        <ele>1597.8499999999999</ele>
        <time>2015-07-17T09:17:41Z</time>
      </trkpt>
      <trkpt lat="46.393194934353232" lon="12.209566812962294">
        <ele>1597.3699999999999</ele>
        <time>2015-07-17T09:17:59Z</time>
      </trkpt>
      <trkpt lat="46.393194766715169" lon="12.209524987265468">
        <ele>1597.3699999999999</ele>
        <time>2015-07-17T09:18:13Z</time>
      </trkpt>
      <trkpt lat="46.393221504986286" lon="12.209551138803363">
        <ele>1596.8900000000001</ele>
        <time>2015-07-17T09:18:30Z</time>
      </trkpt>
      <trkpt lat="46.393250590190291" lon="12.209528340026736">
        <ele>1597.3699999999999</ele>
        <time>2015-07-17T09:18:52Z</time>
      </trkpt>
      <trkpt lat="46.39323734678328" lon="12.209538901224732">
        <ele>1596.8900000000001</ele>
        <time>2015-07-17T09:19:11Z</time>
      </trkpt>
      <trkpt lat="46.393230305984616" lon="12.209514426067472">
        <ele>1596.8900000000001</ele>
        <time>2015-07-17T09:19:33Z</time>
      </trkpt>
      <trkpt lat="46.393229635432363" lon="12.209544433280826">
        <ele>1596.4100000000001</ele>
        <time>2015-07-17T09:19:59Z</time>
      </trkpt>
      <trkpt lat="46.39323047362268" lon="12.209577960893512">
        <ele>1597.3699999999999</ele>
        <time>2015-07-17T09:20:26Z</time>
      </trkpt>
      <trkpt lat="46.39319920912385" lon="12.209556335583329">
        <ele>1596.8900000000001</ele>
        <time>2015-07-17T09:20:56Z</time>
      </trkpt>
      <trkpt lat="46.393205160275102" lon="12.20954954624176">
        <ele>1596.8900000000001</ele>
        <time>2015-07-17T09:21:24Z</time>
      </trkpt>
      <trkpt lat="46.393205663189292" lon="12.209544768556952">
        <ele>1596.8900000000001</ele>
        <time>2015-07-17T09:21:50Z</time>
      </trkpt>
      <trkpt lat="46.393214296549559" lon="12.209540493786335">
        <ele>1596.8900000000001</ele>
        <time>2015-07-17T09:22:18Z</time>
      </trkpt>
      <trkpt lat="46.393241034820676" lon="12.209560442715883">
        <ele>1597.3699999999999</ele>
        <time>2015-07-17T09:22:39Z</time>
      </trkpt>
      <trkpt lat="46.393225528299809" lon="12.209579050540924">
        <ele>1597.3699999999999</ele>
        <time>2015-07-17T09:22:41Z</time>
      </trkpt>
      <trkpt lat="46.393100218847394" lon="12.20962037332356">
        <ele>1597.3699999999999</ele>
        <time>2015-07-17T09:22:52Z</time>
      </trkpt>
      <trkpt lat="46.393057554960251" lon="12.209645183756948">
        <ele>1597.3699999999999</ele>
        <time>2015-07-17T09:23:02Z</time>
      </trkpt>
      <trkpt lat="46.393052274361253" lon="12.209635125473142">
        <ele>1597.3699999999999</ele>
        <time>2015-07-17T09:23:15Z</time>
      </trkpt>
      <trkpt lat="46.393034923821688" lon="12.209653398022056">
        <ele>1596.8900000000001</ele>
        <time>2015-07-17T09:23:26Z</time>
      </trkpt>
      <trkpt lat="46.393012711778283" lon="12.209696648642421">
        <ele>1596.8900000000001</ele>
        <time>2015-07-17T09:23:43Z</time>
      </trkpt>
      <trkpt lat="46.393038360401988" lon="12.209730427712202">
        <ele>1596.8900000000001</ele>
        <time>2015-07-17T09:24:08Z</time>
      </trkpt>
      <trkpt lat="46.393039198592305" lon="12.209695726633072">
        <ele>1596.8900000000001</ele>
        <time>2015-07-17T09:24:29Z</time>
      </trkpt>
      <trkpt lat="46.393018746748567" lon="12.209651302546263">
        <ele>1596.8900000000001</ele>
        <time>2015-07-17T09:24:56Z</time>
      </trkpt>
      <trkpt lat="46.393011789768934" lon="12.209705952554941">
        <ele>1596.8900000000001</ele>
        <time>2015-07-17T09:25:30Z</time>
      </trkpt>
      <trkpt lat="46.392986895516515" lon="12.209701677784324">
        <ele>1596.8900000000001</ele>
        <time>2015-07-17T09:25:57Z</time>
      </trkpt>
      <trkpt lat="46.392983291298151" lon="12.209656666964293">
        <ele>1596.8900000000001</ele>
        <time>2015-07-17T09:26:23Z</time>
      </trkpt>
      <trkpt lat="46.393023692071438" lon="12.209660355001688">
        <ele>1596.8900000000001</ele>
        <time>2015-07-17T09:26:46Z</time>
      </trkpt>
      <trkpt lat="46.392976501956582" lon="12.209551641717553">
        <ele>1596.8900000000001</ele>
        <time>2015-07-17T09:27:13Z</time>
      </trkpt>
      <trkpt lat="46.393016735091805" lon="12.209521634504199">
        <ele>1596.8900000000001</ele>
        <time>2015-07-17T09:27:42Z</time>
      </trkpt>
      <trkpt lat="46.393047999590635" lon="12.209488106891513">
        <ele>1596.8900000000001</ele>
        <time>2015-07-17T09:28:06Z</time>
      </trkpt>
      <trkpt lat="46.393011705949903" lon="12.209513839334249">
        <ele>1596.8900000000001</ele>
        <time>2015-07-17T09:28:34Z</time>
      </trkpt>
      <trkpt lat="46.392993601039052" lon="12.209559604525566">
        <ele>1596.8900000000001</ele>
        <time>2015-07-17T09:29:02Z</time>
      </trkpt>
      <trkpt lat="46.39297247864306" lon="12.209581900388002">
        <ele>1597.3699999999999</ele>
        <time>2015-07-17T09:29:29Z</time>
      </trkpt>
      <trkpt lat="46.392991421744227" lon="12.209546696394682">
        <ele>1597.3699999999999</ele>
        <time>2015-07-17T09:29:59Z</time>
      </trkpt>
      <trkpt lat="46.392903830856085" lon="12.209646105766296">
        <ele>1596.8900000000001</ele>
        <time>2015-07-17T09:30:29Z</time>
      </trkpt>
      <trkpt lat="46.392935095354915" lon="12.209621882066131">
        <ele>1596.8900000000001</ele>
        <time>2015-07-17T09:30:58Z</time>
      </trkpt>
      <trkpt lat="46.392856389284134" lon="12.209768984466791">
        <ele>1596.8900000000001</ele>
        <time>2015-07-17T09:31:24Z</time>
      </trkpt>
      <trkpt lat="46.392870638519526" lon="12.209739647805691">
        <ele>1596.8900000000001</ele>
        <time>2015-07-17T09:31:47Z</time>
      </trkpt>
      <trkpt lat="46.392862843349576" lon="12.209739899262786">
        <ele>1596.8900000000001</ele>
        <time>2015-07-17T09:32:14Z</time>
      </trkpt>
      <trkpt lat="46.392837530001998" lon="12.209749957546592">
        <ele>1596.8900000000001</ele>
        <time>2015-07-17T09:32:42Z</time>
      </trkpt>
      <trkpt lat="46.392865525558591" lon="12.209700588136911">
        <ele>1596.8900000000001</ele>
        <time>2015-07-17T09:33:06Z</time>
      </trkpt>
      <trkpt lat="46.392905926331878" lon="12.209689524024725">
        <ele>1596.4100000000001</ele>
        <time>2015-07-17T09:33:37Z</time>
      </trkpt>
      <trkpt lat="46.3929807767272" lon="12.209548624232411">
        <ele>1596.4100000000001</ele>
        <time>2015-07-17T09:34:09Z</time>
      </trkpt>
      <trkpt lat="46.392979938536882" lon="12.209543930366635">
        <ele>1596.4100000000001</ele>
        <time>2015-07-17T09:34:38Z</time>
      </trkpt>
      <trkpt lat="46.392961917445064" lon="12.209598915651441">
        <ele>1596.8900000000001</ele>
        <time>2015-07-17T09:35:07Z</time>
      </trkpt>
      <trkpt lat="46.392990415915847" lon="12.209567567333579">
        <ele>1596.4100000000001</ele>
        <time>2015-07-17T09:35:36Z</time>
      </trkpt>
      <trkpt lat="46.392997791990638" lon="12.209530267864466">
        <ele>1596.8900000000001</ele>
        <time>2015-07-17T09:35:59Z</time>
      </trkpt>
      <trkpt lat="46.392992595210671" lon="12.209536638110876">
        <ele>1596.8900000000001</ele>
        <time>2015-07-17T09:36:28Z</time>
      </trkpt>
      <trkpt lat="46.393026039004326" lon="12.20948307774961">
        <ele>1596.8900000000001</ele>
        <time>2015-07-17T09:36:55Z</time>
      </trkpt>
      <trkpt lat="46.392997708171606" lon="12.209538901224732">
        <ele>1596.8900000000001</ele>
        <time>2015-07-17T09:37:21Z</time>
      </trkpt>
      <trkpt lat="46.392959151417017" lon="12.209601514041424">
        <ele>1596.8900000000001</ele>
        <time>2015-07-17T09:37:48Z</time>
      </trkpt>
      <trkpt lat="46.39297298155725" lon="12.209553569555283">
        <ele>1596.4100000000001</ele>
        <time>2015-07-17T09:38:21Z</time>
      </trkpt>
      <trkpt lat="46.39299351722002" lon="12.209540326148272">
        <ele>1596.8900000000001</ele>
        <time>2015-07-17T09:38:48Z</time>
      </trkpt>
      <trkpt lat="46.392957055941224" lon="12.209547283127904">
        <ele>1596.8900000000001</ele>
        <time>2015-07-17T09:39:14Z</time>
      </trkpt>
      <trkpt lat="46.392955295741558" lon="12.209548791870475">
        <ele>1596.8900000000001</ele>
        <time>2015-07-17T09:39:41Z</time>
      </trkpt>
      <trkpt lat="46.393006006255746" lon="12.209530603140593">
        <ele>1596.8900000000001</ele>
        <time>2015-07-17T09:40:13Z</time>
      </trkpt>
      <trkpt lat="46.392977004870772" lon="12.209548624232411">
        <ele>1596.8900000000001</ele>
        <time>2015-07-17T09:40:43Z</time>
      </trkpt>
      <trkpt lat="46.392974406480789" lon="12.209590449929237">
        <ele>1596.8900000000001</ele>
        <time>2015-07-17T09:41:14Z</time>
      </trkpt>
      <trkpt lat="46.392976082861423" lon="12.209572345018387">
        <ele>1596.8900000000001</ele>
        <time>2015-07-17T09:41:48Z</time>
      </trkpt>
      <trkpt lat="46.392946243286133" lon="12.209557425230742">
        <ele>1596.8900000000001</ele>
        <time>2015-07-17T09:42:25Z</time>
      </trkpt>
      <trkpt lat="46.392957977950573" lon="12.209571087732911">
        <ele>1597.3699999999999</ele>
        <time>2015-07-17T09:42:55Z</time>
      </trkpt>
      <trkpt lat="46.392992008477449" lon="12.209563963115215">
        <ele>1597.3699999999999</ele>
        <time>2015-07-17T09:43:28Z</time>
      </trkpt>
      <trkpt lat="46.392905758693814" lon="12.20962624065578">
        <ele>1597.3699999999999</ele>
        <time>2015-07-17T09:43:56Z</time>
      </trkpt>
      <trkpt lat="46.392896706238389" lon="12.209583995863795">
        <ele>1597.3699999999999</ele>
        <time>2015-07-17T09:44:29Z</time>
      </trkpt>
      <trkpt lat="46.392846666276455" lon="12.209652978926897">
        <ele>1597.8499999999999</ele>
        <time>2015-07-17T09:45:01Z</time>
      </trkpt>
      <trkpt lat="46.392778689041734" lon="12.209644932299852">
        <ele>1597.8499999999999</ele>
        <time>2015-07-17T09:45:32Z</time>
      </trkpt>
      <trkpt lat="46.392840128391981" lon="12.209590282291174">
        <ele>1598.3299999999999</ele>
        <time>2015-07-17T09:46:04Z</time>
      </trkpt>
      <trkpt lat="46.392891928553581" lon="12.209562957286835">
        <ele>1598.3299999999999</ele>
        <time>2015-07-17T09:46:29Z</time>
      </trkpt>
      <trkpt lat="46.392897376790643" lon="12.209600927308202">
        <ele>1598.8099999999999</ele>
        <time>2015-07-17T09:46:56Z</time>
      </trkpt>
      <trkpt lat="46.392868794500828" lon="12.209580056369305">
        <ele>1598.8099999999999</ele>
        <time>2015-07-17T09:47:24Z</time>
      </trkpt>
      <trkpt lat="46.392843816429377" lon="12.209582822397351">
        <ele>1598.8099999999999</ele>
        <time>2015-07-17T09:47:53Z</time>
      </trkpt>
      <trkpt lat="46.392787490040064" lon="12.209650715813041">
        <ele>1598.8099999999999</ele>
        <time>2015-07-17T09:48:24Z</time>
      </trkpt>
      <trkpt lat="46.392816910520196" lon="12.209629761055112">
        <ele>1599.29</ele>
        <time>2015-07-17T09:48:50Z</time>
      </trkpt>
      <trkpt lat="46.392842978239059" lon="12.209647195413709">
        <ele>1599.29</ele>
        <time>2015-07-17T09:49:23Z</time>
      </trkpt>
      <trkpt lat="46.392820095643401" lon="12.209631940349936">
        <ele>1599.77</ele>
        <time>2015-07-17T09:49:55Z</time>
      </trkpt>
      <trkpt lat="46.392941130325198" lon="12.20958910882473">
        <ele>1599.77</ele>
        <time>2015-07-17T09:50:30Z</time>
      </trkpt>
      <trkpt lat="46.392984297126532" lon="12.20956421457231">
        <ele>1599.77</ele>
        <time>2015-07-17T09:51:01Z</time>
      </trkpt>
      <trkpt lat="46.393002234399319" lon="12.209517443552613">
        <ele>1599.77</ele>
        <time>2015-07-17T09:51:29Z</time>
      </trkpt>
      <trkpt lat="46.392864687368274" lon="12.209609476849437">
        <ele>1600.25</ele>
        <time>2015-07-17T09:52:02Z</time>
      </trkpt>
      <trkpt lat="46.392885139212012" lon="12.209636466577649">
        <ele>1600.25</ele>
        <time>2015-07-17T09:52:29Z</time>
      </trkpt>
      <trkpt lat="46.392890335991979" lon="12.20957787707448">
        <ele>1600.25</ele>
        <time>2015-07-17T09:52:56Z</time>
      </trkpt>
      <trkpt lat="46.392878601327538" lon="12.209574189037085">
        <ele>1600.25</ele>
        <time>2015-07-17T09:53:23Z</time>
      </trkpt>
      <trkpt lat="46.392871728166938" lon="12.209617188200355">
        <ele>1600.25</ele>
        <time>2015-07-17T09:53:55Z</time>
      </trkpt>
      <trkpt lat="46.392878601327538" lon="12.209601933136582">
        <ele>1600.25</ele>
        <time>2015-07-17T09:54:21Z</time>
      </trkpt>
      <trkpt lat="46.392880361527205" lon="12.209593215957284">
        <ele>1600.73</ele>
        <time>2015-07-17T09:54:47Z</time>
      </trkpt>
      <trkpt lat="46.392888408154249" lon="12.209576619789004">
        <ele>1600.73</ele>
        <time>2015-07-17T09:55:13Z</time>
      </trkpt>
      <trkpt lat="46.392853120341897" lon="12.209597742184997">
        <ele>1601.21</ele>
        <time>2015-07-17T09:55:40Z</time>
      </trkpt>
      <trkpt lat="46.3929358497262" lon="12.209607716649771">
        <ele>1601.21</ele>
        <time>2015-07-17T09:56:11Z</time>
      </trkpt>
      <trkpt lat="46.392859993502498" lon="12.209647027775645">
        <ele>1601.21</ele>
        <time>2015-07-17T09:56:42Z</time>
      </trkpt>
      <trkpt lat="46.3928874861449" lon="12.209606459364295">
        <ele>1601.21</ele>
        <time>2015-07-17T09:57:16Z</time>
      </trkpt>
      <trkpt lat="46.392947919666767" lon="12.209613667801023">
        <ele>1601.21</ele>
        <time>2015-07-17T09:57:51Z</time>
      </trkpt>
      <trkpt lat="46.392940543591976" lon="12.209610398858786">
        <ele>1601.6900000000001</ele>
        <time>2015-07-17T09:58:21Z</time>
      </trkpt>
      <trkpt lat="46.392964012920856" lon="12.209587180987">
        <ele>1601.21</ele>
        <time>2015-07-17T09:58:53Z</time>
      </trkpt>
      <trkpt lat="46.392974825575948" lon="12.209567986428738">
        <ele>1601.6900000000001</ele>
        <time>2015-07-17T09:59:22Z</time>
      </trkpt>
      <trkpt lat="46.393011789768934" lon="12.209527920931578">
        <ele>1601.6900000000001</ele>
        <time>2015-07-17T09:59:55Z</time>
      </trkpt>
      <trkpt lat="46.392980189993978" lon="12.209574524313211">
        <ele>1601.21</ele>
        <time>2015-07-17T10:00:32Z</time>
      </trkpt>
      <trkpt lat="46.393022099509835" lon="12.209562202915549">
        <ele>1601.21</ele>
        <time>2015-07-17T10:01:02Z</time>
      </trkpt>
      <trkpt lat="46.392994523048401" lon="12.209536554291844">
        <ele>1601.21</ele>
        <time>2015-07-17T10:01:32Z</time>
      </trkpt>
      <trkpt lat="46.392988739535213" lon="12.209539152681828">
        <ele>1601.21</ele>
        <time>2015-07-17T10:02:03Z</time>
      </trkpt>
      <trkpt lat="46.393026793375611" lon="12.209512582048774">
        <ele>1601.21</ele>
        <time>2015-07-17T10:02:35Z</time>
      </trkpt>
      <trkpt lat="46.392969880253077" lon="12.209554072469473">
        <ele>1601.21</ele>
        <time>2015-07-17T10:03:05Z</time>
      </trkpt>
      <trkpt lat="46.392993181943893" lon="12.209530351683497">
        <ele>1601.21</ele>
        <time>2015-07-17T10:03:32Z</time>
      </trkpt>
      <trkpt lat="46.392986141145229" lon="12.209535883739591">
        <ele>1600.73</ele>
        <time>2015-07-17T10:03:58Z</time>
      </trkpt>
      <trkpt lat="46.392977004870772" lon="12.209553234279156">
        <ele>1601.21</ele>
        <time>2015-07-17T10:04:23Z</time>
      </trkpt>
      <trkpt lat="46.393006425350904" lon="12.209549294784665">
        <ele>1600.73</ele>
        <time>2015-07-17T10:04:50Z</time>
      </trkpt>
      <trkpt lat="46.392975328490138" lon="12.20959547907114">
        <ele>1600.73</ele>
        <time>2015-07-17T10:05:19Z</time>
      </trkpt>
      <trkpt lat="46.39295781031251" lon="12.209608890116215">
        <ele>1600.73</ele>
        <time>2015-07-17T10:05:47Z</time>
      </trkpt>
      <trkpt lat="46.392936268821359" lon="12.209591707214713">
        <ele>1600.25</ele>
        <time>2015-07-17T10:06:16Z</time>
      </trkpt>
      <trkpt lat="46.392962085083127" lon="12.209592461585999">
        <ele>1600.25</ele>
        <time>2015-07-17T10:06:45Z</time>
      </trkpt>
      <trkpt lat="46.392980609089136" lon="12.209562873467803">
        <ele>1600.25</ele>
        <time>2015-07-17T10:07:12Z</time>
      </trkpt>
      <trkpt lat="46.393004665151238" lon="12.209553904831409">
        <ele>1600.25</ele>
        <time>2015-07-17T10:07:42Z</time>
      </trkpt>
      <trkpt lat="46.392985302954912" lon="12.209552563726902">
        <ele>1600.25</ele>
        <time>2015-07-17T10:08:06Z</time>
      </trkpt>
      <trkpt lat="46.39297834597528" lon="12.209570333361626">
        <ele>1600.25</ele>
        <time>2015-07-17T10:08:36Z</time>
      </trkpt>
      <trkpt lat="46.392995277419686" lon="12.209574691951275">
        <ele>1600.25</ele>
        <time>2015-07-17T10:09:06Z</time>
      </trkpt>
      <trkpt lat="46.392939453944564" lon="12.209610650315881">
        <ele>1599.77</ele>
        <time>2015-07-17T10:09:38Z</time>
      </trkpt>
      <trkpt lat="46.392989913001657" lon="12.209600005298853">
        <ele>1599.77</ele>
        <time>2015-07-17T10:10:08Z</time>
      </trkpt>
      <trkpt lat="46.392951440066099" lon="12.209629090502858">
        <ele>1599.77</ele>
        <time>2015-07-17T10:10:37Z</time>
      </trkpt>
      <trkpt lat="46.392926461994648" lon="12.209615595638752">
        <ele>1599.29</ele>
        <time>2015-07-17T10:11:11Z</time>
      </trkpt>
      <trkpt lat="46.392964515835047" lon="12.209553234279156">
        <ele>1599.29</ele>
        <time>2015-07-17T10:11:39Z</time>
      </trkpt>
      <trkpt lat="46.392936268821359" lon="12.209576033055782">
        <ele>1598.8099999999999</ele>
        <time>2015-07-17T10:12:09Z</time>
      </trkpt>
      <trkpt lat="46.392869465053082" lon="12.209634287282825">
        <ele>1598.3299999999999</ele>
        <time>2015-07-17T10:12:40Z</time>
      </trkpt>
      <trkpt lat="46.392940124496818" lon="12.209612326696515">
        <ele>1598.3299999999999</ele>
        <time>2015-07-17T10:13:08Z</time>
      </trkpt>
      <trkpt lat="46.392947668209672" lon="12.209662282839417">
        <ele>1597.8499999999999</ele>
        <time>2015-07-17T10:13:42Z</time>
      </trkpt>
      <trkpt lat="46.392956720665097" lon="12.209653900936246">
        <ele>1597.8499999999999</ele>
        <time>2015-07-17T10:14:13Z</time>
      </trkpt>
      <trkpt lat="46.392946494743228" lon="12.209646524861455">
        <ele>1597.3699999999999</ele>
        <time>2015-07-17T10:14:48Z</time>
      </trkpt>
      <trkpt lat="46.392963174730539" lon="12.209623139351606">
        <ele>1597.3699999999999</ele>
        <time>2015-07-17T10:15:19Z</time>
      </trkpt>
      <trkpt lat="46.392959738150239" lon="12.209605118259788">
        <ele>1596.8900000000001</ele>
        <time>2015-07-17T10:15:51Z</time>
      </trkpt>
      <trkpt lat="46.392981866374612" lon="12.209591791033745">
        <ele>1596.8900000000001</ele>
        <time>2015-07-17T10:16:26Z</time>
      </trkpt>
      <trkpt lat="46.393005419522524" lon="12.209582068026066">
        <ele>1596.8900000000001</ele>
        <time>2015-07-17T10:16:54Z</time>
      </trkpt>
      <trkpt lat="46.392971975728869" lon="12.20964384265244">
        <ele>1596.4100000000001</ele>
        <time>2015-07-17T10:17:22Z</time>
      </trkpt>
      <trkpt lat="46.392989745363593" lon="12.209595646709204">
        <ele>1595.9300000000001</ele>
        <time>2015-07-17T10:17:52Z</time>
      </trkpt>
      <trkpt lat="46.393033415079117" lon="12.209573267027736">
        <ele>1595.9300000000001</ele>
        <time>2015-07-17T10:18:22Z</time>
      </trkpt>
      <trkpt lat="46.393012963235378" lon="12.209590114653111">
        <ele>1595.45</ele>
        <time>2015-07-17T10:18:48Z</time>
      </trkpt>
      <trkpt lat="46.393012795597315" lon="12.209550468251109">
        <ele>1595.45</ele>
        <time>2015-07-17T10:19:17Z</time>
      </trkpt>
      <trkpt lat="46.393073732033372" lon="12.209529429674149">
        <ele>1595.45</ele>
        <time>2015-07-17T10:19:47Z</time>
      </trkpt>
      <trkpt lat="46.393000893294811" lon="12.209591204300523">
        <ele>1594.96</ele>
        <time>2015-07-17T10:20:23Z</time>
      </trkpt>
      <trkpt lat="46.393000977113843" lon="12.209601514041424">
        <ele>1594.96</ele>
        <time>2015-07-17T10:20:53Z</time>
      </trkpt>
      <trkpt lat="46.392944063991308" lon="12.209630012512207">
        <ele>1594.48</ele>
        <time>2015-07-17T10:21:23Z</time>
      </trkpt>
      <trkpt lat="46.392981195822358" lon="12.20956421457231">
        <ele>1594</ele>
        <time>2015-07-17T10:21:55Z</time>
      </trkpt>
      <trkpt lat="46.39296761713922" lon="12.209574021399021">
        <ele>1594</ele>
        <time>2015-07-17T10:22:28Z</time>
      </trkpt>
      <trkpt lat="46.392943812534213" lon="12.209558095782995">
        <ele>1594</ele>
        <time>2015-07-17T10:23:02Z</time>
      </trkpt>
      <trkpt lat="46.392958899959922" lon="12.209606627002358">
        <ele>1592.5599999999999</ele>
        <time>2015-07-17T10:23:36Z</time>
      </trkpt>
      <trkpt lat="46.393000893294811" lon="12.209568489342928">
        <ele>1593.04</ele>
        <time>2015-07-17T10:24:09Z</time>
      </trkpt>
      <trkpt lat="46.392993768677115" lon="12.209576452150941">
        <ele>1592.5599999999999</ele>
        <time>2015-07-17T10:24:36Z</time>
      </trkpt>
      <trkpt lat="46.39300131238997" lon="12.209598580375314">
        <ele>1592.5599999999999</ele>
        <time>2015-07-17T10:25:00Z</time>
      </trkpt>
      <trkpt lat="46.393007347360253" lon="12.209606375545263">
        <ele>1593.04</ele>
        <time>2015-07-17T10:25:24Z</time>
      </trkpt>
      <trkpt lat="46.393000725656748" lon="12.209600172936916">
        <ele>1592.5599999999999</ele>
        <time>2015-07-17T10:25:41Z</time>
      </trkpt>
      <trkpt lat="46.392967030405998" lon="12.209606375545263">
        <ele>1593.52</ele>
        <time>2015-07-17T10:26:02Z</time>
      </trkpt>
      <trkpt lat="46.392988068982959" lon="12.20961551181972">
        <ele>1593.04</ele>
        <time>2015-07-17T10:26:29Z</time>
      </trkpt>
      <trkpt lat="46.392984548583627" lon="12.209586594253778">
        <ele>1593.04</ele>
        <time>2015-07-17T10:26:48Z</time>
      </trkpt>
      <trkpt lat="46.392929311841726" lon="12.209602436050773">
        <ele>1593.04</ele>
        <time>2015-07-17T10:27:15Z</time>
      </trkpt>
      <trkpt lat="46.39291774481535" lon="12.209629006683826">
        <ele>1593.04</ele>
        <time>2015-07-17T10:27:41Z</time>
      </trkpt>
      <trkpt lat="46.392945740371943" lon="12.209662869572639">
        <ele>1593.04</ele>
        <time>2015-07-17T10:28:01Z</time>
      </trkpt>
      <trkpt lat="46.392928222194314" lon="12.209635879844427">
        <ele>1593.04</ele>
        <time>2015-07-17T10:28:28Z</time>
      </trkpt>
      <trkpt lat="46.392932664602995" lon="12.20964384265244">
        <ele>1593.52</ele>
        <time>2015-07-17T10:28:49Z</time>
      </trkpt>
      <trkpt lat="46.392946746200323" lon="12.209634957835078">
        <ele>1593.52</ele>
        <time>2015-07-17T10:29:16Z</time>
      </trkpt>
      <trkpt lat="46.39298521913588" lon="12.209611237049103">
        <ele>1593.52</ele>
        <time>2015-07-17T10:29:42Z</time>
      </trkpt>
      <trkpt lat="46.392989074811339" lon="12.209593467414379">
        <ele>1594</ele>
        <time>2015-07-17T10:30:12Z</time>
      </trkpt>
      <trkpt lat="46.392995780333877" lon="12.20961157232523">
        <ele>1594.48</ele>
        <time>2015-07-17T10:30:21Z</time>
      </trkpt>
      <trkpt lat="46.392968371510506" lon="12.209590785205364">
        <ele>1594.48</ele>
        <time>2015-07-17T10:30:31Z</time>
      </trkpt>
      <trkpt lat="46.392954206094146" lon="12.209570417180657">
        <ele>1593.04</ele>
        <time>2015-07-17T10:30:41Z</time>
      </trkpt>
      <trkpt lat="46.392911374568939" lon="12.209605956450105">
        <ele>1591.5999999999999</ele>
        <time>2015-07-17T10:30:54Z</time>
      </trkpt>
      <trkpt lat="46.392910201102495" lon="12.209600172936916">
        <ele>1592.0799999999999</ele>
        <time>2015-07-17T10:30:56Z</time>
      </trkpt>
      <trkpt lat="46.392912128940225" lon="12.209584917873144">
        <ele>1590.6400000000001</ele>
        <time>2015-07-17T10:31:05Z</time>
      </trkpt>
      <trkpt lat="46.392918834462762" lon="12.209576284512877">
        <ele>1591.1199999999999</ele>
        <time>2015-07-17T10:31:14Z</time>
      </trkpt>
      <trkpt lat="46.392900561913848" lon="12.209616433829069">
        <ele>1591.1199999999999</ele>
        <time>2015-07-17T10:31:22Z</time>
      </trkpt>
      <trkpt lat="46.392862508073449" lon="12.209640070796013">
        <ele>1591.5999999999999</ele>
        <time>2015-07-17T10:31:33Z</time>
      </trkpt>
      <trkpt lat="46.392863094806671" lon="12.209690362215042">
        <ele>1591.1199999999999</ele>
        <time>2015-07-17T10:31:44Z</time>
      </trkpt>
      <trkpt lat="46.392882959917188" lon="12.209664294496179">
        <ele>1591.5999999999999</ele>
        <time>2015-07-17T10:31:56Z</time>
      </trkpt>
      <trkpt lat="46.392796123400331" lon="12.209755489602685">
        <ele>1590.1600000000001</ele>
        <time>2015-07-17T10:32:08Z</time>
      </trkpt>
      <trkpt lat="46.392831411212683" lon="12.209822712466121">
        <ele>1590.1600000000001</ele>
        <time>2015-07-17T10:32:18Z</time>
      </trkpt>
      <trkpt lat="46.392826801165938" lon="12.209796644747257">
        <ele>1590.1600000000001</ele>
        <time>2015-07-17T10:32:35Z</time>
      </trkpt>
      <trkpt lat="46.392780281603336" lon="12.209764793515205">
        <ele>1590.1600000000001</ele>
        <time>2015-07-17T10:32:39Z</time>
      </trkpt>
      <trkpt lat="46.39269445091486" lon="12.209768313914537">
        <ele>1590.1600000000001</ele>
        <time>2015-07-17T10:32:51Z</time>
      </trkpt>
      <trkpt lat="46.392701156437397" lon="12.209763200953603">
        <ele>1590.6400000000001</ele>
        <time>2015-07-17T10:33:00Z</time>
      </trkpt>
      <trkpt lat="46.392680956050754" lon="12.2098134085536">
        <ele>1590.1600000000001</ele>
        <time>2015-07-17T10:33:09Z</time>
      </trkpt>
      <trkpt lat="46.39266905374825" lon="12.209860933944583">
        <ele>1590.1600000000001</ele>
        <time>2015-07-17T10:33:15Z</time>
      </trkpt>
      <trkpt lat="46.392655810341239" lon="12.209897730499506">
        <ele>1589.2</ele>
        <time>2015-07-17T10:33:18Z</time>
      </trkpt>
      <trkpt lat="46.392625719308853" lon="12.209956906735897">
        <ele>1588.72</ele>
        <time>2015-07-17T10:33:27Z</time>
      </trkpt>
      <trkpt lat="46.392612140625715" lon="12.210023039951921">
        <ele>1588.72</ele>
        <time>2015-07-17T10:33:37Z</time>
      </trkpt>
      <trkpt lat="46.392592526972294" lon="12.210156060755253">
        <ele>1588.72</ele>
        <time>2015-07-17T10:33:47Z</time>
      </trkpt>
      <trkpt lat="46.392566626891494" lon="12.21026343293488">
        <ele>1588.72</ele>
        <time>2015-07-17T10:33:57Z</time>
      </trkpt>
      <trkpt lat="46.392519939690828" lon="12.210402153432369">
        <ele>1589.2</ele>
        <time>2015-07-17T10:34:08Z</time>
      </trkpt>
      <trkpt lat="46.392478365451097" lon="12.210557051002979">
        <ele>1589.6800000000001</ele>
        <time>2015-07-17T10:34:20Z</time>
      </trkpt>
      <trkpt lat="46.392454644665122" lon="12.210627794265747">
        <ele>1589.6800000000001</ele>
        <time>2015-07-17T10:34:24Z</time>
      </trkpt>
      <trkpt lat="46.392394714057446" lon="12.210821500048041">
        <ele>1589.6800000000001</ele>
        <time>2015-07-17T10:34:36Z</time>
      </trkpt>
      <trkpt lat="46.392358252778649" lon="12.210923759266734">
        <ele>1590.1600000000001</ele>
        <time>2015-07-17T10:34:45Z</time>
      </trkpt>
      <trkpt lat="46.392226656898856" lon="12.210970865562558">
        <ele>1590.1600000000001</ele>
        <time>2015-07-17T10:34:57Z</time>
      </trkpt>
      <trkpt lat="46.392215089872479" lon="12.210968937724829">
        <ele>1590.1600000000001</ele>
        <time>2015-07-17T10:34:58Z</time>
      </trkpt>
      <trkpt lat="46.392105789855123" lon="12.210917305201292">
        <ele>1591.1199999999999</ele>
        <time>2015-07-17T10:35:11Z</time>
      </trkpt>
      <trkpt lat="46.39200453646481" lon="12.210868606343865">
        <ele>1591.5999999999999</ele>
        <time>2015-07-17T10:35:20Z</time>
      </trkpt>
      <trkpt lat="46.391926500946283" lon="12.210842035710812">
        <ele>1591.5999999999999</ele>
        <time>2015-07-17T10:35:30Z</time>
      </trkpt>
      <trkpt lat="46.391812674701214" lon="12.210876233875751">
        <ele>1592.0799999999999</ele>
        <time>2015-07-17T10:35:42Z</time>
      </trkpt>
      <trkpt lat="46.39170940965414" lon="12.210862236097455">
        <ele>1592.5599999999999</ele>
        <time>2015-07-17T10:35:53Z</time>
      </trkpt>
      <trkpt lat="46.39157647266984" lon="12.210866175591946">
        <ele>1593.04</ele>
        <time>2015-07-17T10:36:05Z</time>
      </trkpt>
      <trkpt lat="46.39147044159472" lon="12.21087665297091">
        <ele>1593.52</ele>
        <time>2015-07-17T10:36:16Z</time>
      </trkpt>
      <trkpt lat="46.391347562894225" lon="12.210868187248707">
        <ele>1594</ele>
        <time>2015-07-17T10:36:29Z</time>
      </trkpt>
      <trkpt lat="46.391300456598401" lon="12.21083315089345">
        <ele>1594.96</ele>
        <time>2015-07-17T10:36:37Z</time>
      </trkpt>
      <trkpt lat="46.391264079138637" lon="12.210845556110144">
        <ele>1594.96</ele>
        <time>2015-07-17T10:36:40Z</time>
      </trkpt>
      <trkpt lat="46.391165088862181" lon="12.210889058187604">
        <ele>1595.45</ele>
        <time>2015-07-17T10:36:50Z</time>
      </trkpt>
      <trkpt lat="46.391107924282551" lon="12.210916467010975">
        <ele>1595.45</ele>
        <time>2015-07-17T10:36:55Z</time>
      </trkpt>
      <trkpt lat="46.391030056402087" lon="12.210951671004295">
        <ele>1595.45</ele>
        <time>2015-07-17T10:37:05Z</time>
      </trkpt>
      <trkpt lat="46.390901980921626" lon="12.211059294641018">
        <ele>1595.45</ele>
        <time>2015-07-17T10:37:18Z</time>
      </trkpt>
      <trkpt lat="46.390810450538993" lon="12.21114244312048">
        <ele>1594.96</ele>
        <time>2015-07-17T10:37:29Z</time>
      </trkpt>
      <trkpt lat="46.390808187425137" lon="12.211218802258372">
        <ele>1596.8900000000001</ele>
        <time>2015-07-17T10:37:39Z</time>
      </trkpt>
      <trkpt lat="46.390854204073548" lon="12.211380992084742">
        <ele>1597.3699999999999</ele>
        <time>2015-07-17T10:37:51Z</time>
      </trkpt>
      <trkpt lat="46.390863507986069" lon="12.211552737280726">
        <ele>1598.3299999999999</ele>
        <time>2015-07-17T10:38:03Z</time>
      </trkpt>
      <trkpt lat="46.390849677845836" lon="12.211714927107096">
        <ele>1598.8099999999999</ele>
        <time>2015-07-17T10:38:15Z</time>
      </trkpt>
      <trkpt lat="46.390801733359694" lon="12.21179723739624">
        <ele>1599.29</ele>
        <time>2015-07-17T10:38:23Z</time>
      </trkpt>
      <trkpt lat="46.390768960118294" lon="12.211800757795572">
        <ele>1599.29</ele>
        <time>2015-07-17T10:38:25Z</time>
      </trkpt>
      <trkpt lat="46.390704168006778" lon="12.211884157732129">
        <ele>1599.77</ele>
        <time>2015-07-17T10:38:36Z</time>
      </trkpt>
      <trkpt lat="46.390670891851187" lon="12.211944675073028">
        <ele>1598.3299999999999</ele>
        <time>2015-07-17T10:38:42Z</time>
      </trkpt>
      <trkpt lat="46.390630826354027" lon="12.212006617337465">
        <ele>1599.29</ele>
        <time>2015-07-17T10:38:54Z</time>
      </trkpt>
      <trkpt lat="46.39070869423449" lon="12.212017178535461">
        <ele>1600.73</ele>
        <time>2015-07-17T10:39:05Z</time>
      </trkpt>
      <trkpt lat="46.390756806358695" lon="12.21212656237185">
        <ele>1602.1700000000001</ele>
        <time>2015-07-17T10:39:15Z</time>
      </trkpt>
      <trkpt lat="46.390733672305942" lon="12.212280705571175">
        <ele>1602.1700000000001</ele>
        <time>2015-07-17T10:39:25Z</time>
      </trkpt>
      <trkpt lat="46.390764936804771" lon="12.212381288409233">
        <ele>1602.6600000000001</ele>
        <time>2015-07-17T10:39:34Z</time>
      </trkpt>
      <trkpt lat="46.390793351456523" lon="12.212580777704716">
        <ele>1603.1400000000001</ele>
        <time>2015-07-17T10:39:48Z</time>
      </trkpt>
      <trkpt lat="46.390764601528645" lon="12.212768029421568">
        <ele>1604.0999999999999</ele>
        <time>2015-07-17T10:40:00Z</time>
      </trkpt>
      <trkpt lat="46.390706431120634" lon="12.212895099073648">
        <ele>1605.0599999999999</ele>
        <time>2015-07-17T10:40:11Z</time>
      </trkpt>
      <trkpt lat="46.390656223520637" lon="12.212962824851274">
        <ele>1605.0599999999999</ele>
        <time>2015-07-17T10:40:18Z</time>
      </trkpt>
      <trkpt lat="46.390617918223143" lon="12.213066089898348">
        <ele>1605.54</ele>
        <time>2015-07-17T10:40:26Z</time>
      </trkpt>
      <trkpt lat="46.390594532713294" lon="12.213238002732396">
        <ele>1606.5</ele>
        <time>2015-07-17T10:40:37Z</time>
      </trkpt>
      <trkpt lat="46.390537954866886" lon="12.213331963866949">
        <ele>1606.98</ele>
        <time>2015-07-17T10:40:45Z</time>
      </trkpt>
      <trkpt lat="46.390489507466555" lon="12.213428523391485">
        <ele>1607.9400000000001</ele>
        <time>2015-07-17T10:40:54Z</time>
      </trkpt>
      <trkpt lat="46.390474755316973" lon="12.213463811203837">
        <ele>1607.9400000000001</ele>
        <time>2015-07-17T10:40:57Z</time>
      </trkpt>
      <trkpt lat="46.390463355928659" lon="12.2136056330055">
        <ele>1607.9400000000001</ele>
        <time>2015-07-17T10:41:08Z</time>
      </trkpt>
      <trkpt lat="46.390445921570063" lon="12.213661121204495">
        <ele>1608.9000000000001</ele>
        <time>2015-07-17T10:41:17Z</time>
      </trkpt>
      <trkpt lat="46.390438294038177" lon="12.213799757882953">
        <ele>1608.9000000000001</ele>
        <time>2015-07-17T10:41:27Z</time>
      </trkpt>
      <trkpt lat="46.390439048409462" lon="12.21398776397109">
        <ele>1609.8599999999999</ele>
        <time>2015-07-17T10:41:40Z</time>
      </trkpt>
      <trkpt lat="46.390473246574402" lon="12.2140390612185">
        <ele>1609.3800000000001</ele>
        <time>2015-07-17T10:41:44Z</time>
      </trkpt>
      <trkpt lat="46.390462433919311" lon="12.214169064536691">
        <ele>1609.8599999999999</ele>
        <time>2015-07-17T10:41:55Z</time>
      </trkpt>
      <trkpt lat="46.390431756153703" lon="12.214280795305967">
        <ele>1609.8599999999999</ele>
        <time>2015-07-17T10:42:02Z</time>
      </trkpt>
      <trkpt lat="46.390385823324323" lon="12.214435525238514">
        <ele>1610.8299999999999</ele>
        <time>2015-07-17T10:42:13Z</time>
      </trkpt>
      <trkpt lat="46.390383979305625" lon="12.214613808318973">
        <ele>1610.8299999999999</ele>
        <time>2015-07-17T10:42:24Z</time>
      </trkpt>
      <trkpt lat="46.390325138345361" lon="12.21472704783082">
        <ele>1611.79</ele>
        <time>2015-07-17T10:42:35Z</time>
      </trkpt>
      <trkpt lat="46.390329413115978" lon="12.214823272079229">
        <ele>1611.79</ele>
        <time>2015-07-17T10:42:46Z</time>
      </trkpt>
      <trkpt lat="46.390378028154373" lon="12.214886974543333">
        <ele>1613.23</ele>
        <time>2015-07-17T10:42:58Z</time>
      </trkpt>
      <trkpt lat="46.390468049794436" lon="12.214908180758357">
        <ele>1613.71</ele>
        <time>2015-07-17T10:43:09Z</time>
      </trkpt>
      <trkpt lat="46.390541307628155" lon="12.215003315359354">
        <ele>1614.1900000000001</ele>
        <time>2015-07-17T10:43:21Z</time>
      </trkpt>
      <trkpt lat="46.390549354255199" lon="12.215016474947333">
        <ele>1614.6700000000001</ele>
        <time>2015-07-17T10:43:23Z</time>
      </trkpt>
      <trkpt lat="46.390614230185747" lon="12.215141365304589">
        <ele>1615.1500000000001</ele>
        <time>2015-07-17T10:43:33Z</time>
      </trkpt>
      <trkpt lat="46.390671310946345" lon="12.215271117165685">
        <ele>1616.1099999999999</ele>
        <time>2015-07-17T10:43:44Z</time>
      </trkpt>
      <trkpt lat="46.390685392543674" lon="12.215353511273861">
        <ele>1616.1099999999999</ele>
        <time>2015-07-17T10:43:50Z</time>
      </trkpt>
      <trkpt lat="46.390682123601437" lon="12.215589042752981">
        <ele>1616.5899999999999</ele>
        <time>2015-07-17T10:44:05Z</time>
      </trkpt>
      <trkpt lat="46.390597382560372" lon="12.215679734945297">
        <ele>1617.5599999999999</ele>
        <time>2015-07-17T10:44:17Z</time>
      </trkpt>
      <trkpt lat="46.390555892139673" lon="12.215848043560982">
        <ele>1617.5599999999999</ele>
        <time>2015-07-17T10:44:28Z</time>
      </trkpt>
      <trkpt lat="46.39052496291697" lon="12.21601945348084">
        <ele>1618.04</ele>
        <time>2015-07-17T10:44:40Z</time>
      </trkpt>
      <trkpt lat="46.390453297644854" lon="12.216127663850784">
        <ele>1619</ele>
        <time>2015-07-17T10:44:52Z</time>
      </trkpt>
      <trkpt lat="46.390407029539347" lon="12.216207208111882">
        <ele>1619</ele>
        <time>2015-07-17T10:45:01Z</time>
      </trkpt>
      <trkpt lat="46.390333687886596" lon="12.216248447075486">
        <ele>1619.48</ele>
        <time>2015-07-17T10:45:11Z</time>
      </trkpt>
      <trkpt lat="46.390251545235515" lon="12.216307371854782">
        <ele>1620.4400000000001</ele>
        <time>2015-07-17T10:45:22Z</time>
      </trkpt>
      <trkpt lat="46.390126990154386" lon="12.216338384896517">
        <ele>1620.4400000000001</ele>
        <time>2015-07-17T10:45:33Z</time>
      </trkpt>
      <trkpt lat="46.39002556912601" lon="12.216338217258453">
        <ele>1619.48</ele>
        <time>2015-07-17T10:45:44Z</time>
      </trkpt>
      <trkpt lat="46.390003357082605" lon="12.216362776234746">
        <ele>1619.48</ele>
        <time>2015-07-17T10:45:48Z</time>
      </trkpt>
      <trkpt lat="46.390005620196462" lon="12.216425556689501">
        <ele>1620.4400000000001</ele>
        <time>2015-07-17T10:45:57Z</time>
      </trkpt>
      <trkpt lat="46.390019617974758" lon="12.216485906392336">
        <ele>1621.8800000000001</ele>
        <time>2015-07-17T10:46:08Z</time>
      </trkpt>
      <trkpt lat="46.390018025413156" lon="12.216596798971295">
        <ele>1622.8399999999999</ele>
        <time>2015-07-17T10:46:17Z</time>
      </trkpt>
      <trkpt lat="46.390037890523672" lon="12.216672571375966">
        <ele>1623.3199999999999</ele>
        <time>2015-07-17T10:46:23Z</time>
      </trkpt>
      <trkpt lat="46.390095977112651" lon="12.216773740947247">
        <ele>1623.8</ele>
        <time>2015-07-17T10:46:32Z</time>
      </trkpt>
      <trkpt lat="46.390111315995455" lon="12.216861248016357">
        <ele>1624.28</ele>
        <time>2015-07-17T10:46:39Z</time>
      </trkpt>
      <trkpt lat="46.390113243833184" lon="12.216978343203664">
        <ele>1624.77</ele>
        <time>2015-07-17T10:46:47Z</time>
      </trkpt>
      <trkpt lat="46.390083907172084" lon="12.217097030952573">
        <ele>1625.25</ele>
        <time>2015-07-17T10:46:59Z</time>
      </trkpt>
      <trkpt lat="46.390107627958059" lon="12.217181185260415">
        <ele>1625.73</ele>
        <time>2015-07-17T10:47:09Z</time>
      </trkpt>
      <trkpt lat="46.390142412856221" lon="12.217329628765583">
        <ele>1626.21</ele>
        <time>2015-07-17T10:47:20Z</time>
      </trkpt>
      <trkpt lat="46.390141742303967" lon="12.217468600720167">
        <ele>1627.1700000000001</ele>
        <time>2015-07-17T10:47:31Z</time>
      </trkpt>
      <trkpt lat="46.390138724818826" lon="12.217504307627678">
        <ele>1627.1700000000001</ele>
        <time>2015-07-17T10:47:34Z</time>
      </trkpt>
      <trkpt lat="46.390114249661565" lon="12.217655936256051">
        <ele>1627.6500000000001</ele>
        <time>2015-07-17T10:47:46Z</time>
      </trkpt>
      <trkpt lat="46.390052307397127" lon="12.217798512428999">
        <ele>1628.1300000000001</ele>
        <time>2015-07-17T10:47:58Z</time>
      </trkpt>
      <trkpt lat="46.390038141980767" lon="12.217908734455705">
        <ele>1627.1700000000001</ele>
        <time>2015-07-17T10:48:07Z</time>
      </trkpt>
      <trkpt lat="46.390044176951051" lon="12.217968245968223">
        <ele>1627.1700000000001</ele>
        <time>2015-07-17T10:48:12Z</time>
      </trkpt>
      <trkpt lat="46.390063455328345" lon="12.218027003109455">
        <ele>1626.6900000000001</ele>
        <time>2015-07-17T10:48:16Z</time>
      </trkpt>
      <trkpt lat="46.390042332932353" lon="12.218068996444345">
        <ele>1627.6500000000001</ele>
        <time>2015-07-17T10:48:21Z</time>
      </trkpt>
      <trkpt lat="46.390015259385109" lon="12.218157760798931">
        <ele>1628.6099999999999</ele>
        <time>2015-07-17T10:48:30Z</time>
      </trkpt>
      <trkpt lat="46.390024311840534" lon="12.218201011419296">
        <ele>1629.5699999999999</ele>
        <time>2015-07-17T10:48:35Z</time>
      </trkpt>
      <trkpt lat="46.390047948807478" lon="12.218269994482398">
        <ele>1629.5699999999999</ele>
        <time>2015-07-17T10:48:40Z</time>
      </trkpt>
      <trkpt lat="46.390033699572086" lon="12.218372924253345">
        <ele>1630.53</ele>
        <time>2015-07-17T10:48:48Z</time>
      </trkpt>
      <trkpt lat="46.390034956857562" lon="12.218443416059017">
        <ele>1631.49</ele>
        <time>2015-07-17T10:48:59Z</time>
      </trkpt>
      <trkpt lat="46.390042081475258" lon="12.218540562316775">
        <ele>1631.98</ele>
        <time>2015-07-17T10:49:08Z</time>
      </trkpt>
      <trkpt lat="46.390092540532351" lon="12.218652879819274">
        <ele>1632.46</ele>
        <time>2015-07-17T10:49:18Z</time>
      </trkpt>
      <trkpt lat="46.390137718990445" lon="12.218702500686049">
        <ele>1632.9400000000001</ele>
        <time>2015-07-17T10:49:26Z</time>
      </trkpt>
      <trkpt lat="46.390142077580094" lon="12.218710295855999">
        <ele>1632.9400000000001</ele>
        <time>2015-07-17T10:49:27Z</time>
      </trkpt>
      <trkpt lat="46.390190105885267" lon="12.218802664428949">
        <ele>1633.4200000000001</ele>
        <time>2015-07-17T10:49:36Z</time>
      </trkpt>
      <trkpt lat="46.390211395919323" lon="12.218820517882705">
        <ele>1633.4200000000001</ele>
        <time>2015-07-17T10:49:38Z</time>
      </trkpt>
      <trkpt lat="46.390264201909304" lon="12.218929985538125">
        <ele>1633.4200000000001</ele>
        <time>2015-07-17T10:49:48Z</time>
      </trkpt>
      <trkpt lat="46.390304267406464" lon="12.219059569761157">
        <ele>1633.9000000000001</ele>
        <time>2015-07-17T10:49:58Z</time>
      </trkpt>
      <trkpt lat="46.390346428379416" lon="12.219203319400549">
        <ele>1634.8599999999999</ele>
        <time>2015-07-17T10:50:10Z</time>
      </trkpt>
      <trkpt lat="46.390355061739683" lon="12.219294598326087">
        <ele>1634.8599999999999</ele>
        <time>2015-07-17T10:50:16Z</time>
      </trkpt>
      <trkpt lat="46.390403509140015" lon="12.21943499520421">
        <ele>1633.9000000000001</ele>
        <time>2015-07-17T10:50:25Z</time>
      </trkpt>
      <trkpt lat="46.39046436175704" lon="12.219585701823235">
        <ele>1632.9400000000001</ele>
        <time>2015-07-17T10:50:36Z</time>
      </trkpt>
      <trkpt lat="46.390433516353369" lon="12.219626437872648">
        <ele>1633.9000000000001</ele>
        <time>2015-07-17T10:50:40Z</time>
      </trkpt>
      <trkpt lat="46.390423458069563" lon="12.21969005651772">
        <ele>1635.8199999999999</ele>
        <time>2015-07-17T10:50:50Z</time>
      </trkpt>
      <trkpt lat="46.390441479161382" lon="12.219711011275649">
        <ele>1635.3399999999999</ele>
        <time>2015-07-17T10:50:52Z</time>
      </trkpt>
      <trkpt lat="46.390463523566723" lon="12.219760296866298">
        <ele>1634.8599999999999</ele>
        <time>2015-07-17T10:50:56Z</time>
      </trkpt>
      <trkpt lat="46.390490513294935" lon="12.219923241063952">
        <ele>1633.9000000000001</ele>
        <time>2015-07-17T10:51:07Z</time>
      </trkpt>
      <trkpt lat="46.390528064221144" lon="12.220118623226881">
        <ele>1632.9400000000001</ele>
        <time>2015-07-17T10:51:19Z</time>
      </trkpt>
      <trkpt lat="46.390557652339339" lon="12.220205878838897">
        <ele>1632.46</ele>
        <time>2015-07-17T10:51:28Z</time>
      </trkpt>
      <trkpt lat="46.390590090304613" lon="12.220342420041561">
        <ele>1632.46</ele>
        <time>2015-07-17T10:51:39Z</time>
      </trkpt>
      <trkpt lat="46.390628647059202" lon="12.220479128882289">
        <ele>1631.01</ele>
        <time>2015-07-17T10:51:49Z</time>
      </trkpt>
      <trkpt lat="46.390682710334659" lon="12.220652801916003">
        <ele>1630.53</ele>
        <time>2015-07-17T10:52:03Z</time>
      </trkpt>
      <trkpt lat="46.390712298452854" lon="12.220771573483944">
        <ele>1630.05</ele>
        <time>2015-07-17T10:52:14Z</time>
      </trkpt>
      <trkpt lat="46.390793519094586" lon="12.220905683934689">
        <ele>1629.0899999999999</ele>
        <time>2015-07-17T10:52:26Z</time>
      </trkpt>
      <trkpt lat="46.390810953453183" lon="12.220900738611817">
        <ele>1628.6099999999999</ele>
        <time>2015-07-17T10:52:35Z</time>
      </trkpt>
      <trkpt lat="46.390801146626472" lon="12.220897134393454">
        <ele>1628.6099999999999</ele>
        <time>2015-07-17T10:52:50Z</time>
      </trkpt>
      <trkpt lat="46.390783963724971" lon="12.220824463292956">
        <ele>1628.6099999999999</ele>
        <time>2015-07-17T10:53:04Z</time>
      </trkpt>
      <trkpt lat="46.390794105827808" lon="12.220814405009151">
        <ele>1628.6099999999999</ele>
        <time>2015-07-17T10:53:23Z</time>
      </trkpt>
      <trkpt lat="46.390802403911948" lon="12.220913982018828">
        <ele>1628.6099999999999</ele>
        <time>2015-07-17T10:53:40Z</time>
      </trkpt>
      <trkpt lat="46.390844313427806" lon="12.220905181020498">
        <ele>1628.6099999999999</ele>
        <time>2015-07-17T10:53:51Z</time>
      </trkpt>
      <trkpt lat="46.390942297875881" lon="12.220995789393783">
        <ele>1627.6500000000001</ele>
        <time>2015-07-17T10:54:02Z</time>
      </trkpt>
      <trkpt lat="46.391044473275542" lon="12.22104792483151">
        <ele>1626.6900000000001</ele>
        <time>2015-07-17T10:54:11Z</time>
      </trkpt>
      <trkpt lat="46.391083365306258" lon="12.221109448000789">
        <ele>1626.21</ele>
        <time>2015-07-17T10:54:16Z</time>
      </trkpt>
      <trkpt lat="46.391197945922613" lon="12.221265770494938">
        <ele>1625.25</ele>
        <time>2015-07-17T10:54:28Z</time>
      </trkpt>
      <trkpt lat="46.391233317553997" lon="12.221328970044851">
        <ele>1625.25</ele>
        <time>2015-07-17T10:54:32Z</time>
      </trkpt>
      <trkpt lat="46.391284028068185" lon="12.221407843753695">
        <ele>1624.28</ele>
        <time>2015-07-17T10:54:38Z</time>
      </trkpt>
      <trkpt lat="46.391284530982375" lon="12.221447238698602">
        <ele>1623.8</ele>
        <time>2015-07-17T10:54:41Z</time>
      </trkpt>
      <trkpt lat="46.391341611742973" lon="12.22164505161345">
        <ele>1623.3199999999999</ele>
        <time>2015-07-17T10:54:52Z</time>
      </trkpt>
      <trkpt lat="46.391300708055496" lon="12.221788298338652">
        <ele>1621.8800000000001</ele>
        <time>2015-07-17T10:55:01Z</time>
      </trkpt>
      <trkpt lat="46.39127891510725" lon="12.221830124035478">
        <ele>1621.4000000000001</ele>
        <time>2015-07-17T10:55:04Z</time>
      </trkpt>
      <trkpt lat="46.391220577061176" lon="12.221994241699576">
        <ele>1620.4400000000001</ele>
        <time>2015-07-17T10:55:14Z</time>
      </trkpt>
      <trkpt lat="46.391154862940311" lon="12.222124077379704">
        <ele>1619</ele>
        <time>2015-07-17T10:55:24Z</time>
      </trkpt>
      <trkpt lat="46.391077162697911" lon="12.222273359075189">
        <ele>1618.04</ele>
        <time>2015-07-17T10:55:35Z</time>
      </trkpt>
      <trkpt lat="46.390996025875211" lon="12.222451139241457">
        <ele>1616.5899999999999</ele>
        <time>2015-07-17T10:55:46Z</time>
      </trkpt>
      <trkpt lat="46.390940705314279" lon="12.222600756213069">
        <ele>1616.1099999999999</ele>
        <time>2015-07-17T10:55:56Z</time>
      </trkpt>
      <trkpt lat="46.390897873789072" lon="12.222721623256803">
        <ele>1614.6700000000001</ele>
        <time>2015-07-17T10:56:05Z</time>
      </trkpt>
      <trkpt lat="46.390893263742328" lon="12.22273126244545">
        <ele>1614.1900000000001</ele>
        <time>2015-07-17T10:56:06Z</time>
      </trkpt>
      <trkpt lat="46.390846492722631" lon="12.222806364297867">
        <ele>1613.71</ele>
        <time>2015-07-17T10:56:11Z</time>
      </trkpt>
      <trkpt lat="46.390796955674887" lon="12.222887584939599">
        <ele>1613.23</ele>
        <time>2015-07-17T10:56:25Z</time>
      </trkpt>
      <trkpt lat="46.390819838270545" lon="12.222942486405373">
        <ele>1612.75</ele>
        <time>2015-07-17T10:56:32Z</time>
      </trkpt>
      <trkpt lat="46.390839200466871" lon="12.222953634336591">
        <ele>1612.27</ele>
        <time>2015-07-17T10:56:35Z</time>
      </trkpt>
      <trkpt lat="46.390848672017455" lon="12.2230791952461">
        <ele>1612.75</ele>
        <time>2015-07-17T10:56:45Z</time>
      </trkpt>
      <trkpt lat="46.390861077234149" lon="12.223122948780656">
        <ele>1611.79</ele>
        <time>2015-07-17T10:56:57Z</time>
      </trkpt>
      <trkpt lat="46.390857389196754" lon="12.223113812506199">
        <ele>1611.79</ele>
        <time>2015-07-17T10:57:13Z</time>
      </trkpt>
      <trkpt lat="46.39088555239141" lon="12.223111297935247">
        <ele>1610.8299999999999</ele>
        <time>2015-07-17T10:57:30Z</time>
      </trkpt>
      <trkpt lat="46.390903405845165" lon="12.223049104213715">
        <ele>1610.8299999999999</ele>
        <time>2015-07-17T10:57:48Z</time>
      </trkpt>
      <trkpt lat="46.390898628160357" lon="12.223026473075151">
        <ele>1610.8299999999999</ele>
        <time>2015-07-17T10:58:02Z</time>
      </trkpt>
      <trkpt lat="46.390913045033813" lon="12.223015744239092">
        <ele>1610.8299999999999</ele>
        <time>2015-07-17T10:58:15Z</time>
      </trkpt>
      <trkpt lat="46.390915978699923" lon="12.223098808899522">
        <ele>1611.3099999999999</ele>
        <time>2015-07-17T10:58:26Z</time>
      </trkpt>
      <trkpt lat="46.390899047255516" lon="12.223066538572311">
        <ele>1610.8299999999999</ele>
        <time>2015-07-17T10:58:45Z</time>
      </trkpt>
      <trkpt lat="46.390935340896249" lon="12.223091768100858">
        <ele>1610.8299999999999</ele>
        <time>2015-07-17T10:59:03Z</time>
      </trkpt>
      <trkpt lat="46.390932071954012" lon="12.223094031214714">
        <ele>1610.8299999999999</ele>
        <time>2015-07-17T10:59:07Z</time>
      </trkpt>
      <trkpt lat="46.39095981605351" lon="12.223164606839418">
        <ele>1610.8299999999999</ele>
        <time>2015-07-17T10:59:11Z</time>
      </trkpt>
      <trkpt lat="46.390986638143659" lon="12.223230740055442">
        <ele>1610.3499999999999</ele>
        <time>2015-07-17T10:59:14Z</time>
      </trkpt>
      <trkpt lat="46.391064422205091" lon="12.223411621525884">
        <ele>1609.3800000000001</ele>
        <time>2015-07-17T10:59:25Z</time>
      </trkpt>
      <trkpt lat="46.391073474660516" lon="12.223455710336566">
        <ele>1608.9000000000001</ele>
        <time>2015-07-17T10:59:28Z</time>
      </trkpt>
      <trkpt lat="46.391066014766693" lon="12.223656792193651">
        <ele>1607.46</ele>
        <time>2015-07-17T10:59:41Z</time>
      </trkpt>
      <trkpt lat="46.391076492145658" lon="12.223782688379288">
        <ele>1606.02</ele>
        <time>2015-07-17T10:59:49Z</time>
      </trkpt>
      <trkpt lat="46.391044892370701" lon="12.223839098587632">
        <ele>1605.54</ele>
        <time>2015-07-17T10:59:53Z</time>
      </trkpt>
      <trkpt lat="46.391006838530302" lon="12.223946386948228">
        <ele>1604.5799999999999</ele>
        <time>2015-07-17T11:00:00Z</time>
      </trkpt>
      <trkpt lat="46.390955373644829" lon="12.224041353911161">
        <ele>1604.5799999999999</ele>
        <time>2015-07-17T11:00:07Z</time>
      </trkpt>
      <trkpt lat="46.390880942344666" lon="12.224143780767918">
        <ele>1603.6199999999999</ele>
        <time>2015-07-17T11:00:16Z</time>
      </trkpt>
      <trkpt lat="46.390835344791412" lon="12.224182337522507">
        <ele>1603.6199999999999</ele>
        <time>2015-07-17T11:00:21Z</time>
      </trkpt>
      <trkpt lat="46.390788070857525" lon="12.224266743287444">
        <ele>1603.1400000000001</ele>
        <time>2015-07-17T11:00:28Z</time>
      </trkpt>
      <trkpt lat="46.390703329816461" lon="12.224326925352216">
        <ele>1601.6900000000001</ele>
        <time>2015-07-17T11:00:40Z</time>
      </trkpt>
      <trkpt lat="46.390677597373724" lon="12.224374786019325">
        <ele>1600.73</ele>
        <time>2015-07-17T11:00:45Z</time>
      </trkpt>
      <trkpt lat="46.390658570453525" lon="12.224452737718821">
        <ele>1599.29</ele>
        <time>2015-07-17T11:00:56Z</time>
      </trkpt>
      <trkpt lat="46.390663012862206" lon="12.224459191784263">
        <ele>1598.8099999999999</ele>
        <time>2015-07-17T11:00:57Z</time>
      </trkpt>
      <trkpt lat="46.390600064769387" lon="12.224542507901788">
        <ele>1599.77</ele>
        <time>2015-07-17T11:01:08Z</time>
      </trkpt>
      <trkpt lat="46.390574416145682" lon="12.22466429695487">
        <ele>1599.77</ele>
        <time>2015-07-17T11:01:20Z</time>
      </trkpt>
      <trkpt lat="46.390556395053864" lon="12.224598079919815">
        <ele>1599.29</ele>
        <time>2015-07-17T11:01:32Z</time>
      </trkpt>
      <trkpt lat="46.39055036008358" lon="12.224606294184923">
        <ele>1598.3299999999999</ele>
        <time>2015-07-17T11:01:44Z</time>
      </trkpt>
      <trkpt lat="46.390596460551023" lon="12.224540747702122">
        <ele>1597.3699999999999</ele>
        <time>2015-07-17T11:01:54Z</time>
      </trkpt>
      <trkpt lat="46.390612050890923" lon="12.224503615871072">
        <ele>1597.3699999999999</ele>
        <time>2015-07-17T11:01:59Z</time>
      </trkpt>
      <trkpt lat="46.390630742534995" lon="12.224487522616982">
        <ele>1596.4100000000001</ele>
        <time>2015-07-17T11:02:01Z</time>
      </trkpt>
      <trkpt lat="46.390697881579399" lon="12.224576119333506">
        <ele>1597.8499999999999</ele>
        <time>2015-07-17T11:02:11Z</time>
      </trkpt>
      <trkpt lat="46.390759237110615" lon="12.224682569503784">
        <ele>1597.3699999999999</ele>
        <time>2015-07-17T11:02:19Z</time>
      </trkpt>
      <trkpt lat="46.390836434438825" lon="12.224764795973897">
        <ele>1596.4100000000001</ele>
        <time>2015-07-17T11:02:27Z</time>
      </trkpt>
      <trkpt lat="46.390916565433145" lon="12.224768484011292">
        <ele>1594.96</ele>
        <time>2015-07-17T11:02:37Z</time>
      </trkpt>
      <trkpt lat="46.391007592901587" lon="12.224761443212628">
        <ele>1594.48</ele>
        <time>2015-07-17T11:02:45Z</time>
      </trkpt>
      <trkpt lat="46.391137177124619" lon="12.224832186475396">
        <ele>1593.04</ele>
        <time>2015-07-17T11:02:57Z</time>
      </trkpt>
      <trkpt lat="46.39117045328021" lon="12.22497601993382">
        <ele>1592.0799999999999</ele>
        <time>2015-07-17T11:03:04Z</time>
      </trkpt>
      <trkpt lat="46.391181852668524" lon="12.225170815363526">
        <ele>1590.6400000000001</ele>
        <time>2015-07-17T11:03:17Z</time>
      </trkpt>
      <trkpt lat="46.391177326440811" lon="12.22534297965467">
        <ele>1589.2</ele>
        <time>2015-07-17T11:03:29Z</time>
      </trkpt>
      <trkpt lat="46.391173303127289" lon="12.225362006574869">
        <ele>1588.72</ele>
        <time>2015-07-17T11:03:30Z</time>
      </trkpt>
      <trkpt lat="46.391192749142647" lon="12.225542049854994">
        <ele>1588.24</ele>
        <time>2015-07-17T11:03:40Z</time>
      </trkpt>
      <trkpt lat="46.391220074146986" lon="12.22558781504631">
        <ele>1587.75</ele>
        <time>2015-07-17T11:03:44Z</time>
      </trkpt>
      <trkpt lat="46.391255864873528" lon="12.225664593279362">
        <ele>1586.79</ele>
        <time>2015-07-17T11:03:50Z</time>
      </trkpt>
      <trkpt lat="46.391285955905914" lon="12.22576173953712">
        <ele>1586.3099999999999</ele>
        <time>2015-07-17T11:03:58Z</time>
      </trkpt>
      <trkpt lat="46.39136734418571" lon="12.225903561338782">
        <ele>1584.8699999999999</ele>
        <time>2015-07-17T11:04:10Z</time>
      </trkpt>
      <trkpt lat="46.391368852928281" lon="12.226024176925421">
        <ele>1584.3900000000001</ele>
        <time>2015-07-17T11:04:17Z</time>
      </trkpt>
      <trkpt lat="46.391358710825443" lon="12.2262411005795">
        <ele>1583.9100000000001</ele>
        <time>2015-07-17T11:04:28Z</time>
      </trkpt>
      <trkpt lat="46.391352592036128" lon="12.226486941799521">
        <ele>1582.47</ele>
        <time>2015-07-17T11:04:40Z</time>
      </trkpt>
      <trkpt lat="46.39137027785182" lon="12.226696405559778">
        <ele>1581.51</ele>
        <time>2015-07-17T11:04:53Z</time>
      </trkpt>
      <trkpt lat="46.391289057210088" lon="12.22682498395443">
        <ele>1580.0599999999999</ele>
        <time>2015-07-17T11:05:03Z</time>
      </trkpt>
      <trkpt lat="46.391237508505583" lon="12.226866474375129">
        <ele>1579.5799999999999</ele>
        <time>2015-07-17T11:05:07Z</time>
      </trkpt>
      <trkpt lat="46.391124604269862" lon="12.226958926767111">
        <ele>1579.0999999999999</ele>
        <time>2015-07-17T11:05:17Z</time>
      </trkpt>
      <trkpt lat="46.391036678105593" lon="12.227061856538057">
        <ele>1578.6199999999999</ele>
        <time>2015-07-17T11:05:26Z</time>
      </trkpt>
      <trkpt lat="46.390966605395079" lon="12.227201331406832">
        <ele>1577.1800000000001</ele>
        <time>2015-07-17T11:05:37Z</time>
      </trkpt>
      <trkpt lat="46.390891252085567" lon="12.227271487936378">
        <ele>1575.74</ele>
        <time>2015-07-17T11:05:49Z</time>
      </trkpt>
      <trkpt lat="46.390819502994418" lon="12.227391935884953">
        <ele>1577.1800000000001</ele>
        <time>2015-07-17T11:06:01Z</time>
      </trkpt>
      <trkpt lat="46.390783125534654" lon="12.227466786280274">
        <ele>1575.74</ele>
        <time>2015-07-17T11:06:12Z</time>
      </trkpt>
      <trkpt lat="46.390778180211782" lon="12.227478018030524">
        <ele>1575.26</ele>
        <time>2015-07-17T11:06:13Z</time>
      </trkpt>
      <trkpt lat="46.390740880742669" lon="12.227542223408818">
        <ele>1575.26</ele>
        <time>2015-07-17T11:06:25Z</time>
      </trkpt>
      <trkpt lat="46.390714896842837" lon="12.227570302784443">
        <ele>1577.1800000000001</ele>
        <time>2015-07-17T11:06:27Z</time>
      </trkpt>
      <trkpt lat="46.390656139701605" lon="12.227701479569077">
        <ele>1578.1400000000001</ele>
        <time>2015-07-17T11:06:37Z</time>
      </trkpt>
      <trkpt lat="46.390599394217134" lon="12.227791585028172">
        <ele>1580.0599999999999</ele>
        <time>2015-07-17T11:06:47Z</time>
      </trkpt>
      <trkpt lat="46.390533596277237" lon="12.227903986349702">
        <ele>1581.99</ele>
        <time>2015-07-17T11:07:00Z</time>
      </trkpt>
      <trkpt lat="46.390485819429159" lon="12.227987218648195">
        <ele>1583.9100000000001</ele>
        <time>2015-07-17T11:07:13Z</time>
      </trkpt>
      <trkpt lat="46.390486741438508" lon="12.228119317442179">
        <ele>1585.8299999999999</ele>
        <time>2015-07-17T11:07:28Z</time>
      </trkpt>
      <trkpt lat="46.390497721731663" lon="12.228230545297265">
        <ele>1587.75</ele>
        <time>2015-07-17T11:07:39Z</time>
      </trkpt>
      <trkpt lat="46.390458242967725" lon="12.228302378207445">
        <ele>1590.1600000000001</ele>
        <time>2015-07-17T11:07:51Z</time>
      </trkpt>
      <trkpt lat="46.39045019634068" lon="12.228387789800763">
        <ele>1593.52</ele>
        <time>2015-07-17T11:08:02Z</time>
      </trkpt>
      <trkpt lat="46.390434354543686" lon="12.22849759273231">
        <ele>1593.52</ele>
        <time>2015-07-17T11:08:12Z</time>
      </trkpt>
      <trkpt lat="46.390448436141014" lon="12.228605132550001">
        <ele>1595.9300000000001</ele>
        <time>2015-07-17T11:08:26Z</time>
      </trkpt>
      <trkpt lat="46.390415830537677" lon="12.228736896067858">
        <ele>1597.8499999999999</ele>
        <time>2015-07-17T11:08:40Z</time>
      </trkpt>
      <trkpt lat="46.390342656522989" lon="12.228831946849823">
        <ele>1600.73</ele>
        <time>2015-07-17T11:08:53Z</time>
      </trkpt>
      <trkpt lat="46.390321534126997" lon="12.228907383978367">
        <ele>1602.6600000000001</ele>
        <time>2015-07-17T11:09:05Z</time>
      </trkpt>
      <trkpt lat="46.390263363718987" lon="12.22898080945015">
        <ele>1605.0599999999999</ele>
        <time>2015-07-17T11:09:18Z</time>
      </trkpt>
      <trkpt lat="46.390221957117319" lon="12.229079967364669">
        <ele>1607.46</ele>
        <time>2015-07-17T11:09:34Z</time>
      </trkpt>
      <trkpt lat="46.390158757567406" lon="12.229191781952977">
        <ele>1609.3800000000001</ele>
        <time>2015-07-17T11:09:47Z</time>
      </trkpt>
      <trkpt lat="46.39011156745255" lon="12.229264620691538">
        <ele>1612.27</ele>
        <time>2015-07-17T11:10:00Z</time>
      </trkpt>
      <trkpt lat="46.390038980171084" lon="12.229268979281187">
        <ele>1613.71</ele>
        <time>2015-07-17T11:10:13Z</time>
      </trkpt>
      <trkpt lat="46.390000088140368" lon="12.229341063648462">
        <ele>1615.1500000000001</ele>
        <time>2015-07-17T11:10:26Z</time>
      </trkpt>
      <trkpt lat="46.389906629920006" lon="12.229394372552633">
        <ele>1616.5899999999999</ele>
        <time>2015-07-17T11:10:39Z</time>
      </trkpt>
      <trkpt lat="46.389823649078608" lon="12.229387331753969">
        <ele>1619</ele>
        <time>2015-07-17T11:10:55Z</time>
      </trkpt>
      <trkpt lat="46.389747122302651" lon="12.229391438886523">
        <ele>1619.48</ele>
        <time>2015-07-17T11:11:05Z</time>
      </trkpt>
      <trkpt lat="46.389622315764427" lon="12.229309715330601">
        <ele>1619</ele>
        <time>2015-07-17T11:11:17Z</time>
      </trkpt>
      <trkpt lat="46.389504382386804" lon="12.229252299293876">
        <ele>1619.48</ele>
        <time>2015-07-17T11:11:27Z</time>
      </trkpt>
      <trkpt lat="46.389431627467275" lon="12.229209132492542">
        <ele>1620.4400000000001</ele>
        <time>2015-07-17T11:11:35Z</time>
      </trkpt>
      <trkpt lat="46.389384269714355" lon="12.229161355644464">
        <ele>1622.8399999999999</ele>
        <time>2015-07-17T11:11:47Z</time>
      </trkpt>
      <trkpt lat="46.389334062114358" lon="12.229098239913583">
        <ele>1624.28</ele>
        <time>2015-07-17T11:11:56Z</time>
      </trkpt>
      <trkpt lat="46.389322075992823" lon="12.229077117517591">
        <ele>1624.28</ele>
        <time>2015-07-17T11:11:58Z</time>
      </trkpt>
      <trkpt lat="46.389303049072623" lon="12.229036465287209">
        <ele>1624.28</ele>
        <time>2015-07-17T11:12:01Z</time>
      </trkpt>
      <trkpt lat="46.389247057959437" lon="12.228934625163674">
        <ele>1625.25</ele>
        <time>2015-07-17T11:12:13Z</time>
      </trkpt>
      <trkpt lat="46.389239598065615" lon="12.228923728689551">
        <ele>1625.73</ele>
        <time>2015-07-17T11:12:15Z</time>
      </trkpt>
      <trkpt lat="46.389189977198839" lon="12.228875448927283">
        <ele>1628.1300000000001</ele>
        <time>2015-07-17T11:12:26Z</time>
      </trkpt>
      <trkpt lat="46.389132477343082" lon="12.228815350681543">
        <ele>1628.6099999999999</ele>
        <time>2015-07-17T11:12:36Z</time>
      </trkpt>
      <trkpt lat="46.389102805405855" lon="12.228805376216769">
        <ele>1628.6099999999999</ele>
        <time>2015-07-17T11:12:41Z</time>
      </trkpt>
      <trkpt lat="46.389061063528061" lon="12.228761874139309">
        <ele>1628.6099999999999</ele>
        <time>2015-07-17T11:12:50Z</time>
      </trkpt>
      <trkpt lat="46.389052849262953" lon="12.228719964623451">
        <ele>1628.6099999999999</ele>
        <time>2015-07-17T11:12:58Z</time>
      </trkpt>
      <trkpt lat="46.388980848714709" lon="12.228693477809429">
        <ele>1630.05</ele>
        <time>2015-07-17T11:13:08Z</time>
      </trkpt>
      <trkpt lat="46.388919074088335" lon="12.228673696517944">
        <ele>1631.01</ele>
        <time>2015-07-17T11:13:18Z</time>
      </trkpt>
      <trkpt lat="46.3888293877244" lon="12.228648802265525">
        <ele>1631.98</ele>
        <time>2015-07-17T11:13:28Z</time>
      </trkpt>
      <trkpt lat="46.388757806271315" lon="12.228619800880551">
        <ele>1632.46</ele>
        <time>2015-07-17T11:13:38Z</time>
      </trkpt>
      <trkpt lat="46.388733750209212" lon="12.228604378178716">
        <ele>1632.9400000000001</ele>
        <time>2015-07-17T11:13:42Z</time>
      </trkpt>
      <trkpt lat="46.388689577579498" lon="12.228601109236479">
        <ele>1633.9000000000001</ele>
        <time>2015-07-17T11:13:51Z</time>
      </trkpt>
      <trkpt lat="46.388607686385512" lon="12.228514943271875">
        <ele>1635.3399999999999</ele>
        <time>2015-07-17T11:14:03Z</time>
      </trkpt>
      <trkpt lat="46.388553958386183" lon="12.228446798399091">
        <ele>1636.3</ele>
        <time>2015-07-17T11:14:14Z</time>
      </trkpt>
      <trkpt lat="46.388465948402882" lon="12.228396674618125">
        <ele>1638.22</ele>
        <time>2015-07-17T11:14:26Z</time>
      </trkpt>
      <trkpt lat="46.38839746825397" lon="12.228267006576061">
        <ele>1640.1500000000001</ele>
        <time>2015-07-17T11:14:41Z</time>
      </trkpt>
      <trkpt lat="46.38836033642292" lon="12.228259714320302">
        <ele>1641.5899999999999</ele>
        <time>2015-07-17T11:14:51Z</time>
      </trkpt>
      <trkpt lat="46.388362096622586" lon="12.228260636329651">
        <ele>1641.5899999999999</ele>
        <time>2015-07-17T11:14:52Z</time>
      </trkpt>
      <trkpt lat="46.388326054438949" lon="12.228268682956696">
        <ele>1640.6300000000001</ele>
        <time>2015-07-17T11:15:00Z</time>
      </trkpt>
      <trkpt lat="46.388258244842291" lon="12.228236496448517">
        <ele>1642.0699999999999</ele>
        <time>2015-07-17T11:15:10Z</time>
      </trkpt>
      <trkpt lat="46.388240391388535" lon="12.228126525878906">
        <ele>1644.47</ele>
        <time>2015-07-17T11:15:23Z</time>
      </trkpt>
      <trkpt lat="46.388228740543127" lon="12.228074558079243">
        <ele>1646.4000000000001</ele>
        <time>2015-07-17T11:15:35Z</time>
      </trkpt>
      <trkpt lat="46.388241816312075" lon="12.227910188958049">
        <ele>1648.8</ele>
        <time>2015-07-17T11:15:49Z</time>
      </trkpt>
      <trkpt lat="46.38818783685565" lon="12.227895520627499">
        <ele>1651.2</ele>
        <time>2015-07-17T11:16:03Z</time>
      </trkpt>
      <trkpt lat="46.388108795508742" lon="12.227810276672244">
        <ele>1653.5999999999999</ele>
        <time>2015-07-17T11:16:16Z</time>
      </trkpt>
      <trkpt lat="46.388091947883368" lon="12.227799380198121">
        <ele>1656.01</ele>
        <time>2015-07-17T11:16:30Z</time>
      </trkpt>
      <trkpt lat="46.388119189068675" lon="12.227808516472578">
        <ele>1656.01</ele>
        <time>2015-07-17T11:16:38Z</time>
      </trkpt>
      <trkpt lat="46.388043751940131" lon="12.227756297215819">
        <ele>1657.45</ele>
        <time>2015-07-17T11:16:50Z</time>
      </trkpt>
      <trkpt lat="46.387966135516763" lon="12.227662587538362">
        <ele>1660.8099999999999</ele>
        <time>2015-07-17T11:17:05Z</time>
      </trkpt>
      <trkpt lat="46.387952137738466" lon="12.227568291127682">
        <ele>1663.7</ele>
        <time>2015-07-17T11:17:20Z</time>
      </trkpt>
      <trkpt lat="46.387890363112092" lon="12.227482795715332">
        <ele>1666.5799999999999</ele>
        <time>2015-07-17T11:17:37Z</time>
      </trkpt>
      <trkpt lat="46.387830348685384" lon="12.227374082431197">
        <ele>1669.47</ele>
        <time>2015-07-17T11:17:55Z</time>
      </trkpt>
      <trkpt lat="46.38773487880826" lon="12.227351870387793">
        <ele>1671.8699999999999</ele>
        <time>2015-07-17T11:18:12Z</time>
      </trkpt>
      <trkpt lat="46.387698920443654" lon="12.227301495149732">
        <ele>1673.3099999999999</ele>
        <time>2015-07-17T11:18:22Z</time>
      </trkpt>
      <trkpt lat="46.387701686471701" lon="12.227201331406832">
        <ele>1675.23</ele>
        <time>2015-07-17T11:18:35Z</time>
      </trkpt>
      <trkpt lat="46.387682743370533" lon="12.227142909541726">
        <ele>1677.6400000000001</ele>
        <time>2015-07-17T11:18:48Z</time>
      </trkpt>
      <trkpt lat="46.387667488306761" lon="12.227013157680631">
        <ele>1681</ele>
        <time>2015-07-17T11:19:04Z</time>
      </trkpt>
      <trkpt lat="46.387624489143491" lon="12.226903270930052">
        <ele>1683.4100000000001</ele>
        <time>2015-07-17T11:19:19Z</time>
      </trkpt>
      <trkpt lat="46.387587692588568" lon="12.226868066936731">
        <ele>1685.8099999999999</ele>
        <time>2015-07-17T11:19:33Z</time>
      </trkpt>
      <trkpt lat="46.387562463060021" lon="12.226832946762443">
        <ele>1687.73</ele>
        <time>2015-07-17T11:19:45Z</time>
      </trkpt>
      <trkpt lat="46.387538658455014" lon="12.22677075304091">
        <ele>1688.21</ele>
        <time>2015-07-17T11:19:55Z</time>
      </trkpt>
      <trkpt lat="46.387517368420959" lon="12.226801095530391">
        <ele>1689.1700000000001</ele>
        <time>2015-07-17T11:20:08Z</time>
      </trkpt>
      <trkpt lat="46.387499095872045" lon="12.226763963699341">
        <ele>1688.6900000000001</ele>
        <time>2015-07-17T11:20:19Z</time>
      </trkpt>
      <trkpt lat="46.387527007609606" lon="12.226840239018202">
        <ele>1689.6500000000001</ele>
        <time>2015-07-17T11:20:33Z</time>
      </trkpt>
      <trkpt lat="46.387537904083729" lon="12.226848369464278">
        <ele>1690.1400000000001</ele>
        <time>2015-07-17T11:20:44Z</time>
      </trkpt>
      <trkpt lat="46.387491049245" lon="12.226744182407856">
        <ele>1690.1400000000001</ele>
        <time>2015-07-17T11:20:52Z</time>
      </trkpt>
      <trkpt lat="46.387413935735822" lon="12.226697411388159">
        <ele>1692.54</ele>
        <time>2015-07-17T11:21:06Z</time>
      </trkpt>
      <trkpt lat="46.387344533577561" lon="12.226669164374471">
        <ele>1694.9400000000001</ele>
        <time>2015-07-17T11:21:20Z</time>
      </trkpt>
      <trkpt lat="46.387395747005939" lon="12.226694477722049">
        <ele>1694.9400000000001</ele>
        <time>2015-07-17T11:21:38Z</time>
      </trkpt>
      <trkpt lat="46.387319974601269" lon="12.226662458851933">
        <ele>1693.5</ele>
        <time>2015-07-17T11:21:53Z</time>
      </trkpt>
      <trkpt lat="46.387363644316792" lon="12.226631697267294">
        <ele>1694.46</ele>
        <time>2015-07-17T11:22:16Z</time>
      </trkpt>
      <trkpt lat="46.387350149452686" lon="12.226642174646258">
        <ele>1693.98</ele>
        <time>2015-07-17T11:22:35Z</time>
      </trkpt>
      <trkpt lat="46.387335229665041" lon="12.22665298730135">
        <ele>1694.46</ele>
        <time>2015-07-17T11:23:01Z</time>
      </trkpt>
      <trkpt lat="46.387286111712456" lon="12.22664418630302">
        <ele>1693.5</ele>
        <time>2015-07-17T11:23:32Z</time>
      </trkpt>
      <trkpt lat="46.387216961011291" lon="12.22669992595911">
        <ele>1693.5</ele>
        <time>2015-07-17T11:23:53Z</time>
      </trkpt>
      <trkpt lat="46.387357944622636" lon="12.226834204047918">
        <ele>1693.02</ele>
        <time>2015-07-17T11:24:20Z</time>
      </trkpt>
      <trkpt lat="46.387394238263369" lon="12.226716773584485">
        <ele>1693.02</ele>
        <time>2015-07-17T11:24:47Z</time>
      </trkpt>
      <trkpt lat="46.387337408959866" lon="12.226710822433233">
        <ele>1693.5</ele>
        <time>2015-07-17T11:25:16Z</time>
      </trkpt>
      <trkpt lat="46.387407146394253" lon="12.226735716685653">
        <ele>1693.5</ele>
        <time>2015-07-17T11:25:48Z</time>
      </trkpt>
      <trkpt lat="46.387466490268707" lon="12.226711409166455">
        <ele>1693.98</ele>
        <time>2015-07-17T11:26:14Z</time>
      </trkpt>
      <trkpt lat="46.387482834979892" lon="12.226642929017544">
        <ele>1693.5</ele>
        <time>2015-07-17T11:26:37Z</time>
      </trkpt>
      <trkpt lat="46.387314023450017" lon="12.226697327569127">
        <ele>1693.98</ele>
        <time>2015-07-17T11:26:59Z</time>
      </trkpt>
      <trkpt lat="46.387207238003612" lon="12.226727586239576">
        <ele>1693.5</ele>
        <time>2015-07-17T11:27:20Z</time>
      </trkpt>
      <trkpt lat="46.387255433946848" lon="12.226753737777472">
        <ele>1693.98</ele>
        <time>2015-07-17T11:27:33Z</time>
      </trkpt>
      <trkpt lat="46.387268761172891" lon="12.226731441915035">
        <ele>1693.02</ele>
        <time>2015-07-17T11:27:45Z</time>
      </trkpt>
      <trkpt lat="46.387183936312795" lon="12.226696405559778">
        <ele>1693.02</ele>
        <time>2015-07-17T11:28:12Z</time>
      </trkpt>
      <trkpt lat="46.387343527749181" lon="12.226680312305689">
        <ele>1693.5</ele>
        <time>2015-07-17T11:28:41Z</time>
      </trkpt>
      <trkpt lat="46.387353502213955" lon="12.226697411388159">
        <ele>1693.5</ele>
        <time>2015-07-17T11:29:08Z</time>
      </trkpt>
      <trkpt lat="46.387309581041336" lon="12.226700345054269">
        <ele>1694.46</ele>
        <time>2015-07-17T11:29:41Z</time>
      </trkpt>
      <trkpt lat="46.387301618233323" lon="12.226703697815537">
        <ele>1694.46</ele>
        <time>2015-07-17T11:30:09Z</time>
      </trkpt>
      <trkpt lat="46.387374876067042" lon="12.226656172424555">
        <ele>1694.46</ele>
        <time>2015-07-17T11:30:35Z</time>
      </trkpt>
      <trkpt lat="46.387532288208604" lon="12.22661686129868">
        <ele>1694.46</ele>
        <time>2015-07-17T11:31:00Z</time>
      </trkpt>
      <trkpt lat="46.387407733127475" lon="12.226710906252265">
        <ele>1693.5</ele>
        <time>2015-07-17T11:31:16Z</time>
      </trkpt>
      <trkpt lat="46.387296756729484" lon="12.226733788847923">
        <ele>1695.9000000000001</ele>
        <time>2015-07-17T11:31:29Z</time>
      </trkpt>
      <trkpt lat="46.38725551776588" lon="12.226760694757104">
        <ele>1695.9000000000001</ele>
        <time>2015-07-17T11:31:54Z</time>
      </trkpt>
      <trkpt lat="46.387297846376896" lon="12.226826995611191">
        <ele>1695.4200000000001</ele>
        <time>2015-07-17T11:32:19Z</time>
      </trkpt>
      <trkpt lat="46.387370182201266" lon="12.226707385852933">
        <ele>1694.9400000000001</ele>
        <time>2015-07-17T11:32:43Z</time>
      </trkpt>
      <trkpt lat="46.387317208573222" lon="12.226692885160446">
        <ele>1695.4200000000001</ele>
        <time>2015-07-17T11:32:58Z</time>
      </trkpt>
      <trkpt lat="46.387365907430649" lon="12.226693388074636">
        <ele>1695.9000000000001</ele>
        <time>2015-07-17T11:33:12Z</time>
      </trkpt>
      <trkpt lat="46.387378312647343" lon="12.226752061396837">
        <ele>1696.3800000000001</ele>
        <time>2015-07-17T11:33:29Z</time>
      </trkpt>
      <trkpt lat="46.387291140854359" lon="12.226730519905686">
        <ele>1696.8599999999999</ele>
        <time>2015-07-17T11:33:42Z</time>
      </trkpt>
      <trkpt lat="46.387235652655363" lon="12.226763460785151">
        <ele>1699.75</ele>
        <time>2015-07-17T11:33:57Z</time>
      </trkpt>
      <trkpt lat="46.38719005510211" lon="12.226827498525381">
        <ele>1700.71</ele>
        <time>2015-07-17T11:34:07Z</time>
      </trkpt>
      <trkpt lat="46.387156527489424" lon="12.226879969239235">
        <ele>1703.1099999999999</ele>
        <time>2015-07-17T11:34:20Z</time>
      </trkpt>
      <trkpt lat="46.387137668207288" lon="12.226953813806176">
        <ele>1704.0699999999999</ele>
        <time>2015-07-17T11:34:30Z</time>
      </trkpt>
      <trkpt lat="46.387106571346521" lon="12.227008631452918">
        <ele>1706</ele>
        <time>2015-07-17T11:34:41Z</time>
      </trkpt>
      <trkpt lat="46.387044964358211" lon="12.227063868194818">
        <ele>1707.9200000000001</ele>
        <time>2015-07-17T11:34:55Z</time>
      </trkpt>
      <trkpt lat="46.386976400390267" lon="12.227139472961426">
        <ele>1709.3599999999999</ele>
        <time>2015-07-17T11:35:08Z</time>
      </trkpt>
      <trkpt lat="46.38694622553885" lon="12.227178951725364">
        <ele>1710.8</ele>
        <time>2015-07-17T11:35:18Z</time>
      </trkpt>
      <trkpt lat="46.386905992403626" lon="12.227232931181788">
        <ele>1712.73</ele>
        <time>2015-07-17T11:35:32Z</time>
      </trkpt>
      <trkpt lat="46.386858047917485" lon="12.227295124903321">
        <ele>1714.6500000000001</ele>
        <time>2015-07-17T11:35:45Z</time>
      </trkpt>
      <trkpt lat="46.386821586638689" lon="12.227348433807492">
        <ele>1716.5699999999999</ele>
        <time>2015-07-17T11:35:56Z</time>
      </trkpt>
      <trkpt lat="46.386764170601964" lon="12.227413477376103">
        <ele>1718.49</ele>
        <time>2015-07-17T11:36:06Z</time>
      </trkpt>
      <trkpt lat="46.386774899438024" lon="12.227478940039873">
        <ele>1719.9400000000001</ele>
        <time>2015-07-17T11:36:18Z</time>
      </trkpt>
      <trkpt lat="46.386700551956892" lon="12.227578181773424">
        <ele>1722.8199999999999</ele>
        <time>2015-07-17T11:36:33Z</time>
      </trkpt>
      <trkpt lat="46.386647745966911" lon="12.227659402415156">
        <ele>1724.26</ele>
        <time>2015-07-17T11:36:43Z</time>
      </trkpt>
      <trkpt lat="46.386617990210652" lon="12.227697120979428">
        <ele>1725.7</ele>
        <time>2015-07-17T11:36:54Z</time>
      </trkpt>
      <trkpt lat="46.386591168120503" lon="12.22776853479445">
        <ele>1727.1500000000001</ele>
        <time>2015-07-17T11:37:06Z</time>
      </trkpt>
      <trkpt lat="46.386530818417668" lon="12.227808348834515">
        <ele>1728.5899999999999</ele>
        <time>2015-07-17T11:37:16Z</time>
      </trkpt>
      <trkpt lat="46.386506343260407" lon="12.227882444858551">
        <ele>1730.51</ele>
        <time>2015-07-17T11:37:29Z</time>
      </trkpt>
      <trkpt lat="46.386437611654401" lon="12.227975148707628">
        <ele>1731.95</ele>
        <time>2015-07-17T11:37:41Z</time>
      </trkpt>
      <trkpt lat="46.386388661339879" lon="12.228041449561715">
        <ele>1733.3900000000001</ele>
        <time>2015-07-17T11:37:52Z</time>
      </trkpt>
      <trkpt lat="46.386340716853738" lon="12.228091070428491">
        <ele>1735.8</ele>
        <time>2015-07-17T11:38:05Z</time>
      </trkpt>
      <trkpt lat="46.386314816772938" lon="12.228156197816133">
        <ele>1737.24</ele>
        <time>2015-07-17T11:38:15Z</time>
      </trkpt>
      <trkpt lat="46.386283468455076" lon="12.228231132030487">
        <ele>1739.1600000000001</ele>
        <time>2015-07-17T11:38:28Z</time>
      </trkpt>
      <trkpt lat="46.386239631101489" lon="12.228311849758029">
        <ele>1740.5999999999999</ele>
        <time>2015-07-17T11:38:39Z</time>
      </trkpt>
      <trkpt lat="46.386182634159923" lon="12.228355268016458">
        <ele>1742.53</ele>
        <time>2015-07-17T11:38:51Z</time>
      </trkpt>
      <trkpt lat="46.386135946959257" lon="12.228404050692916">
        <ele>1743.97</ele>
        <time>2015-07-17T11:39:04Z</time>
      </trkpt>
      <trkpt lat="46.386084649711847" lon="12.228493737056851">
        <ele>1745.8900000000001</ele>
        <time>2015-07-17T11:39:16Z</time>
      </trkpt>
      <trkpt lat="46.386029748246074" lon="12.228595158085227">
        <ele>1746.3699999999999</ele>
        <time>2015-07-17T11:39:29Z</time>
      </trkpt>
      <trkpt lat="46.386008458212018" lon="12.228604713454843">
        <ele>1746.3699999999999</ele>
        <time>2015-07-17T11:39:39Z</time>
      </trkpt>
      <trkpt lat="46.386010218411684" lon="12.228614268824458">
        <ele>1747.3299999999999</ele>
        <time>2015-07-17T11:39:50Z</time>
      </trkpt>
      <trkpt lat="46.386005524545908" lon="12.228583255782723">
        <ele>1746.8499999999999</ele>
        <time>2015-07-17T11:40:01Z</time>
      </trkpt>
      <trkpt lat="46.386011643335223" lon="12.228572610765696">
        <ele>1746.8499999999999</ele>
        <time>2015-07-17T11:40:24Z</time>
      </trkpt>
      <trkpt lat="46.386019857600331" lon="12.228613765910268">
        <ele>1746.8499999999999</ele>
        <time>2015-07-17T11:40:41Z</time>
      </trkpt>
      <trkpt lat="46.386020863428712" lon="12.228628937155008">
        <ele>1746.8499999999999</ele>
        <time>2015-07-17T11:40:53Z</time>
      </trkpt>
      <trkpt lat="46.386027904227376" lon="12.22861435264349">
        <ele>1747.3299999999999</ele>
        <time>2015-07-17T11:41:07Z</time>
      </trkpt>
      <trkpt lat="46.386053217574954" lon="12.228657267987728">
        <ele>1747.8099999999999</ele>
        <time>2015-07-17T11:41:19Z</time>
      </trkpt>
      <trkpt lat="46.386053888127208" lon="12.2287726867944">
        <ele>1749.26</ele>
        <time>2015-07-17T11:41:31Z</time>
      </trkpt>
      <trkpt lat="46.386076770722866" lon="12.228832617402077">
        <ele>1749.74</ele>
        <time>2015-07-17T11:41:37Z</time>
      </trkpt>
      <trkpt lat="46.386085320264101" lon="12.228941582143307">
        <ele>1749.26</ele>
        <time>2015-07-17T11:41:49Z</time>
      </trkpt>
      <trkpt lat="46.38606377877295" lon="12.229056665673852">
        <ele>1751.6600000000001</ele>
        <time>2015-07-17T11:42:00Z</time>
      </trkpt>
      <trkpt lat="46.38608624227345" lon="12.229182394221425">
        <ele>1752.6199999999999</ele>
        <time>2015-07-17T11:42:13Z</time>
      </trkpt>
      <trkpt lat="46.386090852320194" lon="12.229245761409402">
        <ele>1755.5</ele>
        <time>2015-07-17T11:42:23Z</time>
      </trkpt>
      <trkpt lat="46.386089762672782" lon="12.229354223236442">
        <ele>1756.95</ele>
        <time>2015-07-17T11:42:34Z</time>
      </trkpt>
      <trkpt lat="46.386064114049077" lon="12.229467546567321">
        <ele>1757.9100000000001</ele>
        <time>2015-07-17T11:42:46Z</time>
      </trkpt>
      <trkpt lat="46.38604374602437" lon="12.229586653411388">
        <ele>1759.8299999999999</ele>
        <time>2015-07-17T11:42:58Z</time>
      </trkpt>
      <trkpt lat="46.38603251427412" lon="12.229671394452453">
        <ele>1761.75</ele>
        <time>2015-07-17T11:43:08Z</time>
      </trkpt>
      <trkpt lat="46.386049361899495" lon="12.229790417477489">
        <ele>1763.2</ele>
        <time>2015-07-17T11:43:19Z</time>
      </trkpt>
      <trkpt lat="46.386041231453419" lon="12.229919414967299">
        <ele>1763.6800000000001</ele>
        <time>2015-07-17T11:43:30Z</time>
      </trkpt>
      <trkpt lat="46.386021450161934" lon="12.230010693892837">
        <ele>1764.6400000000001</ele>
        <time>2015-07-17T11:43:39Z</time>
      </trkpt>
      <trkpt lat="46.386018181219697" lon="12.230093842372298">
        <ele>1766.5599999999999</ele>
        <time>2015-07-17T11:43:49Z</time>
      </trkpt>
      <trkpt lat="46.385980462655425" lon="12.23019509576261">
        <ele>1767.52</ele>
        <time>2015-07-17T11:44:01Z</time>
      </trkpt>
      <trkpt lat="46.385963363572955" lon="12.230326440185308">
        <ele>1769.4400000000001</ele>
        <time>2015-07-17T11:44:14Z</time>
      </trkpt>
      <trkpt lat="46.385938636958599" lon="12.230417635291815">
        <ele>1771.3699999999999</ele>
        <time>2015-07-17T11:44:24Z</time>
      </trkpt>
      <trkpt lat="46.385902008041739" lon="12.230523582547903">
        <ele>1773.29</ele>
        <time>2015-07-17T11:44:36Z</time>
      </trkpt>
      <trkpt lat="46.385834366083145" lon="12.230662722140551">
        <ele>1775.21</ele>
        <time>2015-07-17T11:44:49Z</time>
      </trkpt>
      <trkpt lat="46.385813830420375" lon="12.230756934732199">
        <ele>1777.1300000000001</ele>
        <time>2015-07-17T11:45:01Z</time>
      </trkpt>
      <trkpt lat="46.385808130726218" lon="12.230862211436033">
        <ele>1778.5799999999999</ele>
        <time>2015-07-17T11:45:14Z</time>
      </trkpt>
      <trkpt lat="46.385816931724548" lon="12.230981402099133">
        <ele>1780.5</ele>
        <time>2015-07-17T11:45:26Z</time>
      </trkpt>
      <trkpt lat="46.385823134332895" lon="12.23112397827208">
        <ele>1782.4200000000001</ele>
        <time>2015-07-17T11:45:40Z</time>
      </trkpt>
      <trkpt lat="46.385897314175963" lon="12.231296645477414">
        <ele>1783.8599999999999</ele>
        <time>2015-07-17T11:45:53Z</time>
      </trkpt>
      <trkpt lat="46.385937631130219" lon="12.231365125626326">
        <ele>1784.3399999999999</ele>
        <time>2015-07-17T11:45:58Z</time>
      </trkpt>
      <trkpt lat="46.385989766567945" lon="12.231523459777236">
        <ele>1784.8199999999999</ele>
        <time>2015-07-17T11:46:11Z</time>
      </trkpt>
      <trkpt lat="46.385993622243404" lon="12.231532009318471">
        <ele>1785.3099999999999</ele>
        <time>2015-07-17T11:46:12Z</time>
      </trkpt>
      <trkpt lat="46.386064616963267" lon="12.231631753966212">
        <ele>1786.27</ele>
        <time>2015-07-17T11:46:25Z</time>
      </trkpt>
      <trkpt lat="46.386127062141895" lon="12.231719261035323">
        <ele>1788.1900000000001</ele>
        <time>2015-07-17T11:46:38Z</time>
      </trkpt>
      <trkpt lat="46.386170396581292" lon="12.231732336804271">
        <ele>1788.6700000000001</ele>
        <time>2015-07-17T11:46:43Z</time>
      </trkpt>
      <trkpt lat="46.386297466233373" lon="12.231809701770544">
        <ele>1789.6300000000001</ele>
        <time>2015-07-17T11:46:59Z</time>
      </trkpt>
      <trkpt lat="46.386417243629694" lon="12.231846246868372">
        <ele>1790.5899999999999</ele>
        <time>2015-07-17T11:47:12Z</time>
      </trkpt>
      <trkpt lat="46.386497626081109" lon="12.231905674561858">
        <ele>1792.03</ele>
        <time>2015-07-17T11:47:23Z</time>
      </trkpt>
      <trkpt lat="46.386571135371923" lon="12.231982788071036">
        <ele>1793.48</ele>
        <time>2015-07-17T11:47:34Z</time>
      </trkpt>
      <trkpt lat="46.386647997424006" lon="12.232067948207259">
        <ele>1795.8800000000001</ele>
        <time>2015-07-17T11:47:49Z</time>
      </trkpt>
      <trkpt lat="46.38673659414053" lon="12.232147324830294">
        <ele>1798.28</ele>
        <time>2015-07-17T11:48:01Z</time>
      </trkpt>
      <trkpt lat="46.386809181421995" lon="12.232201304286718">
        <ele>1799.73</ele>
        <time>2015-07-17T11:48:14Z</time>
      </trkpt>
      <trkpt lat="46.386880092322826" lon="12.232234161347151">
        <ele>1802.6099999999999</ele>
        <time>2015-07-17T11:48:25Z</time>
      </trkpt>
      <trkpt lat="46.386942956596613" lon="12.232255535200238">
        <ele>1803.5699999999999</ele>
        <time>2015-07-17T11:48:38Z</time>
      </trkpt>
      <trkpt lat="46.387005066499114" lon="12.232308844104409">
        <ele>1805.97</ele>
        <time>2015-07-17T11:48:52Z</time>
      </trkpt>
      <trkpt lat="46.387036833912134" lon="12.232374390587211">
        <ele>1807.9000000000001</ele>
        <time>2015-07-17T11:49:04Z</time>
      </trkpt>
      <trkpt lat="46.386963659897447" lon="12.23246717825532">
        <ele>1811.26</ele>
        <time>2015-07-17T11:49:20Z</time>
      </trkpt>
      <trkpt lat="46.386913452297449" lon="12.232506070286036">
        <ele>1812.22</ele>
        <time>2015-07-17T11:49:31Z</time>
      </trkpt>
      <trkpt lat="46.386875733733177" lon="12.232589721679688">
        <ele>1814.1500000000001</ele>
        <time>2015-07-17T11:49:42Z</time>
      </trkpt>
      <trkpt lat="46.386847151443362" lon="12.23263431340456">
        <ele>1816.0699999999999</ele>
        <time>2015-07-17T11:49:52Z</time>
      </trkpt>
      <trkpt lat="46.386822676286101" lon="12.232711175456643">
        <ele>1817.99</ele>
        <time>2015-07-17T11:50:04Z</time>
      </trkpt>
      <trkpt lat="46.386760231107473" lon="12.232744200155139">
        <ele>1819.4300000000001</ele>
        <time>2015-07-17T11:50:14Z</time>
      </trkpt>
      <trkpt lat="46.386778252199292" lon="12.232769094407558">
        <ele>1820.8699999999999</ele>
        <time>2015-07-17T11:50:25Z</time>
      </trkpt>
      <trkpt lat="46.386782778427005" lon="12.232764568179846">
        <ele>1822.8</ele>
        <time>2015-07-17T11:50:26Z</time>
      </trkpt>
      <trkpt lat="46.386819910258055" lon="12.232778146862984">
        <ele>1823.28</ele>
        <time>2015-07-17T11:50:36Z</time>
      </trkpt>
      <trkpt lat="46.386882439255714" lon="12.232816116884351">
        <ele>1825.2</ele>
        <time>2015-07-17T11:50:47Z</time>
      </trkpt>
      <trkpt lat="46.386946812272072" lon="12.232833802700043">
        <ele>1826.1600000000001</ele>
        <time>2015-07-17T11:50:57Z</time>
      </trkpt>
      <trkpt lat="46.387002216652036" lon="12.232861211523414">
        <ele>1828.0799999999999</ele>
        <time>2015-07-17T11:51:08Z</time>
      </trkpt>
      <trkpt lat="46.387062398716807" lon="12.232883255928755">
        <ele>1830.01</ele>
        <time>2015-07-17T11:51:20Z</time>
      </trkpt>
      <trkpt lat="46.387098524719477" lon="12.232907731086016">
        <ele>1832.4100000000001</ele>
        <time>2015-07-17T11:51:34Z</time>
      </trkpt>
      <trkpt lat="46.387136913836002" lon="12.23294603638351">
        <ele>1834.3299999999999</ele>
        <time>2015-07-17T11:51:44Z</time>
      </trkpt>
      <trkpt lat="46.387194832786918" lon="12.233005296438932">
        <ele>1836.26</ele>
        <time>2015-07-17T11:51:57Z</time>
      </trkpt>
      <trkpt lat="46.387240849435329" lon="12.233042009174824">
        <ele>1838.6600000000001</ele>
        <time>2015-07-17T11:52:07Z</time>
      </trkpt>
      <trkpt lat="46.387258870527148" lon="12.233109483495355">
        <ele>1841.0599999999999</ele>
        <time>2015-07-17T11:52:19Z</time>
      </trkpt>
      <trkpt lat="46.387268928810954" lon="12.233173353597522">
        <ele>1842.02</ele>
        <time>2015-07-17T11:52:31Z</time>
      </trkpt>
      <trkpt lat="46.387290302664042" lon="12.233250718563795">
        <ele>1843.47</ele>
        <time>2015-07-17T11:52:41Z</time>
      </trkpt>
      <trkpt lat="46.38728242367506" lon="12.233345182612538">
        <ele>1845.8699999999999</ele>
        <time>2015-07-17T11:52:53Z</time>
      </trkpt>
      <trkpt lat="46.387254009023309" lon="12.23346546292305">
        <ele>1848.27</ele>
        <time>2015-07-17T11:53:08Z</time>
      </trkpt>
      <trkpt lat="46.387256355956197" lon="12.233542324975133">
        <ele>1850.6800000000001</ele>
        <time>2015-07-17T11:53:21Z</time>
      </trkpt>
      <trkpt lat="46.38720229268074" lon="12.233515754342079">
        <ele>1852.5999999999999</ele>
        <time>2015-07-17T11:53:32Z</time>
      </trkpt>
      <trkpt lat="46.387131549417973" lon="12.233468648046255">
        <ele>1854.52</ele>
        <time>2015-07-17T11:53:47Z</time>
      </trkpt>
      <trkpt lat="46.387076983228326" lon="12.233498403802514">
        <ele>1856.9200000000001</ele>
        <time>2015-07-17T11:53:58Z</time>
      </trkpt>
      <trkpt lat="46.387045215815306" lon="12.23350502550602">
        <ele>1857.8900000000001</ele>
        <time>2015-07-17T11:54:03Z</time>
      </trkpt>
      <trkpt lat="46.386988554149866" lon="12.233539978042245">
        <ele>1859.8099999999999</ele>
        <time>2015-07-17T11:54:15Z</time>
      </trkpt>
      <trkpt lat="46.38692669570446" lon="12.233566045761108">
        <ele>1863.1700000000001</ele>
        <time>2015-07-17T11:54:28Z</time>
      </trkpt>
      <trkpt lat="46.386870201677084" lon="12.233622875064611">
        <ele>1863.6500000000001</ele>
        <time>2015-07-17T11:54:39Z</time>
      </trkpt>
      <trkpt lat="46.386808259412646" lon="12.233677860349417">
        <ele>1865.5799999999999</ele>
        <time>2015-07-17T11:54:50Z</time>
      </trkpt>
      <trkpt lat="46.386733157560229" lon="12.233815910294652">
        <ele>1867.5</ele>
        <time>2015-07-17T11:55:04Z</time>
      </trkpt>
      <trkpt lat="46.386646656319499" lon="12.233889251947403">
        <ele>1869.9000000000001</ele>
        <time>2015-07-17T11:55:18Z</time>
      </trkpt>
      <trkpt lat="46.386628048494458" lon="12.233964689075947">
        <ele>1870.8599999999999</ele>
        <time>2015-07-17T11:55:29Z</time>
      </trkpt>
      <trkpt lat="46.386555712670088" lon="12.233996205031872">
        <ele>1871.8199999999999</ele>
        <time>2015-07-17T11:55:39Z</time>
      </trkpt>
      <trkpt lat="46.386490920558572" lon="12.234103074297309">
        <ele>1873.27</ele>
        <time>2015-07-17T11:55:51Z</time>
      </trkpt>
      <trkpt lat="46.386474827304482" lon="12.234189659357071">
        <ele>1874.71</ele>
        <time>2015-07-17T11:56:04Z</time>
      </trkpt>
      <trkpt lat="46.38644440099597" lon="12.234223438426852">
        <ele>1877.5899999999999</ele>
        <time>2015-07-17T11:56:13Z</time>
      </trkpt>
      <trkpt lat="46.386436857283115" lon="12.234228383749723">
        <ele>1877.5899999999999</ele>
        <time>2015-07-17T11:56:14Z</time>
      </trkpt>
      <trkpt lat="46.386404000222683" lon="12.23432200960815">
        <ele>1879.51</ele>
        <time>2015-07-17T11:56:26Z</time>
      </trkpt>
      <trkpt lat="46.386369802057743" lon="12.234416054561734">
        <ele>1881.9200000000001</ele>
        <time>2015-07-17T11:56:39Z</time>
      </trkpt>
      <trkpt lat="46.386324372142553" lon="12.234501130878925">
        <ele>1883.8399999999999</ele>
        <time>2015-07-17T11:56:53Z</time>
      </trkpt>
      <trkpt lat="46.386289335787296" lon="12.234572796151042">
        <ele>1885.28</ele>
        <time>2015-07-17T11:57:03Z</time>
      </trkpt>
      <trkpt lat="46.386263435706496" lon="12.234652675688267">
        <ele>1887.21</ele>
        <time>2015-07-17T11:57:13Z</time>
      </trkpt>
      <trkpt lat="46.386232674121857" lon="12.234703889116645">
        <ele>1889.1300000000001</ele>
        <time>2015-07-17T11:57:24Z</time>
      </trkpt>
      <trkpt lat="46.386181795969605" lon="12.234797347337008">
        <ele>1891.05</ele>
        <time>2015-07-17T11:57:38Z</time>
      </trkpt>
      <trkpt lat="46.38615807518363" lon="12.234907066449523">
        <ele>1892.97</ele>
        <time>2015-07-17T11:57:51Z</time>
      </trkpt>
      <trkpt lat="46.386136198416352" lon="12.234983090311289">
        <ele>1894.4200000000001</ele>
        <time>2015-07-17T11:58:01Z</time>
      </trkpt>
      <trkpt lat="46.386156314983964" lon="12.235098090022802">
        <ele>1895.8599999999999</ele>
        <time>2015-07-17T11:58:14Z</time>
      </trkpt>
      <trkpt lat="46.386249018833041" lon="12.235114686191082">
        <ele>1899.22</ele>
        <time>2015-07-17T11:58:30Z</time>
      </trkpt>
      <trkpt lat="46.386371478438377" lon="12.235149638727307">
        <ele>1900.1800000000001</ele>
        <time>2015-07-17T11:58:42Z</time>
      </trkpt>
      <trkpt lat="46.38641950674355" lon="12.235242510214448">
        <ele>1902.1099999999999</ele>
        <time>2015-07-17T11:58:54Z</time>
      </trkpt>
      <trkpt lat="46.386436941102147" lon="12.235321551561356">
        <ele>1903.0699999999999</ele>
        <time>2015-07-17T11:59:04Z</time>
      </trkpt>
      <trkpt lat="46.386501984670758" lon="12.235452476888895">
        <ele>1904.51</ele>
        <time>2015-07-17T11:59:17Z</time>
      </trkpt>
      <trkpt lat="46.386521095409989" lon="12.23555775359273">
        <ele>1905.95</ele>
        <time>2015-07-17T11:59:28Z</time>
      </trkpt>
      <trkpt lat="46.386550096794963" lon="12.235685242339969">
        <ele>1907.3900000000001</ele>
        <time>2015-07-17T11:59:40Z</time>
      </trkpt>
      <trkpt lat="46.386575745418668" lon="12.23582161590457">
        <ele>1908.8299999999999</ele>
        <time>2015-07-17T11:59:52Z</time>
      </trkpt>
      <trkpt lat="46.386604327708483" lon="12.235952708870173">
        <ele>1909.8</ele>
        <time>2015-07-17T12:00:03Z</time>
      </trkpt>
      <trkpt lat="46.386570883914828" lon="12.236112300306559">
        <ele>1910.76</ele>
        <time>2015-07-17T12:00:16Z</time>
      </trkpt>
      <trkpt lat="46.386595191434026" lon="12.236270383000374">
        <ele>1912.2</ele>
        <time>2015-07-17T12:00:29Z</time>
      </trkpt>
      <trkpt lat="46.386607680469751" lon="12.236378928646445">
        <ele>1913.6400000000001</ele>
        <time>2015-07-17T12:00:38Z</time>
      </trkpt>
      <trkpt lat="46.386597286909819" lon="12.23647934384644">
        <ele>1914.5999999999999</ele>
        <time>2015-07-17T12:00:47Z</time>
      </trkpt>
      <trkpt lat="46.386578427627683" lon="12.236609179526567">
        <ele>1916.04</ele>
        <time>2015-07-17T12:00:58Z</time>
      </trkpt>
      <trkpt lat="46.386572895571589" lon="12.236646311357617">
        <ele>1916.53</ele>
        <time>2015-07-17T12:01:02Z</time>
      </trkpt>
      <trkpt lat="46.386572476476431" lon="12.236781846731901">
        <ele>1917.01</ele>
        <time>2015-07-17T12:01:12Z</time>
      </trkpt>
      <trkpt lat="46.386536434292793" lon="12.236912604421377">
        <ele>1917.49</ele>
        <time>2015-07-17T12:01:23Z</time>
      </trkpt>
      <trkpt lat="46.386545822024345" lon="12.237022239714861">
        <ele>1919.4100000000001</ele>
        <time>2015-07-17T12:01:32Z</time>
      </trkpt>
      <trkpt lat="46.386551270261407" lon="12.23713262937963">
        <ele>1920.3699999999999</ele>
        <time>2015-07-17T12:01:41Z</time>
      </trkpt>
      <trkpt lat="46.386564932763577" lon="12.237249556928873">
        <ele>1922.29</ele>
        <time>2015-07-17T12:01:54Z</time>
      </trkpt>
      <trkpt lat="46.386592173948884" lon="12.237372687086463">
        <ele>1924.22</ele>
        <time>2015-07-17T12:02:06Z</time>
      </trkpt>
      <trkpt lat="46.38665403239429" lon="12.237479388713837">
        <ele>1926.1400000000001</ele>
        <time>2015-07-17T12:02:19Z</time>
      </trkpt>
      <trkpt lat="46.386659983545542" lon="12.237613247707486">
        <ele>1927.0999999999999</ele>
        <time>2015-07-17T12:02:29Z</time>
      </trkpt>
      <trkpt lat="46.386666521430016" lon="12.237715255469084">
        <ele>1928.54</ele>
        <time>2015-07-17T12:02:40Z</time>
      </trkpt>
      <trkpt lat="46.386680519208312" lon="12.237819274887443">
        <ele>1929.98</ele>
        <time>2015-07-17T12:02:51Z</time>
      </trkpt>
      <trkpt lat="46.386710274964571" lon="12.23794667981565">
        <ele>1930.95</ele>
        <time>2015-07-17T12:03:01Z</time>
      </trkpt>
      <trkpt lat="46.38672293163836" lon="12.238079952076077">
        <ele>1931.4300000000001</ele>
        <time>2015-07-17T12:03:12Z</time>
      </trkpt>
      <trkpt lat="46.386693678796291" lon="12.238210793584585">
        <ele>1932.3900000000001</ele>
        <time>2015-07-17T12:03:23Z</time>
      </trkpt>
      <trkpt lat="46.386666856706142" lon="12.238344987854362">
        <ele>1932.8699999999999</ele>
        <time>2015-07-17T12:03:32Z</time>
      </trkpt>
      <trkpt lat="46.386685213074088" lon="12.238420676440001">
        <ele>1933.3499999999999</ele>
        <time>2015-07-17T12:03:43Z</time>
      </trkpt>
      <trkpt lat="46.386703485623002" lon="12.238444481045008">
        <ele>1933.8299999999999</ele>
        <time>2015-07-17T12:03:54Z</time>
      </trkpt>
      <trkpt lat="46.386709520593286" lon="12.238454790785909">
        <ele>1933.8299999999999</ele>
        <time>2015-07-17T12:03:59Z</time>
      </trkpt>
      <trkpt lat="46.386731900274754" lon="12.23858923651278">
        <ele>1935.75</ele>
        <time>2015-07-17T12:04:11Z</time>
      </trkpt>
      <trkpt lat="46.386763416230679" lon="12.238658890128136">
        <ele>1936.23</ele>
        <time>2015-07-17T12:04:17Z</time>
      </trkpt>
      <trkpt lat="46.386790405958891" lon="12.238714965060353">
        <ele>1936.23</ele>
        <time>2015-07-17T12:04:20Z</time>
      </trkpt>
      <trkpt lat="46.38683726079762" lon="12.238857289776206">
        <ele>1937.6700000000001</ele>
        <time>2015-07-17T12:04:31Z</time>
      </trkpt>
      <trkpt lat="46.386895850300789" lon="12.238948903977871">
        <ele>1938.6400000000001</ele>
        <time>2015-07-17T12:04:40Z</time>
      </trkpt>
      <trkpt lat="46.386956451460719" lon="12.239055605605245">
        <ele>1939.5999999999999</ele>
        <time>2015-07-17T12:04:51Z</time>
      </trkpt>
      <trkpt lat="46.386995762586594" lon="12.23914185538888">
        <ele>1941.52</ele>
        <time>2015-07-17T12:05:01Z</time>
      </trkpt>
      <trkpt lat="46.386999366804957" lon="12.239143028855324">
        <ele>1942</ele>
        <time>2015-07-17T12:05:02Z</time>
      </trkpt>
      <trkpt lat="46.387154348194599" lon="12.239273618906736">
        <ele>1942.96</ele>
        <time>2015-07-17T12:05:14Z</time>
      </trkpt>
      <trkpt lat="46.387226767838001" lon="12.239319803193212">
        <ele>1944.4000000000001</ele>
        <time>2015-07-17T12:05:24Z</time>
      </trkpt>
      <trkpt lat="46.3872941583395" lon="12.239350397139788">
        <ele>1946.3299999999999</ele>
        <time>2015-07-17T12:05:33Z</time>
      </trkpt>
      <trkpt lat="46.387325841933489" lon="12.239468833431602">
        <ele>1947.29</ele>
        <time>2015-07-17T12:05:44Z</time>
      </trkpt>
      <trkpt lat="46.387327266857028" lon="12.239491464570165">
        <ele>1947.29</ele>
        <time>2015-07-17T12:05:46Z</time>
      </trkpt>
      <trkpt lat="46.387365823611617" lon="12.239634543657303">
        <ele>1947.29</ele>
        <time>2015-07-17T12:05:58Z</time>
      </trkpt>
      <trkpt lat="46.387404715642333" lon="12.239740993827581">
        <ele>1949.21</ele>
        <time>2015-07-17T12:06:09Z</time>
      </trkpt>
      <trkpt lat="46.387449810281396" lon="12.239826992154121">
        <ele>1950.1700000000001</ele>
        <time>2015-07-17T12:06:19Z</time>
      </trkpt>
      <trkpt lat="46.387469591572881" lon="12.23986404016614">
        <ele>1951.6099999999999</ele>
        <time>2015-07-17T12:06:24Z</time>
      </trkpt>
      <trkpt lat="46.387540251016617" lon="12.239949200302362">
        <ele>1953.0599999999999</ele>
        <time>2015-07-17T12:06:35Z</time>
      </trkpt>
      <trkpt lat="46.387610156089067" lon="12.240048442035913">
        <ele>1954.5</ele>
        <time>2015-07-17T12:06:46Z</time>
      </trkpt>
      <trkpt lat="46.387681318446994" lon="12.240153970196843">
        <ele>1956.9000000000001</ele>
        <time>2015-07-17T12:07:01Z</time>
      </trkpt>
      <trkpt lat="46.387750804424286" lon="12.240221360698342">
        <ele>1958.3399999999999</ele>
        <time>2015-07-17T12:07:12Z</time>
      </trkpt>
      <trkpt lat="46.387826995924115" lon="12.240333007648587">
        <ele>1961.23</ele>
        <time>2015-07-17T12:07:27Z</time>
      </trkpt>
      <trkpt lat="46.387882819399238" lon="12.240403080359101">
        <ele>1962.6700000000001</ele>
        <time>2015-07-17T12:07:38Z</time>
      </trkpt>
      <trkpt lat="46.387894889339805" lon="12.240432500839233">
        <ele>1963.6300000000001</ele>
        <time>2015-07-17T12:07:45Z</time>
      </trkpt>
      <trkpt lat="46.387930680066347" lon="12.240472566336393">
        <ele>1964.5899999999999</ele>
        <time>2015-07-17T12:07:50Z</time>
      </trkpt>
      <trkpt lat="46.388016846030951" lon="12.24055009894073">
        <ele>1966.51</ele>
        <time>2015-07-17T12:08:02Z</time>
      </trkpt>
      <trkpt lat="46.388074597343802" lon="12.240623356774449">
        <ele>1967.96</ele>
        <time>2015-07-17T12:08:12Z</time>
      </trkpt>
      <trkpt lat="46.388110723346472" lon="12.240778338164091">
        <ele>1970.3599999999999</ele>
        <time>2015-07-17T12:08:26Z</time>
      </trkpt>
      <trkpt lat="46.388125726953149" lon="12.240886045619845">
        <ele>1971.8</ele>
        <time>2015-07-17T12:08:37Z</time>
      </trkpt>
      <trkpt lat="46.388190602883697" lon="12.241025771945715">
        <ele>1973.24</ele>
        <time>2015-07-17T12:08:48Z</time>
      </trkpt>
      <trkpt lat="46.388166211545467" lon="12.241125013679266">
        <ele>1973.72</ele>
        <time>2015-07-17T12:08:59Z</time>
      </trkpt>
      <trkpt lat="46.388150537386537" lon="12.241143118590117">
        <ele>1974.2</ele>
        <time>2015-07-17T12:09:09Z</time>
      </trkpt>
      <trkpt lat="46.38815313577652" lon="12.241130042821169">
        <ele>1974.2</ele>
        <time>2015-07-17T12:09:18Z</time>
      </trkpt>
      <trkpt lat="46.388121619820595" lon="12.241161726415157">
        <ele>1974.2</ele>
        <time>2015-07-17T12:09:30Z</time>
      </trkpt>
      <trkpt lat="46.388115920126438" lon="12.241171281784773">
        <ele>1974.2</ele>
        <time>2015-07-17T12:09:31Z</time>
      </trkpt>
      <trkpt lat="46.387991029769182" lon="12.241302123293281">
        <ele>1974.2</ele>
        <time>2015-07-17T12:09:45Z</time>
      </trkpt>
      <trkpt lat="46.387913329526782" lon="12.241417374461889">
        <ele>1974.2</ele>
        <time>2015-07-17T12:09:56Z</time>
      </trkpt>
      <trkpt lat="46.387858763337135" lon="12.241544192656875">
        <ele>1974.6900000000001</ele>
        <time>2015-07-17T12:10:05Z</time>
      </trkpt>
      <trkpt lat="46.387801263481379" lon="12.241634633392096">
        <ele>1975.1700000000001</ele>
        <time>2015-07-17T12:10:14Z</time>
      </trkpt>
      <trkpt lat="46.387719204649329" lon="12.241719709709287">
        <ele>1974.6900000000001</ele>
        <time>2015-07-17T12:10:22Z</time>
      </trkpt>
      <trkpt lat="46.387626165524125" lon="12.241808893159032">
        <ele>1974.6900000000001</ele>
        <time>2015-07-17T12:10:32Z</time>
      </trkpt>
      <trkpt lat="46.387516614049673" lon="12.241857927292585">
        <ele>1975.6500000000001</ele>
        <time>2015-07-17T12:10:43Z</time>
      </trkpt>
      <trkpt lat="46.38750278390944" lon="12.241900507360697">
        <ele>1975.1700000000001</ele>
        <time>2015-07-17T12:10:47Z</time>
      </trkpt>
      <trkpt lat="46.387401195243001" lon="12.241960521787405">
        <ele>1975.1700000000001</ele>
        <time>2015-07-17T12:10:58Z</time>
      </trkpt>
      <trkpt lat="46.387313939630985" lon="12.242006454616785">
        <ele>1975.6500000000001</ele>
        <time>2015-07-17T12:11:08Z</time>
      </trkpt>
      <trkpt lat="46.387170441448689" lon="12.242087256163359">
        <ele>1976.1300000000001</ele>
        <time>2015-07-17T12:11:22Z</time>
      </trkpt>
      <trkpt lat="46.387027613818645" lon="12.24219823256135">
        <ele>1976.6099999999999</ele>
        <time>2015-07-17T12:11:36Z</time>
      </trkpt>
      <trkpt lat="46.38700732961297" lon="12.242256905883551">
        <ele>1976.1300000000001</ele>
        <time>2015-07-17T12:11:40Z</time>
      </trkpt>
      <trkpt lat="46.386935664340854" lon="12.242304095998406">
        <ele>1977.0899999999999</ele>
        <time>2015-07-17T12:11:48Z</time>
      </trkpt>
      <trkpt lat="46.386825274676085" lon="12.242377353832126">
        <ele>1977.5699999999999</ele>
        <time>2015-07-17T12:12:00Z</time>
      </trkpt>
      <trkpt lat="46.386714382097125" lon="12.242439715191722">
        <ele>1977.0899999999999</ele>
        <time>2015-07-17T12:12:11Z</time>
      </trkpt>
      <trkpt lat="46.386618074029684" lon="12.242542980238795">
        <ele>1977.0899999999999</ele>
        <time>2015-07-17T12:12:23Z</time>
      </trkpt>
      <trkpt lat="46.386523609980941" lon="12.242617914453149">
        <ele>1978.53</ele>
        <time>2015-07-17T12:12:34Z</time>
      </trkpt>
      <trkpt lat="46.386454040184617" lon="12.242714473977685">
        <ele>1979.01</ele>
        <time>2015-07-17T12:12:43Z</time>
      </trkpt>
      <trkpt lat="46.386373741552234" lon="12.242815308272839">
        <ele>1979.49</ele>
        <time>2015-07-17T12:12:53Z</time>
      </trkpt>
      <trkpt lat="46.386317079886794" lon="12.242922345176339">
        <ele>1979.97</ele>
        <time>2015-07-17T12:13:03Z</time>
      </trkpt>
      <trkpt lat="46.386312553659081" lon="12.242949837818742">
        <ele>1980.45</ele>
        <time>2015-07-17T12:13:05Z</time>
      </trkpt>
      <trkpt lat="46.38629637658596" lon="12.243018988519907">
        <ele>1980.45</ele>
        <time>2015-07-17T12:13:10Z</time>
      </trkpt>
      <trkpt lat="46.386241391301155" lon="12.243157625198364">
        <ele>1980.9300000000001</ele>
        <time>2015-07-17T12:13:21Z</time>
      </trkpt>
      <trkpt lat="46.386183220893145" lon="12.243334902450442">
        <ele>1981.4100000000001</ele>
        <time>2015-07-17T12:13:33Z</time>
      </trkpt>
      <trkpt lat="46.386129995808005" lon="12.243470689281821">
        <ele>1982.3800000000001</ele>
        <time>2015-07-17T12:13:43Z</time>
      </trkpt>
      <trkpt lat="46.386080207303166" lon="12.243625670671463">
        <ele>1982.8599999999999</ele>
        <time>2015-07-17T12:13:55Z</time>
      </trkpt>
      <trkpt lat="46.386039303615689" lon="12.243778556585312">
        <ele>1983.3399999999999</ele>
        <time>2015-07-17T12:14:06Z</time>
      </trkpt>
      <trkpt lat="46.386033520102501" lon="12.243791380897164">
        <ele>1983.3399999999999</ele>
        <time>2015-07-17T12:14:07Z</time>
      </trkpt>
      <trkpt lat="46.385993203148246" lon="12.243965221568942">
        <ele>1983.8199999999999</ele>
        <time>2015-07-17T12:14:19Z</time>
      </trkpt>
      <trkpt lat="46.385986832901835" lon="12.244143169373274">
        <ele>1984.3</ele>
        <time>2015-07-17T12:14:30Z</time>
      </trkpt>
      <trkpt lat="46.385980797931552" lon="12.244304353371263">
        <ele>1984.78</ele>
        <time>2015-07-17T12:14:41Z</time>
      </trkpt>
      <trkpt lat="46.385910473763943" lon="12.244490766897798">
        <ele>1985.26</ele>
        <time>2015-07-17T12:14:54Z</time>
      </trkpt>
      <trkpt lat="46.38585121370852" lon="12.244664272293448">
        <ele>1985.74</ele>
        <time>2015-07-17T12:15:06Z</time>
      </trkpt>
      <trkpt lat="46.385783404111862" lon="12.244817074388266">
        <ele>1986.22</ele>
        <time>2015-07-17T12:15:18Z</time>
      </trkpt>
      <trkpt lat="46.385714337229729" lon="12.244942300021648">
        <ele>1986.7</ele>
        <time>2015-07-17T12:15:28Z</time>
      </trkpt>
      <trkpt lat="46.38565675355494" lon="12.245099795982242">
        <ele>1987.1800000000001</ele>
        <time>2015-07-17T12:15:39Z</time>
      </trkpt>
      <trkpt lat="46.385594392195344" lon="12.245253855362535">
        <ele>1987.6600000000001</ele>
        <time>2015-07-17T12:15:49Z</time>
      </trkpt>
      <trkpt lat="46.385511076077819" lon="12.245418727397919">
        <ele>1989.5899999999999</ele>
        <time>2015-07-17T12:16:02Z</time>
      </trkpt>
      <trkpt lat="46.385456509888172" lon="12.245548982173204">
        <ele>1990.55</ele>
        <time>2015-07-17T12:16:13Z</time>
      </trkpt>
      <trkpt lat="46.385449469089508" lon="12.24557320587337">
        <ele>1991.03</ele>
        <time>2015-07-17T12:16:20Z</time>
      </trkpt>
      <trkpt lat="46.385463885962963" lon="12.2455785702914">
        <ele>1990.0699999999999</ele>
        <time>2015-07-17T12:16:31Z</time>
      </trkpt>
      <trkpt lat="46.385453324764967" lon="12.245584353804588">
        <ele>1991.03</ele>
        <time>2015-07-17T12:16:48Z</time>
      </trkpt>
      <trkpt lat="46.385467741638422" lon="12.245583431795239">
        <ele>1990.55</ele>
        <time>2015-07-17T12:16:57Z</time>
      </trkpt>
      <trkpt lat="46.385452151298523" lon="12.245562896132469">
        <ele>1990.55</ele>
        <time>2015-07-17T12:17:09Z</time>
      </trkpt>
      <trkpt lat="46.385442679747939" lon="12.245570523664355">
        <ele>1990.55</ele>
        <time>2015-07-17T12:17:22Z</time>
      </trkpt>
      <trkpt lat="46.38545835390687" lon="12.245555939152837">
        <ele>1990.55</ele>
        <time>2015-07-17T12:17:37Z</time>
      </trkpt>
      <trkpt lat="46.385514009743929" lon="12.245567925274372">
        <ele>1990.55</ele>
        <time>2015-07-17T12:17:57Z</time>
      </trkpt>
      <trkpt lat="46.385520379990339" lon="12.245586700737476">
        <ele>1990.55</ele>
        <time>2015-07-17T12:18:29Z</time>
      </trkpt>
      <trkpt lat="46.385494144633412" lon="12.245580162853003">
        <ele>1991.03</ele>
        <time>2015-07-17T12:18:57Z</time>
      </trkpt>
      <trkpt lat="46.38553605414927" lon="12.24557320587337">
        <ele>1991.03</ele>
        <time>2015-07-17T12:19:27Z</time>
      </trkpt>
      <trkpt lat="46.385511662811041" lon="12.245606565847993">
        <ele>1991.51</ele>
        <time>2015-07-17T12:19:46Z</time>
      </trkpt>
      <trkpt lat="46.385471262037754" lon="12.245561303570867">
        <ele>1991.51</ele>
        <time>2015-07-17T12:20:21Z</time>
      </trkpt>
      <trkpt lat="46.385488780215383" lon="12.245580079033971">
        <ele>1991.99</ele>
        <time>2015-07-17T12:20:53Z</time>
      </trkpt>
      <trkpt lat="46.385493054986" lon="12.245584689080715">
        <ele>1992.47</ele>
        <time>2015-07-17T12:21:19Z</time>
      </trkpt>
      <trkpt lat="46.385507974773645" lon="12.245589466765523">
        <ele>1991.99</ele>
        <time>2015-07-17T12:21:41Z</time>
      </trkpt>
      <trkpt lat="46.38550085015595" lon="12.24560396745801">
        <ele>1991.99</ele>
        <time>2015-07-17T12:21:55Z</time>
      </trkpt>
      <trkpt lat="46.385506130754948" lon="12.245616372674704">
        <ele>1992.47</ele>
        <time>2015-07-17T12:22:18Z</time>
      </trkpt>
      <trkpt lat="46.385489786043763" lon="12.245602291077375">
        <ele>1993.9100000000001</ele>
        <time>2015-07-17T12:22:36Z</time>
      </trkpt>
      <trkpt lat="46.385460281744599" lon="12.245641937479377">
        <ele>1994.3900000000001</ele>
        <time>2015-07-17T12:22:45Z</time>
      </trkpt>
      <trkpt lat="46.385447289794683" lon="12.245678650215268">
        <ele>1994.8699999999999</ele>
        <time>2015-07-17T12:22:57Z</time>
      </trkpt>
      <trkpt lat="46.385419880971313" lon="12.245728773996234">
        <ele>1995.8299999999999</ele>
        <time>2015-07-17T12:23:09Z</time>
      </trkpt>
      <trkpt lat="46.385350897908211" lon="12.245823657140136">
        <ele>1997.28</ele>
        <time>2015-07-17T12:23:23Z</time>
      </trkpt>
      <trkpt lat="46.385289374738932" lon="12.24589029327035">
        <ele>1998.72</ele>
        <time>2015-07-17T12:23:34Z</time>
      </trkpt>
      <trkpt lat="46.385236568748951" lon="12.245964724570513">
        <ele>2000.6400000000001</ele>
        <time>2015-07-17T12:23:45Z</time>
      </trkpt>
      <trkpt lat="46.385192396119237" lon="12.246054159477353">
        <ele>2001.5999999999999</ele>
        <time>2015-07-17T12:23:54Z</time>
      </trkpt>
      <trkpt lat="46.385150570422411" lon="12.246149713173509">
        <ele>2003.52</ele>
        <time>2015-07-17T12:24:06Z</time>
      </trkpt>
      <trkpt lat="46.385124837979674" lon="12.24630075506866">
        <ele>2005.45</ele>
        <time>2015-07-17T12:24:20Z</time>
      </trkpt>
      <trkpt lat="46.385123413056135" lon="12.24639605730772">
        <ele>2006.8900000000001</ele>
        <time>2015-07-17T12:24:29Z</time>
      </trkpt>
      <trkpt lat="46.385112600401044" lon="12.246522791683674">
        <ele>2007.8499999999999</ele>
        <time>2015-07-17T12:24:40Z</time>
      </trkpt>
      <trkpt lat="46.385117126628757" lon="12.246624631807208">
        <ele>2008.8099999999999</ele>
        <time>2015-07-17T12:24:51Z</time>
      </trkpt>
      <trkpt lat="46.385102374479175" lon="12.246756479144096">
        <ele>2010.25</ele>
        <time>2015-07-17T12:25:02Z</time>
      </trkpt>
      <trkpt lat="46.385072283446789" lon="12.246866952627897">
        <ele>2011.7</ele>
        <time>2015-07-17T12:25:13Z</time>
      </trkpt>
      <trkpt lat="46.385053088888526" lon="12.246936606243253">
        <ele>2013.1400000000001</ele>
        <time>2015-07-17T12:25:24Z</time>
      </trkpt>
      <trkpt lat="46.385035989806056" lon="12.247046241536736">
        <ele>2014.5799999999999</ele>
        <time>2015-07-17T12:25:35Z</time>
      </trkpt>
      <trkpt lat="46.385014867410064" lon="12.247173395007849">
        <ele>2015.54</ele>
        <time>2015-07-17T12:25:46Z</time>
      </trkpt>
      <trkpt lat="46.384970946237445" lon="12.247265260666609">
        <ele>2018.4300000000001</ele>
        <time>2015-07-17T12:26:00Z</time>
      </trkpt>
      <trkpt lat="46.384942447766662" lon="12.247343463823199">
        <ele>2020.3499999999999</ele>
        <time>2015-07-17T12:26:12Z</time>
      </trkpt>
      <trkpt lat="46.384913446381688" lon="12.24730976857245">
        <ele>2021.3099999999999</ele>
        <time>2015-07-17T12:26:19Z</time>
      </trkpt>
      <trkpt lat="46.384900454431772" lon="12.247177753597498">
        <ele>2022.75</ele>
        <time>2015-07-17T12:26:30Z</time>
      </trkpt>
      <trkpt lat="46.384893245995045" lon="12.247099718078971">
        <ele>2023.71</ele>
        <time>2015-07-17T12:26:38Z</time>
      </trkpt>
      <trkpt lat="46.384882098063827" lon="12.246969547122717">
        <ele>2025.1500000000001</ele>
        <time>2015-07-17T12:26:50Z</time>
      </trkpt>
      <trkpt lat="46.384876649826765" lon="12.246925793588161">
        <ele>2026.1199999999999</ele>
        <time>2015-07-17T12:27:02Z</time>
      </trkpt>
      <trkpt lat="46.384864412248135" lon="12.246849350631237">
        <ele>2027.0799999999999</ele>
        <time>2015-07-17T12:27:10Z</time>
      </trkpt>
      <trkpt lat="46.384831890463829" lon="12.246722113341093">
        <ele>2028.52</ele>
        <time>2015-07-17T12:27:22Z</time>
      </trkpt>
      <trkpt lat="46.384789645671844" lon="12.246619937941432">
        <ele>2029.96</ele>
        <time>2015-07-17T12:27:33Z</time>
      </trkpt>
      <trkpt lat="46.384721333160996" lon="12.246484570205212">
        <ele>2031.8800000000001</ele>
        <time>2015-07-17T12:27:47Z</time>
      </trkpt>
      <trkpt lat="46.384683446958661" lon="12.246356913819909">
        <ele>2033.8099999999999</ele>
        <time>2015-07-17T12:27:59Z</time>
      </trkpt>
      <trkpt lat="46.384646818041801" lon="12.246228838339448">
        <ele>2036.21</ele>
        <time>2015-07-17T12:28:11Z</time>
      </trkpt>
      <trkpt lat="46.38461203314364" lon="12.246098583564162">
        <ele>2038.6099999999999</ele>
        <time>2015-07-17T12:28:24Z</time>
      </trkpt>
      <trkpt lat="46.384591748937964" lon="12.245976123958826">
        <ele>2040.54</ele>
        <time>2015-07-17T12:28:34Z</time>
      </trkpt>
      <trkpt lat="46.384575320407748" lon="12.24585416726768">
        <ele>2043.4200000000001</ele>
        <time>2015-07-17T12:28:44Z</time>
      </trkpt>
      <trkpt lat="46.384550258517265" lon="12.245738748461008">
        <ele>2043.9000000000001</ele>
        <time>2015-07-17T12:28:55Z</time>
      </trkpt>
      <trkpt lat="46.384509606286883" lon="12.245637327432632">
        <ele>2045.8199999999999</ele>
        <time>2015-07-17T12:29:05Z</time>
      </trkpt>
      <trkpt lat="46.384469959884882" lon="12.245542444288731">
        <ele>2047.26</ele>
        <time>2015-07-17T12:29:15Z</time>
      </trkpt>
      <trkpt lat="46.384430062025785" lon="12.245506066828966">
        <ele>2048.71</ele>
        <time>2015-07-17T12:29:26Z</time>
      </trkpt>
      <trkpt lat="46.384441126137972" lon="12.245502965524793">
        <ele>2048.71</ele>
        <time>2015-07-17T12:29:44Z</time>
      </trkpt>
      <trkpt lat="46.384372310712934" lon="12.245463822036982">
        <ele>2048.23</ele>
        <time>2015-07-17T12:29:56Z</time>
      </trkpt>
      <trkpt lat="46.384370215237141" lon="12.245454769581556">
        <ele>2048.71</ele>
        <time>2015-07-17T12:29:57Z</time>
      </trkpt>
      <trkpt lat="46.38439561240375" lon="12.245316551998258">
        <ele>2046.78</ele>
        <time>2015-07-17T12:30:09Z</time>
      </trkpt>
      <trkpt lat="46.384398881345987" lon="12.245346559211612">
        <ele>2047.75</ele>
        <time>2015-07-17T12:30:26Z</time>
      </trkpt>
      <trkpt lat="46.38440047390759" lon="12.24540707655251">
        <ele>2048.71</ele>
        <time>2015-07-17T12:30:42Z</time>
      </trkpt>
      <trkpt lat="46.384422015398741" lon="12.245474299415946">
        <ele>2049.1900000000001</ele>
        <time>2015-07-17T12:30:54Z</time>
      </trkpt>
      <trkpt lat="46.384418914094567" lon="12.245485531166196">
        <ele>2049.1900000000001</ele>
        <time>2015-07-17T12:31:09Z</time>
      </trkpt>
      <trkpt lat="46.384424362331629" lon="12.245493493974209">
        <ele>2049.1900000000001</ele>
        <time>2015-07-17T12:31:23Z</time>
      </trkpt>
      <trkpt lat="46.384432157501578" lon="12.245486620813608">
        <ele>2049.1900000000001</ele>
        <time>2015-07-17T12:31:38Z</time>
      </trkpt>
      <trkpt lat="46.384406089782715" lon="12.245493913069367">
        <ele>2049.1900000000001</ele>
        <time>2015-07-17T12:31:51Z</time>
      </trkpt>
      <trkpt lat="46.384399887174368" lon="12.245484860613942">
        <ele>2049.1900000000001</ele>
        <time>2015-07-17T12:32:10Z</time>
      </trkpt>
      <trkpt lat="46.384396785870194" lon="12.245497852563858">
        <ele>2049.1900000000001</ele>
        <time>2015-07-17T12:32:23Z</time>
      </trkpt>
      <trkpt lat="46.384404245764017" lon="12.245458625257015">
        <ele>2050.1500000000001</ele>
        <time>2015-07-17T12:32:36Z</time>
      </trkpt>
      <trkpt lat="46.384393768385053" lon="12.245452171191573">
        <ele>2048.71</ele>
        <time>2015-07-17T12:32:44Z</time>
      </trkpt>
      <trkpt lat="46.384378261864185" lon="12.245462648570538">
        <ele>2048.71</ele>
        <time>2015-07-17T12:33:00Z</time>
      </trkpt>
      <trkpt lat="46.384397875517607" lon="12.245467929169536">
        <ele>2048.71</ele>
        <time>2015-07-17T12:33:13Z</time>
      </trkpt>
      <trkpt lat="46.384403239935637" lon="12.245456194505095">
        <ele>2049.1900000000001</ele>
        <time>2015-07-17T12:33:36Z</time>
      </trkpt>
      <trkpt lat="46.384396785870194" lon="12.245445465669036">
        <ele>2049.1900000000001</ele>
        <time>2015-07-17T12:34:09Z</time>
      </trkpt>
      <trkpt lat="46.384401312097907" lon="12.245455272495747">
        <ele>2049.1900000000001</ele>
        <time>2015-07-17T12:34:35Z</time>
      </trkpt>
      <trkpt lat="46.384401898831129" lon="12.245444627478719">
        <ele>2049.6700000000001</ele>
        <time>2015-07-17T12:35:08Z</time>
      </trkpt>
      <trkpt lat="46.384401228278875" lon="12.245459211990237">
        <ele>2050.1500000000001</ele>
        <time>2015-07-17T12:35:37Z</time>
      </trkpt>
      <trkpt lat="46.384409191086888" lon="12.245457367971539">
        <ele>2050.6300000000001</ele>
        <time>2015-07-17T12:36:07Z</time>
      </trkpt>
      <trkpt lat="46.384410364553332" lon="12.245454518124461">
        <ele>2051.1100000000001</ele>
        <time>2015-07-17T12:36:31Z</time>
      </trkpt>
      <trkpt lat="46.384415058419108" lon="12.245460385456681">
        <ele>2051.1100000000001</ele>
        <time>2015-07-17T12:37:00Z</time>
      </trkpt>
      <trkpt lat="46.384409358724952" lon="12.245482094585896">
        <ele>2051.1100000000001</ele>
        <time>2015-07-17T12:37:26Z</time>
      </trkpt>
      <trkpt lat="46.384415477514267" lon="12.245468767359853">
        <ele>2051.1100000000001</ele>
        <time>2015-07-17T12:37:55Z</time>
      </trkpt>
      <trkpt lat="46.384410951286554" lon="12.245453344658017">
        <ele>2051.5900000000001</ele>
        <time>2015-07-17T12:38:21Z</time>
      </trkpt>
      <trkpt lat="46.384416986256838" lon="12.245442196726799">
        <ele>2052.0700000000002</ele>
        <time>2015-07-17T12:38:56Z</time>
      </trkpt>
      <trkpt lat="46.38441220857203" lon="12.245452338829637">
        <ele>2052.5500000000002</ele>
        <time>2015-07-17T12:39:23Z</time>
      </trkpt>
      <trkpt lat="46.384408855810761" lon="12.245454518124461">
        <ele>2052.5500000000002</ele>
        <time>2015-07-17T12:39:38Z</time>
      </trkpt>
      <trkpt lat="46.384426793083549" lon="12.24548134021461">
        <ele>2052.5500000000002</ele>
        <time>2015-07-17T12:39:53Z</time>
      </trkpt>
      <trkpt lat="46.384446490556002" lon="12.245510425418615">
        <ele>2053.0300000000002</ele>
        <time>2015-07-17T12:40:02Z</time>
      </trkpt>
      <trkpt lat="46.384443053975701" lon="12.24553314037621">
        <ele>2053.0300000000002</ele>
        <time>2015-07-17T12:40:26Z</time>
      </trkpt>
      <trkpt lat="46.384438946843147" lon="12.245528614148498">
        <ele>2053.0300000000002</ele>
        <time>2015-07-17T12:40:53Z</time>
      </trkpt>
      <trkpt lat="46.384436264634132" lon="12.245519813150167">
        <ele>2053.0300000000002</ele>
        <time>2015-07-17T12:41:23Z</time>
      </trkpt>
      <trkpt lat="46.384430564939976" lon="12.24553213454783">
        <ele>2053.5100000000002</ele>
        <time>2015-07-17T12:41:49Z</time>
      </trkpt>
      <trkpt lat="46.384436683729291" lon="12.245537750422955">
        <ele>2053.5100000000002</ele>
        <time>2015-07-17T12:42:16Z</time>
      </trkpt>
      <trkpt lat="46.384432576596737" lon="12.245523165911436">
        <ele>2053.5100000000002</ele>
        <time>2015-07-17T12:42:39Z</time>
      </trkpt>
      <trkpt lat="46.384431654587388" lon="12.245529955253005">
        <ele>2053.9899999999998</ele>
        <time>2015-07-17T12:43:10Z</time>
      </trkpt>
      <trkpt lat="46.384430229663849" lon="12.245502462610602">
        <ele>2053.5100000000002</ele>
        <time>2015-07-17T12:43:24Z</time>
      </trkpt>
      <trkpt lat="46.384430229663849" lon="12.245488716289401">
        <ele>2054.4699999999998</ele>
        <time>2015-07-17T12:43:31Z</time>
      </trkpt>
      <trkpt lat="46.384428720921278" lon="12.245494332164526">
        <ele>2054.96</ele>
        <time>2015-07-17T12:43:44Z</time>
      </trkpt>
      <trkpt lat="46.384378597140312" lon="12.245515622198582">
        <ele>2054.96</ele>
        <time>2015-07-17T12:43:53Z</time>
      </trkpt>
      <trkpt lat="46.384319085627794" lon="12.245595082640648">
        <ele>2055.4400000000001</ele>
        <time>2015-07-17T12:44:07Z</time>
      </trkpt>
      <trkpt lat="46.384310871362686" lon="12.245605560019612">
        <ele>2055.4400000000001</ele>
        <time>2015-07-17T12:44:08Z</time>
      </trkpt>
      <trkpt lat="46.38420894742012" lon="12.245745286345482">
        <ele>2056.8800000000001</ele>
        <time>2015-07-17T12:44:23Z</time>
      </trkpt>
      <trkpt lat="46.384137030690908" lon="12.245888616889715">
        <ele>2057.8400000000001</ele>
        <time>2015-07-17T12:44:36Z</time>
      </trkpt>
      <trkpt lat="46.384064862504601" lon="12.246029768139124">
        <ele>2059.2800000000002</ele>
        <time>2015-07-17T12:44:48Z</time>
      </trkpt>
      <trkpt lat="46.38402764685452" lon="12.246213667094707">
        <ele>2060.7199999999998</ele>
        <time>2015-07-17T12:45:01Z</time>
      </trkpt>
      <trkpt lat="46.384027395397425" lon="12.246242500841618">
        <ele>2060.7199999999998</ele>
        <time>2015-07-17T12:45:03Z</time>
      </trkpt>
      <trkpt lat="46.384027311578393" lon="12.246328499168158">
        <ele>2061.1999999999998</ele>
        <time>2015-07-17T12:45:09Z</time>
      </trkpt>
      <trkpt lat="46.38405304402113" lon="12.246504854410887">
        <ele>2062.6500000000001</ele>
        <time>2015-07-17T12:45:23Z</time>
      </trkpt>
      <trkpt lat="46.384083637967706" lon="12.246636785566807">
        <ele>2064.5700000000002</ele>
        <time>2015-07-17T12:45:34Z</time>
      </trkpt>
      <trkpt lat="46.384082715958357" lon="12.246713899075985">
        <ele>2065.0500000000002</ele>
        <time>2015-07-17T12:45:43Z</time>
      </trkpt>
      <trkpt lat="46.384065952152014" lon="12.24676301702857">
        <ele>2065.5300000000002</ele>
        <time>2015-07-17T12:45:53Z</time>
      </trkpt>
      <trkpt lat="46.384053630754352" lon="12.246853457763791">
        <ele>2066.0100000000002</ele>
        <time>2015-07-17T12:46:06Z</time>
      </trkpt>
      <trkpt lat="46.384051954373717" lon="12.246864354237914">
        <ele>2066.0100000000002</ele>
        <time>2015-07-17T12:46:07Z</time>
      </trkpt>
      <trkpt lat="46.384024629369378" lon="12.247029142454267">
        <ele>2067.4499999999998</ele>
        <time>2015-07-17T12:46:20Z</time>
      </trkpt>
      <trkpt lat="46.384003926068544" lon="12.247175155207515">
        <ele>2068.4099999999999</ele>
        <time>2015-07-17T12:46:31Z</time>
      </trkpt>
      <trkpt lat="46.383957741782069" lon="12.247344134375453">
        <ele>2069.8600000000001</ele>
        <time>2015-07-17T12:46:43Z</time>
      </trkpt>
      <trkpt lat="46.383901163935661" lon="12.247540773823857">
        <ele>2071.7800000000002</ele>
        <time>2015-07-17T12:46:56Z</time>
      </trkpt>
      <trkpt lat="46.383852884173393" lon="12.24768946878612">
        <ele>2072.2600000000002</ele>
        <time>2015-07-17T12:47:06Z</time>
      </trkpt>
      <trkpt lat="46.383784990757704" lon="12.24792692810297">
        <ele>2074.1799999999998</ele>
        <time>2015-07-17T12:47:22Z</time>
      </trkpt>
      <trkpt lat="46.383725143969059" lon="12.248092973604798">
        <ele>2076.0999999999999</ele>
        <time>2015-07-17T12:47:34Z</time>
      </trkpt>
      <trkpt lat="46.383743081241846" lon="12.248208560049534">
        <ele>2076.5900000000001</ele>
        <time>2015-07-17T12:47:43Z</time>
      </trkpt>
      <trkpt lat="46.383773507550359" lon="12.248335210606456">
        <ele>2077.5500000000002</ele>
        <time>2015-07-17T12:47:51Z</time>
      </trkpt>
      <trkpt lat="46.383771076798439" lon="12.248529754579067">
        <ele>2079.4699999999998</ele>
        <time>2015-07-17T12:48:03Z</time>
      </trkpt>
      <trkpt lat="46.383790355175734" lon="12.248632349073887">
        <ele>2080.4299999999998</ele>
        <time>2015-07-17T12:48:13Z</time>
      </trkpt>
      <trkpt lat="46.383793456479907" lon="12.248660931363702">
        <ele>2080.4299999999998</ele>
        <time>2015-07-17T12:48:15Z</time>
      </trkpt>
      <trkpt lat="46.383748948574066" lon="12.248819684609771">
        <ele>2081.3899999999999</ele>
        <time>2015-07-17T12:48:27Z</time>
      </trkpt>
      <trkpt lat="46.383679294958711" lon="12.24896184168756">
        <ele>2082.8299999999999</ele>
        <time>2015-07-17T12:48:39Z</time>
      </trkpt>
      <trkpt lat="46.383604109287262" lon="12.249097628518939">
        <ele>2084.2800000000002</ele>
        <time>2015-07-17T12:48:52Z</time>
      </trkpt>
      <trkpt lat="46.3835658878088" lon="12.249217573553324">
        <ele>2085.7199999999998</ele>
        <time>2015-07-17T12:49:02Z</time>
      </trkpt>
      <trkpt lat="46.383534874767065" lon="12.249395856633782">
        <ele>2087.6399999999999</ele>
        <time>2015-07-17T12:49:15Z</time>
      </trkpt>
      <trkpt lat="46.38347745873034" lon="12.249529715627432">
        <ele>2090.04</ele>
        <time>2015-07-17T12:49:26Z</time>
      </trkpt>
      <trkpt lat="46.383436052128673" lon="12.249640356749296">
        <ele>2091.4899999999998</ele>
        <time>2015-07-17T12:49:37Z</time>
      </trkpt>
      <trkpt lat="46.383378971368074" lon="12.249770108610392">
        <ele>2094.3699999999999</ele>
        <time>2015-07-17T12:49:50Z</time>
      </trkpt>
      <trkpt lat="46.383329518139362" lon="12.24987999536097">
        <ele>2096.29</ele>
        <time>2015-07-17T12:50:02Z</time>
      </trkpt>
      <trkpt lat="46.383299427106977" lon="12.249989043921232">
        <ele>2098.21</ele>
        <time>2015-07-17T12:50:13Z</time>
      </trkpt>
      <trkpt lat="46.383274951949716" lon="12.250140588730574">
        <ele>2101.0999999999999</ele>
        <time>2015-07-17T12:50:25Z</time>
      </trkpt>
      <trkpt lat="46.383295152336359" lon="12.250308394432068">
        <ele>2102.0599999999999</ele>
        <time>2015-07-17T12:50:38Z</time>
      </trkpt>
      <trkpt lat="46.383322142064571" lon="12.250452060252428">
        <ele>2103.02</ele>
        <time>2015-07-17T12:50:50Z</time>
      </trkpt>
      <trkpt lat="46.383349969983101" lon="12.250658171251416">
        <ele>2103.5</ele>
        <time>2015-07-17T12:51:03Z</time>
      </trkpt>
      <trkpt lat="46.38339196331799" lon="12.250885739922523">
        <ele>2103.98</ele>
        <time>2015-07-17T12:51:17Z</time>
      </trkpt>
      <trkpt lat="46.38346086256206" lon="12.251054216176271">
        <ele>2105.4200000000001</ele>
        <time>2015-07-17T12:51:30Z</time>
      </trkpt>
      <trkpt lat="46.38350528664887" lon="12.251282287761569">
        <ele>2107.3499999999999</ele>
        <time>2015-07-17T12:51:45Z</time>
      </trkpt>
      <trkpt lat="46.383504197001457" lon="12.251311540603638">
        <ele>2107.8299999999999</ele>
        <time>2015-07-17T12:51:47Z</time>
      </trkpt>
      <trkpt lat="46.383492797613144" lon="12.251519495621324">
        <ele>2108.79</ele>
        <time>2015-07-17T12:52:00Z</time>
      </trkpt>
      <trkpt lat="46.383474273607135" lon="12.251689480617642">
        <ele>2111.1900000000001</ele>
        <time>2015-07-17T12:52:11Z</time>
      </trkpt>
      <trkpt lat="46.383447283878922" lon="12.251882012933493">
        <ele>2112.1500000000001</ele>
        <time>2015-07-17T12:52:23Z</time>
      </trkpt>
      <trkpt lat="46.383412331342697" lon="12.252062307670712">
        <ele>2114.0799999999999</ele>
        <time>2015-07-17T12:52:35Z</time>
      </trkpt>
      <trkpt lat="46.383384251967072" lon="12.252263138070703">
        <ele>2115.52</ele>
        <time>2015-07-17T12:52:48Z</time>
      </trkpt>
      <trkpt lat="46.383338067680597" lon="12.252459526062012">
        <ele>2116.96</ele>
        <time>2015-07-17T12:53:01Z</time>
      </trkpt>
      <trkpt lat="46.383298002183437" lon="12.252621212974191">
        <ele>2118.8800000000001</ele>
        <time>2015-07-17T12:53:14Z</time>
      </trkpt>
      <trkpt lat="46.383272688835859" lon="12.252730680629611">
        <ele>2119.8400000000001</ele>
        <time>2015-07-17T12:53:22Z</time>
      </trkpt>
      <trkpt lat="46.383268581703305" lon="12.252910556271672">
        <ele>2121.29</ele>
        <time>2015-07-17T12:53:35Z</time>
      </trkpt>
      <trkpt lat="46.383274784311652" lon="12.253021532669663">
        <ele>2122.25</ele>
        <time>2015-07-17T12:53:42Z</time>
      </trkpt>
      <trkpt lat="46.383293140679598" lon="12.253267206251621">
        <ele>2123.21</ele>
        <time>2015-07-17T12:53:58Z</time>
      </trkpt>
      <trkpt lat="46.383314933627844" lon="12.253417577594519">
        <ele>2124.1700000000001</ele>
        <time>2015-07-17T12:54:09Z</time>
      </trkpt>
      <trkpt lat="46.383346617221832" lon="12.253606589511037">
        <ele>2125.6100000000001</ele>
        <time>2015-07-17T12:54:22Z</time>
      </trkpt>
      <trkpt lat="46.383375367149711" lon="12.253793505951762">
        <ele>2127.5300000000002</ele>
        <time>2015-07-17T12:54:34Z</time>
      </trkpt>
      <trkpt lat="46.383389951661229" lon="12.253901967778802">
        <ele>2128.02</ele>
        <time>2015-07-17T12:54:41Z</time>
      </trkpt>
      <trkpt lat="46.38340269215405" lon="12.253995928913355">
        <ele>2128.5</ele>
        <time>2015-07-17T12:54:47Z</time>
      </trkpt>
      <trkpt lat="46.383402524515986" lon="12.254040604457259">
        <ele>2129.46</ele>
        <time>2015-07-17T12:54:50Z</time>
      </trkpt>
      <trkpt lat="46.383412666618824" lon="12.254105228930712">
        <ele>2129.46</ele>
        <time>2015-07-17T12:54:54Z</time>
      </trkpt>
      <trkpt lat="46.383446110412478" lon="12.254349729046226">
        <ele>2130.9000000000001</ele>
        <time>2015-07-17T12:55:10Z</time>
      </trkpt>
      <trkpt lat="46.383483912795782" lon="12.254554247483611">
        <ele>2132.8200000000002</ele>
        <time>2015-07-17T12:55:24Z</time>
      </trkpt>
      <trkpt lat="46.383537640795112" lon="12.254703110083938">
        <ele>2133.7800000000002</ele>
        <time>2015-07-17T12:55:36Z</time>
      </trkpt>
      <trkpt lat="46.383595056831837" lon="12.254860689863563">
        <ele>2135.23</ele>
        <time>2015-07-17T12:55:48Z</time>
      </trkpt>
      <trkpt lat="46.383621292188764" lon="12.254980048164725">
        <ele>2136.6700000000001</ele>
        <time>2015-07-17T12:55:57Z</time>
      </trkpt>
      <trkpt lat="46.383641324937344" lon="12.255028747022152">
        <ele>2136.6700000000001</ele>
        <time>2015-07-17T12:56:00Z</time>
      </trkpt>
      <trkpt lat="46.383643755689263" lon="12.255093706771731">
        <ele>2137.1500000000001</ele>
        <time>2015-07-17T12:56:04Z</time>
      </trkpt>
      <trkpt lat="46.383693795651197" lon="12.255281377583742">
        <ele>2139.0700000000002</ele>
        <time>2015-07-17T12:56:18Z</time>
      </trkpt>
      <trkpt lat="46.383727239444852" lon="12.25549628958106">
        <ele>2140.5100000000002</ele>
        <time>2015-07-17T12:56:33Z</time>
      </trkpt>
      <trkpt lat="46.383766131475568" lon="12.255692845210433">
        <ele>2142.4400000000001</ele>
        <time>2015-07-17T12:56:47Z</time>
      </trkpt>
      <trkpt lat="46.383785493671894" lon="12.255813712254167">
        <ele>2142.4400000000001</ele>
        <time>2015-07-17T12:56:55Z</time>
      </trkpt>
      <trkpt lat="46.383823715150356" lon="12.256007250398397">
        <ele>2144.8400000000001</ele>
        <time>2015-07-17T12:57:09Z</time>
      </trkpt>
      <trkpt lat="46.383845172822475" lon="12.256201291456819">
        <ele>2145.8000000000002</ele>
        <time>2015-07-17T12:57:23Z</time>
      </trkpt>
      <trkpt lat="46.383857578039169" lon="12.256304221227765">
        <ele>2146.7600000000002</ele>
        <time>2015-07-17T12:57:31Z</time>
      </trkpt>
      <trkpt lat="46.3839025888592" lon="12.256348980590701">
        <ele>2147.2399999999998</ele>
        <time>2015-07-17T12:57:41Z</time>
      </trkpt>
      <trkpt lat="46.38392991386354" lon="12.256356021389365">
        <ele>2147.2399999999998</ele>
        <time>2015-07-17T12:57:51Z</time>
      </trkpt>
      <trkpt lat="46.383921029046178" lon="12.25632106885314">
        <ele>2146.7600000000002</ele>
        <time>2015-07-17T12:58:03Z</time>
      </trkpt>
      <trkpt lat="46.383945923298597" lon="12.25631570443511">
        <ele>2146.7600000000002</ele>
        <time>2015-07-17T12:58:24Z</time>
      </trkpt>
      <trkpt lat="46.383961346000433" lon="12.256329115480185">
        <ele>2147.2399999999998</ele>
        <time>2015-07-17T12:58:48Z</time>
      </trkpt>
      <trkpt lat="46.38396268710494" lon="12.256331462413073">
        <ele>2147.2399999999998</ele>
        <time>2015-07-17T12:59:06Z</time>
      </trkpt>
      <trkpt lat="46.383968722075224" lon="12.25634110160172">
        <ele>2147.2399999999998</ele>
        <time>2015-07-17T12:59:28Z</time>
      </trkpt>
      <trkpt lat="46.383986156433821" lon="12.256343783810735">
        <ele>2147.2399999999998</ele>
        <time>2015-07-17T12:59:39Z</time>
      </trkpt>
      <trkpt lat="46.383995125070214" lon="12.256350824609399">
        <ele>2147.7199999999998</ele>
        <time>2015-07-17T12:59:53Z</time>
      </trkpt>
      <trkpt lat="46.383961429819465" lon="12.256328780204058">
        <ele>2147.7199999999998</ele>
        <time>2015-07-17T13:00:14Z</time>
      </trkpt>
      <trkpt lat="46.383937289938331" lon="12.256319979205728">
        <ele>2148.1999999999998</ele>
        <time>2015-07-17T13:00:33Z</time>
      </trkpt>
      <trkpt lat="46.3839699793607" lon="12.256329115480185">
        <ele>2148.1999999999998</ele>
        <time>2015-07-17T13:00:46Z</time>
      </trkpt>
      <trkpt lat="46.38398565351963" lon="12.25634110160172">
        <ele>2148.6799999999998</ele>
        <time>2015-07-17T13:01:04Z</time>
      </trkpt>
      <trkpt lat="46.383966710418463" lon="12.256338754668832">
        <ele>2148.1999999999998</ele>
        <time>2015-07-17T13:01:23Z</time>
      </trkpt>
      <trkpt lat="46.383940475061536" lon="12.256327103823423">
        <ele>2148.1999999999998</ele>
        <time>2015-07-17T13:01:36Z</time>
      </trkpt>
      <trkpt lat="46.383919436484575" lon="12.256321823224425">
        <ele>2148.6799999999998</ele>
        <time>2015-07-17T13:01:52Z</time>
      </trkpt>
      <trkpt lat="46.38391382060945" lon="12.256306819617748">
        <ele>2148.1999999999998</ele>
        <time>2015-07-17T13:02:15Z</time>
      </trkpt>
      <trkpt lat="46.38391968794167" lon="12.256291983649135">
        <ele>2148.1999999999998</ele>
        <time>2015-07-17T13:02:37Z</time>
      </trkpt>
      <trkpt lat="46.383923124521971" lon="12.25630346685648">
        <ele>2148.6799999999998</ele>
        <time>2015-07-17T13:02:58Z</time>
      </trkpt>
      <trkpt lat="46.383914072066545" lon="12.256298521533608">
        <ele>2148.6799999999998</ele>
        <time>2015-07-17T13:03:23Z</time>
      </trkpt>
      <trkpt lat="46.383918263018131" lon="12.256308412179351">
        <ele>2149.1599999999999</ele>
        <time>2015-07-17T13:03:40Z</time>
      </trkpt>
      <trkpt lat="46.383904684334993" lon="12.256305981427431">
        <ele>2149.1599999999999</ele>
        <time>2015-07-17T13:04:05Z</time>
      </trkpt>
      <trkpt lat="46.383917508646846" lon="12.256299443542957">
        <ele>2149.6500000000001</ele>
        <time>2015-07-17T13:04:30Z</time>
      </trkpt>
      <trkpt lat="46.383924968540668" lon="12.256304975599051">
        <ele>2149.6500000000001</ele>
        <time>2015-07-17T13:04:48Z</time>
      </trkpt>
      <trkpt lat="46.383923459798098" lon="12.256337413564324">
        <ele>2150.1300000000001</ele>
        <time>2015-07-17T13:05:12Z</time>
      </trkpt>
      <trkpt lat="46.383911473676562" lon="12.256344286724925">
        <ele>2150.1300000000001</ele>
        <time>2015-07-17T13:05:36Z</time>
      </trkpt>
      <trkpt lat="46.383931254968047" lon="12.256286703050137">
        <ele>2150.1300000000001</ele>
        <time>2015-07-17T13:05:56Z</time>
      </trkpt>
      <trkpt lat="46.383933518081903" lon="12.25627220235765">
        <ele>2150.6100000000001</ele>
        <time>2015-07-17T13:06:20Z</time>
      </trkpt>
      <trkpt lat="46.38392404653132" lon="12.256306735798717">
        <ele>2150.6100000000001</ele>
        <time>2015-07-17T13:06:46Z</time>
      </trkpt>
      <trkpt lat="46.383918849751353" lon="12.25629860535264">
        <ele>2150.6100000000001</ele>
        <time>2015-07-17T13:07:18Z</time>
      </trkpt>
      <trkpt lat="46.383923627436161" lon="12.256289636716247">
        <ele>2150.6100000000001</ele>
        <time>2015-07-17T13:07:43Z</time>
      </trkpt>
      <trkpt lat="46.383926896378398" lon="12.256288127973676">
        <ele>2150.6100000000001</ele>
        <time>2015-07-17T13:08:05Z</time>
      </trkpt>
      <trkpt lat="46.383923040702939" lon="12.256312938407063">
        <ele>2151.0900000000001</ele>
        <time>2015-07-17T13:08:30Z</time>
      </trkpt>
      <trkpt lat="46.383923124521971" lon="12.256293827667832">
        <ele>2150.6100000000001</ele>
        <time>2015-07-17T13:08:50Z</time>
      </trkpt>
      <trkpt lat="46.383919268846512" lon="12.256291480734944">
        <ele>2151.0900000000001</ele>
        <time>2015-07-17T13:09:15Z</time>
      </trkpt>
      <trkpt lat="46.383929327130318" lon="12.256289720535278">
        <ele>2151.0900000000001</ele>
        <time>2015-07-17T13:09:35Z</time>
      </trkpt>
      <trkpt lat="46.383920609951019" lon="12.256296258419752">
        <ele>2151.0900000000001</ele>
        <time>2015-07-17T13:10:04Z</time>
      </trkpt>
      <trkpt lat="46.383926142007113" lon="12.256292989477515">
        <ele>2151.5700000000002</ele>
        <time>2015-07-17T13:10:26Z</time>
      </trkpt>
      <trkpt lat="46.383920023217797" lon="12.256297012791038">
        <ele>2151.5700000000002</ele>
        <time>2015-07-17T13:10:51Z</time>
      </trkpt>
      <trkpt lat="46.383921029046178" lon="12.256294330582023">
        <ele>2151.5700000000002</ele>
        <time>2015-07-17T13:11:15Z</time>
      </trkpt>
      <trkpt lat="46.38393335044384" lon="12.256291648373008">
        <ele>2151.5700000000002</ele>
        <time>2015-07-17T13:11:44Z</time>
      </trkpt>
      <trkpt lat="46.383917424827814" lon="12.256290894001722">
        <ele>2151.5700000000002</ele>
        <time>2015-07-17T13:12:10Z</time>
      </trkpt>
      <trkpt lat="46.38391382060945" lon="12.256286786869168">
        <ele>2151.0900000000001</ele>
        <time>2015-07-17T13:12:42Z</time>
      </trkpt>
      <trkpt lat="46.383919268846512" lon="12.256281757727265">
        <ele>2145.3200000000002</ele>
        <time>2015-07-17T13:12:54Z</time>
      </trkpt>
      <trkpt lat="46.383920609951019" lon="12.256284020841122">
        <ele>2145.3200000000002</ele>
        <time>2015-07-17T13:12:55Z</time>
      </trkpt>
      <trkpt lat="46.383920777589083" lon="12.256285781040788">
        <ele>2156.8600000000001</ele>
        <time>2015-07-17T13:12:56Z</time>
      </trkpt>
      <trkpt lat="46.383925471454859" lon="12.256299778819084">
        <ele>2151.0900000000001</ele>
        <time>2015-07-17T13:13:00Z</time>
      </trkpt>
      <trkpt lat="46.383925136178732" lon="12.256301455199718">
        <ele>2151.0900000000001</ele>
        <time>2015-07-17T13:13:01Z</time>
      </trkpt>
      <trkpt lat="46.383906193077564" lon="12.256316458806396">
        <ele>2151.0900000000001</ele>
        <time>2015-07-17T13:13:19Z</time>
      </trkpt>
      <trkpt lat="46.383907618001103" lon="12.256294582039118">
        <ele>2151.0900000000001</ele>
        <time>2015-07-17T13:13:40Z</time>
      </trkpt>
      <trkpt lat="46.383908540010452" lon="12.256283853203058">
        <ele>2151.5700000000002</ele>
        <time>2015-07-17T13:14:08Z</time>
      </trkpt>
      <trkpt lat="46.383909378200769" lon="12.256314614787698">
        <ele>2151.5700000000002</ele>
        <time>2015-07-17T13:14:34Z</time>
      </trkpt>
      <trkpt lat="46.383908037096262" lon="12.256304724141955">
        <ele>2151.5700000000002</ele>
        <time>2015-07-17T13:15:00Z</time>
      </trkpt>
      <trkpt lat="46.383922370150685" lon="12.256299443542957">
        <ele>2152.0500000000002</ele>
        <time>2015-07-17T13:15:25Z</time>
      </trkpt>
      <trkpt lat="46.383912060409784" lon="12.25631863810122">
        <ele>2151.5700000000002</ele>
        <time>2015-07-17T13:15:53Z</time>
      </trkpt>
      <trkpt lat="46.383925303816795" lon="12.256322326138616">
        <ele>2152.0500000000002</ele>
        <time>2015-07-17T13:16:11Z</time>
      </trkpt>
      <trkpt lat="46.383934943005443" lon="12.256308915093541">
        <ele>2152.0500000000002</ele>
        <time>2015-07-17T13:16:39Z</time>
      </trkpt>
      <trkpt lat="46.383923795074224" lon="12.256316961720586">
        <ele>2152.0500000000002</ele>
        <time>2015-07-17T13:17:06Z</time>
      </trkpt>
      <trkpt lat="46.383911054581404" lon="12.256316123530269">
        <ele>2152.5300000000002</ele>
        <time>2015-07-17T13:17:33Z</time>
      </trkpt>
      <trkpt lat="46.383921867236495" lon="12.256318470463157">
        <ele>2153.0100000000002</ele>
        <time>2015-07-17T13:18:04Z</time>
      </trkpt>
      <trkpt lat="46.383912982419133" lon="12.256313357502222">
        <ele>2152.5300000000002</ele>
        <time>2015-07-17T13:18:26Z</time>
      </trkpt>
      <trkpt lat="46.383914910256863" lon="12.256309250369668">
        <ele>2153.0100000000002</ele>
        <time>2015-07-17T13:18:54Z</time>
      </trkpt>
      <trkpt lat="46.383918933570385" lon="12.256292151287198">
        <ele>2153.0100000000002</ele>
        <time>2015-07-17T13:19:20Z</time>
      </trkpt>
      <trkpt lat="46.38389621861279" lon="12.256289720535278">
        <ele>2153.0100000000002</ele>
        <time>2015-07-17T13:19:32Z</time>
      </trkpt>
      <trkpt lat="46.383919101208448" lon="12.256333809345961">
        <ele>2153.9699999999998</ele>
        <time>2015-07-17T13:19:49Z</time>
      </trkpt>
      <trkpt lat="46.383919352665544" lon="12.256345292553306">
        <ele>2153.0100000000002</ele>
        <time>2015-07-17T13:20:08Z</time>
      </trkpt>
      <trkpt lat="46.383934523910284" lon="12.256345292553306">
        <ele>2152.5300000000002</ele>
        <time>2015-07-17T13:20:38Z</time>
      </trkpt>
      <trkpt lat="46.383947264403105" lon="12.256351662799716">
        <ele>2153.0100000000002</ele>
        <time>2015-07-17T13:21:02Z</time>
      </trkpt>
      <trkpt lat="46.383934859186411" lon="12.256351746618748">
        <ele>2153.0100000000002</ele>
        <time>2015-07-17T13:21:29Z</time>
      </trkpt>
      <trkpt lat="46.383934020996094" lon="12.256361218169332">
        <ele>2153.0100000000002</ele>
        <time>2015-07-17T13:21:53Z</time>
      </trkpt>
      <trkpt lat="46.38393678702414" lon="12.25634939968586">
        <ele>2153.0100000000002</ele>
        <time>2015-07-17T13:22:15Z</time>
      </trkpt>
      <trkpt lat="46.383944749832153" lon="12.256333054974675">
        <ele>2153.0100000000002</ele>
        <time>2015-07-17T13:22:44Z</time>
      </trkpt>
      <trkpt lat="46.383938128128648" lon="12.25633573718369">
        <ele>2153.0100000000002</ele>
        <time>2015-07-17T13:23:06Z</time>
      </trkpt>
      <trkpt lat="46.383919520303607" lon="12.256331294775009">
        <ele>2153.0100000000002</ele>
        <time>2015-07-17T13:23:29Z</time>
      </trkpt>
      <trkpt lat="46.383933937177062" lon="12.256339760497212">
        <ele>2153.0100000000002</ele>
        <time>2015-07-17T13:23:59Z</time>
      </trkpt>
      <trkpt lat="46.383913904428482" lon="12.256355686113238">
        <ele>2153.4899999999998</ele>
        <time>2015-07-17T13:24:21Z</time>
      </trkpt>
      <trkpt lat="46.383912479504943" lon="12.256355350837111">
        <ele>2153.4899999999998</ele>
        <time>2015-07-17T13:24:55Z</time>
      </trkpt>
      <trkpt lat="46.383902756497264" lon="12.256354428827763">
        <ele>2153.4899999999998</ele>
        <time>2015-07-17T13:25:27Z</time>
      </trkpt>
      <trkpt lat="46.38391382060945" lon="12.256353506818414">
        <ele>2153.9699999999998</ele>
        <time>2015-07-17T13:25:55Z</time>
      </trkpt>
      <trkpt lat="46.383915580809116" lon="12.256353925913572">
        <ele>2153.9699999999998</ele>
        <time>2015-07-17T13:26:30Z</time>
      </trkpt>
      <trkpt lat="46.38390988111496" lon="12.256367839872837">
        <ele>2154.4499999999998</ele>
        <time>2015-07-17T13:26:54Z</time>
      </trkpt>
      <trkpt lat="46.383912144228816" lon="12.256368761882186">
        <ele>2154.4499999999998</ele>
        <time>2015-07-17T13:27:18Z</time>
      </trkpt>
      <trkpt lat="46.383909210562706" lon="12.256374461576343">
        <ele>2154.4499999999998</ele>
        <time>2015-07-17T13:27:44Z</time>
      </trkpt>
      <trkpt lat="46.383909462019801" lon="12.256375551223755">
        <ele>2154.9299999999998</ele>
        <time>2015-07-17T13:28:14Z</time>
      </trkpt>
      <trkpt lat="46.383914407342672" lon="12.256377059966326">
        <ele>2154.9299999999998</ele>
        <time>2015-07-17T13:28:40Z</time>
      </trkpt>
      <trkpt lat="46.383933098986745" lon="12.256377814337611">
        <ele>2154.9299999999998</ele>
        <time>2015-07-17T13:29:10Z</time>
      </trkpt>
      <trkpt lat="46.38393578119576" lon="12.256372030824423">
        <ele>2155.4099999999999</ele>
        <time>2015-07-17T13:29:39Z</time>
      </trkpt>
      <trkpt lat="46.383938044309616" lon="12.256376137956977">
        <ele>2155.4099999999999</ele>
        <time>2015-07-17T13:30:10Z</time>
      </trkpt>
      <trkpt lat="46.383941313251853" lon="12.256367169320583">
        <ele>2155.4099999999999</ele>
        <time>2015-07-17T13:30:38Z</time>
      </trkpt>
      <trkpt lat="46.38393385335803" lon="12.25638217292726">
        <ele>2154.9299999999998</ele>
        <time>2015-07-17T13:31:05Z</time>
      </trkpt>
      <trkpt lat="46.383932260796428" lon="12.256388794630766">
        <ele>2155.4099999999999</ele>
        <time>2015-07-17T13:31:37Z</time>
      </trkpt>
      <trkpt lat="46.383904935792089" lon="12.256369348615408">
        <ele>2155.4099999999999</ele>
        <time>2015-07-17T13:31:59Z</time>
      </trkpt>
      <trkpt lat="46.383889513090253" lon="12.25637236610055">
        <ele>2155.8899999999999</ele>
        <time>2015-07-17T13:32:30Z</time>
      </trkpt>
      <trkpt lat="46.383889261633158" lon="12.256365995854139">
        <ele>2155.8899999999999</ele>
        <time>2015-07-17T13:33:02Z</time>
      </trkpt>
      <trkpt lat="46.383891021832824" lon="12.25634990260005">
        <ele>2155.8899999999999</ele>
        <time>2015-07-17T13:33:26Z</time>
      </trkpt>
      <trkpt lat="46.383912060409784" lon="12.256328947842121">
        <ele>2156.3699999999999</ele>
        <time>2015-07-17T13:33:45Z</time>
      </trkpt>
      <trkpt lat="46.383963692933321" lon="12.256335821002722">
        <ele>2155.8899999999999</ele>
        <time>2015-07-17T13:34:02Z</time>
      </trkpt>
      <trkpt lat="46.383965704590082" lon="12.256288547068834">
        <ele>2155.8899999999999</ele>
        <time>2015-07-17T13:34:36Z</time>
      </trkpt>
      <trkpt lat="46.383940726518631" lon="12.256287289783359">
        <ele>2156.3699999999999</ele>
        <time>2015-07-17T13:35:12Z</time>
      </trkpt>
      <trkpt lat="46.383928740397096" lon="12.256291899830103">
        <ele>2155.8899999999999</ele>
        <time>2015-07-17T13:35:43Z</time>
      </trkpt>
      <trkpt lat="46.383952209725976" lon="12.256305981427431">
        <ele>2156.3699999999999</ele>
        <time>2015-07-17T13:36:18Z</time>
      </trkpt>
      <trkpt lat="46.383923878893256" lon="12.256310088559985">
        <ele>2156.3699999999999</ele>
        <time>2015-07-17T13:36:51Z</time>
      </trkpt>
      <trkpt lat="46.38393821194768" lon="12.256311094388366">
        <ele>2156.8600000000001</ele>
        <time>2015-07-17T13:37:31Z</time>
      </trkpt>
      <trkpt lat="46.383955143392086" lon="12.256314363330603">
        <ele>2156.3699999999999</ele>
        <time>2015-07-17T13:38:08Z</time>
      </trkpt>
      <trkpt lat="46.383929494768381" lon="12.256319727748632">
        <ele>2156.8600000000001</ele>
        <time>2015-07-17T13:38:46Z</time>
      </trkpt>
      <trkpt lat="46.383897643536329" lon="12.256350740790367">
        <ele>2156.8600000000001</ele>
        <time>2015-07-17T13:39:28Z</time>
      </trkpt>
      <trkpt lat="46.383919939398766" lon="12.256326097995043">
        <ele>2156.8600000000001</ele>
        <time>2015-07-17T13:40:04Z</time>
      </trkpt>
      <trkpt lat="46.383888339623809" lon="12.25632450543344">
        <ele>2156.8600000000001</ele>
        <time>2015-07-17T13:40:45Z</time>
      </trkpt>
      <trkpt lat="46.383912479504943" lon="12.256325930356979">
        <ele>2156.8600000000001</ele>
        <time>2015-07-17T13:41:22Z</time>
      </trkpt>
      <trkpt lat="46.383925219997764" lon="12.25634453818202">
        <ele>2156.8600000000001</ele>
        <time>2015-07-17T13:41:51Z</time>
      </trkpt>
      <trkpt lat="46.383929327130318" lon="12.256331043317914">
        <ele>2157.3400000000001</ele>
        <time>2015-07-17T13:42:28Z</time>
      </trkpt>
      <trkpt lat="46.383930500596762" lon="12.25631763227284">
        <ele>2157.3400000000001</ele>
        <time>2015-07-17T13:43:02Z</time>
      </trkpt>
      <trkpt lat="46.383927147835493" lon="12.256327942013741">
        <ele>2157.3400000000001</ele>
        <time>2015-07-17T13:43:38Z</time>
      </trkpt>
      <trkpt lat="46.383920274674892" lon="12.256316626444459">
        <ele>2158.3000000000002</ele>
        <time>2015-07-17T13:44:07Z</time>
      </trkpt>
      <trkpt lat="46.38390745036304" lon="12.256315117701888">
        <ele>2157.3400000000001</ele>
        <time>2015-07-17T13:44:17Z</time>
      </trkpt>
      <trkpt lat="46.383906360715628" lon="12.256313525140285">
        <ele>2157.3400000000001</ele>
        <time>2015-07-17T13:44:47Z</time>
      </trkpt>
      <trkpt lat="46.383900325745344" lon="12.256317548453808">
        <ele>2153.0100000000002</ele>
        <time>2015-07-17T13:45:01Z</time>
      </trkpt>
      <trkpt lat="46.38390208594501" lon="12.256319979205728">
        <ele>2162.1399999999999</ele>
        <time>2015-07-17T13:45:02Z</time>
      </trkpt>
      <trkpt lat="46.383902169764042" lon="12.256323248147964">
        <ele>2157.8200000000002</ele>
        <time>2015-07-17T13:45:03Z</time>
      </trkpt>
      <trkpt lat="46.383890435099602" lon="12.256311848759651">
        <ele>2157.3400000000001</ele>
        <time>2015-07-17T13:45:33Z</time>
      </trkpt>
      <trkpt lat="46.383907785639167" lon="12.256300114095211">
        <ele>2157.8200000000002</ele>
        <time>2015-07-17T13:46:08Z</time>
      </trkpt>
      <trkpt lat="46.38392111286521" lon="12.256286703050137">
        <ele>2157.8200000000002</ele>
        <time>2015-07-17T13:46:36Z</time>
      </trkpt>
      <trkpt lat="46.38392748311162" lon="12.256291816011071">
        <ele>2157.8200000000002</ele>
        <time>2015-07-17T13:47:09Z</time>
      </trkpt>
      <trkpt lat="46.383929746225476" lon="12.256292905658484">
        <ele>2157.3400000000001</ele>
        <time>2015-07-17T13:47:44Z</time>
      </trkpt>
      <trkpt lat="46.38391968794167" lon="12.256305059418082">
        <ele>2157.3400000000001</ele>
        <time>2015-07-17T13:48:19Z</time>
      </trkpt>
      <trkpt lat="46.383917843922973" lon="12.256293827667832">
        <ele>2157.3400000000001</ele>
        <time>2015-07-17T13:48:55Z</time>
      </trkpt>
      <trkpt lat="46.383911306038499" lon="12.25628980435431">
        <ele>2157.8200000000002</ele>
        <time>2015-07-17T13:49:29Z</time>
      </trkpt>
      <trkpt lat="46.383918514475226" lon="12.25628150627017">
        <ele>2157.8200000000002</ele>
        <time>2015-07-17T13:49:58Z</time>
      </trkpt>
      <trkpt lat="46.383920777589083" lon="12.256288966163993">
        <ele>2154.4499999999998</ele>
        <time>2015-07-17T13:50:15Z</time>
      </trkpt>
      <trkpt lat="46.383921280503273" lon="12.256287876516581">
        <ele>2155.8899999999999</ele>
        <time>2015-07-17T13:50:16Z</time>
      </trkpt>
      <trkpt lat="46.383921783417463" lon="12.256288463249803">
        <ele>2161.1799999999998</ele>
        <time>2015-07-17T13:50:17Z</time>
      </trkpt>
      <trkpt lat="46.383922034874558" lon="12.256289469078183">
        <ele>2158.7800000000002</ele>
        <time>2015-07-17T13:50:18Z</time>
      </trkpt>
      <trkpt lat="46.38392211869359" lon="12.256301958113909">
        <ele>2157.3400000000001</ele>
        <time>2015-07-17T13:50:20Z</time>
      </trkpt>
      <trkpt lat="46.383913485333323" lon="12.256301287561655">
        <ele>2157.3400000000001</ele>
        <time>2015-07-17T13:50:43Z</time>
      </trkpt>
      <trkpt lat="46.383929075673223" lon="12.25629466585815">
        <ele>2157.3400000000001</ele>
        <time>2015-07-17T13:51:16Z</time>
      </trkpt>
      <trkpt lat="46.383942905813456" lon="12.256298940628767">
        <ele>2157.3400000000001</ele>
        <time>2015-07-17T13:51:49Z</time>
      </trkpt>
      <trkpt lat="46.383906528353691" lon="12.256303885951638">
        <ele>2157.8200000000002</ele>
        <time>2015-07-17T13:52:22Z</time>
      </trkpt>
      <trkpt lat="46.383905773982406" lon="12.256315955892205">
        <ele>2157.8200000000002</ele>
        <time>2015-07-17T13:52:50Z</time>
      </trkpt>
      <trkpt lat="46.383905857801437" lon="12.256323667243123">
        <ele>2157.8200000000002</ele>
        <time>2015-07-17T13:53:21Z</time>
      </trkpt>
      <trkpt lat="46.383927734568715" lon="12.256310256198049">
        <ele>2158.3000000000002</ele>
        <time>2015-07-17T13:53:56Z</time>
      </trkpt>
      <trkpt lat="46.383926393464208" lon="12.256320985034108">
        <ele>2157.8200000000002</ele>
        <time>2015-07-17T13:54:24Z</time>
      </trkpt>
      <trkpt lat="46.383955562487245" lon="12.256302125751972">
        <ele>2157.8200000000002</ele>
        <time>2015-07-17T13:54:52Z</time>
      </trkpt>
      <trkpt lat="46.383976181969047" lon="12.256302377209067">
        <ele>2157.8200000000002</ele>
        <time>2015-07-17T13:55:24Z</time>
      </trkpt>
      <trkpt lat="46.383944917470217" lon="12.256311178207397">
        <ele>2157.8200000000002</ele>
        <time>2015-07-17T13:55:49Z</time>
      </trkpt>
      <trkpt lat="46.383931757882237" lon="12.256316961720586">
        <ele>2157.8200000000002</ele>
        <time>2015-07-17T13:56:17Z</time>
      </trkpt>
      <trkpt lat="46.383934188634157" lon="12.256291816011071">
        <ele>2157.8200000000002</ele>
        <time>2015-07-17T13:56:49Z</time>
      </trkpt>
      <trkpt lat="46.383929830044508" lon="12.256294833496213">
        <ele>2157.8200000000002</ele>
        <time>2015-07-17T13:57:21Z</time>
      </trkpt>
      <trkpt lat="46.383904600515962" lon="12.256312519311905">
        <ele>2157.8200000000002</ele>
        <time>2015-07-17T13:57:53Z</time>
      </trkpt>
      <trkpt lat="46.383907534182072" lon="12.256300197914243">
        <ele>2157.8200000000002</ele>
        <time>2015-07-17T13:58:19Z</time>
      </trkpt>
      <trkpt lat="46.383919352665544" lon="12.256300952285528">
        <ele>2157.8200000000002</ele>
        <time>2015-07-17T13:58:47Z</time>
      </trkpt>
      <trkpt lat="46.383897475898266" lon="12.256320817396045">
        <ele>2157.8200000000002</ele>
        <time>2015-07-17T13:59:12Z</time>
      </trkpt>
      <trkpt lat="46.383945252746344" lon="12.256312351673841">
        <ele>2158.3000000000002</ele>
        <time>2015-07-17T13:59:46Z</time>
      </trkpt>
      <trkpt lat="46.383959418162704" lon="12.25631570443511">
        <ele>2157.8200000000002</ele>
        <time>2015-07-17T14:00:16Z</time>
      </trkpt>
      <trkpt lat="46.383954305201769" lon="12.256325846537948">
        <ele>2158.3000000000002</ele>
        <time>2015-07-17T14:00:40Z</time>
      </trkpt>
      <trkpt lat="46.3839181791991" lon="12.256301203742623">
        <ele>2158.3000000000002</ele>
        <time>2015-07-17T14:01:15Z</time>
      </trkpt>
      <trkpt lat="46.383945252746344" lon="12.256292989477515">
        <ele>2158.3000000000002</ele>
        <time>2015-07-17T14:01:54Z</time>
      </trkpt>
      <trkpt lat="46.383926812559366" lon="12.256306065246463">
        <ele>2158.3000000000002</ele>
        <time>2015-07-17T14:02:17Z</time>
      </trkpt>
      <trkpt lat="46.383913401514292" lon="12.256300281733274">
        <ele>2157.8200000000002</ele>
        <time>2015-07-17T14:02:47Z</time>
      </trkpt>
      <trkpt lat="46.383920693770051" lon="12.256297515705228">
        <ele>2157.8200000000002</ele>
        <time>2015-07-17T14:03:10Z</time>
      </trkpt>
      <trkpt lat="46.383903007954359" lon="12.256305478513241">
        <ele>2157.8200000000002</ele>
        <time>2015-07-17T14:03:39Z</time>
      </trkpt>
      <trkpt lat="46.383902672678232" lon="12.256299192085862">
        <ele>2157.8200000000002</ele>
        <time>2015-07-17T14:04:01Z</time>
      </trkpt>
      <trkpt lat="46.383925806730986" lon="12.25629466585815">
        <ele>2158.3000000000002</ele>
        <time>2015-07-17T14:04:29Z</time>
      </trkpt>
      <trkpt lat="46.383906193077564" lon="12.256322409957647">
        <ele>2158.3000000000002</ele>
        <time>2015-07-17T14:04:57Z</time>
      </trkpt>
      <trkpt lat="46.383927902206779" lon="12.25630690343678">
        <ele>2158.3000000000002</ele>
        <time>2015-07-17T14:05:27Z</time>
      </trkpt>
      <trkpt lat="46.383909294381738" lon="12.256305059418082">
        <ele>2158.3000000000002</ele>
        <time>2015-07-17T14:05:48Z</time>
      </trkpt>
      <trkpt lat="46.383908120915294" lon="12.256304640322924">
        <ele>2158.3000000000002</ele>
        <time>2015-07-17T14:06:14Z</time>
      </trkpt>
      <trkpt lat="46.383921448141336" lon="12.256303383037448">
        <ele>2158.3000000000002</ele>
        <time>2015-07-17T14:06:48Z</time>
      </trkpt>
      <trkpt lat="46.383925806730986" lon="12.256297264248133">
        <ele>2157.8200000000002</ele>
        <time>2015-07-17T14:07:16Z</time>
      </trkpt>
      <trkpt lat="46.383914658799767" lon="12.256297934800386">
        <ele>2158.3000000000002</ele>
        <time>2015-07-17T14:07:51Z</time>
      </trkpt>
      <trkpt lat="46.383917676284909" lon="12.256299946457148">
        <ele>2157.8200000000002</ele>
        <time>2015-07-17T14:08:13Z</time>
      </trkpt>
      <trkpt lat="46.383920358493924" lon="12.256308328360319">
        <ele>2157.8200000000002</ele>
        <time>2015-07-17T14:08:41Z</time>
      </trkpt>
      <trkpt lat="46.383889177814126" lon="12.256331462413073">
        <ele>2157.8200000000002</ele>
        <time>2015-07-17T14:09:10Z</time>
      </trkpt>
      <trkpt lat="46.383881215006113" lon="12.256353171542287">
        <ele>2157.8200000000002</ele>
        <time>2015-07-17T14:09:32Z</time>
      </trkpt>
      <trkpt lat="46.383896386250854" lon="12.256338000297546">
        <ele>2157.8200000000002</ele>
        <time>2015-07-17T14:09:56Z</time>
      </trkpt>
      <trkpt lat="46.383907701820135" lon="12.256311178207397">
        <ele>2157.8200000000002</ele>
        <time>2015-07-17T14:10:26Z</time>
      </trkpt>
      <trkpt lat="46.383913150057197" lon="12.256314111873507">
        <ele>2157.8200000000002</ele>
        <time>2015-07-17T14:10:58Z</time>
      </trkpt>
      <trkpt lat="46.383910970762372" lon="12.256311262026429">
        <ele>2157.8200000000002</ele>
        <time>2015-07-17T14:11:27Z</time>
      </trkpt>
      <trkpt lat="46.383921029046178" lon="12.256316710263491">
        <ele>2156.3699999999999</ele>
        <time>2015-07-17T14:11:42Z</time>
      </trkpt>
      <trkpt lat="46.383912982419133" lon="12.256318386644125">
        <ele>2158.7800000000002</ele>
        <time>2015-07-17T14:11:55Z</time>
      </trkpt>
      <trkpt lat="46.383905271068215" lon="12.256316794082522">
        <ele>2158.3000000000002</ele>
        <time>2015-07-17T14:12:03Z</time>
      </trkpt>
      <trkpt lat="46.38390501961112" lon="12.256317716091871">
        <ele>2158.7800000000002</ele>
        <time>2015-07-17T14:12:13Z</time>
      </trkpt>
      <trkpt lat="46.383871575817466" lon="12.256329199299216">
        <ele>2158.7800000000002</ele>
        <time>2015-07-17T14:12:21Z</time>
      </trkpt>
      <trkpt lat="46.38386738486588" lon="12.25631914101541">
        <ele>2158.7800000000002</ele>
        <time>2015-07-17T14:12:32Z</time>
      </trkpt>
      <trkpt lat="46.383868474513292" lon="12.256333725526929">
        <ele>2158.3000000000002</ele>
        <time>2015-07-17T14:12:45Z</time>
      </trkpt>
      <trkpt lat="46.383858332410455" lon="12.256333557888865">
        <ele>2158.3000000000002</ele>
        <time>2015-07-17T14:12:57Z</time>
      </trkpt>
      <trkpt lat="46.383865540847182" lon="12.256331797689199">
        <ele>2158.3000000000002</ele>
        <time>2015-07-17T14:13:22Z</time>
      </trkpt>
      <trkpt lat="46.383863780647516" lon="12.256328780204058">
        <ele>2158.3000000000002</ele>
        <time>2015-07-17T14:13:39Z</time>
      </trkpt>
      <trkpt lat="46.383855398744345" lon="12.256325930356979">
        <ele>2158.7800000000002</ele>
        <time>2015-07-17T14:14:00Z</time>
      </trkpt>
      <trkpt lat="46.383839640766382" lon="12.256321655586362">
        <ele>2158.7800000000002</ele>
        <time>2015-07-17T14:14:27Z</time>
      </trkpt>
      <trkpt lat="46.383834946900606" lon="12.256304807960987">
        <ele>2158.7800000000002</ele>
        <time>2015-07-17T14:14:44Z</time>
      </trkpt>
      <trkpt lat="46.383829666301608" lon="12.256303131580353">
        <ele>2158.7800000000002</ele>
        <time>2015-07-17T14:14:57Z</time>
      </trkpt>
      <trkpt lat="46.383836288005114" lon="12.256301287561655">
        <ele>2158.7800000000002</ele>
        <time>2015-07-17T14:15:20Z</time>
      </trkpt>
      <trkpt lat="46.383856069296598" lon="12.256315536797047">
        <ele>2157.3400000000001</ele>
        <time>2015-07-17T14:15:33Z</time>
      </trkpt>
      <trkpt lat="46.383842825889587" lon="12.256320398300886">
        <ele>2158.3000000000002</ele>
        <time>2015-07-17T14:15:41Z</time>
      </trkpt>
      <trkpt lat="46.383825223892927" lon="12.256258120760322">
        <ele>2157.8200000000002</ele>
        <time>2015-07-17T14:15:54Z</time>
      </trkpt>
      <trkpt lat="46.383823128417134" lon="12.256247643381357">
        <ele>2158.3000000000002</ele>
        <time>2015-07-17T14:16:10Z</time>
      </trkpt>
      <trkpt lat="46.383814495056868" lon="12.2561573702842">
        <ele>2157.8200000000002</ele>
        <time>2015-07-17T14:16:22Z</time>
      </trkpt>
      <trkpt lat="46.383837126195431" lon="12.256128285080194">
        <ele>2157.8200000000002</ele>
        <time>2015-07-17T14:16:33Z</time>
      </trkpt>
      <trkpt lat="46.383817177265882" lon="12.256124094128609">
        <ele>2157.3400000000001</ele>
        <time>2015-07-17T14:16:42Z</time>
      </trkpt>
      <trkpt lat="46.383825475350022" lon="12.256161728873849">
        <ele>2157.3400000000001</ele>
        <time>2015-07-17T14:16:56Z</time>
      </trkpt>
      <trkpt lat="46.383840646594763" lon="12.256218893453479">
        <ele>2157.3400000000001</ele>
        <time>2015-07-17T14:17:05Z</time>
      </trkpt>
      <trkpt lat="46.383842574432492" lon="12.256222665309906">
        <ele>2157.8200000000002</ele>
        <time>2015-07-17T14:17:06Z</time>
      </trkpt>
      <trkpt lat="46.383831929415464" lon="12.256019907072186">
        <ele>2156.3699999999999</ele>
        <time>2015-07-17T14:17:18Z</time>
      </trkpt>
      <trkpt lat="46.383817596361041" lon="12.255954779684544">
        <ele>2155.8899999999999</ele>
        <time>2015-07-17T14:17:22Z</time>
      </trkpt>
      <trkpt lat="46.383814746513963" lon="12.255916558206081">
        <ele>2156.3699999999999</ele>
        <time>2015-07-17T14:17:34Z</time>
      </trkpt>
      <trkpt lat="46.383815919980407" lon="12.255937093868852">
        <ele>2155.8899999999999</ele>
        <time>2015-07-17T14:17:35Z</time>
      </trkpt>
      <trkpt lat="46.383789014071226" lon="12.255953857675195">
        <ele>2155.8899999999999</ele>
        <time>2015-07-17T14:17:38Z</time>
      </trkpt>
      <trkpt lat="46.383745009079576" lon="12.255702316761017">
        <ele>2153.9699999999998</ele>
        <time>2015-07-17T14:17:52Z</time>
      </trkpt>
      <trkpt lat="46.383713744580746" lon="12.255584131926298">
        <ele>2153.0100000000002</ele>
        <time>2015-07-17T14:18:04Z</time>
      </trkpt>
      <trkpt lat="46.383687006309628" lon="12.255475837737322">
        <ele>2152.0500000000002</ele>
        <time>2015-07-17T14:18:17Z</time>
      </trkpt>
      <trkpt lat="46.383679378777742" lon="12.255444657057524">
        <ele>2151.5700000000002</ele>
        <time>2015-07-17T14:18:29Z</time>
      </trkpt>
      <trkpt lat="46.38368071988225" lon="12.255424289032817">
        <ele>2151.5700000000002</ele>
        <time>2015-07-17T14:18:40Z</time>
      </trkpt>
      <trkpt lat="46.383689688518643" lon="12.255447506904602">
        <ele>2151.5700000000002</ele>
        <time>2015-07-17T14:19:02Z</time>
      </trkpt>
      <trkpt lat="46.383692035451531" lon="12.255451446399093">
        <ele>2151.5700000000002</ele>
        <time>2015-07-17T14:19:21Z</time>
      </trkpt>
      <trkpt lat="46.383686503395438" lon="12.255373829975724">
        <ele>2151.0900000000001</ele>
        <time>2015-07-17T14:19:35Z</time>
      </trkpt>
      <trkpt lat="46.383670913055539" lon="12.255253968760371">
        <ele>2150.1300000000001</ele>
        <time>2015-07-17T14:19:46Z</time>
      </trkpt>
      <trkpt lat="46.383694214746356" lon="12.255258830264211">
        <ele>2150.1300000000001</ele>
        <time>2015-07-17T14:19:55Z</time>
      </trkpt>
      <trkpt lat="46.383688179776073" lon="12.255243239924312">
        <ele>2150.6100000000001</ele>
        <time>2015-07-17T14:19:57Z</time>
      </trkpt>
      <trkpt lat="46.383654987439513" lon="12.255148692056537">
        <ele>2149.6500000000001</ele>
        <time>2015-07-17T14:20:03Z</time>
      </trkpt>
      <trkpt lat="46.383612239733338" lon="12.254935624077916">
        <ele>2148.1999999999998</ele>
        <time>2015-07-17T14:20:15Z</time>
      </trkpt>
      <trkpt lat="46.38353512622416" lon="12.254703193902969">
        <ele>2146.2800000000002</ele>
        <time>2015-07-17T14:20:29Z</time>
      </trkpt>
      <trkpt lat="46.383437979966402" lon="12.254443690180779">
        <ele>2143.8800000000001</ele>
        <time>2015-07-17T14:20:45Z</time>
      </trkpt>
      <trkpt lat="46.383411912247539" lon="12.254189131781459">
        <ele>2141.9499999999998</ele>
        <time>2015-07-17T14:20:58Z</time>
      </trkpt>
      <trkpt lat="46.383382407948375" lon="12.253934908658266">
        <ele>2140.0300000000002</ele>
        <time>2015-07-17T14:21:11Z</time>
      </trkpt>
      <trkpt lat="46.383353490382433" lon="12.253692420199513">
        <ele>2139.5500000000002</ele>
        <time>2015-07-17T14:21:24Z</time>
      </trkpt>
      <trkpt lat="46.383335553109646" lon="12.253571301698685">
        <ele>2137.6300000000001</ele>
        <time>2015-07-17T14:21:31Z</time>
      </trkpt>
      <trkpt lat="46.383299762383103" lon="12.253346415236592">
        <ele>2135.23</ele>
        <time>2015-07-17T14:21:43Z</time>
      </trkpt>
      <trkpt lat="46.383266486227512" lon="12.253139214590192">
        <ele>2134.2600000000002</ele>
        <time>2015-07-17T14:21:55Z</time>
      </trkpt>
      <trkpt lat="46.383240502327681" lon="12.25288599729538">
        <ele>2132.3400000000001</ele>
        <time>2015-07-17T14:22:08Z</time>
      </trkpt>
      <trkpt lat="46.383279310539365" lon="12.25255717523396">
        <ele>2129.9400000000001</ele>
        <time>2015-07-17T14:22:24Z</time>
      </trkpt>
      <trkpt lat="46.383285764604807" lon="12.252535885199904">
        <ele>2129.9400000000001</ele>
        <time>2015-07-17T14:22:25Z</time>
      </trkpt>
      <trkpt lat="46.383323147892952" lon="12.252425327897072">
        <ele>2128.98</ele>
        <time>2015-07-17T14:22:31Z</time>
      </trkpt>
      <trkpt lat="46.383367069065571" lon="12.252154005691409">
        <ele>2126.5700000000002</ele>
        <time>2015-07-17T14:22:46Z</time>
      </trkpt>
      <trkpt lat="46.383405793458223" lon="12.251922581344843">
        <ele>2124.6500000000001</ele>
        <time>2015-07-17T14:22:59Z</time>
      </trkpt>
      <trkpt lat="46.383455749601126" lon="12.251701299101114">
        <ele>2123.21</ele>
        <time>2015-07-17T14:23:11Z</time>
      </trkpt>
      <trkpt lat="46.38346672989428" lon="12.251515053212643">
        <ele>2121.29</ele>
        <time>2015-07-17T14:23:21Z</time>
      </trkpt>
      <trkpt lat="46.383478380739689" lon="12.251177346333861">
        <ele>2118.8800000000001</ele>
        <time>2015-07-17T14:23:38Z</time>
      </trkpt>
      <trkpt lat="46.383397076278925" lon="12.250942653045058">
        <ele>2117.9200000000001</ele>
        <time>2015-07-17T14:23:52Z</time>
      </trkpt>
      <trkpt lat="46.3833137601614" lon="12.250798819586635">
        <ele>2115.04</ele>
        <time>2015-07-17T14:24:02Z</time>
      </trkpt>
      <trkpt lat="46.383242597803473" lon="12.250661440193653">
        <ele>2113.5999999999999</ele>
        <time>2015-07-17T14:24:14Z</time>
      </trkpt>
      <trkpt lat="46.383242681622505" lon="12.250663284212351">
        <ele>2113.1199999999999</ele>
        <time>2015-07-17T14:24:30Z</time>
      </trkpt>
      <trkpt lat="46.383239245042205" lon="12.250675773248076">
        <ele>2113.1199999999999</ele>
        <time>2015-07-17T14:24:41Z</time>
      </trkpt>
      <trkpt lat="46.383249303326011" lon="12.250683987513185">
        <ele>2113.1199999999999</ele>
        <time>2015-07-17T14:25:01Z</time>
      </trkpt>
      <trkpt lat="46.383229270577431" lon="12.25067351013422">
        <ele>2113.1199999999999</ele>
        <time>2015-07-17T14:25:15Z</time>
      </trkpt>
      <trkpt lat="46.383215691894293" lon="12.250648196786642">
        <ele>2112.6300000000001</ele>
        <time>2015-07-17T14:25:25Z</time>
      </trkpt>
      <trkpt lat="46.383213261142373" lon="12.250632606446743">
        <ele>2113.1199999999999</ele>
        <time>2015-07-17T14:25:34Z</time>
      </trkpt>
      <trkpt lat="46.383199598640203" lon="12.25060410797596">
        <ele>2112.6300000000001</ele>
        <time>2015-07-17T14:25:43Z</time>
      </trkpt>
      <trkpt lat="46.383189959451556" lon="12.250579465180635">
        <ele>2112.1500000000001</ele>
        <time>2015-07-17T14:25:57Z</time>
      </trkpt>
      <trkpt lat="46.383203035220504" lon="12.25055918097496">
        <ele>2112.1500000000001</ele>
        <time>2015-07-17T14:26:05Z</time>
      </trkpt>
      <trkpt lat="46.383170848712325" lon="12.250531520694494">
        <ele>2111.6700000000001</ele>
        <time>2015-07-17T14:26:18Z</time>
      </trkpt>
      <trkpt lat="46.383163891732693" lon="12.250565215945244">
        <ele>2111.6700000000001</ele>
        <time>2015-07-17T14:26:33Z</time>
      </trkpt>
      <trkpt lat="46.383142853155732" lon="12.250508051365614">
        <ele>2111.1900000000001</ele>
        <time>2015-07-17T14:26:43Z</time>
      </trkpt>
      <trkpt lat="46.383147044107318" lon="12.250491539016366">
        <ele>2111.1900000000001</ele>
        <time>2015-07-17T14:26:56Z</time>
      </trkpt>
      <trkpt lat="46.38313103467226" lon="12.250477708876133">
        <ele>2110.71</ele>
        <time>2015-07-17T14:27:09Z</time>
      </trkpt>
      <trkpt lat="46.383153581991792" lon="12.250478295609355">
        <ele>2111.1900000000001</ele>
        <time>2015-07-17T14:27:22Z</time>
      </trkpt>
      <trkpt lat="46.383149977773428" lon="12.250476954504848">
        <ele>2110.71</ele>
        <time>2015-07-17T14:27:40Z</time>
      </trkpt>
      <trkpt lat="46.383159281685948" lon="12.250450802966952">
        <ele>2110.71</ele>
        <time>2015-07-17T14:27:53Z</time>
      </trkpt>
      <trkpt lat="46.383171686902642" lon="12.250345274806023">
        <ele>2110.71</ele>
        <time>2015-07-17T14:28:04Z</time>
      </trkpt>
      <trkpt lat="46.383179817348719" lon="12.250322895124555">
        <ele>2110.71</ele>
        <time>2015-07-17T14:28:06Z</time>
      </trkpt>
      <trkpt lat="46.383208315819502" lon="12.250181073322892">
        <ele>2110.71</ele>
        <time>2015-07-17T14:28:16Z</time>
      </trkpt>
      <trkpt lat="46.383230024948716" lon="12.250130027532578">
        <ele>2110.71</ele>
        <time>2015-07-17T14:28:20Z</time>
      </trkpt>
      <trkpt lat="46.383253578096628" lon="12.249939255416393">
        <ele>2108.79</ele>
        <time>2015-07-17T14:28:32Z</time>
      </trkpt>
      <trkpt lat="46.383310072124004" lon="12.249741777777672">
        <ele>2105.9099999999999</ele>
        <time>2015-07-17T14:28:44Z</time>
      </trkpt>
      <trkpt lat="46.383405793458223" lon="12.249578665941954">
        <ele>2102.54</ele>
        <time>2015-07-17T14:28:57Z</time>
      </trkpt>
      <trkpt lat="46.383489361032844" lon="12.249360149726272">
        <ele>2099.1799999999998</ele>
        <time>2015-07-17T14:29:11Z</time>
      </trkpt>
      <trkpt lat="46.383533114567399" lon="12.249205419793725">
        <ele>2096.77</ele>
        <time>2015-07-17T14:29:22Z</time>
      </trkpt>
      <trkpt lat="46.383543256670237" lon="12.249119924381375">
        <ele>2096.29</ele>
        <time>2015-07-17T14:29:27Z</time>
      </trkpt>
      <trkpt lat="46.383590195327997" lon="12.249018251895905">
        <ele>2095.3299999999999</ele>
        <time>2015-07-17T14:29:33Z</time>
      </trkpt>
      <trkpt lat="46.383629254996777" lon="12.248973241075873">
        <ele>2094.8499999999999</ele>
        <time>2015-07-17T14:29:37Z</time>
      </trkpt>
      <trkpt lat="46.383733274415135" lon="12.248760759830475">
        <ele>2092.4499999999998</ele>
        <time>2015-07-17T14:29:51Z</time>
      </trkpt>
      <trkpt lat="46.383776105940342" lon="12.248546937480569">
        <ele>2090.52</ele>
        <time>2015-07-17T14:30:04Z</time>
      </trkpt>
      <trkpt lat="46.383741153404117" lon="12.248244350776076">
        <ele>2088.5999999999999</ele>
        <time>2015-07-17T14:30:20Z</time>
      </trkpt>
      <trkpt lat="46.383755318820477" lon="12.247998425737023">
        <ele>2086.6799999999998</ele>
        <time>2015-07-17T14:30:34Z</time>
      </trkpt>
      <trkpt lat="46.38381365686655" lon="12.247767671942711">
        <ele>2084.2800000000002</ele>
        <time>2015-07-17T14:30:47Z</time>
      </trkpt>
      <trkpt lat="46.383857326582074" lon="12.247581509873271">
        <ele>2083.3099999999999</ele>
        <time>2015-07-17T14:30:59Z</time>
      </trkpt>
      <trkpt lat="46.383898481726646" lon="12.247424265369773">
        <ele>2081.8699999999999</ele>
        <time>2015-07-17T14:31:10Z</time>
      </trkpt>
      <trkpt lat="46.383921280503273" lon="12.247384702786803">
        <ele>2081.3899999999999</ele>
        <time>2015-07-17T14:31:13Z</time>
      </trkpt>
      <trkpt lat="46.383941899985075" lon="12.24728244356811">
        <ele>2080.4299999999998</ele>
        <time>2015-07-17T14:31:24Z</time>
      </trkpt>
      <trkpt lat="46.383991437032819" lon="12.247153026983142">
        <ele>2079.9499999999998</ele>
        <time>2015-07-17T14:31:36Z</time>
      </trkpt>
      <trkpt lat="46.384017756208777" lon="12.247003829106688">
        <ele>2078.5100000000002</ele>
        <time>2015-07-17T14:31:45Z</time>
      </trkpt>
      <trkpt lat="46.384042985737324" lon="12.246781624853611">
        <ele>2078.0300000000002</ele>
        <time>2015-07-17T14:31:57Z</time>
      </trkpt>
      <trkpt lat="46.384044913575053" lon="12.246577944606543">
        <ele>2075.1399999999999</ele>
        <time>2015-07-17T14:32:08Z</time>
      </trkpt>
      <trkpt lat="46.383990766480565" lon="12.246290864422917">
        <ele>2072.7399999999998</ele>
        <time>2015-07-17T14:32:24Z</time>
      </trkpt>
      <trkpt lat="46.3840286526829" lon="12.246015351265669">
        <ele>2070.3400000000001</ele>
        <time>2015-07-17T14:32:38Z</time>
      </trkpt>
      <trkpt lat="46.384130073711276" lon="12.245764983817935">
        <ele>2068.4099999999999</ele>
        <time>2015-07-17T14:32:52Z</time>
      </trkpt>
      <trkpt lat="46.384146921336651" lon="12.245740173384547">
        <ele>2068.4099999999999</ele>
        <time>2015-07-17T14:32:54Z</time>
      </trkpt>
      <trkpt lat="46.384192267432809" lon="12.245675465092063">
        <ele>2067.9299999999998</ele>
        <time>2015-07-17T14:33:00Z</time>
      </trkpt>
      <trkpt lat="46.384225459769368" lon="12.245617043226957">
        <ele>2067.4499999999998</ele>
        <time>2015-07-17T14:33:04Z</time>
      </trkpt>
      <trkpt lat="46.384296789765358" lon="12.245515706017613">
        <ele>2066.4899999999998</ele>
        <time>2015-07-17T14:33:13Z</time>
      </trkpt>
      <trkpt lat="46.384324030950665" lon="12.245427193120122">
        <ele>2066.0100000000002</ele>
        <time>2015-07-17T14:33:18Z</time>
      </trkpt>
      <trkpt lat="46.384339537471533" lon="12.245298866182566">
        <ele>2065.5300000000002</ele>
        <time>2015-07-17T14:33:30Z</time>
      </trkpt>
      <trkpt lat="46.384341716766357" lon="12.245286293327808">
        <ele>2065.5300000000002</ele>
        <time>2015-07-17T14:33:52Z</time>
      </trkpt>
      <trkpt lat="46.384323444217443" lon="12.245246479287744">
        <ele>2065.5300000000002</ele>
        <time>2015-07-17T14:34:06Z</time>
      </trkpt>
      <trkpt lat="46.384318079799414" lon="12.245208593085408">
        <ele>2065.5300000000002</ele>
        <time>2015-07-17T14:34:09Z</time>
      </trkpt>
      <trkpt lat="46.384298801422119" lon="12.245196439325809">
        <ele>2063.1300000000001</ele>
        <time>2015-07-17T14:34:18Z</time>
      </trkpt>
      <trkpt lat="46.384226884692907" lon="12.245157295837998">
        <ele>2059.7600000000002</ele>
        <time>2015-07-17T14:34:26Z</time>
      </trkpt>
      <trkpt lat="46.384217580780387" lon="12.245140448212624">
        <ele>2059.7600000000002</ele>
        <time>2015-07-17T14:34:27Z</time>
      </trkpt>
      <trkpt lat="46.384169887751341" lon="12.24506551399827">
        <ele>2057.3600000000001</ele>
        <time>2015-07-17T14:34:33Z</time>
      </trkpt>
      <trkpt lat="46.384101575240493" lon="12.245283359661698">
        <ele>2053.9899999999998</ele>
        <time>2015-07-17T14:34:45Z</time>
      </trkpt>
      <trkpt lat="46.384002417325974" lon="12.245400622487068">
        <ele>2051.1100000000001</ele>
        <time>2015-07-17T14:34:54Z</time>
      </trkpt>
      <trkpt lat="46.383888842537999" lon="12.245493158698082">
        <ele>2048.23</ele>
        <time>2015-07-17T14:35:05Z</time>
      </trkpt>
      <trkpt lat="46.38380728662014" lon="12.245518304407597">
        <ele>2047.75</ele>
        <time>2015-07-17T14:35:14Z</time>
      </trkpt>
      <trkpt lat="46.383757665753365" lon="12.245502211153507">
        <ele>2043.4200000000001</ele>
        <time>2015-07-17T14:35:18Z</time>
      </trkpt>
      <trkpt lat="46.38374911621213" lon="12.245500786229968">
        <ele>2043.4200000000001</ele>
        <time>2015-07-17T14:35:19Z</time>
      </trkpt>
      <trkpt lat="46.38368172571063" lon="12.245514532551169">
        <ele>2041.02</ele>
        <time>2015-07-17T14:35:26Z</time>
      </trkpt>
      <trkpt lat="46.383660519495606" lon="12.245517717674375">
        <ele>2039.0899999999999</ele>
        <time>2015-07-17T14:35:34Z</time>
      </trkpt>
      <trkpt lat="46.383668817579746" lon="12.245508832857013">
        <ele>2039.5699999999999</ele>
        <time>2015-07-17T14:35:44Z</time>
      </trkpt>
      <trkpt lat="46.383653311058879" lon="12.24546080455184">
        <ele>2038.1300000000001</ele>
        <time>2015-07-17T14:35:53Z</time>
      </trkpt>
      <trkpt lat="46.383645515888929" lon="12.245500450953841">
        <ele>2038.1300000000001</ele>
        <time>2015-07-17T14:35:56Z</time>
      </trkpt>
      <trkpt lat="46.383608467876911" lon="12.245636573061347">
        <ele>2037.6500000000001</ele>
        <time>2015-07-17T14:36:04Z</time>
      </trkpt>
      <trkpt lat="46.383581226691604" lon="12.245905045419931">
        <ele>2038.1300000000001</ele>
        <time>2015-07-17T14:36:17Z</time>
      </trkpt>
      <trkpt lat="46.383540155366063" lon="12.24614686332643">
        <ele>2037.6500000000001</ele>
        <time>2015-07-17T14:36:30Z</time>
      </trkpt>
      <trkpt lat="46.383560439571738" lon="12.246372923254967">
        <ele>2037.6500000000001</ele>
        <time>2015-07-17T14:36:43Z</time>
      </trkpt>
      <trkpt lat="46.383552895858884" lon="12.246447103098035">
        <ele>2036.6900000000001</ele>
        <time>2015-07-17T14:36:53Z</time>
      </trkpt>
      <trkpt lat="46.383530851453543" lon="12.24653041921556">
        <ele>2034.29</ele>
        <time>2015-07-17T14:37:06Z</time>
      </trkpt>
      <trkpt lat="46.383520206436515" lon="12.246555481106043">
        <ele>2033.3299999999999</ele>
        <time>2015-07-17T14:37:09Z</time>
      </trkpt>
      <trkpt lat="46.383501766249537" lon="12.246585991233587">
        <ele>2032.8399999999999</ele>
        <time>2015-07-17T14:37:12Z</time>
      </trkpt>
      <trkpt lat="46.383413588628173" lon="12.246638378128409">
        <ele>2030.4400000000001</ele>
        <time>2015-07-17T14:37:22Z</time>
      </trkpt>
      <trkpt lat="46.383394561707973" lon="12.246639216318727">
        <ele>2030.4400000000001</ele>
        <time>2015-07-17T14:37:24Z</time>
      </trkpt>
      <trkpt lat="46.383356172591448" lon="12.246651872992516">
        <ele>2029.48</ele>
        <time>2015-07-17T14:37:28Z</time>
      </trkpt>
      <trkpt lat="46.383332870900631" lon="12.246659835800529">
        <ele>2028.52</ele>
        <time>2015-07-17T14:37:31Z</time>
      </trkpt>
      <trkpt lat="46.383269838988781" lon="12.246662937104702">
        <ele>2025.6400000000001</ele>
        <time>2015-07-17T14:37:41Z</time>
      </trkpt>
      <trkpt lat="46.383230946958065" lon="12.246629409492016">
        <ele>2023.23</ele>
        <time>2015-07-17T14:37:49Z</time>
      </trkpt>
      <trkpt lat="46.383161628618836" lon="12.246594792231917">
        <ele>2021.3099999999999</ele>
        <time>2015-07-17T14:37:59Z</time>
      </trkpt>
      <trkpt lat="46.383146122097969" lon="12.246590266004205">
        <ele>2020.3499999999999</ele>
        <time>2015-07-17T14:38:03Z</time>
      </trkpt>
      <trkpt lat="46.383127262815833" lon="12.246520360931754">
        <ele>2018.4300000000001</ele>
        <time>2015-07-17T14:38:12Z</time>
      </trkpt>
      <trkpt lat="46.383122568950057" lon="12.246503764763474">
        <ele>2018.4300000000001</ele>
        <time>2015-07-17T14:38:14Z</time>
      </trkpt>
      <trkpt lat="46.38311636634171" lon="12.246433608233929">
        <ele>2016.98</ele>
        <time>2015-07-17T14:38:18Z</time>
      </trkpt>
      <trkpt lat="46.383107984438539" lon="12.246265467256308">
        <ele>2014.0999999999999</ele>
        <time>2015-07-17T14:38:28Z</time>
      </trkpt>
      <trkpt lat="46.383129777386785" lon="12.246233029291034">
        <ele>2014.0999999999999</ele>
        <time>2015-07-17T14:38:37Z</time>
      </trkpt>
      <trkpt lat="46.383127514272928" lon="12.246240740641952">
        <ele>2014.0999999999999</ele>
        <time>2015-07-17T14:38:48Z</time>
      </trkpt>
      <trkpt lat="46.383116533979774" lon="12.246312825009227">
        <ele>2013.6199999999999</ele>
        <time>2015-07-17T14:38:58Z</time>
      </trkpt>
      <trkpt lat="46.383116031065583" lon="12.246286422014236">
        <ele>2013.6199999999999</ele>
        <time>2015-07-17T14:39:12Z</time>
      </trkpt>
      <trkpt lat="46.383130615577102" lon="12.246235879138112">
        <ele>2013.6199999999999</ele>
        <time>2015-07-17T14:39:20Z</time>
      </trkpt>
      <trkpt lat="46.383150648325682" lon="12.246193382889032">
        <ele>2012.6600000000001</ele>
        <time>2015-07-17T14:39:27Z</time>
      </trkpt>
      <trkpt lat="46.38315006159246" lon="12.246111575514078">
        <ele>2011.22</ele>
        <time>2015-07-17T14:39:31Z</time>
      </trkpt>
      <trkpt lat="46.383092394098639" lon="12.245929352939129">
        <ele>2007.3699999999999</ele>
        <time>2015-07-17T14:39:41Z</time>
      </trkpt>
      <trkpt lat="46.383054675534368" lon="12.245846455916762">
        <ele>2005.45</ele>
        <time>2015-07-17T14:39:46Z</time>
      </trkpt>
      <trkpt lat="46.383014023303986" lon="12.245644619688392">
        <ele>2002.0799999999999</ele>
        <time>2015-07-17T14:39:57Z</time>
      </trkpt>
      <trkpt lat="46.383012849837542" lon="12.245624922215939">
        <ele>2001.5999999999999</ele>
        <time>2015-07-17T14:39:58Z</time>
      </trkpt>
      <trkpt lat="46.382995415478945" lon="12.245612433180213">
        <ele>2001.5999999999999</ele>
        <time>2015-07-17T14:40:00Z</time>
      </trkpt>
      <trkpt lat="46.382948393002152" lon="12.245818292722106">
        <ele>1998.72</ele>
        <time>2015-07-17T14:40:11Z</time>
      </trkpt>
      <trkpt lat="46.382943950593472" lon="12.245839834213257">
        <ele>1998.72</ele>
        <time>2015-07-17T14:40:12Z</time>
      </trkpt>
      <trkpt lat="46.382859880104661" lon="12.246029181405902">
        <ele>1996.8</ele>
        <time>2015-07-17T14:40:23Z</time>
      </trkpt>
      <trkpt lat="46.382802044972777" lon="12.245945194736123">
        <ele>1994.3900000000001</ele>
        <time>2015-07-17T14:40:30Z</time>
      </trkpt>
      <trkpt lat="46.382804978638887" lon="12.245886018499732">
        <ele>1993.4300000000001</ele>
        <time>2015-07-17T14:40:33Z</time>
      </trkpt>
      <trkpt lat="46.382788382470608" lon="12.24579893052578">
        <ele>1991.99</ele>
        <time>2015-07-17T14:40:37Z</time>
      </trkpt>
      <trkpt lat="46.382787292823195" lon="12.245772527530789">
        <ele>1991.99</ele>
        <time>2015-07-17T14:40:38Z</time>
      </trkpt>
      <trkpt lat="46.382790058851242" lon="12.245748974382877">
        <ele>1991.99</ele>
        <time>2015-07-17T14:40:39Z</time>
      </trkpt>
      <trkpt lat="46.382791483774781" lon="12.245725924149156">
        <ele>1991.51</ele>
        <time>2015-07-17T14:40:40Z</time>
      </trkpt>
      <trkpt lat="46.382793495431542" lon="12.245702119544148">
        <ele>1991.03</ele>
        <time>2015-07-17T14:40:41Z</time>
      </trkpt>
      <trkpt lat="46.382793327793479" lon="12.245680578052998">
        <ele>1991.03</ele>
        <time>2015-07-17T14:40:42Z</time>
      </trkpt>
      <trkpt lat="46.382788717746735" lon="12.245660629123449">
        <ele>1991.03</ele>
        <time>2015-07-17T14:40:43Z</time>
      </trkpt>
      <trkpt lat="46.382804391905665" lon="12.245502462610602">
        <ele>1988.6199999999999</ele>
        <time>2015-07-17T14:40:52Z</time>
      </trkpt>
      <trkpt lat="46.382832638919353" lon="12.245409591123462">
        <ele>1986.22</ele>
        <time>2015-07-17T14:40:59Z</time>
      </trkpt>
      <trkpt lat="46.382843954488635" lon="12.245362317189574">
        <ele>1985.74</ele>
        <time>2015-07-17T14:41:01Z</time>
      </trkpt>
      <trkpt lat="46.382937747985125" lon="12.245158217847347">
        <ele>1983.3399999999999</ele>
        <time>2015-07-17T14:41:12Z</time>
      </trkpt>
      <trkpt lat="46.382991224527359" lon="12.244992256164551">
        <ele>1980.45</ele>
        <time>2015-07-17T14:41:23Z</time>
      </trkpt>
      <trkpt lat="46.382998768240213" lon="12.244947077706456">
        <ele>1979.49</ele>
        <time>2015-07-17T14:41:26Z</time>
      </trkpt>
      <trkpt lat="46.383007820695639" lon="12.244738703593612">
        <ele>1976.1300000000001</ele>
        <time>2015-07-17T14:41:38Z</time>
      </trkpt>
      <trkpt lat="46.383016118779778" lon="12.244566371664405">
        <ele>1973.72</ele>
        <time>2015-07-17T14:41:50Z</time>
      </trkpt>
      <trkpt lat="46.383015783503652" lon="12.244519768282771">
        <ele>1972.76</ele>
        <time>2015-07-17T14:41:53Z</time>
      </trkpt>
      <trkpt lat="46.382999354973435" lon="12.24427149631083">
        <ele>1969.4000000000001</ele>
        <time>2015-07-17T14:42:06Z</time>
      </trkpt>
      <trkpt lat="46.382995080202818" lon="12.244195975363255">
        <ele>1968.4400000000001</ele>
        <time>2015-07-17T14:42:12Z</time>
      </trkpt>
      <trkpt lat="46.382996588945389" lon="12.244124645367265">
        <ele>1967.48</ele>
        <time>2015-07-17T14:42:23Z</time>
      </trkpt>
      <trkpt lat="46.382977562025189" lon="12.24406773224473">
        <ele>1967.48</ele>
        <time>2015-07-17T14:42:51Z</time>
      </trkpt>
      <trkpt lat="46.382997510954738" lon="12.244235202670097">
        <ele>1967.96</ele>
        <time>2015-07-17T14:43:04Z</time>
      </trkpt>
      <trkpt lat="46.382936490699649" lon="12.244431842118502">
        <ele>1965.0699999999999</ele>
        <time>2015-07-17T14:43:16Z</time>
      </trkpt>
      <trkpt lat="46.382919726893306" lon="12.24447182379663">
        <ele>1964.5899999999999</ele>
        <time>2015-07-17T14:43:19Z</time>
      </trkpt>
      <trkpt lat="46.382887875661254" lon="12.244459670037031">
        <ele>1963.1500000000001</ele>
        <time>2015-07-17T14:43:22Z</time>
      </trkpt>
      <trkpt lat="46.382852420210838" lon="12.244398398324847">
        <ele>1960.75</ele>
        <time>2015-07-17T14:43:28Z</time>
      </trkpt>
      <trkpt lat="46.382833477109671" lon="12.244480289518833">
        <ele>1959.3</ele>
        <time>2015-07-17T14:43:33Z</time>
      </trkpt>
      <trkpt lat="46.382791735231876" lon="12.244672318920493">
        <ele>1956.4200000000001</ele>
        <time>2015-07-17T14:43:44Z</time>
      </trkpt>
      <trkpt lat="46.382627701386809" lon="12.244706014171243">
        <ele>1954.5</ele>
        <time>2015-07-17T14:43:56Z</time>
      </trkpt>
      <trkpt lat="46.382615631446242" lon="12.244712971150875">
        <ele>1954.02</ele>
        <time>2015-07-17T14:43:57Z</time>
      </trkpt>
      <trkpt lat="46.382601046934724" lon="12.244679443538189">
        <ele>1954.02</ele>
        <time>2015-07-17T14:44:02Z</time>
      </trkpt>
      <trkpt lat="46.382615128532052" lon="12.244575005024672">
        <ele>1950.6500000000001</ele>
        <time>2015-07-17T14:44:05Z</time>
      </trkpt>
      <trkpt lat="46.382619068026543" lon="12.244543991982937">
        <ele>1950.1700000000001</ele>
        <time>2015-07-17T14:44:06Z</time>
      </trkpt>
      <trkpt lat="46.382623091340065" lon="12.244525887072086">
        <ele>1949.6900000000001</ele>
        <time>2015-07-17T14:44:07Z</time>
      </trkpt>
      <trkpt lat="46.382629880681634" lon="12.244511051103473">
        <ele>1949.21</ele>
        <time>2015-07-17T14:44:08Z</time>
      </trkpt>
      <trkpt lat="46.382643459364772" lon="12.244384568184614">
        <ele>1946.8099999999999</ele>
        <time>2015-07-17T14:44:17Z</time>
      </trkpt>
      <trkpt lat="46.382641950622201" lon="12.244368894025683">
        <ele>1947.29</ele>
        <time>2015-07-17T14:44:18Z</time>
      </trkpt>
      <trkpt lat="46.382647985592484" lon="12.244336791336536">
        <ele>1946.8099999999999</ele>
        <time>2015-07-17T14:44:20Z</time>
      </trkpt>
      <trkpt lat="46.382690817117691" lon="12.244181726127863">
        <ele>1944.4000000000001</ele>
        <time>2015-07-17T14:44:30Z</time>
      </trkpt>
      <trkpt lat="46.382685620337725" lon="12.244019536301494">
        <ele>1941.52</ele>
        <time>2015-07-17T14:44:39Z</time>
      </trkpt>
      <trkpt lat="46.382680339738727" lon="12.243995228782296">
        <ele>1941.04</ele>
        <time>2015-07-17T14:44:41Z</time>
      </trkpt>
      <trkpt lat="46.382674807682633" lon="12.243982991203666">
        <ele>1941.04</ele>
        <time>2015-07-17T14:44:42Z</time>
      </trkpt>
      <trkpt lat="46.382669946178794" lon="12.243969161063433">
        <ele>1941.04</ele>
        <time>2015-07-17T14:44:43Z</time>
      </trkpt>
      <trkpt lat="46.382663575932384" lon="12.243953738361597">
        <ele>1941.04</ele>
        <time>2015-07-17T14:44:44Z</time>
      </trkpt>
      <trkpt lat="46.382652595639229" lon="12.243928425014019">
        <ele>1940.5599999999999</ele>
        <time>2015-07-17T14:44:46Z</time>
      </trkpt>
      <trkpt lat="46.382650416344404" lon="12.243911828845739">
        <ele>1940.5599999999999</ele>
        <time>2015-07-17T14:44:47Z</time>
      </trkpt>
      <trkpt lat="46.382647398859262" lon="12.243894981220365">
        <ele>1939.5999999999999</ele>
        <time>2015-07-17T14:44:48Z</time>
      </trkpt>
      <trkpt lat="46.38253927230835" lon="12.24372860044241">
        <ele>1939.1199999999999</ele>
        <time>2015-07-17T14:45:00Z</time>
      </trkpt>
      <trkpt lat="46.382505493238568" lon="12.243690295144916">
        <ele>1938.6400000000001</ele>
        <time>2015-07-17T14:45:12Z</time>
      </trkpt>
      <trkpt lat="46.382450172677636" lon="12.243556268513203">
        <ele>1937.1900000000001</ele>
        <time>2015-07-17T14:45:22Z</time>
      </trkpt>
      <trkpt lat="46.382429217919707" lon="12.243393659591675">
        <ele>1933.8299999999999</ele>
        <time>2015-07-17T14:45:30Z</time>
      </trkpt>
      <trkpt lat="46.382429050281644" lon="12.243355354294181">
        <ele>1933.3499999999999</ele>
        <time>2015-07-17T14:45:32Z</time>
      </trkpt>
      <trkpt lat="46.382400467991829" lon="12.243114626035094">
        <ele>1929.98</ele>
        <time>2015-07-17T14:45:42Z</time>
      </trkpt>
      <trkpt lat="46.382380854338408" lon="12.242956291884184">
        <ele>1928.0599999999999</ele>
        <time>2015-07-17T14:45:52Z</time>
      </trkpt>
      <trkpt lat="46.38234824873507" lon="12.242923602461815">
        <ele>1928.0599999999999</ele>
        <time>2015-07-17T14:45:56Z</time>
      </trkpt>
      <trkpt lat="46.382340788841248" lon="12.242910107597709">
        <ele>1928.0599999999999</ele>
        <time>2015-07-17T14:45:57Z</time>
      </trkpt>
      <trkpt lat="46.382245067507029" lon="12.24284078925848">
        <ele>1928.0599999999999</ele>
        <time>2015-07-17T14:46:08Z</time>
      </trkpt>
      <trkpt lat="46.382193267345428" lon="12.242785133421421">
        <ele>1926.6199999999999</ele>
        <time>2015-07-17T14:46:13Z</time>
      </trkpt>
      <trkpt lat="46.382169127464294" lon="12.242746325209737">
        <ele>1927.0999999999999</ele>
        <time>2015-07-17T14:46:17Z</time>
      </trkpt>
      <trkpt lat="46.382129145786166" lon="12.242710199207067">
        <ele>1927.0999999999999</ele>
        <time>2015-07-17T14:46:21Z</time>
      </trkpt>
      <trkpt lat="46.382118165493011" lon="12.242696704342961">
        <ele>1926.6199999999999</ele>
        <time>2015-07-17T14:46:22Z</time>
      </trkpt>
      <trkpt lat="46.382109448313713" lon="12.24268538877368">
        <ele>1926.6199999999999</ele>
        <time>2015-07-17T14:46:23Z</time>
      </trkpt>
      <trkpt lat="46.382101401686668" lon="12.242672648280859">
        <ele>1926.6199999999999</ele>
        <time>2015-07-17T14:46:24Z</time>
      </trkpt>
      <trkpt lat="46.382094444707036" lon="12.242662841454148">
        <ele>1927.0999999999999</ele>
        <time>2015-07-17T14:46:25Z</time>
      </trkpt>
      <trkpt lat="46.381980702280998" lon="12.242569215595722">
        <ele>1925.6600000000001</ele>
        <time>2015-07-17T14:46:35Z</time>
      </trkpt>
      <trkpt lat="46.381912473589182" lon="12.242535268887877">
        <ele>1924.7</ele>
        <time>2015-07-17T14:46:40Z</time>
      </trkpt>
      <trkpt lat="46.381872408092022" lon="12.242524372413754">
        <ele>1924.22</ele>
        <time>2015-07-17T14:46:44Z</time>
      </trkpt>
      <trkpt lat="46.381848268210888" lon="12.242518588900566">
        <ele>1923.25</ele>
        <time>2015-07-17T14:46:46Z</time>
      </trkpt>
      <trkpt lat="46.381675014272332" lon="12.242488078773022">
        <ele>1919.8900000000001</ele>
        <time>2015-07-17T14:46:59Z</time>
      </trkpt>
      <trkpt lat="46.381540568545461" lon="12.242380706593394">
        <ele>1918.45</ele>
        <time>2015-07-17T14:47:12Z</time>
      </trkpt>
      <trkpt lat="46.381505699828267" lon="12.242370396852493">
        <ele>1917.49</ele>
        <time>2015-07-17T14:47:15Z</time>
      </trkpt>
      <trkpt lat="46.381469573825598" lon="12.242306945845485">
        <ele>1917.01</ele>
        <time>2015-07-17T14:47:19Z</time>
      </trkpt>
      <trkpt lat="46.381503352895379" lon="12.242140900343657">
        <ele>1915.0799999999999</ele>
        <time>2015-07-17T14:47:28Z</time>
      </trkpt>
      <trkpt lat="46.381540233269334" lon="12.241983655840158">
        <ele>1913.6400000000001</ele>
        <time>2015-07-17T14:47:37Z</time>
      </trkpt>
      <trkpt lat="46.381560601294041" lon="12.241940908133984">
        <ele>1912.6800000000001</ele>
        <time>2015-07-17T14:47:40Z</time>
      </trkpt>
      <trkpt lat="46.381602426990867" lon="12.241851137951016">
        <ele>1911.24</ele>
        <time>2015-07-17T14:47:49Z</time>
      </trkpt>
      <trkpt lat="46.38151902705431" lon="12.241744436323643">
        <ele>1909.3199999999999</ele>
        <time>2015-07-17T14:47:59Z</time>
      </trkpt>
      <trkpt lat="46.38149606063962" lon="12.241649134084582">
        <ele>1908.3499999999999</ele>
        <time>2015-07-17T14:48:04Z</time>
      </trkpt>
      <trkpt lat="46.381533276289701" lon="12.241522651165724">
        <ele>1906.4300000000001</ele>
        <time>2015-07-17T14:48:12Z</time>
      </trkpt>
      <trkpt lat="46.381490109488368" lon="12.241426762193441">
        <ele>1904.51</ele>
        <time>2015-07-17T14:48:19Z</time>
      </trkpt>
      <trkpt lat="46.381437974050641" lon="12.241379823535681">
        <ele>1902.5899999999999</ele>
        <time>2015-07-17T14:48:24Z</time>
      </trkpt>
      <trkpt lat="46.381296068429947" lon="12.241369765251875">
        <ele>1901.1400000000001</ele>
        <time>2015-07-17T14:48:37Z</time>
      </trkpt>
      <trkpt lat="46.381210405379534" lon="12.241249233484268">
        <ele>1898.74</ele>
        <time>2015-07-17T14:48:47Z</time>
      </trkpt>
      <trkpt lat="46.381185678765178" lon="12.241135910153389">
        <ele>1895.8599999999999</ele>
        <time>2015-07-17T14:48:59Z</time>
      </trkpt>
      <trkpt lat="46.381139410659671" lon="12.241211179643869">
        <ele>1894.4200000000001</ele>
        <time>2015-07-17T14:49:10Z</time>
      </trkpt>
      <trkpt lat="46.381123904138803" lon="12.241192739456892">
        <ele>1892.49</ele>
        <time>2015-07-17T14:49:20Z</time>
      </trkpt>
      <trkpt lat="46.381113762035966" lon="12.241142196580768">
        <ele>1892.01</ele>
        <time>2015-07-17T14:49:29Z</time>
      </trkpt>
      <trkpt lat="46.381006389856339" lon="12.241041027009487">
        <ele>1888.6500000000001</ele>
        <time>2015-07-17T14:49:39Z</time>
      </trkpt>
      <trkpt lat="46.380939334630966" lon="12.241004649549723">
        <ele>1886.72</ele>
        <time>2015-07-17T14:49:46Z</time>
      </trkpt>
      <trkpt lat="46.380874961614609" lon="12.240889817476273">
        <ele>1885.28</ele>
        <time>2015-07-17T14:49:54Z</time>
      </trkpt>
      <trkpt lat="46.380784856155515" lon="12.240761825814843">
        <ele>1882.8800000000001</ele>
        <time>2015-07-17T14:50:04Z</time>
      </trkpt>
      <trkpt lat="46.380775971338153" lon="12.240756712853909">
        <ele>1882.8800000000001</ele>
        <time>2015-07-17T14:50:05Z</time>
      </trkpt>
      <trkpt lat="46.380729619413614" lon="12.240733997896314">
        <ele>1881.9200000000001</ele>
        <time>2015-07-17T14:50:09Z</time>
      </trkpt>
      <trkpt lat="46.380623001605272" lon="12.240651100873947">
        <ele>1880.48</ele>
        <time>2015-07-17T14:50:19Z</time>
      </trkpt>
      <trkpt lat="46.380580505356193" lon="12.240624027326703">
        <ele>1880.48</ele>
        <time>2015-07-17T14:50:22Z</time>
      </trkpt>
      <trkpt lat="46.380418818444014" lon="12.240551272407174">
        <ele>1877.5899999999999</ele>
        <time>2015-07-17T14:50:35Z</time>
      </trkpt>
      <trkpt lat="46.380407754331827" lon="12.240541214123368">
        <ele>1877.5899999999999</ele>
        <time>2015-07-17T14:50:36Z</time>
      </trkpt>
      <trkpt lat="46.380382943898439" lon="12.240549176931381">
        <ele>1875.6700000000001</ele>
        <time>2015-07-17T14:50:45Z</time>
      </trkpt>
      <trkpt lat="46.380516132339835" lon="12.240726454183459">
        <ele>1872.3</ele>
        <time>2015-07-17T14:51:00Z</time>
      </trkpt>
      <trkpt lat="46.380588971078396" lon="12.240851512178779">
        <ele>1869.9000000000001</ele>
        <time>2015-07-17T14:51:10Z</time>
      </trkpt>
      <trkpt lat="46.38068737462163" lon="12.241002889350057">
        <ele>1867.98</ele>
        <time>2015-07-17T14:51:21Z</time>
      </trkpt>
      <trkpt lat="46.380679495632648" lon="12.241056114435196">
        <ele>1866.0599999999999</ele>
        <time>2015-07-17T14:51:28Z</time>
      </trkpt>
      <trkpt lat="46.380545469000936" lon="12.24100305698812">
        <ele>1863.6500000000001</ele>
        <time>2015-07-17T14:51:41Z</time>
      </trkpt>
      <trkpt lat="46.380484364926815" lon="12.240988640114665">
        <ele>1860.29</ele>
        <time>2015-07-17T14:51:47Z</time>
      </trkpt>
      <trkpt lat="46.380429128184915" lon="12.240961650386453">
        <ele>1859.3299999999999</ele>
        <time>2015-07-17T14:51:53Z</time>
      </trkpt>
      <trkpt lat="46.380311781540513" lon="12.240942120552063">
        <ele>1857.4000000000001</ele>
        <time>2015-07-17T14:52:02Z</time>
      </trkpt>
      <trkpt lat="46.380153279751539" lon="12.240913035348058">
        <ele>1854.52</ele>
        <time>2015-07-17T14:52:13Z</time>
      </trkpt>
      <trkpt lat="46.380071304738522" lon="12.240919908508658">
        <ele>1853.0799999999999</ele>
        <time>2015-07-17T14:52:20Z</time>
      </trkpt>
      <trkpt lat="46.38002771884203" lon="12.240950334817171">
        <ele>1851.1600000000001</ele>
        <time>2015-07-17T14:52:29Z</time>
      </trkpt>
      <trkpt lat="46.380152190104127" lon="12.240988807752728">
        <ele>1847.79</ele>
        <time>2015-07-17T14:52:41Z</time>
      </trkpt>
      <trkpt lat="46.38025788590312" lon="12.241072375327349">
        <ele>1845.8699999999999</ele>
        <time>2015-07-17T14:52:51Z</time>
      </trkpt>
      <trkpt lat="46.380265848711133" lon="12.241072626784444">
        <ele>1845.3900000000001</ele>
        <time>2015-07-17T14:52:54Z</time>
      </trkpt>
      <trkpt lat="46.380342040210962" lon="12.241191901266575">
        <ele>1844.4300000000001</ele>
        <time>2015-07-17T14:53:05Z</time>
      </trkpt>
      <trkpt lat="46.380310440436006" lon="12.241161558777094">
        <ele>1843.47</ele>
        <time>2015-07-17T14:53:10Z</time>
      </trkpt>
      <trkpt lat="46.380285210907459" lon="12.241157703101635">
        <ele>1842.98</ele>
        <time>2015-07-17T14:53:12Z</time>
      </trkpt>
      <trkpt lat="46.380242127925158" lon="12.241127192974091">
        <ele>1842.02</ele>
        <time>2015-07-17T14:53:16Z</time>
      </trkpt>
      <trkpt lat="46.380152860656381" lon="12.241141777485609">
        <ele>1840.0999999999999</ele>
        <time>2015-07-17T14:53:28Z</time>
      </trkpt>
      <trkpt lat="46.380203822627664" lon="12.241158289834857">
        <ele>1838.6600000000001</ele>
        <time>2015-07-17T14:53:35Z</time>
      </trkpt>
      <trkpt lat="46.380271296948195" lon="12.241264237090945">
        <ele>1836.74</ele>
        <time>2015-07-17T14:53:46Z</time>
      </trkpt>
      <trkpt lat="46.380198877304792" lon="12.241246970370412">
        <ele>1834.3299999999999</ele>
        <time>2015-07-17T14:53:57Z</time>
      </trkpt>
      <trkpt lat="46.380207343026996" lon="12.241254262626171">
        <ele>1833.8499999999999</ele>
        <time>2015-07-17T14:53:58Z</time>
      </trkpt>
      <trkpt lat="46.380241625010967" lon="12.241303129121661">
        <ele>1832.8900000000001</ele>
        <time>2015-07-17T14:54:02Z</time>
      </trkpt>
      <trkpt lat="46.380332568660378" lon="12.24144721403718">
        <ele>1830.49</ele>
        <time>2015-07-17T14:54:13Z</time>
      </trkpt>
      <trkpt lat="46.380386715754867" lon="12.24153958261013">
        <ele>1829.53</ele>
        <time>2015-07-17T14:54:19Z</time>
      </trkpt>
      <trkpt lat="46.380452094599605" lon="12.241785507649183">
        <ele>1827.5999999999999</ele>
        <time>2015-07-17T14:54:32Z</time>
      </trkpt>
      <trkpt lat="46.38042451813817" lon="12.241788441315293">
        <ele>1826.6400000000001</ele>
        <time>2015-07-17T14:54:36Z</time>
      </trkpt>
      <trkpt lat="46.380339022725821" lon="12.241716692224145">
        <ele>1822.8</ele>
        <time>2015-07-17T14:54:47Z</time>
      </trkpt>
      <trkpt lat="46.380295269191265" lon="12.241714261472225">
        <ele>1819.9100000000001</ele>
        <time>2015-07-17T14:54:55Z</time>
      </trkpt>
      <trkpt lat="46.380304908379912" lon="12.241758937016129">
        <ele>1818.95</ele>
        <time>2015-07-17T14:54:58Z</time>
      </trkpt>
      <trkpt lat="46.380353439599276" lon="12.241977537050843">
        <ele>1816.55</ele>
        <time>2015-07-17T14:55:10Z</time>
      </trkpt>
      <trkpt lat="46.380403395742178" lon="12.242185240611434">
        <ele>1813.6600000000001</ele>
        <time>2015-07-17T14:55:22Z</time>
      </trkpt>
      <trkpt lat="46.380367688834667" lon="12.242195634171367">
        <ele>1812.7</ele>
        <time>2015-07-17T14:55:30Z</time>
      </trkpt>
      <trkpt lat="46.380293760448694" lon="12.242089938372374">
        <ele>1811.26</ele>
        <time>2015-07-17T14:55:39Z</time>
      </trkpt>
      <trkpt lat="46.380249923095107" lon="12.242057584226131">
        <ele>1810.3</ele>
        <time>2015-07-17T14:55:46Z</time>
      </trkpt>
      <trkpt lat="46.380220167338848" lon="12.242092117667198">
        <ele>1807.9000000000001</ele>
        <time>2015-07-17T14:55:54Z</time>
      </trkpt>
      <trkpt lat="46.380300549790263" lon="12.242324715480208">
        <ele>1805.97</ele>
        <time>2015-07-17T14:56:07Z</time>
      </trkpt>
      <trkpt lat="46.380311362445354" lon="12.242422783747315">
        <ele>1804.53</ele>
        <time>2015-07-17T14:56:11Z</time>
      </trkpt>
      <trkpt lat="46.380307171493769" lon="12.242439966648817">
        <ele>1804.53</ele>
        <time>2015-07-17T14:56:12Z</time>
      </trkpt>
      <trkpt lat="46.380292838439345" lon="12.242661332711577">
        <ele>1802.1300000000001</ele>
        <time>2015-07-17T14:56:25Z</time>
      </trkpt>
      <trkpt lat="46.380306081846356" lon="12.24284028634429">
        <ele>1798.76</ele>
        <time>2015-07-17T14:56:37Z</time>
      </trkpt>
      <trkpt lat="46.380300549790263" lon="12.242968529462814">
        <ele>1796.8399999999999</ele>
        <time>2015-07-17T14:56:45Z</time>
      </trkpt>
      <trkpt lat="46.380310356616974" lon="12.243182435631752">
        <ele>1793.48</ele>
        <time>2015-07-17T14:56:58Z</time>
      </trkpt>
      <trkpt lat="46.380314966663718" lon="12.243233816698194">
        <ele>1793</ele>
        <time>2015-07-17T14:57:01Z</time>
      </trkpt>
      <trkpt lat="46.380292754620314" lon="12.24333330988884">
        <ele>1790.5899999999999</ele>
        <time>2015-07-17T14:57:12Z</time>
      </trkpt>
      <trkpt lat="46.380280265584588" lon="12.243302799761295">
        <ele>1789.6300000000001</ele>
        <time>2015-07-17T14:57:14Z</time>
      </trkpt>
      <trkpt lat="46.380202230066061" lon="12.243113033473492">
        <ele>1787.23</ele>
        <time>2015-07-17T14:57:27Z</time>
      </trkpt>
      <trkpt lat="46.380129307508469" lon="12.242972049862146">
        <ele>1785.3099999999999</ele>
        <time>2015-07-17T14:57:38Z</time>
      </trkpt>
      <trkpt lat="46.380135593935847" lon="12.243008678779006">
        <ele>1783.8599999999999</ele>
        <time>2015-07-17T14:57:45Z</time>
      </trkpt>
      <trkpt lat="46.380172725766897" lon="12.243183692917228">
        <ele>1781.9400000000001</ele>
        <time>2015-07-17T14:57:56Z</time>
      </trkpt>
      <trkpt lat="46.380191585049033" lon="12.243372788652778">
        <ele>1779.54</ele>
        <time>2015-07-17T14:58:08Z</time>
      </trkpt>
      <trkpt lat="46.380159398540854" lon="12.243408663198352">
        <ele>1778.5799999999999</ele>
        <time>2015-07-17T14:58:14Z</time>
      </trkpt>
      <trkpt lat="46.380154453217983" lon="12.243390306830406">
        <ele>1778.5799999999999</ele>
        <time>2015-07-17T14:58:15Z</time>
      </trkpt>
      <trkpt lat="46.38014892116189" lon="12.243375051766634">
        <ele>1778.5799999999999</ele>
        <time>2015-07-17T14:58:16Z</time>
      </trkpt>
      <trkpt lat="46.380142467096448" lon="12.243363233283162">
        <ele>1778.0999999999999</ele>
        <time>2015-07-17T14:58:17Z</time>
      </trkpt>
      <trkpt lat="46.380138276144862" lon="12.243347140029073">
        <ele>1778.0999999999999</ele>
        <time>2015-07-17T14:58:18Z</time>
      </trkpt>
      <trkpt lat="46.380134420469403" lon="12.243330124765635">
        <ele>1778.0999999999999</ele>
        <time>2015-07-17T14:58:19Z</time>
      </trkpt>
      <trkpt lat="46.380067365244031" lon="12.243153266608715">
        <ele>1776.6500000000001</ele>
        <time>2015-07-17T14:58:31Z</time>
      </trkpt>
      <trkpt lat="46.380002154037356" lon="12.242983868345618">
        <ele>1775.6900000000001</ele>
        <time>2015-07-17T14:58:43Z</time>
      </trkpt>
      <trkpt lat="46.379984887316823" lon="12.242881525307894">
        <ele>1775.21</ele>
        <time>2015-07-17T14:58:51Z</time>
      </trkpt>
      <trkpt lat="46.379975248128176" lon="12.242702068760991">
        <ele>1772.8099999999999</ele>
        <time>2015-07-17T14:59:01Z</time>
      </trkpt>
      <trkpt lat="46.37996275909245" lon="12.242704331874847">
        <ele>1772.3299999999999</ele>
        <time>2015-07-17T14:59:05Z</time>
      </trkpt>
      <trkpt lat="46.379960076883435" lon="12.242725118994713">
        <ele>1771.8499999999999</ele>
        <time>2015-07-17T14:59:06Z</time>
      </trkpt>
      <trkpt lat="46.379944486543536" lon="12.242922764271498">
        <ele>1770.4100000000001</ele>
        <time>2015-07-17T14:59:16Z</time>
      </trkpt>
      <trkpt lat="46.379944570362568" lon="12.242939108982682">
        <ele>1770.4100000000001</ele>
        <time>2015-07-17T14:59:17Z</time>
      </trkpt>
      <trkpt lat="46.379960076883435" lon="12.243128037080169">
        <ele>1769.4400000000001</ele>
        <time>2015-07-17T14:59:28Z</time>
      </trkpt>
      <trkpt lat="46.379993185400963" lon="12.243269272148609">
        <ele>1767.52</ele>
        <time>2015-07-17T14:59:39Z</time>
      </trkpt>
      <trkpt lat="46.379999974742532" lon="12.243307325989008">
        <ele>1767.52</ele>
        <time>2015-07-17T14:59:41Z</time>
      </trkpt>
      <trkpt lat="46.380001734942198" lon="12.243325933814049">
        <ele>1767.04</ele>
        <time>2015-07-17T14:59:42Z</time>
      </trkpt>
      <trkpt lat="46.379995197057724" lon="12.243534391745925">
        <ele>1764.1600000000001</ele>
        <time>2015-07-17T14:59:55Z</time>
      </trkpt>
      <trkpt lat="46.37995689176023" lon="12.243543611839414">
        <ele>1762.71</ele>
        <time>2015-07-17T15:00:01Z</time>
      </trkpt>
      <trkpt lat="46.379904421046376" lon="12.243338255211711">
        <ele>1761.27</ele>
        <time>2015-07-17T15:00:14Z</time>
      </trkpt>
      <trkpt lat="46.379860918968916" lon="12.243278240785003">
        <ele>1759.8299999999999</ele>
        <time>2015-07-17T15:00:24Z</time>
      </trkpt>
      <trkpt lat="46.379849687218666" lon="12.243339847773314">
        <ele>1756.47</ele>
        <time>2015-07-17T15:00:35Z</time>
      </trkpt>
      <trkpt lat="46.379868127405643" lon="12.243430707603693">
        <ele>1754.0599999999999</ele>
        <time>2015-07-17T15:00:45Z</time>
      </trkpt>
      <trkpt lat="46.379841053858399" lon="12.243478400632739">
        <ele>1752.1400000000001</ele>
        <time>2015-07-17T15:00:54Z</time>
      </trkpt>
      <trkpt lat="46.379831833764911" lon="12.243552329018712">
        <ele>1749.74</ele>
        <time>2015-07-17T15:01:05Z</time>
      </trkpt>
      <trkpt lat="46.379804844036698" lon="12.243636986240745">
        <ele>1747.8099999999999</ele>
        <time>2015-07-17T15:01:13Z</time>
      </trkpt>
      <trkpt lat="46.379803419113159" lon="12.243650481104851">
        <ele>1747.8099999999999</ele>
        <time>2015-07-17T15:01:14Z</time>
      </trkpt>
      <trkpt lat="46.379801155999303" lon="12.243664478883147">
        <ele>1747.8099999999999</ele>
        <time>2015-07-17T15:01:15Z</time>
      </trkpt>
      <trkpt lat="46.379798809066415" lon="12.243680655956268">
        <ele>1747.3299999999999</ele>
        <time>2015-07-17T15:01:16Z</time>
      </trkpt>
      <trkpt lat="46.379762347787619" lon="12.243849635124207">
        <ele>1745.4100000000001</ele>
        <time>2015-07-17T15:01:27Z</time>
      </trkpt>
      <trkpt lat="46.379760000854731" lon="12.244003610685468">
        <ele>1744.45</ele>
        <time>2015-07-17T15:01:38Z</time>
      </trkpt>
      <trkpt lat="46.379775255918503" lon="12.244207039475441">
        <ele>1743.01</ele>
        <time>2015-07-17T15:01:49Z</time>
      </trkpt>
      <trkpt lat="46.379753211513162" lon="12.244275938719511">
        <ele>1741.0799999999999</ele>
        <time>2015-07-17T15:01:58Z</time>
      </trkpt>
      <trkpt lat="46.379741560667753" lon="12.244209386408329">
        <ele>1742.05</ele>
        <time>2015-07-17T15:02:11Z</time>
      </trkpt>
      <trkpt lat="46.379772489890456" lon="12.244200753048062">
        <ele>1741.0799999999999</ele>
        <time>2015-07-17T15:02:26Z</time>
      </trkpt>
      <trkpt lat="46.379711385816336" lon="12.244205446913838">
        <ele>1741.0799999999999</ele>
        <time>2015-07-17T15:02:42Z</time>
      </trkpt>
      <trkpt lat="46.379688754677773" lon="12.244164375588298">
        <ele>1740.5999999999999</ele>
        <time>2015-07-17T15:02:53Z</time>
      </trkpt>
      <trkpt lat="46.379672829061747" lon="12.244095727801323">
        <ele>1739.1600000000001</ele>
        <time>2015-07-17T15:03:00Z</time>
      </trkpt>
      <trkpt lat="46.379663525149226" lon="12.244078712537885">
        <ele>1739.1600000000001</ele>
        <time>2015-07-17T15:03:01Z</time>
      </trkpt>
      <trkpt lat="46.379615748301148" lon="12.243955414742231">
        <ele>1736.76</ele>
        <time>2015-07-17T15:03:11Z</time>
      </trkpt>
      <trkpt lat="46.379619687795639" lon="12.243971675634384">
        <ele>1735.8</ele>
        <time>2015-07-17T15:03:21Z</time>
      </trkpt>
      <trkpt lat="46.379629829898477" lon="12.244072090834379">
        <ele>1734.8399999999999</ele>
        <time>2015-07-17T15:03:28Z</time>
      </trkpt>
      <trkpt lat="46.379623794928193" lon="12.244266215711832">
        <ele>1732.9100000000001</ele>
        <time>2015-07-17T15:03:39Z</time>
      </trkpt>
      <trkpt lat="46.379640055820346" lon="12.244440643116832">
        <ele>1731.47</ele>
        <time>2015-07-17T15:03:50Z</time>
      </trkpt>
      <trkpt lat="46.379707278683782" lon="12.244555139914155">
        <ele>1730.03</ele>
        <time>2015-07-17T15:04:00Z</time>
      </trkpt>
      <trkpt lat="46.379713481292129" lon="12.2445631865412">
        <ele>1730.03</ele>
        <time>2015-07-17T15:04:01Z</time>
      </trkpt>
      <trkpt lat="46.379721695557237" lon="12.244571819901466">
        <ele>1729.55</ele>
        <time>2015-07-17T15:04:02Z</time>
      </trkpt>
      <trkpt lat="46.379730748012662" lon="12.244580704718828">
        <ele>1729.0699999999999</ele>
        <time>2015-07-17T15:04:03Z</time>
      </trkpt>
      <trkpt lat="46.379784308373928" lon="12.244635270908475">
        <ele>1729.0699999999999</ele>
        <time>2015-07-17T15:04:08Z</time>
      </trkpt>
      <trkpt lat="46.379797384142876" lon="12.244642311707139">
        <ele>1729.0699999999999</ele>
        <time>2015-07-17T15:04:09Z</time>
      </trkpt>
      <trkpt lat="46.379808951169252" lon="12.24465211853385">
        <ele>1729.0699999999999</ele>
        <time>2015-07-17T15:04:10Z</time>
      </trkpt>
      <trkpt lat="46.379828732460737" lon="12.244677683338523">
        <ele>1730.51</ele>
        <time>2015-07-17T15:04:12Z</time>
      </trkpt>
      <trkpt lat="46.379834432154894" lon="12.2446926869452">
        <ele>1730.03</ele>
        <time>2015-07-17T15:04:13Z</time>
      </trkpt>
      <trkpt lat="46.379890842363238" lon="12.244870299473405">
        <ele>1730.51</ele>
        <time>2015-07-17T15:04:25Z</time>
      </trkpt>
      <trkpt lat="46.379912467673421" lon="12.24496484734118">
        <ele>1730.03</ele>
        <time>2015-07-17T15:04:36Z</time>
      </trkpt>
      <trkpt lat="46.379914060235023" lon="12.244978006929159">
        <ele>1730.03</ele>
        <time>2015-07-17T15:04:37Z</time>
      </trkpt>
      <trkpt lat="46.379921771585941" lon="12.245019329711795">
        <ele>1730.03</ele>
        <time>2015-07-17T15:04:40Z</time>
      </trkpt>
      <trkpt lat="46.379922777414322" lon="12.245068280026317">
        <ele>1730.03</ele>
        <time>2015-07-17T15:04:43Z</time>
      </trkpt>
      <trkpt lat="46.379919592291117" lon="12.245085965842009">
        <ele>1729.55</ele>
        <time>2015-07-17T15:04:44Z</time>
      </trkpt>
      <trkpt lat="46.379909701645374" lon="12.245104406028986">
        <ele>1729.55</ele>
        <time>2015-07-17T15:04:45Z</time>
      </trkpt>
      <trkpt lat="46.379892937839031" lon="12.245157044380903">
        <ele>1729.0699999999999</ele>
        <time>2015-07-17T15:04:48Z</time>
      </trkpt>
      <trkpt lat="46.379868378862739" lon="12.245226111263037">
        <ele>1728.5899999999999</ele>
        <time>2015-07-17T15:04:52Z</time>
      </trkpt>
      <trkpt lat="46.37984205968678" lon="12.245342452079058">
        <ele>1727.6300000000001</ele>
        <time>2015-07-17T15:05:00Z</time>
      </trkpt>
      <trkpt lat="46.379845244809985" lon="12.245359132066369">
        <ele>1727.1500000000001</ele>
        <time>2015-07-17T15:05:01Z</time>
      </trkpt>
      <trkpt lat="46.379816997796297" lon="12.245449740439653">
        <ele>1725.22</ele>
        <time>2015-07-17T15:05:11Z</time>
      </trkpt>
      <trkpt lat="46.379803419113159" lon="12.245473796501756">
        <ele>1724.74</ele>
        <time>2015-07-17T15:05:13Z</time>
      </trkpt>
      <trkpt lat="46.379762347787619" lon="12.245569517835975">
        <ele>1722.8199999999999</ele>
        <time>2015-07-17T15:05:24Z</time>
      </trkpt>
      <trkpt lat="46.379703423008323" lon="12.24561620503664">
        <ele>1720.9000000000001</ele>
        <time>2015-07-17T15:05:35Z</time>
      </trkpt>
      <trkpt lat="46.379628069698811" lon="12.245684852823615">
        <ele>1719.46</ele>
        <time>2015-07-17T15:05:42Z</time>
      </trkpt>
      <trkpt lat="46.379553973674774" lon="12.245824327692389">
        <ele>1717.53</ele>
        <time>2015-07-17T15:05:53Z</time>
      </trkpt>
      <trkpt lat="46.379530588164926" lon="12.24585953168571">
        <ele>1717.05</ele>
        <time>2015-07-17T15:05:56Z</time>
      </trkpt>
      <trkpt lat="46.379407122731209" lon="12.245968077331781">
        <ele>1716.0899999999999</ele>
        <time>2015-07-17T15:06:08Z</time>
      </trkpt>
      <trkpt lat="46.379380468279123" lon="12.246000012382865">
        <ele>1716.0899999999999</ele>
        <time>2015-07-17T15:06:11Z</time>
      </trkpt>
      <trkpt lat="46.379370242357254" lon="12.246011663228273">
        <ele>1716.0899999999999</ele>
        <time>2015-07-17T15:06:12Z</time>
      </trkpt>
      <trkpt lat="46.379357920959592" lon="12.246025409549475">
        <ele>1716.5699999999999</ele>
        <time>2015-07-17T15:06:13Z</time>
      </trkpt>
      <trkpt lat="46.379248956218362" lon="12.246136972680688">
        <ele>1714.1700000000001</ele>
        <time>2015-07-17T15:06:24Z</time>
      </trkpt>
      <trkpt lat="46.379181146621704" lon="12.246229173615575">
        <ele>1713.6900000000001</ele>
        <time>2015-07-17T15:06:33Z</time>
      </trkpt>
      <trkpt lat="46.379089280962944" lon="12.246378706768155">
        <ele>1713.21</ele>
        <time>2015-07-17T15:06:44Z</time>
      </trkpt>
      <trkpt lat="46.37905441224575" lon="12.246531676501036">
        <ele>1710.3199999999999</ele>
        <time>2015-07-17T15:06:54Z</time>
      </trkpt>
      <trkpt lat="46.379034882411361" lon="12.246756982058287">
        <ele>1707.9200000000001</ele>
        <time>2015-07-17T15:07:06Z</time>
      </trkpt>
      <trkpt lat="46.378956846892834" lon="12.246952448040247">
        <ele>1706.48</ele>
        <time>2015-07-17T15:07:18Z</time>
      </trkpt>
      <trkpt lat="46.378938155248761" lon="12.24696971476078">
        <ele>1706.48</ele>
        <time>2015-07-17T15:07:20Z</time>
      </trkpt>
      <trkpt lat="46.378805804997683" lon="12.247033584862947">
        <ele>1705.52</ele>
        <time>2015-07-17T15:07:33Z</time>
      </trkpt>
      <trkpt lat="46.37865568511188" lon="12.247038278728724">
        <ele>1704.0699999999999</ele>
        <time>2015-07-17T15:07:46Z</time>
      </trkpt>
      <trkpt lat="46.378522077575326" lon="12.247002739459276">
        <ele>1703.1099999999999</ele>
        <time>2015-07-17T15:07:58Z</time>
      </trkpt>
      <trkpt lat="46.378511935472488" lon="12.247001314535737">
        <ele>1703.1099999999999</ele>
        <time>2015-07-17T15:07:59Z</time>
      </trkpt>
      <trkpt lat="46.378427529707551" lon="12.247053198516369">
        <ele>1702.1500000000001</ele>
        <time>2015-07-17T15:08:07Z</time>
      </trkpt>
      <trkpt lat="46.378321079537272" lon="12.247191416099668">
        <ele>1700.71</ele>
        <time>2015-07-17T15:08:18Z</time>
      </trkpt>
      <trkpt lat="46.378286127001047" lon="12.247260818257928">
        <ele>1699.75</ele>
        <time>2015-07-17T15:08:23Z</time>
      </trkpt>
      <trkpt lat="46.378197614103556" lon="12.247383026406169">
        <ele>1698.3099999999999</ele>
        <time>2015-07-17T15:08:33Z</time>
      </trkpt>
      <trkpt lat="46.378089571371675" lon="12.247503558173776">
        <ele>1696.3800000000001</ele>
        <time>2015-07-17T15:08:44Z</time>
      </trkpt>
      <trkpt lat="46.378050092607737" lon="12.247530799359083">
        <ele>1696.3800000000001</ele>
        <time>2015-07-17T15:08:47Z</time>
      </trkpt>
      <trkpt lat="46.377980774268508" lon="12.247573966160417">
        <ele>1695.9000000000001</ele>
        <time>2015-07-17T15:08:53Z</time>
      </trkpt>
      <trkpt lat="46.377937691286206" lon="12.247646553441882">
        <ele>1694.9400000000001</ele>
        <time>2015-07-17T15:08:59Z</time>
      </trkpt>
      <trkpt lat="46.37790123000741" lon="12.247866578400135">
        <ele>1692.54</ele>
        <time>2015-07-17T15:09:13Z</time>
      </trkpt>
      <trkpt lat="46.377905756235123" lon="12.247912092134356">
        <ele>1692.0599999999999</ele>
        <time>2015-07-17T15:09:16Z</time>
      </trkpt>
      <trkpt lat="46.377885220572352" lon="12.248088950291276">
        <ele>1690.1400000000001</ele>
        <time>2015-07-17T15:09:25Z</time>
      </trkpt>
      <trkpt lat="46.377847334370017" lon="12.248293720185757">
        <ele>1688.21</ele>
        <time>2015-07-17T15:09:37Z</time>
      </trkpt>
      <trkpt lat="46.377844735980034" lon="12.248439732939005">
        <ele>1686.77</ele>
        <time>2015-07-17T15:09:46Z</time>
      </trkpt>
      <trkpt lat="46.377844484522939" lon="12.248456664383411">
        <ele>1686.29</ele>
        <time>2015-07-17T15:09:47Z</time>
      </trkpt>
      <trkpt lat="46.377832163125277" lon="12.248594127595425">
        <ele>1685.3299999999999</ele>
        <time>2015-07-17T15:09:54Z</time>
      </trkpt>
      <trkpt lat="46.377798384055495" lon="12.248768471181393">
        <ele>1683.4100000000001</ele>
        <time>2015-07-17T15:10:05Z</time>
      </trkpt>
      <trkpt lat="46.377779440954328" lon="12.248815577477217">
        <ele>1682.9300000000001</ele>
        <time>2015-07-17T15:10:08Z</time>
      </trkpt>
      <trkpt lat="46.377743566408753" lon="12.248852206394076">
        <ele>1682.9300000000001</ele>
        <time>2015-07-17T15:10:11Z</time>
      </trkpt>
      <trkpt lat="46.377682881429791" lon="12.249018922448158">
        <ele>1680.52</ele>
        <time>2015-07-17T15:10:24Z</time>
      </trkpt>
      <trkpt lat="46.377665279433131" lon="12.24896527826786">
        <ele>1680.04</ele>
        <time>2015-07-17T15:10:33Z</time>
      </trkpt>
      <trkpt lat="46.377641558647156" lon="12.248850027099252">
        <ele>1677.6400000000001</ele>
        <time>2015-07-17T15:10:42Z</time>
      </trkpt>
      <trkpt lat="46.377621693536639" lon="12.248868886381388">
        <ele>1675.72</ele>
        <time>2015-07-17T15:10:53Z</time>
      </trkpt>
      <trkpt lat="46.377556817606091" lon="12.248952789232135">
        <ele>1673.3099999999999</ele>
        <time>2015-07-17T15:11:03Z</time>
      </trkpt>
      <trkpt lat="46.377529660239816" lon="12.248967038467526">
        <ele>1671.8699999999999</ele>
        <time>2015-07-17T15:11:07Z</time>
      </trkpt>
      <trkpt lat="46.377530246973038" lon="12.248906856402755">
        <ele>1671.3900000000001</ele>
        <time>2015-07-17T15:11:11Z</time>
      </trkpt>
      <trkpt lat="46.377511471509933" lon="12.248872825875878">
        <ele>1669.47</ele>
        <time>2015-07-17T15:11:20Z</time>
      </trkpt>
      <trkpt lat="46.377473920583725" lon="12.249009367078543">
        <ele>1667.54</ele>
        <time>2015-07-17T15:11:30Z</time>
      </trkpt>
      <trkpt lat="46.37745363637805" lon="12.248984137549996">
        <ele>1666.0999999999999</ele>
        <time>2015-07-17T15:11:39Z</time>
      </trkpt>
      <trkpt lat="46.377449277788401" lon="12.248942647129297">
        <ele>1665.6199999999999</ele>
        <time>2015-07-17T15:11:50Z</time>
      </trkpt>
      <trkpt lat="46.377442739903927" lon="12.248830245807767">
        <ele>1663.22</ele>
        <time>2015-07-17T15:12:01Z</time>
      </trkpt>
      <trkpt lat="46.377405188977718" lon="12.24893594160676">
        <ele>1660.8099999999999</ele>
        <time>2015-07-17T15:12:12Z</time>
      </trkpt>
      <trkpt lat="46.377413487061858" lon="12.248895205557346">
        <ele>1658.8900000000001</ele>
        <time>2015-07-17T15:12:19Z</time>
      </trkpt>
      <trkpt lat="46.377355316653848" lon="12.248954465612769">
        <ele>1656.97</ele>
        <time>2015-07-17T15:12:29Z</time>
      </trkpt>
      <trkpt lat="46.377322962507606" lon="12.249089078977704">
        <ele>1655.05</ele>
        <time>2015-07-17T15:12:38Z</time>
      </trkpt>
      <trkpt lat="46.377310724928975" lon="12.249132161960006">
        <ele>1654.0899999999999</ele>
        <time>2015-07-17T15:12:41Z</time>
      </trkpt>
      <trkpt lat="46.377292033284903" lon="12.249198043718934">
        <ele>1654.5699999999999</ele>
        <time>2015-07-17T15:12:50Z</time>
      </trkpt>
      <trkpt lat="46.377295972779393" lon="12.24922469817102">
        <ele>1654.0899999999999</ele>
        <time>2015-07-17T15:12:52Z</time>
      </trkpt>
      <trkpt lat="46.377312988042831" lon="12.249462576583028">
        <ele>1652.6400000000001</ele>
        <time>2015-07-17T15:13:06Z</time>
      </trkpt>
      <trkpt lat="46.377279879525304" lon="12.249658545479178">
        <ele>1650.72</ele>
        <time>2015-07-17T15:13:18Z</time>
      </trkpt>
      <trkpt lat="46.377277197316289" lon="12.249674974009395">
        <ele>1650.24</ele>
        <time>2015-07-17T15:13:19Z</time>
      </trkpt>
      <trkpt lat="46.377236964181066" lon="12.249871026724577">
        <ele>1648.8</ele>
        <time>2015-07-17T15:13:31Z</time>
      </trkpt>
      <trkpt lat="46.377185750752687" lon="12.250115610659122">
        <ele>1646.8800000000001</ele>
        <time>2015-07-17T15:13:44Z</time>
      </trkpt>
      <trkpt lat="46.377072092145681" lon="12.250311998650432">
        <ele>1644.47</ele>
        <time>2015-07-17T15:13:58Z</time>
      </trkpt>
      <trkpt lat="46.376937730237842" lon="12.250382490456104">
        <ele>1642.55</ele>
        <time>2015-07-17T15:14:09Z</time>
      </trkpt>
      <trkpt lat="46.376776127144694" lon="12.250476451590657">
        <ele>1641.1099999999999</ele>
        <time>2015-07-17T15:14:24Z</time>
      </trkpt>
      <trkpt lat="46.376729188486934" lon="12.250689351931214">
        <ele>1639.6700000000001</ele>
        <time>2015-07-17T15:14:37Z</time>
      </trkpt>
      <trkpt lat="46.376725835725665" lon="12.250708378851414">
        <ele>1639.1900000000001</ele>
        <time>2015-07-17T15:14:38Z</time>
      </trkpt>
      <trkpt lat="46.376629862934351" lon="12.250996045768261">
        <ele>1636.78</ele>
        <time>2015-07-17T15:14:54Z</time>
      </trkpt>
      <trkpt lat="46.376537326723337" lon="12.251184806227684">
        <ele>1635.3399999999999</ele>
        <time>2015-07-17T15:15:06Z</time>
      </trkpt>
      <trkpt lat="46.376422243192792" lon="12.251351857557893">
        <ele>1633.9000000000001</ele>
        <time>2015-07-17T15:15:18Z</time>
      </trkpt>
      <trkpt lat="46.376323839649558" lon="12.251533325761557">
        <ele>1631.98</ele>
        <time>2015-07-17T15:15:31Z</time>
      </trkpt>
      <trkpt lat="46.37630925513804" lon="12.25163416005671">
        <ele>1631.01</ele>
        <time>2015-07-17T15:15:42Z</time>
      </trkpt>
      <trkpt lat="46.376302214339375" lon="12.251640278846025">
        <ele>1631.01</ele>
        <time>2015-07-17T15:15:55Z</time>
      </trkpt>
      <trkpt lat="46.376293078064919" lon="12.251634076237679">
        <ele>1631.01</ele>
        <time>2015-07-17T15:15:59Z</time>
      </trkpt>
      <trkpt lat="46.37627019546926" lon="12.251626448705792">
        <ele>1630.53</ele>
        <time>2015-07-17T15:16:07Z</time>
      </trkpt>
      <trkpt lat="46.37626918964088" lon="12.251632483676076">
        <ele>1631.01</ele>
        <time>2015-07-17T15:16:08Z</time>
      </trkpt>
      <trkpt lat="46.376176234334707" lon="12.25180515088141">
        <ele>1629.5699999999999</ele>
        <time>2015-07-17T15:16:21Z</time>
      </trkpt>
      <trkpt lat="46.376124182716012" lon="12.252015369012952">
        <ele>1628.1300000000001</ele>
        <time>2015-07-17T15:16:33Z</time>
      </trkpt>
      <trkpt lat="46.37613239698112" lon="12.252175211906433">
        <ele>1626.21</ele>
        <time>2015-07-17T15:16:41Z</time>
      </trkpt>
      <trkpt lat="46.376205235719681" lon="12.252382580190897">
        <ele>1624.28</ele>
        <time>2015-07-17T15:16:54Z</time>
      </trkpt>
      <trkpt lat="46.37631319463253" lon="12.252577794715762">
        <ele>1622.3599999999999</ele>
        <time>2015-07-17T15:17:06Z</time>
      </trkpt>
      <trkpt lat="46.376419980078936" lon="12.252731854096055">
        <ele>1620.9200000000001</ele>
        <time>2015-07-17T15:17:17Z</time>
      </trkpt>
      <trkpt lat="46.376535817980766" lon="12.252903012558818">
        <ele>1618.52</ele>
        <time>2015-07-17T15:17:30Z</time>
      </trkpt>
      <trkpt lat="46.376583678647876" lon="12.253134101629257">
        <ele>1616.5899999999999</ele>
        <time>2015-07-17T15:17:43Z</time>
      </trkpt>
      <trkpt lat="46.376518383622169" lon="12.25340592674911">
        <ele>1614.6700000000001</ele>
        <time>2015-07-17T15:17:58Z</time>
      </trkpt>
      <trkpt lat="46.376420650631189" lon="12.253571301698685">
        <ele>1613.23</ele>
        <time>2015-07-17T15:18:10Z</time>
      </trkpt>
      <trkpt lat="46.376374633982778" lon="12.253661155700684">
        <ele>1611.79</ele>
        <time>2015-07-17T15:18:17Z</time>
      </trkpt>
      <trkpt lat="46.376337418332696" lon="12.253740951418877">
        <ele>1611.3099999999999</ele>
        <time>2015-07-17T15:18:21Z</time>
      </trkpt>
      <trkpt lat="46.376230213791132" lon="12.253918899223208">
        <ele>1609.3800000000001</ele>
        <time>2015-07-17T15:18:34Z</time>
      </trkpt>
      <trkpt lat="46.37611772865057" lon="12.254117466509342">
        <ele>1607.46</ele>
        <time>2015-07-17T15:18:46Z</time>
      </trkpt>
      <trkpt lat="46.376097360625863" lon="12.254174882546067">
        <ele>1606.98</ele>
        <time>2015-07-17T15:18:49Z</time>
      </trkpt>
      <trkpt lat="46.376050673425198" lon="12.25432257167995">
        <ele>1606.02</ele>
        <time>2015-07-17T15:18:59Z</time>
      </trkpt>
      <trkpt lat="46.375990575179458" lon="12.254525581374764">
        <ele>1604.0999999999999</ele>
        <time>2015-07-17T15:19:10Z</time>
      </trkpt>
      <trkpt lat="46.375970207154751" lon="12.25461476482451">
        <ele>1603.6199999999999</ele>
        <time>2015-07-17T15:19:15Z</time>
      </trkpt>
      <trkpt lat="46.375943971797824" lon="12.25486982613802">
        <ele>1601.6900000000001</ele>
        <time>2015-07-17T15:19:28Z</time>
      </trkpt>
      <trkpt lat="46.375924693420529" lon="12.255102340131998">
        <ele>1599.77</ele>
        <time>2015-07-17T15:19:40Z</time>
      </trkpt>
      <trkpt lat="46.3758744020015" lon="12.255313480272889">
        <ele>1597.8499999999999</ele>
        <time>2015-07-17T15:19:51Z</time>
      </trkpt>
      <trkpt lat="46.375789744779468" lon="12.255519591271877">
        <ele>1596.4100000000001</ele>
        <time>2015-07-17T15:20:04Z</time>
      </trkpt>
      <trkpt lat="46.375725790858269" lon="12.255709609016776">
        <ele>1594.48</ele>
        <time>2015-07-17T15:20:17Z</time>
      </trkpt>
      <trkpt lat="46.375649934634566" lon="12.255896022543311">
        <ele>1593.04</ele>
        <time>2015-07-17T15:20:27Z</time>
      </trkpt>
      <trkpt lat="46.375611713156104" lon="12.256096182391047">
        <ele>1591.5999999999999</ele>
        <time>2015-07-17T15:20:38Z</time>
      </trkpt>
      <trkpt lat="46.375608611851931" lon="12.256134068593383">
        <ele>1591.1199999999999</ele>
        <time>2015-07-17T15:20:40Z</time>
      </trkpt>
      <trkpt lat="46.375615568831563" lon="12.256213948130608">
        <ele>1590.6400000000001</ele>
        <time>2015-07-17T15:20:44Z</time>
      </trkpt>
      <trkpt lat="46.375597966834903" lon="12.25645593367517">
        <ele>1588.24</ele>
        <time>2015-07-17T15:20:56Z</time>
      </trkpt>
      <trkpt lat="46.375533761456609" lon="12.25667973048985">
        <ele>1587.27</ele>
        <time>2015-07-17T15:21:08Z</time>
      </trkpt>
      <trkpt lat="46.375520601868629" lon="12.256965469568968">
        <ele>1584.8699999999999</ele>
        <time>2015-07-17T15:21:21Z</time>
      </trkpt>
      <trkpt lat="46.375501910224557" lon="12.257207203656435">
        <ele>1582.95</ele>
        <time>2015-07-17T15:21:33Z</time>
      </trkpt>
      <trkpt lat="46.375482212752104" lon="12.257563602179289">
        <ele>1581.03</ele>
        <time>2015-07-17T15:21:50Z</time>
      </trkpt>
      <trkpt lat="46.375436531379819" lon="12.257906589657068">
        <ele>1578.1400000000001</ele>
        <time>2015-07-17T15:22:07Z</time>
      </trkpt>
      <trkpt lat="46.375416247174144" lon="12.258229795843363">
        <ele>1575.26</ele>
        <time>2015-07-17T15:22:23Z</time>
      </trkpt>
      <trkpt lat="46.375411972403526" lon="12.258248990401626">
        <ele>1575.26</ele>
        <time>2015-07-17T15:22:24Z</time>
      </trkpt>
      <trkpt lat="46.375294709578156" lon="12.258488042280078">
        <ele>1572.8499999999999</ele>
        <time>2015-07-17T15:22:38Z</time>
      </trkpt>
      <trkpt lat="46.375205107033253" lon="12.258737152442336">
        <ele>1570.9300000000001</ele>
        <time>2015-07-17T15:22:52Z</time>
      </trkpt>
      <trkpt lat="46.375199491158128" lon="12.258795825764537">
        <ele>1570.45</ele>
        <time>2015-07-17T15:22:55Z</time>
      </trkpt>
      <trkpt lat="46.375164203345776" lon="12.259123222902417">
        <ele>1568.53</ele>
        <time>2015-07-17T15:23:11Z</time>
      </trkpt>
      <trkpt lat="46.375107122585177" lon="12.259413823485374">
        <ele>1566.6099999999999</ele>
        <time>2015-07-17T15:23:26Z</time>
      </trkpt>
      <trkpt lat="46.375083150342107" lon="12.259692186489701">
        <ele>1564.2</ele>
        <time>2015-07-17T15:23:41Z</time>
      </trkpt>
      <trkpt lat="46.375079462304711" lon="12.259867619723082">
        <ele>1563.24</ele>
        <time>2015-07-17T15:23:51Z</time>
      </trkpt>
      <trkpt lat="46.375030176714063" lon="12.260123435407877">
        <ele>1561.3199999999999</ele>
        <time>2015-07-17T15:24:06Z</time>
      </trkpt>
      <trkpt lat="46.375026572495699" lon="12.260142043232918">
        <ele>1561.8</ele>
        <time>2015-07-17T15:24:07Z</time>
      </trkpt>
      <trkpt lat="46.374860862269998" lon="12.260287469252944">
        <ele>1559.4000000000001</ele>
        <time>2015-07-17T15:24:21Z</time>
      </trkpt>
      <trkpt lat="46.374784670770168" lon="12.26038352586329">
        <ele>1558.4300000000001</ele>
        <time>2015-07-17T15:24:29Z</time>
      </trkpt>
      <trkpt lat="46.374808056280017" lon="12.260595755651593">
        <ele>1557.47</ele>
        <time>2015-07-17T15:24:44Z</time>
      </trkpt>
      <trkpt lat="46.374816773459315" lon="12.260614447295666">
        <ele>1557.47</ele>
        <time>2015-07-17T15:24:56Z</time>
      </trkpt>
      <trkpt lat="46.374840075150132" lon="12.260632636025548">
        <ele>1557.47</ele>
        <time>2015-07-17T15:25:00Z</time>
      </trkpt>
      <trkpt lat="46.375179961323738" lon="12.260762974619865">
        <ele>1560.3599999999999</ele>
        <time>2015-07-17T15:25:28Z</time>
      </trkpt>
    </trkseg>
  </trk>

  <trk>
    <name>8tappa2015-07-18</name>
    <extensions>
      <gpxx:TrackExtension>
        <gpxx:DisplayColor>Yellow</gpxx:DisplayColor>
      </gpxx:TrackExtension>
      <gpxtrkx:TrackStatsExtension xmlns:gpxtrkx="http://www.garmin.com/xmlschemas/TrackStatsExtension/v1">
        <gpxtrkx:Distance>12171</gpxtrkx:Distance>
        <gpxtrkx:TotalElapsedTime>20321</gpxtrkx:TotalElapsedTime>
        <gpxtrkx:MovingTime>12847</gpxtrkx:MovingTime>
        <gpxtrkx:StoppedTime>7465</gpxtrkx:StoppedTime>
        <gpxtrkx:MovingSpeed>1</gpxtrkx:MovingSpeed>
        <gpxtrkx:MaxSpeed>2</gpxtrkx:MaxSpeed>
        <gpxtrkx:MaxElevation>2007</gpxtrkx:MaxElevation>
        <gpxtrkx:MinElevation>862</gpxtrkx:MinElevation>
        <gpxtrkx:Ascent>525</gpxtrkx:Ascent>
        <gpxtrkx:Descent>1207</gpxtrkx:Descent>
        <gpxtrkx:AvgAscentRate>0</gpxtrkx:AvgAscentRate>
        <gpxtrkx:MaxAscentRate>0</gpxtrkx:MaxAscentRate>
        <gpxtrkx:AvgDescentRate>0</gpxtrkx:AvgDescentRate>
        <gpxtrkx:MaxDescentRate>-1</gpxtrkx:MaxDescentRate>
      </gpxtrkx:TrackStatsExtension>
    </extensions>
    <trkseg>
      <trkpt lat="46.374683752655983" lon="12.260306747630239">
        <ele>1544.5</ele>
        <time>2015-07-18T06:12:15Z</time>
      </trkpt>
      <trkpt lat="46.374677801504731" lon="12.260294929146767">
        <ele>1544.5</ele>
        <time>2015-07-18T06:12:16Z</time>
      </trkpt>
      <trkpt lat="46.374669671058655" lon="12.260250672698021">
        <ele>1543.05</ele>
        <time>2015-07-18T06:12:20Z</time>
      </trkpt>
      <trkpt lat="46.37460445985198" lon="12.260139863938093">
        <ele>1543.53</ele>
        <time>2015-07-18T06:12:32Z</time>
      </trkpt>
      <trkpt lat="46.374512929469347" lon="12.260018829256296">
        <ele>1543.53</ele>
        <time>2015-07-18T06:12:45Z</time>
      </trkpt>
      <trkpt lat="46.374507397413254" lon="12.260007094591856">
        <ele>1543.53</ele>
        <time>2015-07-18T06:12:46Z</time>
      </trkpt>
      <trkpt lat="46.374493986368179" lon="12.259958731010556">
        <ele>1543.53</ele>
        <time>2015-07-18T06:12:49Z</time>
      </trkpt>
      <trkpt lat="46.374407149851322" lon="12.259886059910059">
        <ele>1543.53</ele>
        <time>2015-07-18T06:12:58Z</time>
      </trkpt>
      <trkpt lat="46.374355601146817" lon="12.259808778762817">
        <ele>1543.53</ele>
        <time>2015-07-18T06:13:04Z</time>
      </trkpt>
      <trkpt lat="46.374310674145818" lon="12.259736945852637">
        <ele>1543.53</ele>
        <time>2015-07-18T06:13:10Z</time>
      </trkpt>
      <trkpt lat="46.374225094914436" lon="12.259557573124766">
        <ele>1543.53</ele>
        <time>2015-07-18T06:13:24Z</time>
      </trkpt>
      <trkpt lat="46.374096348881721" lon="12.259384235367179">
        <ele>1543.05</ele>
        <time>2015-07-18T06:13:39Z</time>
      </trkpt>
      <trkpt lat="46.374033568426967" lon="12.259395467117429">
        <ele>1543.53</ele>
        <time>2015-07-18T06:13:45Z</time>
      </trkpt>
      <trkpt lat="46.373980594798923" lon="12.259438131004572">
        <ele>1543.53</ele>
        <time>2015-07-18T06:13:50Z</time>
      </trkpt>
      <trkpt lat="46.373817818239331" lon="12.25945514626801">
        <ele>1542.0899999999999</ele>
        <time>2015-07-18T06:14:04Z</time>
      </trkpt>
      <trkpt lat="46.373767191544175" lon="12.259431760758162">
        <ele>1542.0899999999999</ele>
        <time>2015-07-18T06:14:13Z</time>
      </trkpt>
      <trkpt lat="46.373608689755201" lon="12.25938524119556">
        <ele>1540.6500000000001</ele>
        <time>2015-07-18T06:14:27Z</time>
      </trkpt>
      <trkpt lat="46.373485643416643" lon="12.259393623098731">
        <ele>1539.21</ele>
        <time>2015-07-18T06:14:38Z</time>
      </trkpt>
      <trkpt lat="46.37348011136055" lon="12.259473670274019">
        <ele>1540.1700000000001</ele>
        <time>2015-07-18T06:14:47Z</time>
      </trkpt>
      <trkpt lat="46.373476004227996" lon="12.25947760976851">
        <ele>1540.1700000000001</ele>
        <time>2015-07-18T06:14:49Z</time>
      </trkpt>
      <trkpt lat="46.373316999524832" lon="12.259335033595562">
        <ele>1538.73</ele>
        <time>2015-07-18T06:15:03Z</time>
      </trkpt>
      <trkpt lat="46.3731356151402" lon="12.259225733578205">
        <ele>1538.25</ele>
        <time>2015-07-18T06:15:18Z</time>
      </trkpt>
      <trkpt lat="46.373028829693794" lon="12.259059520438313">
        <ele>1538.25</ele>
        <time>2015-07-18T06:15:32Z</time>
      </trkpt>
      <trkpt lat="46.372973928228021" lon="12.258809572085738">
        <ele>1538.25</ele>
        <time>2015-07-18T06:15:47Z</time>
      </trkpt>
      <trkpt lat="46.372887510806322" lon="12.258600192144513">
        <ele>1538.25</ele>
        <time>2015-07-18T06:16:01Z</time>
      </trkpt>
      <trkpt lat="46.372802769765258" lon="12.258427608758211">
        <ele>1538.73</ele>
        <time>2015-07-18T06:16:14Z</time>
      </trkpt>
      <trkpt lat="46.372727081179619" lon="12.258281093090773">
        <ele>1539.6900000000001</ele>
        <time>2015-07-18T06:16:26Z</time>
      </trkpt>
      <trkpt lat="46.372645022347569" lon="12.25813583470881">
        <ele>1539.6900000000001</ele>
        <time>2015-07-18T06:16:38Z</time>
      </trkpt>
      <trkpt lat="46.37260009534657" lon="12.258100798353553">
        <ele>1539.6900000000001</ele>
        <time>2015-07-18T06:16:43Z</time>
      </trkpt>
      <trkpt lat="46.372500015422702" lon="12.258085878565907">
        <ele>1541.1300000000001</ele>
        <time>2015-07-18T06:16:54Z</time>
      </trkpt>
      <trkpt lat="46.372406808659434" lon="12.25812217220664">
        <ele>1542.0899999999999</ele>
        <time>2015-07-18T06:17:05Z</time>
      </trkpt>
      <trkpt lat="46.372327264398336" lon="12.258164752274752">
        <ele>1543.53</ele>
        <time>2015-07-18T06:17:17Z</time>
      </trkpt>
      <trkpt lat="46.372211594134569" lon="12.258151844143867">
        <ele>1544.98</ele>
        <time>2015-07-18T06:17:28Z</time>
      </trkpt>
      <trkpt lat="46.372051583603024" lon="12.258078921586275">
        <ele>1545.46</ele>
        <time>2015-07-18T06:17:42Z</time>
      </trkpt>
      <trkpt lat="46.371931303292513" lon="12.258055536076427">
        <ele>1546.4200000000001</ele>
        <time>2015-07-18T06:17:55Z</time>
      </trkpt>
      <trkpt lat="46.371819069609046" lon="12.258077329024673">
        <ele>1547.3800000000001</ele>
        <time>2015-07-18T06:18:07Z</time>
      </trkpt>
      <trkpt lat="46.37170197442174" lon="12.258142875507474">
        <ele>1547.8599999999999</ele>
        <time>2015-07-18T06:18:18Z</time>
      </trkpt>
      <trkpt lat="46.371596697717905" lon="12.258199620991945">
        <ele>1549.3</ele>
        <time>2015-07-18T06:18:31Z</time>
      </trkpt>
      <trkpt lat="46.371533498167992" lon="12.258394500240684">
        <ele>1550.74</ele>
        <time>2015-07-18T06:18:46Z</time>
      </trkpt>
      <trkpt lat="46.371529307216406" lon="12.258426435291767">
        <ele>1550.74</ele>
        <time>2015-07-18T06:18:48Z</time>
      </trkpt>
      <trkpt lat="46.371522853150964" lon="12.258493071421981">
        <ele>1551.22</ele>
        <time>2015-07-18T06:18:52Z</time>
      </trkpt>
      <trkpt lat="46.371518326923251" lon="12.258527940139174">
        <ele>1551.22</ele>
        <time>2015-07-18T06:18:54Z</time>
      </trkpt>
      <trkpt lat="46.371474405750632" lon="12.258596252650023">
        <ele>1550.26</ele>
        <time>2015-07-18T06:19:00Z</time>
      </trkpt>
      <trkpt lat="46.371358064934611" lon="12.2585887927562">
        <ele>1551.71</ele>
        <time>2015-07-18T06:19:11Z</time>
      </trkpt>
      <trkpt lat="46.371257063001394" lon="12.258518720045686">
        <ele>1553.1500000000001</ele>
        <time>2015-07-18T06:19:23Z</time>
      </trkpt>
      <trkpt lat="46.371167711913586" lon="12.258473038673401">
        <ele>1555.0699999999999</ele>
        <time>2015-07-18T06:19:35Z</time>
      </trkpt>
      <trkpt lat="46.371078779920936" lon="12.258433559909463">
        <ele>1556.99</ele>
        <time>2015-07-18T06:19:48Z</time>
      </trkpt>
      <trkpt lat="46.371032679453492" lon="12.258388213813305">
        <ele>1558.4300000000001</ele>
        <time>2015-07-18T06:19:57Z</time>
      </trkpt>
      <trkpt lat="46.370946513488889" lon="12.258240524679422">
        <ele>1560.8399999999999</ele>
        <time>2015-07-18T06:20:13Z</time>
      </trkpt>
      <trkpt lat="46.370876273140311" lon="12.258139019832015">
        <ele>1563.24</ele>
        <time>2015-07-18T06:20:25Z</time>
      </trkpt>
      <trkpt lat="46.370846098288894" lon="12.258030390366912">
        <ele>1565.6400000000001</ele>
        <time>2015-07-18T06:20:38Z</time>
      </trkpt>
      <trkpt lat="46.370804104954004" lon="12.258005579933524">
        <ele>1567.0899999999999</ele>
        <time>2015-07-18T06:20:50Z</time>
      </trkpt>
      <trkpt lat="46.370759764686227" lon="12.257996024563909">
        <ele>1568.05</ele>
        <time>2015-07-18T06:20:58Z</time>
      </trkpt>
      <trkpt lat="46.370662953704596" lon="12.258027037605643">
        <ele>1569.01</ele>
        <time>2015-07-18T06:21:10Z</time>
      </trkpt>
      <trkpt lat="46.370613584294915" lon="12.25813340395689">
        <ele>1570.45</ele>
        <time>2015-07-18T06:21:21Z</time>
      </trkpt>
      <trkpt lat="46.370593886822462" lon="12.258249577134848">
        <ele>1572.3699999999999</ele>
        <time>2015-07-18T06:21:32Z</time>
      </trkpt>
      <trkpt lat="46.370553150773048" lon="12.2583401016891">
        <ele>1573.8199999999999</ele>
        <time>2015-07-18T06:21:44Z</time>
      </trkpt>
      <trkpt lat="46.37049850076437" lon="12.258422998711467">
        <ele>1575.74</ele>
        <time>2015-07-18T06:21:55Z</time>
      </trkpt>
      <trkpt lat="46.370463632047176" lon="12.258506650105119">
        <ele>1577.6600000000001</ele>
        <time>2015-07-18T06:22:06Z</time>
      </trkpt>
      <trkpt lat="46.370409736409783" lon="12.258580243214965">
        <ele>1579.0999999999999</ele>
        <time>2015-07-18T06:22:17Z</time>
      </trkpt>
      <trkpt lat="46.37035483494401" lon="12.258629193529487">
        <ele>1581.03</ele>
        <time>2015-07-18T06:22:27Z</time>
      </trkpt>
      <trkpt lat="46.370296496897936" lon="12.258676802739501">
        <ele>1582.47</ele>
        <time>2015-07-18T06:22:37Z</time>
      </trkpt>
      <trkpt lat="46.370230028405786" lon="12.258705552667379">
        <ele>1583.9100000000001</ele>
        <time>2015-07-18T06:22:47Z</time>
      </trkpt>
      <trkpt lat="46.370133636519313" lon="12.258641766384244">
        <ele>1585.8299999999999</ele>
        <time>2015-07-18T06:23:01Z</time>
      </trkpt>
      <trkpt lat="46.3700997736305" lon="12.258564317598939">
        <ele>1587.27</ele>
        <time>2015-07-18T06:23:12Z</time>
      </trkpt>
      <trkpt lat="46.370030539110303" lon="12.258546045050025">
        <ele>1588.24</ele>
        <time>2015-07-18T06:23:21Z</time>
      </trkpt>
      <trkpt lat="46.369952587410808" lon="12.258511846885085">
        <ele>1588.24</ele>
        <time>2015-07-18T06:23:31Z</time>
      </trkpt>
      <trkpt lat="46.36986424215138" lon="12.258487623184919">
        <ele>1589.6800000000001</ele>
        <time>2015-07-18T06:23:42Z</time>
      </trkpt>
      <trkpt lat="46.369786290451884" lon="12.258486617356539">
        <ele>1590.6400000000001</ele>
        <time>2015-07-18T06:23:52Z</time>
      </trkpt>
      <trkpt lat="46.369714876636863" lon="12.258463483303785">
        <ele>1592.0799999999999</ele>
        <time>2015-07-18T06:24:02Z</time>
      </trkpt>
      <trkpt lat="46.369635835289955" lon="12.258404726162553">
        <ele>1593.52</ele>
        <time>2015-07-18T06:24:12Z</time>
      </trkpt>
      <trkpt lat="46.369574060663581" lon="12.258380586281419">
        <ele>1594.48</ele>
        <time>2015-07-18T06:24:23Z</time>
      </trkpt>
      <trkpt lat="46.36957498267293" lon="12.25837916135788">
        <ele>1594.48</ele>
        <time>2015-07-18T06:24:24Z</time>
      </trkpt>
      <trkpt lat="46.36948311701417" lon="12.258279249072075">
        <ele>1595.45</ele>
        <time>2015-07-18T06:24:35Z</time>
      </trkpt>
      <trkpt lat="46.36941228993237" lon="12.258187718689442">
        <ele>1595.9300000000001</ele>
        <time>2015-07-18T06:24:46Z</time>
      </trkpt>
      <trkpt lat="46.369347414001822" lon="12.258058469742537">
        <ele>1597.8499999999999</ele>
        <time>2015-07-18T06:24:59Z</time>
      </trkpt>
      <trkpt lat="46.369307432323694" lon="12.257980601862073">
        <ele>1598.8099999999999</ele>
        <time>2015-07-18T06:25:08Z</time>
      </trkpt>
      <trkpt lat="46.369232833385468" lon="12.257915893569589">
        <ele>1600.25</ele>
        <time>2015-07-18T06:25:20Z</time>
      </trkpt>
      <trkpt lat="46.36919092386961" lon="12.257840959355235">
        <ele>1601.6900000000001</ele>
        <time>2015-07-18T06:25:30Z</time>
      </trkpt>
      <trkpt lat="46.36918606236577" lon="12.257830062881112">
        <ele>1601.6900000000001</ele>
        <time>2015-07-18T06:25:31Z</time>
      </trkpt>
      <trkpt lat="46.369125796481967" lon="12.257724786177278">
        <ele>1603.1400000000001</ele>
        <time>2015-07-18T06:25:42Z</time>
      </trkpt>
      <trkpt lat="46.36907416395843" lon="12.257672231644392">
        <ele>1603.6199999999999</ele>
        <time>2015-07-18T06:25:50Z</time>
      </trkpt>
      <trkpt lat="46.368979532271624" lon="12.257603164762259">
        <ele>1604.0999999999999</ele>
        <time>2015-07-18T06:26:01Z</time>
      </trkpt>
      <trkpt lat="46.368895545601845" lon="12.257544156163931">
        <ele>1604.5799999999999</ele>
        <time>2015-07-18T06:26:11Z</time>
      </trkpt>
      <trkpt lat="46.368807787075639" lon="12.257470479235053">
        <ele>1606.02</ele>
        <time>2015-07-18T06:26:21Z</time>
      </trkpt>
      <trkpt lat="46.368703013285995" lon="12.257419852539897">
        <ele>1606.5</ele>
        <time>2015-07-18T06:26:32Z</time>
      </trkpt>
      <trkpt lat="46.368693793192506" lon="12.25741901434958">
        <ele>1606.5</ele>
        <time>2015-07-18T06:26:33Z</time>
      </trkpt>
      <trkpt lat="46.368571082130075" lon="12.257363023236394">
        <ele>1607.9400000000001</ele>
        <time>2015-07-18T06:26:47Z</time>
      </trkpt>
      <trkpt lat="46.368500925600529" lon="12.257316587492824">
        <ele>1609.3800000000001</ele>
        <time>2015-07-18T06:26:57Z</time>
      </trkpt>
      <trkpt lat="46.368379639461637" lon="12.257269648835063">
        <ele>1609.8599999999999</ele>
        <time>2015-07-18T06:27:11Z</time>
      </trkpt>
      <trkpt lat="46.36828601360321" lon="12.257217597216368">
        <ele>1611.79</ele>
        <time>2015-07-18T06:27:23Z</time>
      </trkpt>
      <trkpt lat="46.368253156542778" lon="12.257174849510193">
        <ele>1613.23</ele>
        <time>2015-07-18T06:27:33Z</time>
      </trkpt>
      <trkpt lat="46.368199763819575" lon="12.25714048370719">
        <ele>1614.1900000000001</ele>
        <time>2015-07-18T06:27:38Z</time>
      </trkpt>
      <trkpt lat="46.368112424388528" lon="12.257089354097843">
        <ele>1616.1099999999999</ele>
        <time>2015-07-18T06:27:48Z</time>
      </trkpt>
      <trkpt lat="46.368033466860652" lon="12.257063873112202">
        <ele>1617.5599999999999</ele>
        <time>2015-07-18T06:27:57Z</time>
      </trkpt>
      <trkpt lat="46.367960376664996" lon="12.257016096264124">
        <ele>1619.96</ele>
        <time>2015-07-18T06:28:10Z</time>
      </trkpt>
      <trkpt lat="46.367885945364833" lon="12.256940742954612">
        <ele>1621.8800000000001</ele>
        <time>2015-07-18T06:28:23Z</time>
      </trkpt>
      <trkpt lat="46.367844874039292" lon="12.25691182538867">
        <ele>1624.28</ele>
        <time>2015-07-18T06:28:31Z</time>
      </trkpt>
      <trkpt lat="46.36778418906033" lon="12.256879303604364">
        <ele>1625.25</ele>
        <time>2015-07-18T06:28:43Z</time>
      </trkpt>
      <trkpt lat="46.367723336443305" lon="12.256859941408038">
        <ele>1626.6900000000001</ele>
        <time>2015-07-18T06:28:53Z</time>
      </trkpt>
      <trkpt lat="46.367651084437966" lon="12.256898498162627">
        <ele>1628.6099999999999</ele>
        <time>2015-07-18T06:29:07Z</time>
      </trkpt>
      <trkpt lat="46.367588890716434" lon="12.256897743791342">
        <ele>1630.53</ele>
        <time>2015-07-18T06:29:18Z</time>
      </trkpt>
      <trkpt lat="46.367486799135804" lon="12.256912579759955">
        <ele>1632.46</ele>
        <time>2015-07-18T06:29:29Z</time>
      </trkpt>
      <trkpt lat="46.367411948740482" lon="12.256927164271474">
        <ele>1633.9000000000001</ele>
        <time>2015-07-18T06:29:41Z</time>
      </trkpt>
      <trkpt lat="46.367362411692739" lon="12.256882572546601">
        <ele>1635.8199999999999</ele>
        <time>2015-07-18T06:29:54Z</time>
      </trkpt>
      <trkpt lat="46.367251770570874" lon="12.25683655589819">
        <ele>1637.26</ele>
        <time>2015-07-18T06:30:07Z</time>
      </trkpt>
      <trkpt lat="46.367179350927472" lon="12.256877208128572">
        <ele>1639.1900000000001</ele>
        <time>2015-07-18T06:30:18Z</time>
      </trkpt>
      <trkpt lat="46.36712059378624" lon="12.256907215341926">
        <ele>1641.1099999999999</ele>
        <time>2015-07-18T06:30:28Z</time>
      </trkpt>
      <trkpt lat="46.367046246305108" lon="12.256861953064799">
        <ele>1642.0699999999999</ele>
        <time>2015-07-18T06:30:40Z</time>
      </trkpt>
      <trkpt lat="46.367002492770553" lon="12.256810907274485">
        <ele>1643.99</ele>
        <time>2015-07-18T06:30:51Z</time>
      </trkpt>
      <trkpt lat="46.366961672902107" lon="12.256738403812051">
        <ele>1645.9100000000001</ele>
        <time>2015-07-18T06:31:03Z</time>
      </trkpt>
      <trkpt lat="46.366894785314798" lon="12.256689537316561">
        <ele>1648.3199999999999</ele>
        <time>2015-07-18T06:31:15Z</time>
      </trkpt>
      <trkpt lat="46.366916662082076" lon="12.256613429635763">
        <ele>1650.72</ele>
        <time>2015-07-18T06:31:28Z</time>
      </trkpt>
      <trkpt lat="46.367008946835995" lon="12.256497507914901">
        <ele>1653.1199999999999</ele>
        <time>2015-07-18T06:31:43Z</time>
      </trkpt>
      <trkpt lat="46.367034679278731" lon="12.256392817944288">
        <ele>1655.05</ele>
        <time>2015-07-18T06:31:55Z</time>
      </trkpt>
      <trkpt lat="46.367063177749515" lon="12.256310004740953">
        <ele>1656.97</ele>
        <time>2015-07-18T06:32:09Z</time>
      </trkpt>
      <trkpt lat="46.36707566678524" lon="12.25618720985949">
        <ele>1658.4100000000001</ele>
        <time>2015-07-18T06:32:20Z</time>
      </trkpt>
      <trkpt lat="46.367204077541828" lon="12.256199531257153">
        <ele>1659.8499999999999</ele>
        <time>2015-07-18T06:32:32Z</time>
      </trkpt>
      <trkpt lat="46.367225116118789" lon="12.256136415526271">
        <ele>1662.26</ele>
        <time>2015-07-18T06:32:46Z</time>
      </trkpt>
      <trkpt lat="46.367141548544168" lon="12.256140355020761">
        <ele>1663.7</ele>
        <time>2015-07-18T06:32:59Z</time>
      </trkpt>
      <trkpt lat="46.367056472226977" lon="12.256118059158325">
        <ele>1666.0999999999999</ele>
        <time>2015-07-18T06:33:14Z</time>
      </trkpt>
      <trkpt lat="46.366956643760204" lon="12.25614421069622">
        <ele>1667.0599999999999</ele>
        <time>2015-07-18T06:33:24Z</time>
      </trkpt>
      <trkpt lat="46.366869136691093" lon="12.256162902340293">
        <ele>1668.99</ele>
        <time>2015-07-18T06:33:35Z</time>
      </trkpt>
      <trkpt lat="46.366820186376572" lon="12.256161393597722">
        <ele>1670.9100000000001</ele>
        <time>2015-07-18T06:33:47Z</time>
      </trkpt>
      <trkpt lat="46.36675070039928" lon="12.25612124428153">
        <ele>1671.8699999999999</ele>
        <time>2015-07-18T06:33:58Z</time>
      </trkpt>
      <trkpt lat="46.366672329604626" lon="12.256030635908246">
        <ele>1672.8299999999999</ele>
        <time>2015-07-18T06:34:12Z</time>
      </trkpt>
      <trkpt lat="46.366594545543194" lon="12.25596240721643">
        <ele>1674.27</ele>
        <time>2015-07-18T06:34:22Z</time>
      </trkpt>
      <trkpt lat="46.366575015708804" lon="12.255919324234128">
        <ele>1674.27</ele>
        <time>2015-07-18T06:34:27Z</time>
      </trkpt>
      <trkpt lat="46.366561017930508" lon="12.255893256515265">
        <ele>1674.27</ele>
        <time>2015-07-18T06:34:29Z</time>
      </trkpt>
      <trkpt lat="46.366501757875085" lon="12.255780771374702">
        <ele>1675.72</ele>
        <time>2015-07-18T06:34:40Z</time>
      </trkpt>
      <trkpt lat="46.366478120908141" lon="12.25577037781477">
        <ele>1676.2</ele>
        <time>2015-07-18T06:34:43Z</time>
      </trkpt>
      <trkpt lat="46.366399163380265" lon="12.255723103880882">
        <ele>1676.2</ele>
        <time>2015-07-18T06:34:53Z</time>
      </trkpt>
      <trkpt lat="46.366332694888115" lon="12.255651606246829">
        <ele>1676.2</ele>
        <time>2015-07-18T06:35:01Z</time>
      </trkpt>
      <trkpt lat="46.36631584726274" lon="12.255633417516947">
        <ele>1676.2</ele>
        <time>2015-07-18T06:35:03Z</time>
      </trkpt>
      <trkpt lat="46.366230938583612" lon="12.255614642053843">
        <ele>1676.2</ele>
        <time>2015-07-18T06:35:13Z</time>
      </trkpt>
      <trkpt lat="46.366141671314836" lon="12.255610702559352">
        <ele>1676.6800000000001</ele>
        <time>2015-07-18T06:35:22Z</time>
      </trkpt>
      <trkpt lat="46.366109568625689" lon="12.25561891682446">
        <ele>1676.6800000000001</ele>
        <time>2015-07-18T06:35:24Z</time>
      </trkpt>
      <trkpt lat="46.36597135104239" lon="12.255623107776046">
        <ele>1677.1600000000001</ele>
        <time>2015-07-18T06:35:38Z</time>
      </trkpt>
      <trkpt lat="46.365873031318188" lon="12.255613468587399">
        <ele>1678.1199999999999</ele>
        <time>2015-07-18T06:35:48Z</time>
      </trkpt>
      <trkpt lat="46.365787535905838" lon="12.255515903234482">
        <ele>1680.52</ele>
        <time>2015-07-18T06:36:00Z</time>
      </trkpt>
      <trkpt lat="46.365706147626042" lon="12.255578432232141">
        <ele>1681.48</ele>
        <time>2015-07-18T06:36:11Z</time>
      </trkpt>
      <trkpt lat="46.365641858428717" lon="12.255656300112605">
        <ele>1682.9300000000001</ele>
        <time>2015-07-18T06:36:25Z</time>
      </trkpt>
      <trkpt lat="46.365595506504178" lon="12.255770964547992">
        <ele>1684.8499999999999</ele>
        <time>2015-07-18T06:36:36Z</time>
      </trkpt>
      <trkpt lat="46.365516381338239" lon="12.255795020610094">
        <ele>1686.77</ele>
        <time>2015-07-18T06:36:48Z</time>
      </trkpt>
      <trkpt lat="46.365442955866456" lon="12.255827961489558">
        <ele>1688.21</ele>
        <time>2015-07-18T06:36:58Z</time>
      </trkpt>
      <trkpt lat="46.365387802943587" lon="12.255878923460841">
        <ele>1690.1400000000001</ele>
        <time>2015-07-18T06:37:10Z</time>
      </trkpt>
      <trkpt lat="46.365337008610368" lon="12.255848329514265">
        <ele>1692.0599999999999</ele>
        <time>2015-07-18T06:37:19Z</time>
      </trkpt>
      <trkpt lat="46.365311946719885" lon="12.255879091098905">
        <ele>1693.5</ele>
        <time>2015-07-18T06:37:31Z</time>
      </trkpt>
      <trkpt lat="46.365326279774308" lon="12.256014626473188">
        <ele>1694.9400000000001</ele>
        <time>2015-07-18T06:37:46Z</time>
      </trkpt>
      <trkpt lat="46.365273306146264" lon="12.256098613142967">
        <ele>1696.8599999999999</ele>
        <time>2015-07-18T06:37:59Z</time>
      </trkpt>
      <trkpt lat="46.365298787131906" lon="12.256236160174012">
        <ele>1698.79</ele>
        <time>2015-07-18T06:38:14Z</time>
      </trkpt>
      <trkpt lat="46.365323513746262" lon="12.256374461576343">
        <ele>1698.79</ele>
        <time>2015-07-18T06:38:24Z</time>
      </trkpt>
      <trkpt lat="46.365286381915212" lon="12.256522737443447">
        <ele>1700.71</ele>
        <time>2015-07-18T06:38:37Z</time>
      </trkpt>
      <trkpt lat="46.365269618108869" lon="12.256629774346948">
        <ele>1701.6700000000001</ele>
        <time>2015-07-18T06:38:50Z</time>
      </trkpt>
      <trkpt lat="46.36522326618433" lon="12.25674033164978">
        <ele>1704.0699999999999</ele>
        <time>2015-07-18T06:39:05Z</time>
      </trkpt>
      <trkpt lat="46.365170711651444" lon="12.256848206743598">
        <ele>1706.96</ele>
        <time>2015-07-18T06:39:21Z</time>
      </trkpt>
      <trkpt lat="46.365136597305536" lon="12.25696018896997">
        <ele>1708.8800000000001</ele>
        <time>2015-07-18T06:39:35Z</time>
      </trkpt>
      <trkpt lat="46.365104243159294" lon="12.25709019228816">
        <ele>1708.8800000000001</ele>
        <time>2015-07-18T06:39:45Z</time>
      </trkpt>
      <trkpt lat="46.365044312551618" lon="12.257198318839073">
        <ele>1710.8</ele>
        <time>2015-07-18T06:39:57Z</time>
      </trkpt>
      <trkpt lat="46.365002570673823" lon="12.257294040173292">
        <ele>1712.25</ele>
        <time>2015-07-18T06:40:09Z</time>
      </trkpt>
      <trkpt lat="46.364970970898867" lon="12.257366711273789">
        <ele>1713.6900000000001</ele>
        <time>2015-07-18T06:40:20Z</time>
      </trkpt>
      <trkpt lat="46.364915734156966" lon="12.257489841431379">
        <ele>1715.1300000000001</ele>
        <time>2015-07-18T06:40:33Z</time>
      </trkpt>
      <trkpt lat="46.364877428859472" lon="12.257571816444397">
        <ele>1717.53</ele>
        <time>2015-07-18T06:40:46Z</time>
      </trkpt>
      <trkpt lat="46.364812636747956" lon="12.257644990459085">
        <ele>1719.9400000000001</ele>
        <time>2015-07-18T06:40:58Z</time>
      </trkpt>
      <trkpt lat="46.364750359207392" lon="12.257666867226362">
        <ele>1720.4200000000001</ele>
        <time>2015-07-18T06:41:08Z</time>
      </trkpt>
      <trkpt lat="46.364699648693204" lon="12.257724199444056">
        <ele>1720.9000000000001</ele>
        <time>2015-07-18T06:41:14Z</time>
      </trkpt>
      <trkpt lat="46.364610884338617" lon="12.257756050676107">
        <ele>1722.3399999999999</ele>
        <time>2015-07-18T06:41:26Z</time>
      </trkpt>
      <trkpt lat="46.364580793306231" lon="12.257694443687797">
        <ele>1724.26</ele>
        <time>2015-07-18T06:41:38Z</time>
      </trkpt>
      <trkpt lat="46.364506529644132" lon="12.257704166695476">
        <ele>1726.6700000000001</ele>
        <time>2015-07-18T06:41:50Z</time>
      </trkpt>
      <trkpt lat="46.364464787766337" lon="12.25769218057394">
        <ele>1728.1099999999999</ele>
        <time>2015-07-18T06:42:00Z</time>
      </trkpt>
      <trkpt lat="46.364381555467844" lon="12.257640464231372">
        <ele>1730.51</ele>
        <time>2015-07-18T06:42:13Z</time>
      </trkpt>
      <trkpt lat="46.364313410595059" lon="12.257573660463095">
        <ele>1731.95</ele>
        <time>2015-07-18T06:42:25Z</time>
      </trkpt>
      <trkpt lat="46.364247025921941" lon="12.257521357387304">
        <ele>1733.3900000000001</ele>
        <time>2015-07-18T06:42:36Z</time>
      </trkpt>
      <trkpt lat="46.36419371701777" lon="12.257467713207006">
        <ele>1735.3199999999999</ele>
        <time>2015-07-18T06:42:48Z</time>
      </trkpt>
      <trkpt lat="46.364142335951328" lon="12.257372746244073">
        <ele>1736.76</ele>
        <time>2015-07-18T06:43:00Z</time>
      </trkpt>
      <trkpt lat="46.364057762548327" lon="12.257312815636396">
        <ele>1738.2</ele>
        <time>2015-07-18T06:43:13Z</time>
      </trkpt>
      <trkpt lat="46.363978637382388" lon="12.257253052666783">
        <ele>1740.1199999999999</ele>
        <time>2015-07-18T06:43:27Z</time>
      </trkpt>
      <trkpt lat="46.363915354013443" lon="12.257178956642747">
        <ele>1741.0799999999999</ele>
        <time>2015-07-18T06:43:37Z</time>
      </trkpt>
      <trkpt lat="46.363850310444832" lon="12.257105866447091">
        <ele>1742.05</ele>
        <time>2015-07-18T06:43:47Z</time>
      </trkpt>
      <trkpt lat="46.363802365958691" lon="12.257056413218379">
        <ele>1743.49</ele>
        <time>2015-07-18T06:43:59Z</time>
      </trkpt>
      <trkpt lat="46.363681331276894" lon="12.257061609998345">
        <ele>1744.45</ele>
        <time>2015-07-18T06:44:11Z</time>
      </trkpt>
      <trkpt lat="46.363592064008117" lon="12.257056748494506">
        <ele>1745.8900000000001</ele>
        <time>2015-07-18T06:44:21Z</time>
      </trkpt>
      <trkpt lat="46.363527858629823" lon="12.256991621106863">
        <ele>1747.8099999999999</ele>
        <time>2015-07-18T06:44:32Z</time>
      </trkpt>
      <trkpt lat="46.363490475341678" lon="12.256916351616383">
        <ele>1749.74</ele>
        <time>2015-07-18T06:44:44Z</time>
      </trkpt>
      <trkpt lat="46.363362483680248" lon="12.256925571709871">
        <ele>1750.7</ele>
        <time>2015-07-18T06:44:57Z</time>
      </trkpt>
      <trkpt lat="46.363292410969734" lon="12.256925571709871">
        <ele>1750.7</ele>
        <time>2015-07-18T06:45:06Z</time>
      </trkpt>
      <trkpt lat="46.363193755969405" lon="12.256943006068468">
        <ele>1751.1800000000001</ele>
        <time>2015-07-18T06:45:15Z</time>
      </trkpt>
      <trkpt lat="46.363108260557055" lon="12.256952226161957">
        <ele>1751.6600000000001</ele>
        <time>2015-07-18T06:45:24Z</time>
      </trkpt>
      <trkpt lat="46.363019831478596" lon="12.256885087117553">
        <ele>1753.5799999999999</ele>
        <time>2015-07-18T06:45:37Z</time>
      </trkpt>
      <trkpt lat="46.362924529239535" lon="12.256816355511546">
        <ele>1755.02</ele>
        <time>2015-07-18T06:45:49Z</time>
      </trkpt>
      <trkpt lat="46.362838195636868" lon="12.256751479580998">
        <ele>1756.47</ele>
        <time>2015-07-18T06:45:59Z</time>
      </trkpt>
      <trkpt lat="46.362753538414836" lon="12.256646957248449">
        <ele>1757.4300000000001</ele>
        <time>2015-07-18T06:46:11Z</time>
      </trkpt>
      <trkpt lat="46.362640298902988" lon="12.256621811538935">
        <ele>1757.9100000000001</ele>
        <time>2015-07-18T06:46:21Z</time>
      </trkpt>
      <trkpt lat="46.362605765461922" lon="12.256591133773327">
        <ele>1758.8699999999999</ele>
        <time>2015-07-18T06:46:32Z</time>
      </trkpt>
      <trkpt lat="46.36251624673605" lon="12.256481163203716">
        <ele>1760.3099999999999</ele>
        <time>2015-07-18T06:46:46Z</time>
      </trkpt>
      <trkpt lat="46.362398145720363" lon="12.256395500153303">
        <ele>1761.75</ele>
        <time>2015-07-18T06:46:57Z</time>
      </trkpt>
      <trkpt lat="46.362354811280966" lon="12.256332552060485">
        <ele>1762.71</ele>
        <time>2015-07-18T06:47:08Z</time>
      </trkpt>
      <trkpt lat="46.362286247313023" lon="12.25623213686049">
        <ele>1764.1600000000001</ele>
        <time>2015-07-18T06:47:21Z</time>
      </trkpt>
      <trkpt lat="46.362236626446247" lon="12.25610657595098">
        <ele>1767.04</ele>
        <time>2015-07-18T06:47:36Z</time>
      </trkpt>
      <trkpt lat="46.36222749017179" lon="12.255984535440803">
        <ele>1768.48</ele>
        <time>2015-07-18T06:47:47Z</time>
      </trkpt>
      <trkpt lat="46.362157082185149" lon="12.255911696702242">
        <ele>1768.96</ele>
        <time>2015-07-18T06:47:57Z</time>
      </trkpt>
      <trkpt lat="46.362128667533398" lon="12.25586517713964">
        <ele>1770.4100000000001</ele>
        <time>2015-07-18T06:48:08Z</time>
      </trkpt>
      <trkpt lat="46.362096648663282" lon="12.255819076672196">
        <ele>1772.3299999999999</ele>
        <time>2015-07-18T06:48:19Z</time>
      </trkpt>
      <trkpt lat="46.362046608701348" lon="12.255763923749328">
        <ele>1774.73</ele>
        <time>2015-07-18T06:48:31Z</time>
      </trkpt>
      <trkpt lat="46.361958598718047" lon="12.255766103044152">
        <ele>1776.1700000000001</ele>
        <time>2015-07-18T06:48:43Z</time>
      </trkpt>
      <trkpt lat="46.361886095255613" lon="12.255730982869864">
        <ele>1778.0999999999999</ele>
        <time>2015-07-18T06:48:57Z</time>
      </trkpt>
      <trkpt lat="46.361833289265633" lon="12.255716314539313">
        <ele>1779.54</ele>
        <time>2015-07-18T06:49:06Z</time>
      </trkpt>
      <trkpt lat="46.361787775531411" lon="12.255633668974042">
        <ele>1780.98</ele>
        <time>2015-07-18T06:49:18Z</time>
      </trkpt>
      <trkpt lat="46.361720552667975" lon="12.255535935983062">
        <ele>1783.3800000000001</ele>
        <time>2015-07-18T06:49:31Z</time>
      </trkpt>
      <trkpt lat="46.361670680344105" lon="12.255478771403432">
        <ele>1784.8199999999999</ele>
        <time>2015-07-18T06:49:42Z</time>
      </trkpt>
      <trkpt lat="46.361625585705042" lon="12.255432000383735">
        <ele>1786.27</ele>
        <time>2015-07-18T06:49:53Z</time>
      </trkpt>
      <trkpt lat="46.361540844663978" lon="12.255390761420131">
        <ele>1787.71</ele>
        <time>2015-07-18T06:50:04Z</time>
      </trkpt>
      <trkpt lat="46.361457277089357" lon="12.255379781126976">
        <ele>1788.1900000000001</ele>
        <time>2015-07-18T06:50:14Z</time>
      </trkpt>
      <trkpt lat="46.361375218257308" lon="12.255421187728643">
        <ele>1789.1500000000001</ele>
        <time>2015-07-18T06:50:25Z</time>
      </trkpt>
      <trkpt lat="46.361302463337779" lon="12.255444405600429">
        <ele>1790.1099999999999</ele>
        <time>2015-07-18T06:50:36Z</time>
      </trkpt>
      <trkpt lat="46.36129030957818" lon="12.255489500239491">
        <ele>1792.03</ele>
        <time>2015-07-18T06:50:40Z</time>
      </trkpt>
      <trkpt lat="46.361250579357147" lon="12.255613636225462">
        <ele>1792.03</ele>
        <time>2015-07-18T06:50:51Z</time>
      </trkpt>
      <trkpt lat="46.361208586022258" lon="12.255723271518946">
        <ele>1793</ele>
        <time>2015-07-18T06:51:01Z</time>
      </trkpt>
      <trkpt lat="46.361140105873346" lon="12.255803318694234">
        <ele>1793.96</ele>
        <time>2015-07-18T06:51:13Z</time>
      </trkpt>
      <trkpt lat="46.361067937687039" lon="12.255860734730959">
        <ele>1795.4000000000001</ele>
        <time>2015-07-18T06:51:23Z</time>
      </trkpt>
      <trkpt lat="46.361012784764171" lon="12.255856962874532">
        <ele>1797.3199999999999</ele>
        <time>2015-07-18T06:51:34Z</time>
      </trkpt>
      <trkpt lat="46.360943298786879" lon="12.255871882662177">
        <ele>1798.76</ele>
        <time>2015-07-18T06:51:44Z</time>
      </trkpt>
      <trkpt lat="46.360864760354161" lon="12.255883617326617">
        <ele>1800.21</ele>
        <time>2015-07-18T06:51:56Z</time>
      </trkpt>
      <trkpt lat="46.36079678311944" lon="12.255870625376701">
        <ele>1801.6500000000001</ele>
        <time>2015-07-18T06:52:08Z</time>
      </trkpt>
      <trkpt lat="46.360703408718109" lon="12.255901722237468">
        <ele>1802.6099999999999</ele>
        <time>2015-07-18T06:52:19Z</time>
      </trkpt>
      <trkpt lat="46.360640544444323" lon="12.255895351991057">
        <ele>1804.05</ele>
        <time>2015-07-18T06:52:28Z</time>
      </trkpt>
      <trkpt lat="46.360577931627631" lon="12.255871631205082">
        <ele>1805.97</ele>
        <time>2015-07-18T06:52:38Z</time>
      </trkpt>
      <trkpt lat="46.360497465357184" lon="12.255873391404748">
        <ele>1807.4200000000001</ele>
        <time>2015-07-18T06:52:50Z</time>
      </trkpt>
      <trkpt lat="46.360473074018955" lon="12.255877498537302">
        <ele>1806.9400000000001</ele>
        <time>2015-07-18T06:52:53Z</time>
      </trkpt>
      <trkpt lat="46.360359666869044" lon="12.25592041388154">
        <ele>1806.9400000000001</ele>
        <time>2015-07-18T06:53:03Z</time>
      </trkpt>
      <trkpt lat="46.360253803431988" lon="12.255828464403749">
        <ele>1807.9000000000001</ele>
        <time>2015-07-18T06:53:15Z</time>
      </trkpt>
      <trkpt lat="46.360188256949186" lon="12.2557342518121">
        <ele>1809.3399999999999</ele>
        <time>2015-07-18T06:53:26Z</time>
      </trkpt>
      <trkpt lat="46.360134445130825" lon="12.255712458863854">
        <ele>1810.78</ele>
        <time>2015-07-18T06:53:35Z</time>
      </trkpt>
      <trkpt lat="46.360043836757541" lon="12.255729138851166">
        <ele>1811.74</ele>
        <time>2015-07-18T06:53:47Z</time>
      </trkpt>
      <trkpt lat="46.359946439042687" lon="12.255688905715942">
        <ele>1811.26</ele>
        <time>2015-07-18T06:53:57Z</time>
      </trkpt>
      <trkpt lat="46.359872343018651" lon="12.255657808855176">
        <ele>1811.74</ele>
        <time>2015-07-18T06:54:06Z</time>
      </trkpt>
      <trkpt lat="46.359776286408305" lon="12.255585137754679">
        <ele>1811.26</ele>
        <time>2015-07-18T06:54:16Z</time>
      </trkpt>
      <trkpt lat="46.35969297029078" lon="12.255507688969374">
        <ele>1810.78</ele>
        <time>2015-07-18T06:54:26Z</time>
      </trkpt>
      <trkpt lat="46.359605714678764" lon="12.255504000931978">
        <ele>1810.78</ele>
        <time>2015-07-18T06:54:36Z</time>
      </trkpt>
      <trkpt lat="46.359502198174596" lon="12.25558128207922">
        <ele>1810.78</ele>
        <time>2015-07-18T06:54:48Z</time>
      </trkpt>
      <trkpt lat="46.359445620328188" lon="12.255598548799753">
        <ele>1811.74</ele>
        <time>2015-07-18T06:54:53Z</time>
      </trkpt>
      <trkpt lat="46.359312683343887" lon="12.255627969279885">
        <ele>1811.74</ele>
        <time>2015-07-18T06:55:05Z</time>
      </trkpt>
      <trkpt lat="46.359227690845728" lon="12.255666358396411">
        <ele>1812.22</ele>
        <time>2015-07-18T06:55:15Z</time>
      </trkpt>
      <trkpt lat="46.359211849048734" lon="12.255684630945325">
        <ele>1812.7</ele>
        <time>2015-07-18T06:55:17Z</time>
      </trkpt>
      <trkpt lat="46.35912861675024" lon="12.255679350346327">
        <ele>1812.7</ele>
        <time>2015-07-18T06:55:25Z</time>
      </trkpt>
      <trkpt lat="46.359033063054085" lon="12.255626628175378">
        <ele>1813.1800000000001</ele>
        <time>2015-07-18T06:55:35Z</time>
      </trkpt>
      <trkpt lat="46.358949244022369" lon="12.255546916276217">
        <ele>1813.6600000000001</ele>
        <time>2015-07-18T06:55:45Z</time>
      </trkpt>
      <trkpt lat="46.358928708359599" lon="12.255507856607437">
        <ele>1814.1500000000001</ele>
        <time>2015-07-18T06:55:48Z</time>
      </trkpt>
      <trkpt lat="46.358861150220037" lon="12.255424121394753">
        <ele>1815.1099999999999</ele>
        <time>2015-07-18T06:55:58Z</time>
      </trkpt>
      <trkpt lat="46.358813121914864" lon="12.255339212715626">
        <ele>1816.55</ele>
        <time>2015-07-18T06:56:09Z</time>
      </trkpt>
      <trkpt lat="46.358744306489825" lon="12.255252124741673">
        <ele>1817.99</ele>
        <time>2015-07-18T06:56:18Z</time>
      </trkpt>
      <trkpt lat="46.358700636774302" lon="12.255201749503613">
        <ele>1819.4300000000001</ele>
        <time>2015-07-18T06:56:29Z</time>
      </trkpt>
      <trkpt lat="46.358619080856442" lon="12.255201665684581">
        <ele>1821.3499999999999</ele>
        <time>2015-07-18T06:56:41Z</time>
      </trkpt>
      <trkpt lat="46.35854079388082" lon="12.255144417285919">
        <ele>1821.3499999999999</ele>
        <time>2015-07-18T06:56:53Z</time>
      </trkpt>
      <trkpt lat="46.358468038961291" lon="12.255071997642517">
        <ele>1824.24</ele>
        <time>2015-07-18T06:57:06Z</time>
      </trkpt>
      <trkpt lat="46.358403665944934" lon="12.255021287128329">
        <ele>1826.1600000000001</ele>
        <time>2015-07-18T06:57:17Z</time>
      </trkpt>
      <trkpt lat="46.358366282656789" lon="12.254963954910636">
        <ele>1827.5999999999999</ele>
        <time>2015-07-18T06:57:28Z</time>
      </trkpt>
      <trkpt lat="46.358321607112885" lon="12.254990777000785">
        <ele>1830.01</ele>
        <time>2015-07-18T06:57:41Z</time>
      </trkpt>
      <trkpt lat="46.358300149440765" lon="12.25509756244719">
        <ele>1830.97</ele>
        <time>2015-07-18T06:57:51Z</time>
      </trkpt>
      <trkpt lat="46.358230914920568" lon="12.255067219957709">
        <ele>1832.8900000000001</ele>
        <time>2015-07-18T06:58:04Z</time>
      </trkpt>
      <trkpt lat="46.358170062303543" lon="12.254961272701621">
        <ele>1834.3299999999999</ele>
        <time>2015-07-18T06:58:15Z</time>
      </trkpt>
      <trkpt lat="46.358081381767988" lon="12.25495683029294">
        <ele>1835.77</ele>
        <time>2015-07-18T06:58:27Z</time>
      </trkpt>
      <trkpt lat="46.357990270480514" lon="12.254999913275242">
        <ele>1837.22</ele>
        <time>2015-07-18T06:58:39Z</time>
      </trkpt>
      <trkpt lat="46.357932854443789" lon="12.255004271864891">
        <ele>1838.1800000000001</ele>
        <time>2015-07-18T06:58:47Z</time>
      </trkpt>
      <trkpt lat="46.357854483649135" lon="12.254965715110302">
        <ele>1839.6199999999999</ele>
        <time>2015-07-18T06:58:58Z</time>
      </trkpt>
      <trkpt lat="46.357801510021091" lon="12.254858342930675">
        <ele>1842.02</ele>
        <time>2015-07-18T06:59:11Z</time>
      </trkpt>
      <trkpt lat="46.357756080105901" lon="12.254778714850545">
        <ele>1843.95</ele>
        <time>2015-07-18T06:59:22Z</time>
      </trkpt>
      <trkpt lat="46.357717188075185" lon="12.254715766757727">
        <ele>1845.8699999999999</ele>
        <time>2015-07-18T06:59:33Z</time>
      </trkpt>
      <trkpt lat="46.357655329629779" lon="12.254642592743039">
        <ele>1847.3099999999999</ele>
        <time>2015-07-18T06:59:44Z</time>
      </trkpt>
      <trkpt lat="46.357621802017093" lon="12.254595067352057">
        <ele>1847.79</ele>
        <time>2015-07-18T06:59:49Z</time>
      </trkpt>
      <trkpt lat="46.357535803690553" lon="12.254521306604147">
        <ele>1848.27</ele>
        <time>2015-07-18T06:59:59Z</time>
      </trkpt>
      <trkpt lat="46.357472017407417" lon="12.254422400146723">
        <ele>1849.23</ele>
        <time>2015-07-18T07:00:10Z</time>
      </trkpt>
      <trkpt lat="46.357421725988388" lon="12.254323242232203">
        <ele>1849.71</ele>
        <time>2015-07-18T07:00:19Z</time>
      </trkpt>
      <trkpt lat="46.357342936098576" lon="12.254230873659253">
        <ele>1850.1900000000001</ele>
        <time>2015-07-18T07:00:29Z</time>
      </trkpt>
      <trkpt lat="46.357305971905589" lon="12.254195837303996">
        <ele>1851.1600000000001</ele>
        <time>2015-07-18T07:00:37Z</time>
      </trkpt>
      <trkpt lat="46.357276299968362" lon="12.254160298034549">
        <ele>1852.5999999999999</ele>
        <time>2015-07-18T07:00:47Z</time>
      </trkpt>
      <trkpt lat="46.35723514482379" lon="12.254169266670942">
        <ele>1852.5999999999999</ele>
        <time>2015-07-18T07:00:54Z</time>
      </trkpt>
      <trkpt lat="46.357166077941656" lon="12.254113694652915">
        <ele>1854.04</ele>
        <time>2015-07-18T07:01:05Z</time>
      </trkpt>
      <trkpt lat="46.357151828706264" lon="12.254072288051248">
        <ele>1854.04</ele>
        <time>2015-07-18T07:01:13Z</time>
      </trkpt>
      <trkpt lat="46.357156606391072" lon="12.254037000238895">
        <ele>1854.04</ele>
        <time>2015-07-18T07:01:28Z</time>
      </trkpt>
      <trkpt lat="46.357144452631474" lon="12.254028283059597">
        <ele>1854.04</ele>
        <time>2015-07-18T07:01:42Z</time>
      </trkpt>
      <trkpt lat="46.357134478166699" lon="12.254011267796159">
        <ele>1854.52</ele>
        <time>2015-07-18T07:02:12Z</time>
      </trkpt>
      <trkpt lat="46.357131209224463" lon="12.25406751036644">
        <ele>1855</ele>
        <time>2015-07-18T07:02:39Z</time>
      </trkpt>
      <trkpt lat="46.357123330235481" lon="12.254078825935721">
        <ele>1854.52</ele>
        <time>2015-07-18T07:02:57Z</time>
      </trkpt>
      <trkpt lat="46.357165239751339" lon="12.25407438352704">
        <ele>1855</ele>
        <time>2015-07-18T07:03:28Z</time>
      </trkpt>
      <trkpt lat="46.357159456238151" lon="12.25407287478447">
        <ele>1855</ele>
        <time>2015-07-18T07:03:58Z</time>
      </trkpt>
      <trkpt lat="46.357103632763028" lon="12.254077484831214">
        <ele>1855.48</ele>
        <time>2015-07-18T07:04:27Z</time>
      </trkpt>
      <trkpt lat="46.357127856463194" lon="12.254045717418194">
        <ele>1855.48</ele>
        <time>2015-07-18T07:04:56Z</time>
      </trkpt>
      <trkpt lat="46.357097094878554" lon="12.254048986360431">
        <ele>1855.48</ele>
        <time>2015-07-18T07:05:31Z</time>
      </trkpt>
      <trkpt lat="46.357128862291574" lon="12.254096511751413">
        <ele>1855.48</ele>
        <time>2015-07-18T07:06:01Z</time>
      </trkpt>
      <trkpt lat="46.357129197567701" lon="12.254079077392817">
        <ele>1855.96</ele>
        <time>2015-07-18T07:06:31Z</time>
      </trkpt>
      <trkpt lat="46.35714327916503" lon="12.254071617498994">
        <ele>1855.96</ele>
        <time>2015-07-18T07:06:54Z</time>
      </trkpt>
      <trkpt lat="46.357110589742661" lon="12.254119981080294">
        <ele>1856.4400000000001</ele>
        <time>2015-07-18T07:07:25Z</time>
      </trkpt>
      <trkpt lat="46.357113523408771" lon="12.254120483994484">
        <ele>1856.4400000000001</ele>
        <time>2015-07-18T07:07:48Z</time>
      </trkpt>
      <trkpt lat="46.357104554772377" lon="12.254092069342732">
        <ele>1856.4400000000001</ele>
        <time>2015-07-18T07:08:08Z</time>
      </trkpt>
      <trkpt lat="46.357113607227802" lon="12.254067929461598">
        <ele>1856.9200000000001</ele>
        <time>2015-07-18T07:08:31Z</time>
      </trkpt>
      <trkpt lat="46.357138333842158" lon="12.254046220332384">
        <ele>1856.9200000000001</ele>
        <time>2015-07-18T07:08:54Z</time>
      </trkpt>
      <trkpt lat="46.357133639976382" lon="12.254056446254253">
        <ele>1856.9200000000001</ele>
        <time>2015-07-18T07:09:03Z</time>
      </trkpt>
      <trkpt lat="46.357136741280556" lon="12.254046807065606">
        <ele>1857.8900000000001</ele>
        <time>2015-07-18T07:09:11Z</time>
      </trkpt>
      <trkpt lat="46.357143614441156" lon="12.254021074622869">
        <ele>1856.9200000000001</ele>
        <time>2015-07-18T07:09:22Z</time>
      </trkpt>
      <trkpt lat="46.357132969424129" lon="12.25401621311903">
        <ele>1856.9200000000001</ele>
        <time>2015-07-18T07:09:34Z</time>
      </trkpt>
      <trkpt lat="46.357151828706264" lon="12.254061894491315">
        <ele>1857.4000000000001</ele>
        <time>2015-07-18T07:09:58Z</time>
      </trkpt>
      <trkpt lat="46.357145793735981" lon="12.254002718254924">
        <ele>1857.8900000000001</ele>
        <time>2015-07-18T07:10:26Z</time>
      </trkpt>
      <trkpt lat="46.35713841766119" lon="12.254026103764772">
        <ele>1857.8900000000001</ele>
        <time>2015-07-18T07:10:52Z</time>
      </trkpt>
      <trkpt lat="46.357107488438487" lon="12.253998778760433">
        <ele>1858.8499999999999</ele>
        <time>2015-07-18T07:11:15Z</time>
      </trkpt>
      <trkpt lat="46.357095334678888" lon="12.253995258361101">
        <ele>1858.8499999999999</ele>
        <time>2015-07-18T07:11:22Z</time>
      </trkpt>
      <trkpt lat="46.357074799016118" lon="12.254007579758763">
        <ele>1859.8099999999999</ele>
        <time>2015-07-18T07:11:35Z</time>
      </trkpt>
      <trkpt lat="46.357085695490241" lon="12.253947984427214">
        <ele>1859.8099999999999</ele>
        <time>2015-07-18T07:11:47Z</time>
      </trkpt>
      <trkpt lat="46.357054766267538" lon="12.25397371686995">
        <ele>1860.77</ele>
        <time>2015-07-18T07:11:58Z</time>
      </trkpt>
      <trkpt lat="46.356968516483903" lon="12.253938596695662">
        <ele>1863.1700000000001</ele>
        <time>2015-07-18T07:12:11Z</time>
      </trkpt>
      <trkpt lat="46.356891738250852" lon="12.253911606967449">
        <ele>1864.1300000000001</ele>
        <time>2015-07-18T07:12:21Z</time>
      </trkpt>
      <trkpt lat="46.356797944754362" lon="12.25387011654675">
        <ele>1865.5799999999999</ele>
        <time>2015-07-18T07:12:33Z</time>
      </trkpt>
      <trkpt lat="46.356712868437171" lon="12.253837259486318">
        <ele>1867.02</ele>
        <time>2015-07-18T07:12:45Z</time>
      </trkpt>
      <trkpt lat="46.356605663895607" lon="12.253826782107353">
        <ele>1868.46</ele>
        <time>2015-07-18T07:12:58Z</time>
      </trkpt>
      <trkpt lat="46.356531735509634" lon="12.253885539248586">
        <ele>1869.9000000000001</ele>
        <time>2015-07-18T07:13:09Z</time>
      </trkpt>
      <trkpt lat="46.356464261189103" lon="12.253920072689652">
        <ele>1871.3399999999999</ele>
        <time>2015-07-18T07:13:19Z</time>
      </trkpt>
      <trkpt lat="46.356368456035852" lon="12.253974974155426">
        <ele>1872.3</ele>
        <time>2015-07-18T07:13:31Z</time>
      </trkpt>
      <trkpt lat="46.35629846714437" lon="12.254011938348413">
        <ele>1873.75</ele>
        <time>2015-07-18T07:13:41Z</time>
      </trkpt>
      <trkpt lat="46.356221688911319" lon="12.253964664414525">
        <ele>1874.71</ele>
        <time>2015-07-18T07:13:51Z</time>
      </trkpt>
      <trkpt lat="46.356147089973092" lon="12.253987966105342">
        <ele>1876.6300000000001</ele>
        <time>2015-07-18T07:14:03Z</time>
      </trkpt>
      <trkpt lat="46.356094786897302" lon="12.254052758216858">
        <ele>1878.55</ele>
        <time>2015-07-18T07:14:15Z</time>
      </trkpt>
      <trkpt lat="46.35602043941617" lon="12.2540851123631">
        <ele>1880.48</ele>
        <time>2015-07-18T07:14:27Z</time>
      </trkpt>
      <trkpt lat="46.355939721688628" lon="12.25407044403255">
        <ele>1881.4400000000001</ele>
        <time>2015-07-18T07:14:38Z</time>
      </trkpt>
      <trkpt lat="46.355888172984123" lon="12.254071366041899">
        <ele>1882.4000000000001</ele>
        <time>2015-07-18T07:14:47Z</time>
      </trkpt>
      <trkpt lat="46.355833439156413" lon="12.254125345498323">
        <ele>1884.3199999999999</ele>
        <time>2015-07-18T07:14:59Z</time>
      </trkpt>
      <trkpt lat="46.355794882401824" lon="12.254038508981466">
        <ele>1885.76</ele>
        <time>2015-07-18T07:15:10Z</time>
      </trkpt>
      <trkpt lat="46.355773089453578" lon="12.254012441262603">
        <ele>1888.1700000000001</ele>
        <time>2015-07-18T07:15:20Z</time>
      </trkpt>
      <trkpt lat="46.355733023956418" lon="12.253957958891988">
        <ele>1890.0899999999999</ele>
        <time>2015-07-18T07:15:30Z</time>
      </trkpt>
      <trkpt lat="46.355688432231545" lon="12.253920240327716">
        <ele>1891.53</ele>
        <time>2015-07-18T07:15:41Z</time>
      </trkpt>
      <trkpt lat="46.355661107227206" lon="12.253924682736397">
        <ele>1893.45</ele>
        <time>2015-07-18T07:15:50Z</time>
      </trkpt>
      <trkpt lat="46.355630345642567" lon="12.253889059647918">
        <ele>1895.3800000000001</ele>
        <time>2015-07-18T07:16:00Z</time>
      </trkpt>
      <trkpt lat="46.355599416419864" lon="12.253904733806849">
        <ele>1897.3</ele>
        <time>2015-07-18T07:16:10Z</time>
      </trkpt>
      <trkpt lat="46.355571588501334" lon="12.253852346912026">
        <ele>1898.74</ele>
        <time>2015-07-18T07:16:19Z</time>
      </trkpt>
      <trkpt lat="46.355551639571786" lon="12.2539072483778">
        <ele>1900.6600000000001</ele>
        <time>2015-07-18T07:16:29Z</time>
      </trkpt>
      <trkpt lat="46.355515848845243" lon="12.253925185650587">
        <ele>1902.1099999999999</ele>
        <time>2015-07-18T07:16:40Z</time>
      </trkpt>
      <trkpt lat="46.35546924546361" lon="12.254043454304338">
        <ele>1904.51</ele>
        <time>2015-07-18T07:16:54Z</time>
      </trkpt>
      <trkpt lat="46.355442507192492" lon="12.254099529236555">
        <ele>1906.4300000000001</ele>
        <time>2015-07-18T07:17:06Z</time>
      </trkpt>
      <trkpt lat="46.35541895404458" lon="12.254146719351411">
        <ele>1907.8699999999999</ele>
        <time>2015-07-18T07:17:16Z</time>
      </trkpt>
      <trkpt lat="46.355413421988487" lon="12.254156526178122">
        <ele>1908.8299999999999</ele>
        <time>2015-07-18T07:17:18Z</time>
      </trkpt>
      <trkpt lat="46.355380900204182" lon="12.254148395732045">
        <ele>1911.24</ele>
        <time>2015-07-18T07:17:27Z</time>
      </trkpt>
      <trkpt lat="46.355362543836236" lon="12.25413741543889">
        <ele>1912.6800000000001</ele>
        <time>2015-07-18T07:17:36Z</time>
      </trkpt>
      <trkpt lat="46.355344858020544" lon="12.254175804555416">
        <ele>1914.5999999999999</ele>
        <time>2015-07-18T07:17:46Z</time>
      </trkpt>
      <trkpt lat="46.355320382863283" lon="12.254210589453578">
        <ele>1917.01</ele>
        <time>2015-07-18T07:17:57Z</time>
      </trkpt>
      <trkpt lat="46.35530898347497" lon="12.254273956641555">
        <ele>1918.9300000000001</ele>
        <time>2015-07-18T07:18:07Z</time>
      </trkpt>
      <trkpt lat="46.355296242982149" lon="12.25432257167995">
        <ele>1918.9300000000001</ele>
        <time>2015-07-18T07:18:17Z</time>
      </trkpt>
      <trkpt lat="46.355302529409528" lon="12.254381161183119">
        <ele>1920.3699999999999</ele>
        <time>2015-07-18T07:18:27Z</time>
      </trkpt>
      <trkpt lat="46.355312000960112" lon="12.254406223073602">
        <ele>1920.3699999999999</ele>
        <time>2015-07-18T07:18:44Z</time>
      </trkpt>
      <trkpt lat="46.35526992380619" lon="12.254532454535365">
        <ele>1921.3299999999999</ele>
        <time>2015-07-18T07:18:55Z</time>
      </trkpt>
      <trkpt lat="46.355225248262286" lon="12.254638066515326">
        <ele>1922.77</ele>
        <time>2015-07-18T07:19:07Z</time>
      </trkpt>
      <trkpt lat="46.355196665972471" lon="12.254673689603806">
        <ele>1924.7</ele>
        <time>2015-07-18T07:19:18Z</time>
      </trkpt>
      <trkpt lat="46.355159534141421" lon="12.254731692373753">
        <ele>1926.1400000000001</ele>
        <time>2015-07-18T07:19:29Z</time>
      </trkpt>
      <trkpt lat="46.355135561898351" lon="12.254774356260896">
        <ele>1927.5799999999999</ele>
        <time>2015-07-18T07:19:39Z</time>
      </trkpt>
      <trkpt lat="46.355101866647601" lon="12.254826575517654">
        <ele>1929.02</ele>
        <time>2015-07-18T07:19:49Z</time>
      </trkpt>
      <trkpt lat="46.355069344863296" lon="12.254904108121991">
        <ele>1930.95</ele>
        <time>2015-07-18T07:19:59Z</time>
      </trkpt>
      <trkpt lat="46.355060795322061" lon="12.254930259659886">
        <ele>1931.4300000000001</ele>
        <time>2015-07-18T07:20:02Z</time>
      </trkpt>
      <trkpt lat="46.355051910504699" lon="12.254966637119651">
        <ele>1930.95</ele>
        <time>2015-07-18T07:20:07Z</time>
      </trkpt>
      <trkpt lat="46.35504025965929" lon="12.255053473636508">
        <ele>1931.9100000000001</ele>
        <time>2015-07-18T07:20:18Z</time>
      </trkpt>
      <trkpt lat="46.355024417862296" lon="12.255068812519312">
        <ele>1931.9100000000001</ele>
        <time>2015-07-18T07:20:20Z</time>
      </trkpt>
      <trkpt lat="46.355005139485002" lon="12.255199737846851">
        <ele>1932.8699999999999</ele>
        <time>2015-07-18T07:20:32Z</time>
      </trkpt>
      <trkpt lat="46.355003463104367" lon="12.255272157490253">
        <ele>1932.8699999999999</ele>
        <time>2015-07-18T07:20:39Z</time>
      </trkpt>
      <trkpt lat="46.354989046230912" lon="12.255405681207776">
        <ele>1933.3499999999999</ele>
        <time>2015-07-18T07:20:51Z</time>
      </trkpt>
      <trkpt lat="46.35494202375412" lon="12.255523530766368">
        <ele>1934.79</ele>
        <time>2015-07-18T07:21:03Z</time>
      </trkpt>
      <trkpt lat="46.354928864166141" lon="12.255539204925299">
        <ele>1935.27</ele>
        <time>2015-07-18T07:21:16Z</time>
      </trkpt>
      <trkpt lat="46.354900281876326" lon="12.255593100562692">
        <ele>1936.23</ele>
        <time>2015-07-18T07:21:25Z</time>
      </trkpt>
      <trkpt lat="46.354879746213555" lon="12.25568144582212">
        <ele>1938.1600000000001</ele>
        <time>2015-07-18T07:21:34Z</time>
      </trkpt>
      <trkpt lat="46.354811349883676" lon="12.25572545081377">
        <ele>1940.0799999999999</ele>
        <time>2015-07-18T07:21:46Z</time>
      </trkpt>
      <trkpt lat="46.35474462993443" lon="12.255794098600745">
        <ele>1942.96</ele>
        <time>2015-07-18T07:22:00Z</time>
      </trkpt>
      <trkpt lat="46.354718897491693" lon="12.255815807729959">
        <ele>1944.4000000000001</ele>
        <time>2015-07-18T07:22:09Z</time>
      </trkpt>
      <trkpt lat="46.354659553617239" lon="12.25585444830358">
        <ele>1946.3299999999999</ele>
        <time>2015-07-18T07:22:21Z</time>
      </trkpt>
      <trkpt lat="46.354644130915403" lon="12.255918905138969">
        <ele>1948.25</ele>
        <time>2015-07-18T07:22:33Z</time>
      </trkpt>
      <trkpt lat="46.354596856981516" lon="12.255894597619772">
        <ele>1949.6900000000001</ele>
        <time>2015-07-18T07:22:43Z</time>
      </trkpt>
      <trkpt lat="46.354558635503054" lon="12.255981769412756">
        <ele>1952.0899999999999</ele>
        <time>2015-07-18T07:22:56Z</time>
      </trkpt>
      <trkpt lat="46.354511277750134" lon="12.256051674485207">
        <ele>1954.02</ele>
        <time>2015-07-18T07:23:08Z</time>
      </trkpt>
      <trkpt lat="46.354507505893707" lon="12.256109928712249">
        <ele>1955.46</ele>
        <time>2015-07-18T07:23:18Z</time>
      </trkpt>
      <trkpt lat="46.354447742924094" lon="12.256105234846473">
        <ele>1957.3800000000001</ele>
        <time>2015-07-18T07:23:29Z</time>
      </trkpt>
      <trkpt lat="46.354445060715079" lon="12.256172373890877">
        <ele>1959.3</ele>
        <time>2015-07-18T07:23:41Z</time>
      </trkpt>
      <trkpt lat="46.354389907792211" lon="12.256172960624099">
        <ele>1961.23</ele>
        <time>2015-07-18T07:23:51Z</time>
      </trkpt>
      <trkpt lat="46.354343974962831" lon="12.25617497228086">
        <ele>1963.1500000000001</ele>
        <time>2015-07-18T07:24:01Z</time>
      </trkpt>
      <trkpt lat="46.354303658008575" lon="12.256199950352311">
        <ele>1965.0699999999999</ele>
        <time>2015-07-18T07:24:12Z</time>
      </trkpt>
      <trkpt lat="46.354267951101065" lon="12.256225515156984">
        <ele>1967.48</ele>
        <time>2015-07-18T07:24:24Z</time>
      </trkpt>
      <trkpt lat="46.354239704087377" lon="12.256267592310905">
        <ele>1968.9200000000001</ele>
        <time>2015-07-18T07:24:34Z</time>
      </trkpt>
      <trkpt lat="46.354214223101735" lon="12.256309669464827">
        <ele>1970.8399999999999</ele>
        <time>2015-07-18T07:24:44Z</time>
      </trkpt>
      <trkpt lat="46.354189161211252" lon="12.256347136572003">
        <ele>1971.8</ele>
        <time>2015-07-18T07:24:53Z</time>
      </trkpt>
      <trkpt lat="46.354155801236629" lon="12.256375886499882">
        <ele>1973.24</ele>
        <time>2015-07-18T07:25:02Z</time>
      </trkpt>
      <trkpt lat="46.354110622778535" lon="12.256422825157642">
        <ele>1974.2</ele>
        <time>2015-07-18T07:25:13Z</time>
      </trkpt>
      <trkpt lat="46.354065947234631" lon="12.256428776308894">
        <ele>1975.6500000000001</ele>
        <time>2015-07-18T07:25:25Z</time>
      </trkpt>
      <trkpt lat="46.354017835110426" lon="12.256475212052464">
        <ele>1978.05</ele>
        <time>2015-07-18T07:25:36Z</time>
      </trkpt>
      <trkpt lat="46.353960083797574" lon="12.256538160145283">
        <ele>1979.97</ele>
        <time>2015-07-18T07:25:49Z</time>
      </trkpt>
      <trkpt lat="46.353891268372536" lon="12.256576046347618">
        <ele>1982.3800000000001</ele>
        <time>2015-07-18T07:26:01Z</time>
      </trkpt>
      <trkpt lat="46.353834606707096" lon="12.256611920893192">
        <ele>1984.3</ele>
        <time>2015-07-18T07:26:12Z</time>
      </trkpt>
      <trkpt lat="46.353774089366198" lon="12.25665919482708">
        <ele>1986.7</ele>
        <time>2015-07-18T07:26:24Z</time>
      </trkpt>
      <trkpt lat="46.353723462671041" lon="12.256695069372654">
        <ele>1988.1400000000001</ele>
        <time>2015-07-18T07:26:35Z</time>
      </trkpt>
      <trkpt lat="46.353713572025299" lon="12.256635976955295">
        <ele>1989.5899999999999</ele>
        <time>2015-07-18T07:26:46Z</time>
      </trkpt>
      <trkpt lat="46.353725390508771" lon="12.256587110459805">
        <ele>1991.99</ele>
        <time>2015-07-18T07:26:57Z</time>
      </trkpt>
      <trkpt lat="46.353756655007601" lon="12.256607478484511">
        <ele>1990.55</ele>
        <time>2015-07-18T07:27:15Z</time>
      </trkpt>
      <trkpt lat="46.353749111294746" lon="12.256600521504879">
        <ele>1990.55</ele>
        <time>2015-07-18T07:27:30Z</time>
      </trkpt>
      <trkpt lat="46.353743076324463" lon="12.256583254784346">
        <ele>1990.55</ele>
        <time>2015-07-18T07:27:44Z</time>
      </trkpt>
      <trkpt lat="46.353713572025299" lon="12.256547547876835">
        <ele>1990.55</ele>
        <time>2015-07-18T07:28:00Z</time>
      </trkpt>
      <trkpt lat="46.353711141273379" lon="12.256614184007049">
        <ele>1990.0699999999999</ele>
        <time>2015-07-18T07:28:11Z</time>
      </trkpt>
      <trkpt lat="46.353714074939489" lon="12.25661426782608">
        <ele>1990.55</ele>
        <time>2015-07-18T07:28:20Z</time>
      </trkpt>
      <trkpt lat="46.35371558368206" lon="12.256589122116566">
        <ele>1990.55</ele>
        <time>2015-07-18T07:28:28Z</time>
      </trkpt>
      <trkpt lat="46.353721618652344" lon="12.256642347201705">
        <ele>1990.55</ele>
        <time>2015-07-18T07:28:39Z</time>
      </trkpt>
      <trkpt lat="46.353729916736484" lon="12.25665919482708">
        <ele>1990.0699999999999</ele>
        <time>2015-07-18T07:28:49Z</time>
      </trkpt>
      <trkpt lat="46.353735867887735" lon="12.25665919482708">
        <ele>1990.0699999999999</ele>
        <time>2015-07-18T07:29:02Z</time>
      </trkpt>
      <trkpt lat="46.353739723563194" lon="12.256656931713223">
        <ele>1988.1400000000001</ele>
        <time>2015-07-18T07:29:12Z</time>
      </trkpt>
      <trkpt lat="46.353711728006601" lon="12.25669926032424">
        <ele>1989.0999999999999</ele>
        <time>2015-07-18T07:29:44Z</time>
      </trkpt>
      <trkpt lat="46.35369261726737" lon="12.256759693846107">
        <ele>1989.0999999999999</ele>
        <time>2015-07-18T07:30:18Z</time>
      </trkpt>
      <trkpt lat="46.353690605610609" lon="12.25674862973392">
        <ele>1989.5899999999999</ele>
        <time>2015-07-18T07:30:44Z</time>
      </trkpt>
      <trkpt lat="46.353714242577553" lon="12.256720634177327">
        <ele>1989.5899999999999</ele>
        <time>2015-07-18T07:31:09Z</time>
      </trkpt>
      <trkpt lat="46.353732934221625" lon="12.256753407418728">
        <ele>1990.0699999999999</ele>
        <time>2015-07-18T07:31:38Z</time>
      </trkpt>
      <trkpt lat="46.353727402165532" lon="12.256736811250448">
        <ele>1990.0699999999999</ele>
        <time>2015-07-18T07:32:04Z</time>
      </trkpt>
      <trkpt lat="46.353726983070374" lon="12.25664896890521">
        <ele>1991.03</ele>
        <time>2015-07-18T07:32:18Z</time>
      </trkpt>
      <trkpt lat="46.353728407993913" lon="12.256643604487181">
        <ele>1991.03</ele>
        <time>2015-07-18T07:32:33Z</time>
      </trkpt>
      <trkpt lat="46.353738131001592" lon="12.256652656942606">
        <ele>1990.0699999999999</ele>
        <time>2015-07-18T07:32:43Z</time>
      </trkpt>
      <trkpt lat="46.353749949485064" lon="12.256658691912889">
        <ele>1990.55</ele>
        <time>2015-07-18T07:33:04Z</time>
      </trkpt>
      <trkpt lat="46.35372438468039" lon="12.256668247282505">
        <ele>1990.55</ele>
        <time>2015-07-18T07:33:35Z</time>
      </trkpt>
      <trkpt lat="46.353741567581892" lon="12.256652154028416">
        <ele>1990.55</ele>
        <time>2015-07-18T07:33:45Z</time>
      </trkpt>
      <trkpt lat="46.353724217042327" lon="12.256633043289185">
        <ele>1991.51</ele>
        <time>2015-07-18T07:33:52Z</time>
      </trkpt>
      <trkpt lat="46.353711895644665" lon="12.256680820137262">
        <ele>1991.99</ele>
        <time>2015-07-18T07:34:05Z</time>
      </trkpt>
      <trkpt lat="46.353705860674381" lon="12.256702948361635">
        <ele>1991.99</ele>
        <time>2015-07-18T07:34:22Z</time>
      </trkpt>
      <trkpt lat="46.353706950321794" lon="12.2566875256598">
        <ele>1991.99</ele>
        <time>2015-07-18T07:34:39Z</time>
      </trkpt>
      <trkpt lat="46.353744585067034" lon="12.256655758246779">
        <ele>1991.99</ele>
        <time>2015-07-18T07:34:48Z</time>
      </trkpt>
      <trkpt lat="46.35373025201261" lon="12.256634384393692">
        <ele>1991.51</ele>
        <time>2015-07-18T07:35:07Z</time>
      </trkpt>
      <trkpt lat="46.353734023869038" lon="12.256617369130254">
        <ele>1991.99</ele>
        <time>2015-07-18T07:35:29Z</time>
      </trkpt>
      <trkpt lat="46.353728072717786" lon="12.256602281704545">
        <ele>1991.99</ele>
        <time>2015-07-18T07:35:43Z</time>
      </trkpt>
      <trkpt lat="46.353739136829972" lon="12.256615608930588">
        <ele>1991.51</ele>
        <time>2015-07-18T07:36:00Z</time>
      </trkpt>
      <trkpt lat="46.353764198720455" lon="12.256630696356297">
        <ele>1991.51</ele>
        <time>2015-07-18T07:36:11Z</time>
      </trkpt>
      <trkpt lat="46.353741735219955" lon="12.256674617528915">
        <ele>1991.51</ele>
        <time>2015-07-18T07:36:27Z</time>
      </trkpt>
      <trkpt lat="46.35371164418757" lon="12.256668331101537">
        <ele>1992.95</ele>
        <time>2015-07-18T07:36:37Z</time>
      </trkpt>
      <trkpt lat="46.353693287819624" lon="12.256663721054792">
        <ele>1992.47</ele>
        <time>2015-07-18T07:36:50Z</time>
      </trkpt>
      <trkpt lat="46.35367157869041" lon="12.256636898964643">
        <ele>1990.55</ele>
        <time>2015-07-18T07:37:04Z</time>
      </trkpt>
      <trkpt lat="46.353670237585902" lon="12.256646621972322">
        <ele>1990.55</ele>
        <time>2015-07-18T07:37:05Z</time>
      </trkpt>
      <trkpt lat="46.353640900924802" lon="12.256633462384343">
        <ele>1988.6199999999999</ele>
        <time>2015-07-18T07:37:15Z</time>
      </trkpt>
      <trkpt lat="46.353608630597591" lon="12.256684340536594">
        <ele>1986.7</ele>
        <time>2015-07-18T07:37:23Z</time>
      </trkpt>
      <trkpt lat="46.353582562878728" lon="12.25674862973392">
        <ele>1985.26</ele>
        <time>2015-07-18T07:37:32Z</time>
      </trkpt>
      <trkpt lat="46.353562278673053" lon="12.256768997758627">
        <ele>1984.78</ele>
        <time>2015-07-18T07:37:35Z</time>
      </trkpt>
      <trkpt lat="46.353476280346513" lon="12.256832784041762">
        <ele>1983.8199999999999</ele>
        <time>2015-07-18T07:37:46Z</time>
      </trkpt>
      <trkpt lat="46.353453733026981" lon="12.256863294169307">
        <ele>1984.3</ele>
        <time>2015-07-18T07:37:58Z</time>
      </trkpt>
      <trkpt lat="46.353429090231657" lon="12.256919452920556">
        <ele>1983.3399999999999</ele>
        <time>2015-07-18T07:38:10Z</time>
      </trkpt>
      <trkpt lat="46.353423474356532" lon="12.256950214505196">
        <ele>1981.9000000000001</ele>
        <time>2015-07-18T07:38:19Z</time>
      </trkpt>
      <trkpt lat="46.353422636166215" lon="12.256923392415047">
        <ele>1981.9000000000001</ele>
        <time>2015-07-18T07:38:32Z</time>
      </trkpt>
      <trkpt lat="46.353411823511124" lon="12.256735721603036">
        <ele>1982.3800000000001</ele>
        <time>2015-07-18T07:38:47Z</time>
      </trkpt>
      <trkpt lat="46.353401094675064" lon="12.256781067699194">
        <ele>1982.3800000000001</ele>
        <time>2015-07-18T07:39:05Z</time>
      </trkpt>
      <trkpt lat="46.353420875966549" lon="12.25694602355361">
        <ele>1982.3800000000001</ele>
        <time>2015-07-18T07:39:20Z</time>
      </trkpt>
      <trkpt lat="46.353424983099103" lon="12.256788443773985">
        <ele>1982.3800000000001</ele>
        <time>2015-07-18T07:39:37Z</time>
      </trkpt>
      <trkpt lat="46.353392042219639" lon="12.256762711331248">
        <ele>1982.8599999999999</ele>
        <time>2015-07-18T07:39:52Z</time>
      </trkpt>
      <trkpt lat="46.353405704721808" lon="12.256622649729252">
        <ele>1982.8599999999999</ele>
        <time>2015-07-18T07:40:13Z</time>
      </trkpt>
      <trkpt lat="46.353342924267054" lon="12.256539585068822">
        <ele>1982.8599999999999</ele>
        <time>2015-07-18T07:40:30Z</time>
      </trkpt>
      <trkpt lat="46.353358933702111" lon="12.25661912932992">
        <ele>1983.3399999999999</ele>
        <time>2015-07-18T07:40:51Z</time>
      </trkpt>
      <trkpt lat="46.35335742495954" lon="12.256565988063812">
        <ele>1983.3399999999999</ele>
        <time>2015-07-18T07:41:09Z</time>
      </trkpt>
      <trkpt lat="46.353342924267054" lon="12.256474290043116">
        <ele>1983.3399999999999</ele>
        <time>2015-07-18T07:41:26Z</time>
      </trkpt>
      <trkpt lat="46.353338146582246" lon="12.25642366334796">
        <ele>1983.3399999999999</ele>
        <time>2015-07-18T07:41:42Z</time>
      </trkpt>
      <trkpt lat="46.353318113833666" lon="12.256524162366986">
        <ele>1983.3399999999999</ele>
        <time>2015-07-18T07:42:01Z</time>
      </trkpt>
      <trkpt lat="46.353308474645019" lon="12.256693476811051">
        <ele>1983.3399999999999</ele>
        <time>2015-07-18T07:42:21Z</time>
      </trkpt>
      <trkpt lat="46.353280059993267" lon="12.256688615307212">
        <ele>1983.3399999999999</ele>
        <time>2015-07-18T07:42:42Z</time>
      </trkpt>
      <trkpt lat="46.353275617584586" lon="12.256605718284845">
        <ele>1983.3399999999999</ele>
        <time>2015-07-18T07:42:59Z</time>
      </trkpt>
      <trkpt lat="46.353271845728159" lon="12.256614603102207">
        <ele>1983.3399999999999</ele>
        <time>2015-07-18T07:43:18Z</time>
      </trkpt>
      <trkpt lat="46.353264050558209" lon="12.256706049665809">
        <ele>1983.3399999999999</ele>
        <time>2015-07-18T07:43:37Z</time>
      </trkpt>
      <trkpt lat="46.353264134377241" lon="12.256846698001027">
        <ele>1983.3399999999999</ele>
        <time>2015-07-18T07:43:54Z</time>
      </trkpt>
      <trkpt lat="46.353252483531833" lon="12.256852481514215">
        <ele>1983.3399999999999</ele>
        <time>2015-07-18T07:44:11Z</time>
      </trkpt>
      <trkpt lat="46.35323328897357" lon="12.256768411025405">
        <ele>1983.8199999999999</ele>
        <time>2015-07-18T07:44:28Z</time>
      </trkpt>
      <trkpt lat="46.353207472711802" lon="12.256723064929247">
        <ele>1983.8199999999999</ele>
        <time>2015-07-18T07:44:48Z</time>
      </trkpt>
      <trkpt lat="46.353199426084757" lon="12.256684759631753">
        <ele>1983.3399999999999</ele>
        <time>2015-07-18T07:45:09Z</time>
      </trkpt>
      <trkpt lat="46.353180985897779" lon="12.256684927269816">
        <ele>1983.8199999999999</ele>
        <time>2015-07-18T07:45:20Z</time>
      </trkpt>
      <trkpt lat="46.353199928998947" lon="12.256692554801702">
        <ele>1983.8199999999999</ele>
        <time>2015-07-18T07:45:35Z</time>
      </trkpt>
      <trkpt lat="46.353198420256376" lon="12.256690291687846">
        <ele>1983.8199999999999</ele>
        <time>2015-07-18T07:45:52Z</time>
      </trkpt>
      <trkpt lat="46.353198336437345" lon="12.256680987775326">
        <ele>1983.8199999999999</ele>
        <time>2015-07-18T07:46:09Z</time>
      </trkpt>
      <trkpt lat="46.353205963969231" lon="12.256634132936597">
        <ele>1984.3</ele>
        <time>2015-07-18T07:46:25Z</time>
      </trkpt>
      <trkpt lat="46.353236055001616" lon="12.25670856423676">
        <ele>1984.3</ele>
        <time>2015-07-18T07:46:46Z</time>
      </trkpt>
      <trkpt lat="46.353205041959882" lon="12.256753239780664">
        <ele>1984.3</ele>
        <time>2015-07-18T07:47:05Z</time>
      </trkpt>
      <trkpt lat="46.353184841573238" lon="12.256777547299862">
        <ele>1984.3</ele>
        <time>2015-07-18T07:47:27Z</time>
      </trkpt>
      <trkpt lat="46.353193474933505" lon="12.256738487631083">
        <ele>1984.3</ele>
        <time>2015-07-18T07:47:42Z</time>
      </trkpt>
      <trkpt lat="46.353180231526494" lon="12.256717532873154">
        <ele>1984.3</ele>
        <time>2015-07-18T07:47:59Z</time>
      </trkpt>
      <trkpt lat="46.353168915957212" lon="12.25668459199369">
        <ele>1984.3</ele>
        <time>2015-07-18T07:48:22Z</time>
      </trkpt>
      <trkpt lat="46.353161791339517" lon="12.256688447669148">
        <ele>1984.3</ele>
        <time>2015-07-18T07:48:43Z</time>
      </trkpt>
      <trkpt lat="46.353131700307131" lon="12.256670510396361">
        <ele>1984.3</ele>
        <time>2015-07-18T07:49:02Z</time>
      </trkpt>
      <trkpt lat="46.353121139109135" lon="12.256649304181337">
        <ele>1984.3</ele>
        <time>2015-07-18T07:49:24Z</time>
      </trkpt>
      <trkpt lat="46.353095239028335" lon="12.256654584780335">
        <ele>1984.3</ele>
        <time>2015-07-18T07:49:39Z</time>
      </trkpt>
      <trkpt lat="46.353075373917818" lon="12.256665984168649">
        <ele>1984.78</ele>
        <time>2015-07-18T07:49:53Z</time>
      </trkpt>
      <trkpt lat="46.353060370311141" lon="12.25666606798768">
        <ele>1984.78</ele>
        <time>2015-07-18T07:50:09Z</time>
      </trkpt>
      <trkpt lat="46.353052239865065" lon="12.256671600043774">
        <ele>1984.78</ele>
        <time>2015-07-18T07:50:33Z</time>
      </trkpt>
      <trkpt lat="46.35308769531548" lon="12.256663050502539">
        <ele>1984.3</ele>
        <time>2015-07-18T07:50:55Z</time>
      </trkpt>
      <trkpt lat="46.353075122460723" lon="12.256674617528915">
        <ele>1984.78</ele>
        <time>2015-07-18T07:51:08Z</time>
      </trkpt>
      <trkpt lat="46.353046540170908" lon="12.256675036624074">
        <ele>1984.78</ele>
        <time>2015-07-18T07:51:25Z</time>
      </trkpt>
      <trkpt lat="46.353056933730841" lon="12.256673695519567">
        <ele>1984.78</ele>
        <time>2015-07-18T07:51:39Z</time>
      </trkpt>
      <trkpt lat="46.35306715965271" lon="12.256699427962303">
        <ele>1984.78</ele>
        <time>2015-07-18T07:51:53Z</time>
      </trkpt>
      <trkpt lat="46.353070009499788" lon="12.256666738539934">
        <ele>1984.3</ele>
        <time>2015-07-18T07:52:07Z</time>
      </trkpt>
      <trkpt lat="46.353063220158219" lon="12.256667073816061">
        <ele>1984.3</ele>
        <time>2015-07-18T07:52:20Z</time>
      </trkpt>
      <trkpt lat="46.353053664788604" lon="12.25670563057065">
        <ele>1984.3</ele>
        <time>2015-07-18T07:52:37Z</time>
      </trkpt>
      <trkpt lat="46.353058442473412" lon="12.256726417690516">
        <ele>1984.78</ele>
        <time>2015-07-18T07:52:52Z</time>
      </trkpt>
      <trkpt lat="46.353048132732511" lon="12.256722645834088">
        <ele>1984.78</ele>
        <time>2015-07-18T07:53:13Z</time>
      </trkpt>
      <trkpt lat="46.353030195459723" lon="12.256725244224072">
        <ele>1984.78</ele>
        <time>2015-07-18T07:53:34Z</time>
      </trkpt>
      <trkpt lat="46.353026675060391" lon="12.256707977503538">
        <ele>1984.78</ele>
        <time>2015-07-18T07:53:52Z</time>
      </trkpt>
      <trkpt lat="46.353021310642362" lon="12.256690040230751">
        <ele>1984.78</ele>
        <time>2015-07-18T07:54:03Z</time>
      </trkpt>
      <trkpt lat="46.353017706423998" lon="12.256728345528245">
        <ele>1985.74</ele>
        <time>2015-07-18T07:54:14Z</time>
      </trkpt>
      <trkpt lat="46.35296992957592" lon="12.256711581721902">
        <ele>1985.26</ele>
        <time>2015-07-18T07:54:33Z</time>
      </trkpt>
      <trkpt lat="46.352974288165569" lon="12.256698925048113">
        <ele>1985.26</ele>
        <time>2015-07-18T07:54:51Z</time>
      </trkpt>
      <trkpt lat="46.352957943454385" lon="12.256574789062142">
        <ele>1985.74</ele>
        <time>2015-07-18T07:55:15Z</time>
      </trkpt>
      <trkpt lat="46.353040924295783" lon="12.256694315001369">
        <ele>1985.74</ele>
        <time>2015-07-18T07:55:38Z</time>
      </trkpt>
      <trkpt lat="46.353036649525166" lon="12.256761873140931">
        <ele>1987.1800000000001</ele>
        <time>2015-07-18T07:56:01Z</time>
      </trkpt>
      <trkpt lat="46.353037655353546" lon="12.256766147911549">
        <ele>1987.1800000000001</ele>
        <time>2015-07-18T07:56:17Z</time>
      </trkpt>
      <trkpt lat="46.353078810498118" lon="12.256703535094857">
        <ele>1988.1400000000001</ele>
        <time>2015-07-18T07:56:34Z</time>
      </trkpt>
      <trkpt lat="46.353060035035014" lon="12.256746450439095">
        <ele>1989.0999999999999</ele>
        <time>2015-07-18T07:56:48Z</time>
      </trkpt>
      <trkpt lat="46.353047545999289" lon="12.256743013858795">
        <ele>1990.0699999999999</ele>
        <time>2015-07-18T07:57:07Z</time>
      </trkpt>
      <trkpt lat="46.353065818548203" lon="12.256721556186676">
        <ele>1990.55</ele>
        <time>2015-07-18T07:57:21Z</time>
      </trkpt>
      <trkpt lat="46.353065231814981" lon="12.256675371900201">
        <ele>1990.55</ele>
        <time>2015-07-18T07:57:34Z</time>
      </trkpt>
      <trkpt lat="46.353054335340858" lon="12.256709486246109">
        <ele>1991.99</ele>
        <time>2015-07-18T07:57:48Z</time>
      </trkpt>
      <trkpt lat="46.353043187409639" lon="12.256751395761967">
        <ele>1991.03</ele>
        <time>2015-07-18T07:58:02Z</time>
      </trkpt>
      <trkpt lat="46.353012677282095" lon="12.256762376055121">
        <ele>1991.51</ele>
        <time>2015-07-18T07:58:14Z</time>
      </trkpt>
      <trkpt lat="46.352994740009308" lon="12.256714263930917">
        <ele>1991.99</ele>
        <time>2015-07-18T07:58:28Z</time>
      </trkpt>
      <trkpt lat="46.353003373369575" lon="12.256731111556292">
        <ele>1993.4300000000001</ele>
        <time>2015-07-18T07:58:49Z</time>
      </trkpt>
      <trkpt lat="46.352999182417989" lon="12.256742343306541">
        <ele>1993.9100000000001</ele>
        <time>2015-07-18T07:59:00Z</time>
      </trkpt>
      <trkpt lat="46.352992812171578" lon="12.256759190931916">
        <ele>1994.8699999999999</ele>
        <time>2015-07-18T07:59:19Z</time>
      </trkpt>
      <trkpt lat="46.352988118305802" lon="12.256759526208043">
        <ele>1995.3499999999999</ele>
        <time>2015-07-18T07:59:38Z</time>
      </trkpt>
      <trkpt lat="46.352973030880094" lon="12.256813840940595">
        <ele>1995.8299999999999</ele>
        <time>2015-07-18T07:59:57Z</time>
      </trkpt>
      <trkpt lat="46.352959284558892" lon="12.256808811798692">
        <ele>1996.8</ele>
        <time>2015-07-18T08:00:20Z</time>
      </trkpt>
      <trkpt lat="46.352918716147542" lon="12.256638910621405">
        <ele>1997.28</ele>
        <time>2015-07-18T08:00:41Z</time>
      </trkpt>
      <trkpt lat="46.352898012846708" lon="12.256616447120905">
        <ele>1997.76</ele>
        <time>2015-07-18T08:01:02Z</time>
      </trkpt>
      <trkpt lat="46.352913519367576" lon="12.256778134033084">
        <ele>1998.72</ele>
        <time>2015-07-18T08:01:30Z</time>
      </trkpt>
      <trkpt lat="46.352908657863736" lon="12.256645699962974">
        <ele>2000.1600000000001</ele>
        <time>2015-07-18T08:01:49Z</time>
      </trkpt>
      <trkpt lat="46.352931959554553" lon="12.256670678034425">
        <ele>1999.6800000000001</ele>
        <time>2015-07-18T08:02:01Z</time>
      </trkpt>
      <trkpt lat="46.352965654805303" lon="12.256744438782334">
        <ele>2000.1600000000001</ele>
        <time>2015-07-18T08:02:17Z</time>
      </trkpt>
      <trkpt lat="46.352931456640363" lon="12.256744019687176">
        <ele>1998.72</ele>
        <time>2015-07-18T08:02:29Z</time>
      </trkpt>
      <trkpt lat="46.352879069745541" lon="12.256759107112885">
        <ele>1997.76</ele>
        <time>2015-07-18T08:02:42Z</time>
      </trkpt>
      <trkpt lat="46.352879237383604" lon="12.256759107112885">
        <ele>1998.72</ele>
        <time>2015-07-18T08:03:01Z</time>
      </trkpt>
      <trkpt lat="46.352858366444707" lon="12.256767405197024">
        <ele>1999.6800000000001</ele>
        <time>2015-07-18T08:03:19Z</time>
      </trkpt>
      <trkpt lat="46.352842021733522" lon="12.256781905889511">
        <ele>2001.1199999999999</ele>
        <time>2015-07-18T08:03:40Z</time>
      </trkpt>
      <trkpt lat="46.352857360616326" lon="12.256714263930917">
        <ele>2002.0799999999999</ele>
        <time>2015-07-18T08:04:00Z</time>
      </trkpt>
      <trkpt lat="46.352865742519498" lon="12.256759945303202">
        <ele>2002.5599999999999</ele>
        <time>2015-07-18T08:04:14Z</time>
      </trkpt>
      <trkpt lat="46.352888625115156" lon="12.256823983043432">
        <ele>2003.52</ele>
        <time>2015-07-18T08:04:30Z</time>
      </trkpt>
      <trkpt lat="46.352916201576591" lon="12.256870251148939">
        <ele>2004.01</ele>
        <time>2015-07-18T08:04:49Z</time>
      </trkpt>
      <trkpt lat="46.352900862693787" lon="12.256850386038423">
        <ele>2004.01</ele>
        <time>2015-07-18T08:05:07Z</time>
      </trkpt>
      <trkpt lat="46.352857947349548" lon="12.256813505664468">
        <ele>2004.97</ele>
        <time>2015-07-18T08:05:24Z</time>
      </trkpt>
      <trkpt lat="46.35283749550581" lon="12.256786935031414">
        <ele>2004.49</ele>
        <time>2015-07-18T08:05:34Z</time>
      </trkpt>
      <trkpt lat="46.352865658700466" lon="12.256807638332248">
        <ele>2004.97</ele>
        <time>2015-07-18T08:05:48Z</time>
      </trkpt>
      <trkpt lat="46.352864233776927" lon="12.256800932809711">
        <ele>2004.97</ele>
        <time>2015-07-18T08:06:01Z</time>
      </trkpt>
      <trkpt lat="46.352887032553554" lon="12.256875112652779">
        <ele>2004.97</ele>
        <time>2015-07-18T08:06:22Z</time>
      </trkpt>
      <trkpt lat="46.352864820510149" lon="12.256873100996017">
        <ele>2004.97</ele>
        <time>2015-07-18T08:06:36Z</time>
      </trkpt>
      <trkpt lat="46.352834142744541" lon="12.256880979984999">
        <ele>2005.45</ele>
        <time>2015-07-18T08:06:49Z</time>
      </trkpt>
      <trkpt lat="46.352818552404642" lon="12.256850469857454">
        <ele>2005.45</ele>
        <time>2015-07-18T08:06:59Z</time>
      </trkpt>
      <trkpt lat="46.352811679244041" lon="12.256832113489509">
        <ele>2004.97</ele>
        <time>2015-07-18T08:07:08Z</time>
      </trkpt>
      <trkpt lat="46.352802291512489" lon="12.256843177601695">
        <ele>2005.45</ele>
        <time>2015-07-18T08:07:21Z</time>
      </trkpt>
      <trkpt lat="46.352792652323842" lon="12.256827838718891">
        <ele>2005.9300000000001</ele>
        <time>2015-07-18T08:07:37Z</time>
      </trkpt>
      <trkpt lat="46.352772787213326" lon="12.256836136803031">
        <ele>2005.9300000000001</ele>
        <time>2015-07-18T08:07:51Z</time>
      </trkpt>
      <trkpt lat="46.352761387825012" lon="12.256809482350945">
        <ele>2005.9300000000001</ele>
        <time>2015-07-18T08:08:04Z</time>
      </trkpt>
      <trkpt lat="46.352739259600639" lon="12.256856085732579">
        <ele>2005.9300000000001</ele>
        <time>2015-07-18T08:08:16Z</time>
      </trkpt>
      <trkpt lat="46.352727189660072" lon="12.256763549521565">
        <ele>2005.9300000000001</ele>
        <time>2015-07-18T08:08:31Z</time>
      </trkpt>
      <trkpt lat="46.352705731987953" lon="12.256803782656789">
        <ele>2004.97</ele>
        <time>2015-07-18T08:08:47Z</time>
      </trkpt>
      <trkpt lat="46.352700451388955" lon="12.256846698001027">
        <ele>2004.97</ele>
        <time>2015-07-18T08:09:02Z</time>
      </trkpt>
      <trkpt lat="46.352686705067754" lon="12.256733039394021">
        <ele>2004.97</ele>
        <time>2015-07-18T08:09:15Z</time>
      </trkpt>
      <trkpt lat="46.352665415033698" lon="12.256748881191015">
        <ele>2004.49</ele>
        <time>2015-07-18T08:09:28Z</time>
      </trkpt>
      <trkpt lat="46.352651920169592" lon="12.256789030507207">
        <ele>2004.01</ele>
        <time>2015-07-18T08:09:38Z</time>
      </trkpt>
      <trkpt lat="46.352635659277439" lon="12.256814176216722">
        <ele>2003.52</ele>
        <time>2015-07-18T08:09:48Z</time>
      </trkpt>
      <trkpt lat="46.352628283202648" lon="12.256791964173317">
        <ele>2004.01</ele>
        <time>2015-07-18T08:10:01Z</time>
      </trkpt>
      <trkpt lat="46.35260783135891" lon="12.256817780435085">
        <ele>2003.52</ele>
        <time>2015-07-18T08:10:12Z</time>
      </trkpt>
      <trkpt lat="46.352585116401315" lon="12.256776122376323">
        <ele>2003.04</ele>
        <time>2015-07-18T08:10:23Z</time>
      </trkpt>
      <trkpt lat="46.352572040632367" lon="12.256783749908209">
        <ele>2003.04</ele>
        <time>2015-07-18T08:10:33Z</time>
      </trkpt>
      <trkpt lat="46.352559300139546" lon="12.256826665252447">
        <ele>2003.04</ele>
        <time>2015-07-18T08:10:46Z</time>
      </trkpt>
      <trkpt lat="46.352536836639047" lon="12.25682239048183">
        <ele>2004.01</ele>
        <time>2015-07-18T08:11:01Z</time>
      </trkpt>
      <trkpt lat="46.352526275441051" lon="12.256787437945604">
        <ele>2004.49</ele>
        <time>2015-07-18T08:11:19Z</time>
      </trkpt>
      <trkpt lat="46.352491825819016" lon="12.256738236173987">
        <ele>2004.97</ele>
        <time>2015-07-18T08:11:35Z</time>
      </trkpt>
      <trkpt lat="46.352492077276111" lon="12.256735134869814">
        <ele>2004.97</ele>
        <time>2015-07-18T08:11:51Z</time>
      </trkpt>
      <trkpt lat="46.352492161095142" lon="12.256743768230081">
        <ele>2005.9300000000001</ele>
        <time>2015-07-18T08:11:56Z</time>
      </trkpt>
      <trkpt lat="46.352499620988965" lon="12.256759693846107">
        <ele>2004.49</ele>
        <time>2015-07-18T08:12:12Z</time>
      </trkpt>
      <trkpt lat="46.352494340389967" lon="12.256758855655789">
        <ele>2004.97</ele>
        <time>2015-07-18T08:12:25Z</time>
      </trkpt>
      <trkpt lat="46.352587714791298" lon="12.256822055205703">
        <ele>2004.49</ele>
        <time>2015-07-18T08:12:37Z</time>
      </trkpt>
      <trkpt lat="46.35258637368679" lon="12.256817193701863">
        <ele>2004.01</ele>
        <time>2015-07-18T08:12:49Z</time>
      </trkpt>
      <trkpt lat="46.352590145543218" lon="12.256791964173317">
        <ele>2004.01</ele>
        <time>2015-07-18T08:13:01Z</time>
      </trkpt>
      <trkpt lat="46.352581344544888" lon="12.256797077134252">
        <ele>2004.01</ele>
        <time>2015-07-18T08:13:16Z</time>
      </trkpt>
      <trkpt lat="46.352603640407324" lon="12.256812499836087">
        <ele>2004.01</ele>
        <time>2015-07-18T08:13:39Z</time>
      </trkpt>
      <trkpt lat="46.352595342323184" lon="12.256764471530914">
        <ele>2005.45</ele>
        <time>2015-07-18T08:13:57Z</time>
      </trkpt>
      <trkpt lat="46.352578746154904" lon="12.256778050214052">
        <ele>2002.5599999999999</ele>
        <time>2015-07-18T08:14:08Z</time>
      </trkpt>
      <trkpt lat="46.352568604052067" lon="12.256783246994019">
        <ele>2002.0799999999999</ele>
        <time>2015-07-18T08:14:19Z</time>
      </trkpt>
      <trkpt lat="46.352567095309496" lon="12.25679162889719">
        <ele>2002.0799999999999</ele>
        <time>2015-07-18T08:14:38Z</time>
      </trkpt>
      <trkpt lat="46.352567179128528" lon="12.25677452981472">
        <ele>2002.0799999999999</ele>
        <time>2015-07-18T08:14:51Z</time>
      </trkpt>
      <trkpt lat="46.352575561031699" lon="12.256807805970311">
        <ele>2002.0799999999999</ele>
        <time>2015-07-18T08:15:08Z</time>
      </trkpt>
      <trkpt lat="46.352559383958578" lon="12.25680235773325">
        <ele>2002.0799999999999</ele>
        <time>2015-07-18T08:15:27Z</time>
      </trkpt>
      <trkpt lat="46.352571621537209" lon="12.256720466539264">
        <ele>2002.0799999999999</ele>
        <time>2015-07-18T08:15:39Z</time>
      </trkpt>
      <trkpt lat="46.352581847459078" lon="12.256649555638433">
        <ele>2003.04</ele>
        <time>2015-07-18T08:15:58Z</time>
      </trkpt>
      <trkpt lat="46.352585116401315" lon="12.256695237010717">
        <ele>2001.5999999999999</ele>
        <time>2015-07-18T08:16:18Z</time>
      </trkpt>
      <trkpt lat="46.352617554366589" lon="12.256718622520566">
        <ele>2001.5999999999999</ele>
        <time>2015-07-18T08:16:42Z</time>
      </trkpt>
      <trkpt lat="46.352600455284119" lon="12.256767908111215">
        <ele>2001.5999999999999</ele>
        <time>2015-07-18T08:17:02Z</time>
      </trkpt>
      <trkpt lat="46.352630713954568" lon="12.256700769066811">
        <ele>2001.5999999999999</ele>
        <time>2015-07-18T08:17:20Z</time>
      </trkpt>
      <trkpt lat="46.352635659277439" lon="12.256690207868814">
        <ele>2001.5999999999999</ele>
        <time>2015-07-18T08:17:36Z</time>
      </trkpt>
      <trkpt lat="46.35268553160131" lon="12.256768830120564">
        <ele>2001.5999999999999</ele>
        <time>2015-07-18T08:17:58Z</time>
      </trkpt>
      <trkpt lat="46.352694416418672" lon="12.256791125983">
        <ele>2001.5999999999999</ele>
        <time>2015-07-18T08:18:12Z</time>
      </trkpt>
      <trkpt lat="46.352704977616668" lon="12.256760615855455">
        <ele>2000.6400000000001</ele>
        <time>2015-07-18T08:18:23Z</time>
      </trkpt>
      <trkpt lat="46.35271780192852" lon="12.256740164011717">
        <ele>2001.1199999999999</ele>
        <time>2015-07-18T08:18:35Z</time>
      </trkpt>
      <trkpt lat="46.352736577391624" lon="12.256743349134922">
        <ele>2000.6400000000001</ele>
        <time>2015-07-18T08:18:52Z</time>
      </trkpt>
      <trkpt lat="46.352716544643044" lon="12.256787437945604">
        <ele>2000.6400000000001</ele>
        <time>2015-07-18T08:19:15Z</time>
      </trkpt>
      <trkpt lat="46.352706821635365" lon="12.256801268085837">
        <ele>2000.6400000000001</ele>
        <time>2015-07-18T08:19:35Z</time>
      </trkpt>
      <trkpt lat="46.352708917111158" lon="12.256787437945604">
        <ele>2000.6400000000001</ele>
        <time>2015-07-18T08:19:55Z</time>
      </trkpt>
      <trkpt lat="46.352732302621007" lon="12.256716778501868">
        <ele>2000.1600000000001</ele>
        <time>2015-07-18T08:20:04Z</time>
      </trkpt>
      <trkpt lat="46.352736661210656" lon="12.256744606420398">
        <ele>1999.6800000000001</ele>
        <time>2015-07-18T08:20:13Z</time>
      </trkpt>
      <trkpt lat="46.352708749473095" lon="12.256732620298862">
        <ele>1998.24</ele>
        <time>2015-07-18T08:20:27Z</time>
      </trkpt>
      <trkpt lat="46.352670276537538" lon="12.256737817078829">
        <ele>1997.76</ele>
        <time>2015-07-18T08:20:37Z</time>
      </trkpt>
      <trkpt lat="46.352669186890125" lon="12.256739242002368">
        <ele>1997.28</ele>
        <time>2015-07-18T08:20:51Z</time>
      </trkpt>
      <trkpt lat="46.352670527994633" lon="12.25674033164978">
        <ele>1997.28</ele>
        <time>2015-07-18T08:21:05Z</time>
      </trkpt>
      <trkpt lat="46.352662062272429" lon="12.256746366620064">
        <ele>1996.8</ele>
        <time>2015-07-18T08:21:17Z</time>
      </trkpt>
      <trkpt lat="46.352629037573934" lon="12.256755335256457">
        <ele>1995.3499999999999</ele>
        <time>2015-07-18T08:21:29Z</time>
      </trkpt>
      <trkpt lat="46.352630546316504" lon="12.256696159020066">
        <ele>1994.8699999999999</ele>
        <time>2015-07-18T08:21:39Z</time>
      </trkpt>
      <trkpt lat="46.352618141099811" lon="12.25669976323843">
        <ele>1995.8299999999999</ele>
        <time>2015-07-18T08:22:02Z</time>
      </trkpt>
      <trkpt lat="46.352615542709827" lon="12.256682245060802">
        <ele>1994.3900000000001</ele>
        <time>2015-07-18T08:22:16Z</time>
      </trkpt>
      <trkpt lat="46.352601712569594" lon="12.256671851500869">
        <ele>1994.3900000000001</ele>
        <time>2015-07-18T08:22:30Z</time>
      </trkpt>
      <trkpt lat="46.352588385343552" lon="12.256697081029415">
        <ele>1994.3900000000001</ele>
        <time>2015-07-18T08:22:40Z</time>
      </trkpt>
      <trkpt lat="46.352590816095471" lon="12.256716778501868">
        <ele>1993.4300000000001</ele>
        <time>2015-07-18T08:22:51Z</time>
      </trkpt>
      <trkpt lat="46.352574890479445" lon="12.256750641390681">
        <ele>1991.99</ele>
        <time>2015-07-18T08:23:02Z</time>
      </trkpt>
      <trkpt lat="46.352529460564256" lon="12.256725579500198">
        <ele>1991.51</ele>
        <time>2015-07-18T08:23:15Z</time>
      </trkpt>
      <trkpt lat="46.352504482492805" lon="12.25673739798367">
        <ele>1990.55</ele>
        <time>2015-07-18T08:23:23Z</time>
      </trkpt>
      <trkpt lat="46.352490736171603" lon="12.256676461547613">
        <ele>1990.0699999999999</ele>
        <time>2015-07-18T08:23:34Z</time>
      </trkpt>
      <trkpt lat="46.352462824434042" lon="12.256644945591688">
        <ele>1988.6199999999999</ele>
        <time>2015-07-18T08:23:48Z</time>
      </trkpt>
      <trkpt lat="46.352428123354912" lon="12.256618542596698">
        <ele>1987.6600000000001</ele>
        <time>2015-07-18T08:24:01Z</time>
      </trkpt>
      <trkpt lat="46.352420412003994" lon="12.256618877872825">
        <ele>1987.6600000000001</ele>
        <time>2015-07-18T08:24:04Z</time>
      </trkpt>
      <trkpt lat="46.352404654026031" lon="12.256681742146611">
        <ele>1985.74</ele>
        <time>2015-07-18T08:24:19Z</time>
      </trkpt>
      <trkpt lat="46.352397948503494" lon="12.25672759115696">
        <ele>1984.78</ele>
        <time>2015-07-18T08:24:32Z</time>
      </trkpt>
      <trkpt lat="46.352402390912175" lon="12.256748378276825">
        <ele>1984.78</ele>
        <time>2015-07-18T08:24:34Z</time>
      </trkpt>
      <trkpt lat="46.35240264236927" lon="12.256857259199023">
        <ele>1983.3399999999999</ele>
        <time>2015-07-18T08:24:49Z</time>
      </trkpt>
      <trkpt lat="46.352352434769273" lon="12.256767321377993">
        <ele>1982.8599999999999</ele>
        <time>2015-07-18T08:24:59Z</time>
      </trkpt>
      <trkpt lat="46.352295773103833" lon="12.25655416958034">
        <ele>1981.9000000000001</ele>
        <time>2015-07-18T08:25:13Z</time>
      </trkpt>
      <trkpt lat="46.352279679849744" lon="12.256531622260809">
        <ele>1981.4100000000001</ele>
        <time>2015-07-18T08:25:23Z</time>
      </trkpt>
      <trkpt lat="46.352266855537891" lon="12.256505889818072">
        <ele>1980.9300000000001</ele>
        <time>2015-07-18T08:25:31Z</time>
      </trkpt>
      <trkpt lat="46.352272471413016" lon="12.256612339988351">
        <ele>1979.97</ele>
        <time>2015-07-18T08:25:41Z</time>
      </trkpt>
      <trkpt lat="46.352261994034052" lon="12.256646286696196">
        <ele>1979.49</ele>
        <time>2015-07-18T08:25:54Z</time>
      </trkpt>
      <trkpt lat="46.352287475019693" lon="12.256761454045773">
        <ele>1978.53</ele>
        <time>2015-07-18T08:26:12Z</time>
      </trkpt>
      <trkpt lat="46.352279344573617" lon="12.256806632503867">
        <ele>1978.05</ele>
        <time>2015-07-18T08:26:23Z</time>
      </trkpt>
      <trkpt lat="46.352271381765604" lon="12.256771009415388">
        <ele>1978.05</ele>
        <time>2015-07-18T08:26:34Z</time>
      </trkpt>
      <trkpt lat="46.352234249934554" lon="12.256763717159629">
        <ele>1976.6099999999999</ele>
        <time>2015-07-18T08:26:50Z</time>
      </trkpt>
      <trkpt lat="46.352220168337226" lon="12.256760867312551">
        <ele>1976.6099999999999</ele>
        <time>2015-07-18T08:27:02Z</time>
      </trkpt>
      <trkpt lat="46.352225448936224" lon="12.256768997758627">
        <ele>1975.6500000000001</ele>
        <time>2015-07-18T08:27:13Z</time>
      </trkpt>
      <trkpt lat="46.352218156680465" lon="12.256765561178327">
        <ele>1974.2</ele>
        <time>2015-07-18T08:27:23Z</time>
      </trkpt>
      <trkpt lat="46.352209439501166" lon="12.256755251437426">
        <ele>1973.72</ele>
        <time>2015-07-18T08:27:33Z</time>
      </trkpt>
      <trkpt lat="46.35215881280601" lon="12.25677645765245">
        <ele>1972.28</ele>
        <time>2015-07-18T08:27:46Z</time>
      </trkpt>
      <trkpt lat="46.352093853056431" lon="12.256693979725242">
        <ele>1971.8</ele>
        <time>2015-07-18T08:28:06Z</time>
      </trkpt>
      <trkpt lat="46.352107431739569" lon="12.256724489852786">
        <ele>1971.3199999999999</ele>
        <time>2015-07-18T08:28:21Z</time>
      </trkpt>
      <trkpt lat="46.352129140868783" lon="12.256725914776325">
        <ele>1971.3199999999999</ele>
        <time>2015-07-18T08:28:43Z</time>
      </trkpt>
      <trkpt lat="46.352135762572289" lon="12.256765812635422">
        <ele>1971.3199999999999</ele>
        <time>2015-07-18T08:29:03Z</time>
      </trkpt>
      <trkpt lat="46.352109108120203" lon="12.256690626963973">
        <ele>1971.3199999999999</ele>
        <time>2015-07-18T08:29:23Z</time>
      </trkpt>
      <trkpt lat="46.352142216637731" lon="12.256626337766647">
        <ele>1971.3199999999999</ele>
        <time>2015-07-18T08:29:42Z</time>
      </trkpt>
      <trkpt lat="46.352099049836397" lon="12.256534555926919">
        <ele>1971.3199999999999</ele>
        <time>2015-07-18T08:30:02Z</time>
      </trkpt>
      <trkpt lat="46.352099049836397" lon="12.256525000557303">
        <ele>1972.76</ele>
        <time>2015-07-18T08:30:06Z</time>
      </trkpt>
      <trkpt lat="46.352075915783644" lon="12.256494741886854">
        <ele>1970.8399999999999</ele>
        <time>2015-07-18T08:30:32Z</time>
      </trkpt>
      <trkpt lat="46.352041801437736" lon="12.256511421874166">
        <ele>1970.3599999999999</ele>
        <time>2015-07-18T08:30:38Z</time>
      </trkpt>
      <trkpt lat="46.351976422592998" lon="12.25656439550221">
        <ele>1966.99</ele>
        <time>2015-07-18T08:30:45Z</time>
      </trkpt>
      <trkpt lat="46.351967034861445" lon="12.256569843739271">
        <ele>1966.51</ele>
        <time>2015-07-18T08:31:01Z</time>
      </trkpt>
      <trkpt lat="46.351957060396671" lon="12.256497340276837">
        <ele>1965.55</ele>
        <time>2015-07-18T08:31:20Z</time>
      </trkpt>
      <trkpt lat="46.351931411772966" lon="12.256536735221744">
        <ele>1965.0699999999999</ele>
        <time>2015-07-18T08:31:34Z</time>
      </trkpt>
      <trkpt lat="46.351946415379643" lon="12.256560958921909">
        <ele>1965.0699999999999</ele>
        <time>2015-07-18T08:31:53Z</time>
      </trkpt>
      <trkpt lat="46.351943984627724" lon="12.256658775731921">
        <ele>1964.5899999999999</ele>
        <time>2015-07-18T08:32:11Z</time>
      </trkpt>
      <trkpt lat="46.351943565532565" lon="12.256686268374324">
        <ele>1964.1099999999999</ele>
        <time>2015-07-18T08:32:26Z</time>
      </trkpt>
      <trkpt lat="46.35195404291153" lon="12.256628349423409">
        <ele>1964.5899999999999</ele>
        <time>2015-07-18T08:32:41Z</time>
      </trkpt>
      <trkpt lat="46.351925795897841" lon="12.256604712456465">
        <ele>1963.6300000000001</ele>
        <time>2015-07-18T08:32:57Z</time>
      </trkpt>
      <trkpt lat="46.351906601339579" lon="12.25655559450388">
        <ele>1963.6300000000001</ele>
        <time>2015-07-18T08:33:13Z</time>
      </trkpt>
      <trkpt lat="46.35188271291554" lon="12.256579231470823">
        <ele>1963.1500000000001</ele>
        <time>2015-07-18T08:33:28Z</time>
      </trkpt>
      <trkpt lat="46.351864440366626" lon="12.256613010540605">
        <ele>1962.6700000000001</ele>
        <time>2015-07-18T08:33:50Z</time>
      </trkpt>
      <trkpt lat="46.351870223879814" lon="12.256615776568651">
        <ele>1962.6700000000001</ele>
        <time>2015-07-18T08:34:03Z</time>
      </trkpt>
      <trkpt lat="46.351860165596008" lon="12.256566742435098">
        <ele>1964.1099999999999</ele>
        <time>2015-07-18T08:34:09Z</time>
      </trkpt>
      <trkpt lat="46.351856896653771" lon="12.256393153220415">
        <ele>1962.6700000000001</ele>
        <time>2015-07-18T08:34:27Z</time>
      </trkpt>
      <trkpt lat="46.351841054856777" lon="12.256503794342279">
        <ele>1961.71</ele>
        <time>2015-07-18T08:34:44Z</time>
      </trkpt>
      <trkpt lat="46.35180551558733" lon="12.256431542336941">
        <ele>1961.71</ele>
        <time>2015-07-18T08:35:05Z</time>
      </trkpt>
      <trkpt lat="46.351801073178649" lon="12.256371863186359">
        <ele>1961.71</ele>
        <time>2015-07-18T08:35:30Z</time>
      </trkpt>
      <trkpt lat="46.351766372099519" lon="12.256247978657484">
        <ele>1961.71</ele>
        <time>2015-07-18T08:35:50Z</time>
      </trkpt>
      <trkpt lat="46.351753799244761" lon="12.25628636777401">
        <ele>1959.78</ele>
        <time>2015-07-18T08:36:05Z</time>
      </trkpt>
      <trkpt lat="46.35174784809351" lon="12.256271783262491">
        <ele>1961.23</ele>
        <time>2015-07-18T08:36:10Z</time>
      </trkpt>
      <trkpt lat="46.351770646870136" lon="12.256381334736943">
        <ele>1959.78</ele>
        <time>2015-07-18T08:36:26Z</time>
      </trkpt>
      <trkpt lat="46.351778777316213" lon="12.256444869562984">
        <ele>1959.78</ele>
        <time>2015-07-18T08:36:42Z</time>
      </trkpt>
      <trkpt lat="46.351796211674809" lon="12.256485857069492">
        <ele>1959.78</ele>
        <time>2015-07-18T08:37:00Z</time>
      </trkpt>
      <trkpt lat="46.351765114814043" lon="12.256290642544627">
        <ele>1959.78</ele>
        <time>2015-07-18T08:37:26Z</time>
      </trkpt>
      <trkpt lat="46.351732509210706" lon="12.256241776049137">
        <ele>1959.78</ele>
        <time>2015-07-18T08:37:50Z</time>
      </trkpt>
      <trkpt lat="46.351728653535247" lon="12.256261305883527">
        <ele>1959.3</ele>
        <time>2015-07-18T08:38:08Z</time>
      </trkpt>
      <trkpt lat="46.35173125192523" lon="12.256296677514911">
        <ele>1960.75</ele>
        <time>2015-07-18T08:38:11Z</time>
      </trkpt>
      <trkpt lat="46.351729072630405" lon="12.256355937570333">
        <ele>1959.3</ele>
        <time>2015-07-18T08:38:29Z</time>
      </trkpt>
      <trkpt lat="46.351719265803695" lon="12.256215373054147">
        <ele>1959.3</ele>
        <time>2015-07-18T08:38:45Z</time>
      </trkpt>
      <trkpt lat="46.35168774984777" lon="12.256127195432782">
        <ele>1957.8599999999999</ele>
        <time>2015-07-18T08:38:58Z</time>
      </trkpt>
      <trkpt lat="46.351695209741592" lon="12.256177235394716">
        <ele>1956.4200000000001</ele>
        <time>2015-07-18T08:39:12Z</time>
      </trkpt>
      <trkpt lat="46.35171658359468" lon="12.25635040551424">
        <ele>1956.4200000000001</ele>
        <time>2015-07-18T08:39:27Z</time>
      </trkpt>
      <trkpt lat="46.351699233055115" lon="12.256242949515581">
        <ele>1956.9000000000001</ele>
        <time>2015-07-18T08:39:44Z</time>
      </trkpt>
      <trkpt lat="46.351710800081491" lon="12.25625904276967">
        <ele>1956.9000000000001</ele>
        <time>2015-07-18T08:40:02Z</time>
      </trkpt>
      <trkpt lat="46.351697137579322" lon="12.256304556503892">
        <ele>1956.4200000000001</ele>
        <time>2015-07-18T08:40:19Z</time>
      </trkpt>
      <trkpt lat="46.351683391258121" lon="12.256304891780019">
        <ele>1955.9400000000001</ele>
        <time>2015-07-18T08:40:34Z</time>
      </trkpt>
      <trkpt lat="46.351715158671141" lon="12.256455682218075">
        <ele>1955.46</ele>
        <time>2015-07-18T08:40:48Z</time>
      </trkpt>
      <trkpt lat="46.351720858365297" lon="12.256511421874166">
        <ele>1955.46</ele>
        <time>2015-07-18T08:41:03Z</time>
      </trkpt>
      <trkpt lat="46.351704262197018" lon="12.256490048021078">
        <ele>1955.9400000000001</ele>
        <time>2015-07-18T08:41:19Z</time>
      </trkpt>
      <trkpt lat="46.351705268025398" lon="12.256513014435768">
        <ele>1954.5</ele>
        <time>2015-07-18T08:41:37Z</time>
      </trkpt>
      <trkpt lat="46.351693784818053" lon="12.256622649729252">
        <ele>1953.54</ele>
        <time>2015-07-18T08:41:53Z</time>
      </trkpt>
      <trkpt lat="46.35169898159802" lon="12.256625080481172">
        <ele>1953.0599999999999</ele>
        <time>2015-07-18T08:42:11Z</time>
      </trkpt>
      <trkpt lat="46.35170535184443" lon="12.256678221747279">
        <ele>1953.0599999999999</ele>
        <time>2015-07-18T08:42:21Z</time>
      </trkpt>
      <trkpt lat="46.351665453985333" lon="12.25660739466548">
        <ele>1952.5699999999999</ele>
        <time>2015-07-18T08:42:37Z</time>
      </trkpt>
      <trkpt lat="46.351661263033748" lon="12.256603538990021">
        <ele>1952.0899999999999</ele>
        <time>2015-07-18T08:42:50Z</time>
      </trkpt>
      <trkpt lat="46.351644163951278" lon="12.256586272269487">
        <ele>1952.0899999999999</ele>
        <time>2015-07-18T08:43:02Z</time>
      </trkpt>
      <trkpt lat="46.351627903059125" lon="12.256588619202375">
        <ele>1951.6099999999999</ele>
        <time>2015-07-18T08:43:16Z</time>
      </trkpt>
      <trkpt lat="46.351637374609709" lon="12.256578393280506">
        <ele>1951.6099999999999</ele>
        <time>2015-07-18T08:43:33Z</time>
      </trkpt>
      <trkpt lat="46.351620107889175" lon="12.256551487371325">
        <ele>1951.6099999999999</ele>
        <time>2015-07-18T08:43:54Z</time>
      </trkpt>
      <trkpt lat="46.351622371003032" lon="12.256558109074831">
        <ele>1951.6099999999999</ele>
        <time>2015-07-18T08:44:20Z</time>
      </trkpt>
      <trkpt lat="46.35160862468183" lon="12.256584847345948">
        <ele>1951.6099999999999</ele>
        <time>2015-07-18T08:44:46Z</time>
      </trkpt>
      <trkpt lat="46.351600158959627" lon="12.256573028862476">
        <ele>1951.6099999999999</ele>
        <time>2015-07-18T08:45:02Z</time>
      </trkpt>
      <trkpt lat="46.351606613025069" lon="12.256568670272827">
        <ele>1951.6099999999999</ele>
        <time>2015-07-18T08:45:25Z</time>
      </trkpt>
      <trkpt lat="46.351630249992013" lon="12.256575040519238">
        <ele>1951.6099999999999</ele>
        <time>2015-07-18T08:45:41Z</time>
      </trkpt>
      <trkpt lat="46.351617090404034" lon="12.256559869274497">
        <ele>1950.6500000000001</ele>
        <time>2015-07-18T08:45:59Z</time>
      </trkpt>
      <trkpt lat="46.351605355739594" lon="12.256550649181008">
        <ele>1950.1700000000001</ele>
        <time>2015-07-18T08:46:12Z</time>
      </trkpt>
      <trkpt lat="46.351603511720896" lon="12.256550816819072">
        <ele>1949.21</ele>
        <time>2015-07-18T08:46:21Z</time>
      </trkpt>
      <trkpt lat="46.351585574448109" lon="12.256515864282846">
        <ele>1947.77</ele>
        <time>2015-07-18T08:46:36Z</time>
      </trkpt>
      <trkpt lat="46.351566547527909" lon="12.256471356377006">
        <ele>1946.8099999999999</ele>
        <time>2015-07-18T08:46:49Z</time>
      </trkpt>
      <trkpt lat="46.351575935259461" lon="12.256473787128925">
        <ele>1947.29</ele>
        <time>2015-07-18T08:47:02Z</time>
      </trkpt>
      <trkpt lat="46.351567637175322" lon="12.25648770108819">
        <ele>1946.8099999999999</ele>
        <time>2015-07-18T08:47:27Z</time>
      </trkpt>
      <trkpt lat="46.351540982723236" lon="12.25648476742208">
        <ele>1945.8499999999999</ele>
        <time>2015-07-18T08:47:38Z</time>
      </trkpt>
      <trkpt lat="46.351525392383337" lon="12.256470853462815">
        <ele>1945.3599999999999</ele>
        <time>2015-07-18T08:47:52Z</time>
      </trkpt>
      <trkpt lat="46.351514831185341" lon="12.256441600620747">
        <ele>1944.8800000000001</ele>
        <time>2015-07-18T08:48:08Z</time>
      </trkpt>
      <trkpt lat="46.351523380726576" lon="12.256430452689528">
        <ele>1944.8800000000001</ele>
        <time>2015-07-18T08:48:28Z</time>
      </trkpt>
      <trkpt lat="46.351507036015391" lon="12.256422322243452">
        <ele>1944.4000000000001</ele>
        <time>2015-07-18T08:48:45Z</time>
      </trkpt>
      <trkpt lat="46.351472083479166" lon="12.256407150998712">
        <ele>1943.4400000000001</ele>
        <time>2015-07-18T08:48:58Z</time>
      </trkpt>
      <trkpt lat="46.35148499161005" lon="12.256357446312904">
        <ele>1943.4400000000001</ele>
        <time>2015-07-18T08:49:14Z</time>
      </trkpt>
      <trkpt lat="46.351458672434092" lon="12.256272034719586">
        <ele>1942.96</ele>
        <time>2015-07-18T08:49:32Z</time>
      </trkpt>
      <trkpt lat="46.351435957476497" lon="12.256235908716917">
        <ele>1942.96</ele>
        <time>2015-07-18T08:49:45Z</time>
      </trkpt>
      <trkpt lat="46.351407878100872" lon="12.256245883181691">
        <ele>1942</ele>
        <time>2015-07-18T08:50:01Z</time>
      </trkpt>
      <trkpt lat="46.35132665745914" lon="12.256186036393046">
        <ele>1943.4400000000001</ele>
        <time>2015-07-18T08:50:18Z</time>
      </trkpt>
      <trkpt lat="46.351312408223748" lon="12.25613247603178">
        <ele>1942.48</ele>
        <time>2015-07-18T08:50:39Z</time>
      </trkpt>
      <trkpt lat="46.351326908916235" lon="12.256161896511912">
        <ele>1941.52</ele>
        <time>2015-07-18T08:50:58Z</time>
      </trkpt>
      <trkpt lat="46.35136722587049" lon="12.256148150190711">
        <ele>1941.04</ele>
        <time>2015-07-18T08:51:12Z</time>
      </trkpt>
      <trkpt lat="46.351344846189022" lon="12.256098445504904">
        <ele>1940.0799999999999</ele>
        <time>2015-07-18T08:51:27Z</time>
      </trkpt>
      <trkpt lat="46.351358257234097" lon="12.256100457161665">
        <ele>1940.0799999999999</ele>
        <time>2015-07-18T08:51:42Z</time>
      </trkpt>
      <trkpt lat="46.351356664672494" lon="12.256117891520262">
        <ele>1939.5999999999999</ele>
        <time>2015-07-18T08:51:53Z</time>
      </trkpt>
      <trkpt lat="46.351330764591694" lon="12.256106240674853">
        <ele>1938.6400000000001</ele>
        <time>2015-07-18T08:52:07Z</time>
      </trkpt>
      <trkpt lat="46.351303774863482" lon="12.256140522658825">
        <ele>1937.6700000000001</ele>
        <time>2015-07-18T08:52:17Z</time>
      </trkpt>
      <trkpt lat="46.35127829387784" lon="12.256261222064495">
        <ele>1935.75</ele>
        <time>2015-07-18T08:52:28Z</time>
      </trkpt>
      <trkpt lat="46.351231019943953" lon="12.256238758563995">
        <ele>1934.3099999999999</ele>
        <time>2015-07-18T08:52:36Z</time>
      </trkpt>
      <trkpt lat="46.35121526196599" lon="12.256252421066165">
        <ele>1933.3499999999999</ele>
        <time>2015-07-18T08:52:46Z</time>
      </trkpt>
      <trkpt lat="46.351169077679515" lon="12.256255857646465">
        <ele>1930.95</ele>
        <time>2015-07-18T08:52:58Z</time>
      </trkpt>
      <trkpt lat="46.351155331358314" lon="12.256265999749303">
        <ele>1929.98</ele>
        <time>2015-07-18T08:53:07Z</time>
      </trkpt>
      <trkpt lat="46.351131610572338" lon="12.256266670301557">
        <ele>1929.02</ele>
        <time>2015-07-18T08:53:18Z</time>
      </trkpt>
      <trkpt lat="46.351086683571339" lon="12.256271950900555">
        <ele>1927.5799999999999</ele>
        <time>2015-07-18T08:53:32Z</time>
      </trkpt>
      <trkpt lat="46.35105399414897" lon="12.256265832111239">
        <ele>1926.1400000000001</ele>
        <time>2015-07-18T08:53:45Z</time>
      </trkpt>
      <trkpt lat="46.351041756570339" lon="12.256226101890206">
        <ele>1925.6600000000001</ele>
        <time>2015-07-18T08:54:01Z</time>
      </trkpt>
      <trkpt lat="46.351037146523595" lon="12.256226520985365">
        <ele>1925.1800000000001</ele>
        <time>2015-07-18T08:54:19Z</time>
      </trkpt>
      <trkpt lat="46.351029183715582" lon="12.256234902888536">
        <ele>1924.22</ele>
        <time>2015-07-18T08:54:32Z</time>
      </trkpt>
      <trkpt lat="46.351015940308571" lon="12.256261808797717">
        <ele>1923.25</ele>
        <time>2015-07-18T08:54:45Z</time>
      </trkpt>
      <trkpt lat="46.35100613348186" lon="12.256269939243793">
        <ele>1922.77</ele>
        <time>2015-07-18T08:54:55Z</time>
      </trkpt>
      <trkpt lat="46.350972857326269" lon="12.256260635331273">
        <ele>1921.8099999999999</ele>
        <time>2015-07-18T08:55:03Z</time>
      </trkpt>
      <trkpt lat="46.35097386315465" lon="12.256260048598051">
        <ele>1921.3299999999999</ele>
        <time>2015-07-18T08:55:13Z</time>
      </trkpt>
      <trkpt lat="46.350959027186036" lon="12.25628393702209">
        <ele>1920.8499999999999</ele>
        <time>2015-07-18T08:55:21Z</time>
      </trkpt>
      <trkpt lat="46.350938156247139" lon="12.256304807960987">
        <ele>1919.8900000000001</ele>
        <time>2015-07-18T08:55:32Z</time>
      </trkpt>
      <trkpt lat="46.350935222581029" lon="12.256295001134276">
        <ele>1919.4100000000001</ele>
        <time>2015-07-18T08:55:45Z</time>
      </trkpt>
      <trkpt lat="46.350919380784035" lon="12.256317464634776">
        <ele>1919.4100000000001</ele>
        <time>2015-07-18T08:55:58Z</time>
      </trkpt>
      <trkpt lat="46.350895995274186" lon="12.256307490170002">
        <ele>1918.9300000000001</ele>
        <time>2015-07-18T08:56:09Z</time>
      </trkpt>
      <trkpt lat="46.350865233689547" lon="12.25631520152092">
        <ele>1917.97</ele>
        <time>2015-07-18T08:56:18Z</time>
      </trkpt>
      <trkpt lat="46.350865233689547" lon="12.256325930356979">
        <ele>1919.4100000000001</ele>
        <time>2015-07-18T08:56:22Z</time>
      </trkpt>
      <trkpt lat="46.350839333608747" lon="12.256343029439449">
        <ele>1917.01</ele>
        <time>2015-07-18T08:56:33Z</time>
      </trkpt>
      <trkpt lat="46.350819049403071" lon="12.256332552060485">
        <ele>1915.5599999999999</ele>
        <time>2015-07-18T08:56:40Z</time>
      </trkpt>
      <trkpt lat="46.350802201777697" lon="12.256319895386696">
        <ele>1914.5999999999999</ele>
        <time>2015-07-18T08:56:49Z</time>
      </trkpt>
      <trkpt lat="46.350792311131954" lon="12.256288882344961">
        <ele>1914.1199999999999</ele>
        <time>2015-07-18T08:56:59Z</time>
      </trkpt>
      <trkpt lat="46.350767919793725" lon="12.256261808797717">
        <ele>1912.6800000000001</ele>
        <time>2015-07-18T08:57:09Z</time>
      </trkpt>
      <trkpt lat="46.350794741883874" lon="12.256299192085862">
        <ele>1912.2</ele>
        <time>2015-07-18T08:57:21Z</time>
      </trkpt>
      <trkpt lat="46.350824330002069" lon="12.256295755505562">
        <ele>1911.24</ele>
        <time>2015-07-18T08:57:35Z</time>
      </trkpt>
      <trkpt lat="46.350848469883204" lon="12.256284272298217">
        <ele>1910.76</ele>
        <time>2015-07-18T08:57:51Z</time>
      </trkpt>
      <trkpt lat="46.350896498188376" lon="12.256381837651134">
        <ele>1910.28</ele>
        <time>2015-07-18T08:58:10Z</time>
      </trkpt>
      <trkpt lat="46.350839082151651" lon="12.256510080769658">
        <ele>1908.8299999999999</ele>
        <time>2015-07-18T08:58:26Z</time>
      </trkpt>
      <trkpt lat="46.350800022482872" lon="12.256551990285516">
        <ele>1907.8699999999999</ele>
        <time>2015-07-18T08:58:39Z</time>
      </trkpt>
      <trkpt lat="46.350767333060503" lon="12.256656596437097">
        <ele>1906.9100000000001</ele>
        <time>2015-07-18T08:58:52Z</time>
      </trkpt>
      <trkpt lat="46.350746043026447" lon="12.256706217303872">
        <ele>1906.4300000000001</ele>
        <time>2015-07-18T08:59:00Z</time>
      </trkpt>
      <trkpt lat="46.350726429373026" lon="12.256764722988009">
        <ele>1904.99</ele>
        <time>2015-07-18T08:59:12Z</time>
      </trkpt>
      <trkpt lat="46.350709414109588" lon="12.256693560630083">
        <ele>1904.03</ele>
        <time>2015-07-18T08:59:22Z</time>
      </trkpt>
      <trkpt lat="46.350703127682209" lon="12.256677383556962">
        <ele>1904.03</ele>
        <time>2015-07-18T08:59:23Z</time>
      </trkpt>
      <trkpt lat="46.350659122690558" lon="12.256617955863476">
        <ele>1903.55</ele>
        <time>2015-07-18T08:59:33Z</time>
      </trkpt>
      <trkpt lat="46.350623080506921" lon="12.256604544818401">
        <ele>1904.03</ele>
        <time>2015-07-18T08:59:47Z</time>
      </trkpt>
      <trkpt lat="46.350647388026118" lon="12.256622314453125">
        <ele>1904.03</ele>
        <time>2015-07-18T09:00:05Z</time>
      </trkpt>
      <trkpt lat="46.350686112418771" lon="12.25657663308084">
        <ele>1903.55</ele>
        <time>2015-07-18T09:00:20Z</time>
      </trkpt>
      <trkpt lat="46.35070463642478" lon="12.256597755476832">
        <ele>1903.55</ele>
        <time>2015-07-18T09:00:36Z</time>
      </trkpt>
      <trkpt lat="46.350680245086551" lon="12.256631953641772">
        <ele>1903.0699999999999</ele>
        <time>2015-07-18T09:00:46Z</time>
      </trkpt>
      <trkpt lat="46.350663984194398" lon="12.256686352193356">
        <ele>1903.55</ele>
        <time>2015-07-18T09:01:00Z</time>
      </trkpt>
      <trkpt lat="46.350630540400743" lon="12.256748462095857">
        <ele>1903.0699999999999</ele>
        <time>2015-07-18T09:01:13Z</time>
      </trkpt>
      <trkpt lat="46.350778229534626" lon="12.256561545655131">
        <ele>1903.0699999999999</ele>
        <time>2015-07-18T09:01:25Z</time>
      </trkpt>
      <trkpt lat="46.350896917283535" lon="12.256594402715564">
        <ele>1903.0699999999999</ele>
        <time>2015-07-18T09:01:39Z</time>
      </trkpt>
      <trkpt lat="46.350971683859825" lon="12.256539585068822">
        <ele>1903.0699999999999</ele>
        <time>2015-07-18T09:01:53Z</time>
      </trkpt>
      <trkpt lat="46.351006301119924" lon="12.256564144045115">
        <ele>1903.55</ele>
        <time>2015-07-18T09:02:01Z</time>
      </trkpt>
      <trkpt lat="46.351044271141291" lon="12.256568251177669">
        <ele>1903.55</ele>
        <time>2015-07-18T09:02:08Z</time>
      </trkpt>
      <trkpt lat="46.351105878129601" lon="12.256579985842109">
        <ele>1902.5899999999999</ele>
        <time>2015-07-18T09:02:21Z</time>
      </trkpt>
      <trkpt lat="46.351149547845125" lon="12.257204186171293">
        <ele>1902.1099999999999</ele>
        <time>2015-07-18T09:02:31Z</time>
      </trkpt>
      <trkpt lat="46.351597309112549" lon="12.257322873920202">
        <ele>1900.6600000000001</ele>
        <time>2015-07-18T09:02:39Z</time>
      </trkpt>
      <trkpt lat="46.351795289665461" lon="12.257398897781968">
        <ele>1900.1800000000001</ele>
        <time>2015-07-18T09:02:53Z</time>
      </trkpt>
      <trkpt lat="46.351856980472803" lon="12.257397556677461">
        <ele>1899.7</ele>
        <time>2015-07-18T09:03:07Z</time>
      </trkpt>
      <trkpt lat="46.351862763985991" lon="12.257418427616358">
        <ele>1899.22</ele>
        <time>2015-07-18T09:03:25Z</time>
      </trkpt>
      <trkpt lat="46.351823871955276" lon="12.257446758449078">
        <ele>1898.74</ele>
        <time>2015-07-18T09:03:40Z</time>
      </trkpt>
      <trkpt lat="46.351805180311203" lon="12.257478442043066">
        <ele>1898.26</ele>
        <time>2015-07-18T09:03:53Z</time>
      </trkpt>
      <trkpt lat="46.351811047643423" lon="12.257514651864767">
        <ele>1897.78</ele>
        <time>2015-07-18T09:04:10Z</time>
      </trkpt>
      <trkpt lat="46.3518294878304" lon="12.257584724575281">
        <ele>1896.8199999999999</ele>
        <time>2015-07-18T09:04:26Z</time>
      </trkpt>
      <trkpt lat="46.35182848200202" lon="12.257615653797984">
        <ele>1895.8599999999999</ele>
        <time>2015-07-18T09:04:33Z</time>
      </trkpt>
      <trkpt lat="46.351806437596679" lon="12.257616240531206">
        <ele>1895.3800000000001</ele>
        <time>2015-07-18T09:04:45Z</time>
      </trkpt>
      <trkpt lat="46.351801156997681" lon="12.257621940225363">
        <ele>1893.9300000000001</ele>
        <time>2015-07-18T09:04:58Z</time>
      </trkpt>
      <trkpt lat="46.351789087057114" lon="12.25763451308012">
        <ele>1893.45</ele>
        <time>2015-07-18T09:05:06Z</time>
      </trkpt>
      <trkpt lat="46.351784728467464" lon="12.257617246359587">
        <ele>1892.01</ele>
        <time>2015-07-18T09:05:17Z</time>
      </trkpt>
      <trkpt lat="46.351867122575641" lon="12.257649013772607">
        <ele>1891.53</ele>
        <time>2015-07-18T09:05:26Z</time>
      </trkpt>
      <trkpt lat="46.351877683773637" lon="12.257656892761588">
        <ele>1890.0899999999999</ele>
        <time>2015-07-18T09:05:35Z</time>
      </trkpt>
      <trkpt lat="46.351868966594338" lon="12.25765161216259">
        <ele>1890.0899999999999</ele>
        <time>2015-07-18T09:05:36Z</time>
      </trkpt>
      <trkpt lat="46.351840468123555" lon="12.257620599120855">
        <ele>1889.1300000000001</ele>
        <time>2015-07-18T09:05:43Z</time>
      </trkpt>
      <trkpt lat="46.351829320192337" lon="12.25764524191618">
        <ele>1887.6900000000001</ele>
        <time>2015-07-18T09:05:54Z</time>
      </trkpt>
      <trkpt lat="46.351827895268798" lon="12.257659323513508">
        <ele>1887.21</ele>
        <time>2015-07-18T09:06:08Z</time>
      </trkpt>
      <trkpt lat="46.351828314363956" lon="12.257664939388633">
        <ele>1885.76</ele>
        <time>2015-07-18T09:06:22Z</time>
      </trkpt>
      <trkpt lat="46.351806856691837" lon="12.257663263007998">
        <ele>1884.3199999999999</ele>
        <time>2015-07-18T09:06:34Z</time>
      </trkpt>
      <trkpt lat="46.351794702932239" lon="12.25765404291451">
        <ele>1883.8399999999999</ele>
        <time>2015-07-18T09:06:43Z</time>
      </trkpt>
      <trkpt lat="46.351778274402022" lon="12.257644236087799">
        <ele>1882.8800000000001</ele>
        <time>2015-07-18T09:06:52Z</time>
      </trkpt>
      <trkpt lat="46.351782213896513" lon="12.257691510021687">
        <ele>1881.4400000000001</ele>
        <time>2015-07-18T09:07:02Z</time>
      </trkpt>
      <trkpt lat="46.351759247481823" lon="12.257694443687797">
        <ele>1879.51</ele>
        <time>2015-07-18T09:07:12Z</time>
      </trkpt>
      <trkpt lat="46.351741058751941" lon="12.257693354040384">
        <ele>1878.0699999999999</ele>
        <time>2015-07-18T09:07:21Z</time>
      </trkpt>
      <trkpt lat="46.351728402078152" lon="12.257695533335209">
        <ele>1876.6300000000001</ele>
        <time>2015-07-18T09:07:29Z</time>
      </trkpt>
      <trkpt lat="46.351740807294846" lon="12.257715566083789">
        <ele>1874.71</ele>
        <time>2015-07-18T09:07:40Z</time>
      </trkpt>
      <trkpt lat="46.351720439270139" lon="12.257731491699815">
        <ele>1873.75</ele>
        <time>2015-07-18T09:07:50Z</time>
      </trkpt>
      <trkpt lat="46.351695712655783" lon="12.257735263556242">
        <ele>1872.3</ele>
        <time>2015-07-18T09:07:59Z</time>
      </trkpt>
      <trkpt lat="46.351678194478154" lon="12.257746662944555">
        <ele>1871.3399999999999</ele>
        <time>2015-07-18T09:08:09Z</time>
      </trkpt>
      <trkpt lat="46.35167651809752" lon="12.257771892473102">
        <ele>1869.4200000000001</ele>
        <time>2015-07-18T09:08:20Z</time>
      </trkpt>
      <trkpt lat="46.351632596924901" lon="12.257771221920848">
        <ele>1868.9400000000001</ele>
        <time>2015-07-18T09:08:29Z</time>
      </trkpt>
      <trkpt lat="46.351618599146605" lon="12.257783208042383">
        <ele>1866.54</ele>
        <time>2015-07-18T09:08:38Z</time>
      </trkpt>
      <trkpt lat="46.351574091240764" lon="12.257765354588628">
        <ele>1864.6099999999999</ele>
        <time>2015-07-18T09:08:48Z</time>
      </trkpt>
      <trkpt lat="46.351592531427741" lon="12.257773065939546">
        <ele>1863.6500000000001</ele>
        <time>2015-07-18T09:09:03Z</time>
      </trkpt>
      <trkpt lat="46.351583395153284" lon="12.257798044010997">
        <ele>1862.6900000000001</ele>
        <time>2015-07-18T09:09:12Z</time>
      </trkpt>
      <trkpt lat="46.351542910560966" lon="12.2578030731529">
        <ele>1860.77</ele>
        <time>2015-07-18T09:09:26Z</time>
      </trkpt>
      <trkpt lat="46.35149865411222" lon="12.257856968790293">
        <ele>1859.3299999999999</ele>
        <time>2015-07-18T09:09:35Z</time>
      </trkpt>
      <trkpt lat="46.351485997438431" lon="12.257829140871763">
        <ele>1857.8900000000001</ele>
        <time>2015-07-18T09:09:46Z</time>
      </trkpt>
      <trkpt lat="46.351480633020401" lon="12.257811706513166">
        <ele>1856.9200000000001</ele>
        <time>2015-07-18T09:09:54Z</time>
      </trkpt>
      <trkpt lat="46.351483063772321" lon="12.257834756746888">
        <ele>1855.96</ele>
        <time>2015-07-18T09:10:07Z</time>
      </trkpt>
      <trkpt lat="46.351468479260802" lon="12.257829057052732">
        <ele>1855</ele>
        <time>2015-07-18T09:10:21Z</time>
      </trkpt>
      <trkpt lat="46.351468395441771" lon="12.257838612422347">
        <ele>1855</ele>
        <time>2015-07-18T09:10:24Z</time>
      </trkpt>
      <trkpt lat="46.351409303024411" lon="12.25778647698462">
        <ele>1853.0799999999999</ele>
        <time>2015-07-18T09:10:35Z</time>
      </trkpt>
      <trkpt lat="46.351385330781341" lon="12.257766528055072">
        <ele>1852.1199999999999</ele>
        <time>2015-07-18T09:10:44Z</time>
      </trkpt>
      <trkpt lat="46.351343924179673" lon="12.257766025140882">
        <ele>1850.1900000000001</ele>
        <time>2015-07-18T09:10:55Z</time>
      </trkpt>
      <trkpt lat="46.351322717964649" lon="12.257754122838378">
        <ele>1849.23</ele>
        <time>2015-07-18T09:11:04Z</time>
      </trkpt>
      <trkpt lat="46.351294973865151" lon="12.257737526670098">
        <ele>1847.79</ele>
        <time>2015-07-18T09:11:16Z</time>
      </trkpt>
      <trkpt lat="46.351264799013734" lon="12.257724618539214">
        <ele>1846.8299999999999</ele>
        <time>2015-07-18T09:11:25Z</time>
      </trkpt>
      <trkpt lat="46.351254405453801" lon="12.257705004885793">
        <ele>1846.8299999999999</ele>
        <time>2015-07-18T09:11:36Z</time>
      </trkpt>
      <trkpt lat="46.351235965266824" lon="12.257686061784625">
        <ele>1845.8699999999999</ele>
        <time>2015-07-18T09:11:55Z</time>
      </trkpt>
      <trkpt lat="46.351204449310899" lon="12.25766871124506">
        <ele>1844.4300000000001</ele>
        <time>2015-07-18T09:12:03Z</time>
      </trkpt>
      <trkpt lat="46.351185757666826" lon="12.257660329341888">
        <ele>1843.95</ele>
        <time>2015-07-18T09:12:12Z</time>
      </trkpt>
      <trkpt lat="46.35115223005414" lon="12.257684133946896">
        <ele>1842.02</ele>
        <time>2015-07-18T09:12:21Z</time>
      </trkpt>
      <trkpt lat="46.351129598915577" lon="12.257630825042725">
        <ele>1841.0599999999999</ele>
        <time>2015-07-18T09:12:31Z</time>
      </trkpt>
      <trkpt lat="46.351129096001387" lon="12.257664855569601">
        <ele>1840.0999999999999</ele>
        <time>2015-07-18T09:12:44Z</time>
      </trkpt>
      <trkpt lat="46.351090706884861" lon="12.257651695981622">
        <ele>1839.1400000000001</ele>
        <time>2015-07-18T09:12:56Z</time>
      </trkpt>
      <trkpt lat="46.351086096838117" lon="12.257682289928198">
        <ele>1837.7</ele>
        <time>2015-07-18T09:13:08Z</time>
      </trkpt>
      <trkpt lat="46.351032285019755" lon="12.25768824107945">
        <ele>1836.26</ele>
        <time>2015-07-18T09:13:17Z</time>
      </trkpt>
      <trkpt lat="46.351149715483189" lon="12.257807934656739">
        <ele>1835.77</ele>
        <time>2015-07-18T09:13:28Z</time>
      </trkpt>
      <trkpt lat="46.351126078516245" lon="12.25778840482235">
        <ele>1834.8099999999999</ele>
        <time>2015-07-18T09:13:40Z</time>
      </trkpt>
      <trkpt lat="46.351109482347965" lon="12.257772227749228">
        <ele>1833.3699999999999</ele>
        <time>2015-07-18T09:13:51Z</time>
      </trkpt>
      <trkpt lat="46.351098250597715" lon="12.257769964635372">
        <ele>1832.4100000000001</ele>
        <time>2015-07-18T09:14:00Z</time>
      </trkpt>
      <trkpt lat="46.351109314709902" lon="12.257787147536874">
        <ele>1831.45</ele>
        <time>2015-07-18T09:14:12Z</time>
      </trkpt>
      <trkpt lat="46.351101100444794" lon="12.257796619087458">
        <ele>1830.49</ele>
        <time>2015-07-18T09:14:25Z</time>
      </trkpt>
      <trkpt lat="46.351079056039453" lon="12.2577771730721">
        <ele>1829.05</ele>
        <time>2015-07-18T09:14:35Z</time>
      </trkpt>
      <trkpt lat="46.351025076583028" lon="12.257745489478111">
        <ele>1826.1600000000001</ele>
        <time>2015-07-18T09:14:49Z</time>
      </trkpt>
      <trkpt lat="46.351013593375683" lon="12.257758732885122">
        <ele>1825.2</ele>
        <time>2015-07-18T09:14:58Z</time>
      </trkpt>
      <trkpt lat="46.351025579497218" lon="12.257784800603986">
        <ele>1824.24</ele>
        <time>2015-07-18T09:15:08Z</time>
      </trkpt>
      <trkpt lat="46.350990291684866" lon="12.257800390943885">
        <ele>1821.8399999999999</ele>
        <time>2015-07-18T09:15:21Z</time>
      </trkpt>
      <trkpt lat="46.350970510393381" lon="12.257830565795302">
        <ele>1819.4300000000001</ele>
        <time>2015-07-18T09:15:32Z</time>
      </trkpt>
      <trkpt lat="46.350959111005068" lon="12.257852023467422">
        <ele>1817.99</ele>
        <time>2015-07-18T09:15:42Z</time>
      </trkpt>
      <trkpt lat="46.350948214530945" lon="12.257856968790293">
        <ele>1817.99</ele>
        <time>2015-07-18T09:15:51Z</time>
      </trkpt>
      <trkpt lat="46.35092499665916" lon="12.257863758131862">
        <ele>1817.03</ele>
        <time>2015-07-18T09:16:01Z</time>
      </trkpt>
      <trkpt lat="46.350892307236791" lon="12.257893849164248">
        <ele>1815.1099999999999</ele>
        <time>2015-07-18T09:16:12Z</time>
      </trkpt>
      <trkpt lat="46.350851319730282" lon="12.257916899397969">
        <ele>1814.1500000000001</ele>
        <time>2015-07-18T09:16:22Z</time>
      </trkpt>
      <trkpt lat="46.350823659449816" lon="12.257962245494127">
        <ele>1814.1500000000001</ele>
        <time>2015-07-18T09:16:31Z</time>
      </trkpt>
      <trkpt lat="46.35080773383379" lon="12.257991414517164">
        <ele>1813.6600000000001</ele>
        <time>2015-07-18T09:16:40Z</time>
      </trkpt>
      <trkpt lat="46.350795831531286" lon="12.25798630155623">
        <ele>1813.6600000000001</ele>
        <time>2015-07-18T09:16:50Z</time>
      </trkpt>
      <trkpt lat="46.350782504305243" lon="12.258016979321837">
        <ele>1812.7</ele>
        <time>2015-07-18T09:17:00Z</time>
      </trkpt>
      <trkpt lat="46.35077403858304" lon="12.25805914029479">
        <ele>1813.1800000000001</ele>
        <time>2015-07-18T09:17:10Z</time>
      </trkpt>
      <trkpt lat="46.350745791569352" lon="12.258059894666076">
        <ele>1812.22</ele>
        <time>2015-07-18T09:17:21Z</time>
      </trkpt>
      <trkpt lat="46.350751575082541" lon="12.258083363994956">
        <ele>1813.1800000000001</ele>
        <time>2015-07-18T09:17:27Z</time>
      </trkpt>
      <trkpt lat="46.350728860124946" lon="12.258099121972919">
        <ele>1813.6600000000001</ele>
        <time>2015-07-18T09:17:36Z</time>
      </trkpt>
      <trkpt lat="46.350697344169021" lon="12.258072132244706">
        <ele>1812.7</ele>
        <time>2015-07-18T09:17:43Z</time>
      </trkpt>
      <trkpt lat="46.350699020549655" lon="12.258070204406977">
        <ele>1811.74</ele>
        <time>2015-07-18T09:18:14Z</time>
      </trkpt>
      <trkpt lat="46.35069047100842" lon="12.258072718977928">
        <ele>1812.22</ele>
        <time>2015-07-18T09:18:36Z</time>
      </trkpt>
      <trkpt lat="46.350689548999071" lon="12.258109012618661">
        <ele>1811.26</ele>
        <time>2015-07-18T09:19:13Z</time>
      </trkpt>
      <trkpt lat="46.350703546777368" lon="12.258128458634019">
        <ele>1810.78</ele>
        <time>2015-07-18T09:19:42Z</time>
      </trkpt>
      <trkpt lat="46.350694410502911" lon="12.258116975426674">
        <ele>1810.78</ele>
        <time>2015-07-18T09:19:56Z</time>
      </trkpt>
      <trkpt lat="46.350712096318603" lon="12.258107252418995">
        <ele>1810.3</ele>
        <time>2015-07-18T09:20:27Z</time>
      </trkpt>
      <trkpt lat="46.350701535120606" lon="12.258149161934853">
        <ele>1810.3</ele>
        <time>2015-07-18T09:20:47Z</time>
      </trkpt>
      <trkpt lat="46.350686615332961" lon="12.258122758939862">
        <ele>1810.3</ele>
        <time>2015-07-18T09:21:08Z</time>
      </trkpt>
      <trkpt lat="46.350685441866517" lon="12.258097864687443">
        <ele>1810.3</ele>
        <time>2015-07-18T09:21:17Z</time>
      </trkpt>
      <trkpt lat="46.350695500150323" lon="12.258088393136859">
        <ele>1810.3</ele>
        <time>2015-07-18T09:21:28Z</time>
      </trkpt>
      <trkpt lat="46.350673707202077" lon="12.258064337074757">
        <ele>1809.8199999999999</ele>
        <time>2015-07-18T09:21:38Z</time>
      </trkpt>
      <trkpt lat="46.350665912032127" lon="12.258066851645708">
        <ele>1809.8199999999999</ele>
        <time>2015-07-18T09:21:59Z</time>
      </trkpt>
      <trkpt lat="46.350668510422111" lon="12.258046651259065">
        <ele>1809.3399999999999</ele>
        <time>2015-07-18T09:22:24Z</time>
      </trkpt>
      <trkpt lat="46.350661804899573" lon="12.25803860463202">
        <ele>1809.3399999999999</ele>
        <time>2015-07-18T09:22:39Z</time>
      </trkpt>
      <trkpt lat="46.350672449916601" lon="12.258042627945542">
        <ele>1809.3399999999999</ele>
        <time>2015-07-18T09:22:56Z</time>
      </trkpt>
      <trkpt lat="46.350672449916601" lon="12.258059307932854">
        <ele>1808.8599999999999</ele>
        <time>2015-07-18T09:23:13Z</time>
      </trkpt>
      <trkpt lat="46.350680496543646" lon="12.258048076182604">
        <ele>1808.8599999999999</ele>
        <time>2015-07-18T09:23:27Z</time>
      </trkpt>
      <trkpt lat="46.350674126297235" lon="12.25807523354888">
        <ele>1808.3800000000001</ele>
        <time>2015-07-18T09:23:40Z</time>
      </trkpt>
      <trkpt lat="46.350672114640474" lon="12.25806794129312">
        <ele>1808.3800000000001</ele>
        <time>2015-07-18T09:24:00Z</time>
      </trkpt>
      <trkpt lat="46.350661804899573" lon="12.258066600188613">
        <ele>1808.8599999999999</ele>
        <time>2015-07-18T09:24:17Z</time>
      </trkpt>
      <trkpt lat="46.350675718858838" lon="12.258077580481768">
        <ele>1808.3800000000001</ele>
        <time>2015-07-18T09:24:28Z</time>
      </trkpt>
      <trkpt lat="46.350685190409422" lon="12.258062660694122">
        <ele>1809.8199999999999</ele>
        <time>2015-07-18T09:24:39Z</time>
      </trkpt>
      <trkpt lat="46.350723160430789" lon="12.258052518591285">
        <ele>1808.3800000000001</ele>
        <time>2015-07-18T09:24:52Z</time>
      </trkpt>
      <trkpt lat="46.350713269785047" lon="12.25801907479763">
        <ele>1808.3800000000001</ele>
        <time>2015-07-18T09:25:00Z</time>
      </trkpt>
      <trkpt lat="46.350721316412091" lon="12.258024858310819">
        <ele>1807.9000000000001</ele>
        <time>2015-07-18T09:25:17Z</time>
      </trkpt>
      <trkpt lat="46.35069927200675" lon="12.258030725643039">
        <ele>1807.9000000000001</ele>
        <time>2015-07-18T09:25:28Z</time>
      </trkpt>
      <trkpt lat="46.350704720243812" lon="12.25805084221065">
        <ele>1807.9000000000001</ele>
        <time>2015-07-18T09:25:42Z</time>
      </trkpt>
      <trkpt lat="46.350698685273528" lon="12.25805277004838">
        <ele>1807.9000000000001</ele>
        <time>2015-07-18T09:25:58Z</time>
      </trkpt>
      <trkpt lat="46.35070413351059" lon="12.258032569661736">
        <ele>1807.4200000000001</ele>
        <time>2015-07-18T09:26:19Z</time>
      </trkpt>
      <trkpt lat="46.350695248693228" lon="12.258025445044041">
        <ele>1807.4200000000001</ele>
        <time>2015-07-18T09:26:35Z</time>
      </trkpt>
      <trkpt lat="46.350711174309254" lon="12.257988313212991">
        <ele>1806.9400000000001</ele>
        <time>2015-07-18T09:26:48Z</time>
      </trkpt>
      <trkpt lat="46.350709497928619" lon="12.257976494729519">
        <ele>1806.9400000000001</ele>
        <time>2015-07-18T09:27:10Z</time>
      </trkpt>
      <trkpt lat="46.350712096318603" lon="12.25795553997159">
        <ele>1806.45</ele>
        <time>2015-07-18T09:27:20Z</time>
      </trkpt>
      <trkpt lat="46.350689381361008" lon="12.257948499172926">
        <ele>1805.97</ele>
        <time>2015-07-18T09:27:41Z</time>
      </trkpt>
      <trkpt lat="46.350679490715265" lon="12.257920671254396">
        <ele>1805.49</ele>
        <time>2015-07-18T09:27:57Z</time>
      </trkpt>
      <trkpt lat="46.350652333348989" lon="12.257861578837037">
        <ele>1803.0899999999999</ele>
        <time>2015-07-18T09:28:06Z</time>
      </trkpt>
      <trkpt lat="46.350636659190059" lon="12.257904410362244">
        <ele>1801.6500000000001</ele>
        <time>2015-07-18T09:28:23Z</time>
      </trkpt>
      <trkpt lat="46.350621404126287" lon="12.257909690961242">
        <ele>1801.1700000000001</ele>
        <time>2015-07-18T09:28:25Z</time>
      </trkpt>
      <trkpt lat="46.350595420226455" lon="12.257910864427686">
        <ele>1799.24</ele>
        <time>2015-07-18T09:28:36Z</time>
      </trkpt>
      <trkpt lat="46.350557617843151" lon="12.257932657375932">
        <ele>1797.8</ele>
        <time>2015-07-18T09:28:48Z</time>
      </trkpt>
      <trkpt lat="46.350553007796407" lon="12.257922934368253">
        <ele>1797.3199999999999</ele>
        <time>2015-07-18T09:28:59Z</time>
      </trkpt>
      <trkpt lat="46.35056097060442" lon="12.257908098399639">
        <ele>1796.3599999999999</ele>
        <time>2015-07-18T09:29:09Z</time>
      </trkpt>
      <trkpt lat="46.350584775209427" lon="12.257910361513495">
        <ele>1796.3599999999999</ele>
        <time>2015-07-18T09:29:25Z</time>
      </trkpt>
      <trkpt lat="46.350542278960347" lon="12.257892843335867">
        <ele>1794.9200000000001</ele>
        <time>2015-07-18T09:29:39Z</time>
      </trkpt>
      <trkpt lat="46.350528532639146" lon="12.257889825850725">
        <ele>1794.4400000000001</ele>
        <time>2015-07-18T09:29:42Z</time>
      </trkpt>
      <trkpt lat="46.350500704720616" lon="12.257871720939875">
        <ele>1793</ele>
        <time>2015-07-18T09:29:51Z</time>
      </trkpt>
      <trkpt lat="46.350492993369699" lon="12.25787490606308">
        <ele>1791.55</ele>
        <time>2015-07-18T09:30:05Z</time>
      </trkpt>
      <trkpt lat="46.350493244826794" lon="12.257841546088457">
        <ele>1790.5899999999999</ele>
        <time>2015-07-18T09:30:08Z</time>
      </trkpt>
      <trkpt lat="46.350470446050167" lon="12.257808605208993">
        <ele>1788.1900000000001</ele>
        <time>2015-07-18T09:30:17Z</time>
      </trkpt>
      <trkpt lat="46.350460890680552" lon="12.257808521389961">
        <ele>1787.23</ele>
        <time>2015-07-18T09:30:26Z</time>
      </trkpt>
      <trkpt lat="46.350442450493574" lon="12.257808689028025">
        <ele>1786.27</ele>
        <time>2015-07-18T09:30:37Z</time>
      </trkpt>
      <trkpt lat="46.350419651716948" lon="12.257780442014337">
        <ele>1784.8199999999999</ele>
        <time>2015-07-18T09:30:45Z</time>
      </trkpt>
      <trkpt lat="46.350402133539319" lon="12.257745321840048">
        <ele>1784.3399999999999</ele>
        <time>2015-07-18T09:30:59Z</time>
      </trkpt>
      <trkpt lat="46.350384866818786" lon="12.257754374295473">
        <ele>1783.3800000000001</ele>
        <time>2015-07-18T09:31:14Z</time>
      </trkpt>
      <trkpt lat="46.350406659767032" lon="12.257748758420348">
        <ele>1783.8599999999999</ele>
        <time>2015-07-18T09:31:35Z</time>
      </trkpt>
      <trkpt lat="46.350342454388738" lon="12.257640967145562">
        <ele>1781.46</ele>
        <time>2015-07-18T09:31:44Z</time>
      </trkpt>
      <trkpt lat="46.350325690582395" lon="12.257640212774277">
        <ele>1780.98</ele>
        <time>2015-07-18T09:31:47Z</time>
      </trkpt>
      <trkpt lat="46.350326780229807" lon="12.257695952430367">
        <ele>1779.54</ele>
        <time>2015-07-18T09:31:57Z</time>
      </trkpt>
      <trkpt lat="46.350312950089574" lon="12.257691426202655">
        <ele>1779.54</ele>
        <time>2015-07-18T09:32:10Z</time>
      </trkpt>
      <trkpt lat="46.350291324779391" lon="12.257654713466763">
        <ele>1779.0599999999999</ele>
        <time>2015-07-18T09:32:29Z</time>
      </trkpt>
      <trkpt lat="46.350282188504934" lon="12.257664101198316">
        <ele>1779.0599999999999</ele>
        <time>2015-07-18T09:32:46Z</time>
      </trkpt>
      <trkpt lat="46.350282523781061" lon="12.257645996287465">
        <ele>1778.0999999999999</ele>
        <time>2015-07-18T09:32:57Z</time>
      </trkpt>
      <trkpt lat="46.350299874320626" lon="12.257631830871105">
        <ele>1778.0999999999999</ele>
        <time>2015-07-18T09:33:18Z</time>
      </trkpt>
      <trkpt lat="46.350312447175384" lon="12.257670303806663">
        <ele>1778.0999999999999</ele>
        <time>2015-07-18T09:33:34Z</time>
      </trkpt>
      <trkpt lat="46.350319068878889" lon="12.257714392617345">
        <ele>1777.1300000000001</ele>
        <time>2015-07-18T09:33:49Z</time>
      </trkpt>
      <trkpt lat="46.350321583449841" lon="12.257694192230701">
        <ele>1776.1700000000001</ele>
        <time>2015-07-18T09:34:00Z</time>
      </trkpt>
      <trkpt lat="46.350321415811777" lon="12.257709195837379">
        <ele>1775.6900000000001</ele>
        <time>2015-07-18T09:34:16Z</time>
      </trkpt>
      <trkpt lat="46.350317560136318" lon="12.257713302969933">
        <ele>1775.21</ele>
        <time>2015-07-18T09:34:30Z</time>
      </trkpt>
      <trkpt lat="46.35030884295702" lon="12.25774984806776">
        <ele>1775.6900000000001</ele>
        <time>2015-07-18T09:34:44Z</time>
      </trkpt>
      <trkpt lat="46.350324098020792" lon="12.257770886644721">
        <ele>1774.25</ele>
        <time>2015-07-18T09:34:59Z</time>
      </trkpt>
      <trkpt lat="46.350299371406436" lon="12.257760493084788">
        <ele>1774.73</ele>
        <time>2015-07-18T09:35:12Z</time>
      </trkpt>
      <trkpt lat="46.35025167837739" lon="12.257779603824019">
        <ele>1773.77</ele>
        <time>2015-07-18T09:35:29Z</time>
      </trkpt>
      <trkpt lat="46.35021504946053" lon="12.25781137123704">
        <ele>1774.25</ele>
        <time>2015-07-18T09:35:38Z</time>
      </trkpt>
      <trkpt lat="46.350229298695922" lon="12.257822016254067">
        <ele>1774.73</ele>
        <time>2015-07-18T09:35:50Z</time>
      </trkpt>
      <trkpt lat="46.350214211270213" lon="12.257862417027354">
        <ele>1774.25</ele>
        <time>2015-07-18T09:36:00Z</time>
      </trkpt>
      <trkpt lat="46.350163500756025" lon="12.257885970175266">
        <ele>1773.77</ele>
        <time>2015-07-18T09:36:10Z</time>
      </trkpt>
      <trkpt lat="46.350147407501936" lon="12.25792670622468">
        <ele>1773.29</ele>
        <time>2015-07-18T09:36:22Z</time>
      </trkpt>
      <trkpt lat="46.350097116082907" lon="12.25795210339129">
        <ele>1771.3699999999999</ele>
        <time>2015-07-18T09:36:32Z</time>
      </trkpt>
      <trkpt lat="46.350113041698933" lon="12.257893765345216">
        <ele>1769.4400000000001</ele>
        <time>2015-07-18T09:36:44Z</time>
      </trkpt>
      <trkpt lat="46.35012075304985" lon="12.257911534979939">
        <ele>1768.48</ele>
        <time>2015-07-18T09:36:55Z</time>
      </trkpt>
      <trkpt lat="46.350088734179735" lon="12.257891334593296">
        <ele>1767.52</ele>
        <time>2015-07-18T09:37:04Z</time>
      </trkpt>
      <trkpt lat="46.350051518529654" lon="12.25788027048111">
        <ele>1765.5999999999999</ele>
        <time>2015-07-18T09:37:16Z</time>
      </trkpt>
      <trkpt lat="46.350030228495598" lon="12.257822351530194">
        <ele>1764.6400000000001</ele>
        <time>2015-07-18T09:37:24Z</time>
      </trkpt>
      <trkpt lat="46.350032910704613" lon="12.257841713726521">
        <ele>1763.6800000000001</ele>
        <time>2015-07-18T09:37:33Z</time>
      </trkpt>
      <trkpt lat="46.350030060857534" lon="12.257868535816669">
        <ele>1762.71</ele>
        <time>2015-07-18T09:37:41Z</time>
      </trkpt>
      <trkpt lat="46.350012458860874" lon="12.257892340421677">
        <ele>1761.27</ele>
        <time>2015-07-18T09:37:52Z</time>
      </trkpt>
      <trkpt lat="46.350023858249187" lon="12.257864009588957">
        <ele>1760.3099999999999</ele>
        <time>2015-07-18T09:38:01Z</time>
      </trkpt>
      <trkpt lat="46.349992174655199" lon="12.257849341258407">
        <ele>1758.3900000000001</ele>
        <time>2015-07-18T09:38:13Z</time>
      </trkpt>
      <trkpt lat="46.349973566830158" lon="12.257843054831028">
        <ele>1757.4300000000001</ele>
        <time>2015-07-18T09:38:22Z</time>
      </trkpt>
      <trkpt lat="46.349945152178407" lon="12.257829643785954">
        <ele>1755.99</ele>
        <time>2015-07-18T09:38:32Z</time>
      </trkpt>
      <trkpt lat="46.349921599030495" lon="12.257796283811331">
        <ele>1755.02</ele>
        <time>2015-07-18T09:38:42Z</time>
      </trkpt>
      <trkpt lat="46.349906092509627" lon="12.257802151143551">
        <ele>1753.5799999999999</ele>
        <time>2015-07-18T09:38:51Z</time>
      </trkpt>
      <trkpt lat="46.349890334531665" lon="12.257807347923517">
        <ele>1752.1400000000001</ele>
        <time>2015-07-18T09:39:00Z</time>
      </trkpt>
      <trkpt lat="46.349875582382083" lon="12.25778010673821">
        <ele>1751.1800000000001</ele>
        <time>2015-07-18T09:39:07Z</time>
      </trkpt>
      <trkpt lat="46.349892765283585" lon="12.257770886644721">
        <ele>1750.22</ele>
        <time>2015-07-18T09:39:15Z</time>
      </trkpt>
      <trkpt lat="46.349864350631833" lon="12.25779770873487">
        <ele>1749.26</ele>
        <time>2015-07-18T09:39:25Z</time>
      </trkpt>
      <trkpt lat="46.349825374782085" lon="12.257805084809661">
        <ele>1747.3299999999999</ele>
        <time>2015-07-18T09:39:36Z</time>
      </trkpt>
      <trkpt lat="46.349789332598448" lon="12.257794020697474">
        <ele>1745.8900000000001</ele>
        <time>2015-07-18T09:39:42Z</time>
      </trkpt>
      <trkpt lat="46.349767372012138" lon="12.257792511954904">
        <ele>1745.8900000000001</ele>
        <time>2015-07-18T09:39:44Z</time>
      </trkpt>
      <trkpt lat="46.349758235737681" lon="12.257794355973601">
        <ele>1745.4100000000001</ele>
        <time>2015-07-18T09:39:54Z</time>
      </trkpt>
      <trkpt lat="46.34976988658309" lon="12.257797122001648">
        <ele>1745.4100000000001</ele>
        <time>2015-07-18T09:40:07Z</time>
      </trkpt>
      <trkpt lat="46.349776927381754" lon="12.257789243012667">
        <ele>1744.9300000000001</ele>
        <time>2015-07-18T09:40:22Z</time>
      </trkpt>
      <trkpt lat="46.349797965958714" lon="12.257824866101146">
        <ele>1744.9300000000001</ele>
        <time>2015-07-18T09:40:39Z</time>
      </trkpt>
      <trkpt lat="46.349790170788765" lon="12.257852358743548">
        <ele>1744.9300000000001</ele>
        <time>2015-07-18T09:40:54Z</time>
      </trkpt>
      <trkpt lat="46.349710710346699" lon="12.257850263267756">
        <ele>1743.49</ele>
        <time>2015-07-18T09:41:11Z</time>
      </trkpt>
      <trkpt lat="46.349683217704296" lon="12.25795260630548">
        <ele>1742.53</ele>
        <time>2015-07-18T09:41:23Z</time>
      </trkpt>
      <trkpt lat="46.349668800830841" lon="12.257968029007316">
        <ele>1742.05</ele>
        <time>2015-07-18T09:41:25Z</time>
      </trkpt>
      <trkpt lat="46.349580120295286" lon="12.25800633430481">
        <ele>1740.5999999999999</ele>
        <time>2015-07-18T09:41:34Z</time>
      </trkpt>
      <trkpt lat="46.349522536620498" lon="12.25804933346808">
        <ele>1740.5999999999999</ele>
        <time>2015-07-18T09:41:40Z</time>
      </trkpt>
      <trkpt lat="46.349424719810486" lon="12.258069952949882">
        <ele>1741.0799999999999</ele>
        <time>2015-07-18T09:41:50Z</time>
      </trkpt>
      <trkpt lat="46.349396472796798" lon="12.258099457249045">
        <ele>1741.0799999999999</ele>
        <time>2015-07-18T09:41:58Z</time>
      </trkpt>
      <trkpt lat="46.349369483068585" lon="12.258135247975588">
        <ele>1740.1199999999999</ele>
        <time>2015-07-18T09:42:06Z</time>
      </trkpt>
      <trkpt lat="46.349317682906985" lon="12.258248319849372">
        <ele>1739.1600000000001</ele>
        <time>2015-07-18T09:42:14Z</time>
      </trkpt>
      <trkpt lat="46.349312402307987" lon="12.258263826370239">
        <ele>1741.0799999999999</ele>
        <time>2015-07-18T09:42:24Z</time>
      </trkpt>
      <trkpt lat="46.349321873858571" lon="12.258297018706799">
        <ele>1741.0799999999999</ele>
        <time>2015-07-18T09:42:32Z</time>
      </trkpt>
      <trkpt lat="46.349295387044549" lon="12.258334569633007">
        <ele>1739.6400000000001</ele>
        <time>2015-07-18T09:42:38Z</time>
      </trkpt>
      <trkpt lat="46.349279964342713" lon="12.258341023698449">
        <ele>1739.6400000000001</ele>
        <time>2015-07-18T09:42:39Z</time>
      </trkpt>
      <trkpt lat="46.349263032898307" lon="12.258349237963557">
        <ele>1739.6400000000001</ele>
        <time>2015-07-18T09:42:40Z</time>
      </trkpt>
      <trkpt lat="46.349245514720678" lon="12.258357284590602">
        <ele>1739.1600000000001</ele>
        <time>2015-07-18T09:42:41Z</time>
      </trkpt>
      <trkpt lat="46.349183823913336" lon="12.258370108902454">
        <ele>1738.6800000000001</ele>
        <time>2015-07-18T09:42:51Z</time>
      </trkpt>
      <trkpt lat="46.349161108955741" lon="12.258393913507462">
        <ele>1737.72</ele>
        <time>2015-07-18T09:43:01Z</time>
      </trkpt>
      <trkpt lat="46.349102267995477" lon="12.258431715890765">
        <ele>1735.8</ele>
        <time>2015-07-18T09:43:09Z</time>
      </trkpt>
      <trkpt lat="46.349094053730369" lon="12.258442109450698">
        <ele>1735.8</ele>
        <time>2015-07-18T09:43:10Z</time>
      </trkpt>
      <trkpt lat="46.349082654342055" lon="12.258450742810965">
        <ele>1735.3199999999999</ele>
        <time>2015-07-18T09:43:11Z</time>
      </trkpt>
      <trkpt lat="46.349063459783792" lon="12.258442360907793">
        <ele>1735.3199999999999</ele>
        <time>2015-07-18T09:43:19Z</time>
      </trkpt>
      <trkpt lat="46.349064549431205" lon="12.258419478312135">
        <ele>1734.8399999999999</ele>
        <time>2015-07-18T09:43:32Z</time>
      </trkpt>
      <trkpt lat="46.349046779796481" lon="12.258433476090431">
        <ele>1734.3599999999999</ele>
        <time>2015-07-18T09:43:43Z</time>
      </trkpt>
      <trkpt lat="46.349034793674946" lon="12.258451245725155">
        <ele>1734.3599999999999</ele>
        <time>2015-07-18T09:43:57Z</time>
      </trkpt>
      <trkpt lat="46.349012330174446" lon="12.258470607921481">
        <ele>1733.8800000000001</ele>
        <time>2015-07-18T09:44:11Z</time>
      </trkpt>
      <trkpt lat="46.349008055403829" lon="12.258499944582582">
        <ele>1732.4300000000001</ele>
        <time>2015-07-18T09:44:23Z</time>
      </trkpt>
      <trkpt lat="46.348988357931376" lon="12.258529281243682">
        <ele>1731.47</ele>
        <time>2015-07-18T09:44:33Z</time>
      </trkpt>
      <trkpt lat="46.348990956321359" lon="12.258575381711125">
        <ele>1732.9100000000001</ele>
        <time>2015-07-18T09:44:44Z</time>
      </trkpt>
      <trkpt lat="46.348988357931376" lon="12.258633468300104">
        <ele>1732.9100000000001</ele>
        <time>2015-07-18T09:44:53Z</time>
      </trkpt>
      <trkpt lat="46.348926583305001" lon="12.258673952892423">
        <ele>1733.3900000000001</ele>
        <time>2015-07-18T09:45:03Z</time>
      </trkpt>
      <trkpt lat="46.348943766206503" lon="12.258644783869386">
        <ele>1732.9100000000001</ele>
        <time>2015-07-18T09:45:12Z</time>
      </trkpt>
      <trkpt lat="46.348941419273615" lon="12.258631456643343">
        <ele>1730.99</ele>
        <time>2015-07-18T09:45:21Z</time>
      </trkpt>
      <trkpt lat="46.348926415666938" lon="12.258677138015628">
        <ele>1730.99</ele>
        <time>2015-07-18T09:45:34Z</time>
      </trkpt>
      <trkpt lat="46.348883165046573" lon="12.258726004511118">
        <ele>1733.8800000000001</ele>
        <time>2015-07-18T09:45:43Z</time>
      </trkpt>
      <trkpt lat="46.34886053390801" lon="12.258763052523136">
        <ele>1736.28</ele>
        <time>2015-07-18T09:45:54Z</time>
      </trkpt>
      <trkpt lat="46.348867323249578" lon="12.258733045309782">
        <ele>1737.24</ele>
        <time>2015-07-18T09:46:02Z</time>
      </trkpt>
      <trkpt lat="46.348879812285304" lon="12.258735056966543">
        <ele>1736.76</ele>
        <time>2015-07-18T09:46:15Z</time>
      </trkpt>
      <trkpt lat="46.348887775093317" lon="12.258762130513787">
        <ele>1736.76</ele>
        <time>2015-07-18T09:46:25Z</time>
      </trkpt>
      <trkpt lat="46.348880063742399" lon="12.25874125957489">
        <ele>1737.24</ele>
        <time>2015-07-18T09:46:33Z</time>
      </trkpt>
      <trkpt lat="46.348869754001498" lon="12.258750898763537">
        <ele>1737.24</ele>
        <time>2015-07-18T09:46:35Z</time>
      </trkpt>
      <trkpt lat="46.348813511431217" lon="12.258711252361536">
        <ele>1737.24</ele>
        <time>2015-07-18T09:46:45Z</time>
      </trkpt>
      <trkpt lat="46.348798591643572" lon="12.258673952892423">
        <ele>1735.3199999999999</ele>
        <time>2015-07-18T09:46:56Z</time>
      </trkpt>
      <trkpt lat="46.348775289952755" lon="12.2586630564183">
        <ele>1733.3900000000001</ele>
        <time>2015-07-18T09:47:09Z</time>
      </trkpt>
      <trkpt lat="46.348774787038565" lon="12.258665906265378">
        <ele>1732.9100000000001</ele>
        <time>2015-07-18T09:47:18Z</time>
      </trkpt>
      <trkpt lat="46.348698595538735" lon="12.258629193529487">
        <ele>1731.95</ele>
        <time>2015-07-18T09:47:28Z</time>
      </trkpt>
      <trkpt lat="46.348683927208185" lon="12.258548140525818">
        <ele>1729.0699999999999</ele>
        <time>2015-07-18T09:47:37Z</time>
      </trkpt>
      <trkpt lat="46.34860010817647" lon="12.258555851876736">
        <ele>1727.6300000000001</ele>
        <time>2015-07-18T09:47:48Z</time>
      </trkpt>
      <trkpt lat="46.348585775122046" lon="12.258549313992262">
        <ele>1727.6300000000001</ele>
        <time>2015-07-18T09:47:49Z</time>
      </trkpt>
      <trkpt lat="46.348492819815874" lon="12.258535986766219">
        <ele>1730.03</ele>
        <time>2015-07-18T09:48:01Z</time>
      </trkpt>
      <trkpt lat="46.348484102636576" lon="12.25854336284101">
        <ele>1730.03</ele>
        <time>2015-07-18T09:48:02Z</time>
      </trkpt>
      <trkpt lat="46.348444959148765" lon="12.258631540462375">
        <ele>1730.51</ele>
        <time>2015-07-18T09:48:08Z</time>
      </trkpt>
      <trkpt lat="46.348413107916713" lon="12.258662888780236">
        <ele>1730.51</ele>
        <time>2015-07-18T09:48:12Z</time>
      </trkpt>
      <trkpt lat="46.348338760435581" lon="12.258763136342168">
        <ele>1730.03</ele>
        <time>2015-07-18T09:48:23Z</time>
      </trkpt>
      <trkpt lat="46.348285032436252" lon="12.258812254294753">
        <ele>1727.6300000000001</ele>
        <time>2015-07-18T09:48:31Z</time>
      </trkpt>
      <trkpt lat="46.348235914483666" lon="12.258888110518456">
        <ele>1726.1800000000001</ele>
        <time>2015-07-18T09:48:38Z</time>
      </trkpt>
      <trkpt lat="46.348187886178493" lon="12.258914345875382">
        <ele>1725.7</ele>
        <time>2015-07-18T09:48:42Z</time>
      </trkpt>
      <trkpt lat="46.34813935495913" lon="12.258910071104765">
        <ele>1724.74</ele>
        <time>2015-07-18T09:48:48Z</time>
      </trkpt>
      <trkpt lat="46.34810364805162" lon="12.258879225701094">
        <ele>1724.26</ele>
        <time>2015-07-18T09:48:55Z</time>
      </trkpt>
      <trkpt lat="46.348087387159467" lon="12.258863467723131">
        <ele>1724.26</ele>
        <time>2015-07-18T09:48:57Z</time>
      </trkpt>
      <trkpt lat="46.348019409924746" lon="12.258833963423967">
        <ele>1723.78</ele>
        <time>2015-07-18T09:49:07Z</time>
      </trkpt>
      <trkpt lat="46.348032485693693" lon="12.258857768028975">
        <ele>1723.78</ele>
        <time>2015-07-18T09:49:24Z</time>
      </trkpt>
      <trkpt lat="46.348035503178835" lon="12.258858606219292">
        <ele>1723.78</ele>
        <time>2015-07-18T09:49:26Z</time>
      </trkpt>
      <trkpt lat="46.348008178174496" lon="12.258842596784234">
        <ele>1723.78</ele>
        <time>2015-07-18T09:49:29Z</time>
      </trkpt>
      <trkpt lat="46.347909774631262" lon="12.258796496316791">
        <ele>1720.9000000000001</ele>
        <time>2015-07-18T09:49:40Z</time>
      </trkpt>
      <trkpt lat="46.347881024703383" lon="12.258776882663369">
        <ele>1719.9400000000001</ele>
        <time>2015-07-18T09:49:44Z</time>
      </trkpt>
      <trkpt lat="46.347871217876673" lon="12.258739331737161">
        <ele>1718.97</ele>
        <time>2015-07-18T09:49:46Z</time>
      </trkpt>
      <trkpt lat="46.347800893709064" lon="12.25867286324501">
        <ele>1715.6099999999999</ele>
        <time>2015-07-18T09:49:55Z</time>
      </trkpt>
      <trkpt lat="46.347776418551803" lon="12.258646627888083">
        <ele>1714.1700000000001</ele>
        <time>2015-07-18T09:49:59Z</time>
      </trkpt>
      <trkpt lat="46.347761834040284" lon="12.258603796362877">
        <ele>1712.73</ele>
        <time>2015-07-18T09:50:03Z</time>
      </trkpt>
      <trkpt lat="46.347749261185527" lon="12.25859122350812">
        <ele>1712.73</ele>
        <time>2015-07-18T09:50:05Z</time>
      </trkpt>
      <trkpt lat="46.347745321691036" lon="12.258536405861378">
        <ele>1710.8</ele>
        <time>2015-07-18T09:50:09Z</time>
      </trkpt>
      <trkpt lat="46.347735011950135" lon="12.258513104170561">
        <ele>1709.8399999999999</ele>
        <time>2015-07-18T09:50:11Z</time>
      </trkpt>
      <trkpt lat="46.347691509872675" lon="12.258421238511801">
        <ele>1706.48</ele>
        <time>2015-07-18T09:50:18Z</time>
      </trkpt>
      <trkpt lat="46.347693437710404" lon="12.258398020640016">
        <ele>1705.04</ele>
        <time>2015-07-18T09:50:21Z</time>
      </trkpt>
      <trkpt lat="46.34765949100256" lon="12.258367175236344">
        <ele>1703.1099999999999</ele>
        <time>2015-07-18T09:50:25Z</time>
      </trkpt>
      <trkpt lat="46.347653120756149" lon="12.258341526612639">
        <ele>1702.6300000000001</ele>
        <time>2015-07-18T09:50:27Z</time>
      </trkpt>
      <trkpt lat="46.347599728032947" lon="12.258304478600621">
        <ele>1698.79</ele>
        <time>2015-07-18T09:50:36Z</time>
      </trkpt>
      <trkpt lat="46.347596123814583" lon="12.258297186344862">
        <ele>1698.79</ele>
        <time>2015-07-18T09:50:37Z</time>
      </trkpt>
      <trkpt lat="46.347580952569842" lon="12.258218480274081">
        <ele>1695.9000000000001</ele>
        <time>2015-07-18T09:50:44Z</time>
      </trkpt>
      <trkpt lat="46.347567206248641" lon="12.258205320686102">
        <ele>1695.4200000000001</ele>
        <time>2015-07-18T09:50:46Z</time>
      </trkpt>
      <trkpt lat="46.347549520432949" lon="12.258131979033351">
        <ele>1693.02</ele>
        <time>2015-07-18T09:50:53Z</time>
      </trkpt>
      <trkpt lat="46.347526386380196" lon="12.258086800575256">
        <ele>1692.0599999999999</ele>
        <time>2015-07-18T09:50:56Z</time>
      </trkpt>
      <trkpt lat="46.347498474642634" lon="12.258088476955891">
        <ele>1690.6199999999999</ele>
        <time>2015-07-18T09:50:59Z</time>
      </trkpt>
      <trkpt lat="46.347481375560164" lon="12.258039945736527">
        <ele>1688.21</ele>
        <time>2015-07-18T09:51:03Z</time>
      </trkpt>
      <trkpt lat="46.347487075254321" lon="12.257999880239367">
        <ele>1686.77</ele>
        <time>2015-07-18T09:51:07Z</time>
      </trkpt>
      <trkpt lat="46.347466120496392" lon="12.257992252707481">
        <ele>1686.29</ele>
        <time>2015-07-18T09:51:09Z</time>
      </trkpt>
      <trkpt lat="46.347423288971186" lon="12.257955791428685">
        <ele>1683.8900000000001</ele>
        <time>2015-07-18T09:51:14Z</time>
      </trkpt>
      <trkpt lat="46.347369058057666" lon="12.257932154461741">
        <ele>1681</ele>
        <time>2015-07-18T09:51:21Z</time>
      </trkpt>
      <trkpt lat="46.347349444404244" lon="12.257917486131191">
        <ele>1679.5599999999999</ele>
        <time>2015-07-18T09:51:24Z</time>
      </trkpt>
      <trkpt lat="46.347322538495064" lon="12.257882198318839">
        <ele>1678.1199999999999</ele>
        <time>2015-07-18T09:51:30Z</time>
      </trkpt>
      <trkpt lat="46.347304014489055" lon="12.257877001538873">
        <ele>1677.6400000000001</ele>
        <time>2015-07-18T09:51:32Z</time>
      </trkpt>
      <trkpt lat="46.347293453291059" lon="12.25783878006041">
        <ele>1676.2</ele>
        <time>2015-07-18T09:51:35Z</time>
      </trkpt>
      <trkpt lat="46.347291944548488" lon="12.257815478369594">
        <ele>1675.23</ele>
        <time>2015-07-18T09:51:37Z</time>
      </trkpt>
      <trkpt lat="46.347211143001914" lon="12.257817406207323">
        <ele>1673.3099999999999</ele>
        <time>2015-07-18T09:51:44Z</time>
      </trkpt>
      <trkpt lat="46.34717920795083" lon="12.257818076759577">
        <ele>1671.8699999999999</ele>
        <time>2015-07-18T09:51:48Z</time>
      </trkpt>
      <trkpt lat="46.347065130248666" lon="12.257883371785283">
        <ele>1668.99</ele>
        <time>2015-07-18T09:51:58Z</time>
      </trkpt>
      <trkpt lat="46.346999416127801" lon="12.257924946025014">
        <ele>1667.0599999999999</ele>
        <time>2015-07-18T09:52:03Z</time>
      </trkpt>
      <trkpt lat="46.346943844109774" lon="12.257904829457402">
        <ele>1666.0999999999999</ele>
        <time>2015-07-18T09:52:15Z</time>
      </trkpt>
      <trkpt lat="46.346906125545502" lon="12.257903404533863">
        <ele>1665.6199999999999</ele>
        <time>2015-07-18T09:52:25Z</time>
      </trkpt>
      <trkpt lat="46.346882237121463" lon="12.257885802537203">
        <ele>1666.0999999999999</ele>
        <time>2015-07-18T09:52:53Z</time>
      </trkpt>
      <trkpt lat="46.346899168565869" lon="12.257928382605314">
        <ele>1666.0999999999999</ele>
        <time>2015-07-18T09:53:14Z</time>
      </trkpt>
      <trkpt lat="46.346943844109774" lon="12.257905667647719">
        <ele>1666.0999999999999</ele>
        <time>2015-07-18T09:53:31Z</time>
      </trkpt>
      <trkpt lat="46.346917357295752" lon="12.257982864975929">
        <ele>1667.0599999999999</ele>
        <time>2015-07-18T09:53:43Z</time>
      </trkpt>
      <trkpt lat="46.346910903230309" lon="12.257969621568918">
        <ele>1666.0999999999999</ele>
        <time>2015-07-18T09:53:52Z</time>
      </trkpt>
      <trkpt lat="46.346924649551511" lon="12.257970962673426">
        <ele>1666.5799999999999</ele>
        <time>2015-07-18T09:54:02Z</time>
      </trkpt>
      <trkpt lat="46.3469441793859" lon="12.257957300171256">
        <ele>1666.5799999999999</ele>
        <time>2015-07-18T09:54:15Z</time>
      </trkpt>
      <trkpt lat="46.346956500783563" lon="12.257992085069418">
        <ele>1666.5799999999999</ele>
        <time>2015-07-18T09:54:25Z</time>
      </trkpt>
      <trkpt lat="46.346974689513445" lon="12.257985798642039">
        <ele>1666.5799999999999</ele>
        <time>2015-07-18T09:54:35Z</time>
      </trkpt>
      <trkpt lat="46.346973348408937" lon="12.257971717044711">
        <ele>1666.5799999999999</ele>
        <time>2015-07-18T09:54:46Z</time>
      </trkpt>
      <trkpt lat="46.346985083073378" lon="12.257966520264745">
        <ele>1666.5799999999999</ele>
        <time>2015-07-18T09:54:56Z</time>
      </trkpt>
      <trkpt lat="46.346991201862693" lon="12.257966101169586">
        <ele>1666.5799999999999</ele>
        <time>2015-07-18T09:55:09Z</time>
      </trkpt>
      <trkpt lat="46.346995979547501" lon="12.257969118654728">
        <ele>1666.0999999999999</ele>
        <time>2015-07-18T09:55:21Z</time>
      </trkpt>
      <trkpt lat="46.347007295116782" lon="12.258026031777263">
        <ele>1666.0999999999999</ele>
        <time>2015-07-18T09:55:30Z</time>
      </trkpt>
      <trkpt lat="46.347002349793911" lon="12.257985966280103">
        <ele>1666.0999999999999</ele>
        <time>2015-07-18T09:55:46Z</time>
      </trkpt>
      <trkpt lat="46.347017269581556" lon="12.2580034006387">
        <ele>1666.0999999999999</ele>
        <time>2015-07-18T09:56:01Z</time>
      </trkpt>
      <trkpt lat="46.347009977325797" lon="12.25801220163703">
        <ele>1666.0999999999999</ele>
        <time>2015-07-18T09:56:13Z</time>
      </trkpt>
      <trkpt lat="46.347010564059019" lon="12.258035587146878">
        <ele>1665.6199999999999</ele>
        <time>2015-07-18T09:56:31Z</time>
      </trkpt>
      <trkpt lat="46.34700964204967" lon="12.258034497499466">
        <ele>1665.1400000000001</ele>
        <time>2015-07-18T09:56:44Z</time>
      </trkpt>
      <trkpt lat="46.347005870193243" lon="12.258030138909817">
        <ele>1665.6199999999999</ele>
        <time>2015-07-18T09:56:59Z</time>
      </trkpt>
      <trkpt lat="46.347018359228969" lon="12.2580361738801">
        <ele>1665.6199999999999</ele>
        <time>2015-07-18T09:57:15Z</time>
      </trkpt>
      <trkpt lat="46.347004864364862" lon="12.258011614903808">
        <ele>1665.1400000000001</ele>
        <time>2015-07-18T09:57:30Z</time>
      </trkpt>
      <trkpt lat="46.347001930698752" lon="12.258036090061069">
        <ele>1665.1400000000001</ele>
        <time>2015-07-18T09:57:52Z</time>
      </trkpt>
      <trkpt lat="46.346983658149838" lon="12.258094176650047">
        <ele>1664.6600000000001</ele>
        <time>2015-07-18T09:58:04Z</time>
      </trkpt>
      <trkpt lat="46.346989357843995" lon="12.258154274895787">
        <ele>1663.7</ele>
        <time>2015-07-18T09:58:15Z</time>
      </trkpt>
      <trkpt lat="46.346968906000257" lon="12.258177241310477">
        <ele>1663.22</ele>
        <time>2015-07-18T09:58:27Z</time>
      </trkpt>
      <trkpt lat="46.346978209912777" lon="12.258136002346873">
        <ele>1662.74</ele>
        <time>2015-07-18T09:58:36Z</time>
      </trkpt>
      <trkpt lat="46.346953483298421" lon="12.258157124742866">
        <ele>1662.74</ele>
        <time>2015-07-18T09:58:44Z</time>
      </trkpt>
      <trkpt lat="46.346923224627972" lon="12.25817690603435">
        <ele>1661.78</ele>
        <time>2015-07-18T09:58:47Z</time>
      </trkpt>
      <trkpt lat="46.346862958744168" lon="12.25822770036757">
        <ele>1659.3699999999999</ele>
        <time>2015-07-18T09:58:58Z</time>
      </trkpt>
      <trkpt lat="46.346826832741499" lon="12.258247314020991">
        <ele>1656.97</ele>
        <time>2015-07-18T09:59:07Z</time>
      </trkpt>
      <trkpt lat="46.34680487215519" lon="12.258197274059057">
        <ele>1656.49</ele>
        <time>2015-07-18T09:59:16Z</time>
      </trkpt>
      <trkpt lat="46.346823312342167" lon="12.258113287389278">
        <ele>1654.5699999999999</ele>
        <time>2015-07-18T09:59:26Z</time>
      </trkpt>
      <trkpt lat="46.346805458888412" lon="12.258116053417325">
        <ele>1654.0899999999999</ele>
        <time>2015-07-18T09:59:36Z</time>
      </trkpt>
      <trkpt lat="46.346794478595257" lon="12.258025947958231">
        <ele>1651.6800000000001</ele>
        <time>2015-07-18T09:59:47Z</time>
      </trkpt>
      <trkpt lat="46.346793975681067" lon="12.258006837219">
        <ele>1651.6800000000001</ele>
        <time>2015-07-18T09:59:55Z</time>
      </trkpt>
      <trkpt lat="46.346782157197595" lon="12.258034497499466">
        <ele>1652.6400000000001</ele>
        <time>2015-07-18T10:00:07Z</time>
      </trkpt>
      <trkpt lat="46.34683521464467" lon="12.258106498047709">
        <ele>1654.5699999999999</ele>
        <time>2015-07-18T10:00:20Z</time>
      </trkpt>
      <trkpt lat="46.346757430583239" lon="12.2580879740417">
        <ele>1656.97</ele>
        <time>2015-07-18T10:00:29Z</time>
      </trkpt>
      <trkpt lat="46.346716359257698" lon="12.258017314597964">
        <ele>1657.45</ele>
        <time>2015-07-18T10:00:39Z</time>
      </trkpt>
      <trkpt lat="46.346709486097097" lon="12.258013123646379">
        <ele>1657.45</ele>
        <time>2015-07-18T10:00:40Z</time>
      </trkpt>
      <trkpt lat="46.346637820824981" lon="12.25798043422401">
        <ele>1657.9300000000001</ele>
        <time>2015-07-18T10:00:51Z</time>
      </trkpt>
      <trkpt lat="46.34659574367106" lon="12.257972555235028">
        <ele>1658.4100000000001</ele>
        <time>2015-07-18T10:01:05Z</time>
      </trkpt>
      <trkpt lat="46.346586775034666" lon="12.257916564121842">
        <ele>1657.9300000000001</ele>
        <time>2015-07-18T10:01:18Z</time>
      </trkpt>
      <trkpt lat="46.346599599346519" lon="12.257803156971931">
        <ele>1657.9300000000001</ele>
        <time>2015-07-18T10:01:43Z</time>
      </trkpt>
      <trkpt lat="46.346624661237001" lon="12.25786660797894">
        <ele>1658.4100000000001</ele>
        <time>2015-07-18T10:01:52Z</time>
      </trkpt>
      <trkpt lat="46.346624745056033" lon="12.257863506674767">
        <ele>1658.4100000000001</ele>
        <time>2015-07-18T10:01:53Z</time>
      </trkpt>
      <trkpt lat="46.346616530790925" lon="12.257840624079108">
        <ele>1657.9300000000001</ele>
        <time>2015-07-18T10:02:01Z</time>
      </trkpt>
      <trkpt lat="46.346634300425649" lon="12.257819753140211">
        <ele>1657.45</ele>
        <time>2015-07-18T10:02:25Z</time>
      </trkpt>
      <trkpt lat="46.346602449193597" lon="12.257881443947554">
        <ele>1656.97</ele>
        <time>2015-07-18T10:02:39Z</time>
      </trkpt>
      <trkpt lat="46.346577303484082" lon="12.258020499721169">
        <ele>1656.97</ele>
        <time>2015-07-18T10:03:06Z</time>
      </trkpt>
      <trkpt lat="46.346650561317801" lon="12.257872391492128">
        <ele>1656.49</ele>
        <time>2015-07-18T10:03:34Z</time>
      </trkpt>
      <trkpt lat="46.346557941287756" lon="12.257872391492128">
        <ele>1656.97</ele>
        <time>2015-07-18T10:03:53Z</time>
      </trkpt>
      <trkpt lat="46.34655618108809" lon="12.257866021245718">
        <ele>1656.97</ele>
        <time>2015-07-18T10:04:02Z</time>
      </trkpt>
      <trkpt lat="46.346514187753201" lon="12.257875828072429">
        <ele>1657.45</ele>
        <time>2015-07-18T10:04:14Z</time>
      </trkpt>
      <trkpt lat="46.346459202468395" lon="12.257891586050391">
        <ele>1657.9300000000001</ele>
        <time>2015-07-18T10:04:25Z</time>
      </trkpt>
      <trkpt lat="46.346435816958547" lon="12.257849592715502">
        <ele>1657.45</ele>
        <time>2015-07-18T10:04:30Z</time>
      </trkpt>
      <trkpt lat="46.346351243555546" lon="12.257784549146891">
        <ele>1656.97</ele>
        <time>2015-07-18T10:04:42Z</time>
      </trkpt>
      <trkpt lat="46.3463294506073" lon="12.257804162800312">
        <ele>1656.97</ele>
        <time>2015-07-18T10:04:50Z</time>
      </trkpt>
      <trkpt lat="46.346192406490445" lon="12.257740208879113">
        <ele>1656.01</ele>
        <time>2015-07-18T10:05:00Z</time>
      </trkpt>
      <trkpt lat="46.346160555258393" lon="12.257661670446396">
        <ele>1655.53</ele>
        <time>2015-07-18T10:05:08Z</time>
      </trkpt>
      <trkpt lat="46.346171703189611" lon="12.257638284936547">
        <ele>1655.05</ele>
        <time>2015-07-18T10:05:16Z</time>
      </trkpt>
      <trkpt lat="46.346122836694121" lon="12.257599057629704">
        <ele>1654.5699999999999</ele>
        <time>2015-07-18T10:05:26Z</time>
      </trkpt>
      <trkpt lat="46.346058379858732" lon="12.257575420662761">
        <ele>1655.05</ele>
        <time>2015-07-18T10:05:37Z</time>
      </trkpt>
      <trkpt lat="46.345962071791291" lon="12.257529068738222">
        <ele>1655.05</ele>
        <time>2015-07-18T10:05:49Z</time>
      </trkpt>
      <trkpt lat="46.345878671854734" lon="12.257465701550245">
        <ele>1654.5699999999999</ele>
        <time>2015-07-18T10:06:00Z</time>
      </trkpt>
      <trkpt lat="46.345812706276774" lon="12.257367633283138">
        <ele>1655.05</ele>
        <time>2015-07-18T10:06:12Z</time>
      </trkpt>
      <trkpt lat="46.345795439556241" lon="12.257302002981305">
        <ele>1655.53</ele>
        <time>2015-07-18T10:06:19Z</time>
      </trkpt>
      <trkpt lat="46.345764845609665" lon="12.257231259718537">
        <ele>1655.53</ele>
        <time>2015-07-18T10:06:28Z</time>
      </trkpt>
      <trkpt lat="46.34575336240232" lon="12.257191780954599">
        <ele>1656.49</ele>
        <time>2015-07-18T10:06:38Z</time>
      </trkpt>
      <trkpt lat="46.34574556723237" lon="12.257121372967958">
        <ele>1657.45</ele>
        <time>2015-07-18T10:06:49Z</time>
      </trkpt>
      <trkpt lat="46.345699382945895" lon="12.257110141217709">
        <ele>1658.8900000000001</ele>
        <time>2015-07-18T10:06:57Z</time>
      </trkpt>
      <trkpt lat="46.345673315227032" lon="12.257004613056779">
        <ele>1659.8499999999999</ele>
        <time>2015-07-18T10:07:08Z</time>
      </trkpt>
      <trkpt lat="46.345639200881124" lon="12.257003607228398">
        <ele>1659.8499999999999</ele>
        <time>2015-07-18T10:07:16Z</time>
      </trkpt>
      <trkpt lat="46.345582790672779" lon="12.256992291659117">
        <ele>1660.3299999999999</ele>
        <time>2015-07-18T10:07:21Z</time>
      </trkpt>
      <trkpt lat="46.345484722405672" lon="12.256887350231409">
        <ele>1659.3699999999999</ele>
        <time>2015-07-18T10:07:32Z</time>
      </trkpt>
      <trkpt lat="46.345411464571953" lon="12.256829598918557">
        <ele>1658.4100000000001</ele>
        <time>2015-07-18T10:07:43Z</time>
      </trkpt>
      <trkpt lat="46.345347343012691" lon="12.256796155124903">
        <ele>1657.45</ele>
        <time>2015-07-18T10:07:53Z</time>
      </trkpt>
      <trkpt lat="46.345309540629387" lon="12.256765644997358">
        <ele>1656.49</ele>
        <time>2015-07-18T10:08:02Z</time>
      </trkpt>
      <trkpt lat="46.3452916033566" lon="12.25675206631422">
        <ele>1656.01</ele>
        <time>2015-07-18T10:08:04Z</time>
      </trkpt>
      <trkpt lat="46.345230666920543" lon="12.256646705791354">
        <ele>1655.05</ele>
        <time>2015-07-18T10:08:14Z</time>
      </trkpt>
      <trkpt lat="46.345117259770632" lon="12.256541009992361">
        <ele>1654.0899999999999</ele>
        <time>2015-07-18T10:08:25Z</time>
      </trkpt>
      <trkpt lat="46.345066633075476" lon="12.256562383845448">
        <ele>1653.1199999999999</ele>
        <time>2015-07-18T10:08:32Z</time>
      </trkpt>
      <trkpt lat="46.345015000551939" lon="12.256610579788685">
        <ele>1651.6800000000001</ele>
        <time>2015-07-18T10:08:37Z</time>
      </trkpt>
      <trkpt lat="46.344938222318888" lon="12.256670678034425">
        <ele>1650.72</ele>
        <time>2015-07-18T10:08:48Z</time>
      </trkpt>
      <trkpt lat="46.344895223155618" lon="12.256683502346277">
        <ele>1650.72</ele>
        <time>2015-07-18T10:08:58Z</time>
      </trkpt>
      <trkpt lat="46.3448581751436" lon="12.256630109623075">
        <ele>1649.76</ele>
        <time>2015-07-18T10:09:07Z</time>
      </trkpt>
      <trkpt lat="46.344867814332247" lon="12.256542686372995">
        <ele>1651.2</ele>
        <time>2015-07-18T10:09:16Z</time>
      </trkpt>
      <trkpt lat="46.344854738563299" lon="12.256498765200377">
        <ele>1651.6800000000001</ele>
        <time>2015-07-18T10:09:21Z</time>
      </trkpt>
      <trkpt lat="46.344773937016726" lon="12.256450233981013">
        <ele>1651.6800000000001</ele>
        <time>2015-07-18T10:09:29Z</time>
      </trkpt>
      <trkpt lat="46.344729261472821" lon="12.256374293938279">
        <ele>1652.6400000000001</ele>
        <time>2015-07-18T10:09:42Z</time>
      </trkpt>
      <trkpt lat="46.344725992530584" lon="12.256321404129267">
        <ele>1653.5999999999999</ele>
        <time>2015-07-18T10:09:47Z</time>
      </trkpt>
      <trkpt lat="46.344712162390351" lon="12.256201962009072">
        <ele>1654.0899999999999</ele>
        <time>2015-07-18T10:09:58Z</time>
      </trkpt>
      <trkpt lat="46.344681484624743" lon="12.256173463538289">
        <ele>1655.05</ele>
        <time>2015-07-18T10:10:07Z</time>
      </trkpt>
      <trkpt lat="46.344630271196365" lon="12.256184946745634">
        <ele>1656.97</ele>
        <time>2015-07-18T10:10:18Z</time>
      </trkpt>
      <trkpt lat="46.344563635066152" lon="12.256160723045468">
        <ele>1657.9300000000001</ele>
        <time>2015-07-18T10:10:30Z</time>
      </trkpt>
      <trkpt lat="46.344524826854467" lon="12.256148150190711">
        <ele>1657.9300000000001</ele>
        <time>2015-07-18T10:10:39Z</time>
      </trkpt>
      <trkpt lat="46.344455759972334" lon="12.256100038066506">
        <ele>1658.8900000000001</ele>
        <time>2015-07-18T10:10:50Z</time>
      </trkpt>
      <trkpt lat="46.344409408047795" lon="12.255986882373691">
        <ele>1657.9300000000001</ele>
        <time>2015-07-18T10:11:02Z</time>
      </trkpt>
      <trkpt lat="46.344351070001721" lon="12.25588227622211">
        <ele>1656.97</ele>
        <time>2015-07-18T10:11:11Z</time>
      </trkpt>
      <trkpt lat="46.344287702813745" lon="12.255851933732629">
        <ele>1656.97</ele>
        <time>2015-07-18T10:11:20Z</time>
      </trkpt>
      <trkpt lat="46.344221485778689" lon="12.255815891548991">
        <ele>1656.97</ele>
        <time>2015-07-18T10:11:30Z</time>
      </trkpt>
      <trkpt lat="46.344149317592382" lon="12.255740622058511">
        <ele>1655.05</ele>
        <time>2015-07-18T10:11:43Z</time>
      </trkpt>
      <trkpt lat="46.344094416126609" lon="12.255733832716942">
        <ele>1654.0899999999999</ele>
        <time>2015-07-18T10:11:55Z</time>
      </trkpt>
      <trkpt lat="46.344086369499564" lon="12.255697958171368">
        <ele>1653.1199999999999</ele>
        <time>2015-07-18T10:12:07Z</time>
      </trkpt>
      <trkpt lat="46.34404806420207" lon="12.255616569891572">
        <ele>1650.72</ele>
        <time>2015-07-18T10:12:18Z</time>
      </trkpt>
      <trkpt lat="46.344019481912255" lon="12.255603829398751">
        <ele>1651.2</ele>
        <time>2015-07-18T10:12:20Z</time>
      </trkpt>
      <trkpt lat="46.343946056440473" lon="12.255596118047833">
        <ele>1649.76</ele>
        <time>2015-07-18T10:12:31Z</time>
      </trkpt>
      <trkpt lat="46.343878163024783" lon="12.255599722266197">
        <ele>1648.3199999999999</ele>
        <time>2015-07-18T10:12:42Z</time>
      </trkpt>
      <trkpt lat="46.343853184953332" lon="12.255601985380054">
        <ele>1647.3599999999999</ele>
        <time>2015-07-18T10:12:47Z</time>
      </trkpt>
      <trkpt lat="46.343788057565689" lon="12.255566865205765">
        <ele>1646.8800000000001</ele>
        <time>2015-07-18T10:12:57Z</time>
      </trkpt>
      <trkpt lat="46.343741035088897" lon="12.25552118383348">
        <ele>1645.4300000000001</ele>
        <time>2015-07-18T10:13:06Z</time>
      </trkpt>
      <trkpt lat="46.343714212998748" lon="12.255501067265868">
        <ele>1644.95</ele>
        <time>2015-07-18T10:13:11Z</time>
      </trkpt>
      <trkpt lat="46.343662580475211" lon="12.25548061542213">
        <ele>1645.4300000000001</ele>
        <time>2015-07-18T10:13:23Z</time>
      </trkpt>
      <trkpt lat="46.343634249642491" lon="12.255473239347339">
        <ele>1645.9100000000001</ele>
        <time>2015-07-18T10:13:37Z</time>
      </trkpt>
      <trkpt lat="46.343591250479221" lon="12.255412889644504">
        <ele>1643.51</ele>
        <time>2015-07-18T10:13:48Z</time>
      </trkpt>
      <trkpt lat="46.343547496944666" lon="12.255414398387074">
        <ele>1643.03</ele>
        <time>2015-07-18T10:13:54Z</time>
      </trkpt>
      <trkpt lat="46.343487901613116" lon="12.25539562292397">
        <ele>1641.5899999999999</ele>
        <time>2015-07-18T10:14:05Z</time>
      </trkpt>
      <trkpt lat="46.343415649607778" lon="12.255361676216125">
        <ele>1640.1500000000001</ele>
        <time>2015-07-18T10:14:17Z</time>
      </trkpt>
      <trkpt lat="46.343363430351019" lon="12.255255477502942">
        <ele>1638.22</ele>
        <time>2015-07-18T10:14:30Z</time>
      </trkpt>
      <trkpt lat="46.343309115618467" lon="12.255223039537668">
        <ele>1636.78</ele>
        <time>2015-07-18T10:14:42Z</time>
      </trkpt>
      <trkpt lat="46.343243652954698" lon="12.255197558552027">
        <ele>1635.3399999999999</ele>
        <time>2015-07-18T10:14:53Z</time>
      </trkpt>
      <trkpt lat="46.343162432312965" lon="12.255190685391426">
        <ele>1633.9000000000001</ele>
        <time>2015-07-18T10:15:03Z</time>
      </trkpt>
      <trkpt lat="46.343123456463218" lon="12.255259919911623">
        <ele>1635.8199999999999</ele>
        <time>2015-07-18T10:15:16Z</time>
      </trkpt>
      <trkpt lat="46.343064531683922" lon="12.255263105034828">
        <ele>1635.3399999999999</ele>
        <time>2015-07-18T10:15:27Z</time>
      </trkpt>
      <trkpt lat="46.343006109818816" lon="12.255250280722976">
        <ele>1635.3399999999999</ele>
        <time>2015-07-18T10:15:40Z</time>
      </trkpt>
      <trkpt lat="46.342941652983427" lon="12.255225470289588">
        <ele>1634.3800000000001</ele>
        <time>2015-07-18T10:15:52Z</time>
      </trkpt>
      <trkpt lat="46.342896809801459" lon="12.255235612392426">
        <ele>1634.3800000000001</ele>
        <time>2015-07-18T10:16:01Z</time>
      </trkpt>
      <trkpt lat="46.342846937477589" lon="12.25521826185286">
        <ele>1633.9000000000001</ele>
        <time>2015-07-18T10:16:13Z</time>
      </trkpt>
      <trkpt lat="46.342824138700962" lon="12.255229745060205">
        <ele>1634.3800000000001</ele>
        <time>2015-07-18T10:16:23Z</time>
      </trkpt>
      <trkpt lat="46.342768566682935" lon="12.25525438785553">
        <ele>1634.8599999999999</ele>
        <time>2015-07-18T10:16:34Z</time>
      </trkpt>
      <trkpt lat="46.34271752089262" lon="12.255260841920972">
        <ele>1634.8599999999999</ele>
        <time>2015-07-18T10:16:45Z</time>
      </trkpt>
      <trkpt lat="46.342654824256897" lon="12.255217842757702">
        <ele>1633.4200000000001</ele>
        <time>2015-07-18T10:16:56Z</time>
      </trkpt>
      <trkpt lat="46.342607215046883" lon="12.255191188305616">
        <ele>1631.98</ele>
        <time>2015-07-18T10:17:01Z</time>
      </trkpt>
      <trkpt lat="46.342548793181777" lon="12.255117259919643">
        <ele>1630.05</ele>
        <time>2015-07-18T10:17:13Z</time>
      </trkpt>
      <trkpt lat="46.342473272234201" lon="12.255075601860881">
        <ele>1629.0899999999999</ele>
        <time>2015-07-18T10:17:24Z</time>
      </trkpt>
      <trkpt lat="46.342417700216174" lon="12.255076942965388">
        <ele>1627.6500000000001</ele>
        <time>2015-07-18T10:17:34Z</time>
      </trkpt>
      <trkpt lat="46.34239699691534" lon="12.25507945753634">
        <ele>1626.6900000000001</ele>
        <time>2015-07-18T10:17:37Z</time>
      </trkpt>
      <trkpt lat="46.342339413240552" lon="12.255016257986426">
        <ele>1625.73</ele>
        <time>2015-07-18T10:17:47Z</time>
      </trkpt>
      <trkpt lat="46.342326840385795" lon="12.254939815029502">
        <ele>1623.8</ele>
        <time>2015-07-18T10:17:57Z</time>
      </trkpt>
      <trkpt lat="46.342314854264259" lon="12.254908634349704">
        <ele>1622.3599999999999</ele>
        <time>2015-07-18T10:18:00Z</time>
      </trkpt>
      <trkpt lat="46.342273950576782" lon="12.254892373457551">
        <ele>1621.8800000000001</ele>
        <time>2015-07-18T10:18:06Z</time>
      </trkpt>
      <trkpt lat="46.342222318053246" lon="12.254921877756715">
        <ele>1620.9200000000001</ele>
        <time>2015-07-18T10:18:16Z</time>
      </trkpt>
      <trkpt lat="46.342219887301326" lon="12.254921710118651">
        <ele>1620.4400000000001</ele>
        <time>2015-07-18T10:18:28Z</time>
      </trkpt>
      <trkpt lat="46.342194909229875" lon="12.254941742867231">
        <ele>1620.4400000000001</ele>
        <time>2015-07-18T10:18:50Z</time>
      </trkpt>
      <trkpt lat="46.342106647789478" lon="12.254940569400787">
        <ele>1618.04</ele>
        <time>2015-07-18T10:19:00Z</time>
      </trkpt>
      <trkpt lat="46.342082340270281" lon="12.254937803372741">
        <ele>1617.5599999999999</ele>
        <time>2015-07-18T10:19:08Z</time>
      </trkpt>
      <trkpt lat="46.342003885656595" lon="12.255030339583755">
        <ele>1614.6700000000001</ele>
        <time>2015-07-18T10:19:19Z</time>
      </trkpt>
      <trkpt lat="46.341906236484647" lon="12.255129162222147">
        <ele>1612.27</ele>
        <time>2015-07-18T10:19:30Z</time>
      </trkpt>
      <trkpt lat="46.341839767992496" lon="12.255137711763382">
        <ele>1610.3499999999999</ele>
        <time>2015-07-18T10:19:40Z</time>
      </trkpt>
      <trkpt lat="46.341777490451932" lon="12.255094209685922">
        <ele>1608.9000000000001</ele>
        <time>2015-07-18T10:19:51Z</time>
      </trkpt>
      <trkpt lat="46.341726193204522" lon="12.255029417574406">
        <ele>1607.46</ele>
        <time>2015-07-18T10:20:01Z</time>
      </trkpt>
      <trkpt lat="46.341703813523054" lon="12.254986753687263">
        <ele>1605.54</ele>
        <time>2015-07-18T10:20:11Z</time>
      </trkpt>
      <trkpt lat="46.341702053323388" lon="12.254956495016813">
        <ele>1605.54</ele>
        <time>2015-07-18T10:20:14Z</time>
      </trkpt>
      <trkpt lat="46.34163617156446" lon="12.254856918007135">
        <ele>1603.1400000000001</ele>
        <time>2015-07-18T10:20:25Z</time>
      </trkpt>
      <trkpt lat="46.341523015871644" lon="12.254881393164396">
        <ele>1601.6900000000001</ele>
        <time>2015-07-18T10:20:37Z</time>
      </trkpt>
      <trkpt lat="46.341468282043934" lon="12.254940485581756">
        <ele>1599.29</ele>
        <time>2015-07-18T10:20:48Z</time>
      </trkpt>
      <trkpt lat="46.341446405276656" lon="12.254946939647198">
        <ele>1598.3299999999999</ele>
        <time>2015-07-18T10:20:52Z</time>
      </trkpt>
      <trkpt lat="46.341421762481332" lon="12.254955656826496">
        <ele>1597.3699999999999</ele>
        <time>2015-07-18T10:20:54Z</time>
      </trkpt>
      <trkpt lat="46.341283209621906" lon="12.25489086471498">
        <ele>1595.45</ele>
        <time>2015-07-18T10:21:08Z</time>
      </trkpt>
      <trkpt lat="46.341223949566483" lon="12.254907879978418">
        <ele>1594</ele>
        <time>2015-07-18T10:21:18Z</time>
      </trkpt>
      <trkpt lat="46.34118958376348" lon="12.254882315173745">
        <ele>1592.0799999999999</ele>
        <time>2015-07-18T10:21:29Z</time>
      </trkpt>
      <trkpt lat="46.341162258759141" lon="12.254811236634851">
        <ele>1590.1600000000001</ele>
        <time>2015-07-18T10:21:44Z</time>
      </trkpt>
      <trkpt lat="46.341117080301046" lon="12.254801848903298">
        <ele>1589.6800000000001</ele>
        <time>2015-07-18T10:21:53Z</time>
      </trkpt>
      <trkpt lat="46.341069890186191" lon="12.254775865003467">
        <ele>1587.27</ele>
        <time>2015-07-18T10:22:01Z</time>
      </trkpt>
      <trkpt lat="46.34097358211875" lon="12.254709480330348">
        <ele>1585.8299999999999</ele>
        <time>2015-07-18T10:22:14Z</time>
      </trkpt>
      <trkpt lat="46.340891690924764" lon="12.254720209166408">
        <ele>1582.95</ele>
        <time>2015-07-18T10:22:27Z</time>
      </trkpt>
      <trkpt lat="46.340826982632279" lon="12.254726747050881">
        <ele>1581.51</ele>
        <time>2015-07-18T10:22:36Z</time>
      </trkpt>
      <trkpt lat="46.340741571038961" lon="12.254645945504308">
        <ele>1578.1400000000001</ele>
        <time>2015-07-18T10:22:48Z</time>
      </trkpt>
      <trkpt lat="46.340683400630951" lon="12.254602359607816">
        <ele>1575.74</ele>
        <time>2015-07-18T10:22:59Z</time>
      </trkpt>
      <trkpt lat="46.340590612962842" lon="12.254548883065581">
        <ele>1572.3699999999999</ele>
        <time>2015-07-18T10:23:11Z</time>
      </trkpt>
      <trkpt lat="46.340511739253998" lon="12.254511499777436">
        <ele>1569.97</ele>
        <time>2015-07-18T10:23:22Z</time>
      </trkpt>
      <trkpt lat="46.34044149890542" lon="12.254518624395132">
        <ele>1568.05</ele>
        <time>2015-07-18T10:23:33Z</time>
      </trkpt>
      <trkpt lat="46.340357093140483" lon="12.254488617181778">
        <ele>1565.6400000000001</ele>
        <time>2015-07-18T10:23:44Z</time>
      </trkpt>
      <trkpt lat="46.340307723730803" lon="12.254423992708325">
        <ele>1563.24</ele>
        <time>2015-07-18T10:23:55Z</time>
      </trkpt>
      <trkpt lat="46.340236393734813" lon="12.254445031285286">
        <ele>1561.3199999999999</ele>
        <time>2015-07-18T10:24:04Z</time>
      </trkpt>
      <trkpt lat="46.340185850858688" lon="12.254450563341379">
        <ele>1559.4000000000001</ele>
        <time>2015-07-18T10:24:13Z</time>
      </trkpt>
      <trkpt lat="46.340168584138155" lon="12.254456514492631">
        <ele>1558.9200000000001</ele>
        <time>2015-07-18T10:24:27Z</time>
      </trkpt>
      <trkpt lat="46.340147294104099" lon="12.254485264420509">
        <ele>1558.9200000000001</ele>
        <time>2015-07-18T10:24:35Z</time>
      </trkpt>
      <trkpt lat="46.340098092332482" lon="12.254492891952395">
        <ele>1558.4300000000001</ele>
        <time>2015-07-18T10:24:52Z</time>
      </trkpt>
      <trkpt lat="46.340069258585572" lon="12.254438996315002">
        <ele>1555.55</ele>
        <time>2015-07-18T10:25:01Z</time>
      </trkpt>
      <trkpt lat="46.340062720701098" lon="12.254497418180108">
        <ele>1554.1099999999999</ele>
        <time>2015-07-18T10:25:12Z</time>
      </trkpt>
      <trkpt lat="46.33999147452414" lon="12.254542512819171">
        <ele>1551.71</ele>
        <time>2015-07-18T10:25:23Z</time>
      </trkpt>
      <trkpt lat="46.339947804808617" lon="12.254565060138702">
        <ele>1549.3</ele>
        <time>2015-07-18T10:25:34Z</time>
      </trkpt>
      <trkpt lat="46.33989131078124" lon="12.254467159509659">
        <ele>1547.8599999999999</ele>
        <time>2015-07-18T10:25:48Z</time>
      </trkpt>
      <trkpt lat="46.339852334931493" lon="12.254459364339709">
        <ele>1545.46</ele>
        <time>2015-07-18T10:25:53Z</time>
      </trkpt>
      <trkpt lat="46.339747728779912" lon="12.254457017406821">
        <ele>1543.53</ele>
        <time>2015-07-18T10:26:05Z</time>
      </trkpt>
      <trkpt lat="46.339729288592935" lon="12.254488198086619">
        <ele>1543.05</ele>
        <time>2015-07-18T10:26:08Z</time>
      </trkpt>
      <trkpt lat="46.339715290814638" lon="12.254503453150392">
        <ele>1543.05</ele>
        <time>2015-07-18T10:26:09Z</time>
      </trkpt>
      <trkpt lat="46.33962158113718" lon="12.254546200856566">
        <ele>1542.5699999999999</ele>
        <time>2015-07-18T10:26:19Z</time>
      </trkpt>
      <trkpt lat="46.339557794854045" lon="12.254520216956735">
        <ele>1542.5699999999999</ele>
        <time>2015-07-18T10:26:30Z</time>
      </trkpt>
      <trkpt lat="46.339521836489439" lon="12.254478139802814">
        <ele>1543.53</ele>
        <time>2015-07-18T10:26:41Z</time>
      </trkpt>
      <trkpt lat="46.339513538405299" lon="12.254558270797133">
        <ele>1543.53</ele>
        <time>2015-07-18T10:26:50Z</time>
      </trkpt>
      <trkpt lat="46.339501133188605" lon="12.254541423171759">
        <ele>1543.05</ele>
        <time>2015-07-18T10:27:02Z</time>
      </trkpt>
      <trkpt lat="46.339386887848377" lon="12.254559695720673">
        <ele>1544.98</ele>
        <time>2015-07-18T10:27:14Z</time>
      </trkpt>
      <trkpt lat="46.339359814301133" lon="12.254567490890622">
        <ele>1544.5</ele>
        <time>2015-07-18T10:27:17Z</time>
      </trkpt>
      <trkpt lat="46.339325197041035" lon="12.254597917199135">
        <ele>1544.01</ele>
        <time>2015-07-18T10:27:20Z</time>
      </trkpt>
      <trkpt lat="46.339212963357568" lon="12.254684418439865">
        <ele>1541.6099999999999</ele>
        <time>2015-07-18T10:27:31Z</time>
      </trkpt>
      <trkpt lat="46.339163845404983" lon="12.254673689603806">
        <ele>1541.6099999999999</ele>
        <time>2015-07-18T10:27:39Z</time>
      </trkpt>
      <trkpt lat="46.339132413268089" lon="12.254664553329349">
        <ele>1542.0899999999999</ele>
        <time>2015-07-18T10:27:47Z</time>
      </trkpt>
      <trkpt lat="46.339090252295136" lon="12.254677042365074">
        <ele>1542.0899999999999</ele>
        <time>2015-07-18T10:27:53Z</time>
      </trkpt>
      <trkpt lat="46.339042810723186" lon="12.254672516137362">
        <ele>1541.1300000000001</ele>
        <time>2015-07-18T10:28:05Z</time>
      </trkpt>
      <trkpt lat="46.339040044695139" lon="12.254702439531684">
        <ele>1541.1300000000001</ele>
        <time>2015-07-18T10:28:16Z</time>
      </trkpt>
      <trkpt lat="46.339002242311835" lon="12.25475256331265">
        <ele>1540.6500000000001</ele>
        <time>2015-07-18T10:28:23Z</time>
      </trkpt>
      <trkpt lat="46.338970139622688" lon="12.254720963537693">
        <ele>1540.1700000000001</ele>
        <time>2015-07-18T10:28:26Z</time>
      </trkpt>
      <trkpt lat="46.338881710544229" lon="12.254573777318001">
        <ele>1541.6099999999999</ele>
        <time>2015-07-18T10:28:40Z</time>
      </trkpt>
      <trkpt lat="46.33889252319932" lon="12.254540752619505">
        <ele>1541.1300000000001</ele>
        <time>2015-07-18T10:28:47Z</time>
      </trkpt>
      <trkpt lat="46.338850781321526" lon="12.254572520032525">
        <ele>1541.1300000000001</ele>
        <time>2015-07-18T10:28:54Z</time>
      </trkpt>
      <trkpt lat="46.338771739974618" lon="12.254623984917998">
        <ele>1538.73</ele>
        <time>2015-07-18T10:29:03Z</time>
      </trkpt>
      <trkpt lat="46.33866872638464" lon="12.254661116749048">
        <ele>1536.8</ele>
        <time>2015-07-18T10:29:14Z</time>
      </trkpt>
      <trkpt lat="46.338602928444743" lon="12.254568412899971">
        <ele>1535.8399999999999</ele>
        <time>2015-07-18T10:29:23Z</time>
      </trkpt>
      <trkpt lat="46.338610472157598" lon="12.254412760958076">
        <ele>1534.8800000000001</ele>
        <time>2015-07-18T10:29:34Z</time>
      </trkpt>
      <trkpt lat="46.338589517399669" lon="12.254221569746733">
        <ele>1532.48</ele>
        <time>2015-07-18T10:29:46Z</time>
      </trkpt>
      <trkpt lat="46.338582560420036" lon="12.254072455689311">
        <ele>1529.5899999999999</ele>
        <time>2015-07-18T10:29:57Z</time>
      </trkpt>
      <trkpt lat="46.338541908189654" lon="12.253937758505344">
        <ele>1526.71</ele>
        <time>2015-07-18T10:30:09Z</time>
      </trkpt>
      <trkpt lat="46.338476780802011" lon="12.253817981109023">
        <ele>1523.8299999999999</ele>
        <time>2015-07-18T10:30:20Z</time>
      </trkpt>
      <trkpt lat="46.338436044752598" lon="12.253717482089996">
        <ele>1520.9400000000001</ele>
        <time>2015-07-18T10:30:30Z</time>
      </trkpt>
      <trkpt lat="46.338415341451764" lon="12.253656042739749">
        <ele>1519.5</ele>
        <time>2015-07-18T10:30:35Z</time>
      </trkpt>
      <trkpt lat="46.338400170207024" lon="12.253506928682327">
        <ele>1517.0999999999999</ele>
        <time>2015-07-18T10:30:46Z</time>
      </trkpt>
      <trkpt lat="46.338377371430397" lon="12.253423109650612">
        <ele>1515.1800000000001</ele>
        <time>2015-07-18T10:30:55Z</time>
      </trkpt>
      <trkpt lat="46.338364630937576" lon="12.253332417458296">
        <ele>1512.29</ele>
        <time>2015-07-18T10:31:04Z</time>
      </trkpt>
      <trkpt lat="46.338302185758948" lon="12.253266451880336">
        <ele>1509.8900000000001</ele>
        <time>2015-07-18T10:31:16Z</time>
      </trkpt>
      <trkpt lat="46.338314842432737" lon="12.253121277317405">
        <ele>1507.97</ele>
        <time>2015-07-18T10:31:27Z</time>
      </trkpt>
      <trkpt lat="46.33831987157464" lon="12.253078361973166">
        <ele>1506.52</ele>
        <time>2015-07-18T10:31:30Z</time>
      </trkpt>
      <trkpt lat="46.338326158002019" lon="12.252976270392537">
        <ele>1505.0799999999999</ele>
        <time>2015-07-18T10:31:40Z</time>
      </trkpt>
      <trkpt lat="46.338299252092838" lon="12.25292069837451">
        <ele>1501.72</ele>
        <time>2015-07-18T10:31:48Z</time>
      </trkpt>
      <trkpt lat="46.338300593197346" lon="12.252909801900387">
        <ele>1501.72</ele>
        <time>2015-07-18T10:31:49Z</time>
      </trkpt>
      <trkpt lat="46.338322050869465" lon="12.252833023667336">
        <ele>1500.76</ele>
        <time>2015-07-18T10:31:54Z</time>
      </trkpt>
      <trkpt lat="46.338307717815042" lon="12.252687932923436">
        <ele>1497.3900000000001</ele>
        <time>2015-07-18T10:32:05Z</time>
      </trkpt>
      <trkpt lat="46.338298330083489" lon="12.252640323713422">
        <ele>1496.9100000000001</ele>
        <time>2015-07-18T10:32:10Z</time>
      </trkpt>
      <trkpt lat="46.338272178545594" lon="12.252501519396901">
        <ele>1495.47</ele>
        <time>2015-07-18T10:32:21Z</time>
      </trkpt>
      <trkpt lat="46.338227419182658" lon="12.252431279048324">
        <ele>1494.03</ele>
        <time>2015-07-18T10:32:31Z</time>
      </trkpt>
      <trkpt lat="46.338215684518218" lon="12.252315022051334">
        <ele>1490.6600000000001</ele>
        <time>2015-07-18T10:32:42Z</time>
      </trkpt>
      <trkpt lat="46.33819037117064" lon="12.252239836379886">
        <ele>1490.1800000000001</ele>
        <time>2015-07-18T10:32:49Z</time>
      </trkpt>
      <trkpt lat="46.338219121098518" lon="12.252024672925472">
        <ele>1488.26</ele>
        <time>2015-07-18T10:33:02Z</time>
      </trkpt>
      <trkpt lat="46.338214511051774" lon="12.251912020146847">
        <ele>1486.8199999999999</ele>
        <time>2015-07-18T10:33:12Z</time>
      </trkpt>
      <trkpt lat="46.338172517716885" lon="12.251816047355533">
        <ele>1485.8499999999999</ele>
        <time>2015-07-18T10:33:20Z</time>
      </trkpt>
      <trkpt lat="46.338183246552944" lon="12.2516502533108">
        <ele>1484.4100000000001</ele>
        <time>2015-07-18T10:33:32Z</time>
      </trkpt>
      <trkpt lat="46.338207051157951" lon="12.251624017953873">
        <ele>1483.9300000000001</ele>
        <time>2015-07-18T10:33:41Z</time>
      </trkpt>
      <trkpt lat="46.338203446939588" lon="12.251642290502787">
        <ele>1483.45</ele>
        <time>2015-07-18T10:33:44Z</time>
      </trkpt>
      <trkpt lat="46.338212750852108" lon="12.2516502533108">
        <ele>1482.97</ele>
        <time>2015-07-18T10:33:56Z</time>
      </trkpt>
      <trkpt lat="46.338218953460455" lon="12.251648660749197">
        <ele>1482.49</ele>
        <time>2015-07-18T10:34:20Z</time>
      </trkpt>
      <trkpt lat="46.33822750300169" lon="12.251652013510466">
        <ele>1482.49</ele>
        <time>2015-07-18T10:34:43Z</time>
      </trkpt>
      <trkpt lat="46.338230771943927" lon="12.251643380150199">
        <ele>1482.49</ele>
        <time>2015-07-18T10:34:49Z</time>
      </trkpt>
      <trkpt lat="46.338195651769638" lon="12.251625610515475">
        <ele>1482.49</ele>
        <time>2015-07-18T10:34:56Z</time>
      </trkpt>
      <trkpt lat="46.338216857984662" lon="12.251595938578248">
        <ele>1482.49</ele>
        <time>2015-07-18T10:35:12Z</time>
      </trkpt>
      <trkpt lat="46.338235130533576" lon="12.251602225005627">
        <ele>1482.49</ele>
        <time>2015-07-18T10:35:24Z</time>
      </trkpt>
      <trkpt lat="46.338227335363626" lon="12.2515569627285">
        <ele>1482.49</ele>
        <time>2015-07-18T10:35:50Z</time>
      </trkpt>
      <trkpt lat="46.338228592649102" lon="12.25155595690012">
        <ele>1482.01</ele>
        <time>2015-07-18T10:36:07Z</time>
      </trkpt>
      <trkpt lat="46.338194394484162" lon="12.251581186428666">
        <ele>1482.01</ele>
        <time>2015-07-18T10:36:23Z</time>
      </trkpt>
      <trkpt lat="46.338176960125566" lon="12.25161412730813">
        <ele>1481.53</ele>
        <time>2015-07-18T10:36:38Z</time>
      </trkpt>
      <trkpt lat="46.338175870478153" lon="12.251684116199613">
        <ele>1481.05</ele>
        <time>2015-07-18T10:37:06Z</time>
      </trkpt>
      <trkpt lat="46.338204368948936" lon="12.251638686284423">
        <ele>1480.5699999999999</ele>
        <time>2015-07-18T10:37:45Z</time>
      </trkpt>
      <trkpt lat="46.338230520486832" lon="12.251655953004956">
        <ele>1480.5699999999999</ele>
        <time>2015-07-18T10:38:12Z</time>
      </trkpt>
      <trkpt lat="46.338198836892843" lon="12.251650337129831">
        <ele>1480.0899999999999</ele>
        <time>2015-07-18T10:38:44Z</time>
      </trkpt>
      <trkpt lat="46.338180145248771" lon="12.251615049317479">
        <ele>1480.0899999999999</ele>
        <time>2015-07-18T10:39:21Z</time>
      </trkpt>
      <trkpt lat="46.338223312050104" lon="12.251610942184925">
        <ele>1479.6099999999999</ele>
        <time>2015-07-18T10:39:45Z</time>
      </trkpt>
      <trkpt lat="46.338222390040755" lon="12.251650337129831">
        <ele>1479.6099999999999</ele>
        <time>2015-07-18T10:40:09Z</time>
      </trkpt>
      <trkpt lat="46.338234208524227" lon="12.251620832830667">
        <ele>1479.1300000000001</ele>
        <time>2015-07-18T10:40:33Z</time>
      </trkpt>
      <trkpt lat="46.338208559900522" lon="12.251618653535843">
        <ele>1479.1300000000001</ele>
        <time>2015-07-18T10:41:03Z</time>
      </trkpt>
      <trkpt lat="46.338216857984662" lon="12.251621671020985">
        <ele>1479.1300000000001</ele>
        <time>2015-07-18T10:41:27Z</time>
      </trkpt>
      <trkpt lat="46.338191209360957" lon="12.251627370715141">
        <ele>1478.6500000000001</ele>
        <time>2015-07-18T10:41:41Z</time>
      </trkpt>
      <trkpt lat="46.338234292343259" lon="12.251626867800951">
        <ele>1478.6500000000001</ele>
        <time>2015-07-18T10:42:00Z</time>
      </trkpt>
      <trkpt lat="46.338249379768968" lon="12.251640362665057">
        <ele>1478.1600000000001</ele>
        <time>2015-07-18T10:42:25Z</time>
      </trkpt>
      <trkpt lat="46.338229514658451" lon="12.2516312263906">
        <ele>1478.1600000000001</ele>
        <time>2015-07-18T10:42:46Z</time>
      </trkpt>
      <trkpt lat="46.33819917216897" lon="12.251622341573238">
        <ele>1478.1600000000001</ele>
        <time>2015-07-18T10:43:15Z</time>
      </trkpt>
      <trkpt lat="46.338199758902192" lon="12.251610858365893">
        <ele>1477.6800000000001</ele>
        <time>2015-07-18T10:43:41Z</time>
      </trkpt>
      <trkpt lat="46.338200345635414" lon="12.251630639657378">
        <ele>1477.6800000000001</ele>
        <time>2015-07-18T10:44:03Z</time>
      </trkpt>
      <trkpt lat="46.338198333978653" lon="12.25165176205337">
        <ele>1477.2</ele>
        <time>2015-07-18T10:44:31Z</time>
      </trkpt>
      <trkpt lat="46.338180145248771" lon="12.251653103157878">
        <ele>1477.2</ele>
        <time>2015-07-18T10:44:50Z</time>
      </trkpt>
      <trkpt lat="46.338209984824061" lon="12.251642122864723">
        <ele>1477.2</ele>
        <time>2015-07-18T10:45:10Z</time>
      </trkpt>
      <trkpt lat="46.338178217411041" lon="12.251620162278414">
        <ele>1477.2</ele>
        <time>2015-07-18T10:45:44Z</time>
      </trkpt>
      <trkpt lat="46.338177043944597" lon="12.251635752618313">
        <ele>1476.72</ele>
        <time>2015-07-18T10:46:07Z</time>
      </trkpt>
      <trkpt lat="46.338177714496851" lon="12.251625778153539">
        <ele>1476.72</ele>
        <time>2015-07-18T10:46:33Z</time>
      </trkpt>
      <trkpt lat="46.3381820730865" lon="12.251625191420317">
        <ele>1476.24</ele>
        <time>2015-07-18T10:46:55Z</time>
      </trkpt>
      <trkpt lat="46.338208895176649" lon="12.251621587201953">
        <ele>1476.24</ele>
        <time>2015-07-18T10:47:19Z</time>
      </trkpt>
      <trkpt lat="46.338199004530907" lon="12.251606248319149">
        <ele>1475.76</ele>
        <time>2015-07-18T10:47:40Z</time>
      </trkpt>
      <trkpt lat="46.338175283744931" lon="12.251609601080418">
        <ele>1475.76</ele>
        <time>2015-07-18T10:48:07Z</time>
      </trkpt>
      <trkpt lat="46.338194226846099" lon="12.251643631607294">
        <ele>1475.76</ele>
        <time>2015-07-18T10:48:25Z</time>
      </trkpt>
      <trkpt lat="46.33821627125144" lon="12.251641452312469">
        <ele>1476.72</ele>
        <time>2015-07-18T10:48:32Z</time>
      </trkpt>
      <trkpt lat="46.338208895176649" lon="12.251669196411967">
        <ele>1476.24</ele>
        <time>2015-07-18T10:48:42Z</time>
      </trkpt>
      <trkpt lat="46.338177127763629" lon="12.251632148399949">
        <ele>1476.72</ele>
        <time>2015-07-18T10:48:55Z</time>
      </trkpt>
      <trkpt lat="46.338177882134914" lon="12.251617647707462">
        <ele>1476.24</ele>
        <time>2015-07-18T10:49:09Z</time>
      </trkpt>
      <trkpt lat="46.338188275694847" lon="12.251651342958212">
        <ele>1476.24</ele>
        <time>2015-07-18T10:49:20Z</time>
      </trkpt>
      <trkpt lat="46.338154915720224" lon="12.251640362665057">
        <ele>1476.24</ele>
        <time>2015-07-18T10:49:35Z</time>
      </trkpt>
      <trkpt lat="46.338166231289506" lon="12.251613792032003">
        <ele>1476.24</ele>
        <time>2015-07-18T10:49:46Z</time>
      </trkpt>
      <trkpt lat="46.338166147470474" lon="12.251553274691105">
        <ele>1475.76</ele>
        <time>2015-07-18T10:49:57Z</time>
      </trkpt>
      <trkpt lat="46.338175535202026" lon="12.251521507278085">
        <ele>1475.28</ele>
        <time>2015-07-18T10:50:08Z</time>
      </trkpt>
      <trkpt lat="46.33816204033792" lon="12.251526201143861">
        <ele>1474.8</ele>
        <time>2015-07-18T10:50:22Z</time>
      </trkpt>
      <trkpt lat="46.338168159127235" lon="12.251482112333179">
        <ele>1474.8</ele>
        <time>2015-07-18T10:50:32Z</time>
      </trkpt>
      <trkpt lat="46.338154915720224" lon="12.251453194767237">
        <ele>1474.8</ele>
        <time>2015-07-18T10:50:44Z</time>
      </trkpt>
      <trkpt lat="46.338120382279158" lon="12.251378009095788">
        <ele>1475.28</ele>
        <time>2015-07-18T10:50:53Z</time>
      </trkpt>
      <trkpt lat="46.33806087076664" lon="12.251321095973253">
        <ele>1475.76</ele>
        <time>2015-07-18T10:51:02Z</time>
      </trkpt>
      <trkpt lat="46.337965065613389" lon="12.251251777634025">
        <ele>1475.28</ele>
        <time>2015-07-18T10:51:15Z</time>
      </trkpt>
      <trkpt lat="46.337893400341272" lon="12.251248005777597">
        <ele>1473.8399999999999</ele>
        <time>2015-07-18T10:51:28Z</time>
      </trkpt>
      <trkpt lat="46.337849982082844" lon="12.251196037977934">
        <ele>1472.8800000000001</ele>
        <time>2015-07-18T10:51:33Z</time>
      </trkpt>
      <trkpt lat="46.3377779815346" lon="12.251026388257742">
        <ele>1471.4400000000001</ele>
        <time>2015-07-18T10:51:45Z</time>
      </trkpt>
      <trkpt lat="46.337741939350963" lon="12.250938545912504">
        <ele>1470.47</ele>
        <time>2015-07-18T10:51:57Z</time>
      </trkpt>
      <trkpt lat="46.337800109758973" lon="12.250818097963929">
        <ele>1468.0699999999999</ele>
        <time>2015-07-18T10:52:08Z</time>
      </trkpt>
      <trkpt lat="46.33783757686615" lon="12.250812733545899">
        <ele>1464.23</ele>
        <time>2015-07-18T10:52:16Z</time>
      </trkpt>
      <trkpt lat="46.337884766981006" lon="12.250833604484797">
        <ele>1463.26</ele>
        <time>2015-07-18T10:52:19Z</time>
      </trkpt>
      <trkpt lat="46.337992725893855" lon="12.250763950869441">
        <ele>1460.8599999999999</ele>
        <time>2015-07-18T10:52:32Z</time>
      </trkpt>
      <trkpt lat="46.338022062554955" lon="12.250758754089475">
        <ele>1458.9400000000001</ele>
        <time>2015-07-18T10:52:35Z</time>
      </trkpt>
      <trkpt lat="46.338127506896853" lon="12.25075850263238">
        <ele>1456.53</ele>
        <time>2015-07-18T10:52:46Z</time>
      </trkpt>
      <trkpt lat="46.338142845779657" lon="12.250752551481128">
        <ele>1455.5699999999999</ele>
        <time>2015-07-18T10:52:48Z</time>
      </trkpt>
      <trkpt lat="46.338148294016719" lon="12.250751880928874">
        <ele>1455.0899999999999</ele>
        <time>2015-07-18T10:52:49Z</time>
      </trkpt>
      <trkpt lat="46.338199758902192" lon="12.250761101022363">
        <ele>1453.6500000000001</ele>
        <time>2015-07-18T10:52:54Z</time>
      </trkpt>
      <trkpt lat="46.338279135525227" lon="12.250732686370611">
        <ele>1452.21</ele>
        <time>2015-07-18T10:53:01Z</time>
      </trkpt>
      <trkpt lat="46.338307466357946" lon="12.250724975019693">
        <ele>1450.77</ele>
        <time>2015-07-18T10:53:04Z</time>
      </trkpt>
      <trkpt lat="46.338346945121884" lon="12.250695638358593">
        <ele>1448.8399999999999</ele>
        <time>2015-07-18T10:53:09Z</time>
      </trkpt>
      <trkpt lat="46.33835893124342" lon="12.250681640580297">
        <ele>1448.3599999999999</ele>
        <time>2015-07-18T10:53:10Z</time>
      </trkpt>
      <trkpt lat="46.338397404178977" lon="12.250763364136219">
        <ele>1445.48</ele>
        <time>2015-07-18T10:53:18Z</time>
      </trkpt>
      <trkpt lat="46.338401176035404" lon="12.250800579786301">
        <ele>1445.48</ele>
        <time>2015-07-18T10:53:28Z</time>
      </trkpt>
      <trkpt lat="46.338462280109525" lon="12.250869395211339">
        <ele>1443.5599999999999</ele>
        <time>2015-07-18T10:53:39Z</time>
      </trkpt>
      <trkpt lat="46.33852313272655" lon="12.250855229794979">
        <ele>1440.6700000000001</ele>
        <time>2015-07-18T10:53:49Z</time>
      </trkpt>
      <trkpt lat="46.338582308962941" lon="12.250794880092144">
        <ele>1438.75</ele>
        <time>2015-07-18T10:53:57Z</time>
      </trkpt>
      <trkpt lat="46.338549787178636" lon="12.250731931999326">
        <ele>1435.8699999999999</ele>
        <time>2015-07-18T10:54:07Z</time>
      </trkpt>
      <trkpt lat="46.338630840182304" lon="12.250704690814018">
        <ele>1433.46</ele>
        <time>2015-07-18T10:54:19Z</time>
      </trkpt>
      <trkpt lat="46.338670486584306" lon="12.250825725495815">
        <ele>1432.5</ele>
        <time>2015-07-18T10:54:27Z</time>
      </trkpt>
      <trkpt lat="46.338722286745906" lon="12.250896468758583">
        <ele>1432.02</ele>
        <time>2015-07-18T10:54:38Z</time>
      </trkpt>
      <trkpt lat="46.338768219575286" lon="12.250865790992975">
        <ele>1431.54</ele>
        <time>2015-07-18T10:54:44Z</time>
      </trkpt>
      <trkpt lat="46.338783893734217" lon="12.250812314450741">
        <ele>1431.0599999999999</ele>
        <time>2015-07-18T10:54:47Z</time>
      </trkpt>
      <trkpt lat="46.33884365670383" lon="12.250713324174285">
        <ele>1428.6600000000001</ele>
        <time>2015-07-18T10:54:58Z</time>
      </trkpt>
      <trkpt lat="46.338900905102491" lon="12.250660769641399">
        <ele>1426.25</ele>
        <time>2015-07-18T10:55:09Z</time>
      </trkpt>
      <trkpt lat="46.338983466848731" lon="12.250663703307509">
        <ele>1423.8499999999999</ele>
        <time>2015-07-18T10:55:20Z</time>
      </trkpt>
      <trkpt lat="46.339007439091802" lon="12.250660350546241">
        <ele>1422.4100000000001</ele>
        <time>2015-07-18T10:55:28Z</time>
      </trkpt>
      <trkpt lat="46.339037949219346" lon="12.250590194016695">
        <ele>1420.49</ele>
        <time>2015-07-18T10:55:39Z</time>
      </trkpt>
      <trkpt lat="46.339018000289798" lon="12.250530766323209">
        <ele>1417.5999999999999</ele>
        <time>2015-07-18T10:55:49Z</time>
      </trkpt>
      <trkpt lat="46.339043648913503" lon="12.25056798197329">
        <ele>1417.1199999999999</ele>
        <time>2015-07-18T10:56:00Z</time>
      </trkpt>
      <trkpt lat="46.339067788794637" lon="12.250553732737899">
        <ele>1416.1600000000001</ele>
        <time>2015-07-18T10:56:04Z</time>
      </trkpt>
      <trkpt lat="46.339135095477104" lon="12.250573933124542">
        <ele>1414.24</ele>
        <time>2015-07-18T10:56:14Z</time>
      </trkpt>
      <trkpt lat="46.339162671938539" lon="12.250561024993658">
        <ele>1413.28</ele>
        <time>2015-07-18T10:56:17Z</time>
      </trkpt>
      <trkpt lat="46.339188991114497" lon="12.250557169318199">
        <ele>1413.28</ele>
        <time>2015-07-18T10:56:19Z</time>
      </trkpt>
      <trkpt lat="46.339206844568253" lon="12.25058508105576">
        <ele>1412.79</ele>
        <time>2015-07-18T10:56:23Z</time>
      </trkpt>
      <trkpt lat="46.339269876480103" lon="12.250648783519864">
        <ele>1410.8699999999999</ele>
        <time>2015-07-18T10:56:33Z</time>
      </trkpt>
      <trkpt lat="46.33931765332818" lon="12.25072430446744">
        <ele>1407.51</ele>
        <time>2015-07-18T10:56:42Z</time>
      </trkpt>
      <trkpt lat="46.339374901726842" lon="12.250749953091145">
        <ele>1404.6199999999999</ele>
        <time>2015-07-18T10:56:54Z</time>
      </trkpt>
      <trkpt lat="46.339380433782935" lon="12.250732602551579">
        <ele>1404.1400000000001</ele>
        <time>2015-07-18T10:56:57Z</time>
      </trkpt>
      <trkpt lat="46.339385714381933" lon="12.250677281990647">
        <ele>1403.6600000000001</ele>
        <time>2015-07-18T10:57:01Z</time>
      </trkpt>
      <trkpt lat="46.339466432109475" lon="12.250576699152589">
        <ele>1402.22</ele>
        <time>2015-07-18T10:57:12Z</time>
      </trkpt>
      <trkpt lat="46.339533822610974" lon="12.250507716089487">
        <ele>1403.1800000000001</ele>
        <time>2015-07-18T10:57:22Z</time>
      </trkpt>
      <trkpt lat="46.339582605287433" lon="12.2504414152354">
        <ele>1406.0699999999999</ele>
        <time>2015-07-18T10:57:32Z</time>
      </trkpt>
      <trkpt lat="46.339643960818648" lon="12.250377126038074">
        <ele>1406.0699999999999</ele>
        <time>2015-07-18T10:57:42Z</time>
      </trkpt>
      <trkpt lat="46.339689558371902" lon="12.250293474644423">
        <ele>1403.6600000000001</ele>
        <time>2015-07-18T10:57:52Z</time>
      </trkpt>
      <trkpt lat="46.339692324399948" lon="12.250232035294175">
        <ele>1401.26</ele>
        <time>2015-07-18T10:58:01Z</time>
      </trkpt>
      <trkpt lat="46.339663993567228" lon="12.250123657286167">
        <ele>1398.3699999999999</ele>
        <time>2015-07-18T10:58:11Z</time>
      </trkpt>
      <trkpt lat="46.339714955538511" lon="12.250073198229074">
        <ele>1395.49</ele>
        <time>2015-07-18T10:58:19Z</time>
      </trkpt>
      <trkpt lat="46.339743034914136" lon="12.250086776912212">
        <ele>1394.53</ele>
        <time>2015-07-18T10:58:22Z</time>
      </trkpt>
      <trkpt lat="46.339846299961209" lon="12.250072276219726">
        <ele>1391.1700000000001</ele>
        <time>2015-07-18T10:58:34Z</time>
      </trkpt>
      <trkpt lat="46.339894495904446" lon="12.24995861761272">
        <ele>1387.8</ele>
        <time>2015-07-18T10:58:45Z</time>
      </trkpt>
      <trkpt lat="46.339921904727817" lon="12.249906649813056">
        <ele>1385.4000000000001</ele>
        <time>2015-07-18T10:58:55Z</time>
      </trkpt>
      <trkpt lat="46.339885778725147" lon="12.249850742518902">
        <ele>1382.03</ele>
        <time>2015-07-18T10:59:03Z</time>
      </trkpt>
      <trkpt lat="46.339921737089753" lon="12.249779831618071">
        <ele>1380.1099999999999</ele>
        <time>2015-07-18T10:59:12Z</time>
      </trkpt>
      <trkpt lat="46.33992500603199" lon="12.249697940424085">
        <ele>1376.75</ele>
        <time>2015-07-18T10:59:23Z</time>
      </trkpt>
      <trkpt lat="46.339981751516461" lon="12.24963515996933">
        <ele>1374.8199999999999</ele>
        <time>2015-07-18T10:59:32Z</time>
      </trkpt>
      <trkpt lat="46.340021230280399" lon="12.249550670385361">
        <ele>1371.9400000000001</ele>
        <time>2015-07-18T10:59:43Z</time>
      </trkpt>
      <trkpt lat="46.340061211958528" lon="12.249469282105565">
        <ele>1369.05</ele>
        <time>2015-07-18T10:59:54Z</time>
      </trkpt>
      <trkpt lat="46.340066995471716" lon="12.249386552721262">
        <ele>1365.6900000000001</ele>
        <time>2015-07-18T11:00:04Z</time>
      </trkpt>
      <trkpt lat="46.340100020170212" lon="12.249317653477192">
        <ele>1362.8099999999999</ele>
        <time>2015-07-18T11:00:14Z</time>
      </trkpt>
      <trkpt lat="46.340087531134486" lon="12.249304242432117">
        <ele>1361.3599999999999</ele>
        <time>2015-07-18T11:00:23Z</time>
      </trkpt>
      <trkpt lat="46.340093398466706" lon="12.24931220524013">
        <ele>1360.8800000000001</ele>
        <time>2015-07-18T11:00:37Z</time>
      </trkpt>
      <trkpt lat="46.340118460357189" lon="12.249257052317262">
        <ele>1360.4000000000001</ele>
        <time>2015-07-18T11:00:58Z</time>
      </trkpt>
      <trkpt lat="46.340149808675051" lon="12.249243473634124">
        <ele>1360.4000000000001</ele>
        <time>2015-07-18T11:01:08Z</time>
      </trkpt>
      <trkpt lat="46.340174786746502" lon="12.249245317652822">
        <ele>1359.4400000000001</ele>
        <time>2015-07-18T11:01:10Z</time>
      </trkpt>
      <trkpt lat="46.340245446190238" lon="12.249135849997401">
        <ele>1356.0799999999999</ele>
        <time>2015-07-18T11:01:22Z</time>
      </trkpt>
      <trkpt lat="46.340325241908431" lon="12.249044571071863">
        <ele>1355.1199999999999</ele>
        <time>2015-07-18T11:01:32Z</time>
      </trkpt>
      <trkpt lat="46.340349968522787" lon="12.248982125893235">
        <ele>1351.75</ele>
        <time>2015-07-18T11:01:41Z</time>
      </trkpt>
      <trkpt lat="46.340383747592568" lon="12.24889344535768">
        <ele>1348.3900000000001</ele>
        <time>2015-07-18T11:01:50Z</time>
      </trkpt>
      <trkpt lat="46.340375198051333" lon="12.248837035149336">
        <ele>1345.5</ele>
        <time>2015-07-18T11:01:59Z</time>
      </trkpt>
      <trkpt lat="46.340333120897412" lon="12.248783307150006">
        <ele>1342.1400000000001</ele>
        <time>2015-07-18T11:02:09Z</time>
      </trkpt>
      <trkpt lat="46.340330187231302" lon="12.248698901385069">
        <ele>1340.22</ele>
        <time>2015-07-18T11:02:18Z</time>
      </trkpt>
      <trkpt lat="46.340267909690738" lon="12.248696219176054">
        <ele>1340.22</ele>
        <time>2015-07-18T11:02:34Z</time>
      </trkpt>
      <trkpt lat="46.340241087600589" lon="12.248681047931314">
        <ele>1339.73</ele>
        <time>2015-07-18T11:02:47Z</time>
      </trkpt>
      <trkpt lat="46.340288780629635" lon="12.248572837561369">
        <ele>1336.8499999999999</ele>
        <time>2015-07-18T11:02:56Z</time>
      </trkpt>
      <trkpt lat="46.340347621589899" lon="12.248493041843176">
        <ele>1333.97</ele>
        <time>2015-07-18T11:03:08Z</time>
      </trkpt>
      <trkpt lat="46.340437307953835" lon="12.248400002717972">
        <ele>1331.5599999999999</ele>
        <time>2015-07-18T11:03:19Z</time>
      </trkpt>
      <trkpt lat="46.340441331267357" lon="12.248373012989759">
        <ele>1330.5999999999999</ele>
        <time>2015-07-18T11:03:21Z</time>
      </trkpt>
      <trkpt lat="46.34046689607203" lon="12.248314004391432">
        <ele>1329.6400000000001</ele>
        <time>2015-07-18T11:03:25Z</time>
      </trkpt>
      <trkpt lat="46.34047619998455" lon="12.248274609446526">
        <ele>1328.6800000000001</ele>
        <time>2015-07-18T11:03:29Z</time>
      </trkpt>
      <trkpt lat="46.340480977669358" lon="12.248213505372405">
        <ele>1325.3099999999999</ele>
        <time>2015-07-18T11:03:41Z</time>
      </trkpt>
      <trkpt lat="46.340456502512097" lon="12.24813362583518">
        <ele>1321.95</ele>
        <time>2015-07-18T11:03:51Z</time>
      </trkpt>
      <trkpt lat="46.340468153357506" lon="12.24801778793335">
        <ele>1319.0699999999999</ele>
        <time>2015-07-18T11:04:00Z</time>
      </trkpt>
      <trkpt lat="46.340514086186886" lon="12.247940087690949">
        <ele>1315.7</ele>
        <time>2015-07-18T11:04:09Z</time>
      </trkpt>
      <trkpt lat="46.340520372614264" lon="12.247872026637197">
        <ele>1312.8199999999999</ele>
        <time>2015-07-18T11:04:19Z</time>
      </trkpt>
      <trkpt lat="46.340526323765516" lon="12.247834727168083">
        <ele>1310.4100000000001</ele>
        <time>2015-07-18T11:04:26Z</time>
      </trkpt>
      <trkpt lat="46.340562952682376" lon="12.247744621708989">
        <ele>1307.05</ele>
        <time>2015-07-18T11:04:36Z</time>
      </trkpt>
      <trkpt lat="46.340577537193894" lon="12.247658120468259">
        <ele>1304.6500000000001</ele>
        <time>2015-07-18T11:04:47Z</time>
      </trkpt>
      <trkpt lat="46.340614417567849" lon="12.24759710021317">
        <ele>1301.76</ele>
        <time>2015-07-18T11:04:57Z</time>
      </trkpt>
      <trkpt lat="46.340637886896729" lon="12.247524010017514">
        <ele>1298.8800000000001</ele>
        <time>2015-07-18T11:05:06Z</time>
      </trkpt>
      <trkpt lat="46.340684657916427" lon="12.247455948963761">
        <ele>1296.48</ele>
        <time>2015-07-18T11:05:17Z</time>
      </trkpt>
      <trkpt lat="46.340680550783873" lon="12.247395012527704">
        <ele>1293.5899999999999</ele>
        <time>2015-07-18T11:05:28Z</time>
      </trkpt>
      <trkpt lat="46.340661272406578" lon="12.247329466044903">
        <ele>1291.1900000000001</ele>
        <time>2015-07-18T11:05:40Z</time>
      </trkpt>
      <trkpt lat="46.340634450316429" lon="12.247228296473622">
        <ele>1287.8199999999999</ele>
        <time>2015-07-18T11:05:50Z</time>
      </trkpt>
      <trkpt lat="46.340668983757496" lon="12.247087564319372">
        <ele>1284.9400000000001</ele>
        <time>2015-07-18T11:06:01Z</time>
      </trkpt>
      <trkpt lat="46.340653644874692" lon="12.247015982866287">
        <ele>1282.54</ele>
        <time>2015-07-18T11:06:10Z</time>
      </trkpt>
      <trkpt lat="46.34064375422895" lon="12.246942641213536">
        <ele>1280.1300000000001</ele>
        <time>2015-07-18T11:06:20Z</time>
      </trkpt>
      <trkpt lat="46.340651884675026" lon="12.246818086132407">
        <ele>1277.25</ele>
        <time>2015-07-18T11:06:30Z</time>
      </trkpt>
      <trkpt lat="46.340735703706741" lon="12.246729321777821">
        <ele>1275.3299999999999</ele>
        <time>2015-07-18T11:06:42Z</time>
      </trkpt>
      <trkpt lat="46.34076738730073" lon="12.246641730889678">
        <ele>1272.4400000000001</ele>
        <time>2015-07-18T11:06:53Z</time>
      </trkpt>
      <trkpt lat="46.340838130563498" lon="12.246622955426574">
        <ele>1269.5599999999999</ele>
        <time>2015-07-18T11:07:04Z</time>
      </trkpt>
      <trkpt lat="46.340870065614581" lon="12.246582135558128">
        <ele>1268.5999999999999</ele>
        <time>2015-07-18T11:07:10Z</time>
      </trkpt>
      <trkpt lat="46.340934690088034" lon="12.246471578255296">
        <ele>1268.1199999999999</ele>
        <time>2015-07-18T11:07:21Z</time>
      </trkpt>
      <trkpt lat="46.340949945151806" lon="12.246374012902379">
        <ele>1263.79</ele>
        <time>2015-07-18T11:07:28Z</time>
      </trkpt>
      <trkpt lat="46.340955644845963" lon="12.24636135622859">
        <ele>1263.79</ele>
        <time>2015-07-18T11:07:29Z</time>
      </trkpt>
      <trkpt lat="46.341065783053637" lon="12.246331684291363">
        <ele>1262.8299999999999</ele>
        <time>2015-07-18T11:07:41Z</time>
      </trkpt>
      <trkpt lat="46.341151027008891" lon="12.246350795030594">
        <ele>1262.3499999999999</ele>
        <time>2015-07-18T11:07:49Z</time>
      </trkpt>
      <trkpt lat="46.341232834383845" lon="12.246393878012896">
        <ele>1259.9400000000001</ele>
        <time>2015-07-18T11:07:59Z</time>
      </trkpt>
      <trkpt lat="46.341332411393523" lon="12.246382646262646">
        <ele>1256.5799999999999</ele>
        <time>2015-07-18T11:08:11Z</time>
      </trkpt>
      <trkpt lat="46.341436933726072" lon="12.246416760608554">
        <ele>1255.1400000000001</ele>
        <time>2015-07-18T11:08:21Z</time>
      </trkpt>
      <trkpt lat="46.341535169631243" lon="12.246454982087016">
        <ele>1253.7</ele>
        <time>2015-07-18T11:08:30Z</time>
      </trkpt>
      <trkpt lat="46.341540953144431" lon="12.246512314304709">
        <ele>1253.7</ele>
        <time>2015-07-18T11:08:33Z</time>
      </trkpt>
      <trkpt lat="46.341555370017886" lon="12.24662471562624">
        <ele>1254.1800000000001</ele>
        <time>2015-07-18T11:08:40Z</time>
      </trkpt>
      <trkpt lat="46.341578168794513" lon="12.246666038408875">
        <ele>1253.7</ele>
        <time>2015-07-18T11:08:43Z</time>
      </trkpt>
      <trkpt lat="46.341626448556781" lon="12.246787492185831">
        <ele>1251.77</ele>
        <time>2015-07-18T11:08:53Z</time>
      </trkpt>
      <trkpt lat="46.341662490740418" lon="12.246779780834913">
        <ele>1248.8900000000001</ele>
        <time>2015-07-18T11:09:01Z</time>
      </trkpt>
      <trkpt lat="46.341681014746428" lon="12.246922943741083">
        <ele>1245.53</ele>
        <time>2015-07-18T11:09:11Z</time>
      </trkpt>
      <trkpt lat="46.341742454096675" lon="12.246983209624887">
        <ele>1243.5999999999999</ele>
        <time>2015-07-18T11:09:21Z</time>
      </trkpt>
      <trkpt lat="46.341821830719709" lon="12.2470429725945">
        <ele>1241.6800000000001</ele>
        <time>2015-07-18T11:09:32Z</time>
      </trkpt>
      <trkpt lat="46.341844042763114" lon="12.247084798291326">
        <ele>1242.1600000000001</ele>
        <time>2015-07-18T11:09:42Z</time>
      </trkpt>
      <trkpt lat="46.341832978650928" lon="12.247016485780478">
        <ele>1240.72</ele>
        <time>2015-07-18T11:09:50Z</time>
      </trkpt>
      <trkpt lat="46.341861812397838" lon="12.246924620121717">
        <ele>1237.8299999999999</ele>
        <time>2015-07-18T11:10:00Z</time>
      </trkpt>
      <trkpt lat="46.341849491000175" lon="12.246975162997842">
        <ele>1237.3499999999999</ele>
        <time>2015-07-18T11:10:14Z</time>
      </trkpt>
      <trkpt lat="46.341866422444582" lon="12.246899306774139">
        <ele>1237.3499999999999</ele>
        <time>2015-07-18T11:10:30Z</time>
      </trkpt>
      <trkpt lat="46.341894920915365" lon="12.246869383379817">
        <ele>1235.9100000000001</ele>
        <time>2015-07-18T11:10:40Z</time>
      </trkpt>
      <trkpt lat="46.34187170304358" lon="12.24686561152339">
        <ele>1235.9100000000001</ele>
        <time>2015-07-18T11:10:51Z</time>
      </trkpt>
      <trkpt lat="46.341870194301009" lon="12.246885895729065">
        <ele>1235.4300000000001</ele>
        <time>2015-07-18T11:11:09Z</time>
      </trkpt>
      <trkpt lat="46.34190103970468" lon="12.246861085295677">
        <ele>1235.4300000000001</ele>
        <time>2015-07-18T11:11:21Z</time>
      </trkpt>
      <trkpt lat="46.341916881501675" lon="12.246860414743423">
        <ele>1234.95</ele>
        <time>2015-07-18T11:11:37Z</time>
      </trkpt>
      <trkpt lat="46.341903218999505" lon="12.246816158294678">
        <ele>1234.95</ele>
        <time>2015-07-18T11:12:02Z</time>
      </trkpt>
      <trkpt lat="46.341885114088655" lon="12.246867874637246">
        <ele>1234.47</ele>
        <time>2015-07-18T11:12:16Z</time>
      </trkpt>
      <trkpt lat="46.341896010562778" lon="12.246835939586163">
        <ele>1234.95</ele>
        <time>2015-07-18T11:12:35Z</time>
      </trkpt>
      <trkpt lat="46.341891819611192" lon="12.246861755847931">
        <ele>1234.47</ele>
        <time>2015-07-18T11:12:52Z</time>
      </trkpt>
      <trkpt lat="46.341933058574796" lon="12.24678061902523">
        <ele>1234.95</ele>
        <time>2015-07-18T11:13:05Z</time>
      </trkpt>
      <trkpt lat="46.342024756595492" lon="12.246666373685002">
        <ele>1233.99</ele>
        <time>2015-07-18T11:13:18Z</time>
      </trkpt>
      <trkpt lat="46.342066749930382" lon="12.246664613485336">
        <ele>1233.99</ele>
        <time>2015-07-18T11:13:22Z</time>
      </trkpt>
      <trkpt lat="46.342166075482965" lon="12.246585739776492">
        <ele>1232.0699999999999</ele>
        <time>2015-07-18T11:13:33Z</time>
      </trkpt>
      <trkpt lat="46.3422298617661" lon="12.246636701747775">
        <ele>1232.0699999999999</ele>
        <time>2015-07-18T11:13:40Z</time>
      </trkpt>
      <trkpt lat="46.34228115901351" lon="12.246525306254625">
        <ele>1233.99</ele>
        <time>2015-07-18T11:13:51Z</time>
      </trkpt>
      <trkpt lat="46.342303454875946" lon="12.246459173038602">
        <ele>1234.95</ele>
        <time>2015-07-18T11:13:58Z</time>
      </trkpt>
      <trkpt lat="46.342331869527698" lon="12.246359260752797">
        <ele>1234.95</ele>
        <time>2015-07-18T11:14:05Z</time>
      </trkpt>
      <trkpt lat="46.342331450432539" lon="12.246141834184527">
        <ele>1233.03</ele>
        <time>2015-07-18T11:14:18Z</time>
      </trkpt>
      <trkpt lat="46.342336228117347" lon="12.246123729273677">
        <ele>1233.03</ele>
        <time>2015-07-18T11:14:19Z</time>
      </trkpt>
      <trkpt lat="46.342336144298315" lon="12.246054578572512">
        <ele>1232.0699999999999</ele>
        <time>2015-07-18T11:14:23Z</time>
      </trkpt>
      <trkpt lat="46.342362463474274" lon="12.245961790904403">
        <ele>1231.5899999999999</ele>
        <time>2015-07-18T11:14:29Z</time>
      </trkpt>
      <trkpt lat="46.342372270300984" lon="12.24585953168571">
        <ele>1231.1099999999999</ele>
        <time>2015-07-18T11:14:35Z</time>
      </trkpt>
      <trkpt lat="46.342390375211835" lon="12.24563330411911">
        <ele>1229.1800000000001</ele>
        <time>2015-07-18T11:14:49Z</time>
      </trkpt>
      <trkpt lat="46.342390207573771" lon="12.245481088757515">
        <ele>1227.26</ele>
        <time>2015-07-18T11:14:58Z</time>
      </trkpt>
      <trkpt lat="46.342389956116676" lon="12.245421493425965">
        <ele>1227.26</ele>
        <time>2015-07-18T11:15:01Z</time>
      </trkpt>
      <trkpt lat="46.342377634719014" lon="12.245329795405269">
        <ele>1227.26</ele>
        <time>2015-07-18T11:15:06Z</time>
      </trkpt>
      <trkpt lat="46.342352153733373" lon="12.245219238102436">
        <ele>1225.8199999999999</ele>
        <time>2015-07-18T11:15:14Z</time>
      </trkpt>
      <trkpt lat="46.342380149289966" lon="12.245190739631653">
        <ele>1224.3800000000001</ele>
        <time>2015-07-18T11:15:17Z</time>
      </trkpt>
      <trkpt lat="46.342483749613166" lon="12.245148662477732">
        <ele>1221.01</ele>
        <time>2015-07-18T11:15:27Z</time>
      </trkpt>
      <trkpt lat="46.342489868402481" lon="12.245137766003609">
        <ele>1220.53</ele>
        <time>2015-07-18T11:15:28Z</time>
      </trkpt>
      <trkpt lat="46.342545188963413" lon="12.245044223964214">
        <ele>1217.1700000000001</ele>
        <time>2015-07-18T11:15:38Z</time>
      </trkpt>
      <trkpt lat="46.342573184520006" lon="12.244986807927489">
        <ele>1213.8</ele>
        <time>2015-07-18T11:15:47Z</time>
      </trkpt>
      <trkpt lat="46.342583745718002" lon="12.24495705217123">
        <ele>1211.4000000000001</ele>
        <time>2015-07-18T11:15:55Z</time>
      </trkpt>
      <trkpt lat="46.342623727396131" lon="12.24491061642766">
        <ele>1208.51</ele>
        <time>2015-07-18T11:16:04Z</time>
      </trkpt>
      <trkpt lat="46.342628840357065" lon="12.244899552315474">
        <ele>1207.55</ele>
        <time>2015-07-18T11:16:06Z</time>
      </trkpt>
      <trkpt lat="46.3426305167377" lon="12.244808860123158">
        <ele>1204.6700000000001</ele>
        <time>2015-07-18T11:16:14Z</time>
      </trkpt>
      <trkpt lat="46.342631354928017" lon="12.244772398844361">
        <ele>1204.1900000000001</ele>
        <time>2015-07-18T11:16:16Z</time>
      </trkpt>
      <trkpt lat="46.342653818428516" lon="12.244716659188271">
        <ele>1202.27</ele>
        <time>2015-07-18T11:16:21Z</time>
      </trkpt>
      <trkpt lat="46.342684412375093" lon="12.244637282565236">
        <ele>1199.3800000000001</ele>
        <time>2015-07-18T11:16:30Z</time>
      </trkpt>
      <trkpt lat="46.342746187001467" lon="12.244611885398626">
        <ele>1197.46</ele>
        <time>2015-07-18T11:16:39Z</time>
      </trkpt>
      <trkpt lat="46.342793293297291" lon="12.244649352505803">
        <ele>1196.02</ele>
        <time>2015-07-18T11:16:44Z</time>
      </trkpt>
      <trkpt lat="46.342851798981428" lon="12.24460719153285">
        <ele>1192.6500000000001</ele>
        <time>2015-07-18T11:16:55Z</time>
      </trkpt>
      <trkpt lat="46.342847943305969" lon="12.244590763002634">
        <ele>1192.1700000000001</ele>
        <time>2015-07-18T11:16:56Z</time>
      </trkpt>
      <trkpt lat="46.342793293297291" lon="12.244397308677435">
        <ele>1188.8099999999999</ele>
        <time>2015-07-18T11:17:07Z</time>
      </trkpt>
      <trkpt lat="46.342738894745708" lon="12.24429689347744">
        <ele>1186.8800000000001</ele>
        <time>2015-07-18T11:17:14Z</time>
      </trkpt>
      <trkpt lat="46.342742079868913" lon="12.244228580966592">
        <ele>1186.4000000000001</ele>
        <time>2015-07-18T11:17:18Z</time>
      </trkpt>
      <trkpt lat="46.342750797048211" lon="12.244198573753238">
        <ele>1185.9200000000001</ele>
        <time>2015-07-18T11:17:20Z</time>
      </trkpt>
      <trkpt lat="46.342822210863233" lon="12.244015848264098">
        <ele>1185.9200000000001</ele>
        <time>2015-07-18T11:17:31Z</time>
      </trkpt>
      <trkpt lat="46.342798322439194" lon="12.243891125544906">
        <ele>1184.96</ele>
        <time>2015-07-18T11:17:43Z</time>
      </trkpt>
      <trkpt lat="46.342747444286942" lon="12.243836978450418">
        <ele>1184</ele>
        <time>2015-07-18T11:17:48Z</time>
      </trkpt>
      <trkpt lat="46.342667816206813" lon="12.243666909635067">
        <ele>1182.0799999999999</ele>
        <time>2015-07-18T11:18:01Z</time>
      </trkpt>
      <trkpt lat="46.342677371576428" lon="12.243640506640077">
        <ele>1182.0799999999999</ele>
        <time>2015-07-18T11:18:02Z</time>
      </trkpt>
      <trkpt lat="46.342633785679936" lon="12.243482675403357">
        <ele>1179.6700000000001</ele>
        <time>2015-07-18T11:18:11Z</time>
      </trkpt>
      <trkpt lat="46.342602856457233" lon="12.243413273245096">
        <ele>1178.71</ele>
        <time>2015-07-18T11:18:24Z</time>
      </trkpt>
      <trkpt lat="46.342615932226181" lon="12.243294669315219">
        <ele>1177.75</ele>
        <time>2015-07-18T11:18:35Z</time>
      </trkpt>
      <trkpt lat="46.342620793730021" lon="12.243277067318559">
        <ele>1177.75</ele>
        <time>2015-07-18T11:18:36Z</time>
      </trkpt>
      <trkpt lat="46.342706792056561" lon="12.243097610771656">
        <ele>1178.71</ele>
        <time>2015-07-18T11:18:48Z</time>
      </trkpt>
      <trkpt lat="46.342822462320328" lon="12.242910442873836">
        <ele>1178.71</ele>
        <time>2015-07-18T11:18:59Z</time>
      </trkpt>
      <trkpt lat="46.342922374606133" lon="12.24278362467885">
        <ele>1176.79</ele>
        <time>2015-07-18T11:19:11Z</time>
      </trkpt>
      <trkpt lat="46.342967133969069" lon="12.242752024903893">
        <ele>1176.3099999999999</ele>
        <time>2015-07-18T11:19:23Z</time>
      </trkpt>
      <trkpt lat="46.34298725053668" lon="12.242554798722267">
        <ele>1177.27</ele>
        <time>2015-07-18T11:19:36Z</time>
      </trkpt>
      <trkpt lat="46.3430898450315" lon="12.242399230599403">
        <ele>1177.75</ele>
        <time>2015-07-18T11:19:50Z</time>
      </trkpt>
      <trkpt lat="46.343159498646855" lon="12.242288254201412">
        <ele>1179.6700000000001</ele>
        <time>2015-07-18T11:20:04Z</time>
      </trkpt>
      <trkpt lat="46.343216998502612" lon="12.242184653878212">
        <ele>1180.1600000000001</ele>
        <time>2015-07-18T11:20:14Z</time>
      </trkpt>
      <trkpt lat="46.343305427581072" lon="12.242105109617114">
        <ele>1179.1900000000001</ele>
        <time>2015-07-18T11:20:24Z</time>
      </trkpt>
      <trkpt lat="46.343341134488583" lon="12.241933448240161">
        <ele>1179.1900000000001</ele>
        <time>2015-07-18T11:20:37Z</time>
      </trkpt>
      <trkpt lat="46.343367286026478" lon="12.241733875125647">
        <ele>1180.6400000000001</ele>
        <time>2015-07-18T11:20:47Z</time>
      </trkpt>
      <trkpt lat="46.343369130045176" lon="12.241594064980745">
        <ele>1181.1199999999999</ele>
        <time>2015-07-18T11:20:58Z</time>
      </trkpt>
      <trkpt lat="46.343384552747011" lon="12.241560788825154">
        <ele>1181.1199999999999</ele>
        <time>2015-07-18T11:21:01Z</time>
      </trkpt>
      <trkpt lat="46.343380780890584" lon="12.241395246237516">
        <ele>1181.1199999999999</ele>
        <time>2015-07-18T11:21:12Z</time>
      </trkpt>
      <trkpt lat="46.343399304896593" lon="12.241265494376421">
        <ele>1177.75</ele>
        <time>2015-07-18T11:21:20Z</time>
      </trkpt>
      <trkpt lat="46.343443309888244" lon="12.241096096113324">
        <ele>1177.75</ele>
        <time>2015-07-18T11:21:30Z</time>
      </trkpt>
      <trkpt lat="46.3434490095824" lon="12.24105536006391">
        <ele>1174.3900000000001</ele>
        <time>2015-07-18T11:21:33Z</time>
      </trkpt>
      <trkpt lat="46.343444650992751" lon="12.241034908220172">
        <ele>1174.3900000000001</ele>
        <time>2015-07-18T11:21:34Z</time>
      </trkpt>
      <trkpt lat="46.343409614637494" lon="12.240797113627195">
        <ele>1171.98</ele>
        <time>2015-07-18T11:21:46Z</time>
      </trkpt>
      <trkpt lat="46.343340463936329" lon="12.240589410066605">
        <ele>1170.54</ele>
        <time>2015-07-18T11:21:59Z</time>
      </trkpt>
      <trkpt lat="46.343322191387415" lon="12.240512296557426">
        <ele>1170.54</ele>
        <time>2015-07-18T11:22:04Z</time>
      </trkpt>
      <trkpt lat="46.343290843069553" lon="12.240435434505343">
        <ele>1169.5799999999999</ele>
        <time>2015-07-18T11:22:09Z</time>
      </trkpt>
      <trkpt lat="46.343207191675901" lon="12.240265952423215">
        <ele>1167.6600000000001</ele>
        <time>2015-07-18T11:22:19Z</time>
      </trkpt>
      <trkpt lat="46.343197971582413" lon="12.240250445902348">
        <ele>1167.6600000000001</ele>
        <time>2015-07-18T11:22:20Z</time>
      </trkpt>
      <trkpt lat="46.343165868893266" lon="12.240147432312369">
        <ele>1166.7</ele>
        <time>2015-07-18T11:22:27Z</time>
      </trkpt>
      <trkpt lat="46.343142734840512" lon="12.240086412057281">
        <ele>1165.26</ele>
        <time>2015-07-18T11:22:31Z</time>
      </trkpt>
      <trkpt lat="46.343113230541348" lon="12.23995691165328">
        <ele>1163.3299999999999</ele>
        <time>2015-07-18T11:22:40Z</time>
      </trkpt>
      <trkpt lat="46.343084396794438" lon="12.239821292459965">
        <ele>1161.8900000000001</ele>
        <time>2015-07-18T11:22:49Z</time>
      </trkpt>
      <trkpt lat="46.343029495328665" lon="12.239660946652293">
        <ele>1159.97</ele>
        <time>2015-07-18T11:23:02Z</time>
      </trkpt>
      <trkpt lat="46.342990016564727" lon="12.239519292488694">
        <ele>1157.5599999999999</ele>
        <time>2015-07-18T11:23:12Z</time>
      </trkpt>
      <trkpt lat="46.342982389032841" lon="12.239507641643286">
        <ele>1157.0799999999999</ele>
        <time>2015-07-18T11:23:13Z</time>
      </trkpt>
      <trkpt lat="46.342884320765734" lon="12.239338578656316">
        <ele>1155.6400000000001</ele>
        <time>2015-07-18T11:23:25Z</time>
      </trkpt>
      <trkpt lat="46.342871077358723" lon="12.239255430176854">
        <ele>1155.1600000000001</ele>
        <time>2015-07-18T11:23:35Z</time>
      </trkpt>
      <trkpt lat="46.342843417078257" lon="12.239157110452652">
        <ele>1154.6800000000001</ele>
        <time>2015-07-18T11:23:49Z</time>
      </trkpt>
      <trkpt lat="46.342794550582767" lon="12.238945970311761">
        <ele>1154.2</ele>
        <time>2015-07-18T11:24:02Z</time>
      </trkpt>
      <trkpt lat="46.342844506725669" lon="12.238850332796574">
        <ele>1153.72</ele>
        <time>2015-07-18T11:24:08Z</time>
      </trkpt>
      <trkpt lat="46.342854397371411" lon="12.238738937303424">
        <ele>1152.28</ele>
        <time>2015-07-18T11:24:14Z</time>
      </trkpt>
      <trkpt lat="46.342862443998456" lon="12.238639527931809">
        <ele>1149.8699999999999</ele>
        <time>2015-07-18T11:24:21Z</time>
      </trkpt>
      <trkpt lat="46.342863868921995" lon="12.238550847396255">
        <ele>1149.3900000000001</ele>
        <time>2015-07-18T11:24:26Z</time>
      </trkpt>
      <trkpt lat="46.342875435948372" lon="12.238507680594921">
        <ele>1148.4300000000001</ele>
        <time>2015-07-18T11:24:29Z</time>
      </trkpt>
      <trkpt lat="46.342817516997457" lon="12.238342892378569">
        <ele>1146.51</ele>
        <time>2015-07-18T11:24:39Z</time>
      </trkpt>
      <trkpt lat="46.342743085697293" lon="12.238227557390928">
        <ele>1144.5899999999999</ele>
        <time>2015-07-18T11:24:49Z</time>
      </trkpt>
      <trkpt lat="46.342727830633521" lon="12.238099817186594">
        <ele>1141.7</ele>
        <time>2015-07-18T11:24:57Z</time>
      </trkpt>
      <trkpt lat="46.342654656618834" lon="12.23794181831181">
        <ele>1140.74</ele>
        <time>2015-07-18T11:25:07Z</time>
      </trkpt>
      <trkpt lat="46.342630684375763" lon="12.237849030643702">
        <ele>1140.26</ele>
        <time>2015-07-18T11:25:12Z</time>
      </trkpt>
      <trkpt lat="46.342569915577769" lon="12.237687762826681">
        <ele>1139.3</ele>
        <time>2015-07-18T11:25:21Z</time>
      </trkpt>
      <trkpt lat="46.342514427378774" lon="12.237517526373267">
        <ele>1136.9000000000001</ele>
        <time>2015-07-18T11:25:34Z</time>
      </trkpt>
      <trkpt lat="46.342441169545054" lon="12.237311499193311">
        <ele>1134.97</ele>
        <time>2015-07-18T11:25:46Z</time>
      </trkpt>
      <trkpt lat="46.34240529499948" lon="12.237086612731218">
        <ele>1132.0899999999999</ele>
        <time>2015-07-18T11:25:57Z</time>
      </trkpt>
      <trkpt lat="46.342333797365427" lon="12.236887374892831">
        <ele>1129.6900000000001</ele>
        <time>2015-07-18T11:26:08Z</time>
      </trkpt>
      <trkpt lat="46.342289792373776" lon="12.236707666888833">
        <ele>1127.28</ele>
        <time>2015-07-18T11:26:18Z</time>
      </trkpt>
      <trkpt lat="46.34225039742887" lon="12.236624602228403">
        <ele>1126.3199999999999</ele>
        <time>2015-07-18T11:26:23Z</time>
      </trkpt>
      <trkpt lat="46.342156603932381" lon="12.236496610566974">
        <ele>1123.9200000000001</ele>
        <time>2015-07-18T11:26:32Z</time>
      </trkpt>
      <trkpt lat="46.342058116570115" lon="12.236369038000703">
        <ele>1120.55</ele>
        <time>2015-07-18T11:26:44Z</time>
      </trkpt>
      <trkpt lat="46.341984607279301" lon="12.236265521496534">
        <ele>1118.1500000000001</ele>
        <time>2015-07-18T11:26:56Z</time>
      </trkpt>
      <trkpt lat="46.342028947547078" lon="12.23612554371357">
        <ele>1115.27</ele>
        <time>2015-07-18T11:27:07Z</time>
      </trkpt>
      <trkpt lat="46.34207546710968" lon="12.235956816002727">
        <ele>1112.8599999999999</ele>
        <time>2015-07-18T11:27:18Z</time>
      </trkpt>
      <trkpt lat="46.342067336663604" lon="12.235904177650809">
        <ele>1112.3800000000001</ele>
        <time>2015-07-18T11:27:21Z</time>
      </trkpt>
      <trkpt lat="46.342124920338392" lon="12.235768809914589">
        <ele>1109.5</ele>
        <time>2015-07-18T11:27:32Z</time>
      </trkpt>
      <trkpt lat="46.34210622869432" lon="12.235699994489551">
        <ele>1108.0599999999999</ele>
        <time>2015-07-18T11:27:38Z</time>
      </trkpt>
      <trkpt lat="46.34211452677846" lon="12.235583905130625">
        <ele>1107.0999999999999</ele>
        <time>2015-07-18T11:27:45Z</time>
      </trkpt>
      <trkpt lat="46.342131542041898" lon="12.23553285934031">
        <ele>1106.6099999999999</ele>
        <time>2015-07-18T11:27:58Z</time>
      </trkpt>
      <trkpt lat="46.342137912288308" lon="12.235443256795406">
        <ele>1104.6900000000001</ele>
        <time>2015-07-18T11:28:11Z</time>
      </trkpt>
      <trkpt lat="46.342180576175451" lon="12.23536865785718">
        <ele>1101.3299999999999</ele>
        <time>2015-07-18T11:28:20Z</time>
      </trkpt>
      <trkpt lat="46.342187784612179" lon="12.235220465809107">
        <ele>1098.4400000000001</ele>
        <time>2015-07-18T11:28:32Z</time>
      </trkpt>
      <trkpt lat="46.342192646116018" lon="12.235215604305267">
        <ele>1098.4400000000001</ele>
        <time>2015-07-18T11:28:33Z</time>
      </trkpt>
      <trkpt lat="46.34220345877111" lon="12.235142597928643">
        <ele>1096.04</ele>
        <time>2015-07-18T11:28:43Z</time>
      </trkpt>
      <trkpt lat="46.342196501791477" lon="12.235001195222139">
        <ele>1093.1600000000001</ele>
        <time>2015-07-18T11:28:53Z</time>
      </trkpt>
      <trkpt lat="46.342168841511011" lon="12.234895750880241">
        <ele>1089.79</ele>
        <time>2015-07-18T11:29:02Z</time>
      </trkpt>
      <trkpt lat="46.342146126553416" lon="12.23483020439744">
        <ele>1088.3499999999999</ele>
        <time>2015-07-18T11:29:07Z</time>
      </trkpt>
      <trkpt lat="46.342061217874289" lon="12.23472073674202">
        <ele>1085.47</ele>
        <time>2015-07-18T11:29:17Z</time>
      </trkpt>
      <trkpt lat="46.3420295342803" lon="12.234582183882594">
        <ele>1082.0999999999999</ele>
        <time>2015-07-18T11:29:27Z</time>
      </trkpt>
      <trkpt lat="46.342025510966778" lon="12.234552511945367">
        <ele>1081.6199999999999</ele>
        <time>2015-07-18T11:29:29Z</time>
      </trkpt>
      <trkpt lat="46.342020817101002" lon="12.23452334292233">
        <ele>1081.1400000000001</ele>
        <time>2015-07-18T11:29:31Z</time>
      </trkpt>
      <trkpt lat="46.34198309853673" lon="12.234368361532688">
        <ele>1078.74</ele>
        <time>2015-07-18T11:29:42Z</time>
      </trkpt>
      <trkpt lat="46.341965664178133" lon="12.234380431473255">
        <ele>1077.78</ele>
        <time>2015-07-18T11:29:55Z</time>
      </trkpt>
      <trkpt lat="46.341994917020202" lon="12.234365679323673">
        <ele>1077.78</ele>
        <time>2015-07-18T11:30:06Z</time>
      </trkpt>
      <trkpt lat="46.342016709968448" lon="12.234263084828854">
        <ele>1077.29</ele>
        <time>2015-07-18T11:30:22Z</time>
      </trkpt>
      <trkpt lat="46.341966334730387" lon="12.234138278290629">
        <ele>1075.8499999999999</ele>
        <time>2015-07-18T11:30:31Z</time>
      </trkpt>
      <trkpt lat="46.341949990019202" lon="12.234053034335375">
        <ele>1073.9300000000001</ele>
        <time>2015-07-18T11:30:39Z</time>
      </trkpt>
      <trkpt lat="46.341950073838234" lon="12.233943650498986">
        <ele>1072.97</ele>
        <time>2015-07-18T11:30:49Z</time>
      </trkpt>
      <trkpt lat="46.341944960877299" lon="12.233924875035882">
        <ele>1072.49</ele>
        <time>2015-07-18T11:30:50Z</time>
      </trkpt>
      <trkpt lat="46.341912439092994" lon="12.234028140082955">
        <ele>1072.01</ele>
        <time>2015-07-18T11:30:59Z</time>
      </trkpt>
      <trkpt lat="46.341911684721708" lon="12.233899980783463">
        <ele>1069.5999999999999</ele>
        <time>2015-07-18T11:31:09Z</time>
      </trkpt>
      <trkpt lat="46.341891903430223" lon="12.233812725171447">
        <ele>1069.1199999999999</ele>
        <time>2015-07-18T11:31:13Z</time>
      </trkpt>
      <trkpt lat="46.341882012784481" lon="12.233778610825539">
        <ele>1069.1199999999999</ele>
        <time>2015-07-18T11:31:15Z</time>
      </trkpt>
      <trkpt lat="46.341879079118371" lon="12.233760338276625">
        <ele>1068.6400000000001</ele>
        <time>2015-07-18T11:31:16Z</time>
      </trkpt>
      <trkpt lat="46.341875726357102" lon="12.233720775693655">
        <ele>1068.1600000000001</ele>
        <time>2015-07-18T11:31:18Z</time>
      </trkpt>
      <trkpt lat="46.341888131573796" lon="12.233553975820541">
        <ele>1066.24</ele>
        <time>2015-07-18T11:31:28Z</time>
      </trkpt>
      <trkpt lat="46.341839851811528" lon="12.233408885076642">
        <ele>1063.8399999999999</ele>
        <time>2015-07-18T11:31:38Z</time>
      </trkpt>
      <trkpt lat="46.341863572597504" lon="12.233321126550436">
        <ele>1062.8699999999999</ele>
        <time>2015-07-18T11:31:43Z</time>
      </trkpt>
      <trkpt lat="46.341859214007854" lon="12.233228087425232">
        <ele>1061.9100000000001</ele>
        <time>2015-07-18T11:31:50Z</time>
      </trkpt>
      <trkpt lat="46.341815963387489" lon="12.233105460181832">
        <ele>1060.47</ele>
        <time>2015-07-18T11:32:02Z</time>
      </trkpt>
      <trkpt lat="46.341807246208191" lon="12.232938325032592">
        <ele>1059.51</ele>
        <time>2015-07-18T11:32:12Z</time>
      </trkpt>
      <trkpt lat="46.341838175430894" lon="12.232864061370492">
        <ele>1058.0699999999999</ele>
        <time>2015-07-18T11:32:18Z</time>
      </trkpt>
      <trkpt lat="46.341843958944082" lon="12.232730789110065">
        <ele>1055.1800000000001</ele>
        <time>2015-07-18T11:32:26Z</time>
      </trkpt>
      <trkpt lat="46.341881677508354" lon="12.23261721432209">
        <ele>1053.26</ele>
        <time>2015-07-18T11:32:33Z</time>
      </trkpt>
      <trkpt lat="46.341856783255935" lon="12.232467764988542">
        <ele>1051.3399999999999</ele>
        <time>2015-07-18T11:32:42Z</time>
      </trkpt>
      <trkpt lat="46.341866422444582" lon="12.232434321194887">
        <ele>1050.8599999999999</ele>
        <time>2015-07-18T11:32:43Z</time>
      </trkpt>
      <trkpt lat="46.341891987249255" lon="12.232285290956497">
        <ele>1049.4200000000001</ele>
        <time>2015-07-18T11:32:50Z</time>
      </trkpt>
      <trkpt lat="46.341871116310358" lon="12.232224019244313">
        <ele>1048.9400000000001</ele>
        <time>2015-07-18T11:32:54Z</time>
      </trkpt>
      <trkpt lat="46.341868350282311" lon="12.232204740867019">
        <ele>1048.9400000000001</ele>
        <time>2015-07-18T11:32:55Z</time>
      </trkpt>
      <trkpt lat="46.341890646144748" lon="12.232089154422283">
        <ele>1047.49</ele>
        <time>2015-07-18T11:33:01Z</time>
      </trkpt>
      <trkpt lat="46.341899195685983" lon="12.231927635148168">
        <ele>1045.0899999999999</ele>
        <time>2015-07-18T11:33:11Z</time>
      </trkpt>
      <trkpt lat="46.341902045533061" lon="12.231835601851344">
        <ele>1043.6500000000001</ele>
        <time>2015-07-18T11:33:17Z</time>
      </trkpt>
      <trkpt lat="46.341913277283311" lon="12.231712304055691">
        <ele>1041.73</ele>
        <time>2015-07-18T11:33:24Z</time>
      </trkpt>
      <trkpt lat="46.341911600902677" lon="12.231600321829319">
        <ele>1038.8399999999999</ele>
        <time>2015-07-18T11:33:33Z</time>
      </trkpt>
      <trkpt lat="46.3419224973768" lon="12.231565872207284">
        <ele>1038.3599999999999</ele>
        <time>2015-07-18T11:33:35Z</time>
      </trkpt>
      <trkpt lat="46.341951582580805" lon="12.231531841680408">
        <ele>1038.3599999999999</ele>
        <time>2015-07-18T11:33:38Z</time>
      </trkpt>
      <trkpt lat="46.34198552928865" lon="12.231470067054033">
        <ele>1036.9200000000001</ele>
        <time>2015-07-18T11:33:43Z</time>
      </trkpt>
      <trkpt lat="46.341972704976797" lon="12.231308463960886">
        <ele>1035.48</ele>
        <time>2015-07-18T11:33:52Z</time>
      </trkpt>
      <trkpt lat="46.341952756047249" lon="12.231230763718486">
        <ele>1035</ele>
        <time>2015-07-18T11:33:56Z</time>
      </trkpt>
      <trkpt lat="46.341952085494995" lon="12.231210395693779">
        <ele>1035</ele>
        <time>2015-07-18T11:33:57Z</time>
      </trkpt>
      <trkpt lat="46.341940769925714" lon="12.231028592213988">
        <ele>1033.0699999999999</ele>
        <time>2015-07-18T11:34:09Z</time>
      </trkpt>
      <trkpt lat="46.341895004734397" lon="12.230874449014664">
        <ele>1031.6300000000001</ele>
        <time>2015-07-18T11:34:18Z</time>
      </trkpt>
      <trkpt lat="46.341885700821877" lon="12.230854751542211">
        <ele>1031.6300000000001</ele>
        <time>2015-07-18T11:34:19Z</time>
      </trkpt>
      <trkpt lat="46.341824177652597" lon="12.230690298601985">
        <ele>1031.1500000000001</ele>
        <time>2015-07-18T11:34:29Z</time>
      </trkpt>
      <trkpt lat="46.341781010851264" lon="12.230611760169268">
        <ele>1030.6700000000001</ele>
        <time>2015-07-18T11:34:35Z</time>
      </trkpt>
      <trkpt lat="46.3417290430516" lon="12.23053565248847">
        <ele>1030.1900000000001</ele>
        <time>2015-07-18T11:34:42Z</time>
      </trkpt>
      <trkpt lat="46.341675482690334" lon="12.230435321107507">
        <ele>1030.1900000000001</ele>
        <time>2015-07-18T11:34:49Z</time>
      </trkpt>
      <trkpt lat="46.341679086908698" lon="12.230308083817363">
        <ele>1029.71</ele>
        <time>2015-07-18T11:34:56Z</time>
      </trkpt>
      <trkpt lat="46.341649750247598" lon="12.230147570371628">
        <ele>1028.75</ele>
        <time>2015-07-18T11:35:06Z</time>
      </trkpt>
      <trkpt lat="46.341614378616214" lon="12.230091243982315">
        <ele>1027.3099999999999</ele>
        <time>2015-07-18T11:35:16Z</time>
      </trkpt>
      <trkpt lat="46.341629885137081" lon="12.230022177100182">
        <ele>1025.8599999999999</ele>
        <time>2015-07-18T11:35:26Z</time>
      </trkpt>
      <trkpt lat="46.341621922329068" lon="12.230022344738245">
        <ele>1026.3399999999999</ele>
        <time>2015-07-18T11:35:35Z</time>
      </trkpt>
      <trkpt lat="46.341631142422557" lon="12.230001389980316">
        <ele>1025.8599999999999</ele>
        <time>2015-07-18T11:35:47Z</time>
      </trkpt>
      <trkpt lat="46.341679925099015" lon="12.22999912686646">
        <ele>1025.8599999999999</ele>
        <time>2015-07-18T11:36:03Z</time>
      </trkpt>
      <trkpt lat="46.341660227626562" lon="12.229990996420383">
        <ele>1025.3800000000001</ele>
        <time>2015-07-18T11:36:19Z</time>
      </trkpt>
      <trkpt lat="46.341679254546762" lon="12.230008849874139">
        <ele>1025.3800000000001</ele>
        <time>2015-07-18T11:36:33Z</time>
      </trkpt>
      <trkpt lat="46.341655114665627" lon="12.229969957843423">
        <ele>1025.8599999999999</ele>
        <time>2015-07-18T11:36:47Z</time>
      </trkpt>
      <trkpt lat="46.341621670871973" lon="12.229992505162954">
        <ele>1025.3800000000001</ele>
        <time>2015-07-18T11:37:02Z</time>
      </trkpt>
      <trkpt lat="46.341583784669638" lon="12.230002898722887">
        <ele>1025.8599999999999</ele>
        <time>2015-07-18T11:37:22Z</time>
      </trkpt>
      <trkpt lat="46.341590406373143" lon="12.229989739134908">
        <ele>1023.9400000000001</ele>
        <time>2015-07-18T11:37:24Z</time>
      </trkpt>
      <trkpt lat="46.341596860438585" lon="12.229985799640417">
        <ele>1026.3399999999999</ele>
        <time>2015-07-18T11:37:25Z</time>
      </trkpt>
      <trkpt lat="46.34162007831037" lon="12.229990409687161">
        <ele>1024.9000000000001</ele>
        <time>2015-07-18T11:37:29Z</time>
      </trkpt>
      <trkpt lat="46.34163374081254" lon="12.230025194585323">
        <ele>1024.4200000000001</ele>
        <time>2015-07-18T11:37:41Z</time>
      </trkpt>
      <trkpt lat="46.341630220413208" lon="12.229980686679482">
        <ele>1024.9000000000001</ele>
        <time>2015-07-18T11:37:58Z</time>
      </trkpt>
      <trkpt lat="46.341636423021555" lon="12.229992924258113">
        <ele>1024.9000000000001</ele>
        <time>2015-07-18T11:38:05Z</time>
      </trkpt>
      <trkpt lat="46.341626364737749" lon="12.229988230392337">
        <ele>1025.3800000000001</ele>
        <time>2015-07-18T11:38:23Z</time>
      </trkpt>
      <trkpt lat="46.341201150789857" lon="12.229940285906196">
        <ele>1025.3800000000001</ele>
        <time>2015-07-18T11:38:36Z</time>
      </trkpt>
      <trkpt lat="46.34117248468101" lon="12.229946320876479">
        <ele>1024.9000000000001</ele>
        <time>2015-07-18T11:38:47Z</time>
      </trkpt>
      <trkpt lat="46.341158738359809" lon="12.229957301169634">
        <ele>1024.9000000000001</ele>
        <time>2015-07-18T11:39:09Z</time>
      </trkpt>
      <trkpt lat="46.341157564893365" lon="12.22992192953825">
        <ele>1024.4200000000001</ele>
        <time>2015-07-18T11:39:24Z</time>
      </trkpt>
      <trkpt lat="46.341125378385186" lon="12.229841379448771">
        <ele>1023.46</ele>
        <time>2015-07-18T11:39:28Z</time>
      </trkpt>
      <trkpt lat="46.341092940419912" lon="12.229782706126571">
        <ele>1022.02</ele>
        <time>2015-07-18T11:39:39Z</time>
      </trkpt>
      <trkpt lat="46.341024795547128" lon="12.229680949822068">
        <ele>1019.62</ele>
        <time>2015-07-18T11:39:57Z</time>
      </trkpt>
      <trkpt lat="46.340939551591873" lon="12.229550862684846">
        <ele>1016.73</ele>
        <time>2015-07-18T11:40:09Z</time>
      </trkpt>
      <trkpt lat="46.340842489153147" lon="12.229486238211393">
        <ele>1014.33</ele>
        <time>2015-07-18T11:40:20Z</time>
      </trkpt>
      <trkpt lat="46.34078549221158" lon="12.229364281520247">
        <ele>1010.96</ele>
        <time>2015-07-18T11:40:32Z</time>
      </trkpt>
      <trkpt lat="46.340754982084036" lon="12.229331843554974">
        <ele>1010</ele>
        <time>2015-07-18T11:40:35Z</time>
      </trkpt>
      <trkpt lat="46.340656662359834" lon="12.22920217551291">
        <ele>1006.64</ele>
        <time>2015-07-18T11:40:46Z</time>
      </trkpt>
      <trkpt lat="46.340579045936465" lon="12.229077871888876">
        <ele>1003.75</ele>
        <time>2015-07-18T11:40:57Z</time>
      </trkpt>
      <trkpt lat="46.340525234118104" lon="12.228946862742305">
        <ele>1000.39</ele>
        <time>2015-07-18T11:41:06Z</time>
      </trkpt>
      <trkpt lat="46.340526239946485" lon="12.228935295715928">
        <ele>999.90999999999997</ele>
        <time>2015-07-18T11:41:07Z</time>
      </trkpt>
      <trkpt lat="46.34054996073246" lon="12.228914676234126">
        <ele>999.42999999999995</ele>
        <time>2015-07-18T11:41:10Z</time>
      </trkpt>
      <trkpt lat="46.340584410354495" lon="12.228841753676534">
        <ele>996.53999999999996</ele>
        <time>2015-07-18T11:41:17Z</time>
      </trkpt>
      <trkpt lat="46.340619949623942" lon="12.228745110332966">
        <ele>993.65999999999997</ele>
        <time>2015-07-18T11:41:27Z</time>
      </trkpt>
      <trkpt lat="46.340623218566179" lon="12.228634469211102">
        <ele>990.29999999999995</ele>
        <time>2015-07-18T11:41:36Z</time>
      </trkpt>
      <trkpt lat="46.34064962156117" lon="12.228542938828468">
        <ele>987.40999999999997</ele>
        <time>2015-07-18T11:41:45Z</time>
      </trkpt>
      <trkpt lat="46.340650459751487" lon="12.228529443964362">
        <ele>986.92999999999995</ele>
        <time>2015-07-18T11:41:46Z</time>
      </trkpt>
      <trkpt lat="46.340658254921436" lon="12.228424502536654">
        <ele>984.04999999999995</ele>
        <time>2015-07-18T11:41:54Z</time>
      </trkpt>
      <trkpt lat="46.340629924088717" lon="12.228369181975722">
        <ele>981.63999999999999</ele>
        <time>2015-07-18T11:42:01Z</time>
      </trkpt>
      <trkpt lat="46.340583153069019" lon="12.228320315480232">
        <ele>978.75999999999999</ele>
        <time>2015-07-18T11:42:10Z</time>
      </trkpt>
      <trkpt lat="46.340573932975531" lon="12.228314867243171">
        <ele>978.27999999999997</ele>
        <time>2015-07-18T11:42:11Z</time>
      </trkpt>
      <trkpt lat="46.340531436726451" lon="12.228277064859867">
        <ele>976.36000000000001</ele>
        <time>2015-07-18T11:42:17Z</time>
      </trkpt>
      <trkpt lat="46.340508554130793" lon="12.228260803967714">
        <ele>974.90999999999997</ele>
        <time>2015-07-18T11:42:20Z</time>
      </trkpt>
      <trkpt lat="46.340461783111095" lon="12.228272538632154">
        <ele>972.50999999999999</ele>
        <time>2015-07-18T11:42:29Z</time>
      </trkpt>
      <trkpt lat="46.340412413701415" lon="12.228273125365376">
        <ele>969.14999999999998</ele>
        <time>2015-07-18T11:42:38Z</time>
      </trkpt>
      <trkpt lat="46.340332701802254" lon="12.228275807574391">
        <ele>966.25999999999999</ele>
        <time>2015-07-18T11:42:47Z</time>
      </trkpt>
      <trkpt lat="46.340301437303424" lon="12.228301372379065">
        <ele>964.82000000000005</ele>
        <time>2015-07-18T11:42:52Z</time>
      </trkpt>
      <trkpt lat="46.340223904699087" lon="12.228352837264538">
        <ele>962.41999999999996</ele>
        <time>2015-07-18T11:43:04Z</time>
      </trkpt>
      <trkpt lat="46.340176798403263" lon="12.228376558050513">
        <ele>961.46000000000004</ele>
        <time>2015-07-18T11:43:14Z</time>
      </trkpt>
      <trkpt lat="46.340093063190579" lon="12.228384939953685">
        <ele>957.61000000000001</ele>
        <time>2015-07-18T11:43:22Z</time>
      </trkpt>
      <trkpt lat="46.340081077069044" lon="12.228383431211114">
        <ele>957.13</ele>
        <time>2015-07-18T11:43:23Z</time>
      </trkpt>
      <trkpt lat="46.339966580271721" lon="12.228397931903601">
        <ele>953.76999999999998</ele>
        <time>2015-07-18T11:43:34Z</time>
      </trkpt>
      <trkpt lat="46.339880162850022" lon="12.228376558050513">
        <ele>950.88</ele>
        <time>2015-07-18T11:43:43Z</time>
      </trkpt>
      <trkpt lat="46.33983951061964" lon="12.228379994630814">
        <ele>949.44000000000005</ele>
        <time>2015-07-18T11:43:47Z</time>
      </trkpt>
      <trkpt lat="46.339803384616971" lon="12.228364907205105">
        <ele>948</ele>
        <time>2015-07-18T11:43:51Z</time>
      </trkpt>
      <trkpt lat="46.339790895581245" lon="12.22825082950294">
        <ele>945.11000000000001</ele>
        <time>2015-07-18T11:44:02Z</time>
      </trkpt>
      <trkpt lat="46.339796595275402" lon="12.228231718763709">
        <ele>944.14999999999998</ele>
        <time>2015-07-18T11:44:04Z</time>
      </trkpt>
      <trkpt lat="46.339797098189592" lon="12.228128537535667">
        <ele>941.26999999999998</ele>
        <time>2015-07-18T11:44:12Z</time>
      </trkpt>
      <trkpt lat="46.339744962751865" lon="12.228008508682251">
        <ele>937.89999999999998</ele>
        <time>2015-07-18T11:44:23Z</time>
      </trkpt>
      <trkpt lat="46.339741693809628" lon="12.227995600551367">
        <ele>937.89999999999998</ele>
        <time>2015-07-18T11:44:24Z</time>
      </trkpt>
      <trkpt lat="46.339685870334506" lon="12.227894095703959">
        <ele>935.98000000000002</ele>
        <time>2015-07-18T11:44:33Z</time>
      </trkpt>
      <trkpt lat="46.339669525623322" lon="12.227869369089603">
        <ele>934.05999999999995</ele>
        <time>2015-07-18T11:44:35Z</time>
      </trkpt>
      <trkpt lat="46.339645134285092" lon="12.227733330801129">
        <ele>931.64999999999998</ele>
        <time>2015-07-18T11:44:47Z</time>
      </trkpt>
      <trkpt lat="46.339614456519485" lon="12.227557310834527">
        <ele>928.76999999999998</ele>
        <time>2015-07-18T11:44:58Z</time>
      </trkpt>
      <trkpt lat="46.339627783745527" lon="12.227480281144381">
        <ele>926.85000000000002</ele>
        <time>2015-07-18T11:45:08Z</time>
      </trkpt>
      <trkpt lat="46.339640691876411" lon="12.227380871772766">
        <ele>923.48000000000002</ele>
        <time>2015-07-18T11:45:17Z</time>
      </trkpt>
      <trkpt lat="46.339597860351205" lon="12.227286910638213">
        <ele>923</ele>
        <time>2015-07-18T11:45:27Z</time>
      </trkpt>
      <trkpt lat="46.339581180363894" lon="12.227260004729033">
        <ele>920.12</ele>
        <time>2015-07-18T11:45:32Z</time>
      </trkpt>
      <trkpt lat="46.339568104594946" lon="12.22723200917244">
        <ele>918.20000000000005</ele>
        <time>2015-07-18T11:45:35Z</time>
      </trkpt>
      <trkpt lat="46.339548826217651" lon="12.22710644826293">
        <ele>917.24000000000001</ele>
        <time>2015-07-18T11:45:47Z</time>
      </trkpt>
      <trkpt lat="46.339567434042692" lon="12.227040231227875">
        <ele>916.75</ele>
        <time>2015-07-18T11:45:59Z</time>
      </trkpt>
      <trkpt lat="46.339581767097116" lon="12.226998405531049">
        <ele>916.26999999999998</ele>
        <time>2015-07-18T11:46:07Z</time>
      </trkpt>
      <trkpt lat="46.339622251689434" lon="12.226851722225547">
        <ele>913.87</ele>
        <time>2015-07-18T11:46:18Z</time>
      </trkpt>
      <trkpt lat="46.339618731290102" lon="12.226788941770792">
        <ele>913.38999999999999</ele>
        <time>2015-07-18T11:46:23Z</time>
      </trkpt>
      <trkpt lat="46.339577073231339" lon="12.22670285962522">
        <ele>910.99000000000001</ele>
        <time>2015-07-18T11:46:30Z</time>
      </trkpt>
      <trkpt lat="46.339532313868403" lon="12.226499011740088">
        <ele>908.10000000000002</ele>
        <time>2015-07-18T11:46:41Z</time>
      </trkpt>
      <trkpt lat="46.339520830661058" lon="12.226347802206874">
        <ele>905.22000000000003</ele>
        <time>2015-07-18T11:46:53Z</time>
      </trkpt>
      <trkpt lat="46.339548658579588" lon="12.226166417822242">
        <ele>902.33000000000004</ele>
        <time>2015-07-18T11:47:03Z</time>
      </trkpt>
      <trkpt lat="46.339553017169237" lon="12.22611453384161">
        <ele>901.85000000000002</ele>
        <time>2015-07-18T11:47:05Z</time>
      </trkpt>
      <trkpt lat="46.339546982198954" lon="12.226054016500711">
        <ele>900.88999999999999</ele>
        <time>2015-07-18T11:47:09Z</time>
      </trkpt>
      <trkpt lat="46.339551759883761" lon="12.225985955446959">
        <ele>899.45000000000005</ele>
        <time>2015-07-18T11:47:15Z</time>
      </trkpt>
      <trkpt lat="46.339500294998288" lon="12.225876655429602">
        <ele>896.09000000000003</ele>
        <time>2015-07-18T11:47:25Z</time>
      </trkpt>
      <trkpt lat="46.339474730193615" lon="12.225754614919424">
        <ele>892.72000000000003</ele>
        <time>2015-07-18T11:47:36Z</time>
      </trkpt>
      <trkpt lat="46.339456541463733" lon="12.2256781719625">
        <ele>889.84000000000003</ele>
        <time>2015-07-18T11:47:47Z</time>
      </trkpt>
      <trkpt lat="46.339396694675088" lon="12.22560097463429">
        <ele>886.95000000000005</ele>
        <time>2015-07-18T11:47:54Z</time>
      </trkpt>
      <trkpt lat="46.339324610307813" lon="12.225450184196234">
        <ele>883.59000000000003</ele>
        <time>2015-07-18T11:48:03Z</time>
      </trkpt>
      <trkpt lat="46.339269122108817" lon="12.2252999804914">
        <ele>880.22000000000003</ele>
        <time>2015-07-18T11:48:13Z</time>
      </trkpt>
      <trkpt lat="46.339259315282106" lon="12.225290341302752">
        <ele>880.22000000000003</ele>
        <time>2015-07-18T11:48:14Z</time>
      </trkpt>
      <trkpt lat="46.339155547320843" lon="12.225144747644663">
        <ele>876.38</ele>
        <time>2015-07-18T11:48:25Z</time>
      </trkpt>
      <trkpt lat="46.339087737724185" lon="12.225103424862027">
        <ele>874.46000000000004</ele>
        <time>2015-07-18T11:48:30Z</time>
      </trkpt>
      <trkpt lat="46.339078266173601" lon="12.225095462054014">
        <ele>873.98000000000002</ele>
        <time>2015-07-18T11:48:31Z</time>
      </trkpt>
      <trkpt lat="46.339012132957578" lon="12.22489639185369">
        <ele>870.61000000000001</ele>
        <time>2015-07-18T11:48:43Z</time>
      </trkpt>
      <trkpt lat="46.339054210111499" lon="12.224715761840343">
        <ele>867.73000000000002</ele>
        <time>2015-07-18T11:48:52Z</time>
      </trkpt>
      <trkpt lat="46.339137358590961" lon="12.22452012822032">
        <ele>864.36000000000001</ele>
        <time>2015-07-18T11:49:04Z</time>
      </trkpt>
      <trkpt lat="46.339237857609987" lon="12.224370846524835">
        <ele>861.96000000000004</ele>
        <time>2015-07-18T11:49:13Z</time>
      </trkpt>
      <trkpt lat="46.339324861764908" lon="12.224274119362235">
        <ele>861.96000000000004</ele>
        <time>2015-07-18T11:49:19Z</time>
      </trkpt>
      <trkpt lat="46.339294854551554" lon="12.224029703065753">
        <ele>862.44000000000005</ele>
        <time>2015-07-18T11:49:31Z</time>
      </trkpt>
      <trkpt lat="46.339331399649382" lon="12.223809342831373">
        <ele>862.44000000000005</ele>
        <time>2015-07-18T11:49:43Z</time>
      </trkpt>
      <trkpt lat="46.339524686336517" lon="12.223717560991645">
        <ele>862.91999999999996</ele>
        <time>2015-07-18T11:49:56Z</time>
      </trkpt>
      <trkpt lat="46.339612528681755" lon="12.223556376993656">
        <ele>862.91999999999996</ele>
        <time>2015-07-18T11:50:10Z</time>
      </trkpt>
      <trkpt lat="46.339618312194943" lon="12.223352948203683">
        <ele>863.39999999999998</ele>
        <time>2015-07-18T11:50:22Z</time>
      </trkpt>
      <trkpt lat="46.339607331901789" lon="12.223219173029065">
        <ele>863.39999999999998</ele>
        <time>2015-07-18T11:50:34Z</time>
      </trkpt>
      <trkpt lat="46.339611019939184" lon="12.223224872723222">
        <ele>862.91999999999996</ele>
        <time>2015-07-18T11:50:44Z</time>
      </trkpt>
    </trkseg>
  </trk>

</gpx>